<?xml version="1.0" encoding="UTF-8" standalone="no" ?>
<gpx xmlns="http://www.topografix.com/GPX/1/1" xmlns:xsi="http://www.w3.org/2001/XMLSchema-instance" xsi:schemaLocation="http://www.topografix.com/GPX/1/1 http://www.topografix.com/GPX/1/1/gpx.xsd" version="1.1" creator="VisuGPX - https://www.visugpx.com">
  <metadata>
    <name>Tour d'Europe: étape 031</name>
    <desc><![CDATA[Étape 031]]></desc>
  </metadata>
  <trk>
    <name><![CDATA[Tour d'Europe: étape 031 bis]]></name>
    <trkseg>
      <trkpt lat="61.76535" lon="5.25803">
        <ele>121.483811</ele>
        <time>2020-07-29T06:58:11.293Z</time>
      </trkpt>
      <trkpt lat="61.76517" lon="5.25831">
        <ele>121.483811</ele>
        <time>2020-07-29T06:58:12.405Z</time>
      </trkpt>
      <trkpt lat="61.76522" lon="5.25812">
        <ele>121.483811</ele>
        <time>2020-07-29T06:58:13.409Z</time>
      </trkpt>
      <trkpt lat="61.7649" lon="5.25832">
        <ele>121.483811</ele>
        <time>2020-07-29T07:02:37.775Z</time>
      </trkpt>
      <trkpt lat="61.76479" lon="5.25847">
        <ele>121.483811</ele>
        <time>2020-07-29T07:02:40.791Z</time>
      </trkpt>
      <trkpt lat="61.76472" lon="5.25856">
        <ele>121.483811</ele>
        <time>2020-07-29T07:02:42.813Z</time>
      </trkpt>
      <trkpt lat="61.76462" lon="5.25863">
        <ele>121.124026</ele>
        <time>2020-07-29T07:02:44.783Z</time>
      </trkpt>
      <trkpt lat="61.76453" lon="5.25868">
        <ele>120.650005</ele>
        <time>2020-07-29T07:02:46.788Z</time>
      </trkpt>
      <trkpt lat="61.76443" lon="5.25872">
        <ele>120.180393</ele>
        <time>2020-07-29T07:02:48.791Z</time>
      </trkpt>
      <trkpt lat="61.76432" lon="5.25878">
        <ele>119.629022</ele>
        <time>2020-07-29T07:02:50.779Z</time>
      </trkpt>
      <trkpt lat="61.76419" lon="5.25883">
        <ele>118.995714</ele>
        <time>2020-07-29T07:02:52.784Z</time>
      </trkpt>
      <trkpt lat="61.76406" lon="5.25887">
        <ele>118.335528</ele>
        <time>2020-07-29T07:02:54.775Z</time>
      </trkpt>
      <trkpt lat="61.76391" lon="5.2589">
        <ele>117.653545</ele>
        <time>2020-07-29T07:02:56.769Z</time>
      </trkpt>
      <trkpt lat="61.76378" lon="5.2589">
        <ele>117.008641</ele>
        <time>2020-07-29T07:02:58.787Z</time>
      </trkpt>
      <trkpt lat="61.76366" lon="5.2589">
        <ele>116.440773</ele>
        <time>2020-07-29T07:03:00.812Z</time>
      </trkpt>
      <trkpt lat="61.76355" lon="5.25892">
        <ele>115.905192</ele>
        <time>2020-07-29T07:03:02.771Z</time>
      </trkpt>
      <trkpt lat="61.76344" lon="5.25897">
        <ele>115.3596</ele>
        <time>2020-07-29T07:03:04.801Z</time>
      </trkpt>
      <trkpt lat="61.76333" lon="5.25908">
        <ele>114.766216</ele>
        <time>2020-07-29T07:03:06.789Z</time>
      </trkpt>
      <trkpt lat="61.76321" lon="5.25926">
        <ele>114.076203</ele>
        <time>2020-07-29T07:03:08.781Z</time>
      </trkpt>
      <trkpt lat="61.76313" lon="5.25949">
        <ele>113.417621</ele>
        <time>2020-07-29T07:03:10.799Z</time>
      </trkpt>
      <trkpt lat="61.76307" lon="5.25976">
        <ele>112.738841</ele>
        <time>2020-07-29T07:03:12.785Z</time>
      </trkpt>
      <trkpt lat="61.76305" lon="5.26006">
        <ele>111.898777</ele>
        <time>2020-07-29T07:03:14.777Z</time>
      </trkpt>
      <trkpt lat="61.76306" lon="5.26036">
        <ele>111.075514</ele>
        <time>2020-07-29T07:03:16.787Z</time>
      </trkpt>
      <trkpt lat="61.76307" lon="5.26064">
        <ele>110.299914</ele>
        <time>2020-07-29T07:03:18.789Z</time>
      </trkpt>
      <trkpt lat="61.76307" lon="5.26089">
        <ele>109.596576</ele>
        <time>2020-07-29T07:03:20.801Z</time>
      </trkpt>
      <trkpt lat="61.76307" lon="5.26113">
        <ele>108.947982</ele>
        <time>2020-07-29T07:03:22.791Z</time>
      </trkpt>
      <trkpt lat="61.76308" lon="5.26137">
        <ele>108.267441</ele>
        <time>2020-07-29T07:03:24.772Z</time>
      </trkpt>
      <trkpt lat="61.76309" lon="5.26166">
        <ele>107.466157</ele>
        <time>2020-07-29T07:03:26.792Z</time>
      </trkpt>
      <trkpt lat="61.76312" lon="5.26199">
        <ele>106.556031</ele>
        <time>2020-07-29T07:03:28.782Z</time>
      </trkpt>
      <trkpt lat="61.76313" lon="5.26232">
        <ele>105.64739</ele>
        <time>2020-07-29T07:03:30.771Z</time>
      </trkpt>
      <trkpt lat="61.76312" lon="5.26265">
        <ele>104.728452</ele>
        <time>2020-07-29T07:03:32.820Z</time>
      </trkpt>
      <trkpt lat="61.76311" lon="5.26297">
        <ele>103.849145</ele>
        <time>2020-07-29T07:03:34.788Z</time>
      </trkpt>
      <trkpt lat="61.76308" lon="5.26327">
        <ele>103.003035</ele>
        <time>2020-07-29T07:03:36.779Z</time>
      </trkpt>
      <trkpt lat="61.76303" lon="5.26352">
        <ele>102.176021</ele>
        <time>2020-07-29T07:03:38.767Z</time>
      </trkpt>
      <trkpt lat="61.76297" lon="5.26373">
        <ele>100.803382</ele>
        <time>2020-07-29T07:03:40.814Z</time>
      </trkpt>
      <trkpt lat="61.76289" lon="5.2639">
        <ele>99.507399</ele>
        <time>2020-07-29T07:03:42.770Z</time>
      </trkpt>
      <trkpt lat="61.7628" lon="5.26403">
        <ele>98.196912</ele>
        <time>2020-07-29T07:03:44.792Z</time>
      </trkpt>
      <trkpt lat="61.7627" lon="5.26416">
        <ele>96.821387</ele>
        <time>2020-07-29T07:03:46.777Z</time>
      </trkpt>
      <trkpt lat="61.76258" lon="5.26428">
        <ele>95.250652</ele>
        <time>2020-07-29T07:03:48.813Z</time>
      </trkpt>
      <trkpt lat="61.76245" lon="5.26438">
        <ele>93.719204</ele>
        <time>2020-07-29T07:03:50.785Z</time>
      </trkpt>
      <trkpt lat="61.76233" lon="5.26449">
        <ele>92.191832</ele>
        <time>2020-07-29T07:03:52.770Z</time>
      </trkpt>
      <trkpt lat="61.76223" lon="5.26465">
        <ele>90.721791</ele>
        <time>2020-07-29T07:03:54.790Z</time>
      </trkpt>
      <trkpt lat="61.76215" lon="5.26486">
        <ele>89.238248</ele>
        <time>2020-07-29T07:03:56.799Z</time>
      </trkpt>
      <trkpt lat="61.76208" lon="5.26507">
        <ele>87.808025</ele>
        <time>2020-07-29T07:03:58.773Z</time>
      </trkpt>
      <trkpt lat="61.76203" lon="5.2653">
        <ele>86.390168</ele>
        <time>2020-07-29T07:04:00.782Z</time>
      </trkpt>
      <trkpt lat="61.762" lon="5.26556">
        <ele>84.938496</ele>
        <time>2020-07-29T07:04:02.772Z</time>
      </trkpt>
      <trkpt lat="61.76199" lon="5.26582">
        <ele>83.512846</ele>
        <time>2020-07-29T07:04:04.789Z</time>
      </trkpt>
      <trkpt lat="61.76202" lon="5.26606">
        <ele>82.123249</ele>
        <time>2020-07-29T07:04:06.791Z</time>
      </trkpt>
      <trkpt lat="61.76206" lon="5.26631">
        <ele>81.01919</ele>
        <time>2020-07-29T07:04:08.818Z</time>
      </trkpt>
      <trkpt lat="61.76212" lon="5.26654">
        <ele>80.356165</ele>
        <time>2020-07-29T07:04:10.785Z</time>
      </trkpt>
      <trkpt lat="61.76217" lon="5.26676">
        <ele>79.726398</ele>
        <time>2020-07-29T07:04:12.821Z</time>
      </trkpt>
      <trkpt lat="61.76222" lon="5.26694">
        <ele>79.174311</ele>
        <time>2020-07-29T07:04:14.769Z</time>
      </trkpt>
      <trkpt lat="61.76227" lon="5.26712">
        <ele>78.643944</ele>
        <time>2020-07-29T07:04:17.789Z</time>
      </trkpt>
      <trkpt lat="61.76227" lon="5.26734">
        <ele>78.082834</ele>
        <time>2020-07-29T07:04:21.771Z</time>
      </trkpt>
      <trkpt lat="61.76228" lon="5.26758">
        <ele>77.457439</ele>
        <time>2020-07-29T07:04:24.773Z</time>
      </trkpt>
      <trkpt lat="61.7623" lon="5.26779">
        <ele>76.909511</ele>
        <time>2020-07-29T07:04:26.806Z</time>
      </trkpt>
      <trkpt lat="61.76233" lon="5.26802">
        <ele>76.303794</ele>
        <time>2020-07-29T07:04:28.786Z</time>
      </trkpt>
      <trkpt lat="61.76234" lon="5.26825">
        <ele>75.702317</ele>
        <time>2020-07-29T07:04:30.776Z</time>
      </trkpt>
      <trkpt lat="61.76234" lon="5.26847">
        <ele>75.13402</ele>
        <time>2020-07-29T07:04:32.765Z</time>
      </trkpt>
      <trkpt lat="61.76234" lon="5.26873">
        <ele>74.457156</ele>
        <time>2020-07-29T07:04:35.776Z</time>
      </trkpt>
      <trkpt lat="61.76233" lon="5.26898">
        <ele>73.818088</ele>
        <time>2020-07-29T07:04:38.811Z</time>
      </trkpt>
      <trkpt lat="61.76233" lon="5.26917">
        <ele>73.327346</ele>
        <time>2020-07-29T07:04:40.784Z</time>
      </trkpt>
      <trkpt lat="61.76234" lon="5.26937">
        <ele>72.799459</ele>
        <time>2020-07-29T07:04:42.771Z</time>
      </trkpt>
      <trkpt lat="61.76234" lon="5.26959">
        <ele>72.241491</ele>
        <time>2020-07-29T07:04:44.779Z</time>
      </trkpt>
      <trkpt lat="61.76234" lon="5.26978">
        <ele>71.737747</ele>
        <time>2020-07-29T07:04:46.812Z</time>
      </trkpt>
      <trkpt lat="61.76235" lon="5.27006">
        <ele>71.452182</ele>
        <time>2020-07-29T07:04:49.775Z</time>
      </trkpt>
      <trkpt lat="61.76238" lon="5.27031">
        <ele>71.353352</ele>
        <time>2020-07-29T07:04:52.791Z</time>
      </trkpt>
      <trkpt lat="61.76239" lon="5.27055">
        <ele>71.262562</ele>
        <time>2020-07-29T07:04:55.773Z</time>
      </trkpt>
      <trkpt lat="61.7624" lon="5.27081">
        <ele>71.163095</ele>
        <time>2020-07-29T07:04:58.771Z</time>
      </trkpt>
      <trkpt lat="61.76241" lon="5.27109">
        <ele>71.055608</ele>
        <time>2020-07-29T07:05:01.788Z</time>
      </trkpt>
      <trkpt lat="61.7624" lon="5.27129">
        <ele>70.98025</ele>
        <time>2020-07-29T07:05:03.781Z</time>
      </trkpt>
      <trkpt lat="61.7624" lon="5.27149">
        <ele>70.902917</ele>
        <time>2020-07-29T07:05:05.796Z</time>
      </trkpt>
      <trkpt lat="61.7624" lon="5.27169">
        <ele>70.825201</ele>
        <time>2020-07-29T07:05:07.789Z</time>
      </trkpt>
      <trkpt lat="61.76239" lon="5.2719">
        <ele>70.746389</ele>
        <time>2020-07-29T07:05:09.779Z</time>
      </trkpt>
      <trkpt lat="61.76239" lon="5.2721">
        <ele>70.670266</ele>
        <time>2020-07-29T07:05:11.778Z</time>
      </trkpt>
      <trkpt lat="61.76239" lon="5.27231">
        <ele>70.589924</ele>
        <time>2020-07-29T07:05:13.785Z</time>
      </trkpt>
      <trkpt lat="61.76239" lon="5.27252">
        <ele>70.507681</ele>
        <time>2020-07-29T07:05:15.804Z</time>
      </trkpt>
      <trkpt lat="61.76239" lon="5.27273">
        <ele>70.427351</ele>
        <time>2020-07-29T07:05:17.776Z</time>
      </trkpt>
      <trkpt lat="61.7624" lon="5.27294">
        <ele>70.348901</ele>
        <time>2020-07-29T07:05:19.780Z</time>
      </trkpt>
      <trkpt lat="61.7624" lon="5.27315">
        <ele>70.268558</ele>
        <time>2020-07-29T07:05:21.787Z</time>
      </trkpt>
      <trkpt lat="61.7624" lon="5.27337">
        <ele>70.184392</ele>
        <time>2020-07-29T07:05:23.790Z</time>
      </trkpt>
      <trkpt lat="61.7624" lon="5.27358">
        <ele>70.102532</ele>
        <time>2020-07-29T07:05:25.786Z</time>
      </trkpt>
      <trkpt lat="61.7624" lon="5.27378">
        <ele>70.287606</ele>
        <time>2020-07-29T07:05:27.795Z</time>
      </trkpt>
      <trkpt lat="61.76241" lon="5.27399">
        <ele>70.637517</ele>
        <time>2020-07-29T07:05:29.777Z</time>
      </trkpt>
      <trkpt lat="61.76242" lon="5.27419">
        <ele>70.97049</ele>
        <time>2020-07-29T07:05:31.773Z</time>
      </trkpt>
      <trkpt lat="61.76244" lon="5.27438">
        <ele>71.293089</ele>
        <time>2020-07-29T07:05:33.775Z</time>
      </trkpt>
      <trkpt lat="61.76249" lon="5.27464">
        <ele>71.751873</ele>
        <time>2020-07-29T07:05:36.780Z</time>
      </trkpt>
      <trkpt lat="61.76253" lon="5.27487">
        <ele>72.162034</ele>
        <time>2020-07-29T07:05:39.810Z</time>
      </trkpt>
      <trkpt lat="61.76258" lon="5.2751">
        <ele>72.594382</ele>
        <time>2020-07-29T07:05:42.763Z</time>
      </trkpt>
      <trkpt lat="61.76263" lon="5.27533">
        <ele>73.005456</ele>
        <time>2020-07-29T07:05:45.772Z</time>
      </trkpt>
      <trkpt lat="61.76268" lon="5.27553">
        <ele>73.395685</ele>
        <time>2020-07-29T07:05:48.776Z</time>
      </trkpt>
      <trkpt lat="61.76274" lon="5.27577">
        <ele>73.851406</ele>
        <time>2020-07-29T07:05:51.784Z</time>
      </trkpt>
      <trkpt lat="61.76281" lon="5.276">
        <ele>74.293514</ele>
        <time>2020-07-29T07:05:54.820Z</time>
      </trkpt>
      <trkpt lat="61.76287" lon="5.27622">
        <ele>74.719916</ele>
        <time>2020-07-29T07:05:57.772Z</time>
      </trkpt>
      <trkpt lat="61.76294" lon="5.27642">
        <ele>75.134222</ele>
        <time>2020-07-29T07:06:00.848Z</time>
      </trkpt>
      <trkpt lat="61.76301" lon="5.27663">
        <ele>75.545139</ele>
        <time>2020-07-29T07:06:03.819Z</time>
      </trkpt>
      <trkpt lat="61.76307" lon="5.27682">
        <ele>75.941107</ele>
        <time>2020-07-29T07:06:06.773Z</time>
      </trkpt>
      <trkpt lat="61.76313" lon="5.27701">
        <ele>76.32477</ele>
        <time>2020-07-29T07:06:09.788Z</time>
      </trkpt>
      <trkpt lat="61.76319" lon="5.2772">
        <ele>76.203191</ele>
        <time>2020-07-29T07:06:12.784Z</time>
      </trkpt>
      <trkpt lat="61.76325" lon="5.2774">
        <ele>75.954706</ele>
        <time>2020-07-29T07:06:15.788Z</time>
      </trkpt>
      <trkpt lat="61.7633" lon="5.27759">
        <ele>75.716364</ele>
        <time>2020-07-29T07:06:18.792Z</time>
      </trkpt>
      <trkpt lat="61.76335" lon="5.27779">
        <ele>75.454401</ele>
        <time>2020-07-29T07:06:21.766Z</time>
      </trkpt>
      <trkpt lat="61.76342" lon="5.27802">
        <ele>75.162039</ele>
        <time>2020-07-29T07:06:24.769Z</time>
      </trkpt>
      <trkpt lat="61.76347" lon="5.27817">
        <ele>74.950604</ele>
        <time>2020-07-29T07:06:26.777Z</time>
      </trkpt>
      <trkpt lat="61.76352" lon="5.27835">
        <ele>74.725833</ele>
        <time>2020-07-29T07:06:28.768Z</time>
      </trkpt>
      <trkpt lat="61.76358" lon="5.27854">
        <ele>74.482327</ele>
        <time>2020-07-29T07:06:30.776Z</time>
      </trkpt>
      <trkpt lat="61.76363" lon="5.27874">
        <ele>74.227873</ele>
        <time>2020-07-29T07:06:32.763Z</time>
      </trkpt>
      <trkpt lat="61.7637" lon="5.27894">
        <ele>73.96524</ele>
        <time>2020-07-29T07:06:34.768Z</time>
      </trkpt>
      <trkpt lat="61.76376" lon="5.27913">
        <ele>73.702689</ele>
        <time>2020-07-29T07:06:36.789Z</time>
      </trkpt>
      <trkpt lat="61.76382" lon="5.27933">
        <ele>73.437665</ele>
        <time>2020-07-29T07:06:38.817Z</time>
      </trkpt>
      <trkpt lat="61.76389" lon="5.27954">
        <ele>73.164903</ele>
        <time>2020-07-29T07:06:40.771Z</time>
      </trkpt>
      <trkpt lat="61.76395" lon="5.27975">
        <ele>72.885205</ele>
        <time>2020-07-29T07:06:42.768Z</time>
      </trkpt>
      <trkpt lat="61.76402" lon="5.27997">
        <ele>72.601586</ele>
        <time>2020-07-29T07:06:44.770Z</time>
      </trkpt>
      <trkpt lat="61.76409" lon="5.28019">
        <ele>72.315459</ele>
        <time>2020-07-29T07:06:46.777Z</time>
      </trkpt>
      <trkpt lat="61.76415" lon="5.28041">
        <ele>71.885627</ele>
        <time>2020-07-29T07:06:48.765Z</time>
      </trkpt>
      <trkpt lat="61.76421" lon="5.28064">
        <ele>71.361506</ele>
        <time>2020-07-29T07:06:50.812Z</time>
      </trkpt>
      <trkpt lat="61.76426" lon="5.28085">
        <ele>70.892564</ele>
        <time>2020-07-29T07:06:52.770Z</time>
      </trkpt>
      <trkpt lat="61.76431" lon="5.28104">
        <ele>70.454148</ele>
        <time>2020-07-29T07:06:54.797Z</time>
      </trkpt>
      <trkpt lat="61.76437" lon="5.28123">
        <ele>70.018184</ele>
        <time>2020-07-29T07:06:56.773Z</time>
      </trkpt>
      <trkpt lat="61.76443" lon="5.28142">
        <ele>69.565192</ele>
        <time>2020-07-29T07:06:58.783Z</time>
      </trkpt>
      <trkpt lat="61.7645" lon="5.28162">
        <ele>69.079984</ele>
        <time>2020-07-29T07:07:00.788Z</time>
      </trkpt>
      <trkpt lat="61.76456" lon="5.28182">
        <ele>68.605901</ele>
        <time>2020-07-29T07:07:02.778Z</time>
      </trkpt>
      <trkpt lat="61.76463" lon="5.28201">
        <ele>68.123075</ele>
        <time>2020-07-29T07:07:04.783Z</time>
      </trkpt>
      <trkpt lat="61.76469" lon="5.2822">
        <ele>67.670906</ele>
        <time>2020-07-29T07:07:06.807Z</time>
      </trkpt>
      <trkpt lat="61.76476" lon="5.2824">
        <ele>67.184084</ele>
        <time>2020-07-29T07:07:08.837Z</time>
      </trkpt>
      <trkpt lat="61.76483" lon="5.28261">
        <ele>66.659313</ele>
        <time>2020-07-29T07:07:10.789Z</time>
      </trkpt>
      <trkpt lat="61.76491" lon="5.28285">
        <ele>66.081267</ele>
        <time>2020-07-29T07:07:12.804Z</time>
      </trkpt>
      <trkpt lat="61.765" lon="5.2831">
        <ele>65.459872</ele>
        <time>2020-07-29T07:07:14.787Z</time>
      </trkpt>
      <trkpt lat="61.76511" lon="5.28335">
        <ele>64.799706</ele>
        <time>2020-07-29T07:07:16.775Z</time>
      </trkpt>
      <trkpt lat="61.76522" lon="5.28358">
        <ele>64.25015</ele>
        <time>2020-07-29T07:07:18.773Z</time>
      </trkpt>
      <trkpt lat="61.76534" lon="5.2838">
        <ele>63.731068</ele>
        <time>2020-07-29T07:07:20.774Z</time>
      </trkpt>
      <trkpt lat="61.76546" lon="5.28399">
        <ele>63.222319</ele>
        <time>2020-07-29T07:07:22.772Z</time>
      </trkpt>
      <trkpt lat="61.76559" lon="5.28417">
        <ele>62.706301</ele>
        <time>2020-07-29T07:07:24.792Z</time>
      </trkpt>
      <trkpt lat="61.76573" lon="5.28435">
        <ele>62.164925</ele>
        <time>2020-07-29T07:07:26.775Z</time>
      </trkpt>
      <trkpt lat="61.76588" lon="5.28451">
        <ele>61.599114</ele>
        <time>2020-07-29T07:07:28.770Z</time>
      </trkpt>
      <trkpt lat="61.76604" lon="5.28469">
        <ele>61.004624</ele>
        <time>2020-07-29T07:07:30.765Z</time>
      </trkpt>
      <trkpt lat="61.76613" lon="5.28477">
        <ele>60.693063</ele>
        <time>2020-07-29T07:07:31.768Z</time>
      </trkpt>
      <trkpt lat="61.76621" lon="5.28487">
        <ele>60.388164</ele>
        <time>2020-07-29T07:07:32.815Z</time>
      </trkpt>
      <trkpt lat="61.76629" lon="5.28496">
        <ele>60.076675</ele>
        <time>2020-07-29T07:07:33.782Z</time>
      </trkpt>
      <trkpt lat="61.76637" lon="5.28506">
        <ele>59.765098</ele>
        <time>2020-07-29T07:07:34.809Z</time>
      </trkpt>
      <trkpt lat="61.76645" lon="5.28516">
        <ele>59.460409</ele>
        <time>2020-07-29T07:07:35.802Z</time>
      </trkpt>
      <trkpt lat="61.76653" lon="5.28528">
        <ele>59.152105</ele>
        <time>2020-07-29T07:07:36.780Z</time>
      </trkpt>
      <trkpt lat="61.7666" lon="5.28541">
        <ele>58.838013</ele>
        <time>2020-07-29T07:07:37.786Z</time>
      </trkpt>
      <trkpt lat="61.76667" lon="5.28554">
        <ele>58.637668</ele>
        <time>2020-07-29T07:07:38.770Z</time>
      </trkpt>
      <trkpt lat="61.76674" lon="5.2857">
        <ele>58.492975</ele>
        <time>2020-07-29T07:07:39.783Z</time>
      </trkpt>
      <trkpt lat="61.76681" lon="5.28585">
        <ele>58.354162</ele>
        <time>2020-07-29T07:07:40.773Z</time>
      </trkpt>
      <trkpt lat="61.76687" lon="5.286">
        <ele>58.216659</ele>
        <time>2020-07-29T07:07:41.771Z</time>
      </trkpt>
      <trkpt lat="61.76693" lon="5.28616">
        <ele>58.083839</ele>
        <time>2020-07-29T07:07:42.772Z</time>
      </trkpt>
      <trkpt lat="61.76699" lon="5.28631">
        <ele>57.955265</ele>
        <time>2020-07-29T07:07:43.802Z</time>
      </trkpt>
      <trkpt lat="61.76709" lon="5.28661">
        <ele>57.706121</ele>
        <time>2020-07-29T07:07:45.769Z</time>
      </trkpt>
      <trkpt lat="61.76717" lon="5.28691">
        <ele>57.471979</ele>
        <time>2020-07-29T07:07:47.790Z</time>
      </trkpt>
      <trkpt lat="61.76725" lon="5.28719">
        <ele>57.255934</ele>
        <time>2020-07-29T07:07:49.776Z</time>
      </trkpt>
      <trkpt lat="61.76732" lon="5.28742">
        <ele>57.067178</ele>
        <time>2020-07-29T07:07:51.782Z</time>
      </trkpt>
      <trkpt lat="61.76738" lon="5.28765">
        <ele>56.889643</ele>
        <time>2020-07-29T07:07:53.827Z</time>
      </trkpt>
      <trkpt lat="61.76744" lon="5.28787">
        <ele>56.725258</ele>
        <time>2020-07-29T07:07:55.792Z</time>
      </trkpt>
      <trkpt lat="61.76749" lon="5.28806">
        <ele>56.571921</ele>
        <time>2020-07-29T07:07:57.793Z</time>
      </trkpt>
      <trkpt lat="61.76754" lon="5.28825">
        <ele>56.427545</ele>
        <time>2020-07-29T07:07:59.811Z</time>
      </trkpt>
      <trkpt lat="61.76761" lon="5.28849">
        <ele>56.240661</ele>
        <time>2020-07-29T07:08:02.781Z</time>
      </trkpt>
      <trkpt lat="61.76767" lon="5.28874">
        <ele>56.386471</ele>
        <time>2020-07-29T07:08:05.789Z</time>
      </trkpt>
      <trkpt lat="61.76773" lon="5.28896">
        <ele>56.698341</ele>
        <time>2020-07-29T07:08:08.789Z</time>
      </trkpt>
      <trkpt lat="61.7678" lon="5.28918">
        <ele>57.006652</ele>
        <time>2020-07-29T07:08:11.778Z</time>
      </trkpt>
      <trkpt lat="61.76785" lon="5.28938">
        <ele>57.2858</ele>
        <time>2020-07-29T07:08:14.767Z</time>
      </trkpt>
      <trkpt lat="61.76791" lon="5.2896">
        <ele>57.579758</ele>
        <time>2020-07-29T07:08:17.770Z</time>
      </trkpt>
      <trkpt lat="61.76797" lon="5.28983">
        <ele>57.902454</ele>
        <time>2020-07-29T07:08:20.786Z</time>
      </trkpt>
      <trkpt lat="61.76802" lon="5.28999">
        <ele>58.130384</ele>
        <time>2020-07-29T07:08:22.791Z</time>
      </trkpt>
      <trkpt lat="61.76808" lon="5.29014">
        <ele>58.364578</ele>
        <time>2020-07-29T07:08:24.780Z</time>
      </trkpt>
      <trkpt lat="61.76813" lon="5.29031">
        <ele>58.600957</ele>
        <time>2020-07-29T07:08:26.785Z</time>
      </trkpt>
      <trkpt lat="61.76818" lon="5.29047">
        <ele>58.839413</ele>
        <time>2020-07-29T07:08:28.782Z</time>
      </trkpt>
      <trkpt lat="61.76823" lon="5.29065">
        <ele>59.089417</ele>
        <time>2020-07-29T07:08:30.808Z</time>
      </trkpt>
      <trkpt lat="61.76828" lon="5.29082">
        <ele>59.322152</ele>
        <time>2020-07-29T07:08:32.816Z</time>
      </trkpt>
      <trkpt lat="61.76832" lon="5.291">
        <ele>59.559253</ele>
        <time>2020-07-29T07:08:34.765Z</time>
      </trkpt>
      <trkpt lat="61.76838" lon="5.29116">
        <ele>59.803956</ele>
        <time>2020-07-29T07:08:36.788Z</time>
      </trkpt>
      <trkpt lat="61.76843" lon="5.29132">
        <ele>60.034037</ele>
        <time>2020-07-29T07:08:38.784Z</time>
      </trkpt>
      <trkpt lat="61.76847" lon="5.2915">
        <ele>60.272595</ele>
        <time>2020-07-29T07:08:40.773Z</time>
      </trkpt>
      <trkpt lat="61.76854" lon="5.29174">
        <ele>60.601158</ele>
        <time>2020-07-29T07:08:43.765Z</time>
      </trkpt>
      <trkpt lat="61.76858" lon="5.29191">
        <ele>60.581172</ele>
        <time>2020-07-29T07:08:45.785Z</time>
      </trkpt>
      <trkpt lat="61.76863" lon="5.29209">
        <ele>60.264981</ele>
        <time>2020-07-29T07:08:47.780Z</time>
      </trkpt>
      <trkpt lat="61.76868" lon="5.29228">
        <ele>59.936943</ele>
        <time>2020-07-29T07:08:49.793Z</time>
      </trkpt>
      <trkpt lat="61.76873" lon="5.29246">
        <ele>59.604584</ele>
        <time>2020-07-29T07:08:51.776Z</time>
      </trkpt>
      <trkpt lat="61.76878" lon="5.29264">
        <ele>59.281155</ele>
        <time>2020-07-29T07:08:53.785Z</time>
      </trkpt>
      <trkpt lat="61.76883" lon="5.29282">
        <ele>58.968042</ele>
        <time>2020-07-29T07:08:55.775Z</time>
      </trkpt>
      <trkpt lat="61.76887" lon="5.29299">
        <ele>58.664224</ele>
        <time>2020-07-29T07:08:57.777Z</time>
      </trkpt>
      <trkpt lat="61.76892" lon="5.29316">
        <ele>58.348817</ele>
        <time>2020-07-29T07:08:59.767Z</time>
      </trkpt>
      <trkpt lat="61.76898" lon="5.2934">
        <ele>57.925311</ele>
        <time>2020-07-29T07:09:02.772Z</time>
      </trkpt>
      <trkpt lat="61.76904" lon="5.2936">
        <ele>57.564313</ele>
        <time>2020-07-29T07:09:05.787Z</time>
      </trkpt>
      <trkpt lat="61.7691" lon="5.29378">
        <ele>57.228582</ele>
        <time>2020-07-29T07:09:09.793Z</time>
      </trkpt>
      <trkpt lat="61.7691" lon="5.29359">
        <ele>56.935123</ele>
        <time>2020-07-29T07:09:14.788Z</time>
      </trkpt>
      <trkpt lat="61.76903" lon="5.2934">
        <ele>56.556694</ele>
        <time>2020-07-29T07:09:18.773Z</time>
      </trkpt>
      <trkpt lat="61.76897" lon="5.29323">
        <ele>56.224139</ele>
        <time>2020-07-29T07:09:21.787Z</time>
      </trkpt>
      <trkpt lat="61.76891" lon="5.29303">
        <ele>55.861417</ele>
        <time>2020-07-29T07:09:24.788Z</time>
      </trkpt>
      <trkpt lat="61.76884" lon="5.29283">
        <ele>55.480981</ele>
        <time>2020-07-29T07:09:27.770Z</time>
      </trkpt>
      <trkpt lat="61.76879" lon="5.29261">
        <ele>55.106194</ele>
        <time>2020-07-29T07:09:30.790Z</time>
      </trkpt>
      <trkpt lat="61.76873" lon="5.29241">
        <ele>54.887732</ele>
        <time>2020-07-29T07:09:33.775Z</time>
      </trkpt>
      <trkpt lat="61.76868" lon="5.29222">
        <ele>54.992554</ele>
        <time>2020-07-29T07:09:36.765Z</time>
      </trkpt>
      <trkpt lat="61.76862" lon="5.29204">
        <ele>55.092227</ele>
        <time>2020-07-29T07:09:39.796Z</time>
      </trkpt>
      <trkpt lat="61.76857" lon="5.29186">
        <ele>55.192939</ele>
        <time>2020-07-29T07:09:42.768Z</time>
      </trkpt>
      <trkpt lat="61.76852" lon="5.29167">
        <ele>55.291793</ele>
        <time>2020-07-29T07:09:45.778Z</time>
      </trkpt>
      <trkpt lat="61.76844" lon="5.2915">
        <ele>55.408399</ele>
        <time>2020-07-29T07:09:49.815Z</time>
      </trkpt>
      <trkpt lat="61.76834" lon="5.29155">
        <ele>55.505768</ele>
        <time>2020-07-29T07:09:52.806Z</time>
      </trkpt>
      <trkpt lat="61.76831" lon="5.29178">
        <ele>55.618782</ele>
        <time>2020-07-29T07:09:55.772Z</time>
      </trkpt>
      <trkpt lat="61.76832" lon="5.29198">
        <ele>55.713523</ele>
        <time>2020-07-29T07:09:59.764Z</time>
      </trkpt>
      <trkpt lat="61.76823" lon="5.29208">
        <ele>55.814283</ele>
        <time>2020-07-29T07:10:05.763Z</time>
      </trkpt>
      <trkpt lat="61.76813" lon="5.29207">
        <ele>55.910703</ele>
        <time>2020-07-29T07:10:10.772Z</time>
      </trkpt>
      <trkpt lat="61.76804" lon="5.29212">
        <ele>56.001778</ele>
        <time>2020-07-29T07:10:14.759Z</time>
      </trkpt>
      <trkpt lat="61.76797" lon="5.2923">
        <ele>56.107143</ele>
        <time>2020-07-29T07:10:19.769Z</time>
      </trkpt>
      <trkpt lat="61.76794" lon="5.29249">
        <ele>56.202825</ele>
        <time>2020-07-29T07:10:26.784Z</time>
      </trkpt>
      <trkpt lat="61.76799" lon="5.29265">
        <ele>56.295223</ele>
        <time>2020-07-29T07:10:29.805Z</time>
      </trkpt>
      <trkpt lat="61.76805" lon="5.29281">
        <ele>56.38726</ele>
        <time>2020-07-29T07:10:31.797Z</time>
      </trkpt>
      <trkpt lat="61.76811" lon="5.29296">
        <ele>56.479296</ele>
        <time>2020-07-29T07:10:33.770Z</time>
      </trkpt>
      <trkpt lat="61.76818" lon="5.29314">
        <ele>56.592401</ele>
        <time>2020-07-29T07:10:36.797Z</time>
      </trkpt>
      <trkpt lat="61.76824" lon="5.29333">
        <ele>57.234857</ele>
        <time>2020-07-29T07:10:40.795Z</time>
      </trkpt>
      <trkpt lat="61.76815" lon="5.2934">
        <ele>58.168519</ele>
        <time>2020-07-29T07:10:49.775Z</time>
      </trkpt>
      <trkpt lat="61.76811" lon="5.29318">
        <ele>59.300209</ele>
        <time>2020-07-29T07:10:53.778Z</time>
      </trkpt>
      <trkpt lat="61.76806" lon="5.293">
        <ele>60.281275</ele>
        <time>2020-07-29T07:10:56.789Z</time>
      </trkpt>
      <trkpt lat="61.76799" lon="5.2928">
        <ele>61.471421</ele>
        <time>2020-07-29T07:11:00.792Z</time>
      </trkpt>
      <trkpt lat="61.76793" lon="5.29262">
        <ele>62.546375</ele>
        <time>2020-07-29T07:11:04.773Z</time>
      </trkpt>
      <trkpt lat="61.76787" lon="5.29248">
        <ele>63.462802</ele>
        <time>2020-07-29T07:11:09.769Z</time>
      </trkpt>
      <trkpt lat="61.76778" lon="5.29238">
        <ele>64.489083</ele>
        <time>2020-07-29T07:11:16.756Z</time>
      </trkpt>
      <trkpt lat="61.76768" lon="5.2923">
        <ele>65.534199</ele>
        <time>2020-07-29T07:11:23.768Z</time>
      </trkpt>
      <trkpt lat="61.76758" lon="5.29229">
        <ele>66.596796</ele>
        <time>2020-07-29T07:11:31.773Z</time>
      </trkpt>
      <trkpt lat="61.76749" lon="5.29237">
        <ele>67.539886</ele>
        <time>2020-07-29T07:11:39.768Z</time>
      </trkpt>
      <trkpt lat="61.76741" lon="5.29248">
        <ele>68.545862</ele>
        <time>2020-07-29T07:11:48.768Z</time>
      </trkpt>
      <trkpt lat="61.76734" lon="5.29261">
        <ele>69.474505</ele>
        <time>2020-07-29T07:11:57.778Z</time>
      </trkpt>
      <trkpt lat="61.76725" lon="5.29273">
        <ele>70.492195</ele>
        <time>2020-07-29T07:12:05.785Z</time>
      </trkpt>
      <trkpt lat="61.76718" lon="5.29283">
        <ele>71.400197</ele>
        <time>2020-07-29T07:12:11.769Z</time>
      </trkpt>
      <trkpt lat="61.76709" lon="5.29294">
        <ele>72.424907</ele>
        <time>2020-07-29T07:12:18.811Z</time>
      </trkpt>
      <trkpt lat="61.767" lon="5.29304">
        <ele>73.431285</ele>
        <time>2020-07-29T07:12:27.784Z</time>
      </trkpt>
      <trkpt lat="61.76692" lon="5.2931">
        <ele>74.354786</ele>
        <time>2020-07-29T07:12:36.781Z</time>
      </trkpt>
      <trkpt lat="61.76683" lon="5.29314">
        <ele>75.342654</ele>
        <time>2020-07-29T07:12:46.777Z</time>
      </trkpt>
      <trkpt lat="61.76674" lon="5.29318">
        <ele>76.397612</ele>
        <time>2020-07-29T07:12:56.775Z</time>
      </trkpt>
      <trkpt lat="61.76665" lon="5.29321">
        <ele>77.431985</ele>
        <time>2020-07-29T07:13:04.787Z</time>
      </trkpt>
      <trkpt lat="61.76655" lon="5.29323">
        <ele>78.552282</ele>
        <time>2020-07-29T07:13:13.781Z</time>
      </trkpt>
      <trkpt lat="61.76646" lon="5.2933">
        <ele>79.581125</ele>
        <time>2020-07-29T07:13:21.794Z</time>
      </trkpt>
      <trkpt lat="61.76637" lon="5.29333">
        <ele>80.660448</ele>
        <time>2020-07-29T07:13:30.785Z</time>
      </trkpt>
      <trkpt lat="61.76627" lon="5.29335">
        <ele>81.80519</ele>
        <time>2020-07-29T07:13:38.768Z</time>
      </trkpt>
      <trkpt lat="61.76618" lon="5.29337">
        <ele>82.832318</ele>
        <time>2020-07-29T07:13:46.773Z</time>
      </trkpt>
      <trkpt lat="61.76609" lon="5.29339">
        <ele>83.892908</ele>
        <time>2020-07-29T07:13:55.766Z</time>
      </trkpt>
      <trkpt lat="61.76599" lon="5.2934">
        <ele>84.997946</ele>
        <time>2020-07-29T07:14:03.779Z</time>
      </trkpt>
      <trkpt lat="61.7659" lon="5.29341">
        <ele>86.044612</ele>
        <time>2020-07-29T07:14:11.764Z</time>
      </trkpt>
      <trkpt lat="61.7658" lon="5.29342">
        <ele>87.124638</ele>
        <time>2020-07-29T07:14:19.773Z</time>
      </trkpt>
      <trkpt lat="61.7657" lon="5.29342">
        <ele>88.23821</ele>
        <time>2020-07-29T07:14:26.792Z</time>
      </trkpt>
      <trkpt lat="61.76561" lon="5.29344">
        <ele>89.300311</ele>
        <time>2020-07-29T07:14:34.780Z</time>
      </trkpt>
      <trkpt lat="61.76551" lon="5.29346">
        <ele>90.464189</ele>
        <time>2020-07-29T07:14:43.774Z</time>
      </trkpt>
      <trkpt lat="61.76542" lon="5.29352">
        <ele>91.550493</ele>
        <time>2020-07-29T07:14:52.779Z</time>
      </trkpt>
      <trkpt lat="61.76533" lon="5.2936">
        <ele>92.663265</ele>
        <time>2020-07-29T07:15:01.775Z</time>
      </trkpt>
      <trkpt lat="61.76527" lon="5.29375">
        <ele>93.698802</ele>
        <time>2020-07-29T07:15:09.765Z</time>
      </trkpt>
      <trkpt lat="61.76524" lon="5.29394">
        <ele>94.7671</ele>
        <time>2020-07-29T07:15:18.766Z</time>
      </trkpt>
      <trkpt lat="61.76528" lon="5.29412">
        <ele>95.926204</ele>
        <time>2020-07-29T07:15:27.772Z</time>
      </trkpt>
      <trkpt lat="61.76534" lon="5.29426">
        <ele>97.156739</ele>
        <time>2020-07-29T07:15:35.780Z</time>
      </trkpt>
      <trkpt lat="61.76543" lon="5.29434">
        <ele>98.497672</ele>
        <time>2020-07-29T07:15:45.796Z</time>
      </trkpt>
      <trkpt lat="61.76552" lon="5.29443">
        <ele>99.848868</ele>
        <time>2020-07-29T07:15:53.770Z</time>
      </trkpt>
      <trkpt lat="61.76561" lon="5.2945">
        <ele>101.142286</ele>
        <time>2020-07-29T07:16:01.787Z</time>
      </trkpt>
      <trkpt lat="61.7657" lon="5.29456">
        <ele>102.480942</ele>
        <time>2020-07-29T07:16:09.770Z</time>
      </trkpt>
      <trkpt lat="61.7658" lon="5.29459">
        <ele>103.743768</ele>
        <time>2020-07-29T07:16:18.782Z</time>
      </trkpt>
      <trkpt lat="61.76588" lon="5.29467">
        <ele>104.987429</ele>
        <time>2020-07-29T07:16:27.792Z</time>
      </trkpt>
      <trkpt lat="61.76597" lon="5.29473">
        <ele>106.212701</ele>
        <time>2020-07-29T07:16:35.782Z</time>
      </trkpt>
      <trkpt lat="61.76605" lon="5.2948">
        <ele>107.474547</ele>
        <time>2020-07-29T07:16:44.774Z</time>
      </trkpt>
      <trkpt lat="61.76613" lon="5.2949">
        <ele>108.694802</ele>
        <time>2020-07-29T07:16:54.767Z</time>
      </trkpt>
      <trkpt lat="61.76621" lon="5.29499">
        <ele>109.944951</ele>
        <time>2020-07-29T07:17:03.804Z</time>
      </trkpt>
      <trkpt lat="61.76631" lon="5.29505">
        <ele>111.275965</ele>
        <time>2020-07-29T07:17:13.760Z</time>
      </trkpt>
      <trkpt lat="61.76639" lon="5.29514">
        <ele>112.557469</ele>
        <time>2020-07-29T07:17:21.783Z</time>
      </trkpt>
      <trkpt lat="61.76647" lon="5.29523">
        <ele>113.84305</ele>
        <time>2020-07-29T07:17:28.774Z</time>
      </trkpt>
      <trkpt lat="61.76655" lon="5.29533">
        <ele>115.091229</ele>
        <time>2020-07-29T07:17:36.793Z</time>
      </trkpt>
      <trkpt lat="61.76663" lon="5.29545">
        <ele>116.358162</ele>
        <time>2020-07-29T07:17:44.775Z</time>
      </trkpt>
      <trkpt lat="61.76672" lon="5.29553">
        <ele>117.644213</ele>
        <time>2020-07-29T07:17:52.769Z</time>
      </trkpt>
      <trkpt lat="61.76679" lon="5.29566">
        <ele>118.905671</ele>
        <time>2020-07-29T07:18:00.768Z</time>
      </trkpt>
      <trkpt lat="61.76684" lon="5.29581">
        <ele>120.080908</ele>
        <time>2020-07-29T07:18:09.805Z</time>
      </trkpt>
      <trkpt lat="61.7669" lon="5.29596">
        <ele>121.213067</ele>
        <time>2020-07-29T07:18:18.786Z</time>
      </trkpt>
      <trkpt lat="61.76694" lon="5.29613">
        <ele>122.335403</ele>
        <time>2020-07-29T07:18:28.777Z</time>
      </trkpt>
      <trkpt lat="61.76695" lon="5.29633">
        <ele>123.469659</ele>
        <time>2020-07-29T07:18:38.765Z</time>
      </trkpt>
      <trkpt lat="61.76698" lon="5.29651">
        <ele>124.593023</ele>
        <time>2020-07-29T07:18:47.761Z</time>
      </trkpt>
      <trkpt lat="61.76702" lon="5.29668">
        <ele>125.69964</ele>
        <time>2020-07-29T07:18:55.771Z</time>
      </trkpt>
      <trkpt lat="61.76706" lon="5.29686">
        <ele>126.843203</ele>
        <time>2020-07-29T07:19:04.773Z</time>
      </trkpt>
      <trkpt lat="61.76709" lon="5.29705">
        <ele>128.025352</ele>
        <time>2020-07-29T07:19:12.769Z</time>
      </trkpt>
      <trkpt lat="61.76714" lon="5.29723">
        <ele>129.268346</ele>
        <time>2020-07-29T07:19:20.789Z</time>
      </trkpt>
      <trkpt lat="61.7672" lon="5.2974">
        <ele>130.450177</ele>
        <time>2020-07-29T07:19:28.792Z</time>
      </trkpt>
      <trkpt lat="61.76724" lon="5.29757">
        <ele>131.567795</ele>
        <time>2020-07-29T07:19:35.768Z</time>
      </trkpt>
      <trkpt lat="61.7673" lon="5.29773">
        <ele>132.741969</ele>
        <time>2020-07-29T07:19:43.783Z</time>
      </trkpt>
      <trkpt lat="61.76735" lon="5.29792">
        <ele>134.020326</ele>
        <time>2020-07-29T07:19:52.763Z</time>
      </trkpt>
      <trkpt lat="61.76738" lon="5.2981">
        <ele>135.130202</ele>
        <time>2020-07-29T07:20:00.783Z</time>
      </trkpt>
      <trkpt lat="61.76744" lon="5.29827">
        <ele>136.363825</ele>
        <time>2020-07-29T07:20:10.783Z</time>
      </trkpt>
      <trkpt lat="61.76751" lon="5.29843">
        <ele>137.577173</ele>
        <time>2020-07-29T07:20:18.816Z</time>
      </trkpt>
      <trkpt lat="61.76756" lon="5.29859">
        <ele>138.713428</ele>
        <time>2020-07-29T07:20:27.773Z</time>
      </trkpt>
      <trkpt lat="61.76763" lon="5.29874">
        <ele>139.932793</ele>
        <time>2020-07-29T07:20:36.792Z</time>
      </trkpt>
      <trkpt lat="61.76769" lon="5.2989">
        <ele>141.181845</ele>
        <time>2020-07-29T07:20:45.767Z</time>
      </trkpt>
      <trkpt lat="61.76773" lon="5.29909">
        <ele>141.989169</ele>
        <time>2020-07-29T07:20:52.770Z</time>
      </trkpt>
      <trkpt lat="61.76778" lon="5.29925">
        <ele>142.400818</ele>
        <time>2020-07-29T07:21:00.801Z</time>
      </trkpt>
      <trkpt lat="61.76784" lon="5.29941">
        <ele>142.825691</ele>
        <time>2020-07-29T07:21:09.810Z</time>
      </trkpt>
      <trkpt lat="61.76788" lon="5.2996">
        <ele>143.266525</ele>
        <time>2020-07-29T07:21:17.769Z</time>
      </trkpt>
      <trkpt lat="61.7679" lon="5.29979">
        <ele>143.684868</ele>
        <time>2020-07-29T07:21:25.774Z</time>
      </trkpt>
      <trkpt lat="61.76795" lon="5.29996">
        <ele>144.091769</ele>
        <time>2020-07-29T07:21:33.770Z</time>
      </trkpt>
      <trkpt lat="61.76799" lon="5.30014">
        <ele>144.519694</ele>
        <time>2020-07-29T07:21:41.767Z</time>
      </trkpt>
      <trkpt lat="61.76804" lon="5.3003">
        <ele>144.928782</ele>
        <time>2020-07-29T07:21:50.768Z</time>
      </trkpt>
      <trkpt lat="61.76806" lon="5.30051">
        <ele>145.3701</ele>
        <time>2020-07-29T07:21:59.803Z</time>
      </trkpt>
      <trkpt lat="61.76811" lon="5.30068">
        <ele>145.793783</ele>
        <time>2020-07-29T07:22:07.782Z</time>
      </trkpt>
      <trkpt lat="61.76815" lon="5.30085">
        <ele>146.201433</ele>
        <time>2020-07-29T07:22:16.772Z</time>
      </trkpt>
      <trkpt lat="61.76819" lon="5.30103">
        <ele>146.620911</ele>
        <time>2020-07-29T07:22:24.769Z</time>
      </trkpt>
      <trkpt lat="61.76823" lon="5.30122">
        <ele>147.047388</ele>
        <time>2020-07-29T07:22:33.779Z</time>
      </trkpt>
      <trkpt lat="61.76828" lon="5.30137">
        <ele>147.457808</ele>
        <time>2020-07-29T07:22:42.789Z</time>
      </trkpt>
      <trkpt lat="61.76832" lon="5.30157">
        <ele>147.91374</ele>
        <time>2020-07-29T07:22:51.772Z</time>
      </trkpt>
      <trkpt lat="61.76837" lon="5.30174">
        <ele>148.337952</ele>
        <time>2020-07-29T07:23:06.765Z</time>
      </trkpt>
      <trkpt lat="61.76876" lon="5.30353">
        <ele>154.639247</ele>
        <time>2020-07-29T07:24:20.811Z</time>
      </trkpt>
      <trkpt lat="61.76886" lon="5.30355">
        <ele>155.455826</ele>
        <time>2020-07-29T07:24:28.791Z</time>
      </trkpt>
      <trkpt lat="61.76895" lon="5.30361">
        <ele>156.185703</ele>
        <time>2020-07-29T07:24:39.800Z</time>
      </trkpt>
      <trkpt lat="61.76901" lon="5.30377">
        <ele>156.992754</ele>
        <time>2020-07-29T07:24:46.804Z</time>
      </trkpt>
      <trkpt lat="61.7691" lon="5.30389">
        <ele>157.84192</ele>
        <time>2020-07-29T07:24:53.791Z</time>
      </trkpt>
      <trkpt lat="61.76918" lon="5.30399">
        <ele>158.59889</ele>
        <time>2020-07-29T07:25:00.777Z</time>
      </trkpt>
      <trkpt lat="61.76926" lon="5.30411">
        <ele>159.339924</ele>
        <time>2020-07-29T07:25:07.773Z</time>
      </trkpt>
      <trkpt lat="61.76934" lon="5.30422">
        <ele>160.131414</ele>
        <time>2020-07-29T07:25:16.791Z</time>
      </trkpt>
      <trkpt lat="61.76942" lon="5.3043">
        <ele>160.877075</ele>
        <time>2020-07-29T07:25:25.792Z</time>
      </trkpt>
      <trkpt lat="61.76952" lon="5.3043">
        <ele>161.63342</ele>
        <time>2020-07-29T07:25:34.791Z</time>
      </trkpt>
      <trkpt lat="61.76961" lon="5.30433">
        <ele>162.35857</ele>
        <time>2020-07-29T07:25:41.784Z</time>
      </trkpt>
      <trkpt lat="61.7697" lon="5.30434">
        <ele>163.141416</ele>
        <time>2020-07-29T07:25:52.791Z</time>
      </trkpt>
      <trkpt lat="61.76979" lon="5.30441">
        <ele>163.919282</ele>
        <time>2020-07-29T07:26:02.793Z</time>
      </trkpt>
      <trkpt lat="61.76989" lon="5.30445">
        <ele>164.484941</ele>
        <time>2020-07-29T07:26:11.785Z</time>
      </trkpt>
      <trkpt lat="61.76998" lon="5.30451">
        <ele>164.845836</ele>
        <time>2020-07-29T07:26:18.795Z</time>
      </trkpt>
      <trkpt lat="61.77007" lon="5.30458">
        <ele>165.208663</ele>
        <time>2020-07-29T07:26:24.792Z</time>
      </trkpt>
      <trkpt lat="61.77016" lon="5.30466">
        <ele>165.56747</ele>
        <time>2020-07-29T07:26:29.792Z</time>
      </trkpt>
      <trkpt lat="61.77025" lon="5.30474">
        <ele>165.930331</ele>
        <time>2020-07-29T07:26:35.788Z</time>
      </trkpt>
      <trkpt lat="61.77035" lon="5.30478">
        <ele>166.309226</ele>
        <time>2020-07-29T07:26:42.791Z</time>
      </trkpt>
      <trkpt lat="61.77044" lon="5.30483">
        <ele>166.677683</ele>
        <time>2020-07-29T07:26:49.775Z</time>
      </trkpt>
      <trkpt lat="61.77053" lon="5.30489">
        <ele>167.026377</ele>
        <time>2020-07-29T07:26:55.805Z</time>
      </trkpt>
      <trkpt lat="61.77062" lon="5.30496">
        <ele>167.391024</ele>
        <time>2020-07-29T07:27:01.797Z</time>
      </trkpt>
      <trkpt lat="61.77072" lon="5.30504">
        <ele>167.775353</ele>
        <time>2020-07-29T07:27:08.785Z</time>
      </trkpt>
      <trkpt lat="61.77081" lon="5.3051">
        <ele>168.127063</ele>
        <time>2020-07-29T07:27:14.769Z</time>
      </trkpt>
      <trkpt lat="61.7709" lon="5.30513">
        <ele>168.479262</ele>
        <time>2020-07-29T07:27:20.797Z</time>
      </trkpt>
      <trkpt lat="61.77099" lon="5.30516">
        <ele>168.831991</ele>
        <time>2020-07-29T07:27:26.810Z</time>
      </trkpt>
      <trkpt lat="61.77108" lon="5.30522">
        <ele>169.18226</ele>
        <time>2020-07-29T07:27:32.806Z</time>
      </trkpt>
      <trkpt lat="61.77117" lon="5.30527">
        <ele>169.540071</ele>
        <time>2020-07-29T07:27:38.775Z</time>
      </trkpt>
      <trkpt lat="61.77127" lon="5.30531">
        <ele>169.903203</ele>
        <time>2020-07-29T07:27:44.808Z</time>
      </trkpt>
      <trkpt lat="61.77136" lon="5.30535">
        <ele>170.278747</ele>
        <time>2020-07-29T07:27:51.777Z</time>
      </trkpt>
      <trkpt lat="61.77145" lon="5.30544">
        <ele>170.639475</ele>
        <time>2020-07-29T07:27:59.808Z</time>
      </trkpt>
      <trkpt lat="61.77154" lon="5.3055">
        <ele>170.992656</ele>
        <time>2020-07-29T07:28:06.799Z</time>
      </trkpt>
      <trkpt lat="61.77164" lon="5.30556">
        <ele>171.803001</ele>
        <time>2020-07-29T07:28:14.776Z</time>
      </trkpt>
      <trkpt lat="61.77173" lon="5.3056">
        <ele>172.705222</ele>
        <time>2020-07-29T07:28:22.800Z</time>
      </trkpt>
      <trkpt lat="61.77182" lon="5.30566">
        <ele>173.536289</ele>
        <time>2020-07-29T07:28:30.800Z</time>
      </trkpt>
      <trkpt lat="61.77191" lon="5.30572">
        <ele>174.405238</ele>
        <time>2020-07-29T07:28:38.776Z</time>
      </trkpt>
      <trkpt lat="61.77201" lon="5.30578">
        <ele>175.332804</ele>
        <time>2020-07-29T07:28:46.777Z</time>
      </trkpt>
      <trkpt lat="61.7721" lon="5.30581">
        <ele>176.218341</ele>
        <time>2020-07-29T07:28:54.769Z</time>
      </trkpt>
      <trkpt lat="61.7722" lon="5.30587">
        <ele>177.12962</ele>
        <time>2020-07-29T07:29:02.773Z</time>
      </trkpt>
      <trkpt lat="61.77229" lon="5.30593">
        <ele>178.0108</ele>
        <time>2020-07-29T07:29:10.794Z</time>
      </trkpt>
      <trkpt lat="61.77238" lon="5.306">
        <ele>178.941564</ele>
        <time>2020-07-29T07:29:18.779Z</time>
      </trkpt>
      <trkpt lat="61.77248" lon="5.30606">
        <ele>179.826202</ele>
        <time>2020-07-29T07:29:25.780Z</time>
      </trkpt>
      <trkpt lat="61.77256" lon="5.30615">
        <ele>180.716605</ele>
        <time>2020-07-29T07:29:34.788Z</time>
      </trkpt>
      <trkpt lat="61.77266" lon="5.30618">
        <ele>181.606069</ele>
        <time>2020-07-29T07:29:43.792Z</time>
      </trkpt>
      <trkpt lat="61.77275" lon="5.30627">
        <ele>182.507797</ele>
        <time>2020-07-29T07:29:53.792Z</time>
      </trkpt>
      <trkpt lat="61.77285" lon="5.30631">
        <ele>183.427092</ele>
        <time>2020-07-29T07:30:02.774Z</time>
      </trkpt>
      <trkpt lat="61.77294" lon="5.30634">
        <ele>184.310218</ele>
        <time>2020-07-29T07:30:10.784Z</time>
      </trkpt>
      <trkpt lat="61.77303" lon="5.30638">
        <ele>185.134326</ele>
        <time>2020-07-29T07:30:19.777Z</time>
      </trkpt>
      <trkpt lat="61.77312" lon="5.30643">
        <ele>186.001834</ele>
        <time>2020-07-29T07:30:27.767Z</time>
      </trkpt>
      <trkpt lat="61.77321" lon="5.30649">
        <ele>186.824571</ele>
        <time>2020-07-29T07:30:35.784Z</time>
      </trkpt>
      <trkpt lat="61.7733" lon="5.30654">
        <ele>187.663791</ele>
        <time>2020-07-29T07:30:44.796Z</time>
      </trkpt>
      <trkpt lat="61.77339" lon="5.3066">
        <ele>188.523089</ele>
        <time>2020-07-29T07:30:53.787Z</time>
      </trkpt>
      <trkpt lat="61.77348" lon="5.30666">
        <ele>189.302081</ele>
        <time>2020-07-29T07:31:01.779Z</time>
      </trkpt>
      <trkpt lat="61.77357" lon="5.30671">
        <ele>190.105159</ele>
        <time>2020-07-29T07:31:09.799Z</time>
      </trkpt>
      <trkpt lat="61.77366" lon="5.30678">
        <ele>190.920226</ele>
        <time>2020-07-29T07:31:18.787Z</time>
      </trkpt>
      <trkpt lat="61.77375" lon="5.30684">
        <ele>191.719732</ele>
        <time>2020-07-29T07:31:27.791Z</time>
      </trkpt>
      <trkpt lat="61.77385" lon="5.30688">
        <ele>192.539314</ele>
        <time>2020-07-29T07:31:36.778Z</time>
      </trkpt>
      <trkpt lat="61.77393" lon="5.30694">
        <ele>193.322628</ele>
        <time>2020-07-29T07:31:46.788Z</time>
      </trkpt>
      <trkpt lat="61.77402" lon="5.30702">
        <ele>194.140534</ele>
        <time>2020-07-29T07:31:56.798Z</time>
      </trkpt>
      <trkpt lat="61.77411" lon="5.30709">
        <ele>194.911211</ele>
        <time>2020-07-29T07:32:04.783Z</time>
      </trkpt>
      <trkpt lat="61.7742" lon="5.30715">
        <ele>195.745514</ele>
        <time>2020-07-29T07:32:13.802Z</time>
      </trkpt>
      <trkpt lat="61.77429" lon="5.30722">
        <ele>196.574123</ele>
        <time>2020-07-29T07:32:23.804Z</time>
      </trkpt>
      <trkpt lat="61.77439" lon="5.30729">
        <ele>197.421563</ele>
        <time>2020-07-29T07:32:31.789Z</time>
      </trkpt>
      <trkpt lat="61.77448" lon="5.30735">
        <ele>198.250201</ele>
        <time>2020-07-29T07:32:40.791Z</time>
      </trkpt>
      <trkpt lat="61.77457" lon="5.3074">
        <ele>199.052162</ele>
        <time>2020-07-29T07:32:48.778Z</time>
      </trkpt>
      <trkpt lat="61.77466" lon="5.30746">
        <ele>199.820563</ele>
        <time>2020-07-29T07:32:57.765Z</time>
      </trkpt>
      <trkpt lat="61.77475" lon="5.30753">
        <ele>200.624884</ele>
        <time>2020-07-29T07:33:06.855Z</time>
      </trkpt>
      <trkpt lat="61.77483" lon="5.30762">
        <ele>201.390375</ele>
        <time>2020-07-29T07:33:15.766Z</time>
      </trkpt>
      <trkpt lat="61.77492" lon="5.30768">
        <ele>202.206104</ele>
        <time>2020-07-29T07:33:25.790Z</time>
      </trkpt>
      <trkpt lat="61.77501" lon="5.30774">
        <ele>203.058089</ele>
        <time>2020-07-29T07:33:34.786Z</time>
      </trkpt>
      <trkpt lat="61.7751" lon="5.30779">
        <ele>203.942525</ele>
        <time>2020-07-29T07:33:43.829Z</time>
      </trkpt>
      <trkpt lat="61.77519" lon="5.30788">
        <ele>204.854548</ele>
        <time>2020-07-29T07:33:52.788Z</time>
      </trkpt>
      <trkpt lat="61.77529" lon="5.30793">
        <ele>205.751411</ele>
        <time>2020-07-29T07:34:00.779Z</time>
      </trkpt>
      <trkpt lat="61.77537" lon="5.30802">
        <ele>206.624259</ele>
        <time>2020-07-29T07:34:09.782Z</time>
      </trkpt>
      <trkpt lat="61.77546" lon="5.30806">
        <ele>207.491744</ele>
        <time>2020-07-29T07:34:18.807Z</time>
      </trkpt>
      <trkpt lat="61.77555" lon="5.30815">
        <ele>208.376357</ele>
        <time>2020-07-29T07:34:28.787Z</time>
      </trkpt>
      <trkpt lat="61.77563" lon="5.30822">
        <ele>209.269642</ele>
        <time>2020-07-29T07:34:37.811Z</time>
      </trkpt>
      <trkpt lat="61.77572" lon="5.30828">
        <ele>210.120634</ele>
        <time>2020-07-29T07:34:46.777Z</time>
      </trkpt>
      <trkpt lat="61.77581" lon="5.30835">
        <ele>210.974222</ele>
        <time>2020-07-29T07:34:55.782Z</time>
      </trkpt>
      <trkpt lat="61.7759" lon="5.30841">
        <ele>211.917478</ele>
        <time>2020-07-29T07:35:04.772Z</time>
      </trkpt>
      <trkpt lat="61.776" lon="5.30846">
        <ele>212.822373</ele>
        <time>2020-07-29T07:35:12.775Z</time>
      </trkpt>
      <trkpt lat="61.77608" lon="5.30855">
        <ele>213.7371</ele>
        <time>2020-07-29T07:35:22.804Z</time>
      </trkpt>
      <trkpt lat="61.77617" lon="5.30859">
        <ele>214.584302</ele>
        <time>2020-07-29T07:35:30.806Z</time>
      </trkpt>
      <trkpt lat="61.77625" lon="5.3087">
        <ele>215.495383</ele>
        <time>2020-07-29T07:35:39.773Z</time>
      </trkpt>
      <trkpt lat="61.77635" lon="5.30876">
        <ele>216.378631</ele>
        <time>2020-07-29T07:35:50.769Z</time>
      </trkpt>
      <trkpt lat="61.77644" lon="5.3088">
        <ele>217.308861</ele>
        <time>2020-07-29T07:35:59.787Z</time>
      </trkpt>
      <trkpt lat="61.77653" lon="5.30886">
        <ele>218.15608</ele>
        <time>2020-07-29T07:36:06.809Z</time>
      </trkpt>
      <trkpt lat="61.77662" lon="5.30893">
        <ele>219.087474</ele>
        <time>2020-07-29T07:36:15.837Z</time>
      </trkpt>
      <trkpt lat="61.77671" lon="5.30899">
        <ele>220.103631</ele>
        <time>2020-07-29T07:36:24.817Z</time>
      </trkpt>
      <trkpt lat="61.7768" lon="5.30906">
        <ele>221.273946</ele>
        <time>2020-07-29T07:36:32.809Z</time>
      </trkpt>
      <trkpt lat="61.77688" lon="5.30913">
        <ele>222.481382</ele>
        <time>2020-07-29T07:36:41.771Z</time>
      </trkpt>
      <trkpt lat="61.77697" lon="5.3092">
        <ele>223.710863</ele>
        <time>2020-07-29T07:36:49.835Z</time>
      </trkpt>
      <trkpt lat="61.77705" lon="5.30929">
        <ele>224.867272</ele>
        <time>2020-07-29T07:36:57.775Z</time>
      </trkpt>
      <trkpt lat="61.77713" lon="5.30939">
        <ele>226.051502</ele>
        <time>2020-07-29T07:37:05.790Z</time>
      </trkpt>
      <trkpt lat="61.7772" lon="5.30953">
        <ele>227.330737</ele>
        <time>2020-07-29T07:37:15.815Z</time>
      </trkpt>
      <trkpt lat="61.77727" lon="5.3097">
        <ele>228.652055</ele>
        <time>2020-07-29T07:37:24.784Z</time>
      </trkpt>
      <trkpt lat="61.77731" lon="5.30987">
        <ele>229.819573</ele>
        <time>2020-07-29T07:37:34.785Z</time>
      </trkpt>
      <trkpt lat="61.77734" lon="5.31005">
        <ele>231.041698</ele>
        <time>2020-07-29T07:37:43.797Z</time>
      </trkpt>
      <trkpt lat="61.77736" lon="5.31025">
        <ele>232.251474</ele>
        <time>2020-07-29T07:37:50.803Z</time>
      </trkpt>
      <trkpt lat="61.77738" lon="5.31045">
        <ele>233.49649</ele>
        <time>2020-07-29T07:38:01.814Z</time>
      </trkpt>
      <trkpt lat="61.77736" lon="5.31066">
        <ele>234.827181</ele>
        <time>2020-07-29T07:38:09.768Z</time>
      </trkpt>
      <trkpt lat="61.77732" lon="5.31085">
        <ele>236.078584</ele>
        <time>2020-07-29T07:38:19.786Z</time>
      </trkpt>
      <trkpt lat="61.77725" lon="5.311">
        <ele>237.364272</ele>
        <time>2020-07-29T07:38:27.795Z</time>
      </trkpt>
      <trkpt lat="61.7772" lon="5.31117">
        <ele>238.610483</ele>
        <time>2020-07-29T07:38:37.780Z</time>
      </trkpt>
      <trkpt lat="61.77712" lon="5.31129">
        <ele>239.878641</ele>
        <time>2020-07-29T07:38:47.798Z</time>
      </trkpt>
      <trkpt lat="61.77704" lon="5.31141">
        <ele>241.16271</ele>
        <time>2020-07-29T07:38:56.787Z</time>
      </trkpt>
      <trkpt lat="61.77697" lon="5.31156">
        <ele>242.395279</ele>
        <time>2020-07-29T07:39:06.776Z</time>
      </trkpt>
      <trkpt lat="61.77694" lon="5.31174">
        <ele>243.268564</ele>
        <time>2020-07-29T07:39:13.803Z</time>
      </trkpt>
      <trkpt lat="61.77688" lon="5.31191">
        <ele>243.893164</ele>
        <time>2020-07-29T07:39:22.802Z</time>
      </trkpt>
      <trkpt lat="61.77682" lon="5.31206">
        <ele>244.473758</ele>
        <time>2020-07-29T07:39:30.789Z</time>
      </trkpt>
      <trkpt lat="61.77672" lon="5.31208">
        <ele>245.126533</ele>
        <time>2020-07-29T07:39:37.778Z</time>
      </trkpt>
      <trkpt lat="61.77662" lon="5.31213">
        <ele>245.750779</ele>
        <time>2020-07-29T07:39:44.801Z</time>
      </trkpt>
      <trkpt lat="61.77655" lon="5.31224">
        <ele>246.326256</ele>
        <time>2020-07-29T07:39:51.789Z</time>
      </trkpt>
      <trkpt lat="61.77647" lon="5.31238">
        <ele>246.968038</ele>
        <time>2020-07-29T07:39:59.792Z</time>
      </trkpt>
      <trkpt lat="61.77642" lon="5.31254">
        <ele>247.560657</ele>
        <time>2020-07-29T07:40:07.773Z</time>
      </trkpt>
      <trkpt lat="61.77636" lon="5.3127">
        <ele>248.160662</ele>
        <time>2020-07-29T07:40:14.799Z</time>
      </trkpt>
      <trkpt lat="61.77629" lon="5.31282">
        <ele>248.735145</ele>
        <time>2020-07-29T07:40:22.804Z</time>
      </trkpt>
      <trkpt lat="61.77622" lon="5.31295">
        <ele>249.338945</ele>
        <time>2020-07-29T07:40:30.796Z</time>
      </trkpt>
      <trkpt lat="61.77614" lon="5.31306">
        <ele>249.919118</ele>
        <time>2020-07-29T07:40:37.816Z</time>
      </trkpt>
      <trkpt lat="61.77606" lon="5.31315">
        <ele>250.520813</ele>
        <time>2020-07-29T07:40:45.807Z</time>
      </trkpt>
      <trkpt lat="61.77597" lon="5.31322">
        <ele>251.158628</ele>
        <time>2020-07-29T07:40:53.803Z</time>
      </trkpt>
      <trkpt lat="61.77588" lon="5.31332">
        <ele>251.794606</ele>
        <time>2020-07-29T07:41:02.777Z</time>
      </trkpt>
      <trkpt lat="61.77579" lon="5.3134">
        <ele>252.395323</ele>
        <time>2020-07-29T07:41:10.794Z</time>
      </trkpt>
      <trkpt lat="61.77571" lon="5.31346">
        <ele>252.971714</ele>
        <time>2020-07-29T07:41:19.807Z</time>
      </trkpt>
      <trkpt lat="61.77436" lon="5.31424">
        <ele>257.466097</ele>
        <time>2020-07-29T07:42:54.795Z</time>
      </trkpt>
      <trkpt lat="61.77426" lon="5.31426">
        <ele>257.70943</ele>
        <time>2020-07-29T07:43:09.776Z</time>
      </trkpt>
      <trkpt lat="61.77414" lon="5.31428">
        <ele>258.021299</ele>
        <time>2020-07-29T07:43:15.804Z</time>
      </trkpt>
      <trkpt lat="61.77405" lon="5.31431">
        <ele>258.256423</ele>
        <time>2020-07-29T07:43:19.792Z</time>
      </trkpt>
      <trkpt lat="61.77396" lon="5.31432">
        <ele>258.501772</ele>
        <time>2020-07-29T07:43:23.789Z</time>
      </trkpt>
      <trkpt lat="61.77386" lon="5.31436">
        <ele>258.778721</ele>
        <time>2020-07-29T07:43:28.782Z</time>
      </trkpt>
      <trkpt lat="61.77377" lon="5.31442">
        <ele>259.024186</ele>
        <time>2020-07-29T07:43:32.794Z</time>
      </trkpt>
      <trkpt lat="61.77366" lon="5.3145">
        <ele>259.524825</ele>
        <time>2020-07-29T07:43:37.825Z</time>
      </trkpt>
      <trkpt lat="61.77357" lon="5.31456">
        <ele>260.01775</ele>
        <time>2020-07-29T07:43:42.779Z</time>
      </trkpt>
      <trkpt lat="61.77348" lon="5.31466">
        <ele>260.519758</ele>
        <time>2020-07-29T07:43:47.804Z</time>
      </trkpt>
      <trkpt lat="61.77341" lon="5.31481">
        <ele>261.03984</ele>
        <time>2020-07-29T07:43:52.794Z</time>
      </trkpt>
      <trkpt lat="61.77334" lon="5.31496">
        <ele>261.541933</ele>
        <time>2020-07-29T07:43:58.800Z</time>
      </trkpt>
      <trkpt lat="61.77328" lon="5.31513">
        <ele>262.040644</ele>
        <time>2020-07-29T07:44:03.825Z</time>
      </trkpt>
      <trkpt lat="61.77325" lon="5.31532">
        <ele>262.523701</ele>
        <time>2020-07-29T07:44:10.792Z</time>
      </trkpt>
      <trkpt lat="61.77323" lon="5.31551">
        <ele>262.982343</ele>
        <time>2020-07-29T07:44:16.781Z</time>
      </trkpt>
      <trkpt lat="61.77322" lon="5.3157">
        <ele>263.451457</ele>
        <time>2020-07-29T07:44:24.785Z</time>
      </trkpt>
      <trkpt lat="61.77323" lon="5.3159">
        <ele>263.936219</ele>
        <time>2020-07-29T07:44:33.817Z</time>
      </trkpt>
      <trkpt lat="61.77325" lon="5.31609">
        <ele>264.394225</ele>
        <time>2020-07-29T07:44:41.806Z</time>
      </trkpt>
      <trkpt lat="61.77329" lon="5.31626">
        <ele>264.872174</ele>
        <time>2020-07-29T07:44:50.786Z</time>
      </trkpt>
      <trkpt lat="61.77335" lon="5.31642">
        <ele>265.332955</ele>
        <time>2020-07-29T07:44:58.800Z</time>
      </trkpt>
      <trkpt lat="61.77339" lon="5.31659">
        <ele>265.80845</ele>
        <time>2020-07-29T07:45:05.778Z</time>
      </trkpt>
      <trkpt lat="61.77343" lon="5.31677">
        <ele>266.276634</ele>
        <time>2020-07-29T07:45:16.804Z</time>
      </trkpt>
      <trkpt lat="61.77348" lon="5.31693">
        <ele>266.760831</ele>
        <time>2020-07-29T07:45:23.800Z</time>
      </trkpt>
      <trkpt lat="61.77353" lon="5.31711">
        <ele>267.227083</ele>
        <time>2020-07-29T07:45:32.798Z</time>
      </trkpt>
      <trkpt lat="61.77357" lon="5.31728">
        <ele>267.68449</ele>
        <time>2020-07-29T07:45:40.777Z</time>
      </trkpt>
      <trkpt lat="61.7736" lon="5.31747">
        <ele>268.190167</ele>
        <time>2020-07-29T07:45:49.795Z</time>
      </trkpt>
      <trkpt lat="61.77367" lon="5.31763">
        <ele>269.074963</ele>
        <time>2020-07-29T07:45:56.779Z</time>
      </trkpt>
      <trkpt lat="61.77372" lon="5.31779">
        <ele>269.870985</ele>
        <time>2020-07-29T07:46:05.796Z</time>
      </trkpt>
      <trkpt lat="61.77377" lon="5.31798">
        <ele>270.736262</ele>
        <time>2020-07-29T07:46:14.787Z</time>
      </trkpt>
      <trkpt lat="61.77381" lon="5.31814">
        <ele>271.538828</ele>
        <time>2020-07-29T07:46:23.791Z</time>
      </trkpt>
      <trkpt lat="61.77385" lon="5.31833">
        <ele>272.360259</ele>
        <time>2020-07-29T07:46:31.785Z</time>
      </trkpt>
      <trkpt lat="61.77391" lon="5.31847">
        <ele>273.185783</ele>
        <time>2020-07-29T07:46:39.773Z</time>
      </trkpt>
      <trkpt lat="61.77393" lon="5.31866">
        <ele>273.98477</ele>
        <time>2020-07-29T07:46:48.779Z</time>
      </trkpt>
      <trkpt lat="61.774" lon="5.31879">
        <ele>274.784108</ele>
        <time>2020-07-29T07:46:56.809Z</time>
      </trkpt>
      <trkpt lat="61.77405" lon="5.31896">
        <ele>275.623097</ele>
        <time>2020-07-29T07:47:05.809Z</time>
      </trkpt>
      <trkpt lat="61.77407" lon="5.31915">
        <ele>276.45017</ele>
        <time>2020-07-29T07:47:14.833Z</time>
      </trkpt>
      <trkpt lat="61.77413" lon="5.31932">
        <ele>277.309091</ele>
        <time>2020-07-29T07:47:23.820Z</time>
      </trkpt>
      <trkpt lat="61.77414" lon="5.31953">
        <ele>278.189007</ele>
        <time>2020-07-29T07:47:32.788Z</time>
      </trkpt>
      <trkpt lat="61.77414" lon="5.31972">
        <ele>278.983859</ele>
        <time>2020-07-29T07:47:41.797Z</time>
      </trkpt>
      <trkpt lat="61.77413" lon="5.31993">
        <ele>279.862146</ele>
        <time>2020-07-29T07:47:50.776Z</time>
      </trkpt>
      <trkpt lat="61.7741" lon="5.32013">
        <ele>280.711492</ele>
        <time>2020-07-29T07:47:57.791Z</time>
      </trkpt>
      <trkpt lat="61.77409" lon="5.32032">
        <ele>281.528693</ele>
        <time>2020-07-29T07:48:05.829Z</time>
      </trkpt>
      <trkpt lat="61.77408" lon="5.32052">
        <ele>282.367376</ele>
        <time>2020-07-29T07:48:11.783Z</time>
      </trkpt>
      <trkpt lat="61.77406" lon="5.32072">
        <ele>283.220167</ele>
        <time>2020-07-29T07:48:17.790Z</time>
      </trkpt>
      <trkpt lat="61.77403" lon="5.32093">
        <ele>284.093295</ele>
        <time>2020-07-29T07:48:23.791Z</time>
      </trkpt>
      <trkpt lat="61.77401" lon="5.32114">
        <ele>284.726792</ele>
        <time>2020-07-29T07:48:29.813Z</time>
      </trkpt>
      <trkpt lat="61.774" lon="5.32133">
        <ele>285.29735</ele>
        <time>2020-07-29T07:48:35.811Z</time>
      </trkpt>
      <trkpt lat="61.77401" lon="5.32154">
        <ele>285.923636</ele>
        <time>2020-07-29T07:48:43.829Z</time>
      </trkpt>
      <trkpt lat="61.77404" lon="5.32174">
        <ele>286.546112</ele>
        <time>2020-07-29T07:48:49.783Z</time>
      </trkpt>
      <trkpt lat="61.77408" lon="5.32192">
        <ele>287.14654</ele>
        <time>2020-07-29T07:48:55.815Z</time>
      </trkpt>
      <trkpt lat="61.77414" lon="5.32209">
        <ele>287.730427</ele>
        <time>2020-07-29T07:49:03.804Z</time>
      </trkpt>
      <trkpt lat="61.77421" lon="5.32224">
        <ele>288.352458</ele>
        <time>2020-07-29T07:49:10.781Z</time>
      </trkpt>
      <trkpt lat="61.77427" lon="5.32238">
        <ele>288.936237</ele>
        <time>2020-07-29T07:49:18.793Z</time>
      </trkpt>
      <trkpt lat="61.77433" lon="5.32253">
        <ele>289.524672</ele>
        <time>2020-07-29T07:49:27.807Z</time>
      </trkpt>
      <trkpt lat="61.77439" lon="5.32269">
        <ele>290.127408</ele>
        <time>2020-07-29T07:49:36.829Z</time>
      </trkpt>
      <trkpt lat="61.77446" lon="5.32282">
        <ele>290.689553</ele>
        <time>2020-07-29T07:49:44.798Z</time>
      </trkpt>
      <trkpt lat="61.77455" lon="5.32293">
        <ele>291.329094</ele>
        <time>2020-07-29T07:49:53.795Z</time>
      </trkpt>
      <trkpt lat="61.77462" lon="5.32305">
        <ele>291.886002</ele>
        <time>2020-07-29T07:50:01.805Z</time>
      </trkpt>
      <trkpt lat="61.77469" lon="5.32318">
        <ele>292.49915</ele>
        <time>2020-07-29T07:50:10.805Z</time>
      </trkpt>
      <trkpt lat="61.77476" lon="5.3233">
        <ele>293.064615</ele>
        <time>2020-07-29T07:50:19.820Z</time>
      </trkpt>
      <trkpt lat="61.77483" lon="5.32344">
        <ele>293.650453</ele>
        <time>2020-07-29T07:50:26.775Z</time>
      </trkpt>
      <trkpt lat="61.7749" lon="5.3236">
        <ele>294.291783</ele>
        <time>2020-07-29T07:50:35.775Z</time>
      </trkpt>
      <trkpt lat="61.77496" lon="5.32374">
        <ele>294.860216</ele>
        <time>2020-07-29T07:50:42.820Z</time>
      </trkpt>
      <trkpt lat="61.77504" lon="5.32385">
        <ele>295.502014</ele>
        <time>2020-07-29T07:50:50.799Z</time>
      </trkpt>
      <trkpt lat="61.7751" lon="5.32397">
        <ele>296.313692</ele>
        <time>2020-07-29T07:50:58.825Z</time>
      </trkpt>
      <trkpt lat="61.77516" lon="5.32412">
        <ele>297.123219</ele>
        <time>2020-07-29T07:51:08.813Z</time>
      </trkpt>
      <trkpt lat="61.77525" lon="5.32421">
        <ele>297.970488</ele>
        <time>2020-07-29T07:51:16.822Z</time>
      </trkpt>
      <trkpt lat="61.77532" lon="5.32436">
        <ele>298.856151</ele>
        <time>2020-07-29T07:51:24.866Z</time>
      </trkpt>
      <trkpt lat="61.7754" lon="5.32448">
        <ele>299.749135</ele>
        <time>2020-07-29T07:51:35.775Z</time>
      </trkpt>
      <trkpt lat="61.77546" lon="5.32462">
        <ele>300.595254</ele>
        <time>2020-07-29T07:51:44.793Z</time>
      </trkpt>
      <trkpt lat="61.77553" lon="5.32477">
        <ele>301.428325</ele>
        <time>2020-07-29T07:51:52.811Z</time>
      </trkpt>
      <trkpt lat="61.77559" lon="5.3249">
        <ele>302.255152</ele>
        <time>2020-07-29T07:51:59.786Z</time>
      </trkpt>
      <trkpt lat="61.77566" lon="5.32504">
        <ele>303.085062</ele>
        <time>2020-07-29T07:52:06.791Z</time>
      </trkpt>
      <trkpt lat="61.77572" lon="5.32517">
        <ele>303.905963</ele>
        <time>2020-07-29T07:52:13.805Z</time>
      </trkpt>
      <trkpt lat="61.77579" lon="5.32532">
        <ele>304.729882</ele>
        <time>2020-07-29T07:52:21.805Z</time>
      </trkpt>
      <trkpt lat="61.77585" lon="5.32545">
        <ele>305.568051</ele>
        <time>2020-07-29T07:52:29.823Z</time>
      </trkpt>
      <trkpt lat="61.77594" lon="5.32556">
        <ele>306.449678</ele>
        <time>2020-07-29T07:52:39.801Z</time>
      </trkpt>
      <trkpt lat="61.77604" lon="5.32562">
        <ele>307.376583</ele>
        <time>2020-07-29T07:52:48.796Z</time>
      </trkpt>
      <trkpt lat="61.77611" lon="5.32574">
        <ele>308.192551</ele>
        <time>2020-07-29T07:52:57.808Z</time>
      </trkpt>
      <trkpt lat="61.77619" lon="5.32585">
        <ele>309.041702</ele>
        <time>2020-07-29T07:53:05.818Z</time>
      </trkpt>
      <trkpt lat="61.77628" lon="5.32594">
        <ele>309.935445</ele>
        <time>2020-07-29T07:53:13.789Z</time>
      </trkpt>
      <trkpt lat="61.77636" lon="5.32602">
        <ele>310.782117</ele>
        <time>2020-07-29T07:53:23.821Z</time>
      </trkpt>
      <trkpt lat="61.77646" lon="5.32609">
        <ele>311.552765</ele>
        <time>2020-07-29T07:53:34.810Z</time>
      </trkpt>
      <trkpt lat="61.77655" lon="5.32617">
        <ele>311.991503</ele>
        <time>2020-07-29T07:53:42.823Z</time>
      </trkpt>
      <trkpt lat="61.77665" lon="5.32624">
        <ele>312.453486</ele>
        <time>2020-07-29T07:53:48.777Z</time>
      </trkpt>
      <trkpt lat="61.77673" lon="5.32636">
        <ele>312.89344</ele>
        <time>2020-07-29T07:53:55.788Z</time>
      </trkpt>
      <trkpt lat="61.7768" lon="5.32649">
        <ele>313.30854</ele>
        <time>2020-07-29T07:54:03.783Z</time>
      </trkpt>
      <trkpt lat="61.77688" lon="5.32659">
        <ele>313.721025</ele>
        <time>2020-07-29T07:54:10.784Z</time>
      </trkpt>
      <trkpt lat="61.77695" lon="5.32673">
        <ele>314.164997</ele>
        <time>2020-07-29T07:54:16.806Z</time>
      </trkpt>
      <trkpt lat="61.77703" lon="5.32686">
        <ele>314.614441</ele>
        <time>2020-07-29T07:54:25.798Z</time>
      </trkpt>
      <trkpt lat="61.7771" lon="5.32699">
        <ele>315.050252</ele>
        <time>2020-07-29T07:54:33.828Z</time>
      </trkpt>
      <trkpt lat="61.77717" lon="5.32711">
        <ele>315.453687</ele>
        <time>2020-07-29T07:54:41.794Z</time>
      </trkpt>
      <trkpt lat="61.77724" lon="5.32724">
        <ele>315.858263</ele>
        <time>2020-07-29T07:54:49.789Z</time>
      </trkpt>
      <trkpt lat="61.7773" lon="5.32741">
        <ele>316.296064</ele>
        <time>2020-07-29T07:54:58.797Z</time>
      </trkpt>
      <trkpt lat="61.77734" lon="5.3276">
        <ele>316.73519</ele>
        <time>2020-07-29T07:55:06.785Z</time>
      </trkpt>
      <trkpt lat="61.77741" lon="5.32775">
        <ele>317.176041</ele>
        <time>2020-07-29T07:55:13.794Z</time>
      </trkpt>
      <trkpt lat="61.77742" lon="5.32794">
        <ele>317.578367</ele>
        <time>2020-07-29T07:55:19.794Z</time>
      </trkpt>
      <trkpt lat="61.77742" lon="5.32814">
        <ele>318.006869</ele>
        <time>2020-07-29T07:55:24.815Z</time>
      </trkpt>
      <trkpt lat="61.77743" lon="5.32835">
        <ele>318.468195</ele>
        <time>2020-07-29T07:55:30.785Z</time>
      </trkpt>
      <trkpt lat="61.77743" lon="5.32858">
        <ele>318.949723</ele>
        <time>2020-07-29T07:55:34.778Z</time>
      </trkpt>
      <trkpt lat="61.77746" lon="5.32879">
        <ele>319.403604</ele>
        <time>2020-07-29T07:55:38.803Z</time>
      </trkpt>
      <trkpt lat="61.7775" lon="5.329">
        <ele>319.390223</ele>
        <time>2020-07-29T07:55:42.796Z</time>
      </trkpt>
      <trkpt lat="61.77753" lon="5.32919">
        <ele>319.304025</ele>
        <time>2020-07-29T07:55:45.796Z</time>
      </trkpt>
      <trkpt lat="61.77757" lon="5.32936">
        <ele>319.225408</ele>
        <time>2020-07-29T07:55:47.788Z</time>
      </trkpt>
      <trkpt lat="61.77764" lon="5.32954">
        <ele>319.133383</ele>
        <time>2020-07-29T07:55:49.793Z</time>
      </trkpt>
      <trkpt lat="61.77772" lon="5.32975">
        <ele>319.020737</ele>
        <time>2020-07-29T07:55:51.785Z</time>
      </trkpt>
      <trkpt lat="61.77782" lon="5.32996">
        <ele>318.894877</ele>
        <time>2020-07-29T07:55:53.788Z</time>
      </trkpt>
      <trkpt lat="61.77794" lon="5.33017">
        <ele>318.757607</ele>
        <time>2020-07-29T07:55:55.803Z</time>
      </trkpt>
      <trkpt lat="61.77809" lon="5.33038">
        <ele>318.602124</ele>
        <time>2020-07-29T07:55:57.791Z</time>
      </trkpt>
      <trkpt lat="61.77817" lon="5.33049">
        <ele>318.519931</ele>
        <time>2020-07-29T07:55:58.775Z</time>
      </trkpt>
      <trkpt lat="61.77825" lon="5.3306">
        <ele>318.433307</ele>
        <time>2020-07-29T07:55:59.795Z</time>
      </trkpt>
      <trkpt lat="61.77833" lon="5.33072">
        <ele>318.34746</ele>
        <time>2020-07-29T07:56:00.791Z</time>
      </trkpt>
      <trkpt lat="61.77841" lon="5.33085">
        <ele>318.260535</ele>
        <time>2020-07-29T07:56:01.792Z</time>
      </trkpt>
      <trkpt lat="61.77849" lon="5.33099">
        <ele>318.172317</ele>
        <time>2020-07-29T07:56:02.789Z</time>
      </trkpt>
      <trkpt lat="61.77856" lon="5.33114">
        <ele>318.083229</ele>
        <time>2020-07-29T07:56:03.787Z</time>
      </trkpt>
      <trkpt lat="61.77863" lon="5.3313">
        <ele>317.994499</ele>
        <time>2020-07-29T07:56:04.790Z</time>
      </trkpt>
      <trkpt lat="61.77869" lon="5.33145">
        <ele>317.912973</ele>
        <time>2020-07-29T07:56:05.777Z</time>
      </trkpt>
      <trkpt lat="61.77875" lon="5.33162">
        <ele>317.243142</ele>
        <time>2020-07-29T07:56:06.785Z</time>
      </trkpt>
      <trkpt lat="61.7788" lon="5.33181">
        <ele>316.389147</ele>
        <time>2020-07-29T07:56:07.809Z</time>
      </trkpt>
      <trkpt lat="61.77885" lon="5.332">
        <ele>315.521723</ele>
        <time>2020-07-29T07:56:08.796Z</time>
      </trkpt>
      <trkpt lat="61.7789" lon="5.3322">
        <ele>314.679632</ele>
        <time>2020-07-29T07:56:09.821Z</time>
      </trkpt>
      <trkpt lat="61.77895" lon="5.33238">
        <ele>313.869069</ele>
        <time>2020-07-29T07:56:10.794Z</time>
      </trkpt>
      <trkpt lat="61.779" lon="5.33256">
        <ele>313.069163</ele>
        <time>2020-07-29T07:56:11.791Z</time>
      </trkpt>
      <trkpt lat="61.77904" lon="5.33275">
        <ele>312.244007</ele>
        <time>2020-07-29T07:56:12.783Z</time>
      </trkpt>
      <trkpt lat="61.7791" lon="5.33294">
        <ele>311.396708</ele>
        <time>2020-07-29T07:56:13.802Z</time>
      </trkpt>
      <trkpt lat="61.77916" lon="5.33313">
        <ele>310.522619</ele>
        <time>2020-07-29T07:56:14.806Z</time>
      </trkpt>
      <trkpt lat="61.77922" lon="5.33332">
        <ele>309.633047</ele>
        <time>2020-07-29T07:56:15.791Z</time>
      </trkpt>
      <trkpt lat="61.77928" lon="5.33352">
        <ele>308.709067</ele>
        <time>2020-07-29T07:56:16.787Z</time>
      </trkpt>
      <trkpt lat="61.77935" lon="5.3337">
        <ele>307.788548</ele>
        <time>2020-07-29T07:56:17.817Z</time>
      </trkpt>
      <trkpt lat="61.77943" lon="5.33388">
        <ele>306.860279</ele>
        <time>2020-07-29T07:56:18.785Z</time>
      </trkpt>
      <trkpt lat="61.77951" lon="5.33405">
        <ele>305.912146</ele>
        <time>2020-07-29T07:56:19.787Z</time>
      </trkpt>
      <trkpt lat="61.7796" lon="5.33424">
        <ele>304.907491</ele>
        <time>2020-07-29T07:56:20.799Z</time>
      </trkpt>
      <trkpt lat="61.7797" lon="5.33438">
        <ele>303.901814</ele>
        <time>2020-07-29T07:56:21.793Z</time>
      </trkpt>
      <trkpt lat="61.77982" lon="5.33449">
        <ele>302.681597</ele>
        <time>2020-07-29T07:56:22.816Z</time>
      </trkpt>
      <trkpt lat="61.77995" lon="5.33458">
        <ele>301.118527</ele>
        <time>2020-07-29T07:56:23.790Z</time>
      </trkpt>
      <trkpt lat="61.78008" lon="5.33465">
        <ele>299.618198</ele>
        <time>2020-07-29T07:56:24.813Z</time>
      </trkpt>
      <trkpt lat="61.7802" lon="5.3347">
        <ele>298.190411</ele>
        <time>2020-07-29T07:56:25.810Z</time>
      </trkpt>
      <trkpt lat="61.78033" lon="5.33474">
        <ele>296.789412</ele>
        <time>2020-07-29T07:56:26.818Z</time>
      </trkpt>
      <trkpt lat="61.78045" lon="5.33477">
        <ele>295.42879</ele>
        <time>2020-07-29T07:56:27.787Z</time>
      </trkpt>
      <trkpt lat="61.78056" lon="5.33481">
        <ele>294.100562</ele>
        <time>2020-07-29T07:56:28.831Z</time>
      </trkpt>
      <trkpt lat="61.78067" lon="5.33486">
        <ele>292.819089</ele>
        <time>2020-07-29T07:56:29.804Z</time>
      </trkpt>
      <trkpt lat="61.78078" lon="5.33493">
        <ele>291.555678</ele>
        <time>2020-07-29T07:56:30.793Z</time>
      </trkpt>
      <trkpt lat="61.78088" lon="5.33502">
        <ele>290.314015</ele>
        <time>2020-07-29T07:56:31.788Z</time>
      </trkpt>
      <trkpt lat="61.78098" lon="5.33513">
        <ele>289.02481</ele>
        <time>2020-07-29T07:56:32.813Z</time>
      </trkpt>
      <trkpt lat="61.78108" lon="5.33525">
        <ele>287.767451</ele>
        <time>2020-07-29T07:56:33.794Z</time>
      </trkpt>
      <trkpt lat="61.78116" lon="5.33538">
        <ele>286.552383</ele>
        <time>2020-07-29T07:56:34.820Z</time>
      </trkpt>
      <trkpt lat="61.78125" lon="5.33552">
        <ele>285.340892</ele>
        <time>2020-07-29T07:56:35.833Z</time>
      </trkpt>
      <trkpt lat="61.78133" lon="5.33567">
        <ele>284.152221</ele>
        <time>2020-07-29T07:56:36.791Z</time>
      </trkpt>
      <trkpt lat="61.7814" lon="5.33581">
        <ele>282.97147</ele>
        <time>2020-07-29T07:56:37.801Z</time>
      </trkpt>
      <trkpt lat="61.78148" lon="5.33596">
        <ele>282.572472</ele>
        <time>2020-07-29T07:56:38.806Z</time>
      </trkpt>
      <trkpt lat="61.78155" lon="5.3361">
        <ele>282.306605</ele>
        <time>2020-07-29T07:56:39.783Z</time>
      </trkpt>
      <trkpt lat="61.78163" lon="5.33625">
        <ele>282.04462</ele>
        <time>2020-07-29T07:56:40.820Z</time>
      </trkpt>
      <trkpt lat="61.78171" lon="5.33639">
        <ele>281.778038</ele>
        <time>2020-07-29T07:56:41.793Z</time>
      </trkpt>
      <trkpt lat="61.78179" lon="5.33651">
        <ele>281.508165</ele>
        <time>2020-07-29T07:56:42.791Z</time>
      </trkpt>
      <trkpt lat="61.78188" lon="5.33662">
        <ele>281.233754</ele>
        <time>2020-07-29T07:56:43.797Z</time>
      </trkpt>
      <trkpt lat="61.78198" lon="5.33669">
        <ele>280.964245</ele>
        <time>2020-07-29T07:56:44.808Z</time>
      </trkpt>
      <trkpt lat="61.78208" lon="5.33674">
        <ele>280.694219</ele>
        <time>2020-07-29T07:56:45.783Z</time>
      </trkpt>
      <trkpt lat="61.78218" lon="5.33676">
        <ele>280.423649</ele>
        <time>2020-07-29T07:56:46.801Z</time>
      </trkpt>
      <trkpt lat="61.78228" lon="5.33676">
        <ele>280.167441</ele>
        <time>2020-07-29T07:56:47.791Z</time>
      </trkpt>
      <trkpt lat="61.78238" lon="5.33674">
        <ele>279.921237</ele>
        <time>2020-07-29T07:56:48.778Z</time>
      </trkpt>
      <trkpt lat="61.78247" lon="5.33673">
        <ele>279.682857</ele>
        <time>2020-07-29T07:56:49.792Z</time>
      </trkpt>
      <trkpt lat="61.78263" lon="5.33671">
        <ele>279.250417</ele>
        <time>2020-07-29T07:56:51.808Z</time>
      </trkpt>
      <trkpt lat="61.78278" lon="5.33667">
        <ele>278.856509</ele>
        <time>2020-07-29T07:56:53.775Z</time>
      </trkpt>
      <trkpt lat="61.78292" lon="5.33665">
        <ele>278.492292</ele>
        <time>2020-07-29T07:56:55.798Z</time>
      </trkpt>
      <trkpt lat="61.78304" lon="5.33666">
        <ele>278.168184</ele>
        <time>2020-07-29T07:56:57.797Z</time>
      </trkpt>
      <trkpt lat="61.78316" lon="5.33666">
        <ele>278.901076</ele>
        <time>2020-07-29T07:56:59.793Z</time>
      </trkpt>
      <trkpt lat="61.78326" lon="5.33664">
        <ele>279.779447</ele>
        <time>2020-07-29T07:57:01.779Z</time>
      </trkpt>
      <trkpt lat="61.78339" lon="5.33663">
        <ele>280.844267</ele>
        <time>2020-07-29T07:57:04.810Z</time>
      </trkpt>
      <trkpt lat="61.78348" lon="5.3366">
        <ele>281.665998</ele>
        <time>2020-07-29T07:57:07.817Z</time>
      </trkpt>
      <trkpt lat="61.78359" lon="5.33654">
        <ele>282.596929</ele>
        <time>2020-07-29T07:57:11.797Z</time>
      </trkpt>
      <trkpt lat="61.78369" lon="5.3365">
        <ele>283.452352</ele>
        <time>2020-07-29T07:57:16.789Z</time>
      </trkpt>
      <trkpt lat="61.78379" lon="5.33653">
        <ele>284.317142</ele>
        <time>2020-07-29T07:57:23.812Z</time>
      </trkpt>
      <trkpt lat="61.78388" lon="5.33654">
        <ele>285.158165</ele>
        <time>2020-07-29T07:57:30.789Z</time>
      </trkpt>
      <trkpt lat="61.78398" lon="5.33653">
        <ele>286.017153</ele>
        <time>2020-07-29T07:57:38.825Z</time>
      </trkpt>
      <trkpt lat="61.78408" lon="5.33645">
        <ele>286.884205</ele>
        <time>2020-07-29T07:57:44.813Z</time>
      </trkpt>
      <trkpt lat="61.78417" lon="5.3364">
        <ele>287.710437</ele>
        <time>2020-07-29T07:57:48.788Z</time>
      </trkpt>
      <trkpt lat="61.7843" lon="5.33636">
        <ele>288.794326</ele>
        <time>2020-07-29T07:57:52.819Z</time>
      </trkpt>
      <trkpt lat="61.78443" lon="5.33632">
        <ele>289.915873</ele>
        <time>2020-07-29T07:57:55.770Z</time>
      </trkpt>
      <trkpt lat="61.78452" lon="5.33631">
        <ele>290.731818</ele>
        <time>2020-07-29T07:57:57.818Z</time>
      </trkpt>
      <trkpt lat="61.78465" lon="5.33627">
        <ele>291.866092</ele>
        <time>2020-07-29T07:58:00.809Z</time>
      </trkpt>
      <trkpt lat="61.78475" lon="5.33625">
        <ele>292.743189</ele>
        <time>2020-07-29T07:58:02.776Z</time>
      </trkpt>
      <trkpt lat="61.78487" lon="5.33629">
        <ele>293.52794</ele>
        <time>2020-07-29T07:58:04.775Z</time>
      </trkpt>
      <trkpt lat="61.78502" lon="5.33636">
        <ele>293.505683</ele>
        <time>2020-07-29T07:58:06.789Z</time>
      </trkpt>
      <trkpt lat="61.78516" lon="5.3364">
        <ele>293.485463</ele>
        <time>2020-07-29T07:58:08.813Z</time>
      </trkpt>
      <trkpt lat="61.78529" lon="5.33644">
        <ele>293.465125</ele>
        <time>2020-07-29T07:58:10.773Z</time>
      </trkpt>
      <trkpt lat="61.78543" lon="5.3365">
        <ele>293.445367</ele>
        <time>2020-07-29T07:58:12.831Z</time>
      </trkpt>
      <trkpt lat="61.78555" lon="5.33659">
        <ele>293.426349</ele>
        <time>2020-07-29T07:58:14.803Z</time>
      </trkpt>
      <trkpt lat="61.78566" lon="5.33667">
        <ele>293.408917</ele>
        <time>2020-07-29T07:58:16.814Z</time>
      </trkpt>
      <trkpt lat="61.78576" lon="5.33673">
        <ele>293.39368</ele>
        <time>2020-07-29T07:58:18.787Z</time>
      </trkpt>
      <trkpt lat="61.78586" lon="5.33679">
        <ele>293.378906</ele>
        <time>2020-07-29T07:58:21.785Z</time>
      </trkpt>
      <trkpt lat="61.78596" lon="5.33681">
        <ele>293.363382</ele>
        <time>2020-07-29T07:58:26.815Z</time>
      </trkpt>
      <trkpt lat="61.78606" lon="5.33686">
        <ele>293.348591</ele>
        <time>2020-07-29T07:58:32.812Z</time>
      </trkpt>
      <trkpt lat="61.78615" lon="5.33691">
        <ele>293.334947</ele>
        <time>2020-07-29T07:58:38.781Z</time>
      </trkpt>
      <trkpt lat="61.78624" lon="5.33693">
        <ele>293.321713</ele>
        <time>2020-07-29T07:58:44.779Z</time>
      </trkpt>
      <trkpt lat="61.78633" lon="5.33698">
        <ele>293.308162</ele>
        <time>2020-07-29T07:58:50.772Z</time>
      </trkpt>
      <trkpt lat="61.78642" lon="5.33702">
        <ele>293.294517</ele>
        <time>2020-07-29T07:58:58.789Z</time>
      </trkpt>
      <trkpt lat="61.78652" lon="5.337">
        <ele>293.279842</ele>
        <time>2020-07-29T07:59:07.787Z</time>
      </trkpt>
      <trkpt lat="61.78661" lon="5.33708">
        <ele>293.350662</ele>
        <time>2020-07-29T07:59:14.778Z</time>
      </trkpt>
      <trkpt lat="61.7867" lon="5.33713">
        <ele>293.841573</ele>
        <time>2020-07-29T07:59:20.777Z</time>
      </trkpt>
      <trkpt lat="61.78679" lon="5.33715">
        <ele>294.335033</ele>
        <time>2020-07-29T07:59:26.788Z</time>
      </trkpt>
      <trkpt lat="61.78689" lon="5.33718">
        <ele>294.872496</ele>
        <time>2020-07-29T07:59:33.814Z</time>
      </trkpt>
      <trkpt lat="61.78698" lon="5.33723">
        <ele>295.395959</ele>
        <time>2020-07-29T07:59:40.805Z</time>
      </trkpt>
      <trkpt lat="61.78709" lon="5.33726">
        <ele>295.971797</ele>
        <time>2020-07-29T07:59:48.791Z</time>
      </trkpt>
      <trkpt lat="61.78718" lon="5.33732">
        <ele>296.506676</ele>
        <time>2020-07-29T07:59:58.821Z</time>
      </trkpt>
      <trkpt lat="61.78728" lon="5.33733">
        <ele>297.051034</ele>
        <time>2020-07-29T08:00:06.790Z</time>
      </trkpt>
      <trkpt lat="61.78737" lon="5.33738">
        <ele>297.540018</ele>
        <time>2020-07-29T08:00:14.802Z</time>
      </trkpt>
      <trkpt lat="61.78747" lon="5.33742">
        <ele>298.09083</ele>
        <time>2020-07-29T08:00:21.796Z</time>
      </trkpt>
      <trkpt lat="61.78756" lon="5.33744">
        <ele>298.579548</ele>
        <time>2020-07-29T08:00:28.786Z</time>
      </trkpt>
      <trkpt lat="61.78765" lon="5.33747">
        <ele>299.073933</ele>
        <time>2020-07-29T08:00:35.789Z</time>
      </trkpt>
      <trkpt lat="61.78775" lon="5.33751">
        <ele>299.615563</ele>
        <time>2020-07-29T08:00:44.773Z</time>
      </trkpt>
      <trkpt lat="61.78784" lon="5.33759">
        <ele>300.130596</ele>
        <time>2020-07-29T08:00:51.799Z</time>
      </trkpt>
      <trkpt lat="61.78793" lon="5.33763">
        <ele>300.632398</ele>
        <time>2020-07-29T08:00:58.779Z</time>
      </trkpt>
      <trkpt lat="61.78803" lon="5.33766">
        <ele>301.174027</ele>
        <time>2020-07-29T08:01:06.797Z</time>
      </trkpt>
      <trkpt lat="61.78813" lon="5.33772">
        <ele>301.734055</ele>
        <time>2020-07-29T08:01:13.782Z</time>
      </trkpt>
      <trkpt lat="61.78822" lon="5.33776">
        <ele>302.218982</ele>
        <time>2020-07-29T08:01:19.784Z</time>
      </trkpt>
      <trkpt lat="61.78831" lon="5.33778">
        <ele>302.723438</ele>
        <time>2020-07-29T08:01:26.790Z</time>
      </trkpt>
      <trkpt lat="61.78839" lon="5.33789">
        <ele>302.945145</ele>
        <time>2020-07-29T08:01:34.831Z</time>
      </trkpt>
      <trkpt lat="61.78847" lon="5.33802">
        <ele>302.920274</ele>
        <time>2020-07-29T08:01:41.820Z</time>
      </trkpt>
      <trkpt lat="61.78856" lon="5.33811">
        <ele>302.89606</ele>
        <time>2020-07-29T08:01:48.781Z</time>
      </trkpt>
      <trkpt lat="61.78865" lon="5.33819">
        <ele>302.87278</ele>
        <time>2020-07-29T08:01:53.787Z</time>
      </trkpt>
      <trkpt lat="61.78873" lon="5.33828">
        <ele>302.850299</ele>
        <time>2020-07-29T08:01:58.801Z</time>
      </trkpt>
      <trkpt lat="61.78881" lon="5.33839">
        <ele>302.826834</ele>
        <time>2020-07-29T08:02:02.784Z</time>
      </trkpt>
      <trkpt lat="61.7889" lon="5.33855">
        <ele>302.798305</ele>
        <time>2020-07-29T08:02:06.792Z</time>
      </trkpt>
      <trkpt lat="61.78895" lon="5.33872">
        <ele>302.7759</ele>
        <time>2020-07-29T08:02:09.793Z</time>
      </trkpt>
      <trkpt lat="61.78901" lon="5.33892">
        <ele>302.747282</ele>
        <time>2020-07-29T08:02:12.829Z</time>
      </trkpt>
      <trkpt lat="61.78908" lon="5.33918">
        <ele>302.713469</ele>
        <time>2020-07-29T08:02:15.791Z</time>
      </trkpt>
      <trkpt lat="61.78912" lon="5.33937">
        <ele>302.689372</ele>
        <time>2020-07-29T08:02:17.794Z</time>
      </trkpt>
      <trkpt lat="61.78916" lon="5.33955">
        <ele>302.666527</ele>
        <time>2020-07-29T08:02:19.775Z</time>
      </trkpt>
      <trkpt lat="61.78921" lon="5.33973">
        <ele>302.642597</ele>
        <time>2020-07-29T08:02:21.781Z</time>
      </trkpt>
      <trkpt lat="61.78927" lon="5.33994">
        <ele>302.613851</ele>
        <time>2020-07-29T08:02:23.833Z</time>
      </trkpt>
      <trkpt lat="61.78933" lon="5.34017">
        <ele>302.583943</ele>
        <time>2020-07-29T08:02:25.809Z</time>
      </trkpt>
      <trkpt lat="61.78939" lon="5.3404">
        <ele>302.553809</ele>
        <time>2020-07-29T08:02:27.811Z</time>
      </trkpt>
      <trkpt lat="61.78944" lon="5.34063">
        <ele>302.524618</ele>
        <time>2020-07-29T08:02:29.789Z</time>
      </trkpt>
      <trkpt lat="61.7895" lon="5.34087">
        <ele>302.190321</ele>
        <time>2020-07-29T08:02:31.797Z</time>
      </trkpt>
      <trkpt lat="61.78955" lon="5.34115">
        <ele>301.734209</ele>
        <time>2020-07-29T08:02:33.809Z</time>
      </trkpt>
      <trkpt lat="61.78962" lon="5.34143">
        <ele>301.263001</ele>
        <time>2020-07-29T08:02:35.796Z</time>
      </trkpt>
      <trkpt lat="61.78969" lon="5.34173">
        <ele>300.773261</ele>
        <time>2020-07-29T08:02:37.781Z</time>
      </trkpt>
      <trkpt lat="61.78977" lon="5.34202">
        <ele>300.260286</ele>
        <time>2020-07-29T08:02:39.810Z</time>
      </trkpt>
      <trkpt lat="61.78985" lon="5.34235">
        <ele>299.713604</ele>
        <time>2020-07-29T08:02:41.794Z</time>
      </trkpt>
      <trkpt lat="61.78989" lon="5.34253">
        <ele>299.414054</ele>
        <time>2020-07-29T08:02:42.789Z</time>
      </trkpt>
      <trkpt lat="61.78994" lon="5.34272">
        <ele>299.098326</ele>
        <time>2020-07-29T08:02:43.796Z</time>
      </trkpt>
      <trkpt lat="61.78998" lon="5.34292">
        <ele>298.775882</ele>
        <time>2020-07-29T08:02:44.825Z</time>
      </trkpt>
      <trkpt lat="61.79002" lon="5.34312">
        <ele>298.447687</ele>
        <time>2020-07-29T08:02:45.790Z</time>
      </trkpt>
      <trkpt lat="61.79006" lon="5.34334">
        <ele>298.094795</ele>
        <time>2020-07-29T08:02:46.807Z</time>
      </trkpt>
      <trkpt lat="61.79011" lon="5.34356">
        <ele>297.733166</ele>
        <time>2020-07-29T08:02:47.788Z</time>
      </trkpt>
      <trkpt lat="61.79015" lon="5.34379">
        <ele>297.356363</ele>
        <time>2020-07-29T08:02:48.800Z</time>
      </trkpt>
      <trkpt lat="61.7902" lon="5.34402">
        <ele>296.983999</ele>
        <time>2020-07-29T08:02:49.788Z</time>
      </trkpt>
      <trkpt lat="61.79026" lon="5.34423">
        <ele>296.506756</ele>
        <time>2020-07-29T08:02:50.784Z</time>
      </trkpt>
      <trkpt lat="61.79032" lon="5.34443">
        <ele>295.944617</ele>
        <time>2020-07-29T08:02:51.780Z</time>
      </trkpt>
      <trkpt lat="61.79038" lon="5.34463">
        <ele>295.39395</ele>
        <time>2020-07-29T08:02:52.790Z</time>
      </trkpt>
      <trkpt lat="61.79045" lon="5.34481">
        <ele>294.84511</ele>
        <time>2020-07-29T08:02:53.815Z</time>
      </trkpt>
      <trkpt lat="61.79053" lon="5.34501">
        <ele>294.252302</ele>
        <time>2020-07-29T08:02:54.835Z</time>
      </trkpt>
      <trkpt lat="61.7906" lon="5.34523">
        <ele>293.642755</ele>
        <time>2020-07-29T08:02:55.808Z</time>
      </trkpt>
      <trkpt lat="61.79066" lon="5.34546">
        <ele>293.016951</ele>
        <time>2020-07-29T08:02:56.806Z</time>
      </trkpt>
      <trkpt lat="61.79071" lon="5.34569">
        <ele>292.407684</ele>
        <time>2020-07-29T08:02:57.778Z</time>
      </trkpt>
      <trkpt lat="61.79077" lon="5.34593">
        <ele>291.800643</ele>
        <time>2020-07-29T08:02:58.788Z</time>
      </trkpt>
      <trkpt lat="61.79082" lon="5.34615">
        <ele>291.218896</ele>
        <time>2020-07-29T08:02:59.778Z</time>
      </trkpt>
      <trkpt lat="61.79087" lon="5.34637">
        <ele>290.664554</ele>
        <time>2020-07-29T08:03:00.784Z</time>
      </trkpt>
      <trkpt lat="61.79091" lon="5.34658">
        <ele>290.129179</ele>
        <time>2020-07-29T08:03:01.797Z</time>
      </trkpt>
      <trkpt lat="61.79096" lon="5.34678">
        <ele>289.606453</ele>
        <time>2020-07-29T08:03:02.785Z</time>
      </trkpt>
      <trkpt lat="61.79101" lon="5.34697">
        <ele>289.107601</ele>
        <time>2020-07-29T08:03:03.804Z</time>
      </trkpt>
      <trkpt lat="61.79104" lon="5.34714">
        <ele>288.660511</ele>
        <time>2020-07-29T08:03:04.812Z</time>
      </trkpt>
      <trkpt lat="61.79108" lon="5.34732">
        <ele>288.205228</ele>
        <time>2020-07-29T08:03:05.795Z</time>
      </trkpt>
      <trkpt lat="61.79112" lon="5.34749">
        <ele>287.808849</ele>
        <time>2020-07-29T08:03:06.815Z</time>
      </trkpt>
      <trkpt lat="61.79121" lon="5.34781">
        <ele>287.172173</ele>
        <time>2020-07-29T08:03:08.790Z</time>
      </trkpt>
      <trkpt lat="61.79127" lon="5.3481">
        <ele>286.600553</ele>
        <time>2020-07-29T08:03:10.797Z</time>
      </trkpt>
      <trkpt lat="61.79132" lon="5.34837">
        <ele>286.087133</ele>
        <time>2020-07-29T08:03:12.809Z</time>
      </trkpt>
      <trkpt lat="61.79137" lon="5.34862">
        <ele>285.617882</ele>
        <time>2020-07-29T08:03:14.806Z</time>
      </trkpt>
      <trkpt lat="61.7914" lon="5.34885">
        <ele>285.195734</ele>
        <time>2020-07-29T08:03:16.784Z</time>
      </trkpt>
      <trkpt lat="61.79143" lon="5.34903">
        <ele>284.85907</ele>
        <time>2020-07-29T08:03:18.815Z</time>
      </trkpt>
      <trkpt lat="61.79146" lon="5.34931">
        <ele>284.36686</ele>
        <time>2020-07-29T08:03:21.783Z</time>
      </trkpt>
      <trkpt lat="61.79148" lon="5.3495">
        <ele>284.016502</ele>
        <time>2020-07-29T08:03:23.775Z</time>
      </trkpt>
      <trkpt lat="61.79153" lon="5.34973">
        <ele>283.584385</ele>
        <time>2020-07-29T08:03:26.811Z</time>
      </trkpt>
      <trkpt lat="61.79155" lon="5.34994">
        <ele>283.209153</ele>
        <time>2020-07-29T08:03:29.787Z</time>
      </trkpt>
      <trkpt lat="61.79158" lon="5.35015">
        <ele>282.820528</ele>
        <time>2020-07-29T08:03:32.793Z</time>
      </trkpt>
      <trkpt lat="61.7916" lon="5.35038">
        <ele>282.410323</ele>
        <time>2020-07-29T08:03:36.793Z</time>
      </trkpt>
      <trkpt lat="61.79166" lon="5.35059">
        <ele>281.980482</ele>
        <time>2020-07-29T08:03:40.805Z</time>
      </trkpt>
      <trkpt lat="61.79172" lon="5.3508">
        <ele>281.556385</ele>
        <time>2020-07-29T08:03:44.812Z</time>
      </trkpt>
      <trkpt lat="61.79176" lon="5.35102">
        <ele>281.4724</ele>
        <time>2020-07-29T08:03:48.855Z</time>
      </trkpt>
      <trkpt lat="61.79175" lon="5.35123">
        <ele>281.917871</ele>
        <time>2020-07-29T08:03:52.788Z</time>
      </trkpt>
      <trkpt lat="61.79174" lon="5.35146">
        <ele>282.412701</ele>
        <time>2020-07-29T08:03:57.794Z</time>
      </trkpt>
      <trkpt lat="61.79174" lon="5.35167">
        <ele>282.863016</ele>
        <time>2020-07-29T08:04:01.798Z</time>
      </trkpt>
      <trkpt lat="61.79173" lon="5.35189">
        <ele>283.331543</ele>
        <time>2020-07-29T08:04:05.787Z</time>
      </trkpt>
      <trkpt lat="61.7917" lon="5.35212">
        <ele>283.824208</ele>
        <time>2020-07-29T08:04:10.783Z</time>
      </trkpt>
      <trkpt lat="61.7917" lon="5.35235">
        <ele>284.29776</ele>
        <time>2020-07-29T08:04:16.809Z</time>
      </trkpt>
      <trkpt lat="61.79169" lon="5.35258">
        <ele>284.791134</ele>
        <time>2020-07-29T08:04:21.817Z</time>
      </trkpt>
      <trkpt lat="61.7917" lon="5.35279">
        <ele>285.241806</ele>
        <time>2020-07-29T08:04:26.803Z</time>
      </trkpt>
      <trkpt lat="61.79172" lon="5.35299">
        <ele>285.660834</ele>
        <time>2020-07-29T08:04:30.811Z</time>
      </trkpt>
      <trkpt lat="61.79173" lon="5.35321">
        <ele>286.126729</ele>
        <time>2020-07-29T08:04:34.800Z</time>
      </trkpt>
      <trkpt lat="61.79173" lon="5.35341">
        <ele>286.560308</ele>
        <time>2020-07-29T08:04:38.799Z</time>
      </trkpt>
      <trkpt lat="61.79173" lon="5.35361">
        <ele>286.97037</ele>
        <time>2020-07-29T08:04:42.786Z</time>
      </trkpt>
      <trkpt lat="61.79176" lon="5.35382">
        <ele>287.443442</ele>
        <time>2020-07-29T08:04:47.787Z</time>
      </trkpt>
      <trkpt lat="61.79178" lon="5.35401">
        <ele>287.857967</ele>
        <time>2020-07-29T08:04:53.795Z</time>
      </trkpt>
      <trkpt lat="61.79182" lon="5.3542">
        <ele>288.298086</ele>
        <time>2020-07-29T08:04:59.807Z</time>
      </trkpt>
      <trkpt lat="61.79185" lon="5.3544">
        <ele>288.742284</ele>
        <time>2020-07-29T08:05:05.815Z</time>
      </trkpt>
      <trkpt lat="61.79187" lon="5.3546">
        <ele>289.171706</ele>
        <time>2020-07-29T08:05:11.817Z</time>
      </trkpt>
      <trkpt lat="61.79188" lon="5.35483">
        <ele>290.139898</ele>
        <time>2020-07-29T08:05:17.778Z</time>
      </trkpt>
      <trkpt lat="61.7919" lon="5.35501">
        <ele>291.157803</ele>
        <time>2020-07-29T08:05:23.791Z</time>
      </trkpt>
      <trkpt lat="61.79193" lon="5.3552">
        <ele>292.240433</ele>
        <time>2020-07-29T08:05:30.788Z</time>
      </trkpt>
      <trkpt lat="61.79196" lon="5.35541">
        <ele>293.359606</ele>
        <time>2020-07-29T08:05:37.787Z</time>
      </trkpt>
      <trkpt lat="61.79202" lon="5.35556">
        <ele>294.446578</ele>
        <time>2020-07-29T08:05:44.785Z</time>
      </trkpt>
      <trkpt lat="61.792" lon="5.35578">
        <ele>295.609783</ele>
        <time>2020-07-29T08:05:53.789Z</time>
      </trkpt>
      <trkpt lat="61.79198" lon="5.35599">
        <ele>296.768275</ele>
        <time>2020-07-29T08:05:59.788Z</time>
      </trkpt>
      <trkpt lat="61.79201" lon="5.35619">
        <ele>297.874727</ele>
        <time>2020-07-29T08:06:08.812Z</time>
      </trkpt>
      <trkpt lat="61.79201" lon="5.35639">
        <ele>298.946558</ele>
        <time>2020-07-29T08:06:15.787Z</time>
      </trkpt>
      <trkpt lat="61.79207" lon="5.35656">
        <ele>300.094185</ele>
        <time>2020-07-29T08:06:22.813Z</time>
      </trkpt>
      <trkpt lat="61.79213" lon="5.35672">
        <ele>301.126514</ele>
        <time>2020-07-29T08:06:29.792Z</time>
      </trkpt>
      <trkpt lat="61.7922" lon="5.35685">
        <ele>302.206197</ele>
        <time>2020-07-29T08:06:38.777Z</time>
      </trkpt>
      <trkpt lat="61.79219" lon="5.35707">
        <ele>303.393589</ele>
        <time>2020-07-29T08:06:45.798Z</time>
      </trkpt>
      <trkpt lat="61.7922" lon="5.35727">
        <ele>304.444856</ele>
        <time>2020-07-29T08:06:53.777Z</time>
      </trkpt>
      <trkpt lat="61.79228" lon="5.35737">
        <ele>305.551568</ele>
        <time>2020-07-29T08:07:00.779Z</time>
      </trkpt>
      <trkpt lat="61.79235" lon="5.35754">
        <ele>306.683113</ele>
        <time>2020-07-29T08:07:09.786Z</time>
      </trkpt>
      <trkpt lat="61.79239" lon="5.35773">
        <ele>307.805315</ele>
        <time>2020-07-29T08:07:16.792Z</time>
      </trkpt>
      <trkpt lat="61.79244" lon="5.35789">
        <ele>308.883048</ele>
        <time>2020-07-29T08:07:24.790Z</time>
      </trkpt>
      <trkpt lat="61.79248" lon="5.35807">
        <ele>309.819191</ele>
        <time>2020-07-29T08:07:32.775Z</time>
      </trkpt>
      <trkpt lat="61.79254" lon="5.35822">
        <ele>310.385861</ele>
        <time>2020-07-29T08:07:39.808Z</time>
      </trkpt>
      <trkpt lat="61.79257" lon="5.35841">
        <ele>310.95574</ele>
        <time>2020-07-29T08:07:47.772Z</time>
      </trkpt>
      <trkpt lat="61.79259" lon="5.35861">
        <ele>311.561426</ele>
        <time>2020-07-29T08:07:55.792Z</time>
      </trkpt>
      <trkpt lat="61.79259" lon="5.35881">
        <ele>312.124453</ele>
        <time>2020-07-29T08:08:03.793Z</time>
      </trkpt>
      <trkpt lat="61.79257" lon="5.359">
        <ele>312.689003</ele>
        <time>2020-07-29T08:08:11.787Z</time>
      </trkpt>
      <trkpt lat="61.79256" lon="5.3592">
        <ele>313.279382</ele>
        <time>2020-07-29T08:08:19.805Z</time>
      </trkpt>
      <trkpt lat="61.79257" lon="5.3594">
        <ele>313.859982</ele>
        <time>2020-07-29T08:08:28.840Z</time>
      </trkpt>
      <trkpt lat="61.79256" lon="5.3596">
        <ele>314.442503</ele>
        <time>2020-07-29T08:08:36.818Z</time>
      </trkpt>
      <trkpt lat="61.79257" lon="5.35981">
        <ele>315.036104</ele>
        <time>2020-07-29T08:08:42.821Z</time>
      </trkpt>
      <trkpt lat="61.79261" lon="5.35998">
        <ele>315.597067</ele>
        <time>2020-07-29T08:08:50.781Z</time>
      </trkpt>
      <trkpt lat="61.79265" lon="5.36015">
        <ele>316.161863</ele>
        <time>2020-07-29T08:09:00.783Z</time>
      </trkpt>
      <trkpt lat="61.79268" lon="5.36035">
        <ele>316.749036</ele>
        <time>2020-07-29T08:09:09.838Z</time>
      </trkpt>
      <trkpt lat="61.7927" lon="5.36055">
        <ele>317.350266</ele>
        <time>2020-07-29T08:09:17.800Z</time>
      </trkpt>
      <trkpt lat="61.79276" lon="5.36071">
        <ele>317.921561</ele>
        <time>2020-07-29T08:09:25.787Z</time>
      </trkpt>
      <trkpt lat="61.79281" lon="5.36086">
        <ele>318.482271</ele>
        <time>2020-07-29T08:09:32.795Z</time>
      </trkpt>
      <trkpt lat="61.79283" lon="5.36107">
        <ele>319.083974</ele>
        <time>2020-07-29T08:09:38.802Z</time>
      </trkpt>
      <trkpt lat="61.79286" lon="5.36127">
        <ele>319.696033</ele>
        <time>2020-07-29T08:09:46.844Z</time>
      </trkpt>
      <trkpt lat="61.79291" lon="5.36145">
        <ele>320.309088</ele>
        <time>2020-07-29T08:09:52.788Z</time>
      </trkpt>
      <trkpt lat="61.79298" lon="5.36159">
        <ele>320.808635</ele>
        <time>2020-07-29T08:09:57.827Z</time>
      </trkpt>
      <trkpt lat="61.79304" lon="5.36173">
        <ele>321.230053</ele>
        <time>2020-07-29T08:10:02.812Z</time>
      </trkpt>
      <trkpt lat="61.79312" lon="5.36185">
        <ele>321.664146</ele>
        <time>2020-07-29T08:10:08.785Z</time>
      </trkpt>
      <trkpt lat="61.79321" lon="5.36194">
        <ele>322.085671</ele>
        <time>2020-07-29T08:10:13.810Z</time>
      </trkpt>
      <trkpt lat="61.79329" lon="5.36208">
        <ele>322.563834</ele>
        <time>2020-07-29T08:10:18.781Z</time>
      </trkpt>
      <trkpt lat="61.79336" lon="5.36222">
        <ele>322.972844</ele>
        <time>2020-07-29T08:10:22.810Z</time>
      </trkpt>
      <trkpt lat="61.79342" lon="5.36238">
        <ele>323.417866</ele>
        <time>2020-07-29T08:10:26.789Z</time>
      </trkpt>
      <trkpt lat="61.7935" lon="5.36253">
        <ele>323.905421</ele>
        <time>2020-07-29T08:10:31.787Z</time>
      </trkpt>
      <trkpt lat="61.79358" lon="5.36266">
        <ele>324.329883</ele>
        <time>2020-07-29T08:10:36.780Z</time>
      </trkpt>
      <trkpt lat="61.79364" lon="5.36284">
        <ele>324.8131</ele>
        <time>2020-07-29T08:10:42.796Z</time>
      </trkpt>
      <trkpt lat="61.7937" lon="5.36304">
        <ele>325.292224</ele>
        <time>2020-07-29T08:10:47.831Z</time>
      </trkpt>
      <trkpt lat="61.79376" lon="5.3632">
        <ele>325.741476</ele>
        <time>2020-07-29T08:10:52.791Z</time>
      </trkpt>
      <trkpt lat="61.79383" lon="5.36336">
        <ele>326.196435</ele>
        <time>2020-07-29T08:10:57.819Z</time>
      </trkpt>
      <trkpt lat="61.79389" lon="5.36353">
        <ele>326.646793</ele>
        <time>2020-07-29T08:11:01.829Z</time>
      </trkpt>
      <trkpt lat="61.79395" lon="5.3637">
        <ele>327.113165</ele>
        <time>2020-07-29T08:11:05.792Z</time>
      </trkpt>
      <trkpt lat="61.79403" lon="5.36384">
        <ele>327.55112</ele>
        <time>2020-07-29T08:11:09.789Z</time>
      </trkpt>
      <trkpt lat="61.7941" lon="5.36399">
        <ele>328.008893</ele>
        <time>2020-07-29T08:11:13.831Z</time>
      </trkpt>
      <trkpt lat="61.79418" lon="5.3641">
        <ele>328.432848</ele>
        <time>2020-07-29T08:11:17.817Z</time>
      </trkpt>
      <trkpt lat="61.79428" lon="5.36421">
        <ele>328.701045</ele>
        <time>2020-07-29T08:11:22.788Z</time>
      </trkpt>
      <trkpt lat="61.79437" lon="5.36427">
        <ele>328.73329</ele>
        <time>2020-07-29T08:11:26.786Z</time>
      </trkpt>
      <trkpt lat="61.79446" lon="5.36439">
        <ele>328.770413</ele>
        <time>2020-07-29T08:11:31.786Z</time>
      </trkpt>
      <trkpt lat="61.79455" lon="5.36449">
        <ele>328.807761</ele>
        <time>2020-07-29T08:11:35.792Z</time>
      </trkpt>
      <trkpt lat="61.79465" lon="5.36462">
        <ele>328.847066</ele>
        <time>2020-07-29T08:11:40.816Z</time>
      </trkpt>
      <trkpt lat="61.79474" lon="5.36476">
        <ele>328.886184</ele>
        <time>2020-07-29T08:11:44.805Z</time>
      </trkpt>
      <trkpt lat="61.79482" lon="5.36489">
        <ele>328.921284</ele>
        <time>2020-07-29T08:11:48.801Z</time>
      </trkpt>
      <trkpt lat="61.79491" lon="5.36501">
        <ele>328.95701</ele>
        <time>2020-07-29T08:11:53.792Z</time>
      </trkpt>
      <trkpt lat="61.79499" lon="5.36514">
        <ele>328.992903</ele>
        <time>2020-07-29T08:11:58.808Z</time>
      </trkpt>
      <trkpt lat="61.79506" lon="5.36525">
        <ele>329.024631</ele>
        <time>2020-07-29T08:12:02.840Z</time>
      </trkpt>
      <trkpt lat="61.79516" lon="5.36538">
        <ele>329.062912</ele>
        <time>2020-07-29T08:12:06.790Z</time>
      </trkpt>
      <trkpt lat="61.79525" lon="5.36551">
        <ele>329.103249</ele>
        <time>2020-07-29T08:12:10.787Z</time>
      </trkpt>
      <trkpt lat="61.79533" lon="5.36562">
        <ele>329.136586</ele>
        <time>2020-07-29T08:12:13.825Z</time>
      </trkpt>
      <trkpt lat="61.79542" lon="5.36574">
        <ele>329.171628</ele>
        <time>2020-07-29T08:12:16.785Z</time>
      </trkpt>
      <trkpt lat="61.7955" lon="5.36588">
        <ele>329.209701</ele>
        <time>2020-07-29T08:12:19.794Z</time>
      </trkpt>
      <trkpt lat="61.79562" lon="5.36605">
        <ele>329.257622</ele>
        <time>2020-07-29T08:12:22.785Z</time>
      </trkpt>
      <trkpt lat="61.79571" lon="5.36619">
        <ele>329.296458</ele>
        <time>2020-07-29T08:12:24.778Z</time>
      </trkpt>
      <trkpt lat="61.79581" lon="5.36633">
        <ele>329.438598</ele>
        <time>2020-07-29T08:12:26.796Z</time>
      </trkpt>
      <trkpt lat="61.79591" lon="5.36648">
        <ele>329.628601</ele>
        <time>2020-07-29T08:12:28.827Z</time>
      </trkpt>
      <trkpt lat="61.79602" lon="5.36665">
        <ele>329.833183</ele>
        <time>2020-07-29T08:12:30.786Z</time>
      </trkpt>
      <trkpt lat="61.79612" lon="5.36679">
        <ele>330.021955</ele>
        <time>2020-07-29T08:12:32.808Z</time>
      </trkpt>
      <trkpt lat="61.79623" lon="5.36695">
        <ele>330.222914</ele>
        <time>2020-07-29T08:12:34.814Z</time>
      </trkpt>
      <trkpt lat="61.79633" lon="5.36708">
        <ele>330.407208</ele>
        <time>2020-07-29T08:12:36.784Z</time>
      </trkpt>
      <trkpt lat="61.79642" lon="5.3672">
        <ele>330.572339</ele>
        <time>2020-07-29T08:12:38.791Z</time>
      </trkpt>
      <trkpt lat="61.7965" lon="5.36731">
        <ele>330.71504</ele>
        <time>2020-07-29T08:12:40.826Z</time>
      </trkpt>
      <trkpt lat="61.79659" lon="5.36742">
        <ele>330.872119</ele>
        <time>2020-07-29T08:12:43.795Z</time>
      </trkpt>
      <trkpt lat="61.79669" lon="5.36755">
        <ele>331.053561</ele>
        <time>2020-07-29T08:12:47.796Z</time>
      </trkpt>
      <trkpt lat="61.79677" lon="5.3677">
        <ele>331.221465</ele>
        <time>2020-07-29T08:12:51.814Z</time>
      </trkpt>
      <trkpt lat="61.79686" lon="5.36779">
        <ele>331.36575</ele>
        <time>2020-07-29T08:12:55.787Z</time>
      </trkpt>
      <trkpt lat="61.79695" lon="5.36785">
        <ele>331.51426</ele>
        <time>2020-07-29T08:12:59.786Z</time>
      </trkpt>
      <trkpt lat="61.79704" lon="5.36789">
        <ele>331.660026</ele>
        <time>2020-07-29T08:13:03.811Z</time>
      </trkpt>
      <trkpt lat="61.79713" lon="5.36789">
        <ele>331.797693</ele>
        <time>2020-07-29T08:13:07.808Z</time>
      </trkpt>
      <trkpt lat="61.79723" lon="5.36787">
        <ele>331.952858</ele>
        <time>2020-07-29T08:13:12.788Z</time>
      </trkpt>
      <trkpt lat="61.79733" lon="5.36786">
        <ele>332.083718</ele>
        <time>2020-07-29T08:13:18.811Z</time>
      </trkpt>
      <trkpt lat="61.79742" lon="5.36779">
        <ele>332.183658</ele>
        <time>2020-07-29T08:13:25.798Z</time>
      </trkpt>
      <trkpt lat="61.7975" lon="5.36766">
        <ele>332.291562</ele>
        <time>2020-07-29T08:13:31.786Z</time>
      </trkpt>
      <trkpt lat="61.79758" lon="5.36754">
        <ele>332.391469</ele>
        <time>2020-07-29T08:13:37.811Z</time>
      </trkpt>
      <trkpt lat="61.79765" lon="5.36742">
        <ele>332.487017</ele>
        <time>2020-07-29T08:13:43.788Z</time>
      </trkpt>
      <trkpt lat="61.7977" lon="5.36723">
        <ele>332.594181</ele>
        <time>2020-07-29T08:13:49.801Z</time>
      </trkpt>
      <trkpt lat="61.79776" lon="5.36704">
        <ele>332.701344</ele>
        <time>2020-07-29T08:13:55.801Z</time>
      </trkpt>
      <trkpt lat="61.79778" lon="5.36681">
        <ele>332.816761</ele>
        <time>2020-07-29T08:14:01.772Z</time>
      </trkpt>
      <trkpt lat="61.7978" lon="5.3666">
        <ele>332.920025</ele>
        <time>2020-07-29T08:14:05.775Z</time>
      </trkpt>
      <trkpt lat="61.79781" lon="5.36636">
        <ele>333.037595</ele>
        <time>2020-07-29T08:14:09.822Z</time>
      </trkpt>
      <trkpt lat="61.79781" lon="5.36615">
        <ele>333.144912</ele>
        <time>2020-07-29T08:14:12.811Z</time>
      </trkpt>
      <trkpt lat="61.79781" lon="5.36591">
        <ele>333.260558</ele>
        <time>2020-07-29T08:14:15.777Z</time>
      </trkpt>
      <trkpt lat="61.7978" lon="5.36567">
        <ele>333.375939</ele>
        <time>2020-07-29T08:14:18.802Z</time>
      </trkpt>
      <trkpt lat="61.79779" lon="5.36545">
        <ele>333.484474</ele>
        <time>2020-07-29T08:14:21.788Z</time>
      </trkpt>
      <trkpt lat="61.7978" lon="5.36522">
        <ele>333.598947</ele>
        <time>2020-07-29T08:14:24.779Z</time>
      </trkpt>
      <trkpt lat="61.79783" lon="5.36501">
        <ele>333.703426</ele>
        <time>2020-07-29T08:14:26.817Z</time>
      </trkpt>
      <trkpt lat="61.79787" lon="5.36479">
        <ele>333.821444</ele>
        <time>2020-07-29T08:14:28.787Z</time>
      </trkpt>
      <trkpt lat="61.79793" lon="5.36455">
        <ele>333.723857</ele>
        <time>2020-07-29T08:14:30.785Z</time>
      </trkpt>
      <trkpt lat="61.79801" lon="5.36433">
        <ele>332.786519</ele>
        <time>2020-07-29T08:14:32.809Z</time>
      </trkpt>
      <trkpt lat="61.79812" lon="5.36416">
        <ele>331.826543</ele>
        <time>2020-07-29T08:14:34.782Z</time>
      </trkpt>
      <trkpt lat="61.79824" lon="5.364">
        <ele>330.827391</ele>
        <time>2020-07-29T08:14:36.796Z</time>
      </trkpt>
      <trkpt lat="61.79837" lon="5.36388">
        <ele>329.794584</ele>
        <time>2020-07-29T08:14:38.787Z</time>
      </trkpt>
      <trkpt lat="61.7985" lon="5.36383">
        <ele>328.82087</ele>
        <time>2020-07-29T08:14:40.827Z</time>
      </trkpt>
      <trkpt lat="61.79863" lon="5.36385">
        <ele>327.906154</ele>
        <time>2020-07-29T08:14:42.805Z</time>
      </trkpt>
      <trkpt lat="61.79876" lon="5.36393">
        <ele>326.984466</ele>
        <time>2020-07-29T08:14:44.777Z</time>
      </trkpt>
      <trkpt lat="61.79888" lon="5.36406">
        <ele>325.977216</ele>
        <time>2020-07-29T08:14:46.828Z</time>
      </trkpt>
      <trkpt lat="61.79901" lon="5.36422">
        <ele>324.929983</ele>
        <time>2020-07-29T08:14:48.807Z</time>
      </trkpt>
      <trkpt lat="61.79911" lon="5.36444">
        <ele>323.929058</ele>
        <time>2020-07-29T08:14:50.779Z</time>
      </trkpt>
      <trkpt lat="61.79918" lon="5.36465">
        <ele>323.05551</ele>
        <time>2020-07-29T08:14:52.808Z</time>
      </trkpt>
      <trkpt lat="61.79923" lon="5.36483">
        <ele>322.311929</ele>
        <time>2020-07-29T08:14:54.791Z</time>
      </trkpt>
      <trkpt lat="61.7993" lon="5.36504">
        <ele>321.477269</ele>
        <time>2020-07-29T08:14:57.799Z</time>
      </trkpt>
      <trkpt lat="61.79934" lon="5.36523">
        <ele>321.420303</ele>
        <time>2020-07-29T08:15:00.779Z</time>
      </trkpt>
      <trkpt lat="61.79939" lon="5.36543">
        <ele>322.189179</ele>
        <time>2020-07-29T08:15:04.777Z</time>
      </trkpt>
      <trkpt lat="61.79943" lon="5.3656">
        <ele>322.850772</ele>
        <time>2020-07-29T08:15:08.808Z</time>
      </trkpt>
      <trkpt lat="61.79948" lon="5.3658">
        <ele>323.60234</ele>
        <time>2020-07-29T08:15:14.785Z</time>
      </trkpt>
      <trkpt lat="61.79953" lon="5.36599">
        <ele>324.307687</ele>
        <time>2020-07-29T08:15:19.794Z</time>
      </trkpt>
      <trkpt lat="61.79957" lon="5.36616">
        <ele>324.943514</ele>
        <time>2020-07-29T08:15:24.808Z</time>
      </trkpt>
      <trkpt lat="61.79962" lon="5.36636">
        <ele>325.6964</ele>
        <time>2020-07-29T08:15:30.826Z</time>
      </trkpt>
      <trkpt lat="61.79968" lon="5.3665">
        <ele>326.331603</ele>
        <time>2020-07-29T08:15:35.821Z</time>
      </trkpt>
      <trkpt lat="61.79971" lon="5.3667">
        <ele>327.044792</ele>
        <time>2020-07-29T08:15:41.787Z</time>
      </trkpt>
      <trkpt lat="61.79976" lon="5.36691">
        <ele>327.783077</ele>
        <time>2020-07-29T08:15:47.793Z</time>
      </trkpt>
      <trkpt lat="61.7998" lon="5.36708">
        <ele>328.460335</ele>
        <time>2020-07-29T08:15:53.787Z</time>
      </trkpt>
      <trkpt lat="61.79985" lon="5.36728">
        <ele>329.213739</ele>
        <time>2020-07-29T08:15:59.804Z</time>
      </trkpt>
      <trkpt lat="61.7999" lon="5.36745">
        <ele>329.860408</ele>
        <time>2020-07-29T08:16:05.814Z</time>
      </trkpt>
      <trkpt lat="61.79996" lon="5.36764">
        <ele>330.640767</ele>
        <time>2020-07-29T08:16:11.829Z</time>
      </trkpt>
      <trkpt lat="61.80001" lon="5.36782">
        <ele>331.309999</ele>
        <time>2020-07-29T08:16:16.789Z</time>
      </trkpt>
      <trkpt lat="61.80005" lon="5.36803">
        <ele>332.070791</ele>
        <time>2020-07-29T08:16:21.798Z</time>
      </trkpt>
      <trkpt lat="61.8001" lon="5.36823">
        <ele>332.821939</ele>
        <time>2020-07-29T08:16:25.787Z</time>
      </trkpt>
      <trkpt lat="61.80016" lon="5.36841">
        <ele>333.56153</ele>
        <time>2020-07-29T08:16:29.808Z</time>
      </trkpt>
      <trkpt lat="61.8002" lon="5.36863">
        <ele>333.684551</ele>
        <time>2020-07-29T08:16:33.799Z</time>
      </trkpt>
      <trkpt lat="61.80024" lon="5.3688">
        <ele>333.553759</ele>
        <time>2020-07-29T08:16:36.795Z</time>
      </trkpt>
      <trkpt lat="61.80027" lon="5.36899">
        <ele>333.418284</ele>
        <time>2020-07-29T08:16:39.786Z</time>
      </trkpt>
      <trkpt lat="61.80033" lon="5.3692">
        <ele>333.248987</ele>
        <time>2020-07-29T08:16:42.807Z</time>
      </trkpt>
      <trkpt lat="61.8004" lon="5.36941">
        <ele>333.080059</ele>
        <time>2020-07-29T08:16:45.831Z</time>
      </trkpt>
      <trkpt lat="61.80046" lon="5.36961">
        <ele>332.916528</ele>
        <time>2020-07-29T08:16:48.808Z</time>
      </trkpt>
      <trkpt lat="61.80053" lon="5.36983">
        <ele>332.734587</ele>
        <time>2020-07-29T08:16:51.792Z</time>
      </trkpt>
      <trkpt lat="61.80058" lon="5.37001">
        <ele>332.59281</ele>
        <time>2020-07-29T08:16:53.807Z</time>
      </trkpt>
      <trkpt lat="61.80064" lon="5.3702">
        <ele>332.439165</ele>
        <time>2020-07-29T08:16:55.804Z</time>
      </trkpt>
      <trkpt lat="61.80069" lon="5.3704">
        <ele>332.283808</ele>
        <time>2020-07-29T08:16:57.795Z</time>
      </trkpt>
      <trkpt lat="61.80075" lon="5.37061">
        <ele>332.12045</ele>
        <time>2020-07-29T08:16:59.775Z</time>
      </trkpt>
      <trkpt lat="61.80081" lon="5.37083">
        <ele>331.945676</ele>
        <time>2020-07-29T08:17:01.806Z</time>
      </trkpt>
      <trkpt lat="61.80087" lon="5.37107">
        <ele>331.765776</ele>
        <time>2020-07-29T08:17:03.795Z</time>
      </trkpt>
      <trkpt lat="61.80092" lon="5.37131">
        <ele>331.584242</ele>
        <time>2020-07-29T08:17:05.819Z</time>
      </trkpt>
      <trkpt lat="61.80097" lon="5.37156">
        <ele>331.399851</ele>
        <time>2020-07-29T08:17:07.799Z</time>
      </trkpt>
      <trkpt lat="61.801" lon="5.37181">
        <ele>331.224948</ele>
        <time>2020-07-29T08:17:09.797Z</time>
      </trkpt>
      <trkpt lat="61.80106" lon="5.37202">
        <ele>331.090367</ele>
        <time>2020-07-29T08:17:11.776Z</time>
      </trkpt>
      <trkpt lat="61.80111" lon="5.37222">
        <ele>330.958974</ele>
        <time>2020-07-29T08:17:13.782Z</time>
      </trkpt>
      <trkpt lat="61.80118" lon="5.37242">
        <ele>330.822327</ele>
        <time>2020-07-29T08:17:15.801Z</time>
      </trkpt>
      <trkpt lat="61.80124" lon="5.37263">
        <ele>330.681298</ele>
        <time>2020-07-29T08:17:17.811Z</time>
      </trkpt>
      <trkpt lat="61.80132" lon="5.37282">
        <ele>330.542292</ele>
        <time>2020-07-29T08:17:19.812Z</time>
      </trkpt>
      <trkpt lat="61.80139" lon="5.37301">
        <ele>330.403136</ele>
        <time>2020-07-29T08:17:21.811Z</time>
      </trkpt>
      <trkpt lat="61.80147" lon="5.37319">
        <ele>330.26203</ele>
        <time>2020-07-29T08:17:23.793Z</time>
      </trkpt>
      <trkpt lat="61.80155" lon="5.37339">
        <ele>330.118597</ele>
        <time>2020-07-29T08:17:25.818Z</time>
      </trkpt>
      <trkpt lat="61.80163" lon="5.37359">
        <ele>329.976228</ele>
        <time>2020-07-29T08:17:27.787Z</time>
      </trkpt>
      <trkpt lat="61.8017" lon="5.37379">
        <ele>329.832833</ele>
        <time>2020-07-29T08:17:29.804Z</time>
      </trkpt>
      <trkpt lat="61.80178" lon="5.37399">
        <ele>329.687447</ele>
        <time>2020-07-29T08:17:31.805Z</time>
      </trkpt>
      <trkpt lat="61.80186" lon="5.37417">
        <ele>329.546756</ele>
        <time>2020-07-29T08:17:33.785Z</time>
      </trkpt>
      <trkpt lat="61.80193" lon="5.37435">
        <ele>329.414587</ele>
        <time>2020-07-29T08:17:35.828Z</time>
      </trkpt>
      <trkpt lat="61.802" lon="5.37454">
        <ele>329.28382</ele>
        <time>2020-07-29T08:17:37.807Z</time>
      </trkpt>
      <trkpt lat="61.80207" lon="5.37472">
        <ele>329.155111</ele>
        <time>2020-07-29T08:17:39.788Z</time>
      </trkpt>
      <trkpt lat="61.80213" lon="5.37488">
        <ele>329.069538</ele>
        <time>2020-07-29T08:17:41.804Z</time>
      </trkpt>
      <trkpt lat="61.80218" lon="5.37504">
        <ele>329.047708</ele>
        <time>2020-07-29T08:17:43.812Z</time>
      </trkpt>
      <trkpt lat="61.80224" lon="5.37519">
        <ele>329.025779</ele>
        <time>2020-07-29T08:17:45.818Z</time>
      </trkpt>
      <trkpt lat="61.8023" lon="5.37535">
        <ele>329.003289</ele>
        <time>2020-07-29T08:17:47.794Z</time>
      </trkpt>
      <trkpt lat="61.80236" lon="5.37551">
        <ele>328.98009</ele>
        <time>2020-07-29T08:17:49.782Z</time>
      </trkpt>
      <trkpt lat="61.80242" lon="5.37567">
        <ele>328.95589</ele>
        <time>2020-07-29T08:17:51.797Z</time>
      </trkpt>
      <trkpt lat="61.80248" lon="5.37582">
        <ele>328.933698</ele>
        <time>2020-07-29T08:17:53.796Z</time>
      </trkpt>
      <trkpt lat="61.80256" lon="5.37604">
        <ele>328.902233</ele>
        <time>2020-07-29T08:17:56.782Z</time>
      </trkpt>
      <trkpt lat="61.80264" lon="5.37624">
        <ele>328.872118</ele>
        <time>2020-07-29T08:17:59.831Z</time>
      </trkpt>
      <trkpt lat="61.80271" lon="5.37646">
        <ele>328.843146</ele>
        <time>2020-07-29T08:18:02.793Z</time>
      </trkpt>
      <trkpt lat="61.8027" lon="5.37672">
        <ele>328.81315</ele>
        <time>2020-07-29T08:18:05.782Z</time>
      </trkpt>
      <trkpt lat="61.80268" lon="5.37698">
        <ele>328.782926</ele>
        <time>2020-07-29T08:18:08.813Z</time>
      </trkpt>
      <trkpt lat="61.80269" lon="5.37718">
        <ele>328.760381</ele>
        <time>2020-07-29T08:18:10.784Z</time>
      </trkpt>
      <trkpt lat="61.80275" lon="5.37738">
        <ele>328.73361</ele>
        <time>2020-07-29T08:18:12.789Z</time>
      </trkpt>
      <trkpt lat="61.80282" lon="5.37758">
        <ele>328.705732</ele>
        <time>2020-07-29T08:18:14.800Z</time>
      </trkpt>
      <trkpt lat="61.80289" lon="5.37778">
        <ele>328.678222</ele>
        <time>2020-07-29T08:18:16.792Z</time>
      </trkpt>
      <trkpt lat="61.80295" lon="5.37797">
        <ele>328.651683</ele>
        <time>2020-07-29T08:18:18.798Z</time>
      </trkpt>
      <trkpt lat="61.803" lon="5.37815">
        <ele>328.981178</ele>
        <time>2020-07-29T08:18:20.821Z</time>
      </trkpt>
      <trkpt lat="61.80306" lon="5.37833">
        <ele>329.387225</ele>
        <time>2020-07-29T08:18:22.808Z</time>
      </trkpt>
      <trkpt lat="61.8031" lon="5.37851">
        <ele>329.79318</ele>
        <time>2020-07-29T08:18:24.825Z</time>
      </trkpt>
      <trkpt lat="61.80314" lon="5.37871">
        <ele>330.20973</ele>
        <time>2020-07-29T08:18:26.786Z</time>
      </trkpt>
      <trkpt lat="61.80317" lon="5.3789">
        <ele>330.599343</ele>
        <time>2020-07-29T08:18:28.790Z</time>
      </trkpt>
      <trkpt lat="61.80321" lon="5.37917">
        <ele>331.139133</ele>
        <time>2020-07-29T08:18:31.813Z</time>
      </trkpt>
      <trkpt lat="61.80324" lon="5.37942">
        <ele>331.645873</ele>
        <time>2020-07-29T08:18:34.776Z</time>
      </trkpt>
      <trkpt lat="61.80326" lon="5.37962">
        <ele>332.041991</ele>
        <time>2020-07-29T08:18:37.796Z</time>
      </trkpt>
      <trkpt lat="61.80326" lon="5.37983">
        <ele>332.44607</ele>
        <time>2020-07-29T08:18:41.785Z</time>
      </trkpt>
      <trkpt lat="61.80325" lon="5.38006">
        <ele>332.886058</ele>
        <time>2020-07-29T08:18:46.801Z</time>
      </trkpt>
      <trkpt lat="61.80322" lon="5.38024">
        <ele>333.262879</ele>
        <time>2020-07-29T08:18:51.779Z</time>
      </trkpt>
      <trkpt lat="61.80321" lon="5.38043">
        <ele>333.64124</ele>
        <time>2020-07-29T08:18:57.789Z</time>
      </trkpt>
      <trkpt lat="61.80319" lon="5.38062">
        <ele>334.016167</ele>
        <time>2020-07-29T08:19:03.789Z</time>
      </trkpt>
      <trkpt lat="61.8032" lon="5.38082">
        <ele>334.404159</ele>
        <time>2020-07-29T08:19:09.805Z</time>
      </trkpt>
      <trkpt lat="61.8032" lon="5.38104">
        <ele>334.82216</ele>
        <time>2020-07-29T08:19:16.789Z</time>
      </trkpt>
      <trkpt lat="61.80322" lon="5.38125">
        <ele>335.250571</ele>
        <time>2020-07-29T08:19:23.803Z</time>
      </trkpt>
      <trkpt lat="61.80321" lon="5.38145">
        <ele>335.634014</ele>
        <time>2020-07-29T08:19:30.792Z</time>
      </trkpt>
      <trkpt lat="61.80321" lon="5.38165">
        <ele>336.024689</ele>
        <time>2020-07-29T08:19:36.810Z</time>
      </trkpt>
      <trkpt lat="61.80324" lon="5.38184">
        <ele>336.474468</ele>
        <time>2020-07-29T08:19:42.774Z</time>
      </trkpt>
      <trkpt lat="61.80326" lon="5.38204">
        <ele>336.924855</ele>
        <time>2020-07-29T08:19:47.797Z</time>
      </trkpt>
      <trkpt lat="61.80328" lon="5.38224">
        <ele>337.402069</ele>
        <time>2020-07-29T08:19:53.813Z</time>
      </trkpt>
      <trkpt lat="61.80335" lon="5.38239">
        <ele>337.874888</ele>
        <time>2020-07-29T08:20:00.792Z</time>
      </trkpt>
      <trkpt lat="61.80344" lon="5.38251">
        <ele>338.360411</ele>
        <time>2020-07-29T08:20:05.808Z</time>
      </trkpt>
      <trkpt lat="61.80352" lon="5.38268">
        <ele>338.912412</ele>
        <time>2020-07-29T08:20:10.798Z</time>
      </trkpt>
      <trkpt lat="61.80359" lon="5.38285">
        <ele>339.412449</ele>
        <time>2020-07-29T08:20:14.805Z</time>
      </trkpt>
      <trkpt lat="61.80364" lon="5.38305">
        <ele>339.932291</ele>
        <time>2020-07-29T08:20:18.779Z</time>
      </trkpt>
      <trkpt lat="61.8037" lon="5.38327">
        <ele>340.494562</ele>
        <time>2020-07-29T08:20:22.810Z</time>
      </trkpt>
      <trkpt lat="61.80376" lon="5.38346">
        <ele>341.00884</ele>
        <time>2020-07-29T08:20:25.782Z</time>
      </trkpt>
      <trkpt lat="61.80382" lon="5.38369">
        <ele>341.608006</ele>
        <time>2020-07-29T08:20:28.839Z</time>
      </trkpt>
      <trkpt lat="61.8039" lon="5.3839">
        <ele>342.218029</ele>
        <time>2020-07-29T08:20:31.798Z</time>
      </trkpt>
      <trkpt lat="61.80396" lon="5.3841">
        <ele>342.763143</ele>
        <time>2020-07-29T08:20:34.783Z</time>
      </trkpt>
      <trkpt lat="61.80403" lon="5.38432">
        <ele>343.366244</ele>
        <time>2020-07-29T08:20:37.789Z</time>
      </trkpt>
      <trkpt lat="61.8041" lon="5.38449">
        <ele>343.876827</ele>
        <time>2020-07-29T08:20:39.791Z</time>
      </trkpt>
      <trkpt lat="61.80418" lon="5.3847">
        <ele>344.478584</ele>
        <time>2020-07-29T08:20:41.800Z</time>
      </trkpt>
      <trkpt lat="61.80427" lon="5.3849">
        <ele>344.264155</ele>
        <time>2020-07-29T08:20:43.781Z</time>
      </trkpt>
      <trkpt lat="61.80436" lon="5.38508">
        <ele>343.805115</ele>
        <time>2020-07-29T08:20:45.795Z</time>
      </trkpt>
      <trkpt lat="61.80444" lon="5.38525">
        <ele>343.350616</ele>
        <time>2020-07-29T08:20:47.782Z</time>
      </trkpt>
      <trkpt lat="61.80453" lon="5.38541">
        <ele>342.916345</ele>
        <time>2020-07-29T08:20:49.786Z</time>
      </trkpt>
      <trkpt lat="61.8046" lon="5.38557">
        <ele>342.525475</ele>
        <time>2020-07-29T08:20:51.804Z</time>
      </trkpt>
      <trkpt lat="61.80465" lon="5.38574">
        <ele>342.1626</ele>
        <time>2020-07-29T08:20:53.788Z</time>
      </trkpt>
      <trkpt lat="61.8047" lon="5.38599">
        <ele>341.653699</ele>
        <time>2020-07-29T08:20:56.788Z</time>
      </trkpt>
      <trkpt lat="61.80474" lon="5.3862">
        <ele>341.258168</ele>
        <time>2020-07-29T08:20:58.797Z</time>
      </trkpt>
      <trkpt lat="61.80478" lon="5.38642">
        <ele>340.833962</ele>
        <time>2020-07-29T08:21:00.804Z</time>
      </trkpt>
      <trkpt lat="61.80481" lon="5.38664">
        <ele>340.412457</ele>
        <time>2020-07-29T08:21:02.812Z</time>
      </trkpt>
      <trkpt lat="61.80485" lon="5.38688">
        <ele>339.965061</ele>
        <time>2020-07-29T08:21:04.792Z</time>
      </trkpt>
      <trkpt lat="61.80488" lon="5.38711">
        <ele>339.534681</ele>
        <time>2020-07-29T08:21:06.792Z</time>
      </trkpt>
      <trkpt lat="61.80489" lon="5.38734">
        <ele>339.109972</ele>
        <time>2020-07-29T08:21:08.798Z</time>
      </trkpt>
      <trkpt lat="61.80491" lon="5.38761">
        <ele>338.624402</ele>
        <time>2020-07-29T08:21:10.790Z</time>
      </trkpt>
      <trkpt lat="61.80494" lon="5.38787">
        <ele>338.131559</ele>
        <time>2020-07-29T08:21:12.795Z</time>
      </trkpt>
      <trkpt lat="61.80496" lon="5.38813">
        <ele>337.843219</ele>
        <time>2020-07-29T08:21:14.811Z</time>
      </trkpt>
      <trkpt lat="61.80498" lon="5.38839">
        <ele>338.182051</ele>
        <time>2020-07-29T08:21:16.811Z</time>
      </trkpt>
      <trkpt lat="61.80499" lon="5.38862">
        <ele>338.482036</ele>
        <time>2020-07-29T08:21:18.803Z</time>
      </trkpt>
      <trkpt lat="61.805" lon="5.38882">
        <ele>338.744181</ele>
        <time>2020-07-29T08:21:20.819Z</time>
      </trkpt>
      <trkpt lat="61.80504" lon="5.38905">
        <ele>339.06424</ele>
        <time>2020-07-29T08:21:23.785Z</time>
      </trkpt>
      <trkpt lat="61.80506" lon="5.38925">
        <ele>339.32284</ele>
        <time>2020-07-29T08:21:26.776Z</time>
      </trkpt>
      <trkpt lat="61.80507" lon="5.3895">
        <ele>339.650816</ele>
        <time>2020-07-29T08:21:30.809Z</time>
      </trkpt>
      <trkpt lat="61.80508" lon="5.38974">
        <ele>339.960624</ele>
        <time>2020-07-29T08:21:34.796Z</time>
      </trkpt>
      <trkpt lat="61.8051" lon="5.38995">
        <ele>340.243335</ele>
        <time>2020-07-29T08:21:38.794Z</time>
      </trkpt>
      <trkpt lat="61.80515" lon="5.39015">
        <ele>340.530501</ele>
        <time>2020-07-29T08:21:42.803Z</time>
      </trkpt>
      <trkpt lat="61.8052" lon="5.39033">
        <ele>340.793863</ele>
        <time>2020-07-29T08:21:46.811Z</time>
      </trkpt>
      <trkpt lat="61.80524" lon="5.39054">
        <ele>341.09014</ele>
        <time>2020-07-29T08:21:51.788Z</time>
      </trkpt>
      <trkpt lat="61.80531" lon="5.3907">
        <ele>341.375555</ele>
        <time>2020-07-29T08:21:55.778Z</time>
      </trkpt>
      <trkpt lat="61.80537" lon="5.39089">
        <ele>341.667428</ele>
        <time>2020-07-29T08:22:00.774Z</time>
      </trkpt>
      <trkpt lat="61.80544" lon="5.39102">
        <ele>341.921167</ele>
        <time>2020-07-29T08:22:04.780Z</time>
      </trkpt>
      <trkpt lat="61.80552" lon="5.39117">
        <ele>342.220153</ele>
        <time>2020-07-29T08:22:09.793Z</time>
      </trkpt>
      <trkpt lat="61.80558" lon="5.39133">
        <ele>342.487769</ele>
        <time>2020-07-29T08:22:14.787Z</time>
      </trkpt>
      <trkpt lat="61.80565" lon="5.39146">
        <ele>342.785026</ele>
        <time>2020-07-29T08:22:18.786Z</time>
      </trkpt>
      <trkpt lat="61.80572" lon="5.39162">
        <ele>343.40319</ele>
        <time>2020-07-29T08:22:24.805Z</time>
      </trkpt>
      <trkpt lat="61.80577" lon="5.3918">
        <ele>343.975466</ele>
        <time>2020-07-29T08:22:30.801Z</time>
      </trkpt>
      <trkpt lat="61.80582" lon="5.39197">
        <ele>344.518177</ele>
        <time>2020-07-29T08:22:35.789Z</time>
      </trkpt>
      <trkpt lat="61.80586" lon="5.39214">
        <ele>345.039079</ele>
        <time>2020-07-29T08:22:40.849Z</time>
      </trkpt>
      <trkpt lat="61.80592" lon="5.39231">
        <ele>345.603262</ele>
        <time>2020-07-29T08:22:46.794Z</time>
      </trkpt>
      <trkpt lat="61.80598" lon="5.39245">
        <ele>346.131671</ele>
        <time>2020-07-29T08:22:52.825Z</time>
      </trkpt>
      <trkpt lat="61.80605" lon="5.39261">
        <ele>346.720017</ele>
        <time>2020-07-29T08:22:59.811Z</time>
      </trkpt>
      <trkpt lat="61.80611" lon="5.39278">
        <ele>347.299717</ele>
        <time>2020-07-29T08:23:06.838Z</time>
      </trkpt>
      <trkpt lat="61.80617" lon="5.39291">
        <ele>347.825623</ele>
        <time>2020-07-29T08:23:12.793Z</time>
      </trkpt>
      <trkpt lat="61.80622" lon="5.39308">
        <ele>348.36258</ele>
        <time>2020-07-29T08:23:20.789Z</time>
      </trkpt>
      <trkpt lat="61.80629" lon="5.39324">
        <ele>348.961963</ele>
        <time>2020-07-29T08:23:27.796Z</time>
      </trkpt>
      <trkpt lat="61.80635" lon="5.39339">
        <ele>349.486923</ele>
        <time>2020-07-29T08:23:33.799Z</time>
      </trkpt>
      <trkpt lat="61.80642" lon="5.39353">
        <ele>350.058341</ele>
        <time>2020-07-29T08:23:40.834Z</time>
      </trkpt>
      <trkpt lat="61.80649" lon="5.39367">
        <ele>350.637978</ele>
        <time>2020-07-29T08:23:46.776Z</time>
      </trkpt>
      <trkpt lat="61.80657" lon="5.39381">
        <ele>351.225372</ele>
        <time>2020-07-29T08:23:53.788Z</time>
      </trkpt>
      <trkpt lat="61.80665" lon="5.39397">
        <ele>351.840988</ele>
        <time>2020-07-29T08:23:59.818Z</time>
      </trkpt>
      <trkpt lat="61.80671" lon="5.3941">
        <ele>352.363691</ele>
        <time>2020-07-29T08:24:04.788Z</time>
      </trkpt>
      <trkpt lat="61.80678" lon="5.39427">
        <ele>352.963628</ele>
        <time>2020-07-29T08:24:10.799Z</time>
      </trkpt>
      <trkpt lat="61.80685" lon="5.39441">
        <ele>353.456465</ele>
        <time>2020-07-29T08:24:16.789Z</time>
      </trkpt>
      <trkpt lat="61.80692" lon="5.39456">
        <ele>353.893713</ele>
        <time>2020-07-29T08:24:23.779Z</time>
      </trkpt>
      <trkpt lat="61.80701" lon="5.39465">
        <ele>354.313116</ele>
        <time>2020-07-29T08:24:30.777Z</time>
      </trkpt>
      <trkpt lat="61.80708" lon="5.39478">
        <ele>354.707197</ele>
        <time>2020-07-29T08:24:37.806Z</time>
      </trkpt>
      <trkpt lat="61.80713" lon="5.39492">
        <ele>355.107303</ele>
        <time>2020-07-29T08:24:42.792Z</time>
      </trkpt>
      <trkpt lat="61.8072" lon="5.3951">
        <ele>355.573969</ele>
        <time>2020-07-29T08:24:48.784Z</time>
      </trkpt>
      <trkpt lat="61.80726" lon="5.39524">
        <ele>355.975096</ele>
        <time>2020-07-29T08:24:53.787Z</time>
      </trkpt>
      <trkpt lat="61.80733" lon="5.39536">
        <ele>356.372726</ele>
        <time>2020-07-29T08:24:58.781Z</time>
      </trkpt>
      <trkpt lat="61.80742" lon="5.39548">
        <ele>356.828348</ele>
        <time>2020-07-29T08:25:03.788Z</time>
      </trkpt>
      <trkpt lat="61.80749" lon="5.39562">
        <ele>357.256212</ele>
        <time>2020-07-29T08:25:08.838Z</time>
      </trkpt>
      <trkpt lat="61.80758" lon="5.39574">
        <ele>357.70174</ele>
        <time>2020-07-29T08:25:13.800Z</time>
      </trkpt>
      <trkpt lat="61.80766" lon="5.39587">
        <ele>358.153551</ele>
        <time>2020-07-29T08:25:19.791Z</time>
      </trkpt>
      <trkpt lat="61.80772" lon="5.39602">
        <ele>358.550824</ele>
        <time>2020-07-29T08:25:24.790Z</time>
      </trkpt>
      <trkpt lat="61.80777" lon="5.3962">
        <ele>359.001856</ele>
        <time>2020-07-29T08:25:30.786Z</time>
      </trkpt>
      <trkpt lat="61.80785" lon="5.39637">
        <ele>359.475635</ele>
        <time>2020-07-29T08:25:36.797Z</time>
      </trkpt>
      <trkpt lat="61.80794" lon="5.39648">
        <ele>359.926839</ele>
        <time>2020-07-29T08:25:42.809Z</time>
      </trkpt>
      <trkpt lat="61.80802" lon="5.3966">
        <ele>360.387348</ele>
        <time>2020-07-29T08:25:48.786Z</time>
      </trkpt>
      <trkpt lat="61.80809" lon="5.39673">
        <ele>360.805002</ele>
        <time>2020-07-29T08:25:54.796Z</time>
      </trkpt>
      <trkpt lat="61.80817" lon="5.39687">
        <ele>361.384817</ele>
        <time>2020-07-29T08:26:01.795Z</time>
      </trkpt>
      <trkpt lat="61.80823" lon="5.397">
        <ele>362.109607</ele>
        <time>2020-07-29T08:26:07.801Z</time>
      </trkpt>
      <trkpt lat="61.80831" lon="5.39715">
        <ele>362.943439</ele>
        <time>2020-07-29T08:26:15.787Z</time>
      </trkpt>
      <trkpt lat="61.80837" lon="5.3973">
        <ele>363.694791</ele>
        <time>2020-07-29T08:26:22.786Z</time>
      </trkpt>
      <trkpt lat="61.80845" lon="5.39742">
        <ele>364.449765</ele>
        <time>2020-07-29T08:26:28.802Z</time>
      </trkpt>
      <trkpt lat="61.80853" lon="5.39755">
        <ele>365.258097</ele>
        <time>2020-07-29T08:26:34.805Z</time>
      </trkpt>
      <trkpt lat="61.80858" lon="5.39774">
        <ele>366.083764</ele>
        <time>2020-07-29T08:26:40.822Z</time>
      </trkpt>
      <trkpt lat="61.80864" lon="5.3979">
        <ele>366.844521</ele>
        <time>2020-07-29T08:26:46.778Z</time>
      </trkpt>
      <trkpt lat="61.80871" lon="5.39805">
        <ele>367.653785</ele>
        <time>2020-07-29T08:26:53.797Z</time>
      </trkpt>
      <trkpt lat="61.80878" lon="5.39817">
        <ele>368.379438</ele>
        <time>2020-07-29T08:26:59.786Z</time>
      </trkpt>
      <trkpt lat="61.80886" lon="5.39832">
        <ele>369.209318</ele>
        <time>2020-07-29T08:27:07.783Z</time>
      </trkpt>
      <trkpt lat="61.80893" lon="5.39845">
        <ele>369.996347</ele>
        <time>2020-07-29T08:27:14.789Z</time>
      </trkpt>
      <trkpt lat="61.80897" lon="5.39863">
        <ele>370.739658</ele>
        <time>2020-07-29T08:27:23.787Z</time>
      </trkpt>
      <trkpt lat="61.80904" lon="5.39877">
        <ele>371.465828</ele>
        <time>2020-07-29T08:27:30.791Z</time>
      </trkpt>
      <trkpt lat="61.80909" lon="5.39895">
        <ele>372.290391</ele>
        <time>2020-07-29T08:27:37.790Z</time>
      </trkpt>
      <trkpt lat="61.80915" lon="5.39911">
        <ele>373.042318</ele>
        <time>2020-07-29T08:27:43.784Z</time>
      </trkpt>
      <trkpt lat="61.8092" lon="5.39927">
        <ele>373.76271</ele>
        <time>2020-07-29T08:27:52.801Z</time>
      </trkpt>
      <trkpt lat="61.80926" lon="5.39943">
        <ele>374.543499</ele>
        <time>2020-07-29T08:27:59.790Z</time>
      </trkpt>
      <trkpt lat="61.80933" lon="5.39954">
        <ele>375.26504</ele>
        <time>2020-07-29T08:28:06.797Z</time>
      </trkpt>
      <trkpt lat="61.80942" lon="5.39968">
        <ele>375.976417</ele>
        <time>2020-07-29T08:28:13.786Z</time>
      </trkpt>
      <trkpt lat="61.80945" lon="5.39986">
        <ele>376.574989</ele>
        <time>2020-07-29T08:28:21.805Z</time>
      </trkpt>
      <trkpt lat="61.80952" lon="5.39999">
        <ele>377.203838</ele>
        <time>2020-07-29T08:28:27.784Z</time>
      </trkpt>
      <trkpt lat="61.80958" lon="5.40017">
        <ele>377.887919</ele>
        <time>2020-07-29T08:28:34.803Z</time>
      </trkpt>
      <trkpt lat="61.80963" lon="5.40034">
        <ele>378.538657</ele>
        <time>2020-07-29T08:28:42.807Z</time>
      </trkpt>
      <trkpt lat="61.8097" lon="5.40048">
        <ele>379.127784</ele>
        <time>2020-07-29T08:28:48.796Z</time>
      </trkpt>
      <trkpt lat="61.80977" lon="5.40061">
        <ele>379.750982</ele>
        <time>2020-07-29T08:28:54.788Z</time>
      </trkpt>
      <trkpt lat="61.80983" lon="5.40077">
        <ele>380.375646</ele>
        <time>2020-07-29T08:29:01.815Z</time>
      </trkpt>
      <trkpt lat="61.80988" lon="5.40093">
        <ele>381.007883</ele>
        <time>2020-07-29T08:29:08.776Z</time>
      </trkpt>
      <trkpt lat="61.80994" lon="5.4011">
        <ele>381.640118</ele>
        <time>2020-07-29T08:29:16.807Z</time>
      </trkpt>
      <trkpt lat="61.80998" lon="5.40129">
        <ele>382.283102</ele>
        <time>2020-07-29T08:29:26.822Z</time>
      </trkpt>
      <trkpt lat="61.81007" lon="5.4014">
        <ele>382.932368</ele>
        <time>2020-07-29T08:29:33.828Z</time>
      </trkpt>
      <trkpt lat="61.81013" lon="5.40154">
        <ele>383.564613</ele>
        <time>2020-07-29T08:29:40.794Z</time>
      </trkpt>
      <trkpt lat="61.8102" lon="5.40168">
        <ele>384.181676</ele>
        <time>2020-07-29T08:29:49.787Z</time>
      </trkpt>
      <trkpt lat="61.81029" lon="5.40178">
        <ele>384.82368</ele>
        <time>2020-07-29T08:29:56.798Z</time>
      </trkpt>
      <trkpt lat="61.81036" lon="5.4019">
        <ele>385.449877</ele>
        <time>2020-07-29T08:30:02.792Z</time>
      </trkpt>
      <trkpt lat="61.81042" lon="5.40206">
        <ele>386.064734</ele>
        <time>2020-07-29T08:30:08.793Z</time>
      </trkpt>
      <trkpt lat="61.81049" lon="5.4022">
        <ele>386.670168</ele>
        <time>2020-07-29T08:30:14.851Z</time>
      </trkpt>
      <trkpt lat="61.81056" lon="5.40232">
        <ele>387.273814</ele>
        <time>2020-07-29T08:30:22.864Z</time>
      </trkpt>
      <trkpt lat="61.81064" lon="5.40244">
        <ele>387.929353</ele>
        <time>2020-07-29T08:30:30.830Z</time>
      </trkpt>
      <trkpt lat="61.81072" lon="5.40258">
        <ele>388.590285</ele>
        <time>2020-07-29T08:30:37.810Z</time>
      </trkpt>
      <trkpt lat="61.81079" lon="5.40272">
        <ele>389.231238</ele>
        <time>2020-07-29T08:30:45.793Z</time>
      </trkpt>
      <trkpt lat="61.81087" lon="5.40281">
        <ele>389.854238</ele>
        <time>2020-07-29T08:30:53.779Z</time>
      </trkpt>
      <trkpt lat="61.81094" lon="5.40294">
        <ele>390.465331</ele>
        <time>2020-07-29T08:31:01.810Z</time>
      </trkpt>
      <trkpt lat="61.81102" lon="5.40307">
        <ele>391.111236</ele>
        <time>2020-07-29T08:31:09.799Z</time>
      </trkpt>
      <trkpt lat="61.8111" lon="5.40321">
        <ele>391.772199</ele>
        <time>2020-07-29T08:31:17.805Z</time>
      </trkpt>
      <trkpt lat="61.81118" lon="5.40332">
        <ele>392.387056</ele>
        <time>2020-07-29T08:31:24.803Z</time>
      </trkpt>
      <trkpt lat="61.81123" lon="5.40349">
        <ele>393.042681</ele>
        <time>2020-07-29T08:31:32.828Z</time>
      </trkpt>
      <trkpt lat="61.81131" lon="5.40361">
        <ele>393.691088</ele>
        <time>2020-07-29T08:31:42.785Z</time>
      </trkpt>
      <trkpt lat="61.8114" lon="5.40374">
        <ele>394.384046</ele>
        <time>2020-07-29T08:31:49.817Z</time>
      </trkpt>
      <trkpt lat="61.81148" lon="5.40385">
        <ele>394.975586</ele>
        <time>2020-07-29T08:31:55.805Z</time>
      </trkpt>
      <trkpt lat="61.81154" lon="5.40398">
        <ele>395.582702</ele>
        <time>2020-07-29T08:32:03.806Z</time>
      </trkpt>
      <trkpt lat="61.81161" lon="5.40411">
        <ele>396.19173</ele>
        <time>2020-07-29T08:32:10.815Z</time>
      </trkpt>
      <trkpt lat="61.81169" lon="5.40425">
        <ele>396.844343</ele>
        <time>2020-07-29T08:32:16.816Z</time>
      </trkpt>
      <trkpt lat="61.81176" lon="5.40439">
        <ele>397.469963</ele>
        <time>2020-07-29T08:32:23.828Z</time>
      </trkpt>
      <trkpt lat="61.81183" lon="5.40454">
        <ele>398.114624</ele>
        <time>2020-07-29T08:32:30.808Z</time>
      </trkpt>
      <trkpt lat="61.81188" lon="5.40472">
        <ele>398.787809</ele>
        <time>2020-07-29T08:32:38.791Z</time>
      </trkpt>
      <trkpt lat="61.81195" lon="5.4049">
        <ele>398.905431</ele>
        <time>2020-07-29T08:32:46.812Z</time>
      </trkpt>
      <trkpt lat="61.81199" lon="5.4051">
        <ele>398.813623</ele>
        <time>2020-07-29T08:32:53.790Z</time>
      </trkpt>
      <trkpt lat="61.81206" lon="5.40524">
        <ele>398.732727</ele>
        <time>2020-07-29T08:32:58.829Z</time>
      </trkpt>
      <trkpt lat="61.81212" lon="5.40541">
        <ele>398.645419</ele>
        <time>2020-07-29T08:33:03.784Z</time>
      </trkpt>
      <trkpt lat="61.81219" lon="5.40556">
        <ele>398.560851</ele>
        <time>2020-07-29T08:33:09.830Z</time>
      </trkpt>
      <trkpt lat="61.81226" lon="5.40571">
        <ele>398.474876</ele>
        <time>2020-07-29T08:33:14.805Z</time>
      </trkpt>
      <trkpt lat="61.81231" lon="5.40588">
        <ele>398.392718</ele>
        <time>2020-07-29T08:33:19.777Z</time>
      </trkpt>
      <trkpt lat="61.81237" lon="5.40606">
        <ele>398.300588</ele>
        <time>2020-07-29T08:33:23.774Z</time>
      </trkpt>
      <trkpt lat="61.81244" lon="5.40627">
        <ele>398.198973</ele>
        <time>2020-07-29T08:33:27.819Z</time>
      </trkpt>
      <trkpt lat="61.81252" lon="5.40644">
        <ele>398.104452</ele>
        <time>2020-07-29T08:33:30.796Z</time>
      </trkpt>
      <trkpt lat="61.81258" lon="5.40657">
        <ele>398.026515</ele>
        <time>2020-07-29T08:33:32.803Z</time>
      </trkpt>
      <trkpt lat="61.81265" lon="5.40674">
        <ele>397.937822</ele>
        <time>2020-07-29T08:33:34.791Z</time>
      </trkpt>
      <trkpt lat="61.81272" lon="5.40689">
        <ele>397.846756</ele>
        <time>2020-07-29T08:33:36.791Z</time>
      </trkpt>
      <trkpt lat="61.8128" lon="5.40703">
        <ele>397.755178</ele>
        <time>2020-07-29T08:33:38.797Z</time>
      </trkpt>
      <trkpt lat="61.81289" lon="5.40716">
        <ele>397.665387</ele>
        <time>2020-07-29T08:33:40.785Z</time>
      </trkpt>
      <trkpt lat="61.81297" lon="5.40729">
        <ele>397.581901</ele>
        <time>2020-07-29T08:33:42.778Z</time>
      </trkpt>
      <trkpt lat="61.81304" lon="5.40741">
        <ele>397.498769</ele>
        <time>2020-07-29T08:33:44.792Z</time>
      </trkpt>
      <trkpt lat="61.81311" lon="5.40754">
        <ele>397.420267</ele>
        <time>2020-07-29T08:33:46.818Z</time>
      </trkpt>
      <trkpt lat="61.81321" lon="5.4077">
        <ele>397.884944</ele>
        <time>2020-07-29T08:33:49.788Z</time>
      </trkpt>
      <trkpt lat="61.81328" lon="5.40783">
        <ele>398.246297</ele>
        <time>2020-07-29T08:33:52.787Z</time>
      </trkpt>
      <trkpt lat="61.81337" lon="5.40795">
        <ele>398.644648</ele>
        <time>2020-07-29T08:33:56.793Z</time>
      </trkpt>
      <trkpt lat="61.81344" lon="5.40807">
        <ele>399.001473</ele>
        <time>2020-07-29T08:34:00.791Z</time>
      </trkpt>
      <trkpt lat="61.81353" lon="5.40817">
        <ele>399.368593</ele>
        <time>2020-07-29T08:34:04.797Z</time>
      </trkpt>
      <trkpt lat="61.8136" lon="5.4083">
        <ele>399.735191</ele>
        <time>2020-07-29T08:34:08.794Z</time>
      </trkpt>
      <trkpt lat="61.81368" lon="5.40846">
        <ele>400.147421</ele>
        <time>2020-07-29T08:34:13.797Z</time>
      </trkpt>
      <trkpt lat="61.81377" lon="5.40855">
        <ele>400.52545</ele>
        <time>2020-07-29T08:34:18.805Z</time>
      </trkpt>
      <trkpt lat="61.81384" lon="5.40871">
        <ele>400.922957</ele>
        <time>2020-07-29T08:34:23.794Z</time>
      </trkpt>
      <trkpt lat="61.81391" lon="5.40886">
        <ele>401.303441</ele>
        <time>2020-07-29T08:34:28.785Z</time>
      </trkpt>
      <trkpt lat="61.81399" lon="5.40897">
        <ele>401.659117</ele>
        <time>2020-07-29T08:34:32.779Z</time>
      </trkpt>
      <trkpt lat="61.81407" lon="5.40911">
        <ele>402.05777</ele>
        <time>2020-07-29T08:34:37.836Z</time>
      </trkpt>
      <trkpt lat="61.81414" lon="5.40925">
        <ele>402.427044</ele>
        <time>2020-07-29T08:34:41.772Z</time>
      </trkpt>
      <trkpt lat="61.81422" lon="5.40938">
        <ele>402.807236</ele>
        <time>2020-07-29T08:34:45.816Z</time>
      </trkpt>
      <trkpt lat="61.8143" lon="5.40953">
        <ele>403.22162</ele>
        <time>2020-07-29T08:34:49.782Z</time>
      </trkpt>
      <trkpt lat="61.81438" lon="5.40971">
        <ele>403.675631</ele>
        <time>2020-07-29T08:34:53.807Z</time>
      </trkpt>
      <trkpt lat="61.81445" lon="5.40983">
        <ele>404.023006</ele>
        <time>2020-07-29T08:34:56.799Z</time>
      </trkpt>
      <trkpt lat="61.81454" lon="5.40997">
        <ele>404.328579</ele>
        <time>2020-07-29T08:35:00.832Z</time>
      </trkpt>
      <trkpt lat="61.81462" lon="5.41011">
        <ele>404.431002</ele>
        <time>2020-07-29T08:35:04.837Z</time>
      </trkpt>
      <trkpt lat="61.81471" lon="5.41025">
        <ele>404.537719</ele>
        <time>2020-07-29T08:35:09.803Z</time>
      </trkpt>
      <trkpt lat="61.81478" lon="5.41037">
        <ele>404.63018</ele>
        <time>2020-07-29T08:35:13.798Z</time>
      </trkpt>
      <trkpt lat="61.81486" lon="5.41052">
        <ele>404.739732</ele>
        <time>2020-07-29T08:35:18.802Z</time>
      </trkpt>
      <trkpt lat="61.81494" lon="5.41063">
        <ele>404.831043</ele>
        <time>2020-07-29T08:35:22.785Z</time>
      </trkpt>
      <trkpt lat="61.81503" lon="5.41077">
        <ele>404.942601</ele>
        <time>2020-07-29T08:35:27.794Z</time>
      </trkpt>
      <trkpt lat="61.81512" lon="5.41091">
        <ele>405.050648</ele>
        <time>2020-07-29T08:35:32.797Z</time>
      </trkpt>
      <trkpt lat="61.81518" lon="5.41106">
        <ele>405.146641</ele>
        <time>2020-07-29T08:35:37.820Z</time>
      </trkpt>
      <trkpt lat="61.81526" lon="5.41118">
        <ele>405.238618</ele>
        <time>2020-07-29T08:35:41.786Z</time>
      </trkpt>
      <trkpt lat="61.81533" lon="5.41131">
        <ele>405.335459</ele>
        <time>2020-07-29T08:35:45.788Z</time>
      </trkpt>
      <trkpt lat="61.81541" lon="5.41142">
        <ele>405.426975</ele>
        <time>2020-07-29T08:35:49.795Z</time>
      </trkpt>
      <trkpt lat="61.81548" lon="5.41153">
        <ele>405.516358</ele>
        <time>2020-07-29T08:35:54.830Z</time>
      </trkpt>
      <trkpt lat="61.81556" lon="5.41168">
        <ele>405.62151</ele>
        <time>2020-07-29T08:35:59.784Z</time>
      </trkpt>
      <trkpt lat="61.81565" lon="5.4118">
        <ele>405.725776</ele>
        <time>2020-07-29T08:36:04.804Z</time>
      </trkpt>
      <trkpt lat="61.81573" lon="5.41192">
        <ele>405.823247</ele>
        <time>2020-07-29T08:36:09.791Z</time>
      </trkpt>
      <trkpt lat="61.8158" lon="5.41204">
        <ele>405.914636</ele>
        <time>2020-07-29T08:36:14.805Z</time>
      </trkpt>
      <trkpt lat="61.81588" lon="5.41217">
        <ele>406.014398</ele>
        <time>2020-07-29T08:36:19.793Z</time>
      </trkpt>
      <trkpt lat="61.81597" lon="5.4123">
        <ele>406.185909</ele>
        <time>2020-07-29T08:36:24.785Z</time>
      </trkpt>
      <trkpt lat="61.81605" lon="5.41239">
        <ele>406.401257</ele>
        <time>2020-07-29T08:36:28.788Z</time>
      </trkpt>
      <trkpt lat="61.81614" lon="5.4125">
        <ele>406.631519</ele>
        <time>2020-07-29T08:36:33.826Z</time>
      </trkpt>
      <trkpt lat="61.81622" lon="5.4126">
        <ele>406.848531</ele>
        <time>2020-07-29T08:36:38.791Z</time>
      </trkpt>
      <trkpt lat="61.8163" lon="5.41268">
        <ele>407.069551</ele>
        <time>2020-07-29T08:36:44.785Z</time>
      </trkpt>
      <trkpt lat="61.81638" lon="5.4128">
        <ele>407.298699</ele>
        <time>2020-07-29T08:36:48.805Z</time>
      </trkpt>
      <trkpt lat="61.81647" lon="5.41291">
        <ele>407.54513</ele>
        <time>2020-07-29T08:36:52.784Z</time>
      </trkpt>
      <trkpt lat="61.81656" lon="5.41302">
        <ele>407.786239</ele>
        <time>2020-07-29T08:36:56.811Z</time>
      </trkpt>
      <trkpt lat="61.81664" lon="5.41311">
        <ele>408.001586</ele>
        <time>2020-07-29T08:37:00.805Z</time>
      </trkpt>
      <trkpt lat="61.81673" lon="5.41321">
        <ele>408.222084</ele>
        <time>2020-07-29T08:37:05.789Z</time>
      </trkpt>
      <trkpt lat="61.81682" lon="5.41331">
        <ele>408.47362</ele>
        <time>2020-07-29T08:37:10.788Z</time>
      </trkpt>
      <trkpt lat="61.81691" lon="5.4134">
        <ele>408.699323</ele>
        <time>2020-07-29T08:37:15.845Z</time>
      </trkpt>
      <trkpt lat="61.81699" lon="5.41351">
        <ele>408.908746</ele>
        <time>2020-07-29T08:37:19.824Z</time>
      </trkpt>
      <trkpt lat="61.81706" lon="5.41363">
        <ele>409.136744</ele>
        <time>2020-07-29T08:37:23.807Z</time>
      </trkpt>
      <trkpt lat="61.81714" lon="5.41374">
        <ele>409.358372</ele>
        <time>2020-07-29T08:37:27.784Z</time>
      </trkpt>
      <trkpt lat="61.81723" lon="5.41385">
        <ele>409.592294</ele>
        <time>2020-07-29T08:37:32.787Z</time>
      </trkpt>
      <trkpt lat="61.81732" lon="5.41395">
        <ele>409.839532</ele>
        <time>2020-07-29T08:37:37.784Z</time>
      </trkpt>
      <trkpt lat="61.8174" lon="5.41405">
        <ele>410.05341</ele>
        <time>2020-07-29T08:37:41.805Z</time>
      </trkpt>
      <trkpt lat="61.81749" lon="5.41417">
        <ele>410.319296</ele>
        <time>2020-07-29T08:37:46.788Z</time>
      </trkpt>
      <trkpt lat="61.81756" lon="5.41431">
        <ele>411.060881</ele>
        <time>2020-07-29T08:37:51.812Z</time>
      </trkpt>
      <trkpt lat="61.81763" lon="5.41446">
        <ele>411.774812</ele>
        <time>2020-07-29T08:37:56.809Z</time>
      </trkpt>
      <trkpt lat="61.8177" lon="5.41462">
        <ele>412.56018</ele>
        <time>2020-07-29T08:38:01.797Z</time>
      </trkpt>
      <trkpt lat="61.81776" lon="5.41477">
        <ele>413.242763</ele>
        <time>2020-07-29T08:38:06.817Z</time>
      </trkpt>
      <trkpt lat="61.81783" lon="5.4149">
        <ele>413.959011</ele>
        <time>2020-07-29T08:38:12.797Z</time>
      </trkpt>
      <trkpt lat="61.81791" lon="5.41504">
        <ele>414.721741</ele>
        <time>2020-07-29T08:38:18.793Z</time>
      </trkpt>
      <trkpt lat="61.81797" lon="5.41519">
        <ele>415.401604</ele>
        <time>2020-07-29T08:38:24.777Z</time>
      </trkpt>
      <trkpt lat="61.81803" lon="5.41534">
        <ele>416.078145</ele>
        <time>2020-07-29T08:38:31.790Z</time>
      </trkpt>
      <trkpt lat="61.81809" lon="5.41547">
        <ele>416.751443</ele>
        <time>2020-07-29T08:38:37.820Z</time>
      </trkpt>
      <trkpt lat="61.81818" lon="5.41562">
        <ele>417.567775</ele>
        <time>2020-07-29T08:38:43.785Z</time>
      </trkpt>
      <trkpt lat="61.81825" lon="5.41576">
        <ele>418.291286</ele>
        <time>2020-07-29T08:38:49.805Z</time>
      </trkpt>
      <trkpt lat="61.81831" lon="5.41593">
        <ele>419.055632</ele>
        <time>2020-07-29T08:38:56.787Z</time>
      </trkpt>
      <trkpt lat="61.81839" lon="5.41605">
        <ele>419.754985</ele>
        <time>2020-07-29T08:39:02.774Z</time>
      </trkpt>
      <trkpt lat="61.81845" lon="5.41619">
        <ele>420.458909</ele>
        <time>2020-07-29T08:39:10.786Z</time>
      </trkpt>
      <trkpt lat="61.81851" lon="5.41635">
        <ele>421.124276</ele>
        <time>2020-07-29T08:39:18.788Z</time>
      </trkpt>
      <trkpt lat="61.81859" lon="5.41647">
        <ele>421.882883</ele>
        <time>2020-07-29T08:39:27.848Z</time>
      </trkpt>
      <trkpt lat="61.81866" lon="5.4166">
        <ele>422.559444</ele>
        <time>2020-07-29T08:39:35.812Z</time>
      </trkpt>
      <trkpt lat="61.81873" lon="5.41673">
        <ele>423.268192</ele>
        <time>2020-07-29T08:39:41.822Z</time>
      </trkpt>
      <trkpt lat="61.8188" lon="5.4169">
        <ele>423.778632</ele>
        <time>2020-07-29T08:39:48.812Z</time>
      </trkpt>
      <trkpt lat="61.81886" lon="5.41704">
        <ele>424.018263</ele>
        <time>2020-07-29T08:39:56.804Z</time>
      </trkpt>
      <trkpt lat="61.81893" lon="5.41718">
        <ele>424.274778</ele>
        <time>2020-07-29T08:40:03.827Z</time>
      </trkpt>
      <trkpt lat="61.81899" lon="5.41734">
        <ele>424.518162</ele>
        <time>2020-07-29T08:40:09.788Z</time>
      </trkpt>
      <trkpt lat="61.81906" lon="5.41748">
        <ele>424.768482</ele>
        <time>2020-07-29T08:40:16.805Z</time>
      </trkpt>
      <trkpt lat="61.81913" lon="5.41764">
        <ele>425.038597</ele>
        <time>2020-07-29T08:40:24.792Z</time>
      </trkpt>
      <trkpt lat="61.8192" lon="5.41776">
        <ele>425.286241</ele>
        <time>2020-07-29T08:40:31.797Z</time>
      </trkpt>
      <trkpt lat="61.81928" lon="5.4179">
        <ele>425.551998</ele>
        <time>2020-07-29T08:40:39.788Z</time>
      </trkpt>
      <trkpt lat="61.81935" lon="5.41806">
        <ele>425.814301</ele>
        <time>2020-07-29T08:40:46.784Z</time>
      </trkpt>
      <trkpt lat="61.81941" lon="5.41823">
        <ele>426.086809</ele>
        <time>2020-07-29T08:40:53.780Z</time>
      </trkpt>
      <trkpt lat="61.81949" lon="5.41838">
        <ele>426.350614</ele>
        <time>2020-07-29T08:40:59.788Z</time>
      </trkpt>
      <trkpt lat="61.81956" lon="5.41852">
        <ele>426.599672</ele>
        <time>2020-07-29T08:41:05.789Z</time>
      </trkpt>
      <trkpt lat="61.81962" lon="5.41867">
        <ele>426.846449</ele>
        <time>2020-07-29T08:41:12.810Z</time>
      </trkpt>
      <trkpt lat="61.81969" lon="5.41881">
        <ele>427.106288</ele>
        <time>2020-07-29T08:41:18.786Z</time>
      </trkpt>
      <trkpt lat="61.81976" lon="5.41893">
        <ele>427.348513</ele>
        <time>2020-07-29T08:41:23.798Z</time>
      </trkpt>
      <trkpt lat="61.81984" lon="5.41905">
        <ele>427.602545</ele>
        <time>2020-07-29T08:41:28.809Z</time>
      </trkpt>
      <trkpt lat="61.81993" lon="5.41917">
        <ele>427.877373</ele>
        <time>2020-07-29T08:41:34.783Z</time>
      </trkpt>
      <trkpt lat="61.82001" lon="5.4193">
        <ele>428.129391</ele>
        <time>2020-07-29T08:41:40.833Z</time>
      </trkpt>
      <trkpt lat="61.8201" lon="5.4194">
        <ele>428.348284</ele>
        <time>2020-07-29T08:41:46.778Z</time>
      </trkpt>
      <trkpt lat="61.8202" lon="5.41946">
        <ele>428.400603</ele>
        <time>2020-07-29T08:41:51.822Z</time>
      </trkpt>
      <trkpt lat="61.82029" lon="5.41953">
        <ele>428.449116</ele>
        <time>2020-07-29T08:41:55.820Z</time>
      </trkpt>
      <trkpt lat="61.82037" lon="5.41961">
        <ele>428.499907</ele>
        <time>2020-07-29T08:42:00.795Z</time>
      </trkpt>
      <trkpt lat="61.82047" lon="5.41969">
        <ele>428.551798</ele>
        <time>2020-07-29T08:42:05.816Z</time>
      </trkpt>
      <trkpt lat="61.82057" lon="5.41972">
        <ele>428.604397</ele>
        <time>2020-07-29T08:42:10.794Z</time>
      </trkpt>
      <trkpt lat="61.82066" lon="5.41975">
        <ele>428.655921</ele>
        <time>2020-07-29T08:42:14.826Z</time>
      </trkpt>
      <trkpt lat="61.82076" lon="5.41978">
        <ele>428.709367</ele>
        <time>2020-07-29T08:42:19.790Z</time>
      </trkpt>
      <trkpt lat="61.82087" lon="5.41982">
        <ele>428.764632</ele>
        <time>2020-07-29T08:42:25.815Z</time>
      </trkpt>
      <trkpt lat="61.82096" lon="5.41985">
        <ele>428.815382</ele>
        <time>2020-07-29T08:42:31.811Z</time>
      </trkpt>
      <trkpt lat="61.82112" lon="5.41973">
        <ele>428.902603</ele>
        <time>2020-07-29T08:46:59.814Z</time>
      </trkpt>
      <trkpt lat="61.82121" lon="5.41967">
        <ele>428.950476</ele>
        <time>2020-07-29T08:47:03.805Z</time>
      </trkpt>
      <trkpt lat="61.82131" lon="5.41965">
        <ele>429.005355</ele>
        <time>2020-07-29T08:47:08.787Z</time>
      </trkpt>
      <trkpt lat="61.82142" lon="5.4196">
        <ele>429.06299</ele>
        <time>2020-07-29T08:47:12.796Z</time>
      </trkpt>
      <trkpt lat="61.82152" lon="5.41954">
        <ele>429.117456</ele>
        <time>2020-07-29T08:47:15.856Z</time>
      </trkpt>
      <trkpt lat="61.82162" lon="5.41944">
        <ele>429.177109</ele>
        <time>2020-07-29T08:47:18.810Z</time>
      </trkpt>
      <trkpt lat="61.82174" lon="5.41933">
        <ele>429.2437</ele>
        <time>2020-07-29T08:47:21.831Z</time>
      </trkpt>
      <trkpt lat="61.82183" lon="5.41926">
        <ele>429.058412</ele>
        <time>2020-07-29T08:47:23.807Z</time>
      </trkpt>
      <trkpt lat="61.82194" lon="5.41919">
        <ele>428.429947</ele>
        <time>2020-07-29T08:47:25.792Z</time>
      </trkpt>
      <trkpt lat="61.82206" lon="5.41912">
        <ele>427.741579</ele>
        <time>2020-07-29T08:47:27.796Z</time>
      </trkpt>
      <trkpt lat="61.82219" lon="5.41904">
        <ele>426.995289</ele>
        <time>2020-07-29T08:47:29.789Z</time>
      </trkpt>
      <trkpt lat="61.82233" lon="5.41898">
        <ele>426.209042</ele>
        <time>2020-07-29T08:47:31.832Z</time>
      </trkpt>
      <trkpt lat="61.82247" lon="5.41895">
        <ele>425.411169</ele>
        <time>2020-07-29T08:47:33.795Z</time>
      </trkpt>
      <trkpt lat="61.82262" lon="5.41897">
        <ele>424.603269</ele>
        <time>2020-07-29T08:47:35.797Z</time>
      </trkpt>
      <trkpt lat="61.82277" lon="5.41903">
        <ele>423.716181</ele>
        <time>2020-07-29T08:47:37.804Z</time>
      </trkpt>
      <trkpt lat="61.82293" lon="5.41913">
        <ele>422.782246</ele>
        <time>2020-07-29T08:47:39.804Z</time>
      </trkpt>
      <trkpt lat="61.82309" lon="5.41927">
        <ele>421.842503</ele>
        <time>2020-07-29T08:47:41.787Z</time>
      </trkpt>
      <trkpt lat="61.82325" lon="5.41939">
        <ele>420.901756</ele>
        <time>2020-07-29T08:47:43.813Z</time>
      </trkpt>
      <trkpt lat="61.82341" lon="5.41951">
        <ele>419.971442</ele>
        <time>2020-07-29T08:47:45.819Z</time>
      </trkpt>
      <trkpt lat="61.82356" lon="5.41962">
        <ele>419.314583</ele>
        <time>2020-07-29T08:47:47.782Z</time>
      </trkpt>
      <trkpt lat="61.82369" lon="5.41973">
        <ele>419.467148</ele>
        <time>2020-07-29T08:47:49.788Z</time>
      </trkpt>
      <trkpt lat="61.82381" lon="5.41985">
        <ele>419.611809</ele>
        <time>2020-07-29T08:47:51.792Z</time>
      </trkpt>
      <trkpt lat="61.82392" lon="5.41995">
        <ele>419.751929</ele>
        <time>2020-07-29T08:47:53.792Z</time>
      </trkpt>
      <trkpt lat="61.82403" lon="5.42004">
        <ele>419.876865</ele>
        <time>2020-07-29T08:47:55.817Z</time>
      </trkpt>
      <trkpt lat="61.82413" lon="5.42012">
        <ele>419.991182</ele>
        <time>2020-07-29T08:47:57.789Z</time>
      </trkpt>
      <trkpt lat="61.82422" lon="5.42019">
        <ele>420.091768</ele>
        <time>2020-07-29T08:47:59.807Z</time>
      </trkpt>
      <trkpt lat="61.8243" lon="5.42025">
        <ele>420.19133</ele>
        <time>2020-07-29T08:48:01.795Z</time>
      </trkpt>
      <trkpt lat="61.82439" lon="5.42032">
        <ele>420.291428</ele>
        <time>2020-07-29T08:48:03.792Z</time>
      </trkpt>
      <trkpt lat="61.8245" lon="5.42042">
        <ele>420.420926</ele>
        <time>2020-07-29T08:48:06.827Z</time>
      </trkpt>
      <trkpt lat="61.82461" lon="5.42053">
        <ele>420.55445</ele>
        <time>2020-07-29T08:48:09.799Z</time>
      </trkpt>
      <trkpt lat="61.8247" lon="5.4206">
        <ele>420.655486</ele>
        <time>2020-07-29T08:48:11.791Z</time>
      </trkpt>
      <trkpt lat="61.82479" lon="5.42069">
        <ele>420.764129</ele>
        <time>2020-07-29T08:48:13.796Z</time>
      </trkpt>
      <trkpt lat="61.82488" lon="5.42079">
        <ele>420.879562</ele>
        <time>2020-07-29T08:48:15.786Z</time>
      </trkpt>
      <trkpt lat="61.82499" lon="5.42091">
        <ele>421.008224</ele>
        <time>2020-07-29T08:48:17.779Z</time>
      </trkpt>
      <trkpt lat="61.82508" lon="5.42106">
        <ele>421.13953</ele>
        <time>2020-07-29T08:48:19.826Z</time>
      </trkpt>
      <trkpt lat="61.82519" lon="5.42121">
        <ele>421.296585</ele>
        <time>2020-07-29T08:48:21.811Z</time>
      </trkpt>
      <trkpt lat="61.82528" lon="5.42138">
        <ele>421.496071</ele>
        <time>2020-07-29T08:48:23.791Z</time>
      </trkpt>
      <trkpt lat="61.82537" lon="5.42157">
        <ele>421.695272</ele>
        <time>2020-07-29T08:48:25.833Z</time>
      </trkpt>
      <trkpt lat="61.82544" lon="5.42177">
        <ele>421.886406</ele>
        <time>2020-07-29T08:48:27.806Z</time>
      </trkpt>
      <trkpt lat="61.8255" lon="5.42198">
        <ele>422.072835</ele>
        <time>2020-07-29T08:48:29.798Z</time>
      </trkpt>
      <trkpt lat="61.82555" lon="5.42219">
        <ele>422.252996</ele>
        <time>2020-07-29T08:48:31.792Z</time>
      </trkpt>
      <trkpt lat="61.82558" lon="5.4224">
        <ele>422.421142</ele>
        <time>2020-07-29T08:48:33.809Z</time>
      </trkpt>
      <trkpt lat="61.82561" lon="5.42261">
        <ele>422.591174</ele>
        <time>2020-07-29T08:48:35.822Z</time>
      </trkpt>
      <trkpt lat="61.82563" lon="5.42282">
        <ele>422.750463</ele>
        <time>2020-07-29T08:48:37.788Z</time>
      </trkpt>
      <trkpt lat="61.82565" lon="5.42302">
        <ele>422.91029</ele>
        <time>2020-07-29T08:48:39.774Z</time>
      </trkpt>
      <trkpt lat="61.82567" lon="5.42322">
        <ele>423.063127</ele>
        <time>2020-07-29T08:48:41.786Z</time>
      </trkpt>
      <trkpt lat="61.8257" lon="5.4234">
        <ele>423.208759</ele>
        <time>2020-07-29T08:48:43.783Z</time>
      </trkpt>
      <trkpt lat="61.82573" lon="5.42367">
        <ele>423.424454</ele>
        <time>2020-07-29T08:48:46.823Z</time>
      </trkpt>
      <trkpt lat="61.82575" lon="5.42394">
        <ele>423.632957</ele>
        <time>2020-07-29T08:48:49.815Z</time>
      </trkpt>
      <trkpt lat="61.82576" lon="5.42421">
        <ele>423.837732</ele>
        <time>2020-07-29T08:48:52.789Z</time>
      </trkpt>
      <trkpt lat="61.82578" lon="5.42447">
        <ele>424.037224</ele>
        <time>2020-07-29T08:48:55.798Z</time>
      </trkpt>
      <trkpt lat="61.82581" lon="5.42471">
        <ele>424.252453</ele>
        <time>2020-07-29T08:48:58.788Z</time>
      </trkpt>
      <trkpt lat="61.82583" lon="5.425">
        <ele>424.529692</ele>
        <time>2020-07-29T08:49:01.810Z</time>
      </trkpt>
      <trkpt lat="61.82585" lon="5.42519">
        <ele>424.718754</ele>
        <time>2020-07-29T08:49:03.828Z</time>
      </trkpt>
      <trkpt lat="61.82587" lon="5.42545">
        <ele>424.975184</ele>
        <time>2020-07-29T08:49:06.827Z</time>
      </trkpt>
      <trkpt lat="61.82589" lon="5.42565">
        <ele>425.170824</ele>
        <time>2020-07-29T08:49:08.806Z</time>
      </trkpt>
      <trkpt lat="61.82591" lon="5.42587">
        <ele>425.383823</ele>
        <time>2020-07-29T08:49:10.815Z</time>
      </trkpt>
      <trkpt lat="61.82594" lon="5.42606">
        <ele>425.577543</ele>
        <time>2020-07-29T08:49:12.845Z</time>
      </trkpt>
      <trkpt lat="61.82596" lon="5.42626">
        <ele>425.771839</ele>
        <time>2020-07-29T08:49:14.812Z</time>
      </trkpt>
      <trkpt lat="61.82599" lon="5.42644">
        <ele>425.959277</ele>
        <time>2020-07-29T08:49:16.808Z</time>
      </trkpt>
      <trkpt lat="61.82602" lon="5.42663">
        <ele>426.151668</ele>
        <time>2020-07-29T08:49:18.803Z</time>
      </trkpt>
      <trkpt lat="61.82606" lon="5.42681">
        <ele>426.33868</ele>
        <time>2020-07-29T08:49:20.796Z</time>
      </trkpt>
      <trkpt lat="61.82611" lon="5.42706">
        <ele>426.595518</ele>
        <time>2020-07-29T08:49:23.834Z</time>
      </trkpt>
      <trkpt lat="61.82615" lon="5.4273">
        <ele>426.848655</ele>
        <time>2020-07-29T08:49:26.786Z</time>
      </trkpt>
      <trkpt lat="61.82619" lon="5.42756">
        <ele>427.107312</ele>
        <time>2020-07-29T08:49:29.809Z</time>
      </trkpt>
      <trkpt lat="61.82623" lon="5.42781">
        <ele>427.359361</ele>
        <time>2020-07-29T08:49:32.795Z</time>
      </trkpt>
      <trkpt lat="61.82627" lon="5.42806">
        <ele>427.614039</ele>
        <time>2020-07-29T08:49:35.837Z</time>
      </trkpt>
      <trkpt lat="61.82632" lon="5.42826">
        <ele>427.800977</ele>
        <time>2020-07-29T08:49:38.790Z</time>
      </trkpt>
      <trkpt lat="61.82636" lon="5.42848">
        <ele>427.758598</ele>
        <time>2020-07-29T08:49:41.819Z</time>
      </trkpt>
      <trkpt lat="61.82641" lon="5.42871">
        <ele>427.711704</ele>
        <time>2020-07-29T08:49:44.781Z</time>
      </trkpt>
      <trkpt lat="61.82646" lon="5.42896">
        <ele>427.662028</ele>
        <time>2020-07-29T08:49:47.791Z</time>
      </trkpt>
      <trkpt lat="61.82651" lon="5.4292">
        <ele>427.613865</ele>
        <time>2020-07-29T08:49:50.824Z</time>
      </trkpt>
      <trkpt lat="61.82656" lon="5.42942">
        <ele>427.569179</ele>
        <time>2020-07-29T08:49:53.783Z</time>
      </trkpt>
      <trkpt lat="61.8266" lon="5.42966">
        <ele>427.523113</ele>
        <time>2020-07-29T08:49:56.788Z</time>
      </trkpt>
      <trkpt lat="61.82664" lon="5.42989">
        <ele>427.478932</ele>
        <time>2020-07-29T08:49:59.795Z</time>
      </trkpt>
      <trkpt lat="61.82668" lon="5.43011">
        <ele>427.435142</ele>
        <time>2020-07-29T08:50:02.797Z</time>
      </trkpt>
      <trkpt lat="61.82671" lon="5.43033">
        <ele>427.394674</ele>
        <time>2020-07-29T08:50:05.806Z</time>
      </trkpt>
      <trkpt lat="61.82674" lon="5.43053">
        <ele>427.355525</ele>
        <time>2020-07-29T08:50:08.782Z</time>
      </trkpt>
      <trkpt lat="61.82679" lon="5.43074">
        <ele>427.313452</ele>
        <time>2020-07-29T08:50:11.792Z</time>
      </trkpt>
      <trkpt lat="61.82683" lon="5.43094">
        <ele>427.274181</ele>
        <time>2020-07-29T08:50:14.783Z</time>
      </trkpt>
      <trkpt lat="61.82687" lon="5.43114">
        <ele>427.233585</ele>
        <time>2020-07-29T08:50:17.795Z</time>
      </trkpt>
      <trkpt lat="61.82691" lon="5.43135">
        <ele>427.192577</ele>
        <time>2020-07-29T08:50:20.791Z</time>
      </trkpt>
      <trkpt lat="61.82695" lon="5.43159">
        <ele>427.145828</ele>
        <time>2020-07-29T08:50:23.797Z</time>
      </trkpt>
      <trkpt lat="61.827" lon="5.43182">
        <ele>427.118882</ele>
        <time>2020-07-29T08:50:26.803Z</time>
      </trkpt>
      <trkpt lat="61.82704" lon="5.43208">
        <ele>427.154355</ele>
        <time>2020-07-29T08:50:29.809Z</time>
      </trkpt>
      <trkpt lat="61.82708" lon="5.43227">
        <ele>427.180302</ele>
        <time>2020-07-29T08:50:31.836Z</time>
      </trkpt>
      <trkpt lat="61.82711" lon="5.43246">
        <ele>427.205382</ele>
        <time>2020-07-29T08:50:33.803Z</time>
      </trkpt>
      <trkpt lat="61.82714" lon="5.43265">
        <ele>427.231687</ele>
        <time>2020-07-29T08:50:35.814Z</time>
      </trkpt>
      <trkpt lat="61.82718" lon="5.43286">
        <ele>427.259418</ele>
        <time>2020-07-29T08:50:37.788Z</time>
      </trkpt>
      <trkpt lat="61.82722" lon="5.43306">
        <ele>427.288357</ele>
        <time>2020-07-29T08:50:39.789Z</time>
      </trkpt>
      <trkpt lat="61.82727" lon="5.43327">
        <ele>427.317415</ele>
        <time>2020-07-29T08:50:41.806Z</time>
      </trkpt>
      <trkpt lat="61.82731" lon="5.43347">
        <ele>427.345204</ele>
        <time>2020-07-29T08:50:43.813Z</time>
      </trkpt>
      <trkpt lat="61.82736" lon="5.43366">
        <ele>427.371961</ele>
        <time>2020-07-29T08:50:45.793Z</time>
      </trkpt>
      <trkpt lat="61.8274" lon="5.43387">
        <ele>427.400805</ele>
        <time>2020-07-29T08:50:47.797Z</time>
      </trkpt>
      <trkpt lat="61.82744" lon="5.43408">
        <ele>427.429343</ele>
        <time>2020-07-29T08:50:49.795Z</time>
      </trkpt>
      <trkpt lat="61.82747" lon="5.4343">
        <ele>427.45903</ele>
        <time>2020-07-29T08:50:51.807Z</time>
      </trkpt>
      <trkpt lat="61.82751" lon="5.43452">
        <ele>427.488993</ele>
        <time>2020-07-29T08:50:53.806Z</time>
      </trkpt>
      <trkpt lat="61.82755" lon="5.43474">
        <ele>427.5188</ele>
        <time>2020-07-29T08:50:55.800Z</time>
      </trkpt>
      <trkpt lat="61.82759" lon="5.43497">
        <ele>427.549524</ele>
        <time>2020-07-29T08:50:57.831Z</time>
      </trkpt>
      <trkpt lat="61.82763" lon="5.4352">
        <ele>427.581314</ele>
        <time>2020-07-29T08:50:59.782Z</time>
      </trkpt>
      <trkpt lat="61.82767" lon="5.43542">
        <ele>427.528</ele>
        <time>2020-07-29T08:51:01.788Z</time>
      </trkpt>
      <trkpt lat="61.82772" lon="5.43563">
        <ele>427.409711</ele>
        <time>2020-07-29T08:51:03.799Z</time>
      </trkpt>
      <trkpt lat="61.82776" lon="5.43583">
        <ele>427.297633</ele>
        <time>2020-07-29T08:51:05.792Z</time>
      </trkpt>
      <trkpt lat="61.8278" lon="5.43602">
        <ele>427.189711</ele>
        <time>2020-07-29T08:51:07.785Z</time>
      </trkpt>
      <trkpt lat="61.82784" lon="5.43621">
        <ele>427.084629</ele>
        <time>2020-07-29T08:51:09.827Z</time>
      </trkpt>
      <trkpt lat="61.82788" lon="5.43638">
        <ele>426.985143</ele>
        <time>2020-07-29T08:51:11.781Z</time>
      </trkpt>
      <trkpt lat="61.82792" lon="5.43657">
        <ele>426.875304</ele>
        <time>2020-07-29T08:51:13.788Z</time>
      </trkpt>
      <trkpt lat="61.82797" lon="5.43676">
        <ele>426.764596</ele>
        <time>2020-07-29T08:51:15.793Z</time>
      </trkpt>
      <trkpt lat="61.82801" lon="5.43694">
        <ele>426.659071</ele>
        <time>2020-07-29T08:51:17.804Z</time>
      </trkpt>
      <trkpt lat="61.82805" lon="5.43712">
        <ele>426.557735</ele>
        <time>2020-07-29T08:51:19.816Z</time>
      </trkpt>
      <trkpt lat="61.82809" lon="5.4373">
        <ele>426.458274</ele>
        <time>2020-07-29T08:51:21.775Z</time>
      </trkpt>
      <trkpt lat="61.82813" lon="5.43746">
        <ele>426.359078</ele>
        <time>2020-07-29T08:51:23.824Z</time>
      </trkpt>
      <trkpt lat="61.82818" lon="5.43765">
        <ele>426.253458</ele>
        <time>2020-07-29T08:51:25.807Z</time>
      </trkpt>
      <trkpt lat="61.82822" lon="5.43784">
        <ele>426.1442</ele>
        <time>2020-07-29T08:51:27.786Z</time>
      </trkpt>
      <trkpt lat="61.82826" lon="5.43803">
        <ele>426.034468</ele>
        <time>2020-07-29T08:51:29.819Z</time>
      </trkpt>
      <trkpt lat="61.82832" lon="5.43822">
        <ele>425.918835</ele>
        <time>2020-07-29T08:51:31.806Z</time>
      </trkpt>
      <trkpt lat="61.82837" lon="5.43842">
        <ele>425.800947</ele>
        <time>2020-07-29T08:51:33.803Z</time>
      </trkpt>
      <trkpt lat="61.82843" lon="5.43865">
        <ele>425.665989</ele>
        <time>2020-07-29T08:51:35.788Z</time>
      </trkpt>
      <trkpt lat="61.82849" lon="5.43889">
        <ele>425.469598</ele>
        <time>2020-07-29T08:51:37.796Z</time>
      </trkpt>
      <trkpt lat="61.82857" lon="5.43916">
        <ele>425.23344</ele>
        <time>2020-07-29T08:51:39.800Z</time>
      </trkpt>
      <trkpt lat="61.82864" lon="5.43942">
        <ele>425.001269</ele>
        <time>2020-07-29T08:51:41.868Z</time>
      </trkpt>
      <trkpt lat="61.82871" lon="5.43968">
        <ele>424.767935</ele>
        <time>2020-07-29T08:51:43.797Z</time>
      </trkpt>
      <trkpt lat="61.82878" lon="5.43994">
        <ele>424.534563</ele>
        <time>2020-07-29T08:51:45.796Z</time>
      </trkpt>
      <trkpt lat="61.82885" lon="5.44021">
        <ele>424.303025</ele>
        <time>2020-07-29T08:51:47.791Z</time>
      </trkpt>
      <trkpt lat="61.82891" lon="5.44048">
        <ele>424.070167</ele>
        <time>2020-07-29T08:51:49.792Z</time>
      </trkpt>
      <trkpt lat="61.82898" lon="5.44073">
        <ele>423.846219</ele>
        <time>2020-07-29T08:51:51.801Z</time>
      </trkpt>
      <trkpt lat="61.82904" lon="5.44095">
        <ele>423.649218</ele>
        <time>2020-07-29T08:51:53.806Z</time>
      </trkpt>
      <trkpt lat="61.82909" lon="5.44116">
        <ele>423.466143</ele>
        <time>2020-07-29T08:51:55.790Z</time>
      </trkpt>
      <trkpt lat="61.82914" lon="5.44134">
        <ele>423.304791</ele>
        <time>2020-07-29T08:51:57.830Z</time>
      </trkpt>
      <trkpt lat="61.8292" lon="5.4416">
        <ele>423.088729</ele>
        <time>2020-07-29T08:52:00.805Z</time>
      </trkpt>
      <trkpt lat="61.82925" lon="5.44185">
        <ele>422.878212</ele>
        <time>2020-07-29T08:52:03.796Z</time>
      </trkpt>
      <trkpt lat="61.8293" lon="5.44201">
        <ele>422.726448</ele>
        <time>2020-07-29T08:52:05.822Z</time>
      </trkpt>
      <trkpt lat="61.82936" lon="5.44222">
        <ele>423.437919</ele>
        <time>2020-07-29T08:52:08.852Z</time>
      </trkpt>
      <trkpt lat="61.82941" lon="5.44243">
        <ele>424.288767</ele>
        <time>2020-07-29T08:52:11.812Z</time>
      </trkpt>
      <trkpt lat="61.82946" lon="5.44263">
        <ele>425.142289</ele>
        <time>2020-07-29T08:52:14.805Z</time>
      </trkpt>
      <trkpt lat="61.8295" lon="5.44284">
        <ele>425.955853</ele>
        <time>2020-07-29T08:52:17.807Z</time>
      </trkpt>
      <trkpt lat="61.82953" lon="5.44305">
        <ele>426.758083</ele>
        <time>2020-07-29T08:52:20.807Z</time>
      </trkpt>
      <trkpt lat="61.82955" lon="5.44324">
        <ele>427.479198</ele>
        <time>2020-07-29T08:52:23.787Z</time>
      </trkpt>
      <trkpt lat="61.82957" lon="5.44346">
        <ele>428.336955</ele>
        <time>2020-07-29T08:52:27.810Z</time>
      </trkpt>
      <trkpt lat="61.8296" lon="5.4437">
        <ele>429.233986</ele>
        <time>2020-07-29T08:52:31.805Z</time>
      </trkpt>
      <trkpt lat="61.82962" lon="5.44392">
        <ele>430.057677</ele>
        <time>2020-07-29T08:52:35.807Z</time>
      </trkpt>
      <trkpt lat="61.82963" lon="5.44414">
        <ele>430.860272</ele>
        <time>2020-07-29T08:52:39.804Z</time>
      </trkpt>
      <trkpt lat="61.82965" lon="5.44435">
        <ele>431.67313</ele>
        <time>2020-07-29T08:52:44.789Z</time>
      </trkpt>
      <trkpt lat="61.82967" lon="5.44458">
        <ele>432.50864</ele>
        <time>2020-07-29T08:52:49.793Z</time>
      </trkpt>
      <trkpt lat="61.82969" lon="5.44477">
        <ele>433.2392</ele>
        <time>2020-07-29T08:52:54.795Z</time>
      </trkpt>
      <trkpt lat="61.82971" lon="5.44499">
        <ele>434.052373</ele>
        <time>2020-07-29T08:52:59.800Z</time>
      </trkpt>
      <trkpt lat="61.8297" lon="5.4452">
        <ele>434.833261</ele>
        <time>2020-07-29T08:53:04.805Z</time>
      </trkpt>
      <trkpt lat="61.8297" lon="5.4454">
        <ele>435.566791</ele>
        <time>2020-07-29T08:53:09.810Z</time>
      </trkpt>
      <trkpt lat="61.82972" lon="5.44559">
        <ele>436.296815</ele>
        <time>2020-07-29T08:53:14.799Z</time>
      </trkpt>
      <trkpt lat="61.82974" lon="5.44578">
        <ele>436.853002</ele>
        <time>2020-07-29T08:53:19.838Z</time>
      </trkpt>
      <trkpt lat="61.82976" lon="5.44599">
        <ele>437.188194</ele>
        <time>2020-07-29T08:53:25.854Z</time>
      </trkpt>
      <trkpt lat="61.8298" lon="5.44617">
        <ele>437.502442</ele>
        <time>2020-07-29T08:53:31.793Z</time>
      </trkpt>
      <trkpt lat="61.82983" lon="5.44638">
        <ele>437.853715</ele>
        <time>2020-07-29T08:53:37.813Z</time>
      </trkpt>
      <trkpt lat="61.82987" lon="5.44658">
        <ele>438.193418</ele>
        <time>2020-07-29T08:53:43.803Z</time>
      </trkpt>
      <trkpt lat="61.82992" lon="5.44675">
        <ele>438.504683</ele>
        <time>2020-07-29T08:53:48.803Z</time>
      </trkpt>
      <trkpt lat="61.82995" lon="5.44696">
        <ele>438.856876</ele>
        <time>2020-07-29T08:53:54.794Z</time>
      </trkpt>
      <trkpt lat="61.82997" lon="5.44716">
        <ele>439.171113</ele>
        <time>2020-07-29T08:54:00.792Z</time>
      </trkpt>
      <trkpt lat="61.83003" lon="5.44731">
        <ele>439.482347</ele>
        <time>2020-07-29T08:54:06.804Z</time>
      </trkpt>
      <trkpt lat="61.83007" lon="5.44751">
        <ele>439.815919</ele>
        <time>2020-07-29T08:54:12.784Z</time>
      </trkpt>
      <trkpt lat="61.83011" lon="5.4477">
        <ele>440.138391</ele>
        <time>2020-07-29T08:54:18.791Z</time>
      </trkpt>
      <trkpt lat="61.83014" lon="5.44788">
        <ele>440.452577</ele>
        <time>2020-07-29T08:54:23.796Z</time>
      </trkpt>
      <trkpt lat="61.83019" lon="5.44807">
        <ele>440.784509</ele>
        <time>2020-07-29T08:54:29.786Z</time>
      </trkpt>
      <trkpt lat="61.83023" lon="5.44823">
        <ele>441.090923</ele>
        <time>2020-07-29T08:54:35.790Z</time>
      </trkpt>
      <trkpt lat="61.83027" lon="5.44842">
        <ele>441.409545</ele>
        <time>2020-07-29T08:54:41.791Z</time>
      </trkpt>
      <trkpt lat="61.83031" lon="5.4486">
        <ele>441.717778</ele>
        <time>2020-07-29T08:54:47.794Z</time>
      </trkpt>
      <trkpt lat="61.83036" lon="5.4488">
        <ele>442.08078</ele>
        <time>2020-07-29T08:54:53.789Z</time>
      </trkpt>
      <trkpt lat="61.83041" lon="5.44897">
        <ele>442.393686</ele>
        <time>2020-07-29T08:54:58.801Z</time>
      </trkpt>
      <trkpt lat="61.83045" lon="5.44917">
        <ele>442.744661</ele>
        <time>2020-07-29T08:55:03.818Z</time>
      </trkpt>
      <trkpt lat="61.83048" lon="5.44936">
        <ele>442.686939</ele>
        <time>2020-07-29T08:55:07.773Z</time>
      </trkpt>
      <trkpt lat="61.83051" lon="5.44955">
        <ele>442.629197</ele>
        <time>2020-07-29T08:55:11.805Z</time>
      </trkpt>
      <trkpt lat="61.83053" lon="5.44977">
        <ele>442.562676</ele>
        <time>2020-07-29T08:55:15.793Z</time>
      </trkpt>
      <trkpt lat="61.83056" lon="5.45">
        <ele>442.491102</ele>
        <time>2020-07-29T08:55:19.802Z</time>
      </trkpt>
      <trkpt lat="61.83059" lon="5.45019">
        <ele>442.4332</ele>
        <time>2020-07-29T08:55:22.799Z</time>
      </trkpt>
      <trkpt lat="61.83061" lon="5.4504">
        <ele>442.36924</ele>
        <time>2020-07-29T08:55:25.809Z</time>
      </trkpt>
      <trkpt lat="61.83064" lon="5.45062">
        <ele>442.299819</ele>
        <time>2020-07-29T08:55:28.811Z</time>
      </trkpt>
      <trkpt lat="61.83067" lon="5.45086">
        <ele>442.226445</ele>
        <time>2020-07-29T08:55:31.796Z</time>
      </trkpt>
      <trkpt lat="61.8307" lon="5.45111">
        <ele>442.151294</ele>
        <time>2020-07-29T08:55:34.784Z</time>
      </trkpt>
      <trkpt lat="61.83072" lon="5.45134">
        <ele>442.081408</ele>
        <time>2020-07-29T08:55:37.788Z</time>
      </trkpt>
      <trkpt lat="61.83075" lon="5.45158">
        <ele>442.00883</ele>
        <time>2020-07-29T08:55:40.792Z</time>
      </trkpt>
      <trkpt lat="61.83077" lon="5.45183">
        <ele>441.933645</ele>
        <time>2020-07-29T08:55:43.795Z</time>
      </trkpt>
      <trkpt lat="61.83079" lon="5.45209">
        <ele>441.856259</ele>
        <time>2020-07-29T08:55:46.792Z</time>
      </trkpt>
      <trkpt lat="61.83083" lon="5.45236">
        <ele>441.770691</ele>
        <time>2020-07-29T08:55:49.784Z</time>
      </trkpt>
      <trkpt lat="61.83086" lon="5.45257">
        <ele>441.707035</ele>
        <time>2020-07-29T08:55:51.837Z</time>
      </trkpt>
      <trkpt lat="61.83089" lon="5.45278">
        <ele>441.642304</ele>
        <time>2020-07-29T08:55:53.783Z</time>
      </trkpt>
      <trkpt lat="61.83092" lon="5.45298">
        <ele>441.483982</ele>
        <time>2020-07-29T08:55:55.825Z</time>
      </trkpt>
      <trkpt lat="61.83096" lon="5.45324">
        <ele>441.188745</ele>
        <time>2020-07-29T08:55:58.802Z</time>
      </trkpt>
      <trkpt lat="61.83098" lon="5.45342">
        <ele>440.984392</ele>
        <time>2020-07-29T08:56:00.773Z</time>
      </trkpt>
      <trkpt lat="61.83101" lon="5.45361">
        <ele>440.780212</ele>
        <time>2020-07-29T08:56:02.811Z</time>
      </trkpt>
      <trkpt lat="61.83104" lon="5.45388">
        <ele>440.481799</ele>
        <time>2020-07-29T08:56:05.788Z</time>
      </trkpt>
      <trkpt lat="61.83107" lon="5.45406">
        <ele>440.272018</ele>
        <time>2020-07-29T08:56:07.789Z</time>
      </trkpt>
      <trkpt lat="61.83111" lon="5.45427">
        <ele>440.041575</ele>
        <time>2020-07-29T08:56:09.791Z</time>
      </trkpt>
      <trkpt lat="61.83115" lon="5.45447">
        <ele>439.804045</ele>
        <time>2020-07-29T08:56:11.796Z</time>
      </trkpt>
      <trkpt lat="61.8312" lon="5.45466">
        <ele>439.572267</ele>
        <time>2020-07-29T08:56:13.808Z</time>
      </trkpt>
      <trkpt lat="61.83125" lon="5.45488">
        <ele>439.304427</ele>
        <time>2020-07-29T08:56:15.826Z</time>
      </trkpt>
      <trkpt lat="61.83132" lon="5.4551">
        <ele>439.036163</ele>
        <time>2020-07-29T08:56:17.808Z</time>
      </trkpt>
      <trkpt lat="61.83138" lon="5.4553">
        <ele>438.774849</ele>
        <time>2020-07-29T08:56:19.813Z</time>
      </trkpt>
      <trkpt lat="61.83145" lon="5.45553">
        <ele>438.482086</ele>
        <time>2020-07-29T08:56:21.810Z</time>
      </trkpt>
      <trkpt lat="61.83153" lon="5.45575">
        <ele>438.182432</ele>
        <time>2020-07-29T08:56:23.794Z</time>
      </trkpt>
      <trkpt lat="61.83162" lon="5.456">
        <ele>437.844122</ele>
        <time>2020-07-29T08:56:25.805Z</time>
      </trkpt>
      <trkpt lat="61.83173" lon="5.45628">
        <ele>437.338152</ele>
        <time>2020-07-29T08:56:27.809Z</time>
      </trkpt>
      <trkpt lat="61.83182" lon="5.45659">
        <ele>436.338801</ele>
        <time>2020-07-29T08:56:29.792Z</time>
      </trkpt>
      <trkpt lat="61.83188" lon="5.45676">
        <ele>435.788882</ele>
        <time>2020-07-29T08:56:30.815Z</time>
      </trkpt>
      <trkpt lat="61.83193" lon="5.45694">
        <ele>435.200711</ele>
        <time>2020-07-29T08:56:31.836Z</time>
      </trkpt>
      <trkpt lat="61.83199" lon="5.45712">
        <ele>434.61775</ele>
        <time>2020-07-29T08:56:32.804Z</time>
      </trkpt>
      <trkpt lat="61.83204" lon="5.4573">
        <ele>434.051022</ele>
        <time>2020-07-29T08:56:33.790Z</time>
      </trkpt>
      <trkpt lat="61.8321" lon="5.45748">
        <ele>433.455832</ele>
        <time>2020-07-29T08:56:34.845Z</time>
      </trkpt>
      <trkpt lat="61.83215" lon="5.45766">
        <ele>432.849741</ele>
        <time>2020-07-29T08:56:35.788Z</time>
      </trkpt>
      <trkpt lat="61.83222" lon="5.45784">
        <ele>432.254812</ele>
        <time>2020-07-29T08:56:36.782Z</time>
      </trkpt>
      <trkpt lat="61.83228" lon="5.45802">
        <ele>431.642489</ele>
        <time>2020-07-29T08:56:37.815Z</time>
      </trkpt>
      <trkpt lat="61.83235" lon="5.45819">
        <ele>431.035855</ele>
        <time>2020-07-29T08:56:38.808Z</time>
      </trkpt>
      <trkpt lat="61.83241" lon="5.45837">
        <ele>430.421939</ele>
        <time>2020-07-29T08:56:39.812Z</time>
      </trkpt>
      <trkpt lat="61.83247" lon="5.45856">
        <ele>429.804881</ele>
        <time>2020-07-29T08:56:40.791Z</time>
      </trkpt>
      <trkpt lat="61.83254" lon="5.45876">
        <ele>429.148956</ele>
        <time>2020-07-29T08:56:41.810Z</time>
      </trkpt>
      <trkpt lat="61.8326" lon="5.45897">
        <ele>428.486514</ele>
        <time>2020-07-29T08:56:42.800Z</time>
      </trkpt>
      <trkpt lat="61.83265" lon="5.45918">
        <ele>427.827785</ele>
        <time>2020-07-29T08:56:43.809Z</time>
      </trkpt>
      <trkpt lat="61.8327" lon="5.4594">
        <ele>427.181361</ele>
        <time>2020-07-29T08:56:44.788Z</time>
      </trkpt>
      <trkpt lat="61.83275" lon="5.45964">
        <ele>426.833006</ele>
        <time>2020-07-29T08:56:45.817Z</time>
      </trkpt>
      <trkpt lat="61.83278" lon="5.45987">
        <ele>426.491099</ele>
        <time>2020-07-29T08:56:46.787Z</time>
      </trkpt>
      <trkpt lat="61.83281" lon="5.46011">
        <ele>426.157294</ele>
        <time>2020-07-29T08:56:47.800Z</time>
      </trkpt>
      <trkpt lat="61.83284" lon="5.46034">
        <ele>425.830411</ele>
        <time>2020-07-29T08:56:48.798Z</time>
      </trkpt>
      <trkpt lat="61.83286" lon="5.46056">
        <ele>425.51548</ele>
        <time>2020-07-29T08:56:49.799Z</time>
      </trkpt>
      <trkpt lat="61.83289" lon="5.46078">
        <ele>425.207364</ele>
        <time>2020-07-29T08:56:50.794Z</time>
      </trkpt>
      <trkpt lat="61.83291" lon="5.46098">
        <ele>424.91544</ele>
        <time>2020-07-29T08:56:51.797Z</time>
      </trkpt>
      <trkpt lat="61.83293" lon="5.46117">
        <ele>424.639675</ele>
        <time>2020-07-29T08:56:52.817Z</time>
      </trkpt>
      <trkpt lat="61.83298" lon="5.46153">
        <ele>424.137728</ele>
        <time>2020-07-29T08:56:54.807Z</time>
      </trkpt>
      <trkpt lat="61.83302" lon="5.46185">
        <ele>423.676189</ele>
        <time>2020-07-29T08:56:56.827Z</time>
      </trkpt>
      <trkpt lat="61.83306" lon="5.46214">
        <ele>423.262587</ele>
        <time>2020-07-29T08:56:58.797Z</time>
      </trkpt>
      <trkpt lat="61.83309" lon="5.4624">
        <ele>422.886582</ele>
        <time>2020-07-29T08:57:00.787Z</time>
      </trkpt>
      <trkpt lat="61.83311" lon="5.46266">
        <ele>422.520604</ele>
        <time>2020-07-29T08:57:02.798Z</time>
      </trkpt>
      <trkpt lat="61.83314" lon="5.46288">
        <ele>422.207149</ele>
        <time>2020-07-29T08:57:04.790Z</time>
      </trkpt>
      <trkpt lat="61.83317" lon="5.46314">
        <ele>421.903377</ele>
        <time>2020-07-29T08:57:07.791Z</time>
      </trkpt>
      <trkpt lat="61.8332" lon="5.46338">
        <ele>421.781852</ele>
        <time>2020-07-29T08:57:10.779Z</time>
      </trkpt>
      <trkpt lat="61.83322" lon="5.46365">
        <ele>421.645856</ele>
        <time>2020-07-29T08:57:13.809Z</time>
      </trkpt>
      <trkpt lat="61.83324" lon="5.46384">
        <ele>421.544691</ele>
        <time>2020-07-29T08:57:15.795Z</time>
      </trkpt>
      <trkpt lat="61.83326" lon="5.46404">
        <ele>421.44547</ele>
        <time>2020-07-29T08:57:17.810Z</time>
      </trkpt>
      <trkpt lat="61.83329" lon="5.46424">
        <ele>421.340125</ele>
        <time>2020-07-29T08:57:19.801Z</time>
      </trkpt>
      <trkpt lat="61.83332" lon="5.46447">
        <ele>421.225389</ele>
        <time>2020-07-29T08:57:21.817Z</time>
      </trkpt>
      <trkpt lat="61.83336" lon="5.46471">
        <ele>421.096252</ele>
        <time>2020-07-29T08:57:23.793Z</time>
      </trkpt>
      <trkpt lat="61.83341" lon="5.46497">
        <ele>420.956764</ele>
        <time>2020-07-29T08:57:25.813Z</time>
      </trkpt>
      <trkpt lat="61.83346" lon="5.46524">
        <ele>420.81085</ele>
        <time>2020-07-29T08:57:27.789Z</time>
      </trkpt>
      <trkpt lat="61.83351" lon="5.46552">
        <ele>420.664376</ele>
        <time>2020-07-29T08:57:29.796Z</time>
      </trkpt>
      <trkpt lat="61.83355" lon="5.46582">
        <ele>420.512169</ele>
        <time>2020-07-29T08:57:31.838Z</time>
      </trkpt>
      <trkpt lat="61.83356" lon="5.46612">
        <ele>420.35891</ele>
        <time>2020-07-29T08:57:33.807Z</time>
      </trkpt>
      <trkpt lat="61.83355" lon="5.46643">
        <ele>420.204643</ele>
        <time>2020-07-29T08:57:35.802Z</time>
      </trkpt>
      <trkpt lat="61.83353" lon="5.46672">
        <ele>420.058599</ele>
        <time>2020-07-29T08:57:37.796Z</time>
      </trkpt>
      <trkpt lat="61.83351" lon="5.46699">
        <ele>420.104967</ele>
        <time>2020-07-29T08:57:39.778Z</time>
      </trkpt>
      <trkpt lat="61.83349" lon="5.46722">
        <ele>420.160124</ele>
        <time>2020-07-29T08:57:41.809Z</time>
      </trkpt>
      <trkpt lat="61.83348" lon="5.46744">
        <ele>420.211461</ele>
        <time>2020-07-29T08:57:43.805Z</time>
      </trkpt>
      <trkpt lat="61.83346" lon="5.46762">
        <ele>420.256198</ele>
        <time>2020-07-29T08:57:45.791Z</time>
      </trkpt>
      <trkpt lat="61.83343" lon="5.46787">
        <ele>420.315951</ele>
        <time>2020-07-29T08:57:48.820Z</time>
      </trkpt>
      <trkpt lat="61.83342" lon="5.46809">
        <ele>420.367875</ele>
        <time>2020-07-29T08:57:51.795Z</time>
      </trkpt>
      <trkpt lat="61.83343" lon="5.4683">
        <ele>420.415394</ele>
        <time>2020-07-29T08:57:54.797Z</time>
      </trkpt>
      <trkpt lat="61.83344" lon="5.46849">
        <ele>420.460164</ele>
        <time>2020-07-29T08:57:57.788Z</time>
      </trkpt>
      <trkpt lat="61.83345" lon="5.46869">
        <ele>420.508377</ele>
        <time>2020-07-29T08:58:00.788Z</time>
      </trkpt>
      <trkpt lat="61.83345" lon="5.46894">
        <ele>420.566147</ele>
        <time>2020-07-29T08:58:04.807Z</time>
      </trkpt>
      <trkpt lat="61.83347" lon="5.46916">
        <ele>420.618207</ele>
        <time>2020-07-29T08:58:07.820Z</time>
      </trkpt>
      <trkpt lat="61.83348" lon="5.4694">
        <ele>420.674967</ele>
        <time>2020-07-29T08:58:10.787Z</time>
      </trkpt>
      <trkpt lat="61.8335" lon="5.46966">
        <ele>420.73565</ele>
        <time>2020-07-29T08:58:13.787Z</time>
      </trkpt>
      <trkpt lat="61.8335" lon="5.46991">
        <ele>420.795857</ele>
        <time>2020-07-29T08:58:16.798Z</time>
      </trkpt>
      <trkpt lat="61.83351" lon="5.47016">
        <ele>420.854846</ele>
        <time>2020-07-29T08:58:19.803Z</time>
      </trkpt>
      <trkpt lat="61.83352" lon="5.47041">
        <ele>420.91275</ele>
        <time>2020-07-29T08:58:22.793Z</time>
      </trkpt>
      <trkpt lat="61.83352" lon="5.47066">
        <ele>420.738318</ele>
        <time>2020-07-29T08:58:25.836Z</time>
      </trkpt>
      <trkpt lat="61.83353" lon="5.47094">
        <ele>420.336805</ele>
        <time>2020-07-29T08:58:28.792Z</time>
      </trkpt>
      <trkpt lat="61.83354" lon="5.47114">
        <ele>420.046553</ele>
        <time>2020-07-29T08:58:30.785Z</time>
      </trkpt>
      <trkpt lat="61.83355" lon="5.47134">
        <ele>419.756156</ele>
        <time>2020-07-29T08:58:32.802Z</time>
      </trkpt>
      <trkpt lat="61.83356" lon="5.47154">
        <ele>419.457974</ele>
        <time>2020-07-29T08:58:34.796Z</time>
      </trkpt>
      <trkpt lat="61.83357" lon="5.47177">
        <ele>419.132143</ele>
        <time>2020-07-29T08:58:36.815Z</time>
      </trkpt>
      <trkpt lat="61.83359" lon="5.47201">
        <ele>418.781489</ele>
        <time>2020-07-29T08:58:38.809Z</time>
      </trkpt>
      <trkpt lat="61.83361" lon="5.47226">
        <ele>418.413206</ele>
        <time>2020-07-29T08:58:40.809Z</time>
      </trkpt>
      <trkpt lat="61.83362" lon="5.47253">
        <ele>418.014397</ele>
        <time>2020-07-29T08:58:42.790Z</time>
      </trkpt>
      <trkpt lat="61.83364" lon="5.47282">
        <ele>417.592316</ele>
        <time>2020-07-29T08:58:44.808Z</time>
      </trkpt>
      <trkpt lat="61.83366" lon="5.47312">
        <ele>417.145448</ele>
        <time>2020-07-29T08:58:46.834Z</time>
      </trkpt>
      <trkpt lat="61.83367" lon="5.47343">
        <ele>416.695177</ele>
        <time>2020-07-29T08:58:48.791Z</time>
      </trkpt>
      <trkpt lat="61.83369" lon="5.47375">
        <ele>416.242023</ele>
        <time>2020-07-29T08:58:50.795Z</time>
      </trkpt>
      <trkpt lat="61.83371" lon="5.47407">
        <ele>415.772734</ele>
        <time>2020-07-29T08:58:52.810Z</time>
      </trkpt>
      <trkpt lat="61.83373" lon="5.47441">
        <ele>415.37328</ele>
        <time>2020-07-29T08:58:54.796Z</time>
      </trkpt>
      <trkpt lat="61.83374" lon="5.47476">
        <ele>415.19491</ele>
        <time>2020-07-29T08:58:56.798Z</time>
      </trkpt>
      <trkpt lat="61.83374" lon="5.47512">
        <ele>415.006432</ele>
        <time>2020-07-29T08:58:58.832Z</time>
      </trkpt>
      <trkpt lat="61.83372" lon="5.47549">
        <ele>414.81779</ele>
        <time>2020-07-29T08:59:00.800Z</time>
      </trkpt>
      <trkpt lat="61.83369" lon="5.47586">
        <ele>414.623701</ele>
        <time>2020-07-29T08:59:02.792Z</time>
      </trkpt>
      <trkpt lat="61.83366" lon="5.47621">
        <ele>414.443219</ele>
        <time>2020-07-29T08:59:04.795Z</time>
      </trkpt>
      <trkpt lat="61.83364" lon="5.4765">
        <ele>414.295317</ele>
        <time>2020-07-29T08:59:06.787Z</time>
      </trkpt>
      <trkpt lat="61.83362" lon="5.47675">
        <ele>414.163167</ele>
        <time>2020-07-29T08:59:08.794Z</time>
      </trkpt>
      <trkpt lat="61.83359" lon="5.47695">
        <ele>414.055947</ele>
        <time>2020-07-29T08:59:10.787Z</time>
      </trkpt>
      <trkpt lat="61.83356" lon="5.47717">
        <ele>413.939526</ele>
        <time>2020-07-29T08:59:13.806Z</time>
      </trkpt>
      <trkpt lat="61.83351" lon="5.47738">
        <ele>413.81958</ele>
        <time>2020-07-29T08:59:17.796Z</time>
      </trkpt>
      <trkpt lat="61.83348" lon="5.47756">
        <ele>413.719269</ele>
        <time>2020-07-29T08:59:21.785Z</time>
      </trkpt>
      <trkpt lat="61.83344" lon="5.47776">
        <ele>413.609448</ele>
        <time>2020-07-29T08:59:26.795Z</time>
      </trkpt>
      <trkpt lat="61.8334" lon="5.47796">
        <ele>413.496414</ele>
        <time>2020-07-29T08:59:32.787Z</time>
      </trkpt>
      <trkpt lat="61.83335" lon="5.47817">
        <ele>413.984658</ele>
        <time>2020-07-29T08:59:37.796Z</time>
      </trkpt>
      <trkpt lat="61.83332" lon="5.47837">
        <ele>414.5594</ele>
        <time>2020-07-29T08:59:43.792Z</time>
      </trkpt>
      <trkpt lat="61.83326" lon="5.47855">
        <ele>415.146756</ele>
        <time>2020-07-29T08:59:50.790Z</time>
      </trkpt>
      <trkpt lat="61.83324" lon="5.47874">
        <ele>415.669228</ele>
        <time>2020-07-29T08:59:57.796Z</time>
      </trkpt>
      <trkpt lat="61.83321" lon="5.47893">
        <ele>416.229005</ele>
        <time>2020-07-29T09:00:04.798Z</time>
      </trkpt>
      <trkpt lat="61.83318" lon="5.47913">
        <ele>416.812156</ele>
        <time>2020-07-29T09:00:11.795Z</time>
      </trkpt>
      <trkpt lat="61.83314" lon="5.47933">
        <ele>417.387364</ele>
        <time>2020-07-29T09:00:18.794Z</time>
      </trkpt>
      <trkpt lat="61.8331" lon="5.47952">
        <ele>417.964226</ele>
        <time>2020-07-29T09:00:24.805Z</time>
      </trkpt>
      <trkpt lat="61.83307" lon="5.47974">
        <ele>418.575142</ele>
        <time>2020-07-29T09:00:29.817Z</time>
      </trkpt>
      <trkpt lat="61.83304" lon="5.47992">
        <ele>419.096883</ele>
        <time>2020-07-29T09:00:34.796Z</time>
      </trkpt>
      <trkpt lat="61.833" lon="5.48012">
        <ele>419.710468</ele>
        <time>2020-07-29T09:00:39.812Z</time>
      </trkpt>
      <trkpt lat="61.83296" lon="5.48032">
        <ele>420.3068</ele>
        <time>2020-07-29T09:00:44.783Z</time>
      </trkpt>
      <trkpt lat="61.8329" lon="5.48053">
        <ele>420.948167</ele>
        <time>2020-07-29T09:00:49.790Z</time>
      </trkpt>
      <trkpt lat="61.83287" lon="5.48072">
        <ele>421.50823</ele>
        <time>2020-07-29T09:00:53.798Z</time>
      </trkpt>
      <trkpt lat="61.83284" lon="5.48095">
        <ele>422.144924</ele>
        <time>2020-07-29T09:00:57.843Z</time>
      </trkpt>
      <trkpt lat="61.83281" lon="5.48114">
        <ele>422.699154</ele>
        <time>2020-07-29T09:01:00.792Z</time>
      </trkpt>
      <trkpt lat="61.83276" lon="5.48136">
        <ele>423.345812</ele>
        <time>2020-07-29T09:01:03.808Z</time>
      </trkpt>
      <trkpt lat="61.83271" lon="5.4816">
        <ele>423.695389</ele>
        <time>2020-07-29T09:01:06.794Z</time>
      </trkpt>
      <trkpt lat="61.83266" lon="5.48177">
        <ele>423.312944</ele>
        <time>2020-07-29T09:01:08.832Z</time>
      </trkpt>
      <trkpt lat="61.8326" lon="5.48197">
        <ele>422.87365</ele>
        <time>2020-07-29T09:01:10.809Z</time>
      </trkpt>
      <trkpt lat="61.83257" lon="5.48217">
        <ele>422.44842</ele>
        <time>2020-07-29T09:01:12.798Z</time>
      </trkpt>
      <trkpt lat="61.83253" lon="5.4824">
        <ele>421.984163</ele>
        <time>2020-07-29T09:01:14.806Z</time>
      </trkpt>
      <trkpt lat="61.83247" lon="5.48267">
        <ele>421.425414</ele>
        <time>2020-07-29T09:01:16.828Z</time>
      </trkpt>
      <trkpt lat="61.83242" lon="5.48296">
        <ele>420.822573</ele>
        <time>2020-07-29T09:01:18.799Z</time>
      </trkpt>
      <trkpt lat="61.83237" lon="5.48326">
        <ele>420.210708</ele>
        <time>2020-07-29T09:01:20.805Z</time>
      </trkpt>
      <trkpt lat="61.83231" lon="5.48359">
        <ele>419.53619</ele>
        <time>2020-07-29T09:01:22.798Z</time>
      </trkpt>
      <trkpt lat="61.83225" lon="5.48395">
        <ele>418.800502</ele>
        <time>2020-07-29T09:01:24.790Z</time>
      </trkpt>
      <trkpt lat="61.83222" lon="5.48415">
        <ele>418.40595</ele>
        <time>2020-07-29T09:01:25.804Z</time>
      </trkpt>
      <trkpt lat="61.83218" lon="5.48434">
        <ele>418.001425</ele>
        <time>2020-07-29T09:01:26.800Z</time>
      </trkpt>
      <trkpt lat="61.83214" lon="5.48455">
        <ele>417.574506</ele>
        <time>2020-07-29T09:01:27.820Z</time>
      </trkpt>
      <trkpt lat="61.83209" lon="5.48476">
        <ele>417.138938</ele>
        <time>2020-07-29T09:01:28.791Z</time>
      </trkpt>
      <trkpt lat="61.83205" lon="5.48497">
        <ele>416.695805</ele>
        <time>2020-07-29T09:01:29.802Z</time>
      </trkpt>
      <trkpt lat="61.83201" lon="5.48519">
        <ele>416.067874</ele>
        <time>2020-07-29T09:01:30.799Z</time>
      </trkpt>
      <trkpt lat="61.83198" lon="5.48542">
        <ele>415.377122</ele>
        <time>2020-07-29T09:01:31.789Z</time>
      </trkpt>
      <trkpt lat="61.83194" lon="5.48563">
        <ele>414.689791</ele>
        <time>2020-07-29T09:01:32.825Z</time>
      </trkpt>
      <trkpt lat="61.8319" lon="5.48585">
        <ele>414.003037</ele>
        <time>2020-07-29T09:01:33.795Z</time>
      </trkpt>
      <trkpt lat="61.83187" lon="5.48607">
        <ele>413.327515</ele>
        <time>2020-07-29T09:01:34.782Z</time>
      </trkpt>
      <trkpt lat="61.83183" lon="5.48628">
        <ele>412.653987</ele>
        <time>2020-07-29T09:01:35.800Z</time>
      </trkpt>
      <trkpt lat="61.83179" lon="5.48649">
        <ele>412.000542</ele>
        <time>2020-07-29T09:01:36.832Z</time>
      </trkpt>
      <trkpt lat="61.83175" lon="5.48669">
        <ele>411.375971</ele>
        <time>2020-07-29T09:01:37.795Z</time>
      </trkpt>
      <trkpt lat="61.83171" lon="5.48688">
        <ele>410.767787</ele>
        <time>2020-07-29T09:01:38.779Z</time>
      </trkpt>
      <trkpt lat="61.83167" lon="5.48707">
        <ele>410.13876</ele>
        <time>2020-07-29T09:01:39.796Z</time>
      </trkpt>
      <trkpt lat="61.83163" lon="5.48727">
        <ele>409.506749</ele>
        <time>2020-07-29T09:01:40.847Z</time>
      </trkpt>
      <trkpt lat="61.8316" lon="5.48747">
        <ele>408.874737</ele>
        <time>2020-07-29T09:01:41.797Z</time>
      </trkpt>
      <trkpt lat="61.83155" lon="5.48767">
        <ele>408.235115</ele>
        <time>2020-07-29T09:01:42.778Z</time>
      </trkpt>
      <trkpt lat="61.83151" lon="5.48787">
        <ele>407.571594</ele>
        <time>2020-07-29T09:01:43.795Z</time>
      </trkpt>
      <trkpt lat="61.83147" lon="5.48808">
        <ele>406.905158</ele>
        <time>2020-07-29T09:01:44.819Z</time>
      </trkpt>
      <trkpt lat="61.83143" lon="5.48829">
        <ele>406.240379</ele>
        <time>2020-07-29T09:01:45.797Z</time>
      </trkpt>
      <trkpt lat="61.83139" lon="5.4885">
        <ele>405.586551</ele>
        <time>2020-07-29T09:01:46.796Z</time>
      </trkpt>
      <trkpt lat="61.83135" lon="5.48869">
        <ele>405.071973</ele>
        <time>2020-07-29T09:01:47.804Z</time>
      </trkpt>
      <trkpt lat="61.83132" lon="5.48888">
        <ele>404.655664</ele>
        <time>2020-07-29T09:01:48.813Z</time>
      </trkpt>
      <trkpt lat="61.83128" lon="5.48907">
        <ele>404.244007</ele>
        <time>2020-07-29T09:01:49.810Z</time>
      </trkpt>
      <trkpt lat="61.83125" lon="5.48925">
        <ele>403.839911</ele>
        <time>2020-07-29T09:01:50.812Z</time>
      </trkpt>
      <trkpt lat="61.83121" lon="5.48942">
        <ele>403.44335</ele>
        <time>2020-07-29T09:01:51.843Z</time>
      </trkpt>
      <trkpt lat="61.83117" lon="5.4896">
        <ele>403.037366</ele>
        <time>2020-07-29T09:01:52.785Z</time>
      </trkpt>
      <trkpt lat="61.83111" lon="5.48994">
        <ele>402.291858</ele>
        <time>2020-07-29T09:01:54.809Z</time>
      </trkpt>
      <trkpt lat="61.83105" lon="5.49026">
        <ele>401.592404</ele>
        <time>2020-07-29T09:01:56.789Z</time>
      </trkpt>
      <trkpt lat="61.83099" lon="5.49055">
        <ele>400.937944</ele>
        <time>2020-07-29T09:01:58.798Z</time>
      </trkpt>
      <trkpt lat="61.83094" lon="5.49083">
        <ele>400.315974</ele>
        <time>2020-07-29T09:02:00.805Z</time>
      </trkpt>
      <trkpt lat="61.83088" lon="5.4911">
        <ele>399.71051</ele>
        <time>2020-07-29T09:02:02.820Z</time>
      </trkpt>
      <trkpt lat="61.83083" lon="5.49136">
        <ele>399.130447</ele>
        <time>2020-07-29T09:02:04.790Z</time>
      </trkpt>
      <trkpt lat="61.83078" lon="5.49161">
        <ele>398.577072</ele>
        <time>2020-07-29T09:02:06.786Z</time>
      </trkpt>
      <trkpt lat="61.83074" lon="5.49186">
        <ele>398.031743</ele>
        <time>2020-07-29T09:02:08.798Z</time>
      </trkpt>
      <trkpt lat="61.83069" lon="5.49212">
        <ele>397.463204</ele>
        <time>2020-07-29T09:02:10.835Z</time>
      </trkpt>
      <trkpt lat="61.83064" lon="5.49239">
        <ele>397.025286</ele>
        <time>2020-07-29T09:02:12.809Z</time>
      </trkpt>
      <trkpt lat="61.83058" lon="5.49269">
        <ele>396.530282</ele>
        <time>2020-07-29T09:02:14.802Z</time>
      </trkpt>
      <trkpt lat="61.83051" lon="5.49302">
        <ele>395.996643</ele>
        <time>2020-07-29T09:02:16.831Z</time>
      </trkpt>
      <trkpt lat="61.83048" lon="5.4932">
        <ele>395.703893</ele>
        <time>2020-07-29T09:02:17.800Z</time>
      </trkpt>
      <trkpt lat="61.83044" lon="5.49339">
        <ele>395.391733</ele>
        <time>2020-07-29T09:02:18.788Z</time>
      </trkpt>
      <trkpt lat="61.8304" lon="5.49359">
        <ele>395.074211</ele>
        <time>2020-07-29T09:02:19.815Z</time>
      </trkpt>
      <trkpt lat="61.83036" lon="5.49379">
        <ele>394.752525</ele>
        <time>2020-07-29T09:02:20.801Z</time>
      </trkpt>
      <trkpt lat="61.83033" lon="5.494">
        <ele>394.418027</ele>
        <time>2020-07-29T09:02:21.789Z</time>
      </trkpt>
      <trkpt lat="61.83029" lon="5.49421">
        <ele>394.075096</ele>
        <time>2020-07-29T09:02:22.819Z</time>
      </trkpt>
      <trkpt lat="61.83025" lon="5.49443">
        <ele>393.732164</ele>
        <time>2020-07-29T09:02:23.825Z</time>
      </trkpt>
      <trkpt lat="61.83021" lon="5.49465">
        <ele>393.376542</ele>
        <time>2020-07-29T09:02:24.785Z</time>
      </trkpt>
      <trkpt lat="61.83017" lon="5.49487">
        <ele>393.010195</ele>
        <time>2020-07-29T09:02:25.801Z</time>
      </trkpt>
      <trkpt lat="61.83012" lon="5.4951">
        <ele>392.632938</ele>
        <time>2020-07-29T09:02:26.813Z</time>
      </trkpt>
      <trkpt lat="61.83007" lon="5.49534">
        <ele>392.245094</ele>
        <time>2020-07-29T09:02:27.815Z</time>
      </trkpt>
      <trkpt lat="61.83003" lon="5.49558">
        <ele>391.864849</ele>
        <time>2020-07-29T09:02:28.809Z</time>
      </trkpt>
      <trkpt lat="61.82998" lon="5.49582">
        <ele>391.261348</ele>
        <time>2020-07-29T09:02:29.807Z</time>
      </trkpt>
      <trkpt lat="61.82994" lon="5.49607">
        <ele>390.584174</ele>
        <time>2020-07-29T09:02:30.817Z</time>
      </trkpt>
      <trkpt lat="61.82989" lon="5.49631">
        <ele>389.902966</ele>
        <time>2020-07-29T09:02:31.797Z</time>
      </trkpt>
      <trkpt lat="61.82985" lon="5.49656">
        <ele>389.209407</ele>
        <time>2020-07-29T09:02:32.815Z</time>
      </trkpt>
      <trkpt lat="61.8298" lon="5.49682">
        <ele>388.486239</ele>
        <time>2020-07-29T09:02:33.802Z</time>
      </trkpt>
      <trkpt lat="61.82975" lon="5.49709">
        <ele>387.761361</ele>
        <time>2020-07-29T09:02:34.801Z</time>
      </trkpt>
      <trkpt lat="61.8297" lon="5.49735">
        <ele>387.020597</ele>
        <time>2020-07-29T09:02:35.809Z</time>
      </trkpt>
      <trkpt lat="61.82965" lon="5.49762">
        <ele>386.283439</ele>
        <time>2020-07-29T09:02:36.791Z</time>
      </trkpt>
      <trkpt lat="61.8296" lon="5.49789">
        <ele>385.543895</ele>
        <time>2020-07-29T09:02:37.816Z</time>
      </trkpt>
      <trkpt lat="61.82955" lon="5.49815">
        <ele>384.806735</ele>
        <time>2020-07-29T09:02:38.802Z</time>
      </trkpt>
      <trkpt lat="61.8295" lon="5.49841">
        <ele>384.084115</ele>
        <time>2020-07-29T09:02:39.795Z</time>
      </trkpt>
      <trkpt lat="61.82945" lon="5.49866">
        <ele>383.387308</ele>
        <time>2020-07-29T09:02:40.812Z</time>
      </trkpt>
      <trkpt lat="61.8294" lon="5.4989">
        <ele>382.713748</ele>
        <time>2020-07-29T09:02:41.848Z</time>
      </trkpt>
      <trkpt lat="61.82935" lon="5.49912">
        <ele>382.072887</ele>
        <time>2020-07-29T09:02:42.791Z</time>
      </trkpt>
      <trkpt lat="61.82931" lon="5.49935">
        <ele>381.404597</ele>
        <time>2020-07-29T09:02:43.806Z</time>
      </trkpt>
      <trkpt lat="61.82926" lon="5.49957">
        <ele>380.736076</ele>
        <time>2020-07-29T09:02:44.793Z</time>
      </trkpt>
      <trkpt lat="61.82922" lon="5.49979">
        <ele>380.072896</ele>
        <time>2020-07-29T09:02:45.809Z</time>
      </trkpt>
      <trkpt lat="61.82917" lon="5.50002">
        <ele>379.392545</ele>
        <time>2020-07-29T09:02:46.793Z</time>
      </trkpt>
      <trkpt lat="61.82912" lon="5.50024">
        <ele>378.704558</ele>
        <time>2020-07-29T09:02:47.791Z</time>
      </trkpt>
      <trkpt lat="61.82907" lon="5.50047">
        <ele>378.011095</ele>
        <time>2020-07-29T09:02:48.804Z</time>
      </trkpt>
      <trkpt lat="61.82903" lon="5.50071">
        <ele>377.309257</ele>
        <time>2020-07-29T09:02:49.783Z</time>
      </trkpt>
      <trkpt lat="61.82899" lon="5.50096">
        <ele>376.579523</ele>
        <time>2020-07-29T09:02:50.793Z</time>
      </trkpt>
      <trkpt lat="61.82895" lon="5.50121">
        <ele>375.833647</ele>
        <time>2020-07-29T09:02:51.792Z</time>
      </trkpt>
      <trkpt lat="61.82891" lon="5.50148">
        <ele>375.068724</ele>
        <time>2020-07-29T09:02:52.812Z</time>
      </trkpt>
      <trkpt lat="61.82888" lon="5.50176">
        <ele>374.282632</ele>
        <time>2020-07-29T09:02:53.793Z</time>
      </trkpt>
      <trkpt lat="61.82886" lon="5.50205">
        <ele>373.462802</ele>
        <time>2020-07-29T09:02:54.806Z</time>
      </trkpt>
      <trkpt lat="61.82884" lon="5.50235">
        <ele>372.617575</ele>
        <time>2020-07-29T09:02:55.785Z</time>
      </trkpt>
      <trkpt lat="61.82882" lon="5.50266">
        <ele>371.755651</ele>
        <time>2020-07-29T09:02:56.809Z</time>
      </trkpt>
      <trkpt lat="61.8288" lon="5.50298">
        <ele>370.87145</ele>
        <time>2020-07-29T09:02:57.812Z</time>
      </trkpt>
      <trkpt lat="61.82878" lon="5.50329">
        <ele>370.004211</ele>
        <time>2020-07-29T09:02:58.784Z</time>
      </trkpt>
      <trkpt lat="61.82877" lon="5.50361">
        <ele>369.138784</ele>
        <time>2020-07-29T09:02:59.798Z</time>
      </trkpt>
      <trkpt lat="61.82876" lon="5.50391">
        <ele>368.30116</ele>
        <time>2020-07-29T09:03:00.821Z</time>
      </trkpt>
      <trkpt lat="61.82876" lon="5.50422">
        <ele>367.464182</ele>
        <time>2020-07-29T09:03:01.819Z</time>
      </trkpt>
      <trkpt lat="61.82876" lon="5.50451">
        <ele>366.651792</ele>
        <time>2020-07-29T09:03:02.816Z</time>
      </trkpt>
      <trkpt lat="61.82877" lon="5.5048">
        <ele>365.862913</ele>
        <time>2020-07-29T09:03:03.789Z</time>
      </trkpt>
      <trkpt lat="61.82878" lon="5.50509">
        <ele>365.077096</ele>
        <time>2020-07-29T09:03:04.806Z</time>
      </trkpt>
      <trkpt lat="61.82879" lon="5.50537">
        <ele>364.30113</ele>
        <time>2020-07-29T09:03:05.808Z</time>
      </trkpt>
      <trkpt lat="61.8288" lon="5.50564">
        <ele>363.535395</ele>
        <time>2020-07-29T09:03:06.798Z</time>
      </trkpt>
      <trkpt lat="61.82882" lon="5.50592">
        <ele>362.777339</ele>
        <time>2020-07-29T09:03:07.842Z</time>
      </trkpt>
      <trkpt lat="61.82884" lon="5.50619">
        <ele>362.021078</ele>
        <time>2020-07-29T09:03:08.791Z</time>
      </trkpt>
      <trkpt lat="61.82886" lon="5.50646">
        <ele>361.279287</ele>
        <time>2020-07-29T09:03:09.793Z</time>
      </trkpt>
      <trkpt lat="61.82888" lon="5.50672">
        <ele>360.554658</ele>
        <time>2020-07-29T09:03:10.797Z</time>
      </trkpt>
      <trkpt lat="61.82889" lon="5.50699">
        <ele>359.825591</ele>
        <time>2020-07-29T09:03:11.789Z</time>
      </trkpt>
      <trkpt lat="61.8289" lon="5.50726">
        <ele>359.10452</ele>
        <time>2020-07-29T09:03:12.805Z</time>
      </trkpt>
      <trkpt lat="61.82891" lon="5.50753">
        <ele>358.380444</ele>
        <time>2020-07-29T09:03:13.805Z</time>
      </trkpt>
      <trkpt lat="61.82892" lon="5.5078">
        <ele>357.664</ele>
        <time>2020-07-29T09:03:14.801Z</time>
      </trkpt>
      <trkpt lat="61.82893" lon="5.50807">
        <ele>356.942321</ele>
        <time>2020-07-29T09:03:15.798Z</time>
      </trkpt>
      <trkpt lat="61.82894" lon="5.50834">
        <ele>356.210594</ele>
        <time>2020-07-29T09:03:16.785Z</time>
      </trkpt>
      <trkpt lat="61.82896" lon="5.50862">
        <ele>355.453706</ele>
        <time>2020-07-29T09:03:17.796Z</time>
      </trkpt>
      <trkpt lat="61.82897" lon="5.50891">
        <ele>354.677558</ele>
        <time>2020-07-29T09:03:18.836Z</time>
      </trkpt>
      <trkpt lat="61.82899" lon="5.5092">
        <ele>353.890776</ele>
        <time>2020-07-29T09:03:19.812Z</time>
      </trkpt>
      <trkpt lat="61.829" lon="5.5095">
        <ele>353.089784</ele>
        <time>2020-07-29T09:03:20.786Z</time>
      </trkpt>
      <trkpt lat="61.82902" lon="5.50981">
        <ele>352.262623</ele>
        <time>2020-07-29T09:03:21.796Z</time>
      </trkpt>
      <trkpt lat="61.82903" lon="5.51012">
        <ele>351.428307</ele>
        <time>2020-07-29T09:03:22.814Z</time>
      </trkpt>
      <trkpt lat="61.82904" lon="5.51044">
        <ele>350.530319</ele>
        <time>2020-07-29T09:03:23.809Z</time>
      </trkpt>
      <trkpt lat="61.82905" lon="5.51076">
        <ele>349.48458</ele>
        <time>2020-07-29T09:03:24.825Z</time>
      </trkpt>
      <trkpt lat="61.82906" lon="5.51108">
        <ele>348.428</ele>
        <time>2020-07-29T09:03:25.788Z</time>
      </trkpt>
      <trkpt lat="61.82908" lon="5.5114">
        <ele>347.384317</ele>
        <time>2020-07-29T09:03:26.782Z</time>
      </trkpt>
      <trkpt lat="61.82909" lon="5.51173">
        <ele>346.333538</ele>
        <time>2020-07-29T09:03:27.797Z</time>
      </trkpt>
      <trkpt lat="61.82911" lon="5.51205">
        <ele>345.284545</ele>
        <time>2020-07-29T09:03:28.809Z</time>
      </trkpt>
      <trkpt lat="61.82913" lon="5.51238">
        <ele>344.222682</ele>
        <time>2020-07-29T09:03:29.792Z</time>
      </trkpt>
      <trkpt lat="61.82914" lon="5.5127">
        <ele>343.156433</ele>
        <time>2020-07-29T09:03:30.809Z</time>
      </trkpt>
      <trkpt lat="61.82915" lon="5.51303">
        <ele>342.097786</ele>
        <time>2020-07-29T09:03:31.813Z</time>
      </trkpt>
      <trkpt lat="61.82916" lon="5.51336">
        <ele>341.03155</ele>
        <time>2020-07-29T09:03:32.805Z</time>
      </trkpt>
      <trkpt lat="61.82916" lon="5.51369">
        <ele>339.95666</ele>
        <time>2020-07-29T09:03:33.814Z</time>
      </trkpt>
      <trkpt lat="61.82916" lon="5.51402">
        <ele>338.884942</ele>
        <time>2020-07-29T09:03:34.809Z</time>
      </trkpt>
      <trkpt lat="61.82915" lon="5.51434">
        <ele>337.746408</ele>
        <time>2020-07-29T09:03:35.821Z</time>
      </trkpt>
      <trkpt lat="61.82913" lon="5.51466">
        <ele>336.567276</ele>
        <time>2020-07-29T09:03:36.794Z</time>
      </trkpt>
      <trkpt lat="61.8291" lon="5.51496">
        <ele>335.40655</ele>
        <time>2020-07-29T09:03:37.792Z</time>
      </trkpt>
      <trkpt lat="61.82907" lon="5.51526">
        <ele>334.250034</ele>
        <time>2020-07-29T09:03:38.791Z</time>
      </trkpt>
      <trkpt lat="61.82902" lon="5.51556">
        <ele>333.086334</ele>
        <time>2020-07-29T09:03:39.789Z</time>
      </trkpt>
      <trkpt lat="61.82897" lon="5.51584">
        <ele>331.983436</ele>
        <time>2020-07-29T09:03:40.790Z</time>
      </trkpt>
      <trkpt lat="61.82892" lon="5.51611">
        <ele>330.899412</ele>
        <time>2020-07-29T09:03:41.794Z</time>
      </trkpt>
      <trkpt lat="61.82886" lon="5.51636">
        <ele>329.829313</ele>
        <time>2020-07-29T09:03:42.836Z</time>
      </trkpt>
      <trkpt lat="61.82879" lon="5.5166">
        <ele>328.779447</ele>
        <time>2020-07-29T09:03:43.809Z</time>
      </trkpt>
      <trkpt lat="61.82872" lon="5.51684">
        <ele>327.754314</ele>
        <time>2020-07-29T09:03:44.829Z</time>
      </trkpt>
      <trkpt lat="61.82866" lon="5.51706">
        <ele>326.773378</ele>
        <time>2020-07-29T09:03:45.815Z</time>
      </trkpt>
      <trkpt lat="61.8286" lon="5.51728">
        <ele>325.824729</ele>
        <time>2020-07-29T09:03:46.788Z</time>
      </trkpt>
      <trkpt lat="61.82854" lon="5.5175">
        <ele>324.908628</ele>
        <time>2020-07-29T09:03:47.811Z</time>
      </trkpt>
      <trkpt lat="61.8285" lon="5.51771">
        <ele>324.335365</ele>
        <time>2020-07-29T09:03:48.795Z</time>
      </trkpt>
      <trkpt lat="61.82846" lon="5.51793">
        <ele>324.821416</ele>
        <time>2020-07-29T09:03:49.855Z</time>
      </trkpt>
      <trkpt lat="61.82843" lon="5.51815">
        <ele>325.300142</ele>
        <time>2020-07-29T09:03:50.811Z</time>
      </trkpt>
      <trkpt lat="61.82841" lon="5.51837">
        <ele>325.758856</ele>
        <time>2020-07-29T09:03:51.792Z</time>
      </trkpt>
      <trkpt lat="61.8284" lon="5.51857">
        <ele>326.188585</ele>
        <time>2020-07-29T09:03:52.805Z</time>
      </trkpt>
      <trkpt lat="61.8284" lon="5.51894">
        <ele>326.945697</ele>
        <time>2020-07-29T09:03:54.788Z</time>
      </trkpt>
      <trkpt lat="61.82843" lon="5.51923">
        <ele>327.577843</ele>
        <time>2020-07-29T09:03:56.821Z</time>
      </trkpt>
      <trkpt lat="61.82846" lon="5.51947">
        <ele>328.09257</ele>
        <time>2020-07-29T09:03:58.790Z</time>
      </trkpt>
      <trkpt lat="61.82849" lon="5.51969">
        <ele>328.560044</ele>
        <time>2020-07-29T09:04:01.807Z</time>
      </trkpt>
      <trkpt lat="61.82853" lon="5.51991">
        <ele>329.060278</ele>
        <time>2020-07-29T09:04:05.779Z</time>
      </trkpt>
      <trkpt lat="61.82857" lon="5.52009">
        <ele>329.470308</ele>
        <time>2020-07-29T09:04:08.828Z</time>
      </trkpt>
      <trkpt lat="61.82864" lon="5.52024">
        <ele>329.90694</ele>
        <time>2020-07-29T09:04:12.799Z</time>
      </trkpt>
      <trkpt lat="61.8287" lon="5.52041">
        <ele>330.354483</ele>
        <time>2020-07-29T09:04:17.812Z</time>
      </trkpt>
      <trkpt lat="61.82875" lon="5.5206">
        <ele>330.800361</ele>
        <time>2020-07-29T09:04:22.810Z</time>
      </trkpt>
      <trkpt lat="61.82879" lon="5.52076">
        <ele>331.201301</ele>
        <time>2020-07-29T09:04:26.811Z</time>
      </trkpt>
      <trkpt lat="61.82885" lon="5.52096">
        <ele>331.684854</ele>
        <time>2020-07-29T09:04:31.804Z</time>
      </trkpt>
      <trkpt lat="61.82889" lon="5.52114">
        <ele>332.096118</ele>
        <time>2020-07-29T09:04:35.812Z</time>
      </trkpt>
      <trkpt lat="61.82895" lon="5.52133">
        <ele>332.692853</ele>
        <time>2020-07-29T09:04:40.831Z</time>
      </trkpt>
      <trkpt lat="61.82901" lon="5.52148">
        <ele>333.234279</ele>
        <time>2020-07-29T09:04:45.789Z</time>
      </trkpt>
      <trkpt lat="61.82907" lon="5.52167">
        <ele>333.838319</ele>
        <time>2020-07-29T09:04:51.805Z</time>
      </trkpt>
      <trkpt lat="61.82912" lon="5.52184">
        <ele>334.370184</ele>
        <time>2020-07-29T09:04:56.822Z</time>
      </trkpt>
      <trkpt lat="61.82917" lon="5.52203">
        <ele>334.979662</ele>
        <time>2020-07-29T09:05:02.788Z</time>
      </trkpt>
      <trkpt lat="61.82921" lon="5.52222">
        <ele>335.527659</ele>
        <time>2020-07-29T09:05:07.827Z</time>
      </trkpt>
      <trkpt lat="61.82928" lon="5.52239">
        <ele>336.125261</ele>
        <time>2020-07-29T09:05:12.802Z</time>
      </trkpt>
      <trkpt lat="61.82935" lon="5.52258">
        <ele>336.788653</ele>
        <time>2020-07-29T09:05:17.795Z</time>
      </trkpt>
      <trkpt lat="61.82941" lon="5.52276">
        <ele>337.38542</ele>
        <time>2020-07-29T09:05:22.804Z</time>
      </trkpt>
      <trkpt lat="61.82946" lon="5.52298">
        <ele>338.021745</ele>
        <time>2020-07-29T09:05:27.789Z</time>
      </trkpt>
      <trkpt lat="61.82949" lon="5.52319">
        <ele>338.61647</ele>
        <time>2020-07-29T09:05:31.789Z</time>
      </trkpt>
      <trkpt lat="61.82956" lon="5.5234">
        <ele>339.313302</ele>
        <time>2020-07-29T09:05:35.796Z</time>
      </trkpt>
      <trkpt lat="61.82962" lon="5.5236">
        <ele>339.95175</ele>
        <time>2020-07-29T09:05:38.798Z</time>
      </trkpt>
      <trkpt lat="61.82969" lon="5.52384">
        <ele>340.700999</ele>
        <time>2020-07-29T09:05:41.788Z</time>
      </trkpt>
      <trkpt lat="61.82976" lon="5.52408">
        <ele>341.451941</ele>
        <time>2020-07-29T09:05:44.849Z</time>
      </trkpt>
      <trkpt lat="61.82979" lon="5.52426">
        <ele>341.973483</ele>
        <time>2020-07-29T09:05:46.796Z</time>
      </trkpt>
      <trkpt lat="61.82984" lon="5.52447">
        <ele>342.386689</ele>
        <time>2020-07-29T09:05:48.822Z</time>
      </trkpt>
      <trkpt lat="61.82989" lon="5.5247">
        <ele>342.197318</ele>
        <time>2020-07-29T09:05:50.800Z</time>
      </trkpt>
      <trkpt lat="61.82994" lon="5.52494">
        <ele>342.008532</ele>
        <time>2020-07-29T09:05:52.795Z</time>
      </trkpt>
      <trkpt lat="61.83" lon="5.52518">
        <ele>341.815888</ele>
        <time>2020-07-29T09:05:54.793Z</time>
      </trkpt>
      <trkpt lat="61.83005" lon="5.52542">
        <ele>341.625221</ele>
        <time>2020-07-29T09:05:56.835Z</time>
      </trkpt>
      <trkpt lat="61.8301" lon="5.52564">
        <ele>341.448853</ele>
        <time>2020-07-29T09:05:58.816Z</time>
      </trkpt>
      <trkpt lat="61.83014" lon="5.52583">
        <ele>341.296582</ele>
        <time>2020-07-29T09:06:00.796Z</time>
      </trkpt>
      <trkpt lat="61.8302" lon="5.52607">
        <ele>341.108521</ele>
        <time>2020-07-29T09:06:03.797Z</time>
      </trkpt>
      <trkpt lat="61.83024" lon="5.52629">
        <ele>340.940217</ele>
        <time>2020-07-29T09:06:06.800Z</time>
      </trkpt>
      <trkpt lat="61.83027" lon="5.52647">
        <ele>340.797414</ele>
        <time>2020-07-29T09:06:09.832Z</time>
      </trkpt>
      <trkpt lat="61.83029" lon="5.52666">
        <ele>340.655882</ele>
        <time>2020-07-29T09:06:12.791Z</time>
      </trkpt>
      <trkpt lat="61.83032" lon="5.52687">
        <ele>340.499125</ele>
        <time>2020-07-29T09:06:15.816Z</time>
      </trkpt>
      <trkpt lat="61.83035" lon="5.52709">
        <ele>340.333652</ele>
        <time>2020-07-29T09:06:18.808Z</time>
      </trkpt>
      <trkpt lat="61.83037" lon="5.52733">
        <ele>340.161545</ele>
        <time>2020-07-29T09:06:21.794Z</time>
      </trkpt>
      <trkpt lat="61.83038" lon="5.52756">
        <ele>339.997177</ele>
        <time>2020-07-29T09:06:24.802Z</time>
      </trkpt>
      <trkpt lat="61.8304" lon="5.52778">
        <ele>339.832136</ele>
        <time>2020-07-29T09:06:27.796Z</time>
      </trkpt>
      <trkpt lat="61.83042" lon="5.528">
        <ele>339.701731</ele>
        <time>2020-07-29T09:06:30.789Z</time>
      </trkpt>
      <trkpt lat="61.83043" lon="5.52822">
        <ele>339.922868</ele>
        <time>2020-07-29T09:06:33.820Z</time>
      </trkpt>
      <trkpt lat="61.83044" lon="5.52845">
        <ele>340.156481</ele>
        <time>2020-07-29T09:06:36.797Z</time>
      </trkpt>
      <trkpt lat="61.83047" lon="5.52869">
        <ele>340.399666</ele>
        <time>2020-07-29T09:06:39.824Z</time>
      </trkpt>
      <trkpt lat="61.83048" lon="5.52891">
        <ele>340.618158</ele>
        <time>2020-07-29T09:06:42.808Z</time>
      </trkpt>
      <trkpt lat="61.8305" lon="5.52912">
        <ele>340.830132</ele>
        <time>2020-07-29T09:06:45.789Z</time>
      </trkpt>
      <trkpt lat="61.83052" lon="5.52933">
        <ele>341.042503</ele>
        <time>2020-07-29T09:06:48.824Z</time>
      </trkpt>
      <trkpt lat="61.83054" lon="5.52956">
        <ele>341.269152</ele>
        <time>2020-07-29T09:06:51.817Z</time>
      </trkpt>
      <trkpt lat="61.83056" lon="5.52979">
        <ele>341.504177</ele>
        <time>2020-07-29T09:06:54.797Z</time>
      </trkpt>
      <trkpt lat="61.83059" lon="5.53003">
        <ele>341.745563</ele>
        <time>2020-07-29T09:06:57.810Z</time>
      </trkpt>
      <trkpt lat="61.83061" lon="5.53031">
        <ele>342.019973</ele>
        <time>2020-07-29T09:07:00.814Z</time>
      </trkpt>
      <trkpt lat="61.83062" lon="5.53051">
        <ele>342.217646</ele>
        <time>2020-07-29T09:07:02.792Z</time>
      </trkpt>
      <trkpt lat="61.83063" lon="5.53071">
        <ele>342.422847</ele>
        <time>2020-07-29T09:07:04.809Z</time>
      </trkpt>
      <trkpt lat="61.83064" lon="5.53091">
        <ele>342.624364</ele>
        <time>2020-07-29T09:07:06.787Z</time>
      </trkpt>
      <trkpt lat="61.83066" lon="5.53113">
        <ele>342.83797</ele>
        <time>2020-07-29T09:07:08.796Z</time>
      </trkpt>
      <trkpt lat="61.83067" lon="5.53136">
        <ele>343.065698</ele>
        <time>2020-07-29T09:07:10.786Z</time>
      </trkpt>
      <trkpt lat="61.83069" lon="5.5316">
        <ele>343.3106</ele>
        <time>2020-07-29T09:07:12.831Z</time>
      </trkpt>
      <trkpt lat="61.83071" lon="5.53185">
        <ele>343.189632</ele>
        <time>2020-07-29T09:07:14.779Z</time>
      </trkpt>
      <trkpt lat="61.83073" lon="5.53213">
        <ele>342.55042</ele>
        <time>2020-07-29T09:07:16.784Z</time>
      </trkpt>
      <trkpt lat="61.83076" lon="5.53244">
        <ele>341.845538</ele>
        <time>2020-07-29T09:07:18.822Z</time>
      </trkpt>
      <trkpt lat="61.8308" lon="5.53274">
        <ele>341.127647</ele>
        <time>2020-07-29T09:07:20.816Z</time>
      </trkpt>
      <trkpt lat="61.83084" lon="5.5331">
        <ele>340.296387</ele>
        <time>2020-07-29T09:07:22.804Z</time>
      </trkpt>
      <trkpt lat="61.83086" lon="5.5333">
        <ele>339.833585</ele>
        <time>2020-07-29T09:07:23.827Z</time>
      </trkpt>
      <trkpt lat="61.83089" lon="5.5335">
        <ele>339.372962</ele>
        <time>2020-07-29T09:07:24.829Z</time>
      </trkpt>
      <trkpt lat="61.83091" lon="5.5337">
        <ele>338.890697</ele>
        <time>2020-07-29T09:07:25.789Z</time>
      </trkpt>
      <trkpt lat="61.83093" lon="5.53393">
        <ele>338.364184</ele>
        <time>2020-07-29T09:07:26.812Z</time>
      </trkpt>
      <trkpt lat="61.83096" lon="5.53417">
        <ele>337.809139</ele>
        <time>2020-07-29T09:07:27.799Z</time>
      </trkpt>
      <trkpt lat="61.83099" lon="5.53441">
        <ele>337.245412</ele>
        <time>2020-07-29T09:07:28.804Z</time>
      </trkpt>
      <trkpt lat="61.83101" lon="5.53465">
        <ele>336.688277</ele>
        <time>2020-07-29T09:07:29.810Z</time>
      </trkpt>
      <trkpt lat="61.83104" lon="5.53489">
        <ele>336.140916</ele>
        <time>2020-07-29T09:07:30.816Z</time>
      </trkpt>
      <trkpt lat="61.83107" lon="5.53512">
        <ele>335.597932</ele>
        <time>2020-07-29T09:07:31.816Z</time>
      </trkpt>
      <trkpt lat="61.8311" lon="5.53535">
        <ele>335.049336</ele>
        <time>2020-07-29T09:07:32.796Z</time>
      </trkpt>
      <trkpt lat="61.83113" lon="5.53558">
        <ele>334.569722</ele>
        <time>2020-07-29T09:07:33.802Z</time>
      </trkpt>
      <trkpt lat="61.83117" lon="5.5358">
        <ele>334.140886</ele>
        <time>2020-07-29T09:07:34.847Z</time>
      </trkpt>
      <trkpt lat="61.8312" lon="5.53601">
        <ele>333.737862</ele>
        <time>2020-07-29T09:07:35.791Z</time>
      </trkpt>
      <trkpt lat="61.83123" lon="5.53621">
        <ele>333.357852</ele>
        <time>2020-07-29T09:07:36.781Z</time>
      </trkpt>
      <trkpt lat="61.83125" lon="5.53639">
        <ele>332.991939</ele>
        <time>2020-07-29T09:07:37.796Z</time>
      </trkpt>
      <trkpt lat="61.83128" lon="5.53658">
        <ele>332.637794</ele>
        <time>2020-07-29T09:07:38.791Z</time>
      </trkpt>
      <trkpt lat="61.83134" lon="5.5369">
        <ele>332.003402</ele>
        <time>2020-07-29T09:07:40.797Z</time>
      </trkpt>
      <trkpt lat="61.83138" lon="5.53719">
        <ele>331.434857</ele>
        <time>2020-07-29T09:07:42.797Z</time>
      </trkpt>
      <trkpt lat="61.83143" lon="5.53745">
        <ele>330.919449</ele>
        <time>2020-07-29T09:07:44.807Z</time>
      </trkpt>
      <trkpt lat="61.83145" lon="5.5377">
        <ele>330.445892</ele>
        <time>2020-07-29T09:07:46.789Z</time>
      </trkpt>
      <trkpt lat="61.83148" lon="5.53793">
        <ele>330.012744</ele>
        <time>2020-07-29T09:07:48.788Z</time>
      </trkpt>
      <trkpt lat="61.83149" lon="5.53814">
        <ele>329.615884</ele>
        <time>2020-07-29T09:07:50.814Z</time>
      </trkpt>
      <trkpt lat="61.8315" lon="5.53835">
        <ele>329.231879</ele>
        <time>2020-07-29T09:07:52.824Z</time>
      </trkpt>
      <trkpt lat="61.83151" lon="5.53857">
        <ele>328.82767</ele>
        <time>2020-07-29T09:07:54.798Z</time>
      </trkpt>
      <trkpt lat="61.83153" lon="5.53878">
        <ele>328.428492</ele>
        <time>2020-07-29T09:07:56.798Z</time>
      </trkpt>
      <trkpt lat="61.83154" lon="5.53898">
        <ele>328.057493</ele>
        <time>2020-07-29T09:07:58.789Z</time>
      </trkpt>
      <trkpt lat="61.83156" lon="5.53917">
        <ele>327.731828</ele>
        <time>2020-07-29T09:08:00.812Z</time>
      </trkpt>
      <trkpt lat="61.83157" lon="5.53939">
        <ele>327.521024</ele>
        <time>2020-07-29T09:08:02.849Z</time>
      </trkpt>
      <trkpt lat="61.83157" lon="5.53962">
        <ele>327.28722</ele>
        <time>2020-07-29T09:08:04.790Z</time>
      </trkpt>
      <trkpt lat="61.83158" lon="5.53987">
        <ele>327.038676</ele>
        <time>2020-07-29T09:08:06.808Z</time>
      </trkpt>
      <trkpt lat="61.8316" lon="5.54013">
        <ele>326.779062</ele>
        <time>2020-07-29T09:08:08.813Z</time>
      </trkpt>
      <trkpt lat="61.83162" lon="5.54041">
        <ele>326.499015</ele>
        <time>2020-07-29T09:08:10.819Z</time>
      </trkpt>
      <trkpt lat="61.83164" lon="5.54069">
        <ele>326.213654</ele>
        <time>2020-07-29T09:08:12.797Z</time>
      </trkpt>
      <trkpt lat="61.83167" lon="5.54098">
        <ele>325.920827</ele>
        <time>2020-07-29T09:08:14.811Z</time>
      </trkpt>
      <trkpt lat="61.8317" lon="5.54126">
        <ele>325.631008</ele>
        <time>2020-07-29T09:08:16.805Z</time>
      </trkpt>
      <trkpt lat="61.83172" lon="5.54157">
        <ele>325.323918</ele>
        <time>2020-07-29T09:08:18.817Z</time>
      </trkpt>
      <trkpt lat="61.83173" lon="5.54187">
        <ele>325.017953</ele>
        <time>2020-07-29T09:08:20.783Z</time>
      </trkpt>
      <trkpt lat="61.83174" lon="5.54218">
        <ele>324.713774</ele>
        <time>2020-07-29T09:08:22.786Z</time>
      </trkpt>
      <trkpt lat="61.83176" lon="5.54247">
        <ele>324.423676</ele>
        <time>2020-07-29T09:08:24.805Z</time>
      </trkpt>
      <trkpt lat="61.83177" lon="5.54274">
        <ele>324.147656</ele>
        <time>2020-07-29T09:08:26.808Z</time>
      </trkpt>
      <trkpt lat="61.83178" lon="5.54302">
        <ele>323.945674</ele>
        <time>2020-07-29T09:08:28.835Z</time>
      </trkpt>
      <trkpt lat="61.8318" lon="5.54331">
        <ele>323.842787</ele>
        <time>2020-07-29T09:08:30.776Z</time>
      </trkpt>
      <trkpt lat="61.83181" lon="5.54362">
        <ele>323.734693</ele>
        <time>2020-07-29T09:08:32.782Z</time>
      </trkpt>
      <trkpt lat="61.83182" lon="5.54393">
        <ele>323.62587</ele>
        <time>2020-07-29T09:08:34.799Z</time>
      </trkpt>
      <trkpt lat="61.83185" lon="5.54424">
        <ele>323.515514</ele>
        <time>2020-07-29T09:08:36.799Z</time>
      </trkpt>
      <trkpt lat="61.83189" lon="5.54454">
        <ele>323.406818</ele>
        <time>2020-07-29T09:08:38.803Z</time>
      </trkpt>
      <trkpt lat="61.83194" lon="5.54482">
        <ele>323.301267</ele>
        <time>2020-07-29T09:08:40.788Z</time>
      </trkpt>
      <trkpt lat="61.83201" lon="5.54507">
        <ele>323.19872</ele>
        <time>2020-07-29T09:08:42.780Z</time>
      </trkpt>
      <trkpt lat="61.83208" lon="5.54532">
        <ele>323.10078</ele>
        <time>2020-07-29T09:08:44.813Z</time>
      </trkpt>
      <trkpt lat="61.83214" lon="5.54556">
        <ele>323.004117</ele>
        <time>2020-07-29T09:08:46.800Z</time>
      </trkpt>
      <trkpt lat="61.83221" lon="5.54577">
        <ele>322.915948</ele>
        <time>2020-07-29T09:08:48.799Z</time>
      </trkpt>
      <trkpt lat="61.83226" lon="5.54595">
        <ele>322.841681</ele>
        <time>2020-07-29T09:08:50.819Z</time>
      </trkpt>
      <trkpt lat="61.83231" lon="5.54615">
        <ele>322.761701</ele>
        <time>2020-07-29T09:08:52.816Z</time>
      </trkpt>
      <trkpt lat="61.83237" lon="5.54635">
        <ele>322.679162</ele>
        <time>2020-07-29T09:08:54.804Z</time>
      </trkpt>
      <trkpt lat="61.83244" lon="5.54654">
        <ele>322.813261</ele>
        <time>2020-07-29T09:08:56.809Z</time>
      </trkpt>
      <trkpt lat="61.8325" lon="5.54672">
        <ele>323.015303</ele>
        <time>2020-07-29T09:08:58.832Z</time>
      </trkpt>
      <trkpt lat="61.83254" lon="5.54689">
        <ele>323.198241</ele>
        <time>2020-07-29T09:09:00.799Z</time>
      </trkpt>
      <trkpt lat="61.8326" lon="5.54712">
        <ele>323.446167</ele>
        <time>2020-07-29T09:09:03.813Z</time>
      </trkpt>
      <trkpt lat="61.83264" lon="5.54733">
        <ele>323.658329</ele>
        <time>2020-07-29T09:09:06.802Z</time>
      </trkpt>
      <trkpt lat="61.83268" lon="5.54753">
        <ele>323.856145</ele>
        <time>2020-07-29T09:09:09.817Z</time>
      </trkpt>
      <trkpt lat="61.83273" lon="5.54772">
        <ele>324.062499</ele>
        <time>2020-07-29T09:09:12.796Z</time>
      </trkpt>
      <trkpt lat="61.83277" lon="5.54796">
        <ele>324.294335</ele>
        <time>2020-07-29T09:09:15.788Z</time>
      </trkpt>
      <trkpt lat="61.83278" lon="5.54825">
        <ele>324.562283</ele>
        <time>2020-07-29T09:09:18.796Z</time>
      </trkpt>
      <trkpt lat="61.8328" lon="5.54846">
        <ele>324.764645</ele>
        <time>2020-07-29T09:09:20.813Z</time>
      </trkpt>
      <trkpt lat="61.83281" lon="5.54872">
        <ele>325.00446</ele>
        <time>2020-07-29T09:09:22.793Z</time>
      </trkpt>
      <trkpt lat="61.8328" lon="5.549">
        <ele>325.273595</ele>
        <time>2020-07-29T09:09:24.791Z</time>
      </trkpt>
      <trkpt lat="61.83279" lon="5.54931">
        <ele>325.556167</ele>
        <time>2020-07-29T09:09:26.830Z</time>
      </trkpt>
      <trkpt lat="61.83278" lon="5.54962">
        <ele>325.847186</ele>
        <time>2020-07-29T09:09:28.838Z</time>
      </trkpt>
      <trkpt lat="61.83277" lon="5.54992">
        <ele>326.12938</ele>
        <time>2020-07-29T09:09:30.810Z</time>
      </trkpt>
      <trkpt lat="61.83276" lon="5.5502">
        <ele>326.482355</ele>
        <time>2020-07-29T09:09:32.791Z</time>
      </trkpt>
      <trkpt lat="61.83275" lon="5.55045">
        <ele>326.829507</ele>
        <time>2020-07-29T09:09:34.808Z</time>
      </trkpt>
      <trkpt lat="61.83274" lon="5.55069">
        <ele>327.163989</ele>
        <time>2020-07-29T09:09:36.787Z</time>
      </trkpt>
      <trkpt lat="61.83273" lon="5.55093">
        <ele>327.492974</ele>
        <time>2020-07-29T09:09:38.787Z</time>
      </trkpt>
      <trkpt lat="61.83272" lon="5.55115">
        <ele>327.797936</ele>
        <time>2020-07-29T09:09:40.801Z</time>
      </trkpt>
      <trkpt lat="61.83272" lon="5.55135">
        <ele>328.073859</ele>
        <time>2020-07-29T09:09:42.795Z</time>
      </trkpt>
      <trkpt lat="61.83271" lon="5.55154">
        <ele>328.341487</ele>
        <time>2020-07-29T09:09:44.787Z</time>
      </trkpt>
      <trkpt lat="61.83272" lon="5.55174">
        <ele>328.620345</ele>
        <time>2020-07-29T09:09:46.793Z</time>
      </trkpt>
      <trkpt lat="61.83272" lon="5.55195">
        <ele>328.902801</ele>
        <time>2020-07-29T09:09:48.811Z</time>
      </trkpt>
      <trkpt lat="61.83272" lon="5.55214">
        <ele>329.176965</ele>
        <time>2020-07-29T09:09:50.812Z</time>
      </trkpt>
      <trkpt lat="61.83273" lon="5.55235">
        <ele>329.462979</ele>
        <time>2020-07-29T09:09:52.801Z</time>
      </trkpt>
      <trkpt lat="61.83274" lon="5.55257">
        <ele>329.775118</ele>
        <time>2020-07-29T09:09:54.799Z</time>
      </trkpt>
      <trkpt lat="61.83275" lon="5.55279">
        <ele>330.076731</ele>
        <time>2020-07-29T09:09:56.785Z</time>
      </trkpt>
      <trkpt lat="61.83278" lon="5.55304">
        <ele>330.425893</ele>
        <time>2020-07-29T09:09:58.798Z</time>
      </trkpt>
      <trkpt lat="61.8328" lon="5.5533">
        <ele>330.795229</ele>
        <time>2020-07-29T09:10:00.795Z</time>
      </trkpt>
      <trkpt lat="61.83283" lon="5.55356">
        <ele>331.162039</ele>
        <time>2020-07-29T09:10:02.800Z</time>
      </trkpt>
      <trkpt lat="61.83286" lon="5.5538">
        <ele>331.491547</ele>
        <time>2020-07-29T09:10:04.823Z</time>
      </trkpt>
      <trkpt lat="61.83288" lon="5.55402">
        <ele>331.556556</ele>
        <time>2020-07-29T09:10:06.797Z</time>
      </trkpt>
      <trkpt lat="61.83292" lon="5.55425">
        <ele>331.626832</ele>
        <time>2020-07-29T09:10:08.809Z</time>
      </trkpt>
      <trkpt lat="61.83296" lon="5.55448">
        <ele>331.694251</ele>
        <time>2020-07-29T09:10:10.819Z</time>
      </trkpt>
      <trkpt lat="61.833" lon="5.5547">
        <ele>331.760778</ele>
        <time>2020-07-29T09:10:12.811Z</time>
      </trkpt>
      <trkpt lat="61.83305" lon="5.55493">
        <ele>331.831031</ele>
        <time>2020-07-29T09:10:14.808Z</time>
      </trkpt>
      <trkpt lat="61.8331" lon="5.55515">
        <ele>331.901257</ele>
        <time>2020-07-29T09:10:16.785Z</time>
      </trkpt>
      <trkpt lat="61.83315" lon="5.55538">
        <ele>331.974045</ele>
        <time>2020-07-29T09:10:18.817Z</time>
      </trkpt>
      <trkpt lat="61.8332" lon="5.55565">
        <ele>332.05381</ele>
        <time>2020-07-29T09:10:20.812Z</time>
      </trkpt>
      <trkpt lat="61.83325" lon="5.55593">
        <ele>332.138608</ele>
        <time>2020-07-29T09:10:22.793Z</time>
      </trkpt>
      <trkpt lat="61.83329" lon="5.55621">
        <ele>332.221753</ele>
        <time>2020-07-29T09:10:24.806Z</time>
      </trkpt>
      <trkpt lat="61.83333" lon="5.55648">
        <ele>332.301852</ele>
        <time>2020-07-29T09:10:26.804Z</time>
      </trkpt>
      <trkpt lat="61.83336" lon="5.55675">
        <ele>332.380217</ele>
        <time>2020-07-29T09:10:28.822Z</time>
      </trkpt>
      <trkpt lat="61.83338" lon="5.55703">
        <ele>332.460192</ele>
        <time>2020-07-29T09:10:30.807Z</time>
      </trkpt>
      <trkpt lat="61.8334" lon="5.55731">
        <ele>332.539511</ele>
        <time>2020-07-29T09:10:32.835Z</time>
      </trkpt>
      <trkpt lat="61.83341" lon="5.5576">
        <ele>331.923398</ele>
        <time>2020-07-29T09:10:34.846Z</time>
      </trkpt>
      <trkpt lat="61.83342" lon="5.55788">
        <ele>331.004</ele>
        <time>2020-07-29T09:10:36.813Z</time>
      </trkpt>
      <trkpt lat="61.83343" lon="5.55818">
        <ele>330.056725</ele>
        <time>2020-07-29T09:10:38.780Z</time>
      </trkpt>
      <trkpt lat="61.83345" lon="5.55848">
        <ele>329.0916</ele>
        <time>2020-07-29T09:10:40.808Z</time>
      </trkpt>
      <trkpt lat="61.83345" lon="5.5588">
        <ele>328.103086</ele>
        <time>2020-07-29T09:10:42.830Z</time>
      </trkpt>
      <trkpt lat="61.83345" lon="5.55912">
        <ele>327.086613</ele>
        <time>2020-07-29T09:10:44.810Z</time>
      </trkpt>
      <trkpt lat="61.83345" lon="5.55945">
        <ele>326.036834</ele>
        <time>2020-07-29T09:10:46.792Z</time>
      </trkpt>
      <trkpt lat="61.83343" lon="5.55978">
        <ele>324.959272</ele>
        <time>2020-07-29T09:10:48.788Z</time>
      </trkpt>
      <trkpt lat="61.83342" lon="5.5601">
        <ele>323.947481</ele>
        <time>2020-07-29T09:10:50.796Z</time>
      </trkpt>
      <trkpt lat="61.83339" lon="5.56039">
        <ele>323.016705</ele>
        <time>2020-07-29T09:10:52.807Z</time>
      </trkpt>
      <trkpt lat="61.83336" lon="5.56065">
        <ele>322.170851</ele>
        <time>2020-07-29T09:10:54.810Z</time>
      </trkpt>
      <trkpt lat="61.83332" lon="5.56088">
        <ele>321.364487</ele>
        <time>2020-07-29T09:10:56.839Z</time>
      </trkpt>
      <trkpt lat="61.83328" lon="5.5611">
        <ele>320.612794</ele>
        <time>2020-07-29T09:10:58.805Z</time>
      </trkpt>
      <trkpt lat="61.83324" lon="5.5613">
        <ele>319.987158</ele>
        <time>2020-07-29T09:11:00.790Z</time>
      </trkpt>
      <trkpt lat="61.83319" lon="5.56149">
        <ele>319.377099</ele>
        <time>2020-07-29T09:11:02.791Z</time>
      </trkpt>
      <trkpt lat="61.83315" lon="5.56168">
        <ele>318.759994</ele>
        <time>2020-07-29T09:11:04.808Z</time>
      </trkpt>
      <trkpt lat="61.83309" lon="5.56188">
        <ele>318.118259</ele>
        <time>2020-07-29T09:11:06.795Z</time>
      </trkpt>
      <trkpt lat="61.83304" lon="5.56207">
        <ele>317.483973</ele>
        <time>2020-07-29T09:11:08.819Z</time>
      </trkpt>
      <trkpt lat="61.83299" lon="5.56228">
        <ele>316.809316</ele>
        <time>2020-07-29T09:11:10.804Z</time>
      </trkpt>
      <trkpt lat="61.83293" lon="5.56249">
        <ele>316.108725</ele>
        <time>2020-07-29T09:11:12.820Z</time>
      </trkpt>
      <trkpt lat="61.83287" lon="5.56269">
        <ele>315.419463</ele>
        <time>2020-07-29T09:11:14.807Z</time>
      </trkpt>
      <trkpt lat="61.8328" lon="5.56292">
        <ele>314.663481</ele>
        <time>2020-07-29T09:11:16.821Z</time>
      </trkpt>
      <trkpt lat="61.83274" lon="5.56317">
        <ele>313.857115</ele>
        <time>2020-07-29T09:11:18.805Z</time>
      </trkpt>
      <trkpt lat="61.83268" lon="5.56342">
        <ele>313.048533</ele>
        <time>2020-07-29T09:11:20.788Z</time>
      </trkpt>
      <trkpt lat="61.83262" lon="5.56367">
        <ele>312.258612</ele>
        <time>2020-07-29T09:11:22.796Z</time>
      </trkpt>
      <trkpt lat="61.83258" lon="5.56392">
        <ele>311.493875</ele>
        <time>2020-07-29T09:11:24.809Z</time>
      </trkpt>
      <trkpt lat="61.83253" lon="5.56416">
        <ele>310.755822</ele>
        <time>2020-07-29T09:11:26.817Z</time>
      </trkpt>
      <trkpt lat="61.8325" lon="5.56441">
        <ele>310.007737</ele>
        <time>2020-07-29T09:11:28.808Z</time>
      </trkpt>
      <trkpt lat="61.83246" lon="5.56467">
        <ele>309.419181</ele>
        <time>2020-07-29T09:11:30.804Z</time>
      </trkpt>
      <trkpt lat="61.83243" lon="5.56494">
        <ele>309.00851</ele>
        <time>2020-07-29T09:11:32.795Z</time>
      </trkpt>
      <trkpt lat="61.8324" lon="5.56524">
        <ele>308.561086</ele>
        <time>2020-07-29T09:11:34.832Z</time>
      </trkpt>
      <trkpt lat="61.83239" lon="5.56555">
        <ele>308.112946</ele>
        <time>2020-07-29T09:11:36.807Z</time>
      </trkpt>
      <trkpt lat="61.83239" lon="5.56588">
        <ele>307.628803</ele>
        <time>2020-07-29T09:11:38.796Z</time>
      </trkpt>
      <trkpt lat="61.83239" lon="5.56624">
        <ele>307.108274</ele>
        <time>2020-07-29T09:11:40.832Z</time>
      </trkpt>
      <trkpt lat="61.8324" lon="5.56661">
        <ele>306.563313</ele>
        <time>2020-07-29T09:11:42.800Z</time>
      </trkpt>
      <trkpt lat="61.83241" lon="5.56681">
        <ele>306.27796</ele>
        <time>2020-07-29T09:11:43.824Z</time>
      </trkpt>
      <trkpt lat="61.83241" lon="5.56701">
        <ele>305.982701</ele>
        <time>2020-07-29T09:11:44.811Z</time>
      </trkpt>
      <trkpt lat="61.83241" lon="5.56722">
        <ele>305.680303</ele>
        <time>2020-07-29T09:11:45.817Z</time>
      </trkpt>
      <trkpt lat="61.83241" lon="5.56744">
        <ele>305.366291</ele>
        <time>2020-07-29T09:11:46.798Z</time>
      </trkpt>
      <trkpt lat="61.83241" lon="5.56766">
        <ele>305.036287</ele>
        <time>2020-07-29T09:11:47.806Z</time>
      </trkpt>
      <trkpt lat="61.83241" lon="5.56789">
        <ele>304.704815</ele>
        <time>2020-07-29T09:11:48.794Z</time>
      </trkpt>
      <trkpt lat="61.83241" lon="5.56812">
        <ele>304.367317</ele>
        <time>2020-07-29T09:11:49.808Z</time>
      </trkpt>
      <trkpt lat="61.8324" lon="5.56836">
        <ele>304.009676</ele>
        <time>2020-07-29T09:11:50.846Z</time>
      </trkpt>
      <trkpt lat="61.8324" lon="5.5686">
        <ele>303.53822</ele>
        <time>2020-07-29T09:11:51.792Z</time>
      </trkpt>
      <trkpt lat="61.83238" lon="5.56885">
        <ele>303.060265</ele>
        <time>2020-07-29T09:11:52.795Z</time>
      </trkpt>
      <trkpt lat="61.83236" lon="5.56909">
        <ele>302.577471</ele>
        <time>2020-07-29T09:11:53.810Z</time>
      </trkpt>
      <trkpt lat="61.83234" lon="5.56935">
        <ele>302.074181</ele>
        <time>2020-07-29T09:11:54.800Z</time>
      </trkpt>
      <trkpt lat="61.83233" lon="5.56962">
        <ele>301.549398</ele>
        <time>2020-07-29T09:11:55.805Z</time>
      </trkpt>
      <trkpt lat="61.83231" lon="5.56988">
        <ele>301.038995</ele>
        <time>2020-07-29T09:11:56.814Z</time>
      </trkpt>
      <trkpt lat="61.83229" lon="5.57013">
        <ele>300.536343</ele>
        <time>2020-07-29T09:11:57.818Z</time>
      </trkpt>
      <trkpt lat="61.83228" lon="5.57038">
        <ele>300.045764</ele>
        <time>2020-07-29T09:11:58.799Z</time>
      </trkpt>
      <trkpt lat="61.83226" lon="5.57062">
        <ele>299.568669</ele>
        <time>2020-07-29T09:11:59.839Z</time>
      </trkpt>
      <trkpt lat="61.83224" lon="5.57085">
        <ele>299.122367</ele>
        <time>2020-07-29T09:12:00.803Z</time>
      </trkpt>
      <trkpt lat="61.83223" lon="5.57107">
        <ele>298.697209</ele>
        <time>2020-07-29T09:12:01.813Z</time>
      </trkpt>
      <trkpt lat="61.83221" lon="5.57127">
        <ele>298.288645</ele>
        <time>2020-07-29T09:12:02.798Z</time>
      </trkpt>
      <trkpt lat="61.8322" lon="5.57147">
        <ele>297.901847</ele>
        <time>2020-07-29T09:12:03.815Z</time>
      </trkpt>
      <trkpt lat="61.83219" lon="5.57166">
        <ele>297.526231</ele>
        <time>2020-07-29T09:12:04.786Z</time>
      </trkpt>
      <trkpt lat="61.83218" lon="5.57202">
        <ele>296.840517</ele>
        <time>2020-07-29T09:12:06.805Z</time>
      </trkpt>
      <trkpt lat="61.83218" lon="5.57235">
        <ele>296.841603</ele>
        <time>2020-07-29T09:12:08.811Z</time>
      </trkpt>
      <trkpt lat="61.83218" lon="5.57265">
        <ele>297.10017</ele>
        <time>2020-07-29T09:12:10.808Z</time>
      </trkpt>
      <trkpt lat="61.83219" lon="5.57293">
        <ele>297.341561</ele>
        <time>2020-07-29T09:12:12.802Z</time>
      </trkpt>
      <trkpt lat="61.83219" lon="5.57319">
        <ele>297.561537</ele>
        <time>2020-07-29T09:12:14.801Z</time>
      </trkpt>
      <trkpt lat="61.83221" lon="5.57342">
        <ele>297.763135</ele>
        <time>2020-07-29T09:12:16.808Z</time>
      </trkpt>
      <trkpt lat="61.83223" lon="5.57364">
        <ele>297.958409</ele>
        <time>2020-07-29T09:12:18.803Z</time>
      </trkpt>
      <trkpt lat="61.83226" lon="5.57385">
        <ele>298.149457</ele>
        <time>2020-07-29T09:12:20.784Z</time>
      </trkpt>
      <trkpt lat="61.83229" lon="5.57406">
        <ele>298.338628</ele>
        <time>2020-07-29T09:12:22.825Z</time>
      </trkpt>
      <trkpt lat="61.83232" lon="5.57426">
        <ele>298.525023</ele>
        <time>2020-07-29T09:12:24.798Z</time>
      </trkpt>
      <trkpt lat="61.83236" lon="5.57444">
        <ele>298.695631</ele>
        <time>2020-07-29T09:12:26.788Z</time>
      </trkpt>
      <trkpt lat="61.83241" lon="5.57469">
        <ele>298.929577</ele>
        <time>2020-07-29T09:12:29.796Z</time>
      </trkpt>
      <trkpt lat="61.83247" lon="5.57493">
        <ele>299.160464</ele>
        <time>2020-07-29T09:12:32.796Z</time>
      </trkpt>
      <trkpt lat="61.83252" lon="5.57515">
        <ele>299.367651</ele>
        <time>2020-07-29T09:12:35.814Z</time>
      </trkpt>
      <trkpt lat="61.83257" lon="5.57536">
        <ele>299.57516</ele>
        <time>2020-07-29T09:12:38.797Z</time>
      </trkpt>
      <trkpt lat="61.83264" lon="5.57556">
        <ele>299.791124</ele>
        <time>2020-07-29T09:12:41.803Z</time>
      </trkpt>
      <trkpt lat="61.8327" lon="5.57577">
        <ele>300.195173</ele>
        <time>2020-07-29T09:12:44.810Z</time>
      </trkpt>
      <trkpt lat="61.83277" lon="5.57597">
        <ele>300.880654</ele>
        <time>2020-07-29T09:12:47.814Z</time>
      </trkpt>
      <trkpt lat="61.83283" lon="5.57616">
        <ele>301.53217</ele>
        <time>2020-07-29T09:12:50.795Z</time>
      </trkpt>
      <trkpt lat="61.83288" lon="5.57634">
        <ele>302.158223</ele>
        <time>2020-07-29T09:12:53.801Z</time>
      </trkpt>
      <trkpt lat="61.83294" lon="5.57653">
        <ele>302.821107</ele>
        <time>2020-07-29T09:12:56.800Z</time>
      </trkpt>
      <trkpt lat="61.83299" lon="5.57673">
        <ele>303.489711</ele>
        <time>2020-07-29T09:12:59.794Z</time>
      </trkpt>
      <trkpt lat="61.83306" lon="5.5769">
        <ele>304.115967</ele>
        <time>2020-07-29T09:13:02.794Z</time>
      </trkpt>
      <trkpt lat="61.83312" lon="5.57707">
        <ele>304.762748</ele>
        <time>2020-07-29T09:13:05.819Z</time>
      </trkpt>
      <trkpt lat="61.83318" lon="5.57724">
        <ele>305.385939</ele>
        <time>2020-07-29T09:13:08.801Z</time>
      </trkpt>
      <trkpt lat="61.83324" lon="5.57741">
        <ele>305.974518</ele>
        <time>2020-07-29T09:13:11.797Z</time>
      </trkpt>
      <trkpt lat="61.8333" lon="5.57762">
        <ele>306.685326</ele>
        <time>2020-07-29T09:13:15.789Z</time>
      </trkpt>
      <trkpt lat="61.83334" lon="5.57779">
        <ele>307.247562</ele>
        <time>2020-07-29T09:13:18.799Z</time>
      </trkpt>
      <trkpt lat="61.83341" lon="5.57798">
        <ele>307.945985</ele>
        <time>2020-07-29T09:13:21.797Z</time>
      </trkpt>
      <trkpt lat="61.83348" lon="5.57818">
        <ele>308.666938</ele>
        <time>2020-07-29T09:13:24.816Z</time>
      </trkpt>
      <trkpt lat="61.83354" lon="5.57838">
        <ele>309.334026</ele>
        <time>2020-07-29T09:13:27.807Z</time>
      </trkpt>
      <trkpt lat="61.8336" lon="5.57856">
        <ele>309.996921</ele>
        <time>2020-07-29T09:13:30.806Z</time>
      </trkpt>
      <trkpt lat="61.83367" lon="5.57877">
        <ele>310.721365</ele>
        <time>2020-07-29T09:13:33.829Z</time>
      </trkpt>
      <trkpt lat="61.83374" lon="5.57897">
        <ele>311.037366</ele>
        <time>2020-07-29T09:13:36.809Z</time>
      </trkpt>
      <trkpt lat="61.83381" lon="5.57917">
        <ele>311.110452</ele>
        <time>2020-07-29T09:13:39.807Z</time>
      </trkpt>
      <trkpt lat="61.83388" lon="5.57936">
        <ele>311.182022</ele>
        <time>2020-07-29T09:13:42.826Z</time>
      </trkpt>
      <trkpt lat="61.83393" lon="5.5796">
        <ele>311.260958</ele>
        <time>2020-07-29T09:13:45.796Z</time>
      </trkpt>
      <trkpt lat="61.83398" lon="5.57985">
        <ele>311.3434</ele>
        <time>2020-07-29T09:13:48.794Z</time>
      </trkpt>
      <trkpt lat="61.83405" lon="5.58008">
        <ele>311.425562</ele>
        <time>2020-07-29T09:13:51.815Z</time>
      </trkpt>
      <trkpt lat="61.83411" lon="5.5803">
        <ele>311.502723</ele>
        <time>2020-07-29T09:13:54.806Z</time>
      </trkpt>
      <trkpt lat="61.83417" lon="5.58052">
        <ele>311.578581</ele>
        <time>2020-07-29T09:13:57.799Z</time>
      </trkpt>
      <trkpt lat="61.83422" lon="5.58077">
        <ele>311.660052</ele>
        <time>2020-07-29T09:14:00.855Z</time>
      </trkpt>
      <trkpt lat="61.83426" lon="5.58101">
        <ele>311.738245</ele>
        <time>2020-07-29T09:14:03.806Z</time>
      </trkpt>
      <trkpt lat="61.83431" lon="5.58127">
        <ele>311.822346</ele>
        <time>2020-07-29T09:14:06.847Z</time>
      </trkpt>
      <trkpt lat="61.83433" lon="5.58145">
        <ele>311.880223</ele>
        <time>2020-07-29T09:14:08.789Z</time>
      </trkpt>
      <trkpt lat="61.83435" lon="5.58164">
        <ele>311.938556</ele>
        <time>2020-07-29T09:14:10.825Z</time>
      </trkpt>
      <trkpt lat="61.83437" lon="5.58192">
        <ele>312.022648</ele>
        <time>2020-07-29T09:14:13.808Z</time>
      </trkpt>
      <trkpt lat="61.83439" lon="5.5822">
        <ele>312.110223</ele>
        <time>2020-07-29T09:14:16.812Z</time>
      </trkpt>
      <trkpt lat="61.83441" lon="5.5824">
        <ele>311.897129</ele>
        <time>2020-07-29T09:14:18.807Z</time>
      </trkpt>
      <trkpt lat="61.83441" lon="5.58261">
        <ele>311.453414</ele>
        <time>2020-07-29T09:14:20.797Z</time>
      </trkpt>
      <trkpt lat="61.83442" lon="5.58283">
        <ele>310.988655</ele>
        <time>2020-07-29T09:14:22.795Z</time>
      </trkpt>
      <trkpt lat="61.83441" lon="5.58307">
        <ele>310.481645</ele>
        <time>2020-07-29T09:14:24.795Z</time>
      </trkpt>
      <trkpt lat="61.83442" lon="5.58332">
        <ele>309.955545</ele>
        <time>2020-07-29T09:14:26.809Z</time>
      </trkpt>
      <trkpt lat="61.83442" lon="5.58358">
        <ele>309.388873</ele>
        <time>2020-07-29T09:14:28.803Z</time>
      </trkpt>
      <trkpt lat="61.83442" lon="5.58389">
        <ele>308.7481</ele>
        <time>2020-07-29T09:14:30.805Z</time>
      </trkpt>
      <trkpt lat="61.83441" lon="5.58421">
        <ele>308.053505</ele>
        <time>2020-07-29T09:14:32.821Z</time>
      </trkpt>
      <trkpt lat="61.83441" lon="5.58457">
        <ele>307.300432</ele>
        <time>2020-07-29T09:14:34.798Z</time>
      </trkpt>
      <trkpt lat="61.83442" lon="5.58494">
        <ele>306.506444</ele>
        <time>2020-07-29T09:14:36.814Z</time>
      </trkpt>
      <trkpt lat="61.83443" lon="5.58513">
        <ele>306.10038</ele>
        <time>2020-07-29T09:14:37.789Z</time>
      </trkpt>
      <trkpt lat="61.83443" lon="5.58533">
        <ele>305.688824</ele>
        <time>2020-07-29T09:14:38.821Z</time>
      </trkpt>
      <trkpt lat="61.83443" lon="5.58553">
        <ele>305.249693</ele>
        <time>2020-07-29T09:14:39.810Z</time>
      </trkpt>
      <trkpt lat="61.83443" lon="5.58575">
        <ele>304.795647</ele>
        <time>2020-07-29T09:14:40.797Z</time>
      </trkpt>
      <trkpt lat="61.83442" lon="5.58597">
        <ele>304.328767</ele>
        <time>2020-07-29T09:14:41.795Z</time>
      </trkpt>
      <trkpt lat="61.83442" lon="5.5862">
        <ele>303.768898</ele>
        <time>2020-07-29T09:14:42.805Z</time>
      </trkpt>
      <trkpt lat="61.83442" lon="5.58643">
        <ele>303.088001</ele>
        <time>2020-07-29T09:14:43.806Z</time>
      </trkpt>
      <trkpt lat="61.83442" lon="5.58667">
        <ele>302.389974</ele>
        <time>2020-07-29T09:14:44.797Z</time>
      </trkpt>
      <trkpt lat="61.83442" lon="5.58691">
        <ele>301.699954</ele>
        <time>2020-07-29T09:14:45.806Z</time>
      </trkpt>
      <trkpt lat="61.83441" lon="5.58715">
        <ele>301.005981</ele>
        <time>2020-07-29T09:14:46.791Z</time>
      </trkpt>
      <trkpt lat="61.8344" lon="5.58738">
        <ele>300.321361</ele>
        <time>2020-07-29T09:14:47.795Z</time>
      </trkpt>
      <trkpt lat="61.83438" lon="5.58763">
        <ele>299.607857</ele>
        <time>2020-07-29T09:14:48.803Z</time>
      </trkpt>
      <trkpt lat="61.83436" lon="5.58787">
        <ele>298.894446</ele>
        <time>2020-07-29T09:14:49.819Z</time>
      </trkpt>
      <trkpt lat="61.83434" lon="5.58811">
        <ele>298.190594</ele>
        <time>2020-07-29T09:14:50.801Z</time>
      </trkpt>
      <trkpt lat="61.83432" lon="5.58835">
        <ele>297.50003</ele>
        <time>2020-07-29T09:14:51.795Z</time>
      </trkpt>
      <trkpt lat="61.83431" lon="5.58858">
        <ele>296.820883</ele>
        <time>2020-07-29T09:14:52.815Z</time>
      </trkpt>
      <trkpt lat="61.83429" lon="5.5888">
        <ele>296.158849</ele>
        <time>2020-07-29T09:14:53.811Z</time>
      </trkpt>
      <trkpt lat="61.83427" lon="5.58902">
        <ele>295.511583</ele>
        <time>2020-07-29T09:14:54.794Z</time>
      </trkpt>
      <trkpt lat="61.83424" lon="5.58923">
        <ele>294.880055</ele>
        <time>2020-07-29T09:14:55.819Z</time>
      </trkpt>
      <trkpt lat="61.83422" lon="5.58943">
        <ele>294.27755</ele>
        <time>2020-07-29T09:14:56.812Z</time>
      </trkpt>
      <trkpt lat="61.83419" lon="5.58962">
        <ele>293.721245</ele>
        <time>2020-07-29T09:14:57.809Z</time>
      </trkpt>
      <trkpt lat="61.83414" lon="5.58996">
        <ele>293.102269</ele>
        <time>2020-07-29T09:14:59.807Z</time>
      </trkpt>
      <trkpt lat="61.83409" lon="5.59027">
        <ele>293.356697</ele>
        <time>2020-07-29T09:15:01.806Z</time>
      </trkpt>
      <trkpt lat="61.83404" lon="5.59055">
        <ele>293.587127</ele>
        <time>2020-07-29T09:15:03.829Z</time>
      </trkpt>
      <trkpt lat="61.83399" lon="5.59081">
        <ele>293.802946</ele>
        <time>2020-07-29T09:15:05.797Z</time>
      </trkpt>
      <trkpt lat="61.83393" lon="5.59104">
        <ele>293.999766</ele>
        <time>2020-07-29T09:15:07.797Z</time>
      </trkpt>
      <trkpt lat="61.8339" lon="5.59127">
        <ele>294.185751</ele>
        <time>2020-07-29T09:15:09.798Z</time>
      </trkpt>
      <trkpt lat="61.83386" lon="5.59146">
        <ele>294.343751</ele>
        <time>2020-07-29T09:15:11.798Z</time>
      </trkpt>
      <trkpt lat="61.83384" lon="5.59165">
        <ele>294.490655</ele>
        <time>2020-07-29T09:15:13.789Z</time>
      </trkpt>
      <trkpt lat="61.8338" lon="5.59188">
        <ele>294.679011</ele>
        <time>2020-07-29T09:15:16.828Z</time>
      </trkpt>
      <trkpt lat="61.83377" lon="5.5921">
        <ele>294.856147</ele>
        <time>2020-07-29T09:15:19.786Z</time>
      </trkpt>
      <trkpt lat="61.83374" lon="5.59231">
        <ele>295.025893</ele>
        <time>2020-07-29T09:15:22.831Z</time>
      </trkpt>
      <trkpt lat="61.8337" lon="5.59253">
        <ele>295.202534</ele>
        <time>2020-07-29T09:15:25.788Z</time>
      </trkpt>
      <trkpt lat="61.83369" lon="5.59275">
        <ele>295.369057</ele>
        <time>2020-07-29T09:15:28.824Z</time>
      </trkpt>
      <trkpt lat="61.83368" lon="5.59301">
        <ele>295.568166</ele>
        <time>2020-07-29T09:15:31.815Z</time>
      </trkpt>
      <trkpt lat="61.83366" lon="5.59326">
        <ele>295.760876</ele>
        <time>2020-07-29T09:15:34.833Z</time>
      </trkpt>
      <trkpt lat="61.83367" lon="5.59352">
        <ele>295.945516</ele>
        <time>2020-07-29T09:15:37.807Z</time>
      </trkpt>
      <trkpt lat="61.8337" lon="5.59378">
        <ele>296.011728</ele>
        <time>2020-07-29T09:15:40.809Z</time>
      </trkpt>
      <trkpt lat="61.83373" lon="5.59403">
        <ele>296.076843</ele>
        <time>2020-07-29T09:15:43.797Z</time>
      </trkpt>
      <trkpt lat="61.83377" lon="5.59429">
        <ele>296.141661</ele>
        <time>2020-07-29T09:15:46.819Z</time>
      </trkpt>
      <trkpt lat="61.8338" lon="5.59453">
        <ele>296.204019</ele>
        <time>2020-07-29T09:15:49.819Z</time>
      </trkpt>
      <trkpt lat="61.83383" lon="5.59478">
        <ele>296.268318</ele>
        <time>2020-07-29T09:15:52.800Z</time>
      </trkpt>
      <trkpt lat="61.83386" lon="5.59504">
        <ele>296.332729</ele>
        <time>2020-07-29T09:15:55.807Z</time>
      </trkpt>
      <trkpt lat="61.83388" lon="5.59529">
        <ele>296.39558</ele>
        <time>2020-07-29T09:15:58.804Z</time>
      </trkpt>
      <trkpt lat="61.83389" lon="5.59553">
        <ele>296.456251</ele>
        <time>2020-07-29T09:16:01.803Z</time>
      </trkpt>
      <trkpt lat="61.8339" lon="5.59577">
        <ele>296.515225</ele>
        <time>2020-07-29T09:16:04.850Z</time>
      </trkpt>
      <trkpt lat="61.83389" lon="5.59604">
        <ele>296.581919</ele>
        <time>2020-07-29T09:16:07.793Z</time>
      </trkpt>
      <trkpt lat="61.83389" lon="5.59623">
        <ele>296.629661</ele>
        <time>2020-07-29T09:16:09.824Z</time>
      </trkpt>
      <trkpt lat="61.83388" lon="5.5965">
        <ele>296.695795</ele>
        <time>2020-07-29T09:16:12.793Z</time>
      </trkpt>
      <trkpt lat="61.83386" lon="5.59676">
        <ele>296.7612</ele>
        <time>2020-07-29T09:16:15.800Z</time>
      </trkpt>
      <trkpt lat="61.83384" lon="5.59703">
        <ele>296.829391</ele>
        <time>2020-07-29T09:16:18.834Z</time>
      </trkpt>
      <trkpt lat="61.83382" lon="5.59729">
        <ele>296.820648</ele>
        <time>2020-07-29T09:16:21.806Z</time>
      </trkpt>
      <trkpt lat="61.83379" lon="5.59747">
        <ele>296.650969</ele>
        <time>2020-07-29T09:16:23.815Z</time>
      </trkpt>
      <trkpt lat="61.83376" lon="5.59767">
        <ele>296.471329</ele>
        <time>2020-07-29T09:16:25.811Z</time>
      </trkpt>
      <trkpt lat="61.83373" lon="5.59787">
        <ele>296.291458</ele>
        <time>2020-07-29T09:16:27.821Z</time>
      </trkpt>
      <trkpt lat="61.83373" lon="5.59808">
        <ele>296.104442</ele>
        <time>2020-07-29T09:16:29.805Z</time>
      </trkpt>
      <trkpt lat="61.83372" lon="5.59835">
        <ele>295.868972</ele>
        <time>2020-07-29T09:16:31.789Z</time>
      </trkpt>
      <trkpt lat="61.83371" lon="5.59867">
        <ele>295.585452</ele>
        <time>2020-07-29T09:16:33.832Z</time>
      </trkpt>
      <trkpt lat="61.83371" lon="5.59904">
        <ele>295.261989</ele>
        <time>2020-07-29T09:16:35.842Z</time>
      </trkpt>
      <trkpt lat="61.83373" lon="5.59924">
        <ele>295.090363</ele>
        <time>2020-07-29T09:16:36.806Z</time>
      </trkpt>
      <trkpt lat="61.83374" lon="5.59944">
        <ele>294.909527</ele>
        <time>2020-07-29T09:16:37.788Z</time>
      </trkpt>
      <trkpt lat="61.83376" lon="5.59965">
        <ele>294.725228</ele>
        <time>2020-07-29T09:16:38.802Z</time>
      </trkpt>
      <trkpt lat="61.83378" lon="5.59986">
        <ele>294.533111</ele>
        <time>2020-07-29T09:16:39.820Z</time>
      </trkpt>
      <trkpt lat="61.8338" lon="5.60009">
        <ele>294.327664</ele>
        <time>2020-07-29T09:16:40.828Z</time>
      </trkpt>
      <trkpt lat="61.83383" lon="5.60032">
        <ele>294.120514</ele>
        <time>2020-07-29T09:16:41.796Z</time>
      </trkpt>
      <trkpt lat="61.83386" lon="5.60057">
        <ele>293.898199</ele>
        <time>2020-07-29T09:16:42.812Z</time>
      </trkpt>
      <trkpt lat="61.83389" lon="5.60081">
        <ele>293.676726</ele>
        <time>2020-07-29T09:16:43.812Z</time>
      </trkpt>
      <trkpt lat="61.83393" lon="5.60105">
        <ele>293.284198</ele>
        <time>2020-07-29T09:16:44.807Z</time>
      </trkpt>
      <trkpt lat="61.83396" lon="5.6013">
        <ele>292.616703</ele>
        <time>2020-07-29T09:16:45.798Z</time>
      </trkpt>
      <trkpt lat="61.834" lon="5.60155">
        <ele>291.944519</ele>
        <time>2020-07-29T09:16:46.810Z</time>
      </trkpt>
      <trkpt lat="61.83403" lon="5.6018">
        <ele>291.264505</ele>
        <time>2020-07-29T09:16:47.827Z</time>
      </trkpt>
      <trkpt lat="61.83406" lon="5.60205">
        <ele>290.577285</ele>
        <time>2020-07-29T09:16:48.816Z</time>
      </trkpt>
      <trkpt lat="61.83409" lon="5.60231">
        <ele>289.884736</ele>
        <time>2020-07-29T09:16:49.809Z</time>
      </trkpt>
      <trkpt lat="61.83412" lon="5.60257">
        <ele>289.194998</ele>
        <time>2020-07-29T09:16:50.830Z</time>
      </trkpt>
      <trkpt lat="61.83416" lon="5.60282">
        <ele>288.508903</ele>
        <time>2020-07-29T09:16:51.811Z</time>
      </trkpt>
      <trkpt lat="61.83418" lon="5.60308">
        <ele>287.818002</ele>
        <time>2020-07-29T09:16:52.797Z</time>
      </trkpt>
      <trkpt lat="61.83421" lon="5.60334">
        <ele>287.128604</ele>
        <time>2020-07-29T09:16:53.796Z</time>
      </trkpt>
      <trkpt lat="61.83422" lon="5.6036">
        <ele>286.458169</ele>
        <time>2020-07-29T09:16:54.796Z</time>
      </trkpt>
      <trkpt lat="61.83424" lon="5.60385">
        <ele>285.79772</ele>
        <time>2020-07-29T09:16:55.812Z</time>
      </trkpt>
      <trkpt lat="61.83425" lon="5.6041">
        <ele>285.150848</ele>
        <time>2020-07-29T09:16:56.814Z</time>
      </trkpt>
      <trkpt lat="61.83426" lon="5.60434">
        <ele>284.508326</ele>
        <time>2020-07-29T09:16:57.797Z</time>
      </trkpt>
      <trkpt lat="61.83428" lon="5.60459">
        <ele>283.866617</ele>
        <time>2020-07-29T09:16:58.783Z</time>
      </trkpt>
      <trkpt lat="61.83429" lon="5.60483">
        <ele>283.117521</ele>
        <time>2020-07-29T09:16:59.824Z</time>
      </trkpt>
      <trkpt lat="61.8343" lon="5.60507">
        <ele>282.325098</ele>
        <time>2020-07-29T09:17:00.800Z</time>
      </trkpt>
      <trkpt lat="61.83431" lon="5.60531">
        <ele>281.543561</ele>
        <time>2020-07-29T09:17:01.847Z</time>
      </trkpt>
      <trkpt lat="61.83432" lon="5.60555">
        <ele>280.734664</ele>
        <time>2020-07-29T09:17:02.784Z</time>
      </trkpt>
      <trkpt lat="61.83433" lon="5.6058">
        <ele>279.910659</ele>
        <time>2020-07-29T09:17:03.811Z</time>
      </trkpt>
      <trkpt lat="61.83436" lon="5.60605">
        <ele>279.059109</ele>
        <time>2020-07-29T09:17:04.824Z</time>
      </trkpt>
      <trkpt lat="61.83438" lon="5.6063">
        <ele>278.208267</ele>
        <time>2020-07-29T09:17:05.811Z</time>
      </trkpt>
      <trkpt lat="61.83441" lon="5.60655">
        <ele>277.367041</ele>
        <time>2020-07-29T09:17:06.797Z</time>
      </trkpt>
      <trkpt lat="61.83444" lon="5.60679">
        <ele>276.549146</ele>
        <time>2020-07-29T09:17:07.812Z</time>
      </trkpt>
      <trkpt lat="61.83448" lon="5.60702">
        <ele>275.752302</ele>
        <time>2020-07-29T09:17:08.805Z</time>
      </trkpt>
      <trkpt lat="61.83452" lon="5.60724">
        <ele>274.978036</ele>
        <time>2020-07-29T09:17:09.813Z</time>
      </trkpt>
      <trkpt lat="61.83456" lon="5.60744">
        <ele>274.243388</ele>
        <time>2020-07-29T09:17:10.793Z</time>
      </trkpt>
      <trkpt lat="61.83459" lon="5.60763">
        <ele>273.571817</ele>
        <time>2020-07-29T09:17:11.815Z</time>
      </trkpt>
      <trkpt lat="61.83465" lon="5.60795">
        <ele>272.441996</ele>
        <time>2020-07-29T09:17:13.811Z</time>
      </trkpt>
      <trkpt lat="61.83468" lon="5.6082">
        <ele>271.599939</ele>
        <time>2020-07-29T09:17:15.797Z</time>
      </trkpt>
      <trkpt lat="61.83472" lon="5.6084">
        <ele>270.912934</ele>
        <time>2020-07-29T09:17:17.801Z</time>
      </trkpt>
      <trkpt lat="61.83475" lon="5.60859">
        <ele>270.393791</ele>
        <time>2020-07-29T09:17:19.810Z</time>
      </trkpt>
      <trkpt lat="61.83477" lon="5.6088">
        <ele>269.81358</ele>
        <time>2020-07-29T09:17:21.806Z</time>
      </trkpt>
      <trkpt lat="61.83479" lon="5.60904">
        <ele>269.193671</ele>
        <time>2020-07-29T09:17:23.811Z</time>
      </trkpt>
      <trkpt lat="61.83481" lon="5.60928">
        <ele>268.559118</ele>
        <time>2020-07-29T09:17:25.807Z</time>
      </trkpt>
      <trkpt lat="61.83482" lon="5.60952">
        <ele>267.926819</ele>
        <time>2020-07-29T09:17:27.800Z</time>
      </trkpt>
      <trkpt lat="61.83482" lon="5.60975">
        <ele>267.311968</ele>
        <time>2020-07-29T09:17:29.792Z</time>
      </trkpt>
      <trkpt lat="61.83483" lon="5.61">
        <ele>266.668659</ele>
        <time>2020-07-29T09:17:31.805Z</time>
      </trkpt>
      <trkpt lat="61.83483" lon="5.61024">
        <ele>266.033193</ele>
        <time>2020-07-29T09:17:33.815Z</time>
      </trkpt>
      <trkpt lat="61.83484" lon="5.61049">
        <ele>265.388455</ele>
        <time>2020-07-29T09:17:35.786Z</time>
      </trkpt>
      <trkpt lat="61.83484" lon="5.61072">
        <ele>264.782409</ele>
        <time>2020-07-29T09:17:37.785Z</time>
      </trkpt>
      <trkpt lat="61.83485" lon="5.61094">
        <ele>264.197206</ele>
        <time>2020-07-29T09:17:39.816Z</time>
      </trkpt>
      <trkpt lat="61.83487" lon="5.61115">
        <ele>263.657089</ele>
        <time>2020-07-29T09:17:41.810Z</time>
      </trkpt>
      <trkpt lat="61.83487" lon="5.61134">
        <ele>263.160406</ele>
        <time>2020-07-29T09:17:43.818Z</time>
      </trkpt>
      <trkpt lat="61.83489" lon="5.61153">
        <ele>262.640304</ele>
        <time>2020-07-29T09:17:45.824Z</time>
      </trkpt>
      <trkpt lat="61.83491" lon="5.61174">
        <ele>262.100239</ele>
        <time>2020-07-29T09:17:47.806Z</time>
      </trkpt>
      <trkpt lat="61.83493" lon="5.61194">
        <ele>261.545682</ele>
        <time>2020-07-29T09:17:49.806Z</time>
      </trkpt>
      <trkpt lat="61.83496" lon="5.61215">
        <ele>261.045155</ele>
        <time>2020-07-29T09:17:51.813Z</time>
      </trkpt>
      <trkpt lat="61.83499" lon="5.61237">
        <ele>260.857344</ele>
        <time>2020-07-29T09:17:53.804Z</time>
      </trkpt>
      <trkpt lat="61.83503" lon="5.61258">
        <ele>260.666821</ele>
        <time>2020-07-29T09:17:55.792Z</time>
      </trkpt>
      <trkpt lat="61.83507" lon="5.61281">
        <ele>260.461594</ele>
        <time>2020-07-29T09:17:57.802Z</time>
      </trkpt>
      <trkpt lat="61.83511" lon="5.61306">
        <ele>260.244453</ele>
        <time>2020-07-29T09:17:59.788Z</time>
      </trkpt>
      <trkpt lat="61.83516" lon="5.61334">
        <ele>260.001183</ele>
        <time>2020-07-29T09:18:01.832Z</time>
      </trkpt>
      <trkpt lat="61.8352" lon="5.61364">
        <ele>259.743245</ele>
        <time>2020-07-29T09:18:03.788Z</time>
      </trkpt>
      <trkpt lat="61.83525" lon="5.61396">
        <ele>259.465016</ele>
        <time>2020-07-29T09:18:05.796Z</time>
      </trkpt>
      <trkpt lat="61.8353" lon="5.6143">
        <ele>259.172249</ele>
        <time>2020-07-29T09:18:07.815Z</time>
      </trkpt>
      <trkpt lat="61.83533" lon="5.61466">
        <ele>258.864761</ele>
        <time>2020-07-29T09:18:09.798Z</time>
      </trkpt>
      <trkpt lat="61.83534" lon="5.61485">
        <ele>258.707484</ele>
        <time>2020-07-29T09:18:10.818Z</time>
      </trkpt>
      <trkpt lat="61.83535" lon="5.61504">
        <ele>258.547258</ele>
        <time>2020-07-29T09:18:11.786Z</time>
      </trkpt>
      <trkpt lat="61.83536" lon="5.61525">
        <ele>258.377127</ele>
        <time>2020-07-29T09:18:12.823Z</time>
      </trkpt>
      <trkpt lat="61.83536" lon="5.61545">
        <ele>258.207295</ele>
        <time>2020-07-29T09:18:13.815Z</time>
      </trkpt>
      <trkpt lat="61.83537" lon="5.61566">
        <ele>258.036554</ele>
        <time>2020-07-29T09:18:14.812Z</time>
      </trkpt>
      <trkpt lat="61.83538" lon="5.61587">
        <ele>257.854427</ele>
        <time>2020-07-29T09:18:15.809Z</time>
      </trkpt>
      <trkpt lat="61.83539" lon="5.61608">
        <ele>257.652043</ele>
        <time>2020-07-29T09:18:16.794Z</time>
      </trkpt>
      <trkpt lat="61.8354" lon="5.6163">
        <ele>257.453598</ele>
        <time>2020-07-29T09:18:17.799Z</time>
      </trkpt>
      <trkpt lat="61.83541" lon="5.61651">
        <ele>257.25772</ele>
        <time>2020-07-29T09:18:18.808Z</time>
      </trkpt>
      <trkpt lat="61.83541" lon="5.61672">
        <ele>257.066061</ele>
        <time>2020-07-29T09:18:19.808Z</time>
      </trkpt>
      <trkpt lat="61.83542" lon="5.61692">
        <ele>256.876585</ele>
        <time>2020-07-29T09:18:20.798Z</time>
      </trkpt>
      <trkpt lat="61.83543" lon="5.61712">
        <ele>256.695336</ele>
        <time>2020-07-29T09:18:21.809Z</time>
      </trkpt>
      <trkpt lat="61.83543" lon="5.61731">
        <ele>256.51345</ele>
        <time>2020-07-29T09:18:22.788Z</time>
      </trkpt>
      <trkpt lat="61.83544" lon="5.61751">
        <ele>256.337021</ele>
        <time>2020-07-29T09:18:23.816Z</time>
      </trkpt>
      <trkpt lat="61.83546" lon="5.61787">
        <ele>255.994718</ele>
        <time>2020-07-29T09:18:25.805Z</time>
      </trkpt>
      <trkpt lat="61.83548" lon="5.61824">
        <ele>255.65373</ele>
        <time>2020-07-29T09:18:27.785Z</time>
      </trkpt>
      <trkpt lat="61.8355" lon="5.61861">
        <ele>255.311667</ele>
        <time>2020-07-29T09:18:29.804Z</time>
      </trkpt>
      <trkpt lat="61.83553" lon="5.61896">
        <ele>254.981002</ele>
        <time>2020-07-29T09:18:31.789Z</time>
      </trkpt>
      <trkpt lat="61.83555" lon="5.61931">
        <ele>254.654276</ele>
        <time>2020-07-29T09:18:33.796Z</time>
      </trkpt>
      <trkpt lat="61.83556" lon="5.61966">
        <ele>254.342393</ele>
        <time>2020-07-29T09:18:35.814Z</time>
      </trkpt>
      <trkpt lat="61.83557" lon="5.62">
        <ele>254.053646</ele>
        <time>2020-07-29T09:18:37.789Z</time>
      </trkpt>
      <trkpt lat="61.83559" lon="5.62032">
        <ele>253.771197</ele>
        <time>2020-07-29T09:18:39.828Z</time>
      </trkpt>
      <trkpt lat="61.83562" lon="5.62064">
        <ele>253.49826</ele>
        <time>2020-07-29T09:18:41.819Z</time>
      </trkpt>
      <trkpt lat="61.83563" lon="5.62096">
        <ele>253.227484</ele>
        <time>2020-07-29T09:18:43.830Z</time>
      </trkpt>
      <trkpt lat="61.83566" lon="5.62128">
        <ele>252.948006</ele>
        <time>2020-07-29T09:18:45.787Z</time>
      </trkpt>
      <trkpt lat="61.83569" lon="5.62162">
        <ele>252.659007</ele>
        <time>2020-07-29T09:18:47.808Z</time>
      </trkpt>
      <trkpt lat="61.83573" lon="5.62197">
        <ele>252.349075</ele>
        <time>2020-07-29T09:18:49.816Z</time>
      </trkpt>
      <trkpt lat="61.83576" lon="5.62233">
        <ele>252.036519</ele>
        <time>2020-07-29T09:18:51.799Z</time>
      </trkpt>
      <trkpt lat="61.83579" lon="5.62269">
        <ele>251.733389</ele>
        <time>2020-07-29T09:18:53.809Z</time>
      </trkpt>
      <trkpt lat="61.83581" lon="5.623">
        <ele>251.464402</ele>
        <time>2020-07-29T09:18:55.815Z</time>
      </trkpt>
      <trkpt lat="61.83582" lon="5.62324">
        <ele>251.257567</ele>
        <time>2020-07-29T09:18:57.803Z</time>
      </trkpt>
      <trkpt lat="61.8358" lon="5.6235">
        <ele>251.085976</ele>
        <time>2020-07-29T09:19:00.818Z</time>
      </trkpt>
      <trkpt lat="61.83589" lon="5.62421">
        <ele>250.68942</ele>
        <time>2020-07-29T09:22:30.809Z</time>
      </trkpt>
      <trkpt lat="61.83592" lon="5.62447">
        <ele>250.545456</ele>
        <time>2020-07-29T09:22:33.784Z</time>
      </trkpt>
      <trkpt lat="61.83594" lon="5.62466">
        <ele>250.440359</ele>
        <time>2020-07-29T09:22:35.787Z</time>
      </trkpt>
      <trkpt lat="61.83596" lon="5.62485">
        <ele>250.337045</ele>
        <time>2020-07-29T09:22:37.825Z</time>
      </trkpt>
      <trkpt lat="61.83598" lon="5.62512">
        <ele>250.187011</ele>
        <time>2020-07-29T09:22:40.810Z</time>
      </trkpt>
      <trkpt lat="61.83601" lon="5.6254">
        <ele>250.035206</ele>
        <time>2020-07-29T09:22:43.809Z</time>
      </trkpt>
      <trkpt lat="61.83602" lon="5.62566">
        <ele>249.891462</ele>
        <time>2020-07-29T09:22:46.799Z</time>
      </trkpt>
      <trkpt lat="61.83604" lon="5.62592">
        <ele>249.749856</ele>
        <time>2020-07-29T09:22:49.800Z</time>
      </trkpt>
      <trkpt lat="61.83604" lon="5.62617">
        <ele>249.618978</ele>
        <time>2020-07-29T09:22:52.837Z</time>
      </trkpt>
      <trkpt lat="61.83603" lon="5.62642">
        <ele>249.482242</ele>
        <time>2020-07-29T09:22:55.817Z</time>
      </trkpt>
      <trkpt lat="61.83601" lon="5.62661">
        <ele>249.379358</ele>
        <time>2020-07-29T09:22:57.798Z</time>
      </trkpt>
      <trkpt lat="61.83599" lon="5.62689">
        <ele>249.226942</ele>
        <time>2020-07-29T09:23:00.793Z</time>
      </trkpt>
      <trkpt lat="61.83597" lon="5.62707">
        <ele>249.1242</ele>
        <time>2020-07-29T09:23:02.817Z</time>
      </trkpt>
      <trkpt lat="61.83593" lon="5.62726">
        <ele>249.186054</ele>
        <time>2020-07-29T09:23:04.793Z</time>
      </trkpt>
      <trkpt lat="61.83591" lon="5.62745">
        <ele>249.270165</ele>
        <time>2020-07-29T09:23:06.826Z</time>
      </trkpt>
      <trkpt lat="61.83589" lon="5.62767">
        <ele>249.363506</ele>
        <time>2020-07-29T09:23:08.797Z</time>
      </trkpt>
      <trkpt lat="61.83585" lon="5.62792">
        <ele>249.470675</ele>
        <time>2020-07-29T09:23:10.836Z</time>
      </trkpt>
      <trkpt lat="61.83581" lon="5.62818">
        <ele>249.581207</ele>
        <time>2020-07-29T09:23:12.793Z</time>
      </trkpt>
      <trkpt lat="61.83577" lon="5.62844">
        <ele>249.697031</ele>
        <time>2020-07-29T09:23:14.791Z</time>
      </trkpt>
      <trkpt lat="61.83573" lon="5.62871">
        <ele>249.812608</ele>
        <time>2020-07-29T09:23:16.808Z</time>
      </trkpt>
      <trkpt lat="61.83569" lon="5.62899">
        <ele>249.932957</ele>
        <time>2020-07-29T09:23:18.800Z</time>
      </trkpt>
      <trkpt lat="61.83564" lon="5.62926">
        <ele>250.052528</ele>
        <time>2020-07-29T09:23:20.799Z</time>
      </trkpt>
      <trkpt lat="61.8356" lon="5.62952">
        <ele>250.167056</ele>
        <time>2020-07-29T09:23:22.825Z</time>
      </trkpt>
      <trkpt lat="61.83556" lon="5.6298">
        <ele>250.286555</ele>
        <time>2020-07-29T09:23:24.813Z</time>
      </trkpt>
      <trkpt lat="61.83553" lon="5.63009">
        <ele>250.410509</ele>
        <time>2020-07-29T09:23:26.795Z</time>
      </trkpt>
      <trkpt lat="61.83552" lon="5.63039">
        <ele>250.531493</ele>
        <time>2020-07-29T09:23:28.806Z</time>
      </trkpt>
      <trkpt lat="61.83551" lon="5.63068">
        <ele>250.652383</ele>
        <time>2020-07-29T09:23:30.808Z</time>
      </trkpt>
      <trkpt lat="61.83553" lon="5.63097">
        <ele>250.630177</ele>
        <time>2020-07-29T09:23:32.837Z</time>
      </trkpt>
      <trkpt lat="61.83555" lon="5.63124">
        <ele>250.558483</ele>
        <time>2020-07-29T09:23:34.827Z</time>
      </trkpt>
      <trkpt lat="61.83558" lon="5.6315">
        <ele>250.489048</ele>
        <time>2020-07-29T09:23:36.789Z</time>
      </trkpt>
      <trkpt lat="61.8356" lon="5.63176">
        <ele>250.419867</ele>
        <time>2020-07-29T09:23:38.817Z</time>
      </trkpt>
      <trkpt lat="61.83563" lon="5.63202">
        <ele>250.351083</ele>
        <time>2020-07-29T09:23:40.805Z</time>
      </trkpt>
      <trkpt lat="61.83566" lon="5.63228">
        <ele>250.283</ele>
        <time>2020-07-29T09:23:42.787Z</time>
      </trkpt>
      <trkpt lat="61.83571" lon="5.63254">
        <ele>250.208539</ele>
        <time>2020-07-29T09:23:44.841Z</time>
      </trkpt>
      <trkpt lat="61.83575" lon="5.63282">
        <ele>250.133607</ele>
        <time>2020-07-29T09:23:46.837Z</time>
      </trkpt>
      <trkpt lat="61.83577" lon="5.63308">
        <ele>250.064315</ele>
        <time>2020-07-29T09:23:48.817Z</time>
      </trkpt>
      <trkpt lat="61.83579" lon="5.63334">
        <ele>249.996273</ele>
        <time>2020-07-29T09:23:50.813Z</time>
      </trkpt>
      <trkpt lat="61.83579" lon="5.6336">
        <ele>249.929505</ele>
        <time>2020-07-29T09:23:52.799Z</time>
      </trkpt>
      <trkpt lat="61.8358" lon="5.63383">
        <ele>249.868112</ele>
        <time>2020-07-29T09:23:54.800Z</time>
      </trkpt>
      <trkpt lat="61.8358" lon="5.63404">
        <ele>249.814329</ele>
        <time>2020-07-29T09:23:56.817Z</time>
      </trkpt>
      <trkpt lat="61.8358" lon="5.63425">
        <ele>249.761066</ele>
        <time>2020-07-29T09:23:58.806Z</time>
      </trkpt>
      <trkpt lat="61.8358" lon="5.63445">
        <ele>249.708591</ele>
        <time>2020-07-29T09:24:00.810Z</time>
      </trkpt>
      <trkpt lat="61.8358" lon="5.63465">
        <ele>249.205463</ele>
        <time>2020-07-29T09:24:02.811Z</time>
      </trkpt>
      <trkpt lat="61.83579" lon="5.63485">
        <ele>248.522677</ele>
        <time>2020-07-29T09:24:04.783Z</time>
      </trkpt>
      <trkpt lat="61.83579" lon="5.63506">
        <ele>247.829999</ele>
        <time>2020-07-29T09:24:06.810Z</time>
      </trkpt>
      <trkpt lat="61.83578" lon="5.63525">
        <ele>247.195426</ele>
        <time>2020-07-29T09:24:08.809Z</time>
      </trkpt>
      <trkpt lat="61.83578" lon="5.63545">
        <ele>246.537507</ele>
        <time>2020-07-29T09:24:10.796Z</time>
      </trkpt>
      <trkpt lat="61.83578" lon="5.63566">
        <ele>245.832472</ele>
        <time>2020-07-29T09:24:12.794Z</time>
      </trkpt>
      <trkpt lat="61.83579" lon="5.63589">
        <ele>245.09842</ele>
        <time>2020-07-29T09:24:14.834Z</time>
      </trkpt>
      <trkpt lat="61.83579" lon="5.63611">
        <ele>244.36727</ele>
        <time>2020-07-29T09:24:16.797Z</time>
      </trkpt>
      <trkpt lat="61.83579" lon="5.63633">
        <ele>243.636624</ele>
        <time>2020-07-29T09:24:18.785Z</time>
      </trkpt>
      <trkpt lat="61.83579" lon="5.63655">
        <ele>242.892492</ele>
        <time>2020-07-29T09:24:20.809Z</time>
      </trkpt>
      <trkpt lat="61.83579" lon="5.63679">
        <ele>242.115565</ele>
        <time>2020-07-29T09:24:22.789Z</time>
      </trkpt>
      <trkpt lat="61.83579" lon="5.63703">
        <ele>241.308916</ele>
        <time>2020-07-29T09:24:24.801Z</time>
      </trkpt>
      <trkpt lat="61.83579" lon="5.63729">
        <ele>240.468945</ele>
        <time>2020-07-29T09:24:26.803Z</time>
      </trkpt>
      <trkpt lat="61.8358" lon="5.63754">
        <ele>239.644308</ele>
        <time>2020-07-29T09:24:28.791Z</time>
      </trkpt>
      <trkpt lat="61.83582" lon="5.63778">
        <ele>238.823493</ele>
        <time>2020-07-29T09:24:30.812Z</time>
      </trkpt>
      <trkpt lat="61.83584" lon="5.63803">
        <ele>237.97543</ele>
        <time>2020-07-29T09:24:32.797Z</time>
      </trkpt>
      <trkpt lat="61.83588" lon="5.6383">
        <ele>237.069924</ele>
        <time>2020-07-29T09:24:34.809Z</time>
      </trkpt>
      <trkpt lat="61.83592" lon="5.63859">
        <ele>236.350929</ele>
        <time>2020-07-29T09:24:36.833Z</time>
      </trkpt>
      <trkpt lat="61.83598" lon="5.6389">
        <ele>235.573756</ele>
        <time>2020-07-29T09:24:38.787Z</time>
      </trkpt>
      <trkpt lat="61.83604" lon="5.63922">
        <ele>234.783303</ele>
        <time>2020-07-29T09:24:40.817Z</time>
      </trkpt>
      <trkpt lat="61.83608" lon="5.63955">
        <ele>233.978989</ele>
        <time>2020-07-29T09:24:42.787Z</time>
      </trkpt>
      <trkpt lat="61.83612" lon="5.63989">
        <ele>233.161763</ele>
        <time>2020-07-29T09:24:44.804Z</time>
      </trkpt>
      <trkpt lat="61.83616" lon="5.64024">
        <ele>232.337645</ele>
        <time>2020-07-29T09:24:46.792Z</time>
      </trkpt>
      <trkpt lat="61.83619" lon="5.6406">
        <ele>231.474954</ele>
        <time>2020-07-29T09:24:48.809Z</time>
      </trkpt>
      <trkpt lat="61.83623" lon="5.64097">
        <ele>230.583673</ele>
        <time>2020-07-29T09:24:50.795Z</time>
      </trkpt>
      <trkpt lat="61.83625" lon="5.64116">
        <ele>230.126111</ele>
        <time>2020-07-29T09:24:51.806Z</time>
      </trkpt>
      <trkpt lat="61.83627" lon="5.64136">
        <ele>229.666267</ele>
        <time>2020-07-29T09:24:52.829Z</time>
      </trkpt>
      <trkpt lat="61.83629" lon="5.64155">
        <ele>229.191825</ele>
        <time>2020-07-29T09:24:53.789Z</time>
      </trkpt>
      <trkpt lat="61.83631" lon="5.64175">
        <ele>228.719228</ele>
        <time>2020-07-29T09:24:54.796Z</time>
      </trkpt>
      <trkpt lat="61.83632" lon="5.64195">
        <ele>228.243792</ele>
        <time>2020-07-29T09:24:55.827Z</time>
      </trkpt>
      <trkpt lat="61.83634" lon="5.64216">
        <ele>227.879561</ele>
        <time>2020-07-29T09:24:56.808Z</time>
      </trkpt>
      <trkpt lat="61.83636" lon="5.64237">
        <ele>227.514664</ele>
        <time>2020-07-29T09:24:57.832Z</time>
      </trkpt>
      <trkpt lat="61.83637" lon="5.64258">
        <ele>227.150253</ele>
        <time>2020-07-29T09:24:58.801Z</time>
      </trkpt>
      <trkpt lat="61.83638" lon="5.64279">
        <ele>226.782309</ele>
        <time>2020-07-29T09:24:59.802Z</time>
      </trkpt>
      <trkpt lat="61.83638" lon="5.64301">
        <ele>226.407211</ele>
        <time>2020-07-29T09:25:00.851Z</time>
      </trkpt>
      <trkpt lat="61.83637" lon="5.64323">
        <ele>226.029282</ele>
        <time>2020-07-29T09:25:01.809Z</time>
      </trkpt>
      <trkpt lat="61.83635" lon="5.64345">
        <ele>225.637229</ele>
        <time>2020-07-29T09:25:02.815Z</time>
      </trkpt>
      <trkpt lat="61.83633" lon="5.64368">
        <ele>225.24281</ele>
        <time>2020-07-29T09:25:03.806Z</time>
      </trkpt>
      <trkpt lat="61.8363" lon="5.6439">
        <ele>224.844829</ele>
        <time>2020-07-29T09:25:04.791Z</time>
      </trkpt>
      <trkpt lat="61.83627" lon="5.64412">
        <ele>224.44437</ele>
        <time>2020-07-29T09:25:05.817Z</time>
      </trkpt>
      <trkpt lat="61.83624" lon="5.64434">
        <ele>224.044436</ele>
        <time>2020-07-29T09:25:06.807Z</time>
      </trkpt>
      <trkpt lat="61.8362" lon="5.64457">
        <ele>223.633273</ele>
        <time>2020-07-29T09:25:07.812Z</time>
      </trkpt>
      <trkpt lat="61.83616" lon="5.64479">
        <ele>223.219595</ele>
        <time>2020-07-29T09:25:08.807Z</time>
      </trkpt>
      <trkpt lat="61.83612" lon="5.64502">
        <ele>222.802696</ele>
        <time>2020-07-29T09:25:09.792Z</time>
      </trkpt>
      <trkpt lat="61.83608" lon="5.64524">
        <ele>222.386392</ele>
        <time>2020-07-29T09:25:10.870Z</time>
      </trkpt>
      <trkpt lat="61.83603" lon="5.64547">
        <ele>221.971415</ele>
        <time>2020-07-29T09:25:11.803Z</time>
      </trkpt>
      <trkpt lat="61.83599" lon="5.64569">
        <ele>221.528287</ele>
        <time>2020-07-29T09:25:12.794Z</time>
      </trkpt>
      <trkpt lat="61.83595" lon="5.6459">
        <ele>220.946836</ele>
        <time>2020-07-29T09:25:13.838Z</time>
      </trkpt>
      <trkpt lat="61.83592" lon="5.64612">
        <ele>220.377441</ele>
        <time>2020-07-29T09:25:14.819Z</time>
      </trkpt>
      <trkpt lat="61.83589" lon="5.64634">
        <ele>219.798896</ele>
        <time>2020-07-29T09:25:15.791Z</time>
      </trkpt>
      <trkpt lat="61.83584" lon="5.64656">
        <ele>219.187889</ele>
        <time>2020-07-29T09:25:16.852Z</time>
      </trkpt>
      <trkpt lat="61.83581" lon="5.64679">
        <ele>218.597878</ele>
        <time>2020-07-29T09:25:17.785Z</time>
      </trkpt>
      <trkpt lat="61.83579" lon="5.647">
        <ele>218.052423</ele>
        <time>2020-07-29T09:25:18.810Z</time>
      </trkpt>
      <trkpt lat="61.83577" lon="5.64721">
        <ele>217.525584</ele>
        <time>2020-07-29T09:25:19.802Z</time>
      </trkpt>
      <trkpt lat="61.83576" lon="5.64741">
        <ele>217.00729</ele>
        <time>2020-07-29T09:25:20.788Z</time>
      </trkpt>
      <trkpt lat="61.83576" lon="5.64762">
        <ele>216.495315</ele>
        <time>2020-07-29T09:25:21.798Z</time>
      </trkpt>
      <trkpt lat="61.83576" lon="5.64782">
        <ele>215.996291</ele>
        <time>2020-07-29T09:25:22.811Z</time>
      </trkpt>
      <trkpt lat="61.83576" lon="5.64801">
        <ele>215.509108</ele>
        <time>2020-07-29T09:25:23.820Z</time>
      </trkpt>
      <trkpt lat="61.83578" lon="5.64839">
        <ele>214.563387</ele>
        <time>2020-07-29T09:25:25.804Z</time>
      </trkpt>
      <trkpt lat="61.83582" lon="5.64875">
        <ele>213.639885</ele>
        <time>2020-07-29T09:25:27.794Z</time>
      </trkpt>
      <trkpt lat="61.83586" lon="5.64912">
        <ele>212.687975</ele>
        <time>2020-07-29T09:25:29.814Z</time>
      </trkpt>
      <trkpt lat="61.83588" lon="5.6493">
        <ele>212.210688</ele>
        <time>2020-07-29T09:25:30.798Z</time>
      </trkpt>
      <trkpt lat="61.83593" lon="5.64967">
        <ele>210.997561</ele>
        <time>2020-07-29T09:25:32.797Z</time>
      </trkpt>
      <trkpt lat="61.83594" lon="5.64985">
        <ele>210.3704</ele>
        <time>2020-07-29T09:25:33.804Z</time>
      </trkpt>
      <trkpt lat="61.83596" lon="5.65004">
        <ele>209.737058</ele>
        <time>2020-07-29T09:25:34.784Z</time>
      </trkpt>
      <trkpt lat="61.83598" lon="5.65023">
        <ele>209.103717</ele>
        <time>2020-07-29T09:25:35.800Z</time>
      </trkpt>
      <trkpt lat="61.83601" lon="5.65041">
        <ele>208.467136</ele>
        <time>2020-07-29T09:25:36.845Z</time>
      </trkpt>
      <trkpt lat="61.83604" lon="5.65078">
        <ele>207.240468</ele>
        <time>2020-07-29T09:25:38.845Z</time>
      </trkpt>
      <trkpt lat="61.83609" lon="5.65112">
        <ele>206.068221</ele>
        <time>2020-07-29T09:25:40.795Z</time>
      </trkpt>
      <trkpt lat="61.83613" lon="5.65141">
        <ele>205.060742</ele>
        <time>2020-07-29T09:25:42.813Z</time>
      </trkpt>
      <trkpt lat="61.83616" lon="5.65163">
        <ele>204.299237</ele>
        <time>2020-07-29T09:25:44.789Z</time>
      </trkpt>
      <trkpt lat="61.83618" lon="5.65183">
        <ele>203.638581</ele>
        <time>2020-07-29T09:25:46.785Z</time>
      </trkpt>
      <trkpt lat="61.83619" lon="5.65206">
        <ele>202.867676</ele>
        <time>2020-07-29T09:25:48.815Z</time>
      </trkpt>
      <trkpt lat="61.83619" lon="5.6523">
        <ele>202.081415</ele>
        <time>2020-07-29T09:25:50.814Z</time>
      </trkpt>
      <trkpt lat="61.83621" lon="5.65252">
        <ele>201.341613</ele>
        <time>2020-07-29T09:25:52.804Z</time>
      </trkpt>
      <trkpt lat="61.83624" lon="5.65277">
        <ele>200.466363</ele>
        <time>2020-07-29T09:25:54.819Z</time>
      </trkpt>
      <trkpt lat="61.83627" lon="5.65306">
        <ele>199.513041</ele>
        <time>2020-07-29T09:25:56.814Z</time>
      </trkpt>
      <trkpt lat="61.83628" lon="5.65337">
        <ele>198.02282</ele>
        <time>2020-07-29T09:25:58.804Z</time>
      </trkpt>
      <trkpt lat="61.83629" lon="5.65367">
        <ele>196.617904</ele>
        <time>2020-07-29T09:26:00.790Z</time>
      </trkpt>
      <trkpt lat="61.83631" lon="5.65394">
        <ele>195.333801</ele>
        <time>2020-07-29T09:26:02.808Z</time>
      </trkpt>
      <trkpt lat="61.83635" lon="5.65419">
        <ele>194.143021</ele>
        <time>2020-07-29T09:26:04.795Z</time>
      </trkpt>
      <trkpt lat="61.83639" lon="5.65444">
        <ele>192.877169</ele>
        <time>2020-07-29T09:26:06.803Z</time>
      </trkpt>
      <trkpt lat="61.83643" lon="5.65471">
        <ele>191.570101</ele>
        <time>2020-07-29T09:26:08.803Z</time>
      </trkpt>
      <trkpt lat="61.83648" lon="5.65501">
        <ele>190.061851</ele>
        <time>2020-07-29T09:26:10.795Z</time>
      </trkpt>
      <trkpt lat="61.83653" lon="5.65534">
        <ele>188.411409</ele>
        <time>2020-07-29T09:26:12.814Z</time>
      </trkpt>
      <trkpt lat="61.83657" lon="5.65552">
        <ele>187.515086</ele>
        <time>2020-07-29T09:26:13.800Z</time>
      </trkpt>
      <trkpt lat="61.8366" lon="5.6557">
        <ele>186.597681</ele>
        <time>2020-07-29T09:26:14.808Z</time>
      </trkpt>
      <trkpt lat="61.83663" lon="5.65588">
        <ele>185.70403</ele>
        <time>2020-07-29T09:26:15.797Z</time>
      </trkpt>
      <trkpt lat="61.83668" lon="5.65624">
        <ele>183.974094</ele>
        <time>2020-07-29T09:26:17.796Z</time>
      </trkpt>
      <trkpt lat="61.83673" lon="5.65657">
        <ele>182.364421</ele>
        <time>2020-07-29T09:26:19.801Z</time>
      </trkpt>
      <trkpt lat="61.8368" lon="5.65688">
        <ele>180.600685</ele>
        <time>2020-07-29T09:26:21.797Z</time>
      </trkpt>
      <trkpt lat="61.8369" lon="5.6572">
        <ele>178.700589</ele>
        <time>2020-07-29T09:26:23.817Z</time>
      </trkpt>
      <trkpt lat="61.83695" lon="5.65737">
        <ele>177.645095</ele>
        <time>2020-07-29T09:26:24.808Z</time>
      </trkpt>
      <trkpt lat="61.83701" lon="5.65754">
        <ele>176.595993</ele>
        <time>2020-07-29T09:26:25.817Z</time>
      </trkpt>
      <trkpt lat="61.83706" lon="5.6577">
        <ele>175.590216</ele>
        <time>2020-07-29T09:26:26.793Z</time>
      </trkpt>
      <trkpt lat="61.83715" lon="5.65801">
        <ele>173.70001</ele>
        <time>2020-07-29T09:26:28.798Z</time>
      </trkpt>
      <trkpt lat="61.83724" lon="5.65827">
        <ele>172.076091</ele>
        <time>2020-07-29T09:26:30.805Z</time>
      </trkpt>
      <trkpt lat="61.83731" lon="5.65851">
        <ele>170.633783</ele>
        <time>2020-07-29T09:26:32.795Z</time>
      </trkpt>
      <trkpt lat="61.83738" lon="5.65878">
        <ele>169.092843</ele>
        <time>2020-07-29T09:26:34.805Z</time>
      </trkpt>
      <trkpt lat="61.83744" lon="5.65903">
        <ele>167.61416</ele>
        <time>2020-07-29T09:26:36.849Z</time>
      </trkpt>
      <trkpt lat="61.83751" lon="5.65926">
        <ele>166.214192</ele>
        <time>2020-07-29T09:26:38.808Z</time>
      </trkpt>
      <trkpt lat="61.83759" lon="5.65947">
        <ele>164.870303</ele>
        <time>2020-07-29T09:26:40.828Z</time>
      </trkpt>
      <trkpt lat="61.83767" lon="5.65967">
        <ele>163.505864</ele>
        <time>2020-07-29T09:26:42.810Z</time>
      </trkpt>
      <trkpt lat="61.83775" lon="5.65988">
        <ele>162.138627</ele>
        <time>2020-07-29T09:26:44.813Z</time>
      </trkpt>
      <trkpt lat="61.83784" lon="5.66007">
        <ele>160.330427</ele>
        <time>2020-07-29T09:26:46.787Z</time>
      </trkpt>
      <trkpt lat="61.83793" lon="5.66025">
        <ele>158.600517</ele>
        <time>2020-07-29T09:26:48.801Z</time>
      </trkpt>
      <trkpt lat="61.83802" lon="5.66043">
        <ele>156.846854</ele>
        <time>2020-07-29T09:26:50.795Z</time>
      </trkpt>
      <trkpt lat="61.8381" lon="5.66063">
        <ele>155.152961</ele>
        <time>2020-07-29T09:26:52.789Z</time>
      </trkpt>
      <trkpt lat="61.83815" lon="5.66084">
        <ele>153.584684</ele>
        <time>2020-07-29T09:26:54.846Z</time>
      </trkpt>
      <trkpt lat="61.83819" lon="5.66106">
        <ele>152.047841</ele>
        <time>2020-07-29T09:26:56.818Z</time>
      </trkpt>
      <trkpt lat="61.83823" lon="5.66131">
        <ele>150.337842</ele>
        <time>2020-07-29T09:26:58.794Z</time>
      </trkpt>
      <trkpt lat="61.83826" lon="5.66158">
        <ele>148.472661</ele>
        <time>2020-07-29T09:27:00.816Z</time>
      </trkpt>
      <trkpt lat="61.83829" lon="5.66185">
        <ele>146.64193</ele>
        <time>2020-07-29T09:27:02.807Z</time>
      </trkpt>
      <trkpt lat="61.83832" lon="5.66212">
        <ele>144.773456</ele>
        <time>2020-07-29T09:27:04.812Z</time>
      </trkpt>
      <trkpt lat="61.83836" lon="5.66241">
        <ele>142.820795</ele>
        <time>2020-07-29T09:27:06.792Z</time>
      </trkpt>
      <trkpt lat="61.8384" lon="5.66269">
        <ele>140.901233</ele>
        <time>2020-07-29T09:27:08.840Z</time>
      </trkpt>
      <trkpt lat="61.83844" lon="5.66297">
        <ele>138.94815</ele>
        <time>2020-07-29T09:27:10.807Z</time>
      </trkpt>
      <trkpt lat="61.83848" lon="5.66328">
        <ele>136.862198</ele>
        <time>2020-07-29T09:27:12.796Z</time>
      </trkpt>
      <trkpt lat="61.83851" lon="5.6636">
        <ele>134.921478</ele>
        <time>2020-07-29T09:27:14.808Z</time>
      </trkpt>
      <trkpt lat="61.83853" lon="5.66391">
        <ele>133.068333</ele>
        <time>2020-07-29T09:27:16.810Z</time>
      </trkpt>
      <trkpt lat="61.83855" lon="5.66417">
        <ele>131.456092</ele>
        <time>2020-07-29T09:27:18.831Z</time>
      </trkpt>
      <trkpt lat="61.83857" lon="5.66444">
        <ele>129.843043</ele>
        <time>2020-07-29T09:27:20.806Z</time>
      </trkpt>
      <trkpt lat="61.83858" lon="5.66468">
        <ele>128.412155</ele>
        <time>2020-07-29T09:27:22.819Z</time>
      </trkpt>
      <trkpt lat="61.8386" lon="5.66487">
        <ele>127.241194</ele>
        <time>2020-07-29T09:27:24.795Z</time>
      </trkpt>
      <trkpt lat="61.83863" lon="5.6651">
        <ele>125.815165</ele>
        <time>2020-07-29T09:27:27.810Z</time>
      </trkpt>
      <trkpt lat="61.83867" lon="5.66537">
        <ele>124.172242</ele>
        <time>2020-07-29T09:27:30.797Z</time>
      </trkpt>
      <trkpt lat="61.83871" lon="5.66563">
        <ele>122.549192</ele>
        <time>2020-07-29T09:27:32.809Z</time>
      </trkpt>
      <trkpt lat="61.83875" lon="5.66598">
        <ele>120.358031</ele>
        <time>2020-07-29T09:27:34.812Z</time>
      </trkpt>
      <trkpt lat="61.83878" lon="5.66617">
        <ele>119.20121</ele>
        <time>2020-07-29T09:27:35.825Z</time>
      </trkpt>
      <trkpt lat="61.83882" lon="5.66653">
        <ele>117.028639</ele>
        <time>2020-07-29T09:27:37.822Z</time>
      </trkpt>
      <trkpt lat="61.83884" lon="5.66684">
        <ele>115.147452</ele>
        <time>2020-07-29T09:27:39.792Z</time>
      </trkpt>
      <trkpt lat="61.83884" lon="5.66711">
        <ele>113.305146</ele>
        <time>2020-07-29T09:27:41.799Z</time>
      </trkpt>
      <trkpt lat="61.83884" lon="5.66736">
        <ele>111.349332</ele>
        <time>2020-07-29T09:27:43.796Z</time>
      </trkpt>
      <trkpt lat="61.83884" lon="5.66758">
        <ele>109.628693</ele>
        <time>2020-07-29T09:27:45.837Z</time>
      </trkpt>
      <trkpt lat="61.83886" lon="5.66782">
        <ele>107.710103</ele>
        <time>2020-07-29T09:27:48.817Z</time>
      </trkpt>
      <trkpt lat="61.83887" lon="5.66802">
        <ele>106.14665</ele>
        <time>2020-07-29T09:27:51.803Z</time>
      </trkpt>
      <trkpt lat="61.83886" lon="5.66826">
        <ele>104.288404</ele>
        <time>2020-07-29T09:27:55.849Z</time>
      </trkpt>
      <trkpt lat="61.83881" lon="5.66842">
        <ele>102.739321</ele>
        <time>2020-07-29T09:27:58.808Z</time>
      </trkpt>
      <trkpt lat="61.83871" lon="5.66852">
        <ele>100.911313</ele>
        <time>2020-07-29T09:28:01.799Z</time>
      </trkpt>
      <trkpt lat="61.8386" lon="5.66848">
        <ele>99.158354</ele>
        <time>2020-07-29T09:28:04.827Z</time>
      </trkpt>
      <trkpt lat="61.83851" lon="5.66837">
        <ele>97.423004</ele>
        <time>2020-07-29T09:28:07.796Z</time>
      </trkpt>
      <trkpt lat="61.83842" lon="5.66828">
        <ele>95.81383</ele>
        <time>2020-07-29T09:28:10.785Z</time>
      </trkpt>
      <trkpt lat="61.83833" lon="5.66838">
        <ele>94.073065</ele>
        <time>2020-07-29T09:28:13.791Z</time>
      </trkpt>
      <trkpt lat="61.83828" lon="5.66863">
        <ele>91.969492</ele>
        <time>2020-07-29T09:28:15.832Z</time>
      </trkpt>
      <trkpt lat="61.83825" lon="5.66891">
        <ele>89.731031</ele>
        <time>2020-07-29T09:28:17.821Z</time>
      </trkpt>
      <trkpt lat="61.83819" lon="5.66921">
        <ele>87.13312</ele>
        <time>2020-07-29T09:28:19.789Z</time>
      </trkpt>
      <trkpt lat="61.83811" lon="5.66951">
        <ele>84.488594</ele>
        <time>2020-07-29T09:28:21.838Z</time>
      </trkpt>
      <trkpt lat="61.83801" lon="5.66978">
        <ele>83.995914</ele>
        <time>2020-07-29T09:28:23.807Z</time>
      </trkpt>
      <trkpt lat="61.83792" lon="5.66994">
        <ele>83.646702</ele>
        <time>2020-07-29T09:28:25.811Z</time>
      </trkpt>
      <trkpt lat="61.83783" lon="5.67012">
        <ele>83.24891</ele>
        <time>2020-07-29T09:28:28.805Z</time>
      </trkpt>
      <trkpt lat="61.83771" lon="5.67026">
        <ele>82.839908</ele>
        <time>2020-07-29T09:28:31.795Z</time>
      </trkpt>
      <trkpt lat="61.83761" lon="5.6704">
        <ele>82.481507</ele>
        <time>2020-07-29T09:28:33.798Z</time>
      </trkpt>
      <trkpt lat="61.83753" lon="5.67056">
        <ele>82.137251</ele>
        <time>2020-07-29T09:28:35.836Z</time>
      </trkpt>
      <trkpt lat="61.8375" lon="5.67076">
        <ele>81.828071</ele>
        <time>2020-07-29T09:28:37.818Z</time>
      </trkpt>
      <trkpt lat="61.83753" lon="5.67097">
        <ele>81.519433</ele>
        <time>2020-07-29T09:28:39.817Z</time>
      </trkpt>
      <trkpt lat="61.83757" lon="5.67117">
        <ele>81.19386</ele>
        <time>2020-07-29T09:28:41.805Z</time>
      </trkpt>
      <trkpt lat="61.83764" lon="5.67133">
        <ele>80.888962</ele>
        <time>2020-07-29T09:28:43.830Z</time>
      </trkpt>
      <trkpt lat="61.8377" lon="5.67149">
        <ele>80.593887</ele>
        <time>2020-07-29T09:28:45.785Z</time>
      </trkpt>
      <trkpt lat="61.83779" lon="5.67164">
        <ele>80.240042</ele>
        <time>2020-07-29T09:28:47.792Z</time>
      </trkpt>
      <trkpt lat="61.83787" lon="5.67179">
        <ele>79.917317</ele>
        <time>2020-07-29T09:28:49.805Z</time>
      </trkpt>
      <trkpt lat="61.83796" lon="5.67194">
        <ele>79.562183</ele>
        <time>2020-07-29T09:28:51.826Z</time>
      </trkpt>
      <trkpt lat="61.83804" lon="5.67214">
        <ele>79.169596</ele>
        <time>2020-07-29T09:28:53.850Z</time>
      </trkpt>
      <trkpt lat="61.83813" lon="5.67238">
        <ele>78.700993</ele>
        <time>2020-07-29T09:28:55.798Z</time>
      </trkpt>
      <trkpt lat="61.8382" lon="5.67257">
        <ele>78.307911</ele>
        <time>2020-07-29T09:28:57.806Z</time>
      </trkpt>
      <trkpt lat="61.83824" lon="5.67279">
        <ele>77.927149</ele>
        <time>2020-07-29T09:29:00.805Z</time>
      </trkpt>
      <trkpt lat="61.83828" lon="5.67305">
        <ele>77.490137</ele>
        <time>2020-07-29T09:29:03.799Z</time>
      </trkpt>
      <trkpt lat="61.83831" lon="5.67325">
        <ele>77.147329</ele>
        <time>2020-07-29T09:29:05.804Z</time>
      </trkpt>
      <trkpt lat="61.83835" lon="5.67348">
        <ele>76.744442</ele>
        <time>2020-07-29T09:29:07.807Z</time>
      </trkpt>
      <trkpt lat="61.8384" lon="5.67373">
        <ele>76.300578</ele>
        <time>2020-07-29T09:29:09.791Z</time>
      </trkpt>
      <trkpt lat="61.83847" lon="5.67399">
        <ele>75.834644</ele>
        <time>2020-07-29T09:29:11.798Z</time>
      </trkpt>
      <trkpt lat="61.83853" lon="5.67426">
        <ele>75.345539</ele>
        <time>2020-07-29T09:29:13.815Z</time>
      </trkpt>
      <trkpt lat="61.8386" lon="5.67453">
        <ele>74.847742</ele>
        <time>2020-07-29T09:29:15.810Z</time>
      </trkpt>
      <trkpt lat="61.83868" lon="5.67481">
        <ele>74.321175</ele>
        <time>2020-07-29T09:29:17.803Z</time>
      </trkpt>
      <trkpt lat="61.83874" lon="5.67509">
        <ele>73.80841</ele>
        <time>2020-07-29T09:29:19.804Z</time>
      </trkpt>
      <trkpt lat="61.83881" lon="5.67532">
        <ele>73.371806</ele>
        <time>2020-07-29T09:29:21.794Z</time>
      </trkpt>
      <trkpt lat="61.83887" lon="5.67548">
        <ele>73.051158</ele>
        <time>2020-07-29T09:29:23.815Z</time>
      </trkpt>
      <trkpt lat="61.83897" lon="5.67566">
        <ele>72.270897</ele>
        <time>2020-07-29T09:29:26.874Z</time>
      </trkpt>
      <trkpt lat="61.83907" lon="5.67583">
        <ele>71.142538</ele>
        <time>2020-07-29T09:29:29.795Z</time>
      </trkpt>
      <trkpt lat="61.83914" lon="5.67596">
        <ele>70.361843</ele>
        <time>2020-07-29T09:29:31.826Z</time>
      </trkpt>
      <trkpt lat="61.83921" lon="5.67609">
        <ele>69.561054</ele>
        <time>2020-07-29T09:29:33.813Z</time>
      </trkpt>
      <trkpt lat="61.83929" lon="5.67622">
        <ele>68.761958</ele>
        <time>2020-07-29T09:29:35.816Z</time>
      </trkpt>
      <trkpt lat="61.83939" lon="5.67641">
        <ele>67.600725</ele>
        <time>2020-07-29T09:29:38.811Z</time>
      </trkpt>
      <trkpt lat="61.83946" lon="5.67655">
        <ele>66.751353</ele>
        <time>2020-07-29T09:29:40.806Z</time>
      </trkpt>
      <trkpt lat="61.83953" lon="5.6767">
        <ele>65.862461</ele>
        <time>2020-07-29T09:29:42.818Z</time>
      </trkpt>
      <trkpt lat="61.83961" lon="5.67684">
        <ele>65.000403</ele>
        <time>2020-07-29T09:29:44.801Z</time>
      </trkpt>
      <trkpt lat="61.83966" lon="5.67701">
        <ele>64.166793</ele>
        <time>2020-07-29T09:29:46.830Z</time>
      </trkpt>
      <trkpt lat="61.83969" lon="5.67728">
        <ele>63.023237</ele>
        <time>2020-07-29T09:29:49.829Z</time>
      </trkpt>
      <trkpt lat="61.83966" lon="5.67754">
        <ele>61.948044</ele>
        <time>2020-07-29T09:29:52.794Z</time>
      </trkpt>
      <trkpt lat="61.83961" lon="5.6777">
        <ele>61.167613</ele>
        <time>2020-07-29T09:29:55.809Z</time>
      </trkpt>
      <trkpt lat="61.83953" lon="5.67785">
        <ele>60.262037</ele>
        <time>2020-07-29T09:29:58.788Z</time>
      </trkpt>
      <trkpt lat="61.83948" lon="5.67801">
        <ele>59.44141</ele>
        <time>2020-07-29T09:30:01.831Z</time>
      </trkpt>
      <trkpt lat="61.8394" lon="5.67821">
        <ele>58.428484</ele>
        <time>2020-07-29T09:30:05.801Z</time>
      </trkpt>
      <trkpt lat="61.83933" lon="5.6784">
        <ele>57.420976</ele>
        <time>2020-07-29T09:30:09.823Z</time>
      </trkpt>
      <trkpt lat="61.83927" lon="5.67857">
        <ele>57.120916</ele>
        <time>2020-07-29T09:30:13.807Z</time>
      </trkpt>
      <trkpt lat="61.83922" lon="5.67873">
        <ele>56.881181</ele>
        <time>2020-07-29T09:30:16.816Z</time>
      </trkpt>
      <trkpt lat="61.83918" lon="5.67899">
        <ele>56.539362</ele>
        <time>2020-07-29T09:30:19.815Z</time>
      </trkpt>
      <trkpt lat="61.83922" lon="5.67921">
        <ele>56.247722</ele>
        <time>2020-07-29T09:30:21.793Z</time>
      </trkpt>
      <trkpt lat="61.8393" lon="5.67937">
        <ele>55.96222</ele>
        <time>2020-07-29T09:30:23.838Z</time>
      </trkpt>
      <trkpt lat="61.83936" lon="5.67951">
        <ele>55.713011</ele>
        <time>2020-07-29T09:30:25.805Z</time>
      </trkpt>
      <trkpt lat="61.83942" lon="5.67974">
        <ele>55.40196</ele>
        <time>2020-07-29T09:30:28.801Z</time>
      </trkpt>
      <trkpt lat="61.83949" lon="5.67993">
        <ele>55.099472</ele>
        <time>2020-07-29T09:30:31.822Z</time>
      </trkpt>
      <trkpt lat="61.83956" lon="5.68012">
        <ele>54.791307</ele>
        <time>2020-07-29T09:30:34.787Z</time>
      </trkpt>
      <trkpt lat="61.83964" lon="5.68034">
        <ele>54.442448</ele>
        <time>2020-07-29T09:30:37.805Z</time>
      </trkpt>
      <trkpt lat="61.83971" lon="5.68056">
        <ele>54.105772</ele>
        <time>2020-07-29T09:30:40.801Z</time>
      </trkpt>
      <trkpt lat="61.83977" lon="5.68077">
        <ele>53.8019</ele>
        <time>2020-07-29T09:30:43.805Z</time>
      </trkpt>
      <trkpt lat="61.83983" lon="5.68098">
        <ele>53.50585</ele>
        <time>2020-07-29T09:30:46.815Z</time>
      </trkpt>
      <trkpt lat="61.83988" lon="5.68122">
        <ele>53.17452</ele>
        <time>2020-07-29T09:30:49.829Z</time>
      </trkpt>
      <trkpt lat="61.83992" lon="5.6814">
        <ele>52.917822</ele>
        <time>2020-07-29T09:30:51.804Z</time>
      </trkpt>
      <trkpt lat="61.83997" lon="5.68159">
        <ele>52.658894</ele>
        <time>2020-07-29T09:30:53.843Z</time>
      </trkpt>
      <trkpt lat="61.84001" lon="5.68178">
        <ele>52.658774</ele>
        <time>2020-07-29T09:30:55.788Z</time>
      </trkpt>
      <trkpt lat="61.84003" lon="5.68197">
        <ele>52.72788</ele>
        <time>2020-07-29T09:30:57.794Z</time>
      </trkpt>
      <trkpt lat="61.84008" lon="5.68223">
        <ele>52.826667</ele>
        <time>2020-07-29T09:31:00.828Z</time>
      </trkpt>
      <trkpt lat="61.84011" lon="5.68242">
        <ele>52.896708</ele>
        <time>2020-07-29T09:31:02.792Z</time>
      </trkpt>
      <trkpt lat="61.84013" lon="5.68262">
        <ele>52.968797</ele>
        <time>2020-07-29T09:31:04.822Z</time>
      </trkpt>
      <trkpt lat="61.84015" lon="5.68281">
        <ele>53.039567</ele>
        <time>2020-07-29T09:31:06.807Z</time>
      </trkpt>
      <trkpt lat="61.84017" lon="5.68301">
        <ele>53.110207</ele>
        <time>2020-07-29T09:31:08.790Z</time>
      </trkpt>
      <trkpt lat="61.84019" lon="5.68328">
        <ele>53.207439</ele>
        <time>2020-07-29T09:31:11.822Z</time>
      </trkpt>
      <trkpt lat="61.84022" lon="5.68346">
        <ele>53.275652</ele>
        <time>2020-07-29T09:31:13.801Z</time>
      </trkpt>
      <trkpt lat="61.84025" lon="5.68364">
        <ele>53.343624</ele>
        <time>2020-07-29T09:31:15.811Z</time>
      </trkpt>
      <trkpt lat="61.8403" lon="5.68389">
        <ele>53.441416</ele>
        <time>2020-07-29T09:31:18.819Z</time>
      </trkpt>
      <trkpt lat="61.84036" lon="5.68414">
        <ele>53.538593</ele>
        <time>2020-07-29T09:31:21.796Z</time>
      </trkpt>
      <trkpt lat="61.84044" lon="5.68438">
        <ele>53.638308</ele>
        <time>2020-07-29T09:31:24.784Z</time>
      </trkpt>
      <trkpt lat="61.8405" lon="5.6846">
        <ele>53.731925</ele>
        <time>2020-07-29T09:31:27.804Z</time>
      </trkpt>
      <trkpt lat="61.84056" lon="5.68481">
        <ele>53.820756</ele>
        <time>2020-07-29T09:31:30.789Z</time>
      </trkpt>
      <trkpt lat="61.84063" lon="5.68503">
        <ele>53.912478</ele>
        <time>2020-07-29T09:31:33.798Z</time>
      </trkpt>
      <trkpt lat="61.84069" lon="5.68527">
        <ele>54.101405</ele>
        <time>2020-07-29T09:31:36.830Z</time>
      </trkpt>
      <trkpt lat="61.84074" lon="5.68548">
        <ele>54.33304</ele>
        <time>2020-07-29T09:31:39.797Z</time>
      </trkpt>
      <trkpt lat="61.8408" lon="5.6857">
        <ele>54.564983</ele>
        <time>2020-07-29T09:31:42.807Z</time>
      </trkpt>
      <trkpt lat="61.84085" lon="5.6859">
        <ele>54.769784</ele>
        <time>2020-07-29T09:31:45.817Z</time>
      </trkpt>
      <trkpt lat="61.84089" lon="5.68609">
        <ele>54.969519</ele>
        <time>2020-07-29T09:31:48.797Z</time>
      </trkpt>
      <trkpt lat="61.84095" lon="5.68629">
        <ele>55.189655</ele>
        <time>2020-07-29T09:31:51.794Z</time>
      </trkpt>
      <trkpt lat="61.84101" lon="5.6865">
        <ele>55.418468</ele>
        <time>2020-07-29T09:31:54.784Z</time>
      </trkpt>
      <trkpt lat="61.84107" lon="5.68671">
        <ele>55.651091</ele>
        <time>2020-07-29T09:31:57.815Z</time>
      </trkpt>
      <trkpt lat="61.84112" lon="5.68692">
        <ele>55.875252</ele>
        <time>2020-07-29T09:32:00.815Z</time>
      </trkpt>
      <trkpt lat="61.84118" lon="5.68713">
        <ele>56.098422</ele>
        <time>2020-07-29T09:32:03.793Z</time>
      </trkpt>
      <trkpt lat="61.84125" lon="5.68733">
        <ele>56.327098</ele>
        <time>2020-07-29T09:32:06.788Z</time>
      </trkpt>
      <trkpt lat="61.84129" lon="5.68753">
        <ele>56.532644</ele>
        <time>2020-07-29T09:32:09.835Z</time>
      </trkpt>
      <trkpt lat="61.84134" lon="5.68771">
        <ele>56.729014</ele>
        <time>2020-07-29T09:32:12.824Z</time>
      </trkpt>
      <trkpt lat="61.84141" lon="5.68792">
        <ele>56.969216</ele>
        <time>2020-07-29T09:32:15.825Z</time>
      </trkpt>
      <trkpt lat="61.84148" lon="5.68813">
        <ele>57.205884</ele>
        <time>2020-07-29T09:32:18.804Z</time>
      </trkpt>
      <trkpt lat="61.84153" lon="5.68829">
        <ele>57.383815</ele>
        <time>2020-07-29T09:32:20.827Z</time>
      </trkpt>
      <trkpt lat="61.8416" lon="5.68849">
        <ele>57.59434</ele>
        <time>2020-07-29T09:32:23.813Z</time>
      </trkpt>
      <trkpt lat="61.84166" lon="5.6887">
        <ele>57.771613</ele>
        <time>2020-07-29T09:32:26.807Z</time>
      </trkpt>
      <trkpt lat="61.8417" lon="5.68892">
        <ele>57.942304</ele>
        <time>2020-07-29T09:32:29.797Z</time>
      </trkpt>
      <trkpt lat="61.84177" lon="5.68916">
        <ele>58.142722</ele>
        <time>2020-07-29T09:32:32.800Z</time>
      </trkpt>
      <trkpt lat="61.84184" lon="5.68938">
        <ele>58.336053</ele>
        <time>2020-07-29T09:32:35.796Z</time>
      </trkpt>
      <trkpt lat="61.84189" lon="5.68955">
        <ele>58.476594</ele>
        <time>2020-07-29T09:32:37.791Z</time>
      </trkpt>
      <trkpt lat="61.84195" lon="5.68979">
        <ele>58.676345</ele>
        <time>2020-07-29T09:32:40.811Z</time>
      </trkpt>
      <trkpt lat="61.84201" lon="5.69003">
        <ele>58.871874</ele>
        <time>2020-07-29T09:32:43.795Z</time>
      </trkpt>
      <trkpt lat="61.84207" lon="5.69026">
        <ele>59.062248</ele>
        <time>2020-07-29T09:32:46.825Z</time>
      </trkpt>
      <trkpt lat="61.84212" lon="5.69047">
        <ele>59.234766</ele>
        <time>2020-07-29T09:32:49.820Z</time>
      </trkpt>
      <trkpt lat="61.84218" lon="5.69069">
        <ele>59.406642</ele>
        <time>2020-07-29T09:32:52.797Z</time>
      </trkpt>
      <trkpt lat="61.84224" lon="5.69089">
        <ele>59.582867</ele>
        <time>2020-07-29T09:32:55.815Z</time>
      </trkpt>
      <trkpt lat="61.8423" lon="5.69111">
        <ele>59.769248</ele>
        <time>2020-07-29T09:32:58.805Z</time>
      </trkpt>
      <trkpt lat="61.84236" lon="5.69132">
        <ele>59.941974</ele>
        <time>2020-07-29T09:33:01.837Z</time>
      </trkpt>
      <trkpt lat="61.8424" lon="5.69152">
        <ele>60.0996</ele>
        <time>2020-07-29T09:33:04.808Z</time>
      </trkpt>
      <trkpt lat="61.84245" lon="5.69171">
        <ele>60.25322</ele>
        <time>2020-07-29T09:33:07.806Z</time>
      </trkpt>
      <trkpt lat="61.84249" lon="5.69189">
        <ele>60.872136</ele>
        <time>2020-07-29T09:33:10.804Z</time>
      </trkpt>
      <trkpt lat="61.84254" lon="5.69206">
        <ele>61.523437</ele>
        <time>2020-07-29T09:33:13.813Z</time>
      </trkpt>
      <trkpt lat="61.84258" lon="5.69223">
        <ele>62.135364</ele>
        <time>2020-07-29T09:33:16.801Z</time>
      </trkpt>
      <trkpt lat="61.84264" lon="5.69243">
        <ele>62.854264</ele>
        <time>2020-07-29T09:33:20.798Z</time>
      </trkpt>
      <trkpt lat="61.84269" lon="5.69261">
        <ele>63.515036</ele>
        <time>2020-07-29T09:33:24.808Z</time>
      </trkpt>
      <trkpt lat="61.84272" lon="5.6928">
        <ele>64.145277</ele>
        <time>2020-07-29T09:33:28.820Z</time>
      </trkpt>
      <trkpt lat="61.84276" lon="5.69301">
        <ele>64.861028</ele>
        <time>2020-07-29T09:33:33.807Z</time>
      </trkpt>
      <trkpt lat="61.84281" lon="5.6932">
        <ele>65.540646</ele>
        <time>2020-07-29T09:33:38.810Z</time>
      </trkpt>
      <trkpt lat="61.84286" lon="5.69336">
        <ele>66.158489</ele>
        <time>2020-07-29T09:33:43.819Z</time>
      </trkpt>
      <trkpt lat="61.84292" lon="5.69356">
        <ele>66.927309</ele>
        <time>2020-07-29T09:33:48.805Z</time>
      </trkpt>
      <trkpt lat="61.84298" lon="5.69374">
        <ele>67.581404</ele>
        <time>2020-07-29T09:33:52.820Z</time>
      </trkpt>
      <trkpt lat="61.84302" lon="5.69394">
        <ele>68.278882</ele>
        <time>2020-07-29T09:33:57.813Z</time>
      </trkpt>
      <trkpt lat="61.84305" lon="5.69414">
        <ele>68.951542</ele>
        <time>2020-07-29T09:34:02.837Z</time>
      </trkpt>
      <trkpt lat="61.8431" lon="5.69435">
        <ele>69.673062</ele>
        <time>2020-07-29T09:34:08.812Z</time>
      </trkpt>
      <trkpt lat="61.84313" lon="5.69453">
        <ele>70.281811</ele>
        <time>2020-07-29T09:34:13.806Z</time>
      </trkpt>
      <trkpt lat="61.84316" lon="5.69472">
        <ele>70.918333</ele>
        <time>2020-07-29T09:34:18.790Z</time>
      </trkpt>
      <trkpt lat="61.8432" lon="5.69491">
        <ele>71.558129</ele>
        <time>2020-07-29T09:34:24.809Z</time>
      </trkpt>
      <trkpt lat="61.84324" lon="5.6951">
        <ele>72.203069</ele>
        <time>2020-07-29T09:34:31.808Z</time>
      </trkpt>
      <trkpt lat="61.84328" lon="5.69526">
        <ele>72.651328</ele>
        <time>2020-07-29T09:34:36.812Z</time>
      </trkpt>
      <trkpt lat="61.8433" lon="5.69546">
        <ele>73.097541</ele>
        <time>2020-07-29T09:34:41.794Z</time>
      </trkpt>
      <trkpt lat="61.84331" lon="5.69567">
        <ele>73.560006</ele>
        <time>2020-07-29T09:34:46.797Z</time>
      </trkpt>
      <trkpt lat="61.84334" lon="5.69588">
        <ele>74.04526</ele>
        <time>2020-07-29T09:34:51.797Z</time>
      </trkpt>
      <trkpt lat="61.84336" lon="5.69609">
        <ele>74.539139</ele>
        <time>2020-07-29T09:34:56.795Z</time>
      </trkpt>
      <trkpt lat="61.84339" lon="5.69629">
        <ele>74.992689</ele>
        <time>2020-07-29T09:35:01.796Z</time>
      </trkpt>
      <trkpt lat="61.84344" lon="5.69648">
        <ele>75.482082</ele>
        <time>2020-07-29T09:35:07.792Z</time>
      </trkpt>
      <trkpt lat="61.84348" lon="5.69669">
        <ele>75.997256</ele>
        <time>2020-07-29T09:35:12.799Z</time>
      </trkpt>
      <trkpt lat="61.8435" lon="5.69689">
        <ele>76.447259</ele>
        <time>2020-07-29T09:35:18.798Z</time>
      </trkpt>
      <trkpt lat="61.8435" lon="5.69708">
        <ele>76.872498</ele>
        <time>2020-07-29T09:35:24.792Z</time>
      </trkpt>
      <trkpt lat="61.84351" lon="5.69731">
        <ele>77.367292</ele>
        <time>2020-07-29T09:35:31.813Z</time>
      </trkpt>
      <trkpt lat="61.84353" lon="5.69749">
        <ele>77.790756</ele>
        <time>2020-07-29T09:35:37.849Z</time>
      </trkpt>
      <trkpt lat="61.84354" lon="5.69772">
        <ele>78.290615</ele>
        <time>2020-07-29T09:35:44.798Z</time>
      </trkpt>
      <trkpt lat="61.84357" lon="5.6979">
        <ele>78.745705</ele>
        <time>2020-07-29T09:35:49.796Z</time>
      </trkpt>
      <trkpt lat="61.8436" lon="5.69812">
        <ele>79.233108</ele>
        <time>2020-07-29T09:35:55.819Z</time>
      </trkpt>
      <trkpt lat="61.84362" lon="5.69833">
        <ele>79.723368</ele>
        <time>2020-07-29T09:36:01.809Z</time>
      </trkpt>
      <trkpt lat="61.84364" lon="5.69854">
        <ele>80.19916</ele>
        <time>2020-07-29T09:36:08.798Z</time>
      </trkpt>
      <trkpt lat="61.84368" lon="5.69872">
        <ele>80.647212</ele>
        <time>2020-07-29T09:36:14.814Z</time>
      </trkpt>
      <trkpt lat="61.84372" lon="5.69891">
        <ele>81.171306</ele>
        <time>2020-07-29T09:36:21.831Z</time>
      </trkpt>
      <trkpt lat="61.84373" lon="5.69913">
        <ele>81.746712</ele>
        <time>2020-07-29T09:36:28.796Z</time>
      </trkpt>
      <trkpt lat="61.84374" lon="5.69932">
        <ele>82.247321</ele>
        <time>2020-07-29T09:36:33.823Z</time>
      </trkpt>
      <trkpt lat="61.84374" lon="5.69954">
        <ele>82.836464</ele>
        <time>2020-07-29T09:36:39.803Z</time>
      </trkpt>
      <trkpt lat="61.84376" lon="5.69975">
        <ele>83.40271</ele>
        <time>2020-07-29T09:36:45.793Z</time>
      </trkpt>
      <trkpt lat="61.84376" lon="5.69995">
        <ele>83.919004</ele>
        <time>2020-07-29T09:36:51.822Z</time>
      </trkpt>
      <trkpt lat="61.84377" lon="5.70017">
        <ele>84.484225</ele>
        <time>2020-07-29T09:36:57.839Z</time>
      </trkpt>
      <trkpt lat="61.84379" lon="5.70035">
        <ele>84.985085</ele>
        <time>2020-07-29T09:37:02.795Z</time>
      </trkpt>
      <trkpt lat="61.8438" lon="5.70055">
        <ele>85.52262</ele>
        <time>2020-07-29T09:37:09.796Z</time>
      </trkpt>
      <trkpt lat="61.8438" lon="5.70078">
        <ele>86.115828</ele>
        <time>2020-07-29T09:37:15.802Z</time>
      </trkpt>
      <trkpt lat="61.8438" lon="5.701">
        <ele>86.68009</ele>
        <time>2020-07-29T09:37:21.824Z</time>
      </trkpt>
      <trkpt lat="61.84384" lon="5.7012">
        <ele>87.267115</ele>
        <time>2020-07-29T09:37:28.826Z</time>
      </trkpt>
      <trkpt lat="61.8439" lon="5.70138">
        <ele>87.825486</ele>
        <time>2020-07-29T09:37:33.834Z</time>
      </trkpt>
      <trkpt lat="61.84393" lon="5.70156">
        <ele>88.335195</ele>
        <time>2020-07-29T09:37:37.796Z</time>
      </trkpt>
      <trkpt lat="61.84397" lon="5.70179">
        <ele>88.956927</ele>
        <time>2020-07-29T09:37:42.808Z</time>
      </trkpt>
      <trkpt lat="61.84397" lon="5.70198">
        <ele>89.457068</ele>
        <time>2020-07-29T09:37:46.808Z</time>
      </trkpt>
      <trkpt lat="61.84397" lon="5.70217">
        <ele>89.969086</ele>
        <time>2020-07-29T09:37:50.828Z</time>
      </trkpt>
      <trkpt lat="61.84399" lon="5.70237">
        <ele>90.496768</ele>
        <time>2020-07-29T09:37:54.819Z</time>
      </trkpt>
      <trkpt lat="61.844" lon="5.70256">
        <ele>90.870118</ele>
        <time>2020-07-29T09:37:58.807Z</time>
      </trkpt>
      <trkpt lat="61.84401" lon="5.70277">
        <ele>91.113891</ele>
        <time>2020-07-29T09:38:02.806Z</time>
      </trkpt>
      <trkpt lat="61.84403" lon="5.70296">
        <ele>91.33874</ele>
        <time>2020-07-29T09:38:05.823Z</time>
      </trkpt>
      <trkpt lat="61.84406" lon="5.70316">
        <ele>91.583086</ele>
        <time>2020-07-29T09:38:08.794Z</time>
      </trkpt>
      <trkpt lat="61.8441" lon="5.70339">
        <ele>91.871765</ele>
        <time>2020-07-29T09:38:12.808Z</time>
      </trkpt>
      <trkpt lat="61.8441" lon="5.70358">
        <ele>92.103099</ele>
        <time>2020-07-29T09:38:15.797Z</time>
      </trkpt>
      <trkpt lat="61.84411" lon="5.70382">
        <ele>92.379516</ele>
        <time>2020-07-29T09:38:19.791Z</time>
      </trkpt>
      <trkpt lat="61.84412" lon="5.70406">
        <ele>92.668493</ele>
        <time>2020-07-29T09:38:23.829Z</time>
      </trkpt>
      <trkpt lat="61.84413" lon="5.70426">
        <ele>92.893454</ele>
        <time>2020-07-29T09:38:26.794Z</time>
      </trkpt>
      <trkpt lat="61.84415" lon="5.7045">
        <ele>93.184892</ele>
        <time>2020-07-29T09:38:30.821Z</time>
      </trkpt>
      <trkpt lat="61.84415" lon="5.70471">
        <ele>93.429232</ele>
        <time>2020-07-29T09:38:33.824Z</time>
      </trkpt>
      <trkpt lat="61.84418" lon="5.70493">
        <ele>93.70214</ele>
        <time>2020-07-29T09:38:36.788Z</time>
      </trkpt>
      <trkpt lat="61.8442" lon="5.70514">
        <ele>93.946773</ele>
        <time>2020-07-29T09:38:39.799Z</time>
      </trkpt>
      <trkpt lat="61.84422" lon="5.70538">
        <ele>94.235446</ele>
        <time>2020-07-29T09:38:43.805Z</time>
      </trkpt>
      <trkpt lat="61.84425" lon="5.70561">
        <ele>94.514115</ele>
        <time>2020-07-29T09:38:47.812Z</time>
      </trkpt>
      <trkpt lat="61.84427" lon="5.70583">
        <ele>94.778812</ele>
        <time>2020-07-29T09:38:51.829Z</time>
      </trkpt>
      <trkpt lat="61.84429" lon="5.70607">
        <ele>95.064312</ele>
        <time>2020-07-29T09:38:55.829Z</time>
      </trkpt>
      <trkpt lat="61.84431" lon="5.70628">
        <ele>95.120582</ele>
        <time>2020-07-29T09:38:58.796Z</time>
      </trkpt>
      <trkpt lat="61.84432" lon="5.70648">
        <ele>94.815294</ele>
        <time>2020-07-29T09:39:01.800Z</time>
      </trkpt>
      <trkpt lat="61.84435" lon="5.70673">
        <ele>94.429229</ele>
        <time>2020-07-29T09:39:05.794Z</time>
      </trkpt>
      <trkpt lat="61.84437" lon="5.70692">
        <ele>94.128411</ele>
        <time>2020-07-29T09:39:08.808Z</time>
      </trkpt>
      <trkpt lat="61.84439" lon="5.70715">
        <ele>93.772065</ele>
        <time>2020-07-29T09:39:12.796Z</time>
      </trkpt>
      <trkpt lat="61.84443" lon="5.70737">
        <ele>93.413387</ele>
        <time>2020-07-29T09:39:16.793Z</time>
      </trkpt>
      <trkpt lat="61.84447" lon="5.70758">
        <ele>93.068814</ele>
        <time>2020-07-29T09:39:20.812Z</time>
      </trkpt>
      <trkpt lat="61.84448" lon="5.70781">
        <ele>92.71924</ele>
        <time>2020-07-29T09:39:24.831Z</time>
      </trkpt>
      <trkpt lat="61.84449" lon="5.70803">
        <ele>92.372448</ele>
        <time>2020-07-29T09:39:28.833Z</time>
      </trkpt>
      <trkpt lat="61.84452" lon="5.70828">
        <ele>91.986037</ele>
        <time>2020-07-29T09:39:32.808Z</time>
      </trkpt>
      <trkpt lat="61.84455" lon="5.7085">
        <ele>91.639151</ele>
        <time>2020-07-29T09:39:36.793Z</time>
      </trkpt>
      <trkpt lat="61.84457" lon="5.7087">
        <ele>91.32281</ele>
        <time>2020-07-29T09:39:40.823Z</time>
      </trkpt>
      <trkpt lat="61.84459" lon="5.70892">
        <ele>90.984504</ele>
        <time>2020-07-29T09:39:44.794Z</time>
      </trkpt>
      <trkpt lat="61.84461" lon="5.70915">
        <ele>90.630362</ele>
        <time>2020-07-29T09:39:48.829Z</time>
      </trkpt>
      <trkpt lat="61.84464" lon="5.70939">
        <ele>90.249803</ele>
        <time>2020-07-29T09:39:52.795Z</time>
      </trkpt>
      <trkpt lat="61.84467" lon="5.70964">
        <ele>89.860841</ele>
        <time>2020-07-29T09:39:56.812Z</time>
      </trkpt>
      <trkpt lat="61.8447" lon="5.70988">
        <ele>89.484476</ele>
        <time>2020-07-29T09:40:00.791Z</time>
      </trkpt>
      <trkpt lat="61.84474" lon="5.7101">
        <ele>89.829622</ele>
        <time>2020-07-29T09:40:04.809Z</time>
      </trkpt>
      <trkpt lat="61.84478" lon="5.71029">
        <ele>90.238096</ele>
        <time>2020-07-29T09:40:07.807Z</time>
      </trkpt>
      <trkpt lat="61.84482" lon="5.71053">
        <ele>90.730675</ele>
        <time>2020-07-29T09:40:11.845Z</time>
      </trkpt>
      <trkpt lat="61.84487" lon="5.71075">
        <ele>91.206309</ele>
        <time>2020-07-29T09:40:15.811Z</time>
      </trkpt>
      <trkpt lat="61.84492" lon="5.71093">
        <ele>91.601693</ele>
        <time>2020-07-29T09:40:19.810Z</time>
      </trkpt>
      <trkpt lat="61.84494" lon="5.71112">
        <ele>91.987773</ele>
        <time>2020-07-29T09:40:24.804Z</time>
      </trkpt>
      <trkpt lat="61.84496" lon="5.71131">
        <ele>92.385567</ele>
        <time>2020-07-29T09:40:29.814Z</time>
      </trkpt>
      <trkpt lat="61.845" lon="5.71153">
        <ele>92.833773</ele>
        <time>2020-07-29T09:40:34.803Z</time>
      </trkpt>
      <trkpt lat="61.84506" lon="5.71171">
        <ele>93.260742</ele>
        <time>2020-07-29T09:40:39.812Z</time>
      </trkpt>
      <trkpt lat="61.8451" lon="5.7119">
        <ele>93.658575</ele>
        <time>2020-07-29T09:40:44.792Z</time>
      </trkpt>
      <trkpt lat="61.84515" lon="5.71206">
        <ele>94.036076</ele>
        <time>2020-07-29T09:40:48.847Z</time>
      </trkpt>
      <trkpt lat="61.8452" lon="5.71223">
        <ele>94.441546</ele>
        <time>2020-07-29T09:40:53.816Z</time>
      </trkpt>
      <trkpt lat="61.84525" lon="5.71243">
        <ele>94.883208</ele>
        <time>2020-07-29T09:40:59.792Z</time>
      </trkpt>
      <trkpt lat="61.84531" lon="5.71263">
        <ele>95.340519</ele>
        <time>2020-07-29T09:41:05.799Z</time>
      </trkpt>
      <trkpt lat="61.84536" lon="5.71283">
        <ele>95.767283</ele>
        <time>2020-07-29T09:41:10.803Z</time>
      </trkpt>
      <trkpt lat="61.84542" lon="5.713">
        <ele>96.202706</ele>
        <time>2020-07-29T09:41:15.805Z</time>
      </trkpt>
      <trkpt lat="61.84546" lon="5.7132">
        <ele>96.612088</ele>
        <time>2020-07-29T09:41:20.792Z</time>
      </trkpt>
      <trkpt lat="61.84551" lon="5.71337">
        <ele>96.858494</ele>
        <time>2020-07-29T09:41:25.823Z</time>
      </trkpt>
      <trkpt lat="61.84556" lon="5.71355">
        <ele>96.788545</ele>
        <time>2020-07-29T09:41:30.815Z</time>
      </trkpt>
      <trkpt lat="61.84563" lon="5.71372">
        <ele>96.718154</ele>
        <time>2020-07-29T09:41:35.871Z</time>
      </trkpt>
      <trkpt lat="61.84568" lon="5.71389">
        <ele>96.650641</ele>
        <time>2020-07-29T09:41:40.837Z</time>
      </trkpt>
      <trkpt lat="61.84574" lon="5.71406">
        <ele>96.585401</ele>
        <time>2020-07-29T09:41:45.805Z</time>
      </trkpt>
      <trkpt lat="61.84578" lon="5.71424">
        <ele>96.520995</ele>
        <time>2020-07-29T09:41:50.805Z</time>
      </trkpt>
      <trkpt lat="61.84583" lon="5.71441">
        <ele>96.45494</ele>
        <time>2020-07-29T09:41:55.818Z</time>
      </trkpt>
      <trkpt lat="61.84588" lon="5.71458">
        <ele>96.389324</ele>
        <time>2020-07-29T09:41:59.800Z</time>
      </trkpt>
      <trkpt lat="61.84594" lon="5.71477">
        <ele>96.317602</ele>
        <time>2020-07-29T09:42:03.828Z</time>
      </trkpt>
      <trkpt lat="61.84599" lon="5.71497">
        <ele>96.244375</ele>
        <time>2020-07-29T09:42:07.798Z</time>
      </trkpt>
      <trkpt lat="61.84605" lon="5.71518">
        <ele>96.166876</ele>
        <time>2020-07-29T09:42:11.806Z</time>
      </trkpt>
      <trkpt lat="61.8461" lon="5.71537">
        <ele>96.095152</ele>
        <time>2020-07-29T09:42:15.828Z</time>
      </trkpt>
      <trkpt lat="61.84614" lon="5.71553">
        <ele>96.033934</ele>
        <time>2020-07-29T09:42:19.800Z</time>
      </trkpt>
      <trkpt lat="61.8462" lon="5.71572">
        <ele>95.960543</ele>
        <time>2020-07-29T09:42:24.805Z</time>
      </trkpt>
      <trkpt lat="61.84627" lon="5.71589">
        <ele>95.888034</ele>
        <time>2020-07-29T09:42:29.839Z</time>
      </trkpt>
      <trkpt lat="61.84635" lon="5.71604">
        <ele>95.817141</ele>
        <time>2020-07-29T09:42:34.827Z</time>
      </trkpt>
      <trkpt lat="61.84643" lon="5.7162">
        <ele>95.738291</ele>
        <time>2020-07-29T09:42:39.798Z</time>
      </trkpt>
      <trkpt lat="61.84651" lon="5.71637">
        <ele>95.66279</ele>
        <time>2020-07-29T09:42:43.804Z</time>
      </trkpt>
      <trkpt lat="61.84659" lon="5.71652">
        <ele>96.045674</ele>
        <time>2020-07-29T09:42:46.800Z</time>
      </trkpt>
      <trkpt lat="61.84667" lon="5.71668">
        <ele>96.573053</ele>
        <time>2020-07-29T09:42:49.796Z</time>
      </trkpt>
      <trkpt lat="61.84676" lon="5.71684">
        <ele>97.104947</ele>
        <time>2020-07-29T09:42:52.852Z</time>
      </trkpt>
      <trkpt lat="61.84684" lon="5.717">
        <ele>97.63067</ele>
        <time>2020-07-29T09:42:55.803Z</time>
      </trkpt>
      <trkpt lat="61.84692" lon="5.71716">
        <ele>98.13617</ele>
        <time>2020-07-29T09:42:58.806Z</time>
      </trkpt>
      <trkpt lat="61.84699" lon="5.7173">
        <ele>98.624233</ele>
        <time>2020-07-29T09:43:01.796Z</time>
      </trkpt>
      <trkpt lat="61.84707" lon="5.71745">
        <ele>99.118542</ele>
        <time>2020-07-29T09:43:04.804Z</time>
      </trkpt>
      <trkpt lat="61.84714" lon="5.71759">
        <ele>99.553413</ele>
        <time>2020-07-29T09:43:07.797Z</time>
      </trkpt>
      <trkpt lat="61.84721" lon="5.71778">
        <ele>100.103069</ele>
        <time>2020-07-29T09:43:11.826Z</time>
      </trkpt>
      <trkpt lat="61.84728" lon="5.71795">
        <ele>100.585844</ele>
        <time>2020-07-29T09:43:15.788Z</time>
      </trkpt>
      <trkpt lat="61.84735" lon="5.71811">
        <ele>101.070701</ele>
        <time>2020-07-29T09:43:19.804Z</time>
      </trkpt>
      <trkpt lat="61.84743" lon="5.71826">
        <ele>101.586571</ele>
        <time>2020-07-29T09:43:23.797Z</time>
      </trkpt>
      <trkpt lat="61.84748" lon="5.71843">
        <ele>102.041955</ele>
        <time>2020-07-29T09:43:28.827Z</time>
      </trkpt>
      <trkpt lat="61.84752" lon="5.7186">
        <ele>102.474023</ele>
        <time>2020-07-29T09:43:33.805Z</time>
      </trkpt>
      <trkpt lat="61.84757" lon="5.7188">
        <ele>102.966382</ele>
        <time>2020-07-29T09:43:39.792Z</time>
      </trkpt>
      <trkpt lat="61.84761" lon="5.71898">
        <ele>103.40448</ele>
        <time>2020-07-29T09:43:45.816Z</time>
      </trkpt>
      <trkpt lat="61.84766" lon="5.71914">
        <ele>103.82907</ele>
        <time>2020-07-29T09:43:51.847Z</time>
      </trkpt>
      <trkpt lat="61.8477" lon="5.71931">
        <ele>104.318387</ele>
        <time>2020-07-29T09:43:57.825Z</time>
      </trkpt>
      <trkpt lat="61.84775" lon="5.71951">
        <ele>105.005564</ele>
        <time>2020-07-29T09:44:04.804Z</time>
      </trkpt>
      <trkpt lat="61.84778" lon="5.71972">
        <ele>105.688588</ele>
        <time>2020-07-29T09:44:10.798Z</time>
      </trkpt>
      <trkpt lat="61.84778" lon="5.71993">
        <ele>106.365096</ele>
        <time>2020-07-29T09:44:17.798Z</time>
      </trkpt>
      <trkpt lat="61.84779" lon="5.72012">
        <ele>106.969105</ele>
        <time>2020-07-29T09:44:24.795Z</time>
      </trkpt>
      <trkpt lat="61.8478" lon="5.72032">
        <ele>107.581776</ele>
        <time>2020-07-29T09:44:29.797Z</time>
      </trkpt>
      <trkpt lat="61.84784" lon="5.7205">
        <ele>108.209761</ele>
        <time>2020-07-29T09:44:35.812Z</time>
      </trkpt>
      <trkpt lat="61.8479" lon="5.72067">
        <ele>108.864371</ele>
        <time>2020-07-29T09:44:42.796Z</time>
      </trkpt>
      <trkpt lat="61.84791" lon="5.72088">
        <ele>109.508899</ele>
        <time>2020-07-29T09:44:50.794Z</time>
      </trkpt>
      <trkpt lat="61.84792" lon="5.72107">
        <ele>110.119059</ele>
        <time>2020-07-29T09:44:56.796Z</time>
      </trkpt>
      <trkpt lat="61.8479" lon="5.72125">
        <ele>110.71472</ele>
        <time>2020-07-29T09:45:02.810Z</time>
      </trkpt>
      <trkpt lat="61.8479" lon="5.72147">
        <ele>111.40572</ele>
        <time>2020-07-29T09:45:09.796Z</time>
      </trkpt>
      <trkpt lat="61.8479" lon="5.72168">
        <ele>112.050097</ele>
        <time>2020-07-29T09:45:15.824Z</time>
      </trkpt>
      <trkpt lat="61.84788" lon="5.72188">
        <ele>112.696667</ele>
        <time>2020-07-29T09:45:21.810Z</time>
      </trkpt>
      <trkpt lat="61.84788" lon="5.72209">
        <ele>113.335722</ele>
        <time>2020-07-29T09:45:27.806Z</time>
      </trkpt>
      <trkpt lat="61.84787" lon="5.72229">
        <ele>113.963871</ele>
        <time>2020-07-29T09:45:33.811Z</time>
      </trkpt>
      <trkpt lat="61.84787" lon="5.7225">
        <ele>114.611102</ele>
        <time>2020-07-29T09:45:39.808Z</time>
      </trkpt>
      <trkpt lat="61.84788" lon="5.72269">
        <ele>115.221263</ele>
        <time>2020-07-29T09:45:45.802Z</time>
      </trkpt>
      <trkpt lat="61.84789" lon="5.7229">
        <ele>115.871069</ele>
        <time>2020-07-29T09:45:52.820Z</time>
      </trkpt>
      <trkpt lat="61.86253" lon="5.73332">
        <ele>97.319295</ele>
        <time>2020-07-29T09:50:43.910Z</time>
      </trkpt>
      <trkpt lat="61.86215" lon="5.73321">
        <ele>90.890149</ele>
        <time>2020-07-29T09:50:44.843Z</time>
      </trkpt>
      <trkpt lat="61.86239" lon="5.7331">
        <ele>86.793316</ele>
        <time>2020-07-29T09:50:45.820Z</time>
      </trkpt>
      <trkpt lat="61.86254" lon="5.73298">
        <ele>84.116642</ele>
        <time>2020-07-29T09:50:47.845Z</time>
      </trkpt>
      <trkpt lat="61.86263" lon="5.73291">
        <ele>83.34372</ele>
        <time>2020-07-29T09:50:48.800Z</time>
      </trkpt>
      <trkpt lat="61.86271" lon="5.73281">
        <ele>82.594177</ele>
        <time>2020-07-29T09:50:49.855Z</time>
      </trkpt>
      <trkpt lat="61.86279" lon="5.73271">
        <ele>81.84447</ele>
        <time>2020-07-29T09:50:50.818Z</time>
      </trkpt>
      <trkpt lat="61.86288" lon="5.73261">
        <ele>81.043256</ele>
        <time>2020-07-29T09:50:51.837Z</time>
      </trkpt>
      <trkpt lat="61.86297" lon="5.73249">
        <ele>80.201241</ele>
        <time>2020-07-29T09:50:52.813Z</time>
      </trkpt>
      <trkpt lat="61.86306" lon="5.73237">
        <ele>79.329783</ele>
        <time>2020-07-29T09:50:53.810Z</time>
      </trkpt>
      <trkpt lat="61.86315" lon="5.73224">
        <ele>78.444996</ele>
        <time>2020-07-29T09:50:54.839Z</time>
      </trkpt>
      <trkpt lat="61.86325" lon="5.73212">
        <ele>77.528327</ele>
        <time>2020-07-29T09:50:55.818Z</time>
      </trkpt>
      <trkpt lat="61.86335" lon="5.73199">
        <ele>76.612625</ele>
        <time>2020-07-29T09:50:56.806Z</time>
      </trkpt>
      <trkpt lat="61.86345" lon="5.73188">
        <ele>75.673059</ele>
        <time>2020-07-29T09:50:57.821Z</time>
      </trkpt>
      <trkpt lat="61.86356" lon="5.73176">
        <ele>74.726248</ele>
        <time>2020-07-29T09:50:58.825Z</time>
      </trkpt>
      <trkpt lat="61.86366" lon="5.73165">
        <ele>73.75559</ele>
        <time>2020-07-29T09:50:59.829Z</time>
      </trkpt>
      <trkpt lat="61.86378" lon="5.73155">
        <ele>72.772464</ele>
        <time>2020-07-29T09:51:00.811Z</time>
      </trkpt>
      <trkpt lat="61.86389" lon="5.73146">
        <ele>71.777929</ele>
        <time>2020-07-29T09:51:01.809Z</time>
      </trkpt>
      <trkpt lat="61.86401" lon="5.73137">
        <ele>70.762015</ele>
        <time>2020-07-29T09:51:02.805Z</time>
      </trkpt>
      <trkpt lat="61.86413" lon="5.73128">
        <ele>69.728406</ele>
        <time>2020-07-29T09:51:03.795Z</time>
      </trkpt>
      <trkpt lat="61.86425" lon="5.73118">
        <ele>68.538285</ele>
        <time>2020-07-29T09:51:04.794Z</time>
      </trkpt>
      <trkpt lat="61.86437" lon="5.73108">
        <ele>67.347752</ele>
        <time>2020-07-29T09:51:05.806Z</time>
      </trkpt>
      <trkpt lat="61.86449" lon="5.73097">
        <ele>66.150401</ele>
        <time>2020-07-29T09:51:06.836Z</time>
      </trkpt>
      <trkpt lat="61.86461" lon="5.73086">
        <ele>64.947669</ele>
        <time>2020-07-29T09:51:07.807Z</time>
      </trkpt>
      <trkpt lat="61.86472" lon="5.73074">
        <ele>63.750524</ele>
        <time>2020-07-29T09:51:08.812Z</time>
      </trkpt>
      <trkpt lat="61.86484" lon="5.73062">
        <ele>62.536679</ele>
        <time>2020-07-29T09:51:09.831Z</time>
      </trkpt>
      <trkpt lat="61.86496" lon="5.7305">
        <ele>61.326592</ele>
        <time>2020-07-29T09:51:10.829Z</time>
      </trkpt>
      <trkpt lat="61.86508" lon="5.73039">
        <ele>60.095237</ele>
        <time>2020-07-29T09:51:11.810Z</time>
      </trkpt>
      <trkpt lat="61.86521" lon="5.73029">
        <ele>58.863599</ele>
        <time>2020-07-29T09:51:12.798Z</time>
      </trkpt>
      <trkpt lat="61.86533" lon="5.73022">
        <ele>57.641962</ele>
        <time>2020-07-29T09:51:13.821Z</time>
      </trkpt>
      <trkpt lat="61.86546" lon="5.73017">
        <ele>56.434732</ele>
        <time>2020-07-29T09:51:14.828Z</time>
      </trkpt>
      <trkpt lat="61.86559" lon="5.73014">
        <ele>55.275556</ele>
        <time>2020-07-29T09:51:15.804Z</time>
      </trkpt>
      <trkpt lat="61.86571" lon="5.73011">
        <ele>54.157966</ele>
        <time>2020-07-29T09:51:16.824Z</time>
      </trkpt>
      <trkpt lat="61.86582" lon="5.73009">
        <ele>53.05885</ele>
        <time>2020-07-29T09:51:17.805Z</time>
      </trkpt>
      <trkpt lat="61.86594" lon="5.73006">
        <ele>52.797</ele>
        <time>2020-07-29T09:51:18.810Z</time>
      </trkpt>
      <trkpt lat="61.86605" lon="5.73004">
        <ele>52.557119</ele>
        <time>2020-07-29T09:51:19.796Z</time>
      </trkpt>
      <trkpt lat="61.86615" lon="5.73001">
        <ele>52.32572</ele>
        <time>2020-07-29T09:51:20.811Z</time>
      </trkpt>
      <trkpt lat="61.86626" lon="5.72999">
        <ele>52.099206</ele>
        <time>2020-07-29T09:51:21.806Z</time>
      </trkpt>
      <trkpt lat="61.86636" lon="5.72997">
        <ele>51.879642</ele>
        <time>2020-07-29T09:51:22.828Z</time>
      </trkpt>
      <trkpt lat="61.86646" lon="5.72995">
        <ele>51.662053</ele>
        <time>2020-07-29T09:51:23.810Z</time>
      </trkpt>
      <trkpt lat="61.86656" lon="5.72992">
        <ele>51.444044</ele>
        <time>2020-07-29T09:51:24.825Z</time>
      </trkpt>
      <trkpt lat="61.86666" lon="5.72991">
        <ele>51.233357</ele>
        <time>2020-07-29T09:51:25.806Z</time>
      </trkpt>
      <trkpt lat="61.86675" lon="5.72989">
        <ele>51.0289</ele>
        <time>2020-07-29T09:51:26.836Z</time>
      </trkpt>
      <trkpt lat="61.86684" lon="5.72988">
        <ele>50.827064</ele>
        <time>2020-07-29T09:51:27.804Z</time>
      </trkpt>
      <trkpt lat="61.86693" lon="5.72986">
        <ele>50.627012</ele>
        <time>2020-07-29T09:51:28.832Z</time>
      </trkpt>
      <trkpt lat="61.8671" lon="5.7298">
        <ele>50.261698</ele>
        <time>2020-07-29T09:51:30.826Z</time>
      </trkpt>
      <trkpt lat="61.86726" lon="5.72973">
        <ele>49.906665</ele>
        <time>2020-07-29T09:51:32.836Z</time>
      </trkpt>
      <trkpt lat="61.86742" lon="5.72966">
        <ele>49.565484</ele>
        <time>2020-07-29T09:51:34.827Z</time>
      </trkpt>
      <trkpt lat="61.86756" lon="5.72958">
        <ele>49.238043</ele>
        <time>2020-07-29T09:51:36.805Z</time>
      </trkpt>
      <trkpt lat="61.8677" lon="5.7295">
        <ele>49.357238</ele>
        <time>2020-07-29T09:51:38.808Z</time>
      </trkpt>
      <trkpt lat="61.86784" lon="5.72943">
        <ele>49.651292</ele>
        <time>2020-07-29T09:51:40.800Z</time>
      </trkpt>
      <trkpt lat="61.86797" lon="5.72936">
        <ele>49.936253</ele>
        <time>2020-07-29T09:51:42.814Z</time>
      </trkpt>
      <trkpt lat="61.8681" lon="5.72928">
        <ele>50.209648</ele>
        <time>2020-07-29T09:51:44.809Z</time>
      </trkpt>
      <trkpt lat="61.86822" lon="5.72923">
        <ele>50.466572</ele>
        <time>2020-07-29T09:51:46.800Z</time>
      </trkpt>
      <trkpt lat="61.86833" lon="5.72916">
        <ele>50.720087</ele>
        <time>2020-07-29T09:51:48.821Z</time>
      </trkpt>
      <trkpt lat="61.86845" lon="5.72909">
        <ele>50.972347</ele>
        <time>2020-07-29T09:51:50.828Z</time>
      </trkpt>
      <trkpt lat="61.86856" lon="5.72903">
        <ele>51.222325</ele>
        <time>2020-07-29T09:51:52.834Z</time>
      </trkpt>
      <trkpt lat="61.86868" lon="5.72896">
        <ele>51.466244</ele>
        <time>2020-07-29T09:51:54.816Z</time>
      </trkpt>
      <trkpt lat="61.86878" lon="5.72889">
        <ele>51.698369</ele>
        <time>2020-07-29T09:51:56.809Z</time>
      </trkpt>
      <trkpt lat="61.86888" lon="5.72884">
        <ele>51.900218</ele>
        <time>2020-07-29T09:51:58.804Z</time>
      </trkpt>
      <trkpt lat="61.86897" lon="5.7288">
        <ele>52.100983</ele>
        <time>2020-07-29T09:52:00.821Z</time>
      </trkpt>
      <trkpt lat="61.86906" lon="5.72876">
        <ele>52.293527</ele>
        <time>2020-07-29T09:52:02.812Z</time>
      </trkpt>
      <trkpt lat="61.86918" lon="5.72869">
        <ele>52.551346</ele>
        <time>2020-07-29T09:52:05.811Z</time>
      </trkpt>
      <trkpt lat="61.86928" lon="5.72861">
        <ele>52.78692</ele>
        <time>2020-07-29T09:52:08.812Z</time>
      </trkpt>
      <trkpt lat="61.86939" lon="5.72853">
        <ele>52.865638</ele>
        <time>2020-07-29T09:52:11.836Z</time>
      </trkpt>
      <trkpt lat="61.86949" lon="5.72842">
        <ele>52.768892</ele>
        <time>2020-07-29T09:52:14.812Z</time>
      </trkpt>
      <trkpt lat="61.86959" lon="5.7283">
        <ele>52.671237</ele>
        <time>2020-07-29T09:52:17.821Z</time>
      </trkpt>
      <trkpt lat="61.86969" lon="5.72814">
        <ele>52.567937</ele>
        <time>2020-07-29T09:52:20.798Z</time>
      </trkpt>
      <trkpt lat="61.86979" lon="5.72797">
        <ele>52.454962</ele>
        <time>2020-07-29T09:52:23.831Z</time>
      </trkpt>
      <trkpt lat="61.86989" lon="5.72781">
        <ele>52.34346</ele>
        <time>2020-07-29T09:52:26.828Z</time>
      </trkpt>
      <trkpt lat="61.86997" lon="5.72769">
        <ele>52.262608</ele>
        <time>2020-07-29T09:52:28.838Z</time>
      </trkpt>
      <trkpt lat="61.87005" lon="5.72756">
        <ele>52.178786</ele>
        <time>2020-07-29T09:52:30.806Z</time>
      </trkpt>
      <trkpt lat="61.87012" lon="5.72743">
        <ele>52.097994</ele>
        <time>2020-07-29T09:52:32.800Z</time>
      </trkpt>
      <trkpt lat="61.87019" lon="5.72731">
        <ele>52.018369</ele>
        <time>2020-07-29T09:52:34.791Z</time>
      </trkpt>
      <trkpt lat="61.87029" lon="5.72712">
        <ele>51.905466</ele>
        <time>2020-07-29T09:52:37.818Z</time>
      </trkpt>
      <trkpt lat="61.87038" lon="5.72694">
        <ele>51.797182</ele>
        <time>2020-07-29T09:52:40.826Z</time>
      </trkpt>
      <trkpt lat="61.87047" lon="5.72675">
        <ele>51.686604</ele>
        <time>2020-07-29T09:52:43.805Z</time>
      </trkpt>
      <trkpt lat="61.87054" lon="5.72661">
        <ele>51.606207</ele>
        <time>2020-07-29T09:52:45.814Z</time>
      </trkpt>
      <trkpt lat="61.87062" lon="5.72643">
        <ele>51.50398</ele>
        <time>2020-07-29T09:52:48.831Z</time>
      </trkpt>
      <trkpt lat="61.87071" lon="5.72625">
        <ele>51.400818</ele>
        <time>2020-07-29T09:52:51.819Z</time>
      </trkpt>
      <trkpt lat="61.87079" lon="5.72606">
        <ele>51.445902</ele>
        <time>2020-07-29T09:52:54.807Z</time>
      </trkpt>
      <trkpt lat="61.87088" lon="5.72588">
        <ele>51.559459</ele>
        <time>2020-07-29T09:52:57.805Z</time>
      </trkpt>
      <trkpt lat="61.87097" lon="5.7257">
        <ele>51.673792</ele>
        <time>2020-07-29T09:53:00.817Z</time>
      </trkpt>
      <trkpt lat="61.87106" lon="5.72552">
        <ele>51.790545</ele>
        <time>2020-07-29T09:53:03.808Z</time>
      </trkpt>
      <trkpt lat="61.87116" lon="5.72534">
        <ele>51.909381</ele>
        <time>2020-07-29T09:53:06.807Z</time>
      </trkpt>
      <trkpt lat="61.87126" lon="5.72518">
        <ele>52.024157</ele>
        <time>2020-07-29T09:53:09.826Z</time>
      </trkpt>
      <trkpt lat="61.87136" lon="5.72503">
        <ele>52.13511</ele>
        <time>2020-07-29T09:53:12.815Z</time>
      </trkpt>
      <trkpt lat="61.87146" lon="5.7249">
        <ele>52.244906</ele>
        <time>2020-07-29T09:53:15.840Z</time>
      </trkpt>
      <trkpt lat="61.87153" lon="5.72479">
        <ele>52.330061</ele>
        <time>2020-07-29T09:53:17.791Z</time>
      </trkpt>
      <trkpt lat="61.87164" lon="5.72466">
        <ele>52.444252</ele>
        <time>2020-07-29T09:53:20.809Z</time>
      </trkpt>
      <trkpt lat="61.87175" lon="5.72453">
        <ele>52.561659</ele>
        <time>2020-07-29T09:53:23.810Z</time>
      </trkpt>
      <trkpt lat="61.87187" lon="5.7244">
        <ele>52.683739</ele>
        <time>2020-07-29T09:53:26.817Z</time>
      </trkpt>
      <trkpt lat="61.87198" lon="5.72427">
        <ele>52.802764</ele>
        <time>2020-07-29T09:53:29.831Z</time>
      </trkpt>
      <trkpt lat="61.87209" lon="5.72414">
        <ele>52.921403</ele>
        <time>2020-07-29T09:53:32.806Z</time>
      </trkpt>
      <trkpt lat="61.8722" lon="5.72401">
        <ele>53.030998</ele>
        <time>2020-07-29T09:53:35.812Z</time>
      </trkpt>
      <trkpt lat="61.8723" lon="5.7239">
        <ele>53.093196</ele>
        <time>2020-07-29T09:53:38.808Z</time>
      </trkpt>
      <trkpt lat="61.8724" lon="5.72378">
        <ele>53.157326</ele>
        <time>2020-07-29T09:53:41.812Z</time>
      </trkpt>
      <trkpt lat="61.8725" lon="5.72367">
        <ele>53.220731</ele>
        <time>2020-07-29T09:53:44.807Z</time>
      </trkpt>
      <trkpt lat="61.87259" lon="5.72355">
        <ele>53.277848</ele>
        <time>2020-07-29T09:53:47.804Z</time>
      </trkpt>
      <trkpt lat="61.87269" lon="5.72344">
        <ele>53.340527</ele>
        <time>2020-07-29T09:53:50.805Z</time>
      </trkpt>
      <trkpt lat="61.87279" lon="5.72332">
        <ele>53.400811</ele>
        <time>2020-07-29T09:53:53.817Z</time>
      </trkpt>
      <trkpt lat="61.87288" lon="5.72322">
        <ele>53.457707</ele>
        <time>2020-07-29T09:53:56.823Z</time>
      </trkpt>
      <trkpt lat="61.87297" lon="5.72313">
        <ele>53.512674</ele>
        <time>2020-07-29T09:53:59.810Z</time>
      </trkpt>
      <trkpt lat="61.87306" lon="5.72303">
        <ele>53.568594</ele>
        <time>2020-07-29T09:54:02.805Z</time>
      </trkpt>
      <trkpt lat="61.87315" lon="5.72295">
        <ele>53.620443</ele>
        <time>2020-07-29T09:54:05.812Z</time>
      </trkpt>
      <trkpt lat="61.87324" lon="5.72286">
        <ele>53.672878</ele>
        <time>2020-07-29T09:54:08.827Z</time>
      </trkpt>
      <trkpt lat="61.87332" lon="5.72275">
        <ele>53.726856</ele>
        <time>2020-07-29T09:54:11.804Z</time>
      </trkpt>
      <trkpt lat="61.8734" lon="5.72264">
        <ele>53.778964</ele>
        <time>2020-07-29T09:54:14.844Z</time>
      </trkpt>
      <trkpt lat="61.87349" lon="5.72253">
        <ele>53.834195</ele>
        <time>2020-07-29T09:54:17.830Z</time>
      </trkpt>
      <trkpt lat="61.87357" lon="5.72239">
        <ele>53.891859</ele>
        <time>2020-07-29T09:54:20.798Z</time>
      </trkpt>
      <trkpt lat="61.87365" lon="5.72225">
        <ele>53.948932</ele>
        <time>2020-07-29T09:54:23.812Z</time>
      </trkpt>
      <trkpt lat="61.87373" lon="5.72212">
        <ele>54.004941</ele>
        <time>2020-07-29T09:54:26.802Z</time>
      </trkpt>
      <trkpt lat="61.87382" lon="5.72198">
        <ele>54.175106</ele>
        <time>2020-07-29T09:54:29.805Z</time>
      </trkpt>
      <trkpt lat="61.87389" lon="5.72184">
        <ele>54.360087</ele>
        <time>2020-07-29T09:54:32.831Z</time>
      </trkpt>
      <trkpt lat="61.87397" lon="5.7217">
        <ele>54.541858</ele>
        <time>2020-07-29T09:54:35.809Z</time>
      </trkpt>
      <trkpt lat="61.87405" lon="5.72157">
        <ele>54.726836</ele>
        <time>2020-07-29T09:54:38.809Z</time>
      </trkpt>
      <trkpt lat="61.87413" lon="5.72143">
        <ele>54.907399</ele>
        <time>2020-07-29T09:54:41.810Z</time>
      </trkpt>
      <trkpt lat="61.8742" lon="5.7213">
        <ele>55.083866</ele>
        <time>2020-07-29T09:54:44.804Z</time>
      </trkpt>
      <trkpt lat="61.87428" lon="5.72116">
        <ele>55.265519</ele>
        <time>2020-07-29T09:54:47.838Z</time>
      </trkpt>
      <trkpt lat="61.87436" lon="5.72104">
        <ele>55.447555</ele>
        <time>2020-07-29T09:54:50.802Z</time>
      </trkpt>
      <trkpt lat="61.87445" lon="5.72091">
        <ele>55.63557</ele>
        <time>2020-07-29T09:54:53.798Z</time>
      </trkpt>
      <trkpt lat="61.87453" lon="5.72079">
        <ele>55.813178</ele>
        <time>2020-07-29T09:54:56.808Z</time>
      </trkpt>
      <trkpt lat="61.87463" lon="5.72067">
        <ele>56.028401</ele>
        <time>2020-07-29T09:55:00.812Z</time>
      </trkpt>
      <trkpt lat="61.87473" lon="5.72054">
        <ele>56.235093</ele>
        <time>2020-07-29T09:55:04.829Z</time>
      </trkpt>
      <trkpt lat="61.87482" lon="5.72042">
        <ele>56.434276</ele>
        <time>2020-07-29T09:55:08.854Z</time>
      </trkpt>
      <trkpt lat="61.87492" lon="5.72029">
        <ele>56.644729</ele>
        <time>2020-07-29T09:55:12.831Z</time>
      </trkpt>
      <trkpt lat="61.87501" lon="5.72016">
        <ele>56.841058</ele>
        <time>2020-07-29T09:55:16.825Z</time>
      </trkpt>
      <trkpt lat="61.87509" lon="5.72005">
        <ele>57.010295</ele>
        <time>2020-07-29T09:55:19.848Z</time>
      </trkpt>
      <trkpt lat="61.87518" lon="5.71994">
        <ele>57.194683</ele>
        <time>2020-07-29T09:55:22.807Z</time>
      </trkpt>
      <trkpt lat="61.87527" lon="5.71985">
        <ele>57.34701</ele>
        <time>2020-07-29T09:55:25.796Z</time>
      </trkpt>
      <trkpt lat="61.87536" lon="5.71973">
        <ele>57.488144</ele>
        <time>2020-07-29T09:55:28.797Z</time>
      </trkpt>
      <trkpt lat="61.87544" lon="5.71964">
        <ele>57.606721</ele>
        <time>2020-07-29T09:55:31.816Z</time>
      </trkpt>
      <trkpt lat="61.87554" lon="5.71953">
        <ele>57.75415</ele>
        <time>2020-07-29T09:55:35.845Z</time>
      </trkpt>
      <trkpt lat="61.87565" lon="5.71942">
        <ele>57.906784</ele>
        <time>2020-07-29T09:55:39.832Z</time>
      </trkpt>
      <trkpt lat="61.87575" lon="5.7193">
        <ele>58.05652</ele>
        <time>2020-07-29T09:55:43.797Z</time>
      </trkpt>
      <trkpt lat="61.87583" lon="5.7192">
        <ele>58.17589</ele>
        <time>2020-07-29T09:55:46.834Z</time>
      </trkpt>
      <trkpt lat="61.87591" lon="5.71909">
        <ele>58.301969</ele>
        <time>2020-07-29T09:55:49.819Z</time>
      </trkpt>
      <trkpt lat="61.876" lon="5.71897">
        <ele>58.440053</ele>
        <time>2020-07-29T09:55:52.799Z</time>
      </trkpt>
      <trkpt lat="61.8761" lon="5.71884">
        <ele>58.595807</ele>
        <time>2020-07-29T09:55:55.794Z</time>
      </trkpt>
      <trkpt lat="61.87621" lon="5.71868">
        <ele>58.775001</ele>
        <time>2020-07-29T09:55:58.803Z</time>
      </trkpt>
      <trkpt lat="61.8763" lon="5.71856">
        <ele>58.908578</ele>
        <time>2020-07-29T09:56:00.833Z</time>
      </trkpt>
      <trkpt lat="61.87639" lon="5.71845">
        <ele>59.050849</ele>
        <time>2020-07-29T09:56:02.832Z</time>
      </trkpt>
      <trkpt lat="61.87649" lon="5.71834">
        <ele>59.195677</ele>
        <time>2020-07-29T09:56:04.806Z</time>
      </trkpt>
      <trkpt lat="61.87659" lon="5.71825">
        <ele>59.332607</ele>
        <time>2020-07-29T09:56:06.823Z</time>
      </trkpt>
      <trkpt lat="61.87668" lon="5.71816">
        <ele>59.468017</ele>
        <time>2020-07-29T09:56:08.798Z</time>
      </trkpt>
      <trkpt lat="61.87677" lon="5.71808">
        <ele>59.595248</ele>
        <time>2020-07-29T09:56:10.806Z</time>
      </trkpt>
      <trkpt lat="61.87689" lon="5.71797">
        <ele>59.738326</ele>
        <time>2020-07-29T09:56:13.831Z</time>
      </trkpt>
      <trkpt lat="61.877" lon="5.71785">
        <ele>59.872533</ele>
        <time>2020-07-29T09:56:16.827Z</time>
      </trkpt>
      <trkpt lat="61.87709" lon="5.71774">
        <ele>59.99264</ele>
        <time>2020-07-29T09:56:19.797Z</time>
      </trkpt>
      <trkpt lat="61.87719" lon="5.71766">
        <ele>60.106193</ele>
        <time>2020-07-29T09:56:22.836Z</time>
      </trkpt>
      <trkpt lat="61.87727" lon="5.7176">
        <ele>60.206192</ele>
        <time>2020-07-29T09:56:25.813Z</time>
      </trkpt>
      <trkpt lat="61.87738" lon="5.71753">
        <ele>60.324576</ele>
        <time>2020-07-29T09:56:29.838Z</time>
      </trkpt>
      <trkpt lat="61.87748" lon="5.71745">
        <ele>60.441777</ele>
        <time>2020-07-29T09:56:33.828Z</time>
      </trkpt>
      <trkpt lat="61.87758" lon="5.71736">
        <ele>60.566037</ele>
        <time>2020-07-29T09:56:38.792Z</time>
      </trkpt>
      <trkpt lat="61.87767" lon="5.71727">
        <ele>60.679766</ele>
        <time>2020-07-29T09:56:43.816Z</time>
      </trkpt>
      <trkpt lat="61.87777" lon="5.71717">
        <ele>60.796804</ele>
        <time>2020-07-29T09:56:49.791Z</time>
      </trkpt>
      <trkpt lat="61.87786" lon="5.71707">
        <ele>60.910302</ele>
        <time>2020-07-29T09:56:55.805Z</time>
      </trkpt>
      <trkpt lat="61.87795" lon="5.717">
        <ele>61.016012</ele>
        <time>2020-07-29T09:57:00.796Z</time>
      </trkpt>
      <trkpt lat="61.87806" lon="5.71691">
        <ele>61.140322</ele>
        <time>2020-07-29T09:57:05.792Z</time>
      </trkpt>
      <trkpt lat="61.87814" lon="5.71683">
        <ele>61.24129</ele>
        <time>2020-07-29T09:57:09.853Z</time>
      </trkpt>
      <trkpt lat="61.87823" lon="5.71673">
        <ele>61.355118</ele>
        <time>2020-07-29T09:57:14.811Z</time>
      </trkpt>
      <trkpt lat="61.87833" lon="5.71665">
        <ele>61.471677</ele>
        <time>2020-07-29T09:57:20.804Z</time>
      </trkpt>
      <trkpt lat="61.87841" lon="5.71657">
        <ele>61.572095</ele>
        <time>2020-07-29T09:57:25.797Z</time>
      </trkpt>
      <trkpt lat="61.87851" lon="5.71647">
        <ele>61.342633</ele>
        <time>2020-07-29T09:57:30.823Z</time>
      </trkpt>
      <trkpt lat="61.8786" lon="5.71638">
        <ele>61.023595</ele>
        <time>2020-07-29T09:57:34.828Z</time>
      </trkpt>
      <trkpt lat="61.87871" lon="5.71627">
        <ele>60.657369</ele>
        <time>2020-07-29T09:57:38.791Z</time>
      </trkpt>
      <trkpt lat="61.8788" lon="5.71618">
        <ele>60.348664</ele>
        <time>2020-07-29T09:57:41.801Z</time>
      </trkpt>
      <trkpt lat="61.8789" lon="5.71609">
        <ele>60.019966</ele>
        <time>2020-07-29T09:57:44.795Z</time>
      </trkpt>
      <trkpt lat="61.879" lon="5.71599">
        <ele>59.662709</ele>
        <time>2020-07-29T09:57:47.819Z</time>
      </trkpt>
      <trkpt lat="61.87913" lon="5.71588">
        <ele>59.240651</ele>
        <time>2020-07-29T09:57:50.799Z</time>
      </trkpt>
      <trkpt lat="61.87922" lon="5.71581">
        <ele>58.943608</ele>
        <time>2020-07-29T09:57:52.809Z</time>
      </trkpt>
      <trkpt lat="61.87931" lon="5.71575">
        <ele>58.627574</ele>
        <time>2020-07-29T09:57:54.832Z</time>
      </trkpt>
      <trkpt lat="61.87942" lon="5.71568">
        <ele>58.272302</ele>
        <time>2020-07-29T09:57:56.800Z</time>
      </trkpt>
      <trkpt lat="61.87954" lon="5.71562">
        <ele>57.915992</ele>
        <time>2020-07-29T09:57:58.809Z</time>
      </trkpt>
      <trkpt lat="61.87965" lon="5.71557">
        <ele>57.558595</ele>
        <time>2020-07-29T09:58:00.807Z</time>
      </trkpt>
      <trkpt lat="61.87976" lon="5.71553">
        <ele>57.220389</ele>
        <time>2020-07-29T09:58:02.832Z</time>
      </trkpt>
      <trkpt lat="61.87986" lon="5.71552">
        <ele>56.913705</ele>
        <time>2020-07-29T09:58:04.805Z</time>
      </trkpt>
      <trkpt lat="61.87994" lon="5.71557">
        <ele>56.635241</ele>
        <time>2020-07-29T09:58:06.830Z</time>
      </trkpt>
      <trkpt lat="61.88005" lon="5.71571">
        <ele>56.246719</ele>
        <time>2020-07-29T09:58:09.809Z</time>
      </trkpt>
      <trkpt lat="61.88016" lon="5.71577">
        <ele>55.977125</ele>
        <time>2020-07-29T09:58:13.813Z</time>
      </trkpt>
      <trkpt lat="61.88025" lon="5.71573">
        <ele>55.863725</ele>
        <time>2020-07-29T09:58:16.809Z</time>
      </trkpt>
      <trkpt lat="61.88036" lon="5.71566">
        <ele>55.72783</ele>
        <time>2020-07-29T09:58:19.885Z</time>
      </trkpt>
      <trkpt lat="61.88045" lon="5.7156">
        <ele>55.608305</ele>
        <time>2020-07-29T09:58:22.824Z</time>
      </trkpt>
      <trkpt lat="61.88056" lon="5.71554">
        <ele>55.468529</ele>
        <time>2020-07-29T09:58:24.802Z</time>
      </trkpt>
      <trkpt lat="61.88065" lon="5.71548">
        <ele>55.350532</ele>
        <time>2020-07-29T09:58:26.813Z</time>
      </trkpt>
      <trkpt lat="61.88079" lon="5.71543">
        <ele>55.179829</ele>
        <time>2020-07-29T09:58:29.837Z</time>
      </trkpt>
      <trkpt lat="61.88091" lon="5.71527">
        <ele>55.007752</ele>
        <time>2020-07-29T09:58:33.809Z</time>
      </trkpt>
      <trkpt lat="61.881" lon="5.71515">
        <ele>54.869005</ele>
        <time>2020-07-29T09:58:36.833Z</time>
      </trkpt>
      <trkpt lat="61.88097" lon="5.71497">
        <ele>54.758468</ele>
        <time>2020-07-29T09:58:42.832Z</time>
      </trkpt>
      <trkpt lat="61.88091" lon="5.71517">
        <ele>54.622171</ele>
        <time>2020-07-29T10:18:17.798Z</time>
      </trkpt>
      <trkpt lat="61.881" lon="5.71528">
        <ele>54.498204</ele>
        <time>2020-07-29T10:18:21.805Z</time>
      </trkpt>
      <trkpt lat="61.88109" lon="5.71523">
        <ele>54.382983</ele>
        <time>2020-07-29T10:18:26.828Z</time>
      </trkpt>
      <trkpt lat="61.91228" lon="5.72193">
        <ele>47.165567</ele>
        <time>2020-07-29T10:34:45.811Z</time>
      </trkpt>
      <trkpt lat="61.91233" lon="5.72212">
        <ele>48.416435</ele>
        <time>2020-07-29T10:34:59.799Z</time>
      </trkpt>
      <trkpt lat="61.91254" lon="5.72232">
        <ele>51.265746</ele>
        <time>2020-07-29T10:35:14.834Z</time>
      </trkpt>
      <trkpt lat="61.91281" lon="5.7226">
        <ele>55.024506</ele>
        <time>2020-07-29T10:35:31.818Z</time>
      </trkpt>
      <trkpt lat="61.9129" lon="5.72268">
        <ele>56.283208</ele>
        <time>2020-07-29T10:35:37.818Z</time>
      </trkpt>
      <trkpt lat="61.91299" lon="5.72277">
        <ele>57.444826</ele>
        <time>2020-07-29T10:35:44.814Z</time>
      </trkpt>
      <trkpt lat="61.91319" lon="5.723">
        <ele>60.258395</ele>
        <time>2020-07-29T10:36:03.851Z</time>
      </trkpt>
      <trkpt lat="61.9133" lon="5.72311">
        <ele>61.869213</ele>
        <time>2020-07-29T10:36:13.805Z</time>
      </trkpt>
      <trkpt lat="61.91374" lon="5.72399">
        <ele>64.636391</ele>
        <time>2020-07-29T10:38:47.812Z</time>
      </trkpt>
      <trkpt lat="61.91379" lon="5.7242">
        <ele>64.259303</ele>
        <time>2020-07-29T10:38:50.821Z</time>
      </trkpt>
      <trkpt lat="61.91382" lon="5.72439">
        <ele>63.938669</ele>
        <time>2020-07-29T10:38:53.821Z</time>
      </trkpt>
      <trkpt lat="61.91385" lon="5.72462">
        <ele>63.559497</ele>
        <time>2020-07-29T10:38:57.833Z</time>
      </trkpt>
      <trkpt lat="61.91389" lon="5.7248">
        <ele>63.23272</ele>
        <time>2020-07-29T10:39:00.814Z</time>
      </trkpt>
      <trkpt lat="61.91397" lon="5.72498">
        <ele>62.848385</ele>
        <time>2020-07-29T10:39:04.846Z</time>
      </trkpt>
      <trkpt lat="61.91403" lon="5.72514">
        <ele>62.51615</ele>
        <time>2020-07-29T10:39:08.813Z</time>
      </trkpt>
      <trkpt lat="61.91408" lon="5.72535">
        <ele>62.146537</ele>
        <time>2020-07-29T10:39:12.808Z</time>
      </trkpt>
      <trkpt lat="61.91413" lon="5.72553">
        <ele>61.819083</ele>
        <time>2020-07-29T10:39:16.848Z</time>
      </trkpt>
      <trkpt lat="61.91426" lon="5.72585">
        <ele>61.134887</ele>
        <time>2020-07-29T10:40:29.817Z</time>
      </trkpt>
      <trkpt lat="61.91431" lon="5.72602">
        <ele>60.829021</ele>
        <time>2020-07-29T10:40:33.872Z</time>
      </trkpt>
      <trkpt lat="61.91438" lon="5.72621">
        <ele>60.448555</ele>
        <time>2020-07-29T10:40:36.831Z</time>
      </trkpt>
      <trkpt lat="61.91443" lon="5.72642">
        <ele>60.075154</ele>
        <time>2020-07-29T10:40:39.805Z</time>
      </trkpt>
      <trkpt lat="61.91449" lon="5.72662">
        <ele>59.68915</ele>
        <time>2020-07-29T10:40:42.807Z</time>
      </trkpt>
      <trkpt lat="61.91454" lon="5.72683">
        <ele>59.432361</ele>
        <time>2020-07-29T10:40:45.810Z</time>
      </trkpt>
      <trkpt lat="61.91459" lon="5.727">
        <ele>59.255919</ele>
        <time>2020-07-29T10:40:48.800Z</time>
      </trkpt>
      <trkpt lat="61.91463" lon="5.72719">
        <ele>59.076321</ele>
        <time>2020-07-29T10:40:51.822Z</time>
      </trkpt>
      <trkpt lat="61.91468" lon="5.72741">
        <ele>58.860567</ele>
        <time>2020-07-29T10:40:54.844Z</time>
      </trkpt>
      <trkpt lat="61.91474" lon="5.72762">
        <ele>58.64398</ele>
        <time>2020-07-29T10:40:57.822Z</time>
      </trkpt>
      <trkpt lat="61.91479" lon="5.72782">
        <ele>58.450254</ele>
        <time>2020-07-29T10:41:00.839Z</time>
      </trkpt>
      <trkpt lat="61.91481" lon="5.72802">
        <ele>58.272682</ele>
        <time>2020-07-29T10:41:03.818Z</time>
      </trkpt>
      <trkpt lat="61.91483" lon="5.72821">
        <ele>58.101979</ele>
        <time>2020-07-29T10:41:06.816Z</time>
      </trkpt>
      <trkpt lat="61.91486" lon="5.72844">
        <ele>57.899614</ele>
        <time>2020-07-29T10:41:10.812Z</time>
      </trkpt>
      <trkpt lat="61.9149" lon="5.72866">
        <ele>57.698092</ele>
        <time>2020-07-29T10:41:14.804Z</time>
      </trkpt>
      <trkpt lat="61.91492" lon="5.72887">
        <ele>57.508326</ele>
        <time>2020-07-29T10:41:18.846Z</time>
      </trkpt>
      <trkpt lat="61.91494" lon="5.72908">
        <ele>57.320151</ele>
        <time>2020-07-29T10:41:22.831Z</time>
      </trkpt>
      <trkpt lat="61.91496" lon="5.72928">
        <ele>57.144286</ele>
        <time>2020-07-29T10:41:26.819Z</time>
      </trkpt>
      <trkpt lat="61.91501" lon="5.72945">
        <ele>56.970743</ele>
        <time>2020-07-29T10:41:30.825Z</time>
      </trkpt>
      <trkpt lat="61.91509" lon="5.72959">
        <ele>56.772435</ele>
        <time>2020-07-29T10:41:34.827Z</time>
      </trkpt>
      <trkpt lat="61.9152" lon="5.72963">
        <ele>56.574124</ele>
        <time>2020-07-29T10:41:39.816Z</time>
      </trkpt>
      <trkpt lat="61.91525" lon="5.72942">
        <ele>56.36298</ele>
        <time>2020-07-29T10:41:44.820Z</time>
      </trkpt>
      <trkpt lat="61.91525" lon="5.72921">
        <ele>56.426816</ele>
        <time>2020-07-29T10:41:48.808Z</time>
      </trkpt>
      <trkpt lat="61.91525" lon="5.72901">
        <ele>56.978826</ele>
        <time>2020-07-29T10:41:52.800Z</time>
      </trkpt>
      <trkpt lat="61.91523" lon="5.7288">
        <ele>57.567781</ele>
        <time>2020-07-29T10:41:57.805Z</time>
      </trkpt>
      <trkpt lat="61.91521" lon="5.7286">
        <ele>58.103519</ele>
        <time>2020-07-29T10:42:01.816Z</time>
      </trkpt>
      <trkpt lat="61.91521" lon="5.72837">
        <ele>58.74223</ele>
        <time>2020-07-29T10:42:06.810Z</time>
      </trkpt>
      <trkpt lat="61.91519" lon="5.72814">
        <ele>59.374713</ele>
        <time>2020-07-29T10:42:11.806Z</time>
      </trkpt>
      <trkpt lat="61.91516" lon="5.72791">
        <ele>60.017409</ele>
        <time>2020-07-29T10:42:16.835Z</time>
      </trkpt>
      <trkpt lat="61.91513" lon="5.72771">
        <ele>60.600104</ele>
        <time>2020-07-29T10:42:20.816Z</time>
      </trkpt>
      <trkpt lat="61.9151" lon="5.72752">
        <ele>61.147373</ele>
        <time>2020-07-29T10:42:24.864Z</time>
      </trkpt>
      <trkpt lat="61.91507" lon="5.7273">
        <ele>61.771684</ele>
        <time>2020-07-29T10:42:29.814Z</time>
      </trkpt>
      <trkpt lat="61.91504" lon="5.72708">
        <ele>62.400514</ele>
        <time>2020-07-29T10:42:34.842Z</time>
      </trkpt>
      <trkpt lat="61.91501" lon="5.72688">
        <ele>62.974768</ele>
        <time>2020-07-29T10:42:39.799Z</time>
      </trkpt>
      <trkpt lat="61.91497" lon="5.72669">
        <ele>63.531866</ele>
        <time>2020-07-29T10:42:44.813Z</time>
      </trkpt>
      <trkpt lat="61.91493" lon="5.72649">
        <ele>64.135442</ele>
        <time>2020-07-29T10:42:49.855Z</time>
      </trkpt>
      <trkpt lat="61.91488" lon="5.72631">
        <ele>64.710569</ele>
        <time>2020-07-29T10:42:54.822Z</time>
      </trkpt>
      <trkpt lat="61.91482" lon="5.72614">
        <ele>65.27336</ele>
        <time>2020-07-29T10:42:59.855Z</time>
      </trkpt>
      <trkpt lat="61.91478" lon="5.72596">
        <ele>65.817718</ele>
        <time>2020-07-29T10:43:04.827Z</time>
      </trkpt>
      <trkpt lat="61.91473" lon="5.72579">
        <ele>66.373468</ele>
        <time>2020-07-29T10:43:09.825Z</time>
      </trkpt>
      <trkpt lat="61.91469" lon="5.72561">
        <ele>66.90256</ele>
        <time>2020-07-29T10:43:14.828Z</time>
      </trkpt>
      <trkpt lat="61.91463" lon="5.72544">
        <ele>67.436967</ele>
        <time>2020-07-29T10:43:19.836Z</time>
      </trkpt>
      <trkpt lat="61.91457" lon="5.72526">
        <ele>67.971207</ele>
        <time>2020-07-29T10:43:24.836Z</time>
      </trkpt>
      <trkpt lat="61.91453" lon="5.72507">
        <ele>68.498194</ele>
        <time>2020-07-29T10:43:29.815Z</time>
      </trkpt>
      <trkpt lat="61.91448" lon="5.72491">
        <ele>68.981766</ele>
        <time>2020-07-29T10:43:34.811Z</time>
      </trkpt>
      <trkpt lat="61.91443" lon="5.72472">
        <ele>69.499191</ele>
        <time>2020-07-29T10:43:39.818Z</time>
      </trkpt>
      <trkpt lat="61.91438" lon="5.72454">
        <ele>70.031312</ele>
        <time>2020-07-29T10:43:44.833Z</time>
      </trkpt>
      <trkpt lat="61.91431" lon="5.72435">
        <ele>70.619944</ele>
        <time>2020-07-29T10:43:49.844Z</time>
      </trkpt>
      <trkpt lat="61.91425" lon="5.72419">
        <ele>71.134512</ele>
        <time>2020-07-29T10:43:54.821Z</time>
      </trkpt>
      <trkpt lat="61.9142" lon="5.72402">
        <ele>71.651514</ele>
        <time>2020-07-29T10:43:59.817Z</time>
      </trkpt>
      <trkpt lat="61.91414" lon="5.72384">
        <ele>72.189313</ele>
        <time>2020-07-29T10:44:04.816Z</time>
      </trkpt>
      <trkpt lat="61.91408" lon="5.72368">
        <ele>72.706208</ele>
        <time>2020-07-29T10:44:09.804Z</time>
      </trkpt>
      <trkpt lat="61.91403" lon="5.72349">
        <ele>73.259968</ele>
        <time>2020-07-29T10:44:14.844Z</time>
      </trkpt>
      <trkpt lat="61.91398" lon="5.72331">
        <ele>73.778026</ele>
        <time>2020-07-29T10:44:19.826Z</time>
      </trkpt>
      <trkpt lat="61.91393" lon="5.72314">
        <ele>74.277868</ele>
        <time>2020-07-29T10:44:24.816Z</time>
      </trkpt>
      <trkpt lat="61.91388" lon="5.72296">
        <ele>74.797467</ele>
        <time>2020-07-29T10:44:29.859Z</time>
      </trkpt>
      <trkpt lat="61.91382" lon="5.7228">
        <ele>75.331176</ele>
        <time>2020-07-29T10:44:34.834Z</time>
      </trkpt>
      <trkpt lat="61.91377" lon="5.72262">
        <ele>75.843278</ele>
        <time>2020-07-29T10:44:39.817Z</time>
      </trkpt>
      <trkpt lat="61.91371" lon="5.72243">
        <ele>76.336853</ele>
        <time>2020-07-29T10:44:44.848Z</time>
      </trkpt>
      <trkpt lat="61.91365" lon="5.72227">
        <ele>76.648458</ele>
        <time>2020-07-29T10:44:49.823Z</time>
      </trkpt>
      <trkpt lat="61.91361" lon="5.72205">
        <ele>76.99557</ele>
        <time>2020-07-29T10:44:55.843Z</time>
      </trkpt>
      <trkpt lat="61.91358" lon="5.72187">
        <ele>77.302524</ele>
        <time>2020-07-29T10:45:00.825Z</time>
      </trkpt>
      <trkpt lat="61.91354" lon="5.72167">
        <ele>77.616468</ele>
        <time>2020-07-29T10:45:05.805Z</time>
      </trkpt>
      <trkpt lat="61.91349" lon="5.72149">
        <ele>77.936046</ele>
        <time>2020-07-29T10:45:10.816Z</time>
      </trkpt>
      <trkpt lat="61.91343" lon="5.72131">
        <ele>78.261176</ele>
        <time>2020-07-29T10:45:15.814Z</time>
      </trkpt>
      <trkpt lat="61.91337" lon="5.72115">
        <ele>78.588815</ele>
        <time>2020-07-29T10:45:20.803Z</time>
      </trkpt>
      <trkpt lat="61.91331" lon="5.72099">
        <ele>78.902138</ele>
        <time>2020-07-29T10:45:25.829Z</time>
      </trkpt>
      <trkpt lat="61.91325" lon="5.72081">
        <ele>79.225981</ele>
        <time>2020-07-29T10:45:30.836Z</time>
      </trkpt>
      <trkpt lat="61.9132" lon="5.72064">
        <ele>79.519915</ele>
        <time>2020-07-29T10:45:35.855Z</time>
      </trkpt>
      <trkpt lat="61.91317" lon="5.72043">
        <ele>79.856693</ele>
        <time>2020-07-29T10:45:40.822Z</time>
      </trkpt>
      <trkpt lat="61.91313" lon="5.72023">
        <ele>80.188687</ele>
        <time>2020-07-29T10:45:45.804Z</time>
      </trkpt>
      <trkpt lat="61.9131" lon="5.72004">
        <ele>80.489503</ele>
        <time>2020-07-29T10:45:50.848Z</time>
      </trkpt>
      <trkpt lat="61.91307" lon="5.71984">
        <ele>80.804945</ele>
        <time>2020-07-29T10:45:55.842Z</time>
      </trkpt>
      <trkpt lat="61.91306" lon="5.71963">
        <ele>81.123379</ele>
        <time>2020-07-29T10:46:00.808Z</time>
      </trkpt>
      <trkpt lat="61.91304" lon="5.71941">
        <ele>81.458755</ele>
        <time>2020-07-29T10:46:05.828Z</time>
      </trkpt>
      <trkpt lat="61.91302" lon="5.7192">
        <ele>81.792405</ele>
        <time>2020-07-29T10:46:10.835Z</time>
      </trkpt>
      <trkpt lat="61.913" lon="5.71898">
        <ele>81.970332</ele>
        <time>2020-07-29T10:46:15.824Z</time>
      </trkpt>
      <trkpt lat="61.91299" lon="5.71877">
        <ele>81.875129</ele>
        <time>2020-07-29T10:46:20.816Z</time>
      </trkpt>
      <trkpt lat="61.91299" lon="5.71857">
        <ele>81.78984</ele>
        <time>2020-07-29T10:46:24.858Z</time>
      </trkpt>
      <trkpt lat="61.913" lon="5.71834">
        <ele>81.68827</ele>
        <time>2020-07-29T10:46:29.820Z</time>
      </trkpt>
      <trkpt lat="61.91301" lon="5.71815">
        <ele>81.603038</ele>
        <time>2020-07-29T10:46:33.829Z</time>
      </trkpt>
      <trkpt lat="61.91302" lon="5.71793">
        <ele>81.504851</ele>
        <time>2020-07-29T10:46:38.811Z</time>
      </trkpt>
      <trkpt lat="61.91303" lon="5.71773">
        <ele>81.418314</ele>
        <time>2020-07-29T10:46:42.813Z</time>
      </trkpt>
      <trkpt lat="61.91305" lon="5.71751">
        <ele>81.320888</ele>
        <time>2020-07-29T10:46:46.818Z</time>
      </trkpt>
      <trkpt lat="61.91306" lon="5.71731">
        <ele>81.229583</ele>
        <time>2020-07-29T10:46:50.847Z</time>
      </trkpt>
      <trkpt lat="61.9131" lon="5.7171">
        <ele>81.130557</ele>
        <time>2020-07-29T10:46:54.838Z</time>
      </trkpt>
      <trkpt lat="61.91313" lon="5.71688">
        <ele>81.033553</ele>
        <time>2020-07-29T10:46:58.840Z</time>
      </trkpt>
      <trkpt lat="61.91316" lon="5.71664">
        <ele>80.923575</ele>
        <time>2020-07-29T10:47:02.833Z</time>
      </trkpt>
      <trkpt lat="61.9132" lon="5.71646">
        <ele>80.832903</ele>
        <time>2020-07-29T10:47:05.838Z</time>
      </trkpt>
      <trkpt lat="61.91326" lon="5.71625">
        <ele>80.730836</ele>
        <time>2020-07-29T10:47:08.816Z</time>
      </trkpt>
      <trkpt lat="61.91332" lon="5.71604">
        <ele>80.617393</ele>
        <time>2020-07-29T10:47:11.798Z</time>
      </trkpt>
      <trkpt lat="61.91339" lon="5.71582">
        <ele>80.504248</ele>
        <time>2020-07-29T10:47:14.813Z</time>
      </trkpt>
      <trkpt lat="61.91346" lon="5.7156">
        <ele>80.387364</ele>
        <time>2020-07-29T10:47:17.823Z</time>
      </trkpt>
      <trkpt lat="61.91353" lon="5.71538">
        <ele>80.222744</ele>
        <time>2020-07-29T10:47:20.815Z</time>
      </trkpt>
      <trkpt lat="61.91359" lon="5.71524">
        <ele>80.072002</ele>
        <time>2020-07-29T10:47:22.837Z</time>
      </trkpt>
      <trkpt lat="61.91365" lon="5.71509">
        <ele>79.919756</ele>
        <time>2020-07-29T10:47:24.811Z</time>
      </trkpt>
      <trkpt lat="61.91374" lon="5.71489">
        <ele>79.69659</ele>
        <time>2020-07-29T10:47:27.799Z</time>
      </trkpt>
      <trkpt lat="61.91381" lon="5.71475">
        <ele>79.543082</ele>
        <time>2020-07-29T10:47:29.857Z</time>
      </trkpt>
      <trkpt lat="61.91391" lon="5.71455">
        <ele>79.31979</ele>
        <time>2020-07-29T10:47:32.836Z</time>
      </trkpt>
      <trkpt lat="61.914" lon="5.71434">
        <ele>79.095471</ele>
        <time>2020-07-29T10:47:35.853Z</time>
      </trkpt>
      <trkpt lat="61.91406" lon="5.71419">
        <ele>78.939818</ele>
        <time>2020-07-29T10:47:37.827Z</time>
      </trkpt>
      <trkpt lat="61.91412" lon="5.71405">
        <ele>78.783028</ele>
        <time>2020-07-29T10:47:39.841Z</time>
      </trkpt>
      <trkpt lat="61.91419" lon="5.7139">
        <ele>78.623379</ele>
        <time>2020-07-29T10:47:41.864Z</time>
      </trkpt>
      <trkpt lat="61.91425" lon="5.71374">
        <ele>78.463999</ele>
        <time>2020-07-29T10:47:43.814Z</time>
      </trkpt>
      <trkpt lat="61.91431" lon="5.71359">
        <ele>78.30568</ele>
        <time>2020-07-29T10:47:45.816Z</time>
      </trkpt>
      <trkpt lat="61.91437" lon="5.71343">
        <ele>78.141597</ele>
        <time>2020-07-29T10:47:47.815Z</time>
      </trkpt>
      <trkpt lat="61.91443" lon="5.71326">
        <ele>77.979174</ele>
        <time>2020-07-29T10:47:49.857Z</time>
      </trkpt>
      <trkpt lat="61.91448" lon="5.71308">
        <ele>77.810917</ele>
        <time>2020-07-29T10:47:51.805Z</time>
      </trkpt>
      <trkpt lat="61.91453" lon="5.7129">
        <ele>77.645984</ele>
        <time>2020-07-29T10:47:53.819Z</time>
      </trkpt>
      <trkpt lat="61.91459" lon="5.71272">
        <ele>77.477992</ele>
        <time>2020-07-29T10:47:55.816Z</time>
      </trkpt>
      <trkpt lat="61.91463" lon="5.71253">
        <ele>77.342937</ele>
        <time>2020-07-29T10:47:57.829Z</time>
      </trkpt>
      <trkpt lat="61.91467" lon="5.71235">
        <ele>77.668756</ele>
        <time>2020-07-29T10:47:59.808Z</time>
      </trkpt>
      <trkpt lat="61.91471" lon="5.71209">
        <ele>78.132764</ele>
        <time>2020-07-29T10:48:02.832Z</time>
      </trkpt>
      <trkpt lat="61.91474" lon="5.71186">
        <ele>78.542487</ele>
        <time>2020-07-29T10:48:05.860Z</time>
      </trkpt>
      <trkpt lat="61.91477" lon="5.71164">
        <ele>78.921564</ele>
        <time>2020-07-29T10:48:08.809Z</time>
      </trkpt>
      <trkpt lat="61.91478" lon="5.71143">
        <ele>79.265187</ele>
        <time>2020-07-29T10:48:11.805Z</time>
      </trkpt>
      <trkpt lat="61.91479" lon="5.71119">
        <ele>79.680721</ele>
        <time>2020-07-29T10:48:15.822Z</time>
      </trkpt>
      <trkpt lat="61.9148" lon="5.71095">
        <ele>80.085758</ele>
        <time>2020-07-29T10:48:19.808Z</time>
      </trkpt>
      <trkpt lat="61.91481" lon="5.71074">
        <ele>80.422421</ele>
        <time>2020-07-29T10:48:23.810Z</time>
      </trkpt>
      <trkpt lat="61.91479" lon="5.71054">
        <ele>80.767205</ele>
        <time>2020-07-29T10:48:27.828Z</time>
      </trkpt>
      <trkpt lat="61.91478" lon="5.71031">
        <ele>81.159063</ele>
        <time>2020-07-29T10:48:32.811Z</time>
      </trkpt>
      <trkpt lat="61.91478" lon="5.7101">
        <ele>81.509178</ele>
        <time>2020-07-29T10:48:36.816Z</time>
      </trkpt>
      <trkpt lat="61.91477" lon="5.7099">
        <ele>81.847697</ele>
        <time>2020-07-29T10:48:40.818Z</time>
      </trkpt>
      <trkpt lat="61.91475" lon="5.7097">
        <ele>82.183139</ele>
        <time>2020-07-29T10:48:44.836Z</time>
      </trkpt>
      <trkpt lat="61.91474" lon="5.7095">
        <ele>82.512967</ele>
        <time>2020-07-29T10:48:48.838Z</time>
      </trkpt>
      <trkpt lat="61.91473" lon="5.70928">
        <ele>82.892526</ele>
        <time>2020-07-29T10:48:52.827Z</time>
      </trkpt>
      <trkpt lat="61.91471" lon="5.70909">
        <ele>83.22351</ele>
        <time>2020-07-29T10:48:56.834Z</time>
      </trkpt>
      <trkpt lat="61.91468" lon="5.70889">
        <ele>83.56134</ele>
        <time>2020-07-29T10:49:00.814Z</time>
      </trkpt>
      <trkpt lat="61.91465" lon="5.70867">
        <ele>83.84841</ele>
        <time>2020-07-29T10:49:04.833Z</time>
      </trkpt>
      <trkpt lat="61.91462" lon="5.70845">
        <ele>84.06386</ele>
        <time>2020-07-29T10:49:08.807Z</time>
      </trkpt>
      <trkpt lat="61.9146" lon="5.70822">
        <ele>84.283319</ele>
        <time>2020-07-29T10:49:12.808Z</time>
      </trkpt>
      <trkpt lat="61.91456" lon="5.70804">
        <ele>84.462025</ele>
        <time>2020-07-29T10:49:15.811Z</time>
      </trkpt>
      <trkpt lat="61.91455" lon="5.70785">
        <ele>84.640373</ele>
        <time>2020-07-29T10:49:18.817Z</time>
      </trkpt>
      <trkpt lat="61.91452" lon="5.70766">
        <ele>84.825426</ele>
        <time>2020-07-29T10:49:21.825Z</time>
      </trkpt>
      <trkpt lat="61.9145" lon="5.70746">
        <ele>85.019099</ele>
        <time>2020-07-29T10:49:24.823Z</time>
      </trkpt>
      <trkpt lat="61.91448" lon="5.70726">
        <ele>85.206413</ele>
        <time>2020-07-29T10:49:27.862Z</time>
      </trkpt>
      <trkpt lat="61.91446" lon="5.70706">
        <ele>85.40142</ele>
        <time>2020-07-29T10:49:30.837Z</time>
      </trkpt>
      <trkpt lat="61.91443" lon="5.70686">
        <ele>85.591909</ele>
        <time>2020-07-29T10:49:33.817Z</time>
      </trkpt>
      <trkpt lat="61.9144" lon="5.70664">
        <ele>85.800055</ele>
        <time>2020-07-29T10:49:36.844Z</time>
      </trkpt>
      <trkpt lat="61.91438" lon="5.70642">
        <ele>86.010018</ele>
        <time>2020-07-29T10:49:39.864Z</time>
      </trkpt>
      <trkpt lat="61.91435" lon="5.7062">
        <ele>86.222242</ele>
        <time>2020-07-29T10:49:42.840Z</time>
      </trkpt>
      <trkpt lat="61.91434" lon="5.70598">
        <ele>86.433496</ele>
        <time>2020-07-29T10:49:45.818Z</time>
      </trkpt>
      <trkpt lat="61.91431" lon="5.70576">
        <ele>86.642082</ele>
        <time>2020-07-29T10:49:48.813Z</time>
      </trkpt>
      <trkpt lat="61.91429" lon="5.70554">
        <ele>86.851115</ele>
        <time>2020-07-29T10:49:51.828Z</time>
      </trkpt>
      <trkpt lat="61.91426" lon="5.70532">
        <ele>87.061182</ele>
        <time>2020-07-29T10:49:54.829Z</time>
      </trkpt>
      <trkpt lat="61.91422" lon="5.70512">
        <ele>87.257493</ele>
        <time>2020-07-29T10:49:57.820Z</time>
      </trkpt>
      <trkpt lat="61.9142" lon="5.7049">
        <ele>87.168243</ele>
        <time>2020-07-29T10:50:00.826Z</time>
      </trkpt>
      <trkpt lat="61.91417" lon="5.70468">
        <ele>87.051307</ele>
        <time>2020-07-29T10:50:03.808Z</time>
      </trkpt>
      <trkpt lat="61.91415" lon="5.70445">
        <ele>86.934779</ele>
        <time>2020-07-29T10:50:06.834Z</time>
      </trkpt>
      <trkpt lat="61.91414" lon="5.7042">
        <ele>86.808088</ele>
        <time>2020-07-29T10:50:09.809Z</time>
      </trkpt>
      <trkpt lat="61.9141" lon="5.70397">
        <ele>86.688901</ele>
        <time>2020-07-29T10:50:12.814Z</time>
      </trkpt>
      <trkpt lat="61.91407" lon="5.70376">
        <ele>86.572176</ele>
        <time>2020-07-29T10:50:15.799Z</time>
      </trkpt>
      <trkpt lat="61.91403" lon="5.70353">
        <ele>86.449709</ele>
        <time>2020-07-29T10:50:18.806Z</time>
      </trkpt>
      <trkpt lat="61.91399" lon="5.70331">
        <ele>86.330917</ele>
        <time>2020-07-29T10:50:21.857Z</time>
      </trkpt>
      <trkpt lat="61.91396" lon="5.70309">
        <ele>86.216124</ele>
        <time>2020-07-29T10:50:24.893Z</time>
      </trkpt>
      <trkpt lat="61.91392" lon="5.70289">
        <ele>86.108424</ele>
        <time>2020-07-29T10:50:27.812Z</time>
      </trkpt>
      <trkpt lat="61.91387" lon="5.7027">
        <ele>85.994657</ele>
        <time>2020-07-29T10:50:30.807Z</time>
      </trkpt>
      <trkpt lat="61.91382" lon="5.70249">
        <ele>85.879702</ele>
        <time>2020-07-29T10:50:33.804Z</time>
      </trkpt>
      <trkpt lat="61.91377" lon="5.70229">
        <ele>85.762911</ele>
        <time>2020-07-29T10:50:36.825Z</time>
      </trkpt>
      <trkpt lat="61.91372" lon="5.70208">
        <ele>85.64344</ele>
        <time>2020-07-29T10:50:39.828Z</time>
      </trkpt>
      <trkpt lat="61.91366" lon="5.70187">
        <ele>85.519706</ele>
        <time>2020-07-29T10:50:42.808Z</time>
      </trkpt>
      <trkpt lat="61.9136" lon="5.70166">
        <ele>85.402411</ele>
        <time>2020-07-29T10:50:45.823Z</time>
      </trkpt>
      <trkpt lat="61.91355" lon="5.70144">
        <ele>85.378551</ele>
        <time>2020-07-29T10:50:48.838Z</time>
      </trkpt>
      <trkpt lat="61.91349" lon="5.70123">
        <ele>85.427617</ele>
        <time>2020-07-29T10:50:51.812Z</time>
      </trkpt>
      <trkpt lat="61.91346" lon="5.701">
        <ele>85.47486</ele>
        <time>2020-07-29T10:50:54.823Z</time>
      </trkpt>
      <trkpt lat="61.91343" lon="5.70078">
        <ele>85.519908</ele>
        <time>2020-07-29T10:50:57.843Z</time>
      </trkpt>
      <trkpt lat="61.9134" lon="5.70057">
        <ele>85.564243</ele>
        <time>2020-07-29T10:51:00.823Z</time>
      </trkpt>
      <trkpt lat="61.91336" lon="5.70035">
        <ele>85.610093</ele>
        <time>2020-07-29T10:51:03.839Z</time>
      </trkpt>
      <trkpt lat="61.91334" lon="5.70012">
        <ele>85.657321</ele>
        <time>2020-07-29T10:51:06.820Z</time>
      </trkpt>
      <trkpt lat="61.91331" lon="5.69988">
        <ele>85.704743</ele>
        <time>2020-07-29T10:51:09.869Z</time>
      </trkpt>
      <trkpt lat="61.91329" lon="5.69965">
        <ele>85.752064</ele>
        <time>2020-07-29T10:51:12.801Z</time>
      </trkpt>
      <trkpt lat="61.91326" lon="5.69943">
        <ele>85.796019</ele>
        <time>2020-07-29T10:51:15.840Z</time>
      </trkpt>
      <trkpt lat="61.91324" lon="5.69921">
        <ele>85.841911</ele>
        <time>2020-07-29T10:51:18.817Z</time>
      </trkpt>
      <trkpt lat="61.91321" lon="5.69899">
        <ele>85.88559</ele>
        <time>2020-07-29T10:51:21.815Z</time>
      </trkpt>
      <trkpt lat="61.9132" lon="5.69877">
        <ele>85.929549</ele>
        <time>2020-07-29T10:51:24.814Z</time>
      </trkpt>
      <trkpt lat="61.91318" lon="5.69855">
        <ele>85.975327</ele>
        <time>2020-07-29T10:51:27.822Z</time>
      </trkpt>
      <trkpt lat="61.91315" lon="5.69833">
        <ele>86.020154</ele>
        <time>2020-07-29T10:51:30.819Z</time>
      </trkpt>
      <trkpt lat="61.91311" lon="5.69811">
        <ele>86.066669</ele>
        <time>2020-07-29T10:51:33.808Z</time>
      </trkpt>
      <trkpt lat="61.91308" lon="5.69789">
        <ele>86.130976</ele>
        <time>2020-07-29T10:51:36.837Z</time>
      </trkpt>
      <trkpt lat="61.91304" lon="5.69768">
        <ele>86.302238</ele>
        <time>2020-07-29T10:51:39.832Z</time>
      </trkpt>
      <trkpt lat="61.913" lon="5.69747">
        <ele>86.470049</ele>
        <time>2020-07-29T10:51:42.819Z</time>
      </trkpt>
      <trkpt lat="61.91295" lon="5.69725">
        <ele>86.649217</ele>
        <time>2020-07-29T10:51:45.808Z</time>
      </trkpt>
      <trkpt lat="61.9129" lon="5.69705">
        <ele>86.819601</ele>
        <time>2020-07-29T10:51:48.808Z</time>
      </trkpt>
      <trkpt lat="61.91287" lon="5.69683">
        <ele>86.991359</ele>
        <time>2020-07-29T10:51:51.802Z</time>
      </trkpt>
      <trkpt lat="61.91283" lon="5.6966">
        <ele>87.174354</ele>
        <time>2020-07-29T10:51:54.828Z</time>
      </trkpt>
      <trkpt lat="61.9128" lon="5.69635">
        <ele>87.365674</ele>
        <time>2020-07-29T10:51:57.828Z</time>
      </trkpt>
      <trkpt lat="61.91276" lon="5.69612">
        <ele>87.549449</ele>
        <time>2020-07-29T10:52:00.817Z</time>
      </trkpt>
      <trkpt lat="61.91274" lon="5.69588">
        <ele>87.735259</ele>
        <time>2020-07-29T10:52:03.814Z</time>
      </trkpt>
      <trkpt lat="61.91272" lon="5.69566">
        <ele>87.901958</ele>
        <time>2020-07-29T10:52:06.808Z</time>
      </trkpt>
      <trkpt lat="61.9127" lon="5.69541">
        <ele>88.088801</ele>
        <time>2020-07-29T10:52:09.823Z</time>
      </trkpt>
      <trkpt lat="61.91269" lon="5.69515">
        <ele>88.286766</ele>
        <time>2020-07-29T10:52:12.816Z</time>
      </trkpt>
      <trkpt lat="61.91268" lon="5.6949">
        <ele>88.469436</ele>
        <time>2020-07-29T10:52:15.814Z</time>
      </trkpt>
      <trkpt lat="61.91267" lon="5.69464">
        <ele>88.666278</ele>
        <time>2020-07-29T10:52:18.845Z</time>
      </trkpt>
      <trkpt lat="61.91267" lon="5.69435">
        <ele>88.878713</ele>
        <time>2020-07-29T10:52:21.809Z</time>
      </trkpt>
      <trkpt lat="61.91266" lon="5.69416">
        <ele>88.90799</ele>
        <time>2020-07-29T10:52:23.813Z</time>
      </trkpt>
      <trkpt lat="61.91265" lon="5.69396">
        <ele>88.791036</ele>
        <time>2020-07-29T10:52:25.818Z</time>
      </trkpt>
      <trkpt lat="61.91265" lon="5.69377">
        <ele>88.671343</ele>
        <time>2020-07-29T10:52:27.807Z</time>
      </trkpt>
      <trkpt lat="61.91263" lon="5.69356">
        <ele>88.545514</ele>
        <time>2020-07-29T10:52:29.842Z</time>
      </trkpt>
      <trkpt lat="61.91261" lon="5.69336">
        <ele>88.421761</ele>
        <time>2020-07-29T10:52:31.819Z</time>
      </trkpt>
      <trkpt lat="61.91259" lon="5.69315">
        <ele>88.29149</ele>
        <time>2020-07-29T10:52:33.860Z</time>
      </trkpt>
      <trkpt lat="61.91257" lon="5.69293">
        <ele>88.158087</ele>
        <time>2020-07-29T10:52:35.844Z</time>
      </trkpt>
      <trkpt lat="61.91255" lon="5.69272">
        <ele>88.025584</ele>
        <time>2020-07-29T10:52:37.803Z</time>
      </trkpt>
      <trkpt lat="61.91252" lon="5.69251">
        <ele>87.894067</ele>
        <time>2020-07-29T10:52:39.820Z</time>
      </trkpt>
      <trkpt lat="61.91249" lon="5.6923">
        <ele>87.760572</ele>
        <time>2020-07-29T10:52:41.836Z</time>
      </trkpt>
      <trkpt lat="61.91246" lon="5.69206">
        <ele>87.612756</ele>
        <time>2020-07-29T10:52:43.820Z</time>
      </trkpt>
      <trkpt lat="61.91243" lon="5.69183">
        <ele>87.47008</ele>
        <time>2020-07-29T10:52:45.809Z</time>
      </trkpt>
      <trkpt lat="61.9124" lon="5.6916">
        <ele>87.326244</ele>
        <time>2020-07-29T10:52:47.828Z</time>
      </trkpt>
      <trkpt lat="61.91236" lon="5.69137">
        <ele>87.178573</ele>
        <time>2020-07-29T10:52:49.821Z</time>
      </trkpt>
      <trkpt lat="61.91233" lon="5.69115">
        <ele>87.040892</ele>
        <time>2020-07-29T10:52:51.817Z</time>
      </trkpt>
      <trkpt lat="61.91231" lon="5.69094">
        <ele>86.907154</ele>
        <time>2020-07-29T10:52:53.818Z</time>
      </trkpt>
      <trkpt lat="61.91229" lon="5.69073">
        <ele>86.777876</ele>
        <time>2020-07-29T10:52:55.818Z</time>
      </trkpt>
      <trkpt lat="61.91226" lon="5.69051">
        <ele>86.63668</ele>
        <time>2020-07-29T10:52:57.844Z</time>
      </trkpt>
      <trkpt lat="61.91224" lon="5.6903">
        <ele>86.353645</ele>
        <time>2020-07-29T10:52:59.820Z</time>
      </trkpt>
      <trkpt lat="61.91223" lon="5.69009">
        <ele>86.078907</ele>
        <time>2020-07-29T10:53:01.806Z</time>
      </trkpt>
      <trkpt lat="61.91221" lon="5.68987">
        <ele>85.794757</ele>
        <time>2020-07-29T10:53:03.812Z</time>
      </trkpt>
      <trkpt lat="61.91218" lon="5.68966">
        <ele>85.514862</ele>
        <time>2020-07-29T10:53:05.821Z</time>
      </trkpt>
      <trkpt lat="61.91215" lon="5.68945">
        <ele>85.232475</ele>
        <time>2020-07-29T10:53:07.859Z</time>
      </trkpt>
      <trkpt lat="61.91212" lon="5.68924">
        <ele>84.948599</ele>
        <time>2020-07-29T10:53:09.801Z</time>
      </trkpt>
      <trkpt lat="61.9121" lon="5.68904">
        <ele>84.676901</ele>
        <time>2020-07-29T10:53:11.806Z</time>
      </trkpt>
      <trkpt lat="61.91207" lon="5.68884">
        <ele>84.406591</ele>
        <time>2020-07-29T10:53:13.893Z</time>
      </trkpt>
      <trkpt lat="61.91205" lon="5.68863">
        <ele>84.133401</ele>
        <time>2020-07-29T10:53:15.824Z</time>
      </trkpt>
      <trkpt lat="61.91201" lon="5.68843">
        <ele>83.852377</ele>
        <time>2020-07-29T10:53:17.821Z</time>
      </trkpt>
      <trkpt lat="61.91199" lon="5.68822">
        <ele>83.581465</ele>
        <time>2020-07-29T10:53:19.864Z</time>
      </trkpt>
      <trkpt lat="61.91197" lon="5.68802">
        <ele>83.309095</ele>
        <time>2020-07-29T10:53:21.814Z</time>
      </trkpt>
      <trkpt lat="61.91195" lon="5.68781">
        <ele>83.035602</ele>
        <time>2020-07-29T10:53:23.838Z</time>
      </trkpt>
      <trkpt lat="61.91192" lon="5.68761">
        <ele>82.762656</ele>
        <time>2020-07-29T10:53:25.848Z</time>
      </trkpt>
      <trkpt lat="61.91189" lon="5.6874">
        <ele>82.486209</ele>
        <time>2020-07-29T10:53:27.817Z</time>
      </trkpt>
      <trkpt lat="61.91187" lon="5.68721">
        <ele>82.223952</ele>
        <time>2020-07-29T10:53:29.810Z</time>
      </trkpt>
      <trkpt lat="61.91184" lon="5.68702">
        <ele>81.969654</ele>
        <time>2020-07-29T10:53:31.815Z</time>
      </trkpt>
      <trkpt lat="61.91181" lon="5.68683">
        <ele>81.721548</ele>
        <time>2020-07-29T10:53:33.830Z</time>
      </trkpt>
      <trkpt lat="61.91178" lon="5.68656">
        <ele>81.78924</ele>
        <time>2020-07-29T10:53:36.845Z</time>
      </trkpt>
      <trkpt lat="61.91176" lon="5.68636">
        <ele>81.836626</ele>
        <time>2020-07-29T10:53:38.818Z</time>
      </trkpt>
      <trkpt lat="61.91175" lon="5.6861">
        <ele>81.90036</ele>
        <time>2020-07-29T10:53:41.814Z</time>
      </trkpt>
      <trkpt lat="61.91175" lon="5.68582">
        <ele>81.966921</ele>
        <time>2020-07-29T10:53:44.818Z</time>
      </trkpt>
      <trkpt lat="61.91175" lon="5.68556">
        <ele>82.03013</ele>
        <time>2020-07-29T10:53:47.825Z</time>
      </trkpt>
      <trkpt lat="61.91175" lon="5.68528">
        <ele>82.095775</ele>
        <time>2020-07-29T10:53:50.819Z</time>
      </trkpt>
      <trkpt lat="61.91176" lon="5.68502">
        <ele>82.159462</ele>
        <time>2020-07-29T10:53:53.815Z</time>
      </trkpt>
      <trkpt lat="61.91178" lon="5.68477">
        <ele>82.219141</ele>
        <time>2020-07-29T10:53:56.821Z</time>
      </trkpt>
      <trkpt lat="61.9118" lon="5.68452">
        <ele>82.280498</ele>
        <time>2020-07-29T10:53:59.833Z</time>
      </trkpt>
      <trkpt lat="61.91184" lon="5.68427">
        <ele>82.343444</ele>
        <time>2020-07-29T10:54:02.802Z</time>
      </trkpt>
      <trkpt lat="61.91187" lon="5.684">
        <ele>82.409473</ele>
        <time>2020-07-29T10:54:05.824Z</time>
      </trkpt>
      <trkpt lat="61.9119" lon="5.68381">
        <ele>82.456798</ele>
        <time>2020-07-29T10:54:07.835Z</time>
      </trkpt>
      <trkpt lat="61.91192" lon="5.68362">
        <ele>82.504691</ele>
        <time>2020-07-29T10:54:09.859Z</time>
      </trkpt>
      <trkpt lat="61.91194" lon="5.68343">
        <ele>82.551299</ele>
        <time>2020-07-29T10:54:11.808Z</time>
      </trkpt>
      <trkpt lat="61.91198" lon="5.68316">
        <ele>82.618238</ele>
        <time>2020-07-29T10:54:14.818Z</time>
      </trkpt>
      <trkpt lat="61.91203" lon="5.68291">
        <ele>82.844131</ele>
        <time>2020-07-29T10:54:17.812Z</time>
      </trkpt>
      <trkpt lat="61.91208" lon="5.68266">
        <ele>83.119342</ele>
        <time>2020-07-29T10:54:20.844Z</time>
      </trkpt>
      <trkpt lat="61.91213" lon="5.68242">
        <ele>83.388683</ele>
        <time>2020-07-29T10:54:23.828Z</time>
      </trkpt>
      <trkpt lat="61.91219" lon="5.68219">
        <ele>83.663362</ele>
        <time>2020-07-29T10:54:26.808Z</time>
      </trkpt>
      <trkpt lat="61.91225" lon="5.68198">
        <ele>83.919658</ele>
        <time>2020-07-29T10:54:29.800Z</time>
      </trkpt>
      <trkpt lat="61.91231" lon="5.6818">
        <ele>84.145492</ele>
        <time>2020-07-29T10:54:32.816Z</time>
      </trkpt>
      <trkpt lat="61.91236" lon="5.68159">
        <ele>84.388817</ele>
        <time>2020-07-29T10:54:36.818Z</time>
      </trkpt>
      <trkpt lat="61.91241" lon="5.68139">
        <ele>84.631036</ele>
        <time>2020-07-29T10:54:41.819Z</time>
      </trkpt>
      <trkpt lat="61.91246" lon="5.68122">
        <ele>84.835671</ele>
        <time>2020-07-29T10:54:45.817Z</time>
      </trkpt>
      <trkpt lat="61.9125" lon="5.68104">
        <ele>85.043277</ele>
        <time>2020-07-29T10:54:49.806Z</time>
      </trkpt>
      <trkpt lat="61.91255" lon="5.68088">
        <ele>85.240909</ele>
        <time>2020-07-29T10:54:53.814Z</time>
      </trkpt>
      <trkpt lat="61.9126" lon="5.68069">
        <ele>85.466256</ele>
        <time>2020-07-29T10:54:58.816Z</time>
      </trkpt>
      <trkpt lat="61.91265" lon="5.6805">
        <ele>85.698451</ele>
        <time>2020-07-29T10:55:03.800Z</time>
      </trkpt>
      <trkpt lat="61.91272" lon="5.68034">
        <ele>85.915561</ele>
        <time>2020-07-29T10:55:07.848Z</time>
      </trkpt>
      <trkpt lat="61.91278" lon="5.68018">
        <ele>86.126331</ele>
        <time>2020-07-29T10:55:11.810Z</time>
      </trkpt>
      <trkpt lat="61.91284" lon="5.68001">
        <ele>86.348335</ele>
        <time>2020-07-29T10:55:15.824Z</time>
      </trkpt>
      <trkpt lat="61.9129" lon="5.67983">
        <ele>86.578964</ele>
        <time>2020-07-29T10:55:19.812Z</time>
      </trkpt>
      <trkpt lat="61.91295" lon="5.67965">
        <ele>86.737302</ele>
        <time>2020-07-29T10:55:23.821Z</time>
      </trkpt>
      <trkpt lat="61.91301" lon="5.67948">
        <ele>86.897008</ele>
        <time>2020-07-29T10:55:27.812Z</time>
      </trkpt>
      <trkpt lat="61.91308" lon="5.67928">
        <ele>87.077669</ele>
        <time>2020-07-29T10:55:31.821Z</time>
      </trkpt>
      <trkpt lat="61.91314" lon="5.67911">
        <ele>87.238059</ele>
        <time>2020-07-29T10:55:34.825Z</time>
      </trkpt>
      <trkpt lat="61.9132" lon="5.67893">
        <ele>87.405095</ele>
        <time>2020-07-29T10:55:37.827Z</time>
      </trkpt>
      <trkpt lat="61.91326" lon="5.67874">
        <ele>87.572458</ele>
        <time>2020-07-29T10:55:40.827Z</time>
      </trkpt>
      <trkpt lat="61.91333" lon="5.67852">
        <ele>87.767529</ele>
        <time>2020-07-29T10:55:43.831Z</time>
      </trkpt>
      <trkpt lat="61.91338" lon="5.67835">
        <ele>87.916485</ele>
        <time>2020-07-29T10:55:45.820Z</time>
      </trkpt>
      <trkpt lat="61.91343" lon="5.67817">
        <ele>88.073532</ele>
        <time>2020-07-29T10:55:47.841Z</time>
      </trkpt>
      <trkpt lat="61.91348" lon="5.678">
        <ele>88.225825</ele>
        <time>2020-07-29T10:55:49.823Z</time>
      </trkpt>
      <trkpt lat="61.91353" lon="5.67783">
        <ele>88.369336</ele>
        <time>2020-07-29T10:55:51.826Z</time>
      </trkpt>
      <trkpt lat="61.91357" lon="5.67765">
        <ele>88.516183</ele>
        <time>2020-07-29T10:55:53.836Z</time>
      </trkpt>
      <trkpt lat="61.91362" lon="5.67747">
        <ele>88.665725</ele>
        <time>2020-07-29T10:55:55.821Z</time>
      </trkpt>
      <trkpt lat="61.91368" lon="5.67723">
        <ele>88.869303</ele>
        <time>2020-07-29T10:55:58.833Z</time>
      </trkpt>
      <trkpt lat="61.91373" lon="5.67702">
        <ele>89.044922</ele>
        <time>2020-07-29T10:56:01.820Z</time>
      </trkpt>
      <trkpt lat="61.91379" lon="5.67683">
        <ele>89.214976</ele>
        <time>2020-07-29T10:56:04.804Z</time>
      </trkpt>
      <trkpt lat="61.91384" lon="5.67664">
        <ele>89.381654</ele>
        <time>2020-07-29T10:56:07.840Z</time>
      </trkpt>
      <trkpt lat="61.91391" lon="5.67646">
        <ele>89.287696</ele>
        <time>2020-07-29T10:56:10.808Z</time>
      </trkpt>
      <trkpt lat="61.91397" lon="5.67626">
        <ele>89.072631</ele>
        <time>2020-07-29T10:56:13.869Z</time>
      </trkpt>
      <trkpt lat="61.91403" lon="5.67604">
        <ele>88.854517</ele>
        <time>2020-07-29T10:56:16.812Z</time>
      </trkpt>
      <trkpt lat="61.91409" lon="5.67584">
        <ele>88.65382</ele>
        <time>2020-07-29T10:56:19.835Z</time>
      </trkpt>
      <trkpt lat="61.91413" lon="5.67561">
        <ele>88.438349</ele>
        <time>2020-07-29T10:56:22.824Z</time>
      </trkpt>
      <trkpt lat="61.91421" lon="5.67542">
        <ele>88.215568</ele>
        <time>2020-07-29T10:56:25.801Z</time>
      </trkpt>
      <trkpt lat="61.9143" lon="5.67524">
        <ele>87.989954</ele>
        <time>2020-07-29T10:56:28.803Z</time>
      </trkpt>
      <trkpt lat="61.91438" lon="5.67507">
        <ele>87.776036</ele>
        <time>2020-07-29T10:56:31.833Z</time>
      </trkpt>
      <trkpt lat="61.91447" lon="5.67489">
        <ele>87.560197</ele>
        <time>2020-07-29T10:56:34.802Z</time>
      </trkpt>
      <trkpt lat="61.91454" lon="5.67471">
        <ele>87.353213</ele>
        <time>2020-07-29T10:56:37.808Z</time>
      </trkpt>
      <trkpt lat="61.91461" lon="5.67452">
        <ele>87.145838</ele>
        <time>2020-07-29T10:56:40.839Z</time>
      </trkpt>
      <trkpt lat="61.91467" lon="5.67433">
        <ele>86.938572</ele>
        <time>2020-07-29T10:56:43.808Z</time>
      </trkpt>
      <trkpt lat="61.91473" lon="5.67413">
        <ele>86.739567</ele>
        <time>2020-07-29T10:56:46.841Z</time>
      </trkpt>
      <trkpt lat="61.91478" lon="5.67392">
        <ele>86.532285</ele>
        <time>2020-07-29T10:56:49.814Z</time>
      </trkpt>
      <trkpt lat="61.91483" lon="5.67371">
        <ele>86.329433</ele>
        <time>2020-07-29T10:56:52.856Z</time>
      </trkpt>
      <trkpt lat="61.91488" lon="5.6735">
        <ele>86.123409</ele>
        <time>2020-07-29T10:56:55.819Z</time>
      </trkpt>
      <trkpt lat="61.91493" lon="5.67329">
        <ele>85.984528</ele>
        <time>2020-07-29T10:56:58.863Z</time>
      </trkpt>
      <trkpt lat="61.91498" lon="5.67307">
        <ele>85.838867</ele>
        <time>2020-07-29T10:57:01.810Z</time>
      </trkpt>
      <trkpt lat="61.91504" lon="5.67284">
        <ele>85.692347</ele>
        <time>2020-07-29T10:57:04.805Z</time>
      </trkpt>
      <trkpt lat="61.91508" lon="5.6726">
        <ele>85.544266</ele>
        <time>2020-07-29T10:57:07.828Z</time>
      </trkpt>
      <trkpt lat="61.91512" lon="5.67237">
        <ele>85.401795</ele>
        <time>2020-07-29T10:57:10.820Z</time>
      </trkpt>
      <trkpt lat="61.91515" lon="5.67211">
        <ele>85.246139</ele>
        <time>2020-07-29T10:57:13.819Z</time>
      </trkpt>
      <trkpt lat="61.91519" lon="5.67184">
        <ele>85.084428</ele>
        <time>2020-07-29T10:57:16.817Z</time>
      </trkpt>
      <trkpt lat="61.91525" lon="5.6716">
        <ele>84.924298</ele>
        <time>2020-07-29T10:57:19.809Z</time>
      </trkpt>
      <trkpt lat="61.91532" lon="5.67137">
        <ele>84.765103</ele>
        <time>2020-07-29T10:57:22.836Z</time>
      </trkpt>
      <trkpt lat="61.91539" lon="5.67116">
        <ele>84.618786</ele>
        <time>2020-07-29T10:57:25.820Z</time>
      </trkpt>
      <trkpt lat="61.91545" lon="5.67094">
        <ele>84.470695</ele>
        <time>2020-07-29T10:57:28.848Z</time>
      </trkpt>
      <trkpt lat="61.9155" lon="5.67072">
        <ele>84.328326</ele>
        <time>2020-07-29T10:57:31.861Z</time>
      </trkpt>
      <trkpt lat="61.91555" lon="5.6705">
        <ele>84.184946</ele>
        <time>2020-07-29T10:57:34.818Z</time>
      </trkpt>
      <trkpt lat="61.91561" lon="5.67025">
        <ele>84.025875</ele>
        <time>2020-07-29T10:57:37.822Z</time>
      </trkpt>
      <trkpt lat="61.91567" lon="5.67">
        <ele>83.923426</ele>
        <time>2020-07-29T10:57:40.859Z</time>
      </trkpt>
      <trkpt lat="61.91572" lon="5.66976">
        <ele>84.040813</ele>
        <time>2020-07-29T10:57:43.816Z</time>
      </trkpt>
      <trkpt lat="61.91577" lon="5.66955">
        <ele>84.148304</ele>
        <time>2020-07-29T10:57:46.820Z</time>
      </trkpt>
      <trkpt lat="61.91583" lon="5.66933">
        <ele>84.260038</ele>
        <time>2020-07-29T10:57:49.853Z</time>
      </trkpt>
      <trkpt lat="61.91589" lon="5.66907">
        <ele>84.382223</ele>
        <time>2020-07-29T10:57:52.824Z</time>
      </trkpt>
      <trkpt lat="61.91593" lon="5.66882">
        <ele>84.503359</ele>
        <time>2020-07-29T10:57:55.832Z</time>
      </trkpt>
      <trkpt lat="61.91597" lon="5.66858">
        <ele>84.616355</ele>
        <time>2020-07-29T10:57:58.843Z</time>
      </trkpt>
      <trkpt lat="61.91601" lon="5.66834">
        <ele>84.72738</ele>
        <time>2020-07-29T10:58:01.825Z</time>
      </trkpt>
      <trkpt lat="61.91603" lon="5.66806">
        <ele>84.852974</ele>
        <time>2020-07-29T10:58:04.834Z</time>
      </trkpt>
      <trkpt lat="61.91604" lon="5.66779">
        <ele>84.971528</ele>
        <time>2020-07-29T10:58:07.818Z</time>
      </trkpt>
      <trkpt lat="61.91605" lon="5.66753">
        <ele>85.085919</ele>
        <time>2020-07-29T10:58:10.813Z</time>
      </trkpt>
      <trkpt lat="61.91605" lon="5.66727">
        <ele>85.200717</ele>
        <time>2020-07-29T10:58:13.821Z</time>
      </trkpt>
      <trkpt lat="61.91605" lon="5.66702">
        <ele>85.310158</ele>
        <time>2020-07-29T10:58:16.823Z</time>
      </trkpt>
      <trkpt lat="61.91605" lon="5.66675">
        <ele>85.429543</ele>
        <time>2020-07-29T10:58:19.825Z</time>
      </trkpt>
      <trkpt lat="61.91603" lon="5.66648">
        <ele>85.550541</ele>
        <time>2020-07-29T10:58:22.821Z</time>
      </trkpt>
      <trkpt lat="61.91602" lon="5.66629">
        <ele>85.434547</ele>
        <time>2020-07-29T10:58:24.816Z</time>
      </trkpt>
      <trkpt lat="61.916" lon="5.6661">
        <ele>85.173122</ele>
        <time>2020-07-29T10:58:26.805Z</time>
      </trkpt>
      <trkpt lat="61.91598" lon="5.66591">
        <ele>84.911592</ele>
        <time>2020-07-29T10:58:28.838Z</time>
      </trkpt>
      <trkpt lat="61.91596" lon="5.66573">
        <ele>84.65748</ele>
        <time>2020-07-29T10:58:30.805Z</time>
      </trkpt>
      <trkpt lat="61.91593" lon="5.66554">
        <ele>84.394881</ele>
        <time>2020-07-29T10:58:32.816Z</time>
      </trkpt>
      <trkpt lat="61.91589" lon="5.66535">
        <ele>84.125017</ele>
        <time>2020-07-29T10:58:34.834Z</time>
      </trkpt>
      <trkpt lat="61.91587" lon="5.66516">
        <ele>83.859763</ele>
        <time>2020-07-29T10:58:36.819Z</time>
      </trkpt>
      <trkpt lat="61.91584" lon="5.66496">
        <ele>83.579936</ele>
        <time>2020-07-29T10:58:38.828Z</time>
      </trkpt>
      <trkpt lat="61.91581" lon="5.66475">
        <ele>83.279739</ele>
        <time>2020-07-29T10:58:40.834Z</time>
      </trkpt>
      <trkpt lat="61.91577" lon="5.66452">
        <ele>82.964243</ele>
        <time>2020-07-29T10:58:42.820Z</time>
      </trkpt>
      <trkpt lat="61.91573" lon="5.6643">
        <ele>82.646747</ele>
        <time>2020-07-29T10:58:44.818Z</time>
      </trkpt>
      <trkpt lat="61.91568" lon="5.66408">
        <ele>82.318451</ele>
        <time>2020-07-29T10:58:46.860Z</time>
      </trkpt>
      <trkpt lat="61.91563" lon="5.66386">
        <ele>81.984094</ele>
        <time>2020-07-29T10:58:48.826Z</time>
      </trkpt>
      <trkpt lat="61.91558" lon="5.66363">
        <ele>81.648557</ele>
        <time>2020-07-29T10:58:50.820Z</time>
      </trkpt>
      <trkpt lat="61.91553" lon="5.6634">
        <ele>81.304533</ele>
        <time>2020-07-29T10:58:52.831Z</time>
      </trkpt>
      <trkpt lat="61.91547" lon="5.66315">
        <ele>80.941126</ele>
        <time>2020-07-29T10:58:54.814Z</time>
      </trkpt>
      <trkpt lat="61.91542" lon="5.6629">
        <ele>80.560744</ele>
        <time>2020-07-29T10:58:56.848Z</time>
      </trkpt>
      <trkpt lat="61.91537" lon="5.66263">
        <ele>79.980702</ele>
        <time>2020-07-29T10:58:58.823Z</time>
      </trkpt>
      <trkpt lat="61.91531" lon="5.66234">
        <ele>79.287096</ele>
        <time>2020-07-29T10:59:00.827Z</time>
      </trkpt>
      <trkpt lat="61.91525" lon="5.66206">
        <ele>78.611603</ele>
        <time>2020-07-29T10:59:02.814Z</time>
      </trkpt>
      <trkpt lat="61.9152" lon="5.66175">
        <ele>77.883061</ele>
        <time>2020-07-29T10:59:04.809Z</time>
      </trkpt>
      <trkpt lat="61.91513" lon="5.66144">
        <ele>77.123011</ele>
        <time>2020-07-29T10:59:06.825Z</time>
      </trkpt>
      <trkpt lat="61.91508" lon="5.66111">
        <ele>76.354954</ele>
        <time>2020-07-29T10:59:08.829Z</time>
      </trkpt>
      <trkpt lat="61.91503" lon="5.66076">
        <ele>75.545421</ele>
        <time>2020-07-29T10:59:10.818Z</time>
      </trkpt>
      <trkpt lat="61.91498" lon="5.6604">
        <ele>74.715635</ele>
        <time>2020-07-29T10:59:12.822Z</time>
      </trkpt>
      <trkpt lat="61.91493" lon="5.66004">
        <ele>73.879668</ele>
        <time>2020-07-29T10:59:14.829Z</time>
      </trkpt>
      <trkpt lat="61.9149" lon="5.65967">
        <ele>73.05273</ele>
        <time>2020-07-29T10:59:16.811Z</time>
      </trkpt>
      <trkpt lat="61.91488" lon="5.65948">
        <ele>72.624691</ele>
        <time>2020-07-29T10:59:17.836Z</time>
      </trkpt>
      <trkpt lat="61.91486" lon="5.65929">
        <ele>72.180514</ele>
        <time>2020-07-29T10:59:18.837Z</time>
      </trkpt>
      <trkpt lat="61.91485" lon="5.65908">
        <ele>71.736069</ele>
        <time>2020-07-29T10:59:19.829Z</time>
      </trkpt>
      <trkpt lat="61.91484" lon="5.65888">
        <ele>71.298843</ele>
        <time>2020-07-29T10:59:20.836Z</time>
      </trkpt>
      <trkpt lat="61.91483" lon="5.65868">
        <ele>70.864113</ele>
        <time>2020-07-29T10:59:21.825Z</time>
      </trkpt>
      <trkpt lat="61.91483" lon="5.65847">
        <ele>70.422609</ele>
        <time>2020-07-29T10:59:22.825Z</time>
      </trkpt>
      <trkpt lat="61.91482" lon="5.65827">
        <ele>69.996441</ele>
        <time>2020-07-29T10:59:23.829Z</time>
      </trkpt>
      <trkpt lat="61.91481" lon="5.65807">
        <ele>69.55988</ele>
        <time>2020-07-29T10:59:24.832Z</time>
      </trkpt>
      <trkpt lat="61.91481" lon="5.65786">
        <ele>69.115008</ele>
        <time>2020-07-29T10:59:25.815Z</time>
      </trkpt>
      <trkpt lat="61.91481" lon="5.65766">
        <ele>68.674917</ele>
        <time>2020-07-29T10:59:26.841Z</time>
      </trkpt>
      <trkpt lat="61.91481" lon="5.65746">
        <ele>68.237068</ele>
        <time>2020-07-29T10:59:27.817Z</time>
      </trkpt>
      <trkpt lat="61.91481" lon="5.65725">
        <ele>67.792756</ele>
        <time>2020-07-29T10:59:28.826Z</time>
      </trkpt>
      <trkpt lat="61.91481" lon="5.65704">
        <ele>67.344152</ele>
        <time>2020-07-29T10:59:29.842Z</time>
      </trkpt>
      <trkpt lat="61.91481" lon="5.65683">
        <ele>66.884274</ele>
        <time>2020-07-29T10:59:30.852Z</time>
      </trkpt>
      <trkpt lat="61.91482" lon="5.65661">
        <ele>66.413877</ele>
        <time>2020-07-29T10:59:31.841Z</time>
      </trkpt>
      <trkpt lat="61.91482" lon="5.65638">
        <ele>65.930869</ele>
        <time>2020-07-29T10:59:32.816Z</time>
      </trkpt>
      <trkpt lat="61.91482" lon="5.65615">
        <ele>65.439361</ele>
        <time>2020-07-29T10:59:33.817Z</time>
      </trkpt>
      <trkpt lat="61.91482" lon="5.65592">
        <ele>64.94777</ele>
        <time>2020-07-29T10:59:34.829Z</time>
      </trkpt>
      <trkpt lat="61.91482" lon="5.6557">
        <ele>64.46431</ele>
        <time>2020-07-29T10:59:35.827Z</time>
      </trkpt>
      <trkpt lat="61.91482" lon="5.65548">
        <ele>63.985681</ele>
        <time>2020-07-29T10:59:36.827Z</time>
      </trkpt>
      <trkpt lat="61.91481" lon="5.65525">
        <ele>63.681704</ele>
        <time>2020-07-29T10:59:37.803Z</time>
      </trkpt>
      <trkpt lat="61.9148" lon="5.65503">
        <ele>63.478721</ele>
        <time>2020-07-29T10:59:38.846Z</time>
      </trkpt>
      <trkpt lat="61.91477" lon="5.6548">
        <ele>63.273209</ele>
        <time>2020-07-29T10:59:39.825Z</time>
      </trkpt>
      <trkpt lat="61.91475" lon="5.65459">
        <ele>63.074566</ele>
        <time>2020-07-29T10:59:40.845Z</time>
      </trkpt>
      <trkpt lat="61.91473" lon="5.65437">
        <ele>62.878302</ele>
        <time>2020-07-29T10:59:41.817Z</time>
      </trkpt>
      <trkpt lat="61.91471" lon="5.65416">
        <ele>62.686672</ele>
        <time>2020-07-29T10:59:42.834Z</time>
      </trkpt>
      <trkpt lat="61.91469" lon="5.65396">
        <ele>62.500399</ele>
        <time>2020-07-29T10:59:43.835Z</time>
      </trkpt>
      <trkpt lat="61.91466" lon="5.65376">
        <ele>62.314803</ele>
        <time>2020-07-29T10:59:44.806Z</time>
      </trkpt>
      <trkpt lat="61.91463" lon="5.65356">
        <ele>62.131777</ele>
        <time>2020-07-29T10:59:45.815Z</time>
      </trkpt>
      <trkpt lat="61.91461" lon="5.65337">
        <ele>61.960232</ele>
        <time>2020-07-29T10:59:46.819Z</time>
      </trkpt>
      <trkpt lat="61.91457" lon="5.65302">
        <ele>61.635223</ele>
        <time>2020-07-29T10:59:48.841Z</time>
      </trkpt>
      <trkpt lat="61.91451" lon="5.6527">
        <ele>61.333014</ele>
        <time>2020-07-29T10:59:50.835Z</time>
      </trkpt>
      <trkpt lat="61.91447" lon="5.65238">
        <ele>61.030023</ele>
        <time>2020-07-29T10:59:52.813Z</time>
      </trkpt>
      <trkpt lat="61.91442" lon="5.65207">
        <ele>60.739619</ele>
        <time>2020-07-29T10:59:54.812Z</time>
      </trkpt>
      <trkpt lat="61.91436" lon="5.65178">
        <ele>60.464304</ele>
        <time>2020-07-29T10:59:56.821Z</time>
      </trkpt>
      <trkpt lat="61.91432" lon="5.6515">
        <ele>60.195035</ele>
        <time>2020-07-29T10:59:58.825Z</time>
      </trkpt>
      <trkpt lat="61.91427" lon="5.65124">
        <ele>59.93643</ele>
        <time>2020-07-29T11:00:00.827Z</time>
      </trkpt>
      <trkpt lat="61.91423" lon="5.65099">
        <ele>59.695441</ele>
        <time>2020-07-29T11:00:02.841Z</time>
      </trkpt>
      <trkpt lat="61.9142" lon="5.65075">
        <ele>59.463576</ele>
        <time>2020-07-29T11:00:04.814Z</time>
      </trkpt>
      <trkpt lat="61.91416" lon="5.65053">
        <ele>59.242819</ele>
        <time>2020-07-29T11:00:06.832Z</time>
      </trkpt>
      <trkpt lat="61.91412" lon="5.65031">
        <ele>59.029019</ele>
        <time>2020-07-29T11:00:08.833Z</time>
      </trkpt>
      <trkpt lat="61.91409" lon="5.6501">
        <ele>58.826394</ele>
        <time>2020-07-29T11:00:10.818Z</time>
      </trkpt>
      <trkpt lat="61.91408" lon="5.6499">
        <ele>58.642278</ele>
        <time>2020-07-29T11:00:12.810Z</time>
      </trkpt>
      <trkpt lat="61.91407" lon="5.6497">
        <ele>58.452602</ele>
        <time>2020-07-29T11:00:14.817Z</time>
      </trkpt>
      <trkpt lat="61.91406" lon="5.64949">
        <ele>58.260059</ele>
        <time>2020-07-29T11:00:16.896Z</time>
      </trkpt>
      <trkpt lat="61.91405" lon="5.64929">
        <ele>58.077003</ele>
        <time>2020-07-29T11:00:18.810Z</time>
      </trkpt>
      <trkpt lat="61.91405" lon="5.64901">
        <ele>57.815874</ele>
        <time>2020-07-29T11:00:21.812Z</time>
      </trkpt>
      <trkpt lat="61.91406" lon="5.64873">
        <ele>57.554414</ele>
        <time>2020-07-29T11:00:24.823Z</time>
      </trkpt>
      <trkpt lat="61.91407" lon="5.64853">
        <ele>57.370887</ele>
        <time>2020-07-29T11:00:26.811Z</time>
      </trkpt>
      <trkpt lat="61.91408" lon="5.64824">
        <ele>57.108272</ele>
        <time>2020-07-29T11:00:29.840Z</time>
      </trkpt>
      <trkpt lat="61.91409" lon="5.64805">
        <ele>56.931173</ele>
        <time>2020-07-29T11:00:31.836Z</time>
      </trkpt>
      <trkpt lat="61.9141" lon="5.64778">
        <ele>57.081138</ele>
        <time>2020-07-29T11:00:34.811Z</time>
      </trkpt>
      <trkpt lat="61.91413" lon="5.64752">
        <ele>57.33991</ele>
        <time>2020-07-29T11:00:37.819Z</time>
      </trkpt>
      <trkpt lat="61.91415" lon="5.64727">
        <ele>57.594427</ele>
        <time>2020-07-29T11:00:40.844Z</time>
      </trkpt>
      <trkpt lat="61.91419" lon="5.64701">
        <ele>57.859411</ele>
        <time>2020-07-29T11:00:43.809Z</time>
      </trkpt>
      <trkpt lat="61.91423" lon="5.64675">
        <ele>58.124114</ele>
        <time>2020-07-29T11:00:46.815Z</time>
      </trkpt>
      <trkpt lat="61.91426" lon="5.64657">
        <ele>58.316547</ele>
        <time>2020-07-29T11:00:48.837Z</time>
      </trkpt>
      <trkpt lat="61.9143" lon="5.64638">
        <ele>58.517797</ele>
        <time>2020-07-29T11:00:50.812Z</time>
      </trkpt>
      <trkpt lat="61.91435" lon="5.6462">
        <ele>58.715566</ele>
        <time>2020-07-29T11:00:52.861Z</time>
      </trkpt>
      <trkpt lat="61.91439" lon="5.64601">
        <ele>58.91504</ele>
        <time>2020-07-29T11:00:54.816Z</time>
      </trkpt>
      <trkpt lat="61.91443" lon="5.64582">
        <ele>59.118959</ele>
        <time>2020-07-29T11:00:56.853Z</time>
      </trkpt>
      <trkpt lat="61.91447" lon="5.64562">
        <ele>59.332644</ele>
        <time>2020-07-29T11:00:58.834Z</time>
      </trkpt>
      <trkpt lat="61.9145" lon="5.64544">
        <ele>59.526114</ele>
        <time>2020-07-29T11:01:00.836Z</time>
      </trkpt>
      <trkpt lat="61.91454" lon="5.64526">
        <ele>59.714138</ele>
        <time>2020-07-29T11:01:02.814Z</time>
      </trkpt>
      <trkpt lat="61.91463" lon="5.64506">
        <ele>59.987601</ele>
        <time>2020-07-29T11:01:05.819Z</time>
      </trkpt>
      <trkpt lat="61.91471" lon="5.64494">
        <ele>60.186339</ele>
        <time>2020-07-29T11:01:07.848Z</time>
      </trkpt>
      <trkpt lat="61.91476" lon="5.64472">
        <ele>60.423077</ele>
        <time>2020-07-29T11:01:10.834Z</time>
      </trkpt>
      <trkpt lat="61.91478" lon="5.64453">
        <ele>60.654157</ele>
        <time>2020-07-29T11:01:17.823Z</time>
      </trkpt>
      <trkpt lat="61.91482" lon="5.64434">
        <ele>61.721164</ele>
        <time>2020-07-29T11:01:25.838Z</time>
      </trkpt>
      <trkpt lat="61.91485" lon="5.64416">
        <ele>62.725567</ele>
        <time>2020-07-29T11:01:31.819Z</time>
      </trkpt>
      <trkpt lat="61.91488" lon="5.64396">
        <ele>63.805405</ele>
        <time>2020-07-29T11:01:38.835Z</time>
      </trkpt>
      <trkpt lat="61.91492" lon="5.64378">
        <ele>64.789464</ele>
        <time>2020-07-29T11:01:45.816Z</time>
      </trkpt>
      <trkpt lat="61.91495" lon="5.64359">
        <ele>65.799625</ele>
        <time>2020-07-29T11:01:52.808Z</time>
      </trkpt>
      <trkpt lat="61.91497" lon="5.64339">
        <ele>66.873141</ele>
        <time>2020-07-29T11:02:00.844Z</time>
      </trkpt>
      <trkpt lat="61.91499" lon="5.64318">
        <ele>67.915533</ele>
        <time>2020-07-29T11:02:08.807Z</time>
      </trkpt>
      <trkpt lat="61.91501" lon="5.64299">
        <ele>68.946795</ele>
        <time>2020-07-29T11:02:17.825Z</time>
      </trkpt>
      <trkpt lat="61.91504" lon="5.64281">
        <ele>69.947262</ele>
        <time>2020-07-29T11:02:25.825Z</time>
      </trkpt>
      <trkpt lat="61.91507" lon="5.64261">
        <ele>70.991785</ele>
        <time>2020-07-29T11:02:33.820Z</time>
      </trkpt>
      <trkpt lat="61.91507" lon="5.64242">
        <ele>71.962764</ele>
        <time>2020-07-29T11:02:41.851Z</time>
      </trkpt>
      <trkpt lat="61.91511" lon="5.64224">
        <ele>72.971192</ele>
        <time>2020-07-29T11:02:50.843Z</time>
      </trkpt>
      <trkpt lat="61.91513" lon="5.64204">
        <ele>74.036446</ele>
        <time>2020-07-29T11:03:00.824Z</time>
      </trkpt>
      <trkpt lat="61.91517" lon="5.64184">
        <ele>75.114534</ele>
        <time>2020-07-29T11:03:09.877Z</time>
      </trkpt>
      <trkpt lat="61.91524" lon="5.64167">
        <ele>76.244549</ele>
        <time>2020-07-29T11:03:17.815Z</time>
      </trkpt>
      <trkpt lat="61.91529" lon="5.6415">
        <ele>77.301768</ele>
        <time>2020-07-29T11:03:23.833Z</time>
      </trkpt>
      <trkpt lat="61.91533" lon="5.6413">
        <ele>78.389335</ele>
        <time>2020-07-29T11:03:29.806Z</time>
      </trkpt>
      <trkpt lat="61.91536" lon="5.6411">
        <ele>79.482145</ele>
        <time>2020-07-29T11:03:36.826Z</time>
      </trkpt>
      <trkpt lat="61.91539" lon="5.64089">
        <ele>80.352306</ele>
        <time>2020-07-29T11:03:43.837Z</time>
      </trkpt>
      <trkpt lat="61.9154" lon="5.64069">
        <ele>80.882401</ele>
        <time>2020-07-29T11:03:50.813Z</time>
      </trkpt>
      <trkpt lat="61.91544" lon="5.64049">
        <ele>81.474705</ele>
        <time>2020-07-29T11:03:58.823Z</time>
      </trkpt>
      <trkpt lat="61.91547" lon="5.6403">
        <ele>82.014365</ele>
        <time>2020-07-29T11:04:04.839Z</time>
      </trkpt>
      <trkpt lat="61.91551" lon="5.64011">
        <ele>82.562291</ele>
        <time>2020-07-29T11:04:10.835Z</time>
      </trkpt>
      <trkpt lat="61.91555" lon="5.63991">
        <ele>83.126489</ele>
        <time>2020-07-29T11:04:17.888Z</time>
      </trkpt>
      <trkpt lat="61.91557" lon="5.63972">
        <ele>83.656271</ele>
        <time>2020-07-29T11:04:23.806Z</time>
      </trkpt>
      <trkpt lat="61.91558" lon="5.63951">
        <ele>84.214973</ele>
        <time>2020-07-29T11:04:29.816Z</time>
      </trkpt>
      <trkpt lat="61.91561" lon="5.6393">
        <ele>84.791103</ele>
        <time>2020-07-29T11:04:35.809Z</time>
      </trkpt>
      <trkpt lat="61.91562" lon="5.63909">
        <ele>85.366707</ele>
        <time>2020-07-29T11:04:41.819Z</time>
      </trkpt>
      <trkpt lat="61.91564" lon="5.63887">
        <ele>85.967045</ele>
        <time>2020-07-29T11:04:47.825Z</time>
      </trkpt>
      <trkpt lat="61.91565" lon="5.63865">
        <ele>86.541282</ele>
        <time>2020-07-29T11:04:53.847Z</time>
      </trkpt>
      <trkpt lat="61.91567" lon="5.63845">
        <ele>87.095871</ele>
        <time>2020-07-29T11:04:59.819Z</time>
      </trkpt>
      <trkpt lat="61.9157" lon="5.63826">
        <ele>87.621882</ele>
        <time>2020-07-29T11:05:05.841Z</time>
      </trkpt>
      <trkpt lat="61.91571" lon="5.63805">
        <ele>88.18923</ele>
        <time>2020-07-29T11:05:12.838Z</time>
      </trkpt>
      <trkpt lat="61.91575" lon="5.63786">
        <ele>88.726052</ele>
        <time>2020-07-29T11:05:18.835Z</time>
      </trkpt>
      <trkpt lat="61.91579" lon="5.63767">
        <ele>89.293325</ele>
        <time>2020-07-29T11:05:24.809Z</time>
      </trkpt>
      <trkpt lat="61.91583" lon="5.63747">
        <ele>89.90409</ele>
        <time>2020-07-29T11:05:31.813Z</time>
      </trkpt>
      <trkpt lat="61.91588" lon="5.6373">
        <ele>90.23869</ele>
        <time>2020-07-29T11:05:36.817Z</time>
      </trkpt>
      <trkpt lat="61.91591" lon="5.63709">
        <ele>89.925272</ele>
        <time>2020-07-29T11:05:42.877Z</time>
      </trkpt>
      <trkpt lat="61.91596" lon="5.63688">
        <ele>89.608867</ele>
        <time>2020-07-29T11:05:48.830Z</time>
      </trkpt>
      <trkpt lat="61.916" lon="5.63669">
        <ele>89.31897</ele>
        <time>2020-07-29T11:05:54.817Z</time>
      </trkpt>
      <trkpt lat="61.91603" lon="5.63651">
        <ele>89.04672</ele>
        <time>2020-07-29T11:05:59.832Z</time>
      </trkpt>
      <trkpt lat="61.91607" lon="5.63629">
        <ele>88.714873</ele>
        <time>2020-07-29T11:06:03.819Z</time>
      </trkpt>
      <trkpt lat="61.91611" lon="5.63609">
        <ele>88.418105</ele>
        <time>2020-07-29T11:06:06.817Z</time>
      </trkpt>
      <trkpt lat="61.91616" lon="5.63586">
        <ele>88.071473</ele>
        <time>2020-07-29T11:06:09.813Z</time>
      </trkpt>
      <trkpt lat="61.91622" lon="5.6356">
        <ele>87.668128</ele>
        <time>2020-07-29T11:06:12.836Z</time>
      </trkpt>
      <trkpt lat="61.91627" lon="5.63542">
        <ele>87.371201</ele>
        <time>2020-07-29T11:06:14.819Z</time>
      </trkpt>
      <trkpt lat="61.91632" lon="5.63521">
        <ele>87.044492</ele>
        <time>2020-07-29T11:06:16.827Z</time>
      </trkpt>
      <trkpt lat="61.91638" lon="5.63498">
        <ele>86.686919</ele>
        <time>2020-07-29T11:06:18.848Z</time>
      </trkpt>
      <trkpt lat="61.91644" lon="5.63476">
        <ele>86.323728</ele>
        <time>2020-07-29T11:06:20.827Z</time>
      </trkpt>
      <trkpt lat="61.9165" lon="5.63451">
        <ele>85.936779</ele>
        <time>2020-07-29T11:06:22.841Z</time>
      </trkpt>
      <trkpt lat="61.91654" lon="5.63424">
        <ele>85.549102</ele>
        <time>2020-07-29T11:06:24.824Z</time>
      </trkpt>
      <trkpt lat="61.91656" lon="5.63397">
        <ele>85.16738</ele>
        <time>2020-07-29T11:06:26.837Z</time>
      </trkpt>
      <trkpt lat="61.91659" lon="5.63369">
        <ele>84.137454</ele>
        <time>2020-07-29T11:06:28.814Z</time>
      </trkpt>
      <trkpt lat="61.9166" lon="5.63341">
        <ele>82.573463</ele>
        <time>2020-07-29T11:06:30.816Z</time>
      </trkpt>
      <trkpt lat="61.91661" lon="5.63314">
        <ele>81.094209</ele>
        <time>2020-07-29T11:06:32.855Z</time>
      </trkpt>
      <trkpt lat="61.91662" lon="5.63286">
        <ele>79.583017</ele>
        <time>2020-07-29T11:06:34.856Z</time>
      </trkpt>
      <trkpt lat="61.91662" lon="5.63258">
        <ele>78.020599</ele>
        <time>2020-07-29T11:06:36.828Z</time>
      </trkpt>
      <trkpt lat="61.91662" lon="5.63229">
        <ele>76.44571</ele>
        <time>2020-07-29T11:06:38.827Z</time>
      </trkpt>
      <trkpt lat="61.9166" lon="5.63201">
        <ele>74.883557</ele>
        <time>2020-07-29T11:06:40.817Z</time>
      </trkpt>
      <trkpt lat="61.9166" lon="5.63172">
        <ele>73.331971</ele>
        <time>2020-07-29T11:06:42.820Z</time>
      </trkpt>
      <trkpt lat="61.91661" lon="5.63146">
        <ele>71.893985</ele>
        <time>2020-07-29T11:06:44.815Z</time>
      </trkpt>
      <trkpt lat="61.91662" lon="5.63122">
        <ele>70.587253</ele>
        <time>2020-07-29T11:06:46.828Z</time>
      </trkpt>
      <trkpt lat="61.91663" lon="5.63101">
        <ele>69.428926</ele>
        <time>2020-07-29T11:06:48.856Z</time>
      </trkpt>
      <trkpt lat="61.91665" lon="5.63075">
        <ele>67.935533</ele>
        <time>2020-07-29T11:06:51.820Z</time>
      </trkpt>
      <trkpt lat="61.91667" lon="5.6305">
        <ele>66.601548</ele>
        <time>2020-07-29T11:06:54.815Z</time>
      </trkpt>
      <trkpt lat="61.91668" lon="5.63031">
        <ele>65.540014</ele>
        <time>2020-07-29T11:06:57.868Z</time>
      </trkpt>
      <trkpt lat="61.91668" lon="5.6301">
        <ele>64.366346</ele>
        <time>2020-07-29T11:07:03.835Z</time>
      </trkpt>
      <trkpt lat="61.91669" lon="5.6299">
        <ele>63.746967</ele>
        <time>2020-07-29T11:07:06.831Z</time>
      </trkpt>
      <trkpt lat="61.91669" lon="5.62965">
        <ele>63.23898</ele>
        <time>2020-07-29T11:07:09.820Z</time>
      </trkpt>
      <trkpt lat="61.91668" lon="5.62941">
        <ele>62.757444</ele>
        <time>2020-07-29T11:07:12.858Z</time>
      </trkpt>
      <trkpt lat="61.91668" lon="5.62918">
        <ele>62.288023</ele>
        <time>2020-07-29T11:07:15.829Z</time>
      </trkpt>
      <trkpt lat="61.91668" lon="5.62891">
        <ele>61.752393</ele>
        <time>2020-07-29T11:07:18.823Z</time>
      </trkpt>
      <trkpt lat="61.91668" lon="5.62871">
        <ele>61.341989</ele>
        <time>2020-07-29T11:07:20.812Z</time>
      </trkpt>
      <trkpt lat="61.91668" lon="5.62849">
        <ele>60.903378</ele>
        <time>2020-07-29T11:07:22.839Z</time>
      </trkpt>
      <trkpt lat="61.91668" lon="5.62827">
        <ele>60.458621</ele>
        <time>2020-07-29T11:07:24.812Z</time>
      </trkpt>
      <trkpt lat="61.91668" lon="5.62805">
        <ele>60.011904</ele>
        <time>2020-07-29T11:07:26.814Z</time>
      </trkpt>
      <trkpt lat="61.91668" lon="5.62783">
        <ele>59.556131</ele>
        <time>2020-07-29T11:07:28.828Z</time>
      </trkpt>
      <trkpt lat="61.91669" lon="5.6276">
        <ele>59.102375</ele>
        <time>2020-07-29T11:07:30.809Z</time>
      </trkpt>
      <trkpt lat="61.9167" lon="5.62738">
        <ele>58.65721</ele>
        <time>2020-07-29T11:07:32.897Z</time>
      </trkpt>
      <trkpt lat="61.91671" lon="5.62717">
        <ele>58.227626</ele>
        <time>2020-07-29T11:07:34.813Z</time>
      </trkpt>
      <trkpt lat="61.91673" lon="5.62697">
        <ele>57.810098</ele>
        <time>2020-07-29T11:07:36.839Z</time>
      </trkpt>
      <trkpt lat="61.91676" lon="5.62677">
        <ele>57.389887</ele>
        <time>2020-07-29T11:07:38.854Z</time>
      </trkpt>
      <trkpt lat="61.91678" lon="5.62657">
        <ele>56.979439</ele>
        <time>2020-07-29T11:07:40.836Z</time>
      </trkpt>
      <trkpt lat="61.91681" lon="5.62639">
        <ele>56.59235</ele>
        <time>2020-07-29T11:07:42.842Z</time>
      </trkpt>
      <trkpt lat="61.91684" lon="5.6262">
        <ele>56.379236</ele>
        <time>2020-07-29T11:07:44.831Z</time>
      </trkpt>
      <trkpt lat="61.91687" lon="5.626">
        <ele>56.604316</ele>
        <time>2020-07-29T11:07:46.808Z</time>
      </trkpt>
      <trkpt lat="61.91691" lon="5.62581">
        <ele>56.841226</ele>
        <time>2020-07-29T11:07:48.861Z</time>
      </trkpt>
      <trkpt lat="61.91696" lon="5.62563">
        <ele>57.070393</ele>
        <time>2020-07-29T11:07:50.853Z</time>
      </trkpt>
      <trkpt lat="61.91701" lon="5.62545">
        <ele>57.29721</ele>
        <time>2020-07-29T11:07:52.834Z</time>
      </trkpt>
      <trkpt lat="61.91706" lon="5.62528">
        <ele>57.516474</ele>
        <time>2020-07-29T11:07:54.843Z</time>
      </trkpt>
      <trkpt lat="61.91711" lon="5.62512">
        <ele>57.729435</ele>
        <time>2020-07-29T11:07:56.831Z</time>
      </trkpt>
      <trkpt lat="61.91717" lon="5.62497">
        <ele>57.943807</ele>
        <time>2020-07-29T11:07:58.840Z</time>
      </trkpt>
      <trkpt lat="61.91723" lon="5.62482">
        <ele>58.160511</ele>
        <time>2020-07-29T11:08:00.810Z</time>
      </trkpt>
      <trkpt lat="61.91729" lon="5.62467">
        <ele>58.373693</ele>
        <time>2020-07-29T11:08:02.826Z</time>
      </trkpt>
      <trkpt lat="61.91735" lon="5.62453">
        <ele>58.587539</ele>
        <time>2020-07-29T11:08:04.820Z</time>
      </trkpt>
      <trkpt lat="61.91741" lon="5.62439">
        <ele>58.799843</ele>
        <time>2020-07-29T11:08:06.821Z</time>
      </trkpt>
      <trkpt lat="61.91748" lon="5.62425">
        <ele>59.016881</ele>
        <time>2020-07-29T11:08:08.839Z</time>
      </trkpt>
      <trkpt lat="61.91754" lon="5.62409">
        <ele>59.233583</ele>
        <time>2020-07-29T11:08:10.835Z</time>
      </trkpt>
      <trkpt lat="61.9176" lon="5.62395">
        <ele>59.44775</ele>
        <time>2020-07-29T11:08:12.823Z</time>
      </trkpt>
      <trkpt lat="61.91768" lon="5.62374">
        <ele>59.753917</ele>
        <time>2020-07-29T11:08:15.847Z</time>
      </trkpt>
      <trkpt lat="61.91777" lon="5.62352">
        <ele>60.064255</ele>
        <time>2020-07-29T11:08:18.846Z</time>
      </trkpt>
      <trkpt lat="61.91785" lon="5.62331">
        <ele>60.357373</ele>
        <time>2020-07-29T11:08:21.820Z</time>
      </trkpt>
      <trkpt lat="61.91791" lon="5.62311">
        <ele>60.613005</ele>
        <time>2020-07-29T11:08:24.824Z</time>
      </trkpt>
      <trkpt lat="61.91797" lon="5.62291">
        <ele>60.824989</ele>
        <time>2020-07-29T11:08:27.841Z</time>
      </trkpt>
      <trkpt lat="61.91804" lon="5.62276">
        <ele>61.011791</ele>
        <time>2020-07-29T11:08:31.832Z</time>
      </trkpt>
      <trkpt lat="61.91813" lon="5.62264">
        <ele>61.203614</ele>
        <time>2020-07-29T11:08:36.823Z</time>
      </trkpt>
      <trkpt lat="61.91818" lon="5.62242">
        <ele>61.424438</ele>
        <time>2020-07-29T11:08:40.822Z</time>
      </trkpt>
      <trkpt lat="61.91821" lon="5.62223">
        <ele>61.603093</ele>
        <time>2020-07-29T11:08:43.813Z</time>
      </trkpt>
      <trkpt lat="61.91825" lon="5.62205">
        <ele>61.780022</ele>
        <time>2020-07-29T11:08:46.831Z</time>
      </trkpt>
      <trkpt lat="61.9183" lon="5.62187">
        <ele>61.966706</ele>
        <time>2020-07-29T11:08:49.858Z</time>
      </trkpt>
      <trkpt lat="61.91833" lon="5.62167">
        <ele>62.158504</ele>
        <time>2020-07-29T11:08:52.831Z</time>
      </trkpt>
      <trkpt lat="61.91836" lon="5.62147">
        <ele>62.345939</ele>
        <time>2020-07-29T11:08:55.825Z</time>
      </trkpt>
      <trkpt lat="61.91839" lon="5.62125">
        <ele>62.546233</ele>
        <time>2020-07-29T11:08:58.814Z</time>
      </trkpt>
      <trkpt lat="61.91843" lon="5.62104">
        <ele>62.753259</ele>
        <time>2020-07-29T11:09:01.817Z</time>
      </trkpt>
      <trkpt lat="61.91846" lon="5.62081">
        <ele>62.971217</ele>
        <time>2020-07-29T11:09:04.811Z</time>
      </trkpt>
      <trkpt lat="61.91851" lon="5.62057">
        <ele>63.193504</ele>
        <time>2020-07-29T11:09:07.825Z</time>
      </trkpt>
      <trkpt lat="61.91854" lon="5.62033">
        <ele>63.42745</ele>
        <time>2020-07-29T11:09:10.821Z</time>
      </trkpt>
      <trkpt lat="61.91857" lon="5.62006">
        <ele>63.670189</ele>
        <time>2020-07-29T11:09:13.808Z</time>
      </trkpt>
      <trkpt lat="61.91859" lon="5.61982">
        <ele>63.892033</ele>
        <time>2020-07-29T11:09:16.849Z</time>
      </trkpt>
      <trkpt lat="61.91859" lon="5.61956">
        <ele>64.15159</ele>
        <time>2020-07-29T11:09:19.840Z</time>
      </trkpt>
      <trkpt lat="61.91861" lon="5.61931">
        <ele>64.424707</ele>
        <time>2020-07-29T11:09:22.812Z</time>
      </trkpt>
      <trkpt lat="61.91864" lon="5.61906">
        <ele>64.703015</ele>
        <time>2020-07-29T11:09:25.814Z</time>
      </trkpt>
      <trkpt lat="61.91867" lon="5.61882">
        <ele>64.966926</ele>
        <time>2020-07-29T11:09:28.825Z</time>
      </trkpt>
      <trkpt lat="61.9187" lon="5.61859">
        <ele>65.216126</ele>
        <time>2020-07-29T11:09:31.832Z</time>
      </trkpt>
      <trkpt lat="61.91873" lon="5.61837">
        <ele>65.462637</ele>
        <time>2020-07-29T11:09:34.819Z</time>
      </trkpt>
      <trkpt lat="61.91877" lon="5.61818">
        <ele>65.692838</ele>
        <time>2020-07-29T11:09:37.819Z</time>
      </trkpt>
      <trkpt lat="61.91882" lon="5.61798">
        <ele>65.927213</ele>
        <time>2020-07-29T11:09:40.838Z</time>
      </trkpt>
      <trkpt lat="61.91887" lon="5.61778">
        <ele>66.16128</ele>
        <time>2020-07-29T11:09:43.836Z</time>
      </trkpt>
      <trkpt lat="61.91891" lon="5.61759">
        <ele>66.39378</ele>
        <time>2020-07-29T11:09:46.809Z</time>
      </trkpt>
      <trkpt lat="61.91897" lon="5.61736">
        <ele>66.665565</ele>
        <time>2020-07-29T11:09:50.812Z</time>
      </trkpt>
      <trkpt lat="61.91902" lon="5.61718">
        <ele>66.887143</ele>
        <time>2020-07-29T11:09:53.825Z</time>
      </trkpt>
      <trkpt lat="61.91907" lon="5.61697">
        <ele>67.143353</ele>
        <time>2020-07-29T11:09:57.827Z</time>
      </trkpt>
      <trkpt lat="61.91909" lon="5.61678">
        <ele>67.35337</ele>
        <time>2020-07-29T11:10:02.842Z</time>
      </trkpt>
      <trkpt lat="61.92304" lon="5.6072">
        <ele>61.292323</ele>
        <time>2020-07-29T11:12:39.894Z</time>
      </trkpt>
      <trkpt lat="61.92289" lon="5.60721">
        <ele>60.917767</ele>
        <time>2020-07-29T11:12:40.829Z</time>
      </trkpt>
      <trkpt lat="61.92307" lon="5.60697">
        <ele>60.379202</ele>
        <time>2020-07-29T11:12:41.856Z</time>
      </trkpt>
      <trkpt lat="61.92325" lon="5.60698">
        <ele>59.918411</ele>
        <time>2020-07-29T11:12:43.816Z</time>
      </trkpt>
      <trkpt lat="61.92328" lon="5.60673">
        <ele>59.606542</ele>
        <time>2020-07-29T11:12:46.820Z</time>
      </trkpt>
      <trkpt lat="61.92329" lon="5.60652">
        <ele>59.361585</ele>
        <time>2020-07-29T11:12:48.833Z</time>
      </trkpt>
      <trkpt lat="61.92329" lon="5.60631">
        <ele>59.11357</ele>
        <time>2020-07-29T11:12:50.818Z</time>
      </trkpt>
      <trkpt lat="61.92329" lon="5.6061">
        <ele>58.860912</ele>
        <time>2020-07-29T11:12:52.856Z</time>
      </trkpt>
      <trkpt lat="61.92328" lon="5.60591">
        <ele>58.629669</ele>
        <time>2020-07-29T11:12:54.825Z</time>
      </trkpt>
      <trkpt lat="61.92329" lon="5.60564">
        <ele>58.316434</ele>
        <time>2020-07-29T11:12:57.844Z</time>
      </trkpt>
      <trkpt lat="61.9233" lon="5.60536">
        <ele>57.982388</ele>
        <time>2020-07-29T11:13:00.827Z</time>
      </trkpt>
      <trkpt lat="61.92331" lon="5.60509">
        <ele>57.651184</ele>
        <time>2020-07-29T11:13:03.831Z</time>
      </trkpt>
      <trkpt lat="61.92332" lon="5.6048">
        <ele>57.749782</ele>
        <time>2020-07-29T11:13:06.824Z</time>
      </trkpt>
      <trkpt lat="61.92333" lon="5.6046">
        <ele>58.043501</ele>
        <time>2020-07-29T11:13:08.814Z</time>
      </trkpt>
      <trkpt lat="61.92333" lon="5.6044">
        <ele>58.325982</ele>
        <time>2020-07-29T11:13:10.840Z</time>
      </trkpt>
      <trkpt lat="61.92334" lon="5.60419">
        <ele>58.611926</ele>
        <time>2020-07-29T11:13:12.827Z</time>
      </trkpt>
      <trkpt lat="61.92333" lon="5.60393">
        <ele>58.985614</ele>
        <time>2020-07-29T11:13:15.827Z</time>
      </trkpt>
      <trkpt lat="61.92333" lon="5.60368">
        <ele>59.330817</ele>
        <time>2020-07-29T11:13:18.832Z</time>
      </trkpt>
      <trkpt lat="61.92333" lon="5.60345">
        <ele>59.664688</ele>
        <time>2020-07-29T11:13:21.827Z</time>
      </trkpt>
      <trkpt lat="61.92335" lon="5.6032">
        <ele>60.014079</ele>
        <time>2020-07-29T11:13:24.819Z</time>
      </trkpt>
      <trkpt lat="61.92337" lon="5.60297">
        <ele>60.344905</ele>
        <time>2020-07-29T11:13:27.826Z</time>
      </trkpt>
      <trkpt lat="61.92341" lon="5.60272">
        <ele>60.718065</ele>
        <time>2020-07-29T11:13:30.812Z</time>
      </trkpt>
      <trkpt lat="61.92344" lon="5.60248">
        <ele>61.071089</ele>
        <time>2020-07-29T11:13:33.828Z</time>
      </trkpt>
      <trkpt lat="61.92347" lon="5.60224">
        <ele>61.418129</ele>
        <time>2020-07-29T11:13:36.840Z</time>
      </trkpt>
      <trkpt lat="61.92353" lon="5.60201">
        <ele>61.786747</ele>
        <time>2020-07-29T11:13:39.844Z</time>
      </trkpt>
      <trkpt lat="61.92358" lon="5.60175">
        <ele>62.174698</ele>
        <time>2020-07-29T11:13:42.820Z</time>
      </trkpt>
      <trkpt lat="61.92362" lon="5.6015">
        <ele>62.553573</ele>
        <time>2020-07-29T11:13:45.808Z</time>
      </trkpt>
      <trkpt lat="61.92367" lon="5.60125">
        <ele>62.888392</ele>
        <time>2020-07-29T11:13:48.821Z</time>
      </trkpt>
      <trkpt lat="61.92371" lon="5.601">
        <ele>62.816941</ele>
        <time>2020-07-29T11:13:51.819Z</time>
      </trkpt>
      <trkpt lat="61.92375" lon="5.60077">
        <ele>62.747845</ele>
        <time>2020-07-29T11:13:54.818Z</time>
      </trkpt>
      <trkpt lat="61.92378" lon="5.60052">
        <ele>62.678381</ele>
        <time>2020-07-29T11:13:57.834Z</time>
      </trkpt>
      <trkpt lat="61.9238" lon="5.60028">
        <ele>62.613196</ele>
        <time>2020-07-29T11:14:00.844Z</time>
      </trkpt>
      <trkpt lat="61.92382" lon="5.60005">
        <ele>62.550764</ele>
        <time>2020-07-29T11:14:03.859Z</time>
      </trkpt>
      <trkpt lat="61.92383" lon="5.59982">
        <ele>62.486352</ele>
        <time>2020-07-29T11:14:06.823Z</time>
      </trkpt>
      <trkpt lat="61.92383" lon="5.59957">
        <ele>62.417575</ele>
        <time>2020-07-29T11:14:09.823Z</time>
      </trkpt>
      <trkpt lat="61.92382" lon="5.59931">
        <ele>62.348917</ele>
        <time>2020-07-29T11:14:12.835Z</time>
      </trkpt>
      <trkpt lat="61.92379" lon="5.59905">
        <ele>62.275025</ele>
        <time>2020-07-29T11:14:15.852Z</time>
      </trkpt>
      <trkpt lat="61.92378" lon="5.59885">
        <ele>62.222514</ele>
        <time>2020-07-29T11:14:17.857Z</time>
      </trkpt>
      <trkpt lat="61.92377" lon="5.59866">
        <ele>62.168047</ele>
        <time>2020-07-29T11:14:19.820Z</time>
      </trkpt>
      <trkpt lat="61.92376" lon="5.59844">
        <ele>62.109046</ele>
        <time>2020-07-29T11:14:21.831Z</time>
      </trkpt>
      <trkpt lat="61.92374" lon="5.59822">
        <ele>62.048511</ele>
        <time>2020-07-29T11:14:23.816Z</time>
      </trkpt>
      <trkpt lat="61.92372" lon="5.598">
        <ele>61.988243</ele>
        <time>2020-07-29T11:14:25.826Z</time>
      </trkpt>
      <trkpt lat="61.92369" lon="5.59779">
        <ele>61.928017</ele>
        <time>2020-07-29T11:14:27.817Z</time>
      </trkpt>
      <trkpt lat="61.92366" lon="5.59756">
        <ele>61.864601</ele>
        <time>2020-07-29T11:14:29.823Z</time>
      </trkpt>
      <trkpt lat="61.92363" lon="5.59734">
        <ele>61.797855</ele>
        <time>2020-07-29T11:14:31.831Z</time>
      </trkpt>
      <trkpt lat="61.92359" lon="5.5971">
        <ele>61.7275</ele>
        <time>2020-07-29T11:14:33.825Z</time>
      </trkpt>
      <trkpt lat="61.92354" lon="5.59687">
        <ele>61.656835</ele>
        <time>2020-07-29T11:14:35.829Z</time>
      </trkpt>
      <trkpt lat="61.92349" lon="5.59664">
        <ele>61.586234</ele>
        <time>2020-07-29T11:14:37.820Z</time>
      </trkpt>
      <trkpt lat="61.92343" lon="5.59643">
        <ele>61.517376</ele>
        <time>2020-07-29T11:14:39.858Z</time>
      </trkpt>
      <trkpt lat="61.92336" lon="5.59622">
        <ele>61.446316</ele>
        <time>2020-07-29T11:14:41.833Z</time>
      </trkpt>
      <trkpt lat="61.92329" lon="5.59602">
        <ele>61.37384</ele>
        <time>2020-07-29T11:14:43.856Z</time>
      </trkpt>
      <trkpt lat="61.92321" lon="5.59582">
        <ele>61.302469</ele>
        <time>2020-07-29T11:14:45.825Z</time>
      </trkpt>
      <trkpt lat="61.92313" lon="5.59562">
        <ele>61.228849</ele>
        <time>2020-07-29T11:14:47.839Z</time>
      </trkpt>
      <trkpt lat="61.92306" lon="5.59542">
        <ele>61.15887</ele>
        <time>2020-07-29T11:14:49.868Z</time>
      </trkpt>
      <trkpt lat="61.92299" lon="5.59523">
        <ele>61.091731</ele>
        <time>2020-07-29T11:14:51.860Z</time>
      </trkpt>
      <trkpt lat="61.92292" lon="5.59505">
        <ele>61.026805</ele>
        <time>2020-07-29T11:14:53.836Z</time>
      </trkpt>
      <trkpt lat="61.92285" lon="5.59487">
        <ele>60.96306</ele>
        <time>2020-07-29T11:14:55.829Z</time>
      </trkpt>
      <trkpt lat="61.92278" lon="5.5947">
        <ele>60.89759</ele>
        <time>2020-07-29T11:14:57.867Z</time>
      </trkpt>
      <trkpt lat="61.92272" lon="5.59453">
        <ele>60.83643</ele>
        <time>2020-07-29T11:14:59.817Z</time>
      </trkpt>
      <trkpt lat="61.92265" lon="5.59437">
        <ele>60.805488</ele>
        <time>2020-07-29T11:15:01.843Z</time>
      </trkpt>
      <trkpt lat="61.92259" lon="5.59422">
        <ele>60.917412</ele>
        <time>2020-07-29T11:15:03.896Z</time>
      </trkpt>
      <trkpt lat="61.92251" lon="5.59402">
        <ele>61.070139</ele>
        <time>2020-07-29T11:15:06.840Z</time>
      </trkpt>
      <trkpt lat="61.92245" lon="5.59383">
        <ele>61.202059</ele>
        <time>2020-07-29T11:15:09.848Z</time>
      </trkpt>
      <trkpt lat="61.92239" lon="5.59364">
        <ele>61.331687</ele>
        <time>2020-07-29T11:15:12.849Z</time>
      </trkpt>
      <trkpt lat="61.92232" lon="5.59345">
        <ele>61.46453</ele>
        <time>2020-07-29T11:15:15.825Z</time>
      </trkpt>
      <trkpt lat="61.92227" lon="5.59327">
        <ele>61.588513</ele>
        <time>2020-07-29T11:15:18.819Z</time>
      </trkpt>
      <trkpt lat="61.92222" lon="5.59308">
        <ele>61.707727</ele>
        <time>2020-07-29T11:15:21.827Z</time>
      </trkpt>
      <trkpt lat="61.92218" lon="5.5929">
        <ele>61.826088</ele>
        <time>2020-07-29T11:15:24.857Z</time>
      </trkpt>
      <trkpt lat="61.92214" lon="5.5927">
        <ele>61.949176</ele>
        <time>2020-07-29T11:15:27.814Z</time>
      </trkpt>
      <trkpt lat="61.92211" lon="5.59249">
        <ele>62.069553</ele>
        <time>2020-07-29T11:15:30.816Z</time>
      </trkpt>
      <trkpt lat="61.92209" lon="5.59227">
        <ele>62.197723</ele>
        <time>2020-07-29T11:15:33.827Z</time>
      </trkpt>
      <trkpt lat="61.92206" lon="5.59206">
        <ele>62.321976</ele>
        <time>2020-07-29T11:15:36.815Z</time>
      </trkpt>
      <trkpt lat="61.92206" lon="5.59185">
        <ele>62.441201</ele>
        <time>2020-07-29T11:15:39.821Z</time>
      </trkpt>
      <trkpt lat="61.92204" lon="5.59163">
        <ele>62.566468</ele>
        <time>2020-07-29T11:15:42.824Z</time>
      </trkpt>
      <trkpt lat="61.92203" lon="5.5914">
        <ele>62.69848</ele>
        <time>2020-07-29T11:15:45.850Z</time>
      </trkpt>
      <trkpt lat="61.92202" lon="5.59118">
        <ele>62.827438</ele>
        <time>2020-07-29T11:15:48.842Z</time>
      </trkpt>
      <trkpt lat="61.92202" lon="5.59093">
        <ele>62.962988</ele>
        <time>2020-07-29T11:15:51.823Z</time>
      </trkpt>
      <trkpt lat="61.92203" lon="5.59068">
        <ele>63.015397</ele>
        <time>2020-07-29T11:15:54.845Z</time>
      </trkpt>
      <trkpt lat="61.92204" lon="5.59042">
        <ele>63.07033</ele>
        <time>2020-07-29T11:15:57.809Z</time>
      </trkpt>
      <trkpt lat="61.92204" lon="5.59014">
        <ele>63.127443</ele>
        <time>2020-07-29T11:16:00.827Z</time>
      </trkpt>
      <trkpt lat="61.92203" lon="5.58995">
        <ele>63.167967</ele>
        <time>2020-07-29T11:16:02.823Z</time>
      </trkpt>
      <trkpt lat="61.92203" lon="5.58976">
        <ele>63.208256</ele>
        <time>2020-07-29T11:16:04.841Z</time>
      </trkpt>
      <trkpt lat="61.92203" lon="5.58948">
        <ele>63.266417</ele>
        <time>2020-07-29T11:16:07.860Z</time>
      </trkpt>
      <trkpt lat="61.92202" lon="5.5892">
        <ele>63.32484</ele>
        <time>2020-07-29T11:16:10.817Z</time>
      </trkpt>
      <trkpt lat="61.92202" lon="5.58899">
        <ele>63.368097</ele>
        <time>2020-07-29T11:16:12.828Z</time>
      </trkpt>
      <trkpt lat="61.922" lon="5.58879">
        <ele>63.4108</ele>
        <time>2020-07-29T11:16:14.835Z</time>
      </trkpt>
      <trkpt lat="61.92199" lon="5.58859">
        <ele>63.453013</ele>
        <time>2020-07-29T11:16:16.821Z</time>
      </trkpt>
      <trkpt lat="61.92198" lon="5.58839">
        <ele>63.49489</ele>
        <time>2020-07-29T11:16:18.849Z</time>
      </trkpt>
      <trkpt lat="61.92197" lon="5.58819">
        <ele>63.536407</ele>
        <time>2020-07-29T11:16:20.859Z</time>
      </trkpt>
      <trkpt lat="61.92197" lon="5.58799">
        <ele>63.578778</ele>
        <time>2020-07-29T11:16:22.843Z</time>
      </trkpt>
      <trkpt lat="61.92196" lon="5.58778">
        <ele>63.621278</ele>
        <time>2020-07-29T11:16:24.829Z</time>
      </trkpt>
      <trkpt lat="61.92195" lon="5.58757">
        <ele>63.66528</ele>
        <time>2020-07-29T11:16:26.834Z</time>
      </trkpt>
      <trkpt lat="61.92193" lon="5.58735">
        <ele>63.71168</ele>
        <time>2020-07-29T11:16:28.810Z</time>
      </trkpt>
      <trkpt lat="61.92192" lon="5.58714">
        <ele>63.756921</ele>
        <time>2020-07-29T11:16:30.842Z</time>
      </trkpt>
      <trkpt lat="61.92192" lon="5.58692">
        <ele>63.683371</ele>
        <time>2020-07-29T11:16:32.824Z</time>
      </trkpt>
      <trkpt lat="61.92191" lon="5.5867">
        <ele>63.60861</ele>
        <time>2020-07-29T11:16:34.847Z</time>
      </trkpt>
      <trkpt lat="61.92192" lon="5.58647">
        <ele>63.534011</ele>
        <time>2020-07-29T11:16:36.807Z</time>
      </trkpt>
      <trkpt lat="61.92193" lon="5.58627">
        <ele>63.465475</ele>
        <time>2020-07-29T11:16:38.857Z</time>
      </trkpt>
      <trkpt lat="61.92193" lon="5.58605">
        <ele>63.392244</ele>
        <time>2020-07-29T11:16:40.814Z</time>
      </trkpt>
      <trkpt lat="61.92194" lon="5.58584">
        <ele>63.321254</ele>
        <time>2020-07-29T11:16:42.844Z</time>
      </trkpt>
      <trkpt lat="61.92196" lon="5.58564">
        <ele>63.252881</ele>
        <time>2020-07-29T11:16:44.827Z</time>
      </trkpt>
      <trkpt lat="61.92199" lon="5.58542">
        <ele>63.175087</ele>
        <time>2020-07-29T11:16:46.817Z</time>
      </trkpt>
      <trkpt lat="61.92202" lon="5.5852">
        <ele>63.096243</ele>
        <time>2020-07-29T11:16:48.827Z</time>
      </trkpt>
      <trkpt lat="61.92207" lon="5.58498">
        <ele>63.015697</ele>
        <time>2020-07-29T11:16:50.842Z</time>
      </trkpt>
      <trkpt lat="61.92212" lon="5.58476">
        <ele>62.934756</ele>
        <time>2020-07-29T11:16:52.829Z</time>
      </trkpt>
      <trkpt lat="61.92218" lon="5.58455">
        <ele>62.850671</ele>
        <time>2020-07-29T11:16:54.819Z</time>
      </trkpt>
      <trkpt lat="61.92225" lon="5.58432">
        <ele>62.76212</ele>
        <time>2020-07-29T11:16:56.821Z</time>
      </trkpt>
      <trkpt lat="61.92232" lon="5.5841">
        <ele>62.6729</ele>
        <time>2020-07-29T11:16:58.839Z</time>
      </trkpt>
      <trkpt lat="61.92238" lon="5.58389">
        <ele>62.587157</ele>
        <time>2020-07-29T11:17:00.824Z</time>
      </trkpt>
      <trkpt lat="61.92245" lon="5.58368">
        <ele>62.503255</ele>
        <time>2020-07-29T11:17:02.856Z</time>
      </trkpt>
      <trkpt lat="61.92251" lon="5.58346">
        <ele>62.348613</ele>
        <time>2020-07-29T11:17:04.830Z</time>
      </trkpt>
      <trkpt lat="61.92257" lon="5.58324">
        <ele>62.146258</ele>
        <time>2020-07-29T11:17:06.854Z</time>
      </trkpt>
      <trkpt lat="61.92263" lon="5.58301">
        <ele>61.9482</ele>
        <time>2020-07-29T11:17:08.835Z</time>
      </trkpt>
      <trkpt lat="61.92267" lon="5.58278">
        <ele>61.751461</ele>
        <time>2020-07-29T11:17:10.849Z</time>
      </trkpt>
      <trkpt lat="61.92271" lon="5.58254">
        <ele>61.556622</ele>
        <time>2020-07-29T11:17:12.853Z</time>
      </trkpt>
      <trkpt lat="61.92273" lon="5.58228">
        <ele>61.353444</ele>
        <time>2020-07-29T11:17:14.825Z</time>
      </trkpt>
      <trkpt lat="61.92274" lon="5.58203">
        <ele>61.152624</ele>
        <time>2020-07-29T11:17:16.809Z</time>
      </trkpt>
      <trkpt lat="61.92275" lon="5.58175">
        <ele>60.942313</ele>
        <time>2020-07-29T11:17:18.832Z</time>
      </trkpt>
      <trkpt lat="61.92274" lon="5.58149">
        <ele>60.735876</ele>
        <time>2020-07-29T11:17:20.817Z</time>
      </trkpt>
      <trkpt lat="61.92273" lon="5.58123">
        <ele>60.534216</ele>
        <time>2020-07-29T11:17:22.843Z</time>
      </trkpt>
      <trkpt lat="61.92272" lon="5.58097">
        <ele>60.329343</ele>
        <time>2020-07-29T11:17:24.835Z</time>
      </trkpt>
      <trkpt lat="61.9227" lon="5.58072">
        <ele>60.135263</ele>
        <time>2020-07-29T11:17:26.819Z</time>
      </trkpt>
      <trkpt lat="61.92268" lon="5.58048">
        <ele>59.945008</ele>
        <time>2020-07-29T11:17:28.881Z</time>
      </trkpt>
      <trkpt lat="61.92266" lon="5.58025">
        <ele>59.764466</ele>
        <time>2020-07-29T11:17:30.852Z</time>
      </trkpt>
      <trkpt lat="61.92264" lon="5.58003">
        <ele>59.591472</ele>
        <time>2020-07-29T11:17:32.831Z</time>
      </trkpt>
      <trkpt lat="61.92262" lon="5.57982">
        <ele>59.419595</ele>
        <time>2020-07-29T11:17:34.825Z</time>
      </trkpt>
      <trkpt lat="61.92261" lon="5.57961">
        <ele>59.247795</ele>
        <time>2020-07-29T11:17:36.836Z</time>
      </trkpt>
      <trkpt lat="61.92259" lon="5.57942">
        <ele>59.087867</ele>
        <time>2020-07-29T11:17:38.830Z</time>
      </trkpt>
      <trkpt lat="61.92258" lon="5.57922">
        <ele>58.928589</ele>
        <time>2020-07-29T11:17:40.829Z</time>
      </trkpt>
      <trkpt lat="61.92257" lon="5.57896">
        <ele>58.715819</ele>
        <time>2020-07-29T11:17:43.815Z</time>
      </trkpt>
      <trkpt lat="61.92256" lon="5.57872">
        <ele>58.515799</ele>
        <time>2020-07-29T11:17:46.823Z</time>
      </trkpt>
      <trkpt lat="61.92255" lon="5.57847">
        <ele>58.313141</ele>
        <time>2020-07-29T11:17:49.821Z</time>
      </trkpt>
      <trkpt lat="61.92254" lon="5.5782">
        <ele>58.091042</ele>
        <time>2020-07-29T11:17:52.846Z</time>
      </trkpt>
      <trkpt lat="61.92255" lon="5.57791">
        <ele>57.857394</ele>
        <time>2020-07-29T11:17:55.812Z</time>
      </trkpt>
      <trkpt lat="61.92255" lon="5.57771">
        <ele>57.694083</ele>
        <time>2020-07-29T11:17:57.853Z</time>
      </trkpt>
      <trkpt lat="61.92256" lon="5.5775">
        <ele>57.521819</ele>
        <time>2020-07-29T11:17:59.828Z</time>
      </trkpt>
      <trkpt lat="61.92258" lon="5.57728">
        <ele>57.340394</ele>
        <time>2020-07-29T11:18:01.849Z</time>
      </trkpt>
      <trkpt lat="61.92259" lon="5.57704">
        <ele>57.141507</ele>
        <time>2020-07-29T11:18:03.845Z</time>
      </trkpt>
      <trkpt lat="61.92262" lon="5.57679">
        <ele>56.927766</ele>
        <time>2020-07-29T11:18:05.819Z</time>
      </trkpt>
      <trkpt lat="61.92265" lon="5.57651">
        <ele>56.693691</ele>
        <time>2020-07-29T11:18:07.838Z</time>
      </trkpt>
      <trkpt lat="61.92269" lon="5.57622">
        <ele>56.447799</ele>
        <time>2020-07-29T11:18:09.816Z</time>
      </trkpt>
      <trkpt lat="61.92271" lon="5.57593">
        <ele>56.658941</ele>
        <time>2020-07-29T11:18:11.837Z</time>
      </trkpt>
      <trkpt lat="61.92272" lon="5.57564">
        <ele>56.9974</ele>
        <time>2020-07-29T11:18:13.836Z</time>
      </trkpt>
      <trkpt lat="61.92272" lon="5.57538">
        <ele>57.305555</ele>
        <time>2020-07-29T11:18:15.818Z</time>
      </trkpt>
      <trkpt lat="61.92271" lon="5.57515">
        <ele>57.585529</ele>
        <time>2020-07-29T11:18:17.821Z</time>
      </trkpt>
      <trkpt lat="61.92269" lon="5.57493">
        <ele>57.849577</ele>
        <time>2020-07-29T11:18:19.844Z</time>
      </trkpt>
      <trkpt lat="61.92268" lon="5.57473">
        <ele>58.094634</ele>
        <time>2020-07-29T11:18:21.850Z</time>
      </trkpt>
      <trkpt lat="61.92266" lon="5.57454">
        <ele>58.328037</ele>
        <time>2020-07-29T11:18:23.863Z</time>
      </trkpt>
      <trkpt lat="61.92262" lon="5.57429">
        <ele>58.634506</ele>
        <time>2020-07-29T11:18:26.819Z</time>
      </trkpt>
      <trkpt lat="61.92258" lon="5.57405">
        <ele>58.933185</ele>
        <time>2020-07-29T11:18:29.832Z</time>
      </trkpt>
      <trkpt lat="61.92255" lon="5.57382">
        <ele>59.221534</ele>
        <time>2020-07-29T11:18:32.820Z</time>
      </trkpt>
      <trkpt lat="61.9225" lon="5.57364">
        <ele>59.466949</ele>
        <time>2020-07-29T11:18:35.825Z</time>
      </trkpt>
      <trkpt lat="61.92246" lon="5.57345">
        <ele>59.715591</ele>
        <time>2020-07-29T11:18:38.812Z</time>
      </trkpt>
      <trkpt lat="61.92243" lon="5.57326">
        <ele>59.955131</ele>
        <time>2020-07-29T11:18:41.836Z</time>
      </trkpt>
      <trkpt lat="61.92241" lon="5.57307">
        <ele>60.188238</ele>
        <time>2020-07-29T11:18:44.841Z</time>
      </trkpt>
      <trkpt lat="61.92238" lon="5.57283">
        <ele>60.477177</ele>
        <time>2020-07-29T11:18:48.821Z</time>
      </trkpt>
      <trkpt lat="61.92237" lon="5.57263">
        <ele>60.711222</ele>
        <time>2020-07-29T11:18:51.816Z</time>
      </trkpt>
      <trkpt lat="61.92235" lon="5.57244">
        <ele>60.954</ele>
        <time>2020-07-29T11:18:54.827Z</time>
      </trkpt>
      <trkpt lat="61.92235" lon="5.57225">
        <ele>61.430656</ele>
        <time>2020-07-29T11:18:57.824Z</time>
      </trkpt>
      <trkpt lat="61.92235" lon="5.57202">
        <ele>61.982287</ele>
        <time>2020-07-29T11:19:00.837Z</time>
      </trkpt>
      <trkpt lat="61.92237" lon="5.57178">
        <ele>62.553661</ele>
        <time>2020-07-29T11:19:03.825Z</time>
      </trkpt>
      <trkpt lat="61.92238" lon="5.57157">
        <ele>63.066254</ele>
        <time>2020-07-29T11:19:06.824Z</time>
      </trkpt>
      <trkpt lat="61.92239" lon="5.57137">
        <ele>63.565112</ele>
        <time>2020-07-29T11:19:09.827Z</time>
      </trkpt>
      <trkpt lat="61.92243" lon="5.57117">
        <ele>64.089542</ele>
        <time>2020-07-29T11:19:12.820Z</time>
      </trkpt>
      <trkpt lat="61.92246" lon="5.57095">
        <ele>64.645605</ele>
        <time>2020-07-29T11:19:15.819Z</time>
      </trkpt>
      <trkpt lat="61.92249" lon="5.57072">
        <ele>65.215041</ele>
        <time>2020-07-29T11:19:18.881Z</time>
      </trkpt>
      <trkpt lat="61.92253" lon="5.57048">
        <ele>65.834561</ele>
        <time>2020-07-29T11:19:21.820Z</time>
      </trkpt>
      <trkpt lat="61.92257" lon="5.57023">
        <ele>66.469961</ele>
        <time>2020-07-29T11:19:24.820Z</time>
      </trkpt>
      <trkpt lat="61.9226" lon="5.57">
        <ele>67.061402</ele>
        <time>2020-07-29T11:19:27.836Z</time>
      </trkpt>
      <trkpt lat="61.92263" lon="5.56975">
        <ele>67.670294</ele>
        <time>2020-07-29T11:19:30.843Z</time>
      </trkpt>
      <trkpt lat="61.92265" lon="5.56952">
        <ele>68.254446</ele>
        <time>2020-07-29T11:19:33.806Z</time>
      </trkpt>
      <trkpt lat="61.92267" lon="5.56928">
        <ele>68.823324</ele>
        <time>2020-07-29T11:19:36.879Z</time>
      </trkpt>
      <trkpt lat="61.9227" lon="5.56907">
        <ele>69.370041</ele>
        <time>2020-07-29T11:19:39.835Z</time>
      </trkpt>
      <trkpt lat="61.92273" lon="5.56884">
        <ele>69.94233</ele>
        <time>2020-07-29T11:19:42.811Z</time>
      </trkpt>
      <trkpt lat="61.92275" lon="5.5686">
        <ele>70.080548</ele>
        <time>2020-07-29T11:19:45.848Z</time>
      </trkpt>
      <trkpt lat="61.92278" lon="5.56837">
        <ele>69.911416</ele>
        <time>2020-07-29T11:19:48.834Z</time>
      </trkpt>
      <trkpt lat="61.92281" lon="5.56815">
        <ele>69.746874</ele>
        <time>2020-07-29T11:19:51.818Z</time>
      </trkpt>
      <trkpt lat="61.92284" lon="5.56794">
        <ele>69.589402</ele>
        <time>2020-07-29T11:19:54.835Z</time>
      </trkpt>
      <trkpt lat="61.92287" lon="5.56772">
        <ele>69.430384</ele>
        <time>2020-07-29T11:19:57.831Z</time>
      </trkpt>
      <trkpt lat="61.92289" lon="5.56751">
        <ele>69.269859</ele>
        <time>2020-07-29T11:20:00.835Z</time>
      </trkpt>
      <trkpt lat="61.92293" lon="5.56727">
        <ele>69.088616</ele>
        <time>2020-07-29T11:20:03.807Z</time>
      </trkpt>
      <trkpt lat="61.92298" lon="5.56701">
        <ele>68.894538</ele>
        <time>2020-07-29T11:20:06.823Z</time>
      </trkpt>
      <trkpt lat="61.92299" lon="5.56676">
        <ele>68.709789</ele>
        <time>2020-07-29T11:20:09.811Z</time>
      </trkpt>
      <trkpt lat="61.923" lon="5.5665">
        <ele>68.523196</ele>
        <time>2020-07-29T11:20:12.835Z</time>
      </trkpt>
      <trkpt lat="61.923" lon="5.56625">
        <ele>68.344789</ele>
        <time>2020-07-29T11:20:15.828Z</time>
      </trkpt>
      <trkpt lat="61.923" lon="5.56601">
        <ele>68.169189</ele>
        <time>2020-07-29T11:20:18.848Z</time>
      </trkpt>
      <trkpt lat="61.923" lon="5.56576">
        <ele>67.989962</ele>
        <time>2020-07-29T11:20:21.838Z</time>
      </trkpt>
      <trkpt lat="61.92298" lon="5.56551">
        <ele>67.809688</ele>
        <time>2020-07-29T11:20:24.824Z</time>
      </trkpt>
      <trkpt lat="61.92297" lon="5.56527">
        <ele>67.642101</ele>
        <time>2020-07-29T11:20:27.827Z</time>
      </trkpt>
      <trkpt lat="61.92296" lon="5.56504">
        <ele>67.470431</ele>
        <time>2020-07-29T11:20:30.833Z</time>
      </trkpt>
      <trkpt lat="61.92294" lon="5.5648">
        <ele>67.268934</ele>
        <time>2020-07-29T11:20:33.831Z</time>
      </trkpt>
      <trkpt lat="61.92293" lon="5.56458">
        <ele>67.083135</ele>
        <time>2020-07-29T11:20:36.820Z</time>
      </trkpt>
      <trkpt lat="61.92292" lon="5.56438">
        <ele>66.912442</ele>
        <time>2020-07-29T11:20:39.832Z</time>
      </trkpt>
      <trkpt lat="61.92291" lon="5.56419">
        <ele>66.747841</ele>
        <time>2020-07-29T11:20:42.833Z</time>
      </trkpt>
      <trkpt lat="61.92289" lon="5.56398">
        <ele>66.566436</ele>
        <time>2020-07-29T11:20:45.820Z</time>
      </trkpt>
      <trkpt lat="61.92287" lon="5.56377">
        <ele>66.383208</ele>
        <time>2020-07-29T11:20:48.854Z</time>
      </trkpt>
      <trkpt lat="61.92284" lon="5.56356">
        <ele>66.190068</ele>
        <time>2020-07-29T11:20:51.856Z</time>
      </trkpt>
      <trkpt lat="61.9228" lon="5.56336">
        <ele>66.013205</ele>
        <time>2020-07-29T11:20:54.826Z</time>
      </trkpt>
      <trkpt lat="61.92277" lon="5.56317">
        <ele>65.839271</ele>
        <time>2020-07-29T11:20:57.829Z</time>
      </trkpt>
      <trkpt lat="61.92274" lon="5.56299">
        <ele>65.676231</ele>
        <time>2020-07-29T11:21:00.841Z</time>
      </trkpt>
      <trkpt lat="61.92271" lon="5.56276">
        <ele>65.467626</ele>
        <time>2020-07-29T11:21:04.831Z</time>
      </trkpt>
      <trkpt lat="61.92268" lon="5.56256">
        <ele>65.291129</ele>
        <time>2020-07-29T11:21:07.824Z</time>
      </trkpt>
      <trkpt lat="61.92266" lon="5.56234">
        <ele>65.105135</ele>
        <time>2020-07-29T11:21:10.822Z</time>
      </trkpt>
      <trkpt lat="61.92263" lon="5.56213">
        <ele>64.917814</ele>
        <time>2020-07-29T11:21:13.839Z</time>
      </trkpt>
      <trkpt lat="61.92261" lon="5.56191">
        <ele>64.727652</ele>
        <time>2020-07-29T11:21:16.813Z</time>
      </trkpt>
      <trkpt lat="61.9226" lon="5.56169">
        <ele>64.534586</ele>
        <time>2020-07-29T11:21:19.819Z</time>
      </trkpt>
      <trkpt lat="61.9226" lon="5.56146">
        <ele>64.338339</ele>
        <time>2020-07-29T11:21:22.836Z</time>
      </trkpt>
      <trkpt lat="61.9226" lon="5.56122">
        <ele>64.197427</ele>
        <time>2020-07-29T11:21:25.826Z</time>
      </trkpt>
      <trkpt lat="61.92261" lon="5.56096">
        <ele>64.249236</ele>
        <time>2020-07-29T11:21:28.852Z</time>
      </trkpt>
      <trkpt lat="61.92265" lon="5.5607">
        <ele>64.304247</ele>
        <time>2020-07-29T11:21:31.819Z</time>
      </trkpt>
      <trkpt lat="61.92271" lon="5.56045">
        <ele>64.360876</ele>
        <time>2020-07-29T11:21:34.824Z</time>
      </trkpt>
      <trkpt lat="61.92274" lon="5.56027">
        <ele>64.400493</ele>
        <time>2020-07-29T11:21:36.841Z</time>
      </trkpt>
      <trkpt lat="61.92278" lon="5.56009">
        <ele>64.439594</ele>
        <time>2020-07-29T11:21:38.835Z</time>
      </trkpt>
      <trkpt lat="61.92281" lon="5.5599">
        <ele>64.480046</ele>
        <time>2020-07-29T11:21:40.814Z</time>
      </trkpt>
      <trkpt lat="61.92284" lon="5.55969">
        <ele>64.523375</ele>
        <time>2020-07-29T11:21:42.821Z</time>
      </trkpt>
      <trkpt lat="61.92287" lon="5.55948">
        <ele>64.565803</ele>
        <time>2020-07-29T11:21:44.818Z</time>
      </trkpt>
      <trkpt lat="61.9229" lon="5.55929">
        <ele>64.605818</ele>
        <time>2020-07-29T11:21:46.856Z</time>
      </trkpt>
      <trkpt lat="61.92292" lon="5.55911">
        <ele>64.64486</ele>
        <time>2020-07-29T11:21:48.819Z</time>
      </trkpt>
      <trkpt lat="61.92294" lon="5.55891">
        <ele>64.684827</ele>
        <time>2020-07-29T11:21:50.831Z</time>
      </trkpt>
      <trkpt lat="61.92295" lon="5.55872">
        <ele>64.723761</ele>
        <time>2020-07-29T11:21:52.846Z</time>
      </trkpt>
      <trkpt lat="61.92294" lon="5.55849">
        <ele>64.769993</ele>
        <time>2020-07-29T11:21:55.839Z</time>
      </trkpt>
      <trkpt lat="61.92292" lon="5.55828">
        <ele>64.813244</ele>
        <time>2020-07-29T11:22:01.862Z</time>
      </trkpt>
      <trkpt lat="61.92302" lon="5.55799">
        <ele>64.885049</ele>
        <time>2020-07-29T11:26:01.847Z</time>
      </trkpt>
      <trkpt lat="61.92304" lon="5.55779">
        <ele>64.925432</ele>
        <time>2020-07-29T11:26:04.822Z</time>
      </trkpt>
      <trkpt lat="61.92306" lon="5.55756">
        <ele>64.846093</ele>
        <time>2020-07-29T11:26:07.831Z</time>
      </trkpt>
      <trkpt lat="61.92307" lon="5.55733">
        <ele>64.635515</ele>
        <time>2020-07-29T11:26:10.860Z</time>
      </trkpt>
      <trkpt lat="61.92308" lon="5.5571">
        <ele>64.43033</ele>
        <time>2020-07-29T11:26:13.838Z</time>
      </trkpt>
      <trkpt lat="61.9231" lon="5.5569">
        <ele>64.24119</ele>
        <time>2020-07-29T11:26:16.834Z</time>
      </trkpt>
      <trkpt lat="61.92312" lon="5.55669">
        <ele>64.055663</ele>
        <time>2020-07-29T11:26:20.838Z</time>
      </trkpt>
      <trkpt lat="61.92755" lon="5.53889">
        <ele>60.050174</ele>
        <time>2020-07-29T11:30:49.917Z</time>
      </trkpt>
      <trkpt lat="61.9272" lon="5.53815">
        <ele>66.413789</ele>
        <time>2020-07-29T11:30:51.830Z</time>
      </trkpt>
      <trkpt lat="61.92726" lon="5.53799">
        <ele>67.638377</ele>
        <time>2020-07-29T11:30:53.867Z</time>
      </trkpt>
      <trkpt lat="61.92731" lon="5.53783">
        <ele>68.794116</ele>
        <time>2020-07-29T11:30:55.843Z</time>
      </trkpt>
      <trkpt lat="61.92734" lon="5.53765">
        <ele>69.983912</ele>
        <time>2020-07-29T11:30:57.816Z</time>
      </trkpt>
      <trkpt lat="61.92735" lon="5.53737">
        <ele>71.083058</ele>
        <time>2020-07-29T11:31:00.827Z</time>
      </trkpt>
      <trkpt lat="61.92736" lon="5.53709">
        <ele>71.320699</ele>
        <time>2020-07-29T11:31:03.837Z</time>
      </trkpt>
      <trkpt lat="61.92738" lon="5.5369">
        <ele>71.478363</ele>
        <time>2020-07-29T11:31:05.862Z</time>
      </trkpt>
      <trkpt lat="61.92739" lon="5.53671">
        <ele>71.636522</ele>
        <time>2020-07-29T11:31:07.843Z</time>
      </trkpt>
      <trkpt lat="61.92741" lon="5.53652">
        <ele>71.797428</ele>
        <time>2020-07-29T11:31:09.860Z</time>
      </trkpt>
      <trkpt lat="61.92743" lon="5.53631">
        <ele>71.972924</ele>
        <time>2020-07-29T11:31:11.824Z</time>
      </trkpt>
      <trkpt lat="61.92744" lon="5.53609">
        <ele>72.153693</ele>
        <time>2020-07-29T11:31:13.833Z</time>
      </trkpt>
      <trkpt lat="61.92745" lon="5.53587">
        <ele>72.333644</ele>
        <time>2020-07-29T11:31:15.827Z</time>
      </trkpt>
      <trkpt lat="61.92745" lon="5.53564">
        <ele>72.524791</ele>
        <time>2020-07-29T11:31:17.819Z</time>
      </trkpt>
      <trkpt lat="61.92747" lon="5.53539">
        <ele>72.732015</ele>
        <time>2020-07-29T11:31:19.817Z</time>
      </trkpt>
      <trkpt lat="61.92749" lon="5.53514">
        <ele>72.941004</ele>
        <time>2020-07-29T11:31:21.856Z</time>
      </trkpt>
      <trkpt lat="61.9275" lon="5.5349">
        <ele>73.139441</ele>
        <time>2020-07-29T11:31:23.832Z</time>
      </trkpt>
      <trkpt lat="61.92753" lon="5.53465">
        <ele>73.353903</ele>
        <time>2020-07-29T11:31:25.822Z</time>
      </trkpt>
      <trkpt lat="61.92757" lon="5.53439">
        <ele>73.579191</ele>
        <time>2020-07-29T11:31:27.819Z</time>
      </trkpt>
      <trkpt lat="61.92761" lon="5.5341">
        <ele>73.82143</ele>
        <time>2020-07-29T11:31:29.832Z</time>
      </trkpt>
      <trkpt lat="61.92764" lon="5.53379">
        <ele>74.087599</ele>
        <time>2020-07-29T11:31:31.831Z</time>
      </trkpt>
      <trkpt lat="61.92769" lon="5.53348">
        <ele>73.283011</ele>
        <time>2020-07-29T11:31:33.837Z</time>
      </trkpt>
      <trkpt lat="61.92774" lon="5.53316">
        <ele>72.151445</ele>
        <time>2020-07-29T11:31:35.858Z</time>
      </trkpt>
      <trkpt lat="61.92778" lon="5.53283">
        <ele>71.017386</ele>
        <time>2020-07-29T11:31:37.819Z</time>
      </trkpt>
      <trkpt lat="61.92781" lon="5.53248">
        <ele>69.841775</ele>
        <time>2020-07-29T11:31:39.830Z</time>
      </trkpt>
      <trkpt lat="61.92784" lon="5.53213">
        <ele>68.655291</ele>
        <time>2020-07-29T11:31:41.834Z</time>
      </trkpt>
      <trkpt lat="61.92787" lon="5.53178">
        <ele>67.481842</ele>
        <time>2020-07-29T11:31:43.811Z</time>
      </trkpt>
      <trkpt lat="61.9279" lon="5.53142">
        <ele>66.273295</ele>
        <time>2020-07-29T11:31:45.825Z</time>
      </trkpt>
      <trkpt lat="61.92791" lon="5.53107">
        <ele>65.118361</ele>
        <time>2020-07-29T11:31:47.815Z</time>
      </trkpt>
      <trkpt lat="61.92792" lon="5.53074">
        <ele>64.008785</ele>
        <time>2020-07-29T11:31:49.823Z</time>
      </trkpt>
      <trkpt lat="61.92792" lon="5.53043">
        <ele>62.958343</ele>
        <time>2020-07-29T11:31:51.840Z</time>
      </trkpt>
      <trkpt lat="61.92791" lon="5.53012">
        <ele>61.941022</ele>
        <time>2020-07-29T11:31:53.834Z</time>
      </trkpt>
      <trkpt lat="61.9279" lon="5.52983">
        <ele>61.367751</ele>
        <time>2020-07-29T11:31:55.836Z</time>
      </trkpt>
      <trkpt lat="61.92787" lon="5.52956">
        <ele>61.228557</ele>
        <time>2020-07-29T11:31:57.881Z</time>
      </trkpt>
      <trkpt lat="61.92783" lon="5.5293">
        <ele>61.093398</ele>
        <time>2020-07-29T11:31:59.831Z</time>
      </trkpt>
      <trkpt lat="61.9278" lon="5.52905">
        <ele>60.96288</ele>
        <time>2020-07-29T11:32:01.858Z</time>
      </trkpt>
      <trkpt lat="61.92776" lon="5.52881">
        <ele>60.833929</ele>
        <time>2020-07-29T11:32:03.825Z</time>
      </trkpt>
      <trkpt lat="61.92772" lon="5.52857">
        <ele>60.704745</ele>
        <time>2020-07-29T11:32:05.833Z</time>
      </trkpt>
      <trkpt lat="61.92767" lon="5.52834">
        <ele>60.580365</ele>
        <time>2020-07-29T11:32:07.826Z</time>
      </trkpt>
      <trkpt lat="61.92763" lon="5.52811">
        <ele>60.458498</ele>
        <time>2020-07-29T11:32:09.842Z</time>
      </trkpt>
      <trkpt lat="61.92758" lon="5.5279">
        <ele>60.339395</ele>
        <time>2020-07-29T11:32:11.832Z</time>
      </trkpt>
      <trkpt lat="61.92754" lon="5.52769">
        <ele>60.225252</ele>
        <time>2020-07-29T11:32:13.815Z</time>
      </trkpt>
      <trkpt lat="61.92751" lon="5.52749">
        <ele>60.119019</ele>
        <time>2020-07-29T11:32:15.817Z</time>
      </trkpt>
      <trkpt lat="61.92748" lon="5.5273">
        <ele>60.016716</ele>
        <time>2020-07-29T11:32:17.820Z</time>
      </trkpt>
      <trkpt lat="61.92745" lon="5.52711">
        <ele>59.914628</ele>
        <time>2020-07-29T11:32:19.858Z</time>
      </trkpt>
      <trkpt lat="61.92742" lon="5.5269">
        <ele>59.807594</ele>
        <time>2020-07-29T11:32:21.811Z</time>
      </trkpt>
      <trkpt lat="61.92738" lon="5.5267">
        <ele>59.700981</ele>
        <time>2020-07-29T11:32:23.855Z</time>
      </trkpt>
      <trkpt lat="61.92735" lon="5.52651">
        <ele>59.600096</ele>
        <time>2020-07-29T11:32:25.819Z</time>
      </trkpt>
      <trkpt lat="61.92732" lon="5.52633">
        <ele>59.510384</ele>
        <time>2020-07-29T11:32:27.837Z</time>
      </trkpt>
      <trkpt lat="61.92728" lon="5.52608">
        <ele>59.436489</ele>
        <time>2020-07-29T11:32:30.839Z</time>
      </trkpt>
      <trkpt lat="61.92724" lon="5.5258">
        <ele>59.358447</ele>
        <time>2020-07-29T11:32:33.825Z</time>
      </trkpt>
      <trkpt lat="61.9272" lon="5.5256">
        <ele>59.300136</ele>
        <time>2020-07-29T11:32:35.833Z</time>
      </trkpt>
      <trkpt lat="61.92716" lon="5.52539">
        <ele>59.240605</ele>
        <time>2020-07-29T11:32:37.838Z</time>
      </trkpt>
      <trkpt lat="61.92713" lon="5.5252">
        <ele>59.184222</ele>
        <time>2020-07-29T11:32:39.820Z</time>
      </trkpt>
      <trkpt lat="61.92709" lon="5.52502">
        <ele>59.130965</ele>
        <time>2020-07-29T11:32:41.844Z</time>
      </trkpt>
      <trkpt lat="61.92706" lon="5.52483">
        <ele>59.075179</ele>
        <time>2020-07-29T11:32:43.816Z</time>
      </trkpt>
      <trkpt lat="61.92702" lon="5.52464">
        <ele>59.020398</ele>
        <time>2020-07-29T11:32:45.839Z</time>
      </trkpt>
      <trkpt lat="61.92697" lon="5.52446">
        <ele>58.964175</ele>
        <time>2020-07-29T11:32:47.837Z</time>
      </trkpt>
      <trkpt lat="61.92693" lon="5.52427">
        <ele>58.905705</ele>
        <time>2020-07-29T11:32:49.817Z</time>
      </trkpt>
      <trkpt lat="61.92688" lon="5.52407">
        <ele>58.847562</ele>
        <time>2020-07-29T11:32:51.843Z</time>
      </trkpt>
      <trkpt lat="61.92684" lon="5.52387">
        <ele>58.787697</ele>
        <time>2020-07-29T11:32:53.821Z</time>
      </trkpt>
      <trkpt lat="61.92679" lon="5.52368">
        <ele>58.728294</ele>
        <time>2020-07-29T11:32:55.844Z</time>
      </trkpt>
      <trkpt lat="61.92674" lon="5.52349">
        <ele>58.669787</ele>
        <time>2020-07-29T11:32:57.837Z</time>
      </trkpt>
      <trkpt lat="61.92669" lon="5.5233">
        <ele>58.60861</ele>
        <time>2020-07-29T11:32:59.825Z</time>
      </trkpt>
      <trkpt lat="61.92663" lon="5.52311">
        <ele>58.54859</ele>
        <time>2020-07-29T11:33:01.815Z</time>
      </trkpt>
      <trkpt lat="61.92659" lon="5.52291">
        <ele>58.488681</ele>
        <time>2020-07-29T11:33:03.835Z</time>
      </trkpt>
      <trkpt lat="61.92654" lon="5.52272">
        <ele>58.580768</ele>
        <time>2020-07-29T11:33:05.820Z</time>
      </trkpt>
      <trkpt lat="61.9265" lon="5.52253">
        <ele>58.688069</ele>
        <time>2020-07-29T11:33:07.880Z</time>
      </trkpt>
      <trkpt lat="61.92646" lon="5.52234">
        <ele>58.797351</ele>
        <time>2020-07-29T11:33:09.817Z</time>
      </trkpt>
      <trkpt lat="61.92641" lon="5.52215">
        <ele>58.907494</ele>
        <time>2020-07-29T11:33:11.815Z</time>
      </trkpt>
      <trkpt lat="61.92637" lon="5.52195">
        <ele>59.021774</ele>
        <time>2020-07-29T11:33:13.819Z</time>
      </trkpt>
      <trkpt lat="61.92633" lon="5.52175">
        <ele>59.131015</ele>
        <time>2020-07-29T11:33:15.855Z</time>
      </trkpt>
      <trkpt lat="61.92629" lon="5.52156">
        <ele>59.233848</ele>
        <time>2020-07-29T11:33:17.814Z</time>
      </trkpt>
      <trkpt lat="61.92626" lon="5.52138">
        <ele>59.335898</ele>
        <time>2020-07-29T11:33:19.825Z</time>
      </trkpt>
      <trkpt lat="61.92623" lon="5.52119">
        <ele>59.435742</ele>
        <time>2020-07-29T11:33:21.811Z</time>
      </trkpt>
      <trkpt lat="61.92621" lon="5.52099">
        <ele>59.541207</ele>
        <time>2020-07-29T11:33:23.817Z</time>
      </trkpt>
      <trkpt lat="61.9262" lon="5.52079">
        <ele>59.647055</ele>
        <time>2020-07-29T11:33:25.817Z</time>
      </trkpt>
      <trkpt lat="61.92618" lon="5.52058">
        <ele>59.754504</ele>
        <time>2020-07-29T11:33:27.827Z</time>
      </trkpt>
      <trkpt lat="61.92617" lon="5.52038">
        <ele>59.859795</ele>
        <time>2020-07-29T11:33:29.815Z</time>
      </trkpt>
      <trkpt lat="61.92617" lon="5.52017">
        <ele>59.966623</ele>
        <time>2020-07-29T11:33:31.823Z</time>
      </trkpt>
      <trkpt lat="61.92617" lon="5.51996">
        <ele>60.071911</ele>
        <time>2020-07-29T11:33:33.812Z</time>
      </trkpt>
      <trkpt lat="61.92617" lon="5.51977">
        <ele>60.171525</ele>
        <time>2020-07-29T11:33:35.819Z</time>
      </trkpt>
      <trkpt lat="61.92617" lon="5.51958">
        <ele>60.270626</ele>
        <time>2020-07-29T11:33:37.856Z</time>
      </trkpt>
      <trkpt lat="61.92617" lon="5.51938">
        <ele>60.371757</ele>
        <time>2020-07-29T11:33:39.844Z</time>
      </trkpt>
      <trkpt lat="61.92617" lon="5.51918">
        <ele>60.482275</ele>
        <time>2020-07-29T11:33:41.825Z</time>
      </trkpt>
      <trkpt lat="61.92619" lon="5.51899">
        <ele>60.618417</ele>
        <time>2020-07-29T11:33:43.837Z</time>
      </trkpt>
      <trkpt lat="61.9262" lon="5.5188">
        <ele>60.750675</ele>
        <time>2020-07-29T11:33:45.837Z</time>
      </trkpt>
      <trkpt lat="61.92624" lon="5.51854">
        <ele>60.940011</ele>
        <time>2020-07-29T11:33:48.829Z</time>
      </trkpt>
      <trkpt lat="61.92626" lon="5.51835">
        <ele>61.073925</ele>
        <time>2020-07-29T11:33:50.830Z</time>
      </trkpt>
      <trkpt lat="61.92628" lon="5.51816">
        <ele>61.20617</ele>
        <time>2020-07-29T11:33:52.845Z</time>
      </trkpt>
      <trkpt lat="61.92629" lon="5.51796">
        <ele>61.346298</ele>
        <time>2020-07-29T11:33:54.838Z</time>
      </trkpt>
      <trkpt lat="61.92629" lon="5.51777">
        <ele>61.480916</ele>
        <time>2020-07-29T11:33:56.865Z</time>
      </trkpt>
      <trkpt lat="61.9263" lon="5.51757">
        <ele>61.613347</ele>
        <time>2020-07-29T11:33:58.819Z</time>
      </trkpt>
      <trkpt lat="61.9263" lon="5.51728">
        <ele>61.8152</ele>
        <time>2020-07-29T11:34:01.828Z</time>
      </trkpt>
      <trkpt lat="61.92631" lon="5.51709">
        <ele>61.952334</ele>
        <time>2020-07-29T11:34:03.850Z</time>
      </trkpt>
      <trkpt lat="61.92633" lon="5.51689">
        <ele>62.09074</ele>
        <time>2020-07-29T11:34:05.844Z</time>
      </trkpt>
      <trkpt lat="61.92635" lon="5.51669">
        <ele>62.230139</ele>
        <time>2020-07-29T11:34:07.846Z</time>
      </trkpt>
      <trkpt lat="61.92637" lon="5.5165">
        <ele>62.366067</ele>
        <time>2020-07-29T11:34:09.821Z</time>
      </trkpt>
      <trkpt lat="61.9264" lon="5.51624">
        <ele>62.551423</ele>
        <time>2020-07-29T11:34:12.847Z</time>
      </trkpt>
      <trkpt lat="61.92644" lon="5.516">
        <ele>62.726771</ele>
        <time>2020-07-29T11:34:15.878Z</time>
      </trkpt>
      <trkpt lat="61.92648" lon="5.51577">
        <ele>62.89588</ele>
        <time>2020-07-29T11:34:18.813Z</time>
      </trkpt>
      <trkpt lat="61.9265" lon="5.51555">
        <ele>63.052085</ele>
        <time>2020-07-29T11:34:21.822Z</time>
      </trkpt>
      <trkpt lat="61.92653" lon="5.51534">
        <ele>63.025492</ele>
        <time>2020-07-29T11:34:24.812Z</time>
      </trkpt>
      <trkpt lat="61.92655" lon="5.51513">
        <ele>62.949212</ele>
        <time>2020-07-29T11:34:27.828Z</time>
      </trkpt>
      <trkpt lat="61.92658" lon="5.51493">
        <ele>62.871963</ele>
        <time>2020-07-29T11:34:30.867Z</time>
      </trkpt>
      <trkpt lat="61.92661" lon="5.51474">
        <ele>62.801294</ele>
        <time>2020-07-29T11:34:33.832Z</time>
      </trkpt>
      <trkpt lat="61.92663" lon="5.51456">
        <ele>62.731444</ele>
        <time>2020-07-29T11:34:36.826Z</time>
      </trkpt>
      <trkpt lat="61.92666" lon="5.51433">
        <ele>62.644533</ele>
        <time>2020-07-29T11:34:40.845Z</time>
      </trkpt>
      <trkpt lat="61.9267" lon="5.5141">
        <ele>62.556484</ele>
        <time>2020-07-29T11:34:44.830Z</time>
      </trkpt>
      <trkpt lat="61.92675" lon="5.51388">
        <ele>62.467816</ele>
        <time>2020-07-29T11:34:48.823Z</time>
      </trkpt>
      <trkpt lat="61.92679" lon="5.51365">
        <ele>62.376932</ele>
        <time>2020-07-29T11:34:52.837Z</time>
      </trkpt>
      <trkpt lat="61.92685" lon="5.51342">
        <ele>62.285047</ele>
        <time>2020-07-29T11:34:56.852Z</time>
      </trkpt>
      <trkpt lat="61.92689" lon="5.51325">
        <ele>62.215629</ele>
        <time>2020-07-29T11:34:59.854Z</time>
      </trkpt>
      <trkpt lat="61.92695" lon="5.51303">
        <ele>62.122411</ele>
        <time>2020-07-29T11:35:03.815Z</time>
      </trkpt>
      <trkpt lat="61.92702" lon="5.51282">
        <ele>62.0294</ele>
        <time>2020-07-29T11:35:07.857Z</time>
      </trkpt>
      <trkpt lat="61.92708" lon="5.51265">
        <ele>61.949493</ele>
        <time>2020-07-29T11:35:10.830Z</time>
      </trkpt>
      <trkpt lat="61.92714" lon="5.51246">
        <ele>61.867349</ele>
        <time>2020-07-29T11:35:13.823Z</time>
      </trkpt>
      <trkpt lat="61.92721" lon="5.51226">
        <ele>61.776769</ele>
        <time>2020-07-29T11:35:16.837Z</time>
      </trkpt>
      <trkpt lat="61.9273" lon="5.51205">
        <ele>61.558387</ele>
        <time>2020-07-29T11:35:19.836Z</time>
      </trkpt>
      <trkpt lat="61.92737" lon="5.51191">
        <ele>61.134938</ele>
        <time>2020-07-29T11:35:21.813Z</time>
      </trkpt>
      <trkpt lat="61.92743" lon="5.51176">
        <ele>60.719216</ele>
        <time>2020-07-29T11:35:23.832Z</time>
      </trkpt>
      <trkpt lat="61.9275" lon="5.51163">
        <ele>60.304728</ele>
        <time>2020-07-29T11:35:25.828Z</time>
      </trkpt>
      <trkpt lat="61.92757" lon="5.51149">
        <ele>59.870687</ele>
        <time>2020-07-29T11:35:27.851Z</time>
      </trkpt>
      <trkpt lat="61.92765" lon="5.51135">
        <ele>59.395834</ele>
        <time>2020-07-29T11:35:29.818Z</time>
      </trkpt>
      <trkpt lat="61.92773" lon="5.51121">
        <ele>58.946966</ele>
        <time>2020-07-29T11:35:31.816Z</time>
      </trkpt>
      <trkpt lat="61.92781" lon="5.51108">
        <ele>58.491304</ele>
        <time>2020-07-29T11:35:33.819Z</time>
      </trkpt>
      <trkpt lat="61.9279" lon="5.51094">
        <ele>58.004248</ele>
        <time>2020-07-29T11:35:35.836Z</time>
      </trkpt>
      <trkpt lat="61.92798" lon="5.51081">
        <ele>57.531807</ele>
        <time>2020-07-29T11:35:37.837Z</time>
      </trkpt>
      <trkpt lat="61.92807" lon="5.5107">
        <ele>57.074694</ele>
        <time>2020-07-29T11:35:39.852Z</time>
      </trkpt>
      <trkpt lat="61.92815" lon="5.51059">
        <ele>56.627519</ele>
        <time>2020-07-29T11:35:41.832Z</time>
      </trkpt>
      <trkpt lat="61.92824" lon="5.51049">
        <ele>56.17977</ele>
        <time>2020-07-29T11:35:43.837Z</time>
      </trkpt>
      <trkpt lat="61.92834" lon="5.5104">
        <ele>55.705122</ele>
        <time>2020-07-29T11:35:45.846Z</time>
      </trkpt>
      <trkpt lat="61.92843" lon="5.5103">
        <ele>55.254334</ele>
        <time>2020-07-29T11:35:47.837Z</time>
      </trkpt>
      <trkpt lat="61.92852" lon="5.5102">
        <ele>54.79473</ele>
        <time>2020-07-29T11:35:49.844Z</time>
      </trkpt>
      <trkpt lat="61.92861" lon="5.51009">
        <ele>54.351784</ele>
        <time>2020-07-29T11:35:51.863Z</time>
      </trkpt>
      <trkpt lat="61.92869" lon="5.51">
        <ele>53.912958</ele>
        <time>2020-07-29T11:35:53.821Z</time>
      </trkpt>
      <trkpt lat="61.92878" lon="5.50989">
        <ele>53.648296</ele>
        <time>2020-07-29T11:35:55.820Z</time>
      </trkpt>
      <trkpt lat="61.92886" lon="5.50978">
        <ele>53.655033</ele>
        <time>2020-07-29T11:35:57.832Z</time>
      </trkpt>
      <trkpt lat="61.92894" lon="5.50965">
        <ele>53.662169</ele>
        <time>2020-07-29T11:35:59.837Z</time>
      </trkpt>
      <trkpt lat="61.92902" lon="5.50951">
        <ele>53.669375</ele>
        <time>2020-07-29T11:36:01.812Z</time>
      </trkpt>
      <trkpt lat="61.9291" lon="5.50937">
        <ele>53.67669</ele>
        <time>2020-07-29T11:36:03.810Z</time>
      </trkpt>
      <trkpt lat="61.92918" lon="5.50923">
        <ele>53.683842</ele>
        <time>2020-07-29T11:36:05.843Z</time>
      </trkpt>
      <trkpt lat="61.92926" lon="5.50909">
        <ele>53.691187</ele>
        <time>2020-07-29T11:36:07.830Z</time>
      </trkpt>
      <trkpt lat="61.92934" lon="5.50896">
        <ele>53.698794</ele>
        <time>2020-07-29T11:36:09.852Z</time>
      </trkpt>
      <trkpt lat="61.92944" lon="5.50882">
        <ele>53.706765</ele>
        <time>2020-07-29T11:36:11.831Z</time>
      </trkpt>
      <trkpt lat="61.92953" lon="5.50869">
        <ele>53.714568</ele>
        <time>2020-07-29T11:36:13.827Z</time>
      </trkpt>
      <trkpt lat="61.92963" lon="5.50857">
        <ele>53.722837</ele>
        <time>2020-07-29T11:36:15.856Z</time>
      </trkpt>
      <trkpt lat="61.92974" lon="5.50846">
        <ele>53.731059</ele>
        <time>2020-07-29T11:36:17.822Z</time>
      </trkpt>
      <trkpt lat="61.92984" lon="5.50836">
        <ele>53.738838</ele>
        <time>2020-07-29T11:36:19.869Z</time>
      </trkpt>
      <trkpt lat="61.92994" lon="5.50825">
        <ele>53.746612</ele>
        <time>2020-07-29T11:36:21.836Z</time>
      </trkpt>
      <trkpt lat="61.93004" lon="5.50816">
        <ele>53.754153</ele>
        <time>2020-07-29T11:36:23.827Z</time>
      </trkpt>
      <trkpt lat="61.93012" lon="5.50808">
        <ele>53.760739</ele>
        <time>2020-07-29T11:36:25.844Z</time>
      </trkpt>
      <trkpt lat="61.93021" lon="5.50801">
        <ele>53.767453</ele>
        <time>2020-07-29T11:36:27.847Z</time>
      </trkpt>
      <trkpt lat="61.9303" lon="5.50795">
        <ele>53.737805</ele>
        <time>2020-07-29T11:36:29.821Z</time>
      </trkpt>
      <trkpt lat="61.93039" lon="5.50787">
        <ele>53.621143</ele>
        <time>2020-07-29T11:36:31.838Z</time>
      </trkpt>
      <trkpt lat="61.93049" lon="5.50779">
        <ele>53.499957</ele>
        <time>2020-07-29T11:36:33.815Z</time>
      </trkpt>
      <trkpt lat="61.93058" lon="5.50771">
        <ele>53.382523</ele>
        <time>2020-07-29T11:36:35.846Z</time>
      </trkpt>
      <trkpt lat="61.93067" lon="5.50764">
        <ele>53.270436</ele>
        <time>2020-07-29T11:36:37.823Z</time>
      </trkpt>
      <trkpt lat="61.93077" lon="5.50757">
        <ele>53.153193</ele>
        <time>2020-07-29T11:36:39.826Z</time>
      </trkpt>
      <trkpt lat="61.93086" lon="5.50748">
        <ele>53.035468</ele>
        <time>2020-07-29T11:36:41.822Z</time>
      </trkpt>
      <trkpt lat="61.93094" lon="5.50736">
        <ele>52.916829</ele>
        <time>2020-07-29T11:36:43.848Z</time>
      </trkpt>
      <trkpt lat="61.93103" lon="5.50724">
        <ele>52.793939</ele>
        <time>2020-07-29T11:36:45.831Z</time>
      </trkpt>
      <trkpt lat="61.93111" lon="5.50712">
        <ele>52.676026</ele>
        <time>2020-07-29T11:36:47.804Z</time>
      </trkpt>
      <trkpt lat="61.93118" lon="5.507">
        <ele>52.569972</ele>
        <time>2020-07-29T11:36:49.817Z</time>
      </trkpt>
      <trkpt lat="61.93129" lon="5.50681">
        <ele>52.409484</ele>
        <time>2020-07-29T11:36:52.832Z</time>
      </trkpt>
      <trkpt lat="61.93137" lon="5.50669">
        <ele>52.297297</ele>
        <time>2020-07-29T11:36:54.878Z</time>
      </trkpt>
      <trkpt lat="61.93144" lon="5.50657">
        <ele>52.18412</ele>
        <time>2020-07-29T11:36:56.842Z</time>
      </trkpt>
      <trkpt lat="61.93152" lon="5.50645">
        <ele>52.070225</ele>
        <time>2020-07-29T11:36:58.840Z</time>
      </trkpt>
      <trkpt lat="61.93162" lon="5.50625">
        <ele>51.914403</ele>
        <time>2020-07-29T11:37:01.819Z</time>
      </trkpt>
      <trkpt lat="61.93171" lon="5.50605">
        <ele>51.757037</ele>
        <time>2020-07-29T11:37:04.821Z</time>
      </trkpt>
      <trkpt lat="61.93181" lon="5.50586">
        <ele>51.809943</ele>
        <time>2020-07-29T11:37:07.825Z</time>
      </trkpt>
      <trkpt lat="61.93189" lon="5.50566">
        <ele>52.138112</ele>
        <time>2020-07-29T11:37:10.847Z</time>
      </trkpt>
      <trkpt lat="61.93197" lon="5.50544">
        <ele>52.494631</ele>
        <time>2020-07-29T11:37:13.831Z</time>
      </trkpt>
      <trkpt lat="61.93205" lon="5.50523">
        <ele>52.839413</ele>
        <time>2020-07-29T11:37:16.853Z</time>
      </trkpt>
      <trkpt lat="61.93213" lon="5.50503">
        <ele>53.167336</ele>
        <time>2020-07-29T11:37:19.829Z</time>
      </trkpt>
      <trkpt lat="61.93221" lon="5.50484">
        <ele>53.487331</ele>
        <time>2020-07-29T11:37:22.828Z</time>
      </trkpt>
      <trkpt lat="61.93228" lon="5.50466">
        <ele>53.792692</ele>
        <time>2020-07-29T11:37:25.845Z</time>
      </trkpt>
      <trkpt lat="61.93236" lon="5.50448">
        <ele>54.106199</ele>
        <time>2020-07-29T11:37:28.813Z</time>
      </trkpt>
      <trkpt lat="61.93244" lon="5.50429">
        <ele>54.416769</ele>
        <time>2020-07-29T11:37:31.843Z</time>
      </trkpt>
      <trkpt lat="61.93251" lon="5.50409">
        <ele>54.733259</ele>
        <time>2020-07-29T11:37:34.865Z</time>
      </trkpt>
      <trkpt lat="61.93258" lon="5.50391">
        <ele>55.036504</ele>
        <time>2020-07-29T11:37:37.828Z</time>
      </trkpt>
      <trkpt lat="61.93265" lon="5.50373">
        <ele>55.337556</ele>
        <time>2020-07-29T11:37:40.818Z</time>
      </trkpt>
      <trkpt lat="61.93271" lon="5.50354">
        <ele>55.621013</ele>
        <time>2020-07-29T11:37:43.842Z</time>
      </trkpt>
      <trkpt lat="61.93278" lon="5.50337">
        <ele>55.901778</ele>
        <time>2020-07-29T11:37:46.823Z</time>
      </trkpt>
      <trkpt lat="61.93284" lon="5.50321">
        <ele>56.173099</ele>
        <time>2020-07-29T11:37:49.841Z</time>
      </trkpt>
      <trkpt lat="61.93291" lon="5.50301">
        <ele>56.471067</ele>
        <time>2020-07-29T11:37:52.828Z</time>
      </trkpt>
      <trkpt lat="61.93297" lon="5.5028">
        <ele>56.530814</ele>
        <time>2020-07-29T11:37:55.817Z</time>
      </trkpt>
      <trkpt lat="61.93302" lon="5.50259">
        <ele>56.559421</ele>
        <time>2020-07-29T11:37:58.836Z</time>
      </trkpt>
      <trkpt lat="61.93308" lon="5.50234">
        <ele>56.591787</ele>
        <time>2020-07-29T11:38:01.835Z</time>
      </trkpt>
      <trkpt lat="61.93313" lon="5.50207">
        <ele>56.625366</ele>
        <time>2020-07-29T11:38:04.857Z</time>
      </trkpt>
      <trkpt lat="61.93316" lon="5.50187">
        <ele>56.650065</ele>
        <time>2020-07-29T11:38:06.850Z</time>
      </trkpt>
      <trkpt lat="61.93319" lon="5.50166">
        <ele>56.67568</ele>
        <time>2020-07-29T11:38:08.815Z</time>
      </trkpt>
      <trkpt lat="61.93321" lon="5.50143">
        <ele>56.704104</ele>
        <time>2020-07-29T11:38:10.838Z</time>
      </trkpt>
      <trkpt lat="61.93323" lon="5.50119">
        <ele>56.732873</ele>
        <time>2020-07-29T11:38:12.897Z</time>
      </trkpt>
      <trkpt lat="61.93324" lon="5.50094">
        <ele>56.762474</ele>
        <time>2020-07-29T11:38:14.826Z</time>
      </trkpt>
      <trkpt lat="61.93323" lon="5.50068">
        <ele>56.792495</ele>
        <time>2020-07-29T11:38:16.837Z</time>
      </trkpt>
      <trkpt lat="61.93322" lon="5.50044">
        <ele>56.82136</ele>
        <time>2020-07-29T11:38:18.838Z</time>
      </trkpt>
      <trkpt lat="61.9332" lon="5.50019">
        <ele>56.850894</ele>
        <time>2020-07-29T11:38:20.813Z</time>
      </trkpt>
      <trkpt lat="61.93317" lon="5.49995">
        <ele>56.880766</ele>
        <time>2020-07-29T11:38:22.860Z</time>
      </trkpt>
      <trkpt lat="61.93312" lon="5.4997">
        <ele>56.911402</ele>
        <time>2020-07-29T11:38:24.818Z</time>
      </trkpt>
      <trkpt lat="61.93308" lon="5.49946">
        <ele>56.941444</ele>
        <time>2020-07-29T11:38:26.817Z</time>
      </trkpt>
      <trkpt lat="61.93304" lon="5.49923">
        <ele>56.869124</ele>
        <time>2020-07-29T11:38:28.841Z</time>
      </trkpt>
      <trkpt lat="61.933" lon="5.49901">
        <ele>56.712844</ele>
        <time>2020-07-29T11:38:30.823Z</time>
      </trkpt>
      <trkpt lat="61.93296" lon="5.49878">
        <ele>56.559676</ele>
        <time>2020-07-29T11:38:32.825Z</time>
      </trkpt>
      <trkpt lat="61.93292" lon="5.49857">
        <ele>56.410307</ele>
        <time>2020-07-29T11:38:34.820Z</time>
      </trkpt>
      <trkpt lat="61.93287" lon="5.49837">
        <ele>56.266654</ele>
        <time>2020-07-29T11:38:36.816Z</time>
      </trkpt>
      <trkpt lat="61.93283" lon="5.49816">
        <ele>56.123002</ele>
        <time>2020-07-29T11:38:38.838Z</time>
      </trkpt>
      <trkpt lat="61.9328" lon="5.49796">
        <ele>55.983072</ele>
        <time>2020-07-29T11:38:40.834Z</time>
      </trkpt>
      <trkpt lat="61.93276" lon="5.49776">
        <ele>55.846026</ele>
        <time>2020-07-29T11:38:42.813Z</time>
      </trkpt>
      <trkpt lat="61.93272" lon="5.49756">
        <ele>55.711657</ele>
        <time>2020-07-29T11:38:44.864Z</time>
      </trkpt>
      <trkpt lat="61.93268" lon="5.49738">
        <ele>55.582061</ele>
        <time>2020-07-29T11:38:46.831Z</time>
      </trkpt>
      <trkpt lat="61.93264" lon="5.4972">
        <ele>55.453048</ele>
        <time>2020-07-29T11:38:48.827Z</time>
      </trkpt>
      <trkpt lat="61.9326" lon="5.49701">
        <ele>55.320549</ele>
        <time>2020-07-29T11:38:50.837Z</time>
      </trkpt>
      <trkpt lat="61.93256" lon="5.49684">
        <ele>55.191134</ele>
        <time>2020-07-29T11:38:52.833Z</time>
      </trkpt>
      <trkpt lat="61.93251" lon="5.49667">
        <ele>55.065959</ele>
        <time>2020-07-29T11:38:54.819Z</time>
      </trkpt>
      <trkpt lat="61.93246" lon="5.4965">
        <ele>54.935286</ele>
        <time>2020-07-29T11:38:56.831Z</time>
      </trkpt>
      <trkpt lat="61.9324" lon="5.49632">
        <ele>54.799263</ele>
        <time>2020-07-29T11:38:58.821Z</time>
      </trkpt>
      <trkpt lat="61.93235" lon="5.49614">
        <ele>54.66067</ele>
        <time>2020-07-29T11:39:00.825Z</time>
      </trkpt>
      <trkpt lat="61.9323" lon="5.49596">
        <ele>54.522266</ele>
        <time>2020-07-29T11:39:02.830Z</time>
      </trkpt>
      <trkpt lat="61.93224" lon="5.49579">
        <ele>54.581504</ele>
        <time>2020-07-29T11:39:04.848Z</time>
      </trkpt>
      <trkpt lat="61.93218" lon="5.49563">
        <ele>54.678036</ele>
        <time>2020-07-29T11:39:06.835Z</time>
      </trkpt>
      <trkpt lat="61.93212" lon="5.49547">
        <ele>54.775302</ele>
        <time>2020-07-29T11:39:08.836Z</time>
      </trkpt>
      <trkpt lat="61.93206" lon="5.49531">
        <ele>54.873676</ele>
        <time>2020-07-29T11:39:10.820Z</time>
      </trkpt>
      <trkpt lat="61.932" lon="5.49516">
        <ele>54.968099</ele>
        <time>2020-07-29T11:39:12.848Z</time>
      </trkpt>
      <trkpt lat="61.93194" lon="5.49502">
        <ele>55.059282</ele>
        <time>2020-07-29T11:39:14.808Z</time>
      </trkpt>
      <trkpt lat="61.93184" lon="5.49481">
        <ele>55.195147</ele>
        <time>2020-07-29T11:39:17.856Z</time>
      </trkpt>
      <trkpt lat="61.93178" lon="5.49468">
        <ele>55.286351</ele>
        <time>2020-07-29T11:39:19.858Z</time>
      </trkpt>
      <trkpt lat="61.93171" lon="5.49453">
        <ele>55.382365</ele>
        <time>2020-07-29T11:39:21.852Z</time>
      </trkpt>
      <trkpt lat="61.93162" lon="5.49432">
        <ele>55.518623</ele>
        <time>2020-07-29T11:39:24.827Z</time>
      </trkpt>
      <trkpt lat="61.93156" lon="5.49418">
        <ele>55.609774</ele>
        <time>2020-07-29T11:39:26.834Z</time>
      </trkpt>
      <trkpt lat="61.93149" lon="5.49405">
        <ele>55.701314</ele>
        <time>2020-07-29T11:39:28.856Z</time>
      </trkpt>
      <trkpt lat="61.9314" lon="5.49384">
        <ele>55.835794</ele>
        <time>2020-07-29T11:39:31.864Z</time>
      </trkpt>
      <trkpt lat="61.93133" lon="5.49372">
        <ele>55.927807</ele>
        <time>2020-07-29T11:39:33.818Z</time>
      </trkpt>
      <trkpt lat="61.93126" lon="5.49359">
        <ele>56.019821</ele>
        <time>2020-07-29T11:39:35.836Z</time>
      </trkpt>
      <trkpt lat="61.93119" lon="5.49346">
        <ele>56.11436</ele>
        <time>2020-07-29T11:39:37.835Z</time>
      </trkpt>
      <trkpt lat="61.93112" lon="5.49332">
        <ele>56.214454</ele>
        <time>2020-07-29T11:39:39.859Z</time>
      </trkpt>
      <trkpt lat="61.93105" lon="5.49318">
        <ele>56.313406</ele>
        <time>2020-07-29T11:39:41.820Z</time>
      </trkpt>
      <trkpt lat="61.93097" lon="5.49305">
        <ele>56.356697</ele>
        <time>2020-07-29T11:39:43.824Z</time>
      </trkpt>
      <trkpt lat="61.9309" lon="5.49293">
        <ele>56.395524</ele>
        <time>2020-07-29T11:39:45.833Z</time>
      </trkpt>
      <trkpt lat="61.93082" lon="5.4928">
        <ele>56.434025</ele>
        <time>2020-07-29T11:39:47.828Z</time>
      </trkpt>
      <trkpt lat="61.93075" lon="5.49267">
        <ele>56.473617</ele>
        <time>2020-07-29T11:39:49.842Z</time>
      </trkpt>
      <trkpt lat="61.93068" lon="5.49255">
        <ele>56.512399</ele>
        <time>2020-07-29T11:39:51.844Z</time>
      </trkpt>
      <trkpt lat="61.9306" lon="5.49243">
        <ele>56.550081</ele>
        <time>2020-07-29T11:39:53.844Z</time>
      </trkpt>
      <trkpt lat="61.93053" lon="5.49232">
        <ele>56.586981</ele>
        <time>2020-07-29T11:39:55.847Z</time>
      </trkpt>
      <trkpt lat="61.93045" lon="5.4922">
        <ele>56.625343</ele>
        <time>2020-07-29T11:39:57.857Z</time>
      </trkpt>
      <trkpt lat="61.93038" lon="5.49209">
        <ele>56.663144</ele>
        <time>2020-07-29T11:39:59.812Z</time>
      </trkpt>
      <trkpt lat="61.93027" lon="5.49192">
        <ele>56.718625</ele>
        <time>2020-07-29T11:40:02.840Z</time>
      </trkpt>
      <trkpt lat="61.93019" lon="5.49181">
        <ele>56.757001</ele>
        <time>2020-07-29T11:40:04.840Z</time>
      </trkpt>
      <trkpt lat="61.93012" lon="5.4917">
        <ele>56.793687</ele>
        <time>2020-07-29T11:40:06.842Z</time>
      </trkpt>
      <trkpt lat="61.93005" lon="5.49159">
        <ele>56.830813</ele>
        <time>2020-07-29T11:40:08.824Z</time>
      </trkpt>
      <trkpt lat="61.92997" lon="5.49148">
        <ele>56.868944</ele>
        <time>2020-07-29T11:40:10.827Z</time>
      </trkpt>
      <trkpt lat="61.92989" lon="5.49138">
        <ele>56.90604</ele>
        <time>2020-07-29T11:40:12.839Z</time>
      </trkpt>
      <trkpt lat="61.92982" lon="5.49127">
        <ele>56.9432</ele>
        <time>2020-07-29T11:40:14.807Z</time>
      </trkpt>
      <trkpt lat="61.92971" lon="5.49112">
        <ele>56.996795</ele>
        <time>2020-07-29T11:40:17.841Z</time>
      </trkpt>
      <trkpt lat="61.9296" lon="5.49097">
        <ele>57.048914</ele>
        <time>2020-07-29T11:40:20.840Z</time>
      </trkpt>
      <trkpt lat="61.9295" lon="5.4908">
        <ele>57.095133</ele>
        <time>2020-07-29T11:40:23.823Z</time>
      </trkpt>
      <trkpt lat="61.9294" lon="5.49065">
        <ele>57.138255</ele>
        <time>2020-07-29T11:40:26.832Z</time>
      </trkpt>
      <trkpt lat="61.9293" lon="5.49048">
        <ele>57.183495</ele>
        <time>2020-07-29T11:40:29.818Z</time>
      </trkpt>
      <trkpt lat="61.9292" lon="5.49032">
        <ele>57.227411</ele>
        <time>2020-07-29T11:40:32.817Z</time>
      </trkpt>
      <trkpt lat="61.92911" lon="5.49015">
        <ele>57.269456</ele>
        <time>2020-07-29T11:40:35.843Z</time>
      </trkpt>
      <trkpt lat="61.92905" lon="5.49002">
        <ele>57.30159</ele>
        <time>2020-07-29T11:40:37.836Z</time>
      </trkpt>
      <trkpt lat="61.92895" lon="5.48983">
        <ele>57.347405</ele>
        <time>2020-07-29T11:40:40.843Z</time>
      </trkpt>
      <trkpt lat="61.92886" lon="5.48964">
        <ele>57.393319</ele>
        <time>2020-07-29T11:40:43.825Z</time>
      </trkpt>
      <trkpt lat="61.92876" lon="5.48945">
        <ele>57.440684</ele>
        <time>2020-07-29T11:40:46.820Z</time>
      </trkpt>
      <trkpt lat="61.92869" lon="5.48932">
        <ele>57.472273</ele>
        <time>2020-07-29T11:40:48.827Z</time>
      </trkpt>
      <trkpt lat="61.9286" lon="5.48913">
        <ele>57.51767</ele>
        <time>2020-07-29T11:40:51.825Z</time>
      </trkpt>
      <trkpt lat="61.92852" lon="5.48892">
        <ele>57.562839</ele>
        <time>2020-07-29T11:40:54.849Z</time>
      </trkpt>
      <trkpt lat="61.92844" lon="5.48871">
        <ele>57.606929</ele>
        <time>2020-07-29T11:40:57.860Z</time>
      </trkpt>
      <trkpt lat="61.92836" lon="5.48849">
        <ele>57.653732</ele>
        <time>2020-07-29T11:41:00.837Z</time>
      </trkpt>
      <trkpt lat="61.92828" lon="5.48826">
        <ele>57.687493</ele>
        <time>2020-07-29T11:41:03.822Z</time>
      </trkpt>
      <trkpt lat="61.92821" lon="5.48804">
        <ele>57.662121</ele>
        <time>2020-07-29T11:41:06.828Z</time>
      </trkpt>
      <trkpt lat="61.92816" lon="5.48787">
        <ele>57.644622</ele>
        <time>2020-07-29T11:41:08.859Z</time>
      </trkpt>
      <trkpt lat="61.9281" lon="5.48762">
        <ele>57.618694</ele>
        <time>2020-07-29T11:41:11.840Z</time>
      </trkpt>
      <trkpt lat="61.92804" lon="5.48737">
        <ele>57.593404</ele>
        <time>2020-07-29T11:41:14.826Z</time>
      </trkpt>
      <trkpt lat="61.928" lon="5.48714">
        <ele>57.570132</ele>
        <time>2020-07-29T11:41:17.867Z</time>
      </trkpt>
      <trkpt lat="61.92795" lon="5.48689">
        <ele>57.545614</ele>
        <time>2020-07-29T11:41:20.840Z</time>
      </trkpt>
      <trkpt lat="61.92791" lon="5.48662">
        <ele>57.520078</ele>
        <time>2020-07-29T11:41:23.821Z</time>
      </trkpt>
      <trkpt lat="61.92788" lon="5.48635">
        <ele>57.494604</ele>
        <time>2020-07-29T11:41:26.833Z</time>
      </trkpt>
      <trkpt lat="61.92786" lon="5.48608">
        <ele>57.469935</ele>
        <time>2020-07-29T11:41:29.831Z</time>
      </trkpt>
      <trkpt lat="61.92784" lon="5.48581">
        <ele>57.445207</ele>
        <time>2020-07-29T11:41:32.835Z</time>
      </trkpt>
      <trkpt lat="61.92784" lon="5.48554">
        <ele>57.420173</ele>
        <time>2020-07-29T11:41:35.840Z</time>
      </trkpt>
      <trkpt lat="61.92785" lon="5.48526">
        <ele>57.394671</ele>
        <time>2020-07-29T11:41:38.845Z</time>
      </trkpt>
      <trkpt lat="61.92786" lon="5.48499">
        <ele>57.369444</ele>
        <time>2020-07-29T11:41:41.886Z</time>
      </trkpt>
      <trkpt lat="61.92788" lon="5.48471">
        <ele>57.343965</ele>
        <time>2020-07-29T11:41:44.868Z</time>
      </trkpt>
      <trkpt lat="61.9279" lon="5.48444">
        <ele>57.418287</ele>
        <time>2020-07-29T11:41:47.824Z</time>
      </trkpt>
      <trkpt lat="61.92793" lon="5.4842">
        <ele>57.493125</ele>
        <time>2020-07-29T11:41:50.851Z</time>
      </trkpt>
      <trkpt lat="61.92796" lon="5.48394">
        <ele>57.571576</ele>
        <time>2020-07-29T11:41:53.834Z</time>
      </trkpt>
      <trkpt lat="61.92797" lon="5.48368">
        <ele>57.649039</ele>
        <time>2020-07-29T11:41:56.813Z</time>
      </trkpt>
      <trkpt lat="61.92799" lon="5.48343">
        <ele>57.724299</ele>
        <time>2020-07-29T11:41:59.823Z</time>
      </trkpt>
      <trkpt lat="61.92802" lon="5.4832">
        <ele>57.793386</ele>
        <time>2020-07-29T11:42:02.844Z</time>
      </trkpt>
      <trkpt lat="61.92806" lon="5.48296">
        <ele>57.869156</ele>
        <time>2020-07-29T11:42:05.833Z</time>
      </trkpt>
      <trkpt lat="61.92812" lon="5.48271">
        <ele>57.94805</ele>
        <time>2020-07-29T11:42:08.837Z</time>
      </trkpt>
      <trkpt lat="61.92816" lon="5.48247">
        <ele>58.024141</ele>
        <time>2020-07-29T11:42:11.840Z</time>
      </trkpt>
      <trkpt lat="61.92819" lon="5.48222">
        <ele>58.099754</ele>
        <time>2020-07-29T11:42:14.836Z</time>
      </trkpt>
      <trkpt lat="61.92822" lon="5.48199">
        <ele>58.172</ele>
        <time>2020-07-29T11:42:17.872Z</time>
      </trkpt>
      <trkpt lat="61.92824" lon="5.48176">
        <ele>58.239261</ele>
        <time>2020-07-29T11:42:20.831Z</time>
      </trkpt>
      <trkpt lat="61.92824" lon="5.48152">
        <ele>58.311127</ele>
        <time>2020-07-29T11:42:23.852Z</time>
      </trkpt>
      <trkpt lat="61.92824" lon="5.48127">
        <ele>58.384792</ele>
        <time>2020-07-29T11:42:26.825Z</time>
      </trkpt>
      <trkpt lat="61.92822" lon="5.48101">
        <ele>58.461273</ele>
        <time>2020-07-29T11:42:29.832Z</time>
      </trkpt>
      <trkpt lat="61.9282" lon="5.48075">
        <ele>58.308299</ele>
        <time>2020-07-29T11:42:32.842Z</time>
      </trkpt>
      <trkpt lat="61.92817" lon="5.48049">
        <ele>58.135774</ele>
        <time>2020-07-29T11:42:35.840Z</time>
      </trkpt>
      <trkpt lat="61.92813" lon="5.48025">
        <ele>57.967881</ele>
        <time>2020-07-29T11:42:38.829Z</time>
      </trkpt>
      <trkpt lat="61.92808" lon="5.48002">
        <ele>57.80678</ele>
        <time>2020-07-29T11:42:41.825Z</time>
      </trkpt>
      <trkpt lat="61.92803" lon="5.47979">
        <ele>57.636202</ele>
        <time>2020-07-29T11:42:44.855Z</time>
      </trkpt>
      <trkpt lat="61.92797" lon="5.47955">
        <ele>57.46323</ele>
        <time>2020-07-29T11:42:47.820Z</time>
      </trkpt>
      <trkpt lat="61.92792" lon="5.47932">
        <ele>57.292656</ele>
        <time>2020-07-29T11:42:50.823Z</time>
      </trkpt>
      <trkpt lat="61.92786" lon="5.47909">
        <ele>57.120952</ele>
        <time>2020-07-29T11:42:53.820Z</time>
      </trkpt>
      <trkpt lat="61.9278" lon="5.47885">
        <ele>56.943639</ele>
        <time>2020-07-29T11:42:56.834Z</time>
      </trkpt>
      <trkpt lat="61.92775" lon="5.47869">
        <ele>56.818358</ele>
        <time>2020-07-29T11:42:58.813Z</time>
      </trkpt>
      <trkpt lat="61.92771" lon="5.47852">
        <ele>56.692599</ele>
        <time>2020-07-29T11:43:00.844Z</time>
      </trkpt>
      <trkpt lat="61.92765" lon="5.47827">
        <ele>56.513078</ele>
        <time>2020-07-29T11:43:03.877Z</time>
      </trkpt>
      <trkpt lat="61.92761" lon="5.47802">
        <ele>56.336999</ele>
        <time>2020-07-29T11:43:06.825Z</time>
      </trkpt>
      <trkpt lat="61.92757" lon="5.47776">
        <ele>56.158372</ele>
        <time>2020-07-29T11:43:09.819Z</time>
      </trkpt>
      <trkpt lat="61.92755" lon="5.4775">
        <ele>55.988027</ele>
        <time>2020-07-29T11:43:12.826Z</time>
      </trkpt>
      <trkpt lat="61.92754" lon="5.47724">
        <ele>55.742543</ele>
        <time>2020-07-29T11:43:15.822Z</time>
      </trkpt>
      <trkpt lat="61.92754" lon="5.47696">
        <ele>55.47804</ele>
        <time>2020-07-29T11:43:18.849Z</time>
      </trkpt>
      <trkpt lat="61.92755" lon="5.47668">
        <ele>55.207194</ele>
        <time>2020-07-29T11:43:21.828Z</time>
      </trkpt>
      <trkpt lat="61.92757" lon="5.4764">
        <ele>54.938744</ele>
        <time>2020-07-29T11:43:24.852Z</time>
      </trkpt>
      <trkpt lat="61.92759" lon="5.4762">
        <ele>54.752708</ele>
        <time>2020-07-29T11:43:26.840Z</time>
      </trkpt>
      <trkpt lat="61.92761" lon="5.47593">
        <ele>54.483053</ele>
        <time>2020-07-29T11:43:29.824Z</time>
      </trkpt>
      <trkpt lat="61.92763" lon="5.47573">
        <ele>54.293304</ele>
        <time>2020-07-29T11:43:31.816Z</time>
      </trkpt>
      <trkpt lat="61.92765" lon="5.47554">
        <ele>54.105859</ele>
        <time>2020-07-29T11:43:33.853Z</time>
      </trkpt>
      <trkpt lat="61.92768" lon="5.47534">
        <ele>53.908266</ele>
        <time>2020-07-29T11:43:35.839Z</time>
      </trkpt>
      <trkpt lat="61.9277" lon="5.47515">
        <ele>53.719392</ele>
        <time>2020-07-29T11:43:37.845Z</time>
      </trkpt>
      <trkpt lat="61.92773" lon="5.47495">
        <ele>53.523266</ele>
        <time>2020-07-29T11:43:39.821Z</time>
      </trkpt>
      <trkpt lat="61.92776" lon="5.47476">
        <ele>53.334529</ele>
        <time>2020-07-29T11:43:41.822Z</time>
      </trkpt>
      <trkpt lat="61.92779" lon="5.47457">
        <ele>53.141835</ele>
        <time>2020-07-29T11:43:43.826Z</time>
      </trkpt>
      <trkpt lat="61.92782" lon="5.47438">
        <ele>52.951762</ele>
        <time>2020-07-29T11:43:45.817Z</time>
      </trkpt>
      <trkpt lat="61.92785" lon="5.47419">
        <ele>52.765469</ele>
        <time>2020-07-29T11:43:47.833Z</time>
      </trkpt>
      <trkpt lat="61.92788" lon="5.474">
        <ele>52.57495</ele>
        <time>2020-07-29T11:43:49.866Z</time>
      </trkpt>
      <trkpt lat="61.9279" lon="5.47381">
        <ele>52.383715</ele>
        <time>2020-07-29T11:43:51.832Z</time>
      </trkpt>
      <trkpt lat="61.92793" lon="5.47361">
        <ele>52.348627</ele>
        <time>2020-07-29T11:43:53.839Z</time>
      </trkpt>
      <trkpt lat="61.92795" lon="5.47342">
        <ele>52.369659</ele>
        <time>2020-07-29T11:43:55.849Z</time>
      </trkpt>
      <trkpt lat="61.92796" lon="5.47322">
        <ele>52.390635</ele>
        <time>2020-07-29T11:43:57.816Z</time>
      </trkpt>
      <trkpt lat="61.92796" lon="5.47294">
        <ele>52.421269</ele>
        <time>2020-07-29T11:44:00.828Z</time>
      </trkpt>
      <trkpt lat="61.92794" lon="5.47275">
        <ele>52.442194</ele>
        <time>2020-07-29T11:44:02.825Z</time>
      </trkpt>
      <trkpt lat="61.92793" lon="5.47255">
        <ele>52.463975</ele>
        <time>2020-07-29T11:44:04.812Z</time>
      </trkpt>
      <trkpt lat="61.92791" lon="5.47235">
        <ele>52.485427</ele>
        <time>2020-07-29T11:44:06.848Z</time>
      </trkpt>
      <trkpt lat="61.92789" lon="5.47215">
        <ele>52.507656</ele>
        <time>2020-07-29T11:44:08.845Z</time>
      </trkpt>
      <trkpt lat="61.92787" lon="5.47196">
        <ele>52.528488</ele>
        <time>2020-07-29T11:44:10.822Z</time>
      </trkpt>
      <trkpt lat="61.92785" lon="5.47177">
        <ele>52.549362</ele>
        <time>2020-07-29T11:44:12.836Z</time>
      </trkpt>
      <trkpt lat="61.92783" lon="5.47158">
        <ele>52.570026</ele>
        <time>2020-07-29T11:44:14.842Z</time>
      </trkpt>
      <trkpt lat="61.9278" lon="5.47139">
        <ele>52.591542</ele>
        <time>2020-07-29T11:44:16.841Z</time>
      </trkpt>
      <trkpt lat="61.92778" lon="5.4712">
        <ele>52.612955</ele>
        <time>2020-07-29T11:44:18.817Z</time>
      </trkpt>
      <trkpt lat="61.92776" lon="5.47101">
        <ele>52.633581</ele>
        <time>2020-07-29T11:44:20.836Z</time>
      </trkpt>
      <trkpt lat="61.92774" lon="5.47082">
        <ele>52.65404</ele>
        <time>2020-07-29T11:44:22.842Z</time>
      </trkpt>
      <trkpt lat="61.92772" lon="5.47063">
        <ele>52.675185</ele>
        <time>2020-07-29T11:44:24.851Z</time>
      </trkpt>
      <trkpt lat="61.92768" lon="5.47037">
        <ele>52.704756</ele>
        <time>2020-07-29T11:44:27.841Z</time>
      </trkpt>
      <trkpt lat="61.92765" lon="5.47019">
        <ele>52.725268</ele>
        <time>2020-07-29T11:44:29.816Z</time>
      </trkpt>
      <trkpt lat="61.92761" lon="5.46992">
        <ele>52.725093</ele>
        <time>2020-07-29T11:44:32.822Z</time>
      </trkpt>
      <trkpt lat="61.92757" lon="5.46966">
        <ele>52.680973</ele>
        <time>2020-07-29T11:44:35.839Z</time>
      </trkpt>
      <trkpt lat="61.92754" lon="5.46948">
        <ele>52.650448</ele>
        <time>2020-07-29T11:44:37.818Z</time>
      </trkpt>
      <trkpt lat="61.92751" lon="5.46929">
        <ele>52.619424</ele>
        <time>2020-07-29T11:44:39.847Z</time>
      </trkpt>
      <trkpt lat="61.92747" lon="5.46903">
        <ele>52.575012</ele>
        <time>2020-07-29T11:44:42.817Z</time>
      </trkpt>
      <trkpt lat="61.92744" lon="5.46876">
        <ele>52.531805</ele>
        <time>2020-07-29T11:44:45.829Z</time>
      </trkpt>
      <trkpt lat="61.9274" lon="5.46849">
        <ele>52.486731</ele>
        <time>2020-07-29T11:44:48.852Z</time>
      </trkpt>
      <trkpt lat="61.92736" lon="5.46822">
        <ele>52.442362</ele>
        <time>2020-07-29T11:44:51.837Z</time>
      </trkpt>
      <trkpt lat="61.92733" lon="5.46797">
        <ele>52.400061</ele>
        <time>2020-07-29T11:44:54.857Z</time>
      </trkpt>
      <trkpt lat="61.9273" lon="5.4677">
        <ele>52.356591</ele>
        <time>2020-07-29T11:44:57.839Z</time>
      </trkpt>
      <trkpt lat="61.92729" lon="5.46743">
        <ele>52.313585</ele>
        <time>2020-07-29T11:45:00.838Z</time>
      </trkpt>
      <trkpt lat="61.92726" lon="5.46718">
        <ele>52.273398</ele>
        <time>2020-07-29T11:45:03.844Z</time>
      </trkpt>
      <trkpt lat="61.92725" lon="5.46693">
        <ele>52.233125</ele>
        <time>2020-07-29T11:45:06.832Z</time>
      </trkpt>
      <trkpt lat="61.92724" lon="5.46667">
        <ele>52.191469</ele>
        <time>2020-07-29T11:45:09.841Z</time>
      </trkpt>
      <trkpt lat="61.92724" lon="5.46639">
        <ele>52.147126</ele>
        <time>2020-07-29T11:45:12.821Z</time>
      </trkpt>
      <trkpt lat="61.92724" lon="5.4662">
        <ele>52.273105</ele>
        <time>2020-07-29T11:45:14.827Z</time>
      </trkpt>
      <trkpt lat="61.92725" lon="5.46595">
        <ele>52.546128</ele>
        <time>2020-07-29T11:45:17.842Z</time>
      </trkpt>
      <trkpt lat="61.92725" lon="5.46571">
        <ele>52.809196</ele>
        <time>2020-07-29T11:45:20.835Z</time>
      </trkpt>
      <trkpt lat="61.92725" lon="5.46545">
        <ele>53.090455</ele>
        <time>2020-07-29T11:45:23.819Z</time>
      </trkpt>
      <trkpt lat="61.92725" lon="5.46519">
        <ele>53.386498</ele>
        <time>2020-07-29T11:45:26.833Z</time>
      </trkpt>
      <trkpt lat="61.92725" lon="5.46492">
        <ele>53.681774</ele>
        <time>2020-07-29T11:45:29.838Z</time>
      </trkpt>
      <trkpt lat="61.92725" lon="5.46466">
        <ele>53.960366</ele>
        <time>2020-07-29T11:45:32.835Z</time>
      </trkpt>
      <trkpt lat="61.92726" lon="5.4644">
        <ele>54.246657</ele>
        <time>2020-07-29T11:45:35.829Z</time>
      </trkpt>
      <trkpt lat="61.92726" lon="5.46414">
        <ele>54.537536</ele>
        <time>2020-07-29T11:45:38.833Z</time>
      </trkpt>
      <trkpt lat="61.92725" lon="5.4639">
        <ele>54.804695</ele>
        <time>2020-07-29T11:45:41.816Z</time>
      </trkpt>
      <trkpt lat="61.92726" lon="5.46366">
        <ele>55.066715</ele>
        <time>2020-07-29T11:45:44.823Z</time>
      </trkpt>
      <trkpt lat="61.92726" lon="5.46343">
        <ele>55.315446</ele>
        <time>2020-07-29T11:45:47.816Z</time>
      </trkpt>
      <trkpt lat="61.92724" lon="5.46321">
        <ele>55.565938</ele>
        <time>2020-07-29T11:45:50.842Z</time>
      </trkpt>
      <trkpt lat="61.92723" lon="5.46299">
        <ele>55.805041</ele>
        <time>2020-07-29T11:45:53.839Z</time>
      </trkpt>
      <trkpt lat="61.92722" lon="5.46279">
        <ele>56.035393</ele>
        <time>2020-07-29T11:45:56.851Z</time>
      </trkpt>
      <trkpt lat="61.9272" lon="5.46259">
        <ele>56.255403</ele>
        <time>2020-07-29T11:45:59.859Z</time>
      </trkpt>
      <trkpt lat="61.92718" lon="5.46235">
        <ele>56.434999</ele>
        <time>2020-07-29T11:46:03.828Z</time>
      </trkpt>
      <trkpt lat="61.92716" lon="5.46215">
        <ele>56.54305</ele>
        <time>2020-07-29T11:46:06.864Z</time>
      </trkpt>
      <trkpt lat="61.92714" lon="5.46196">
        <ele>56.652464</ele>
        <time>2020-07-29T11:46:09.833Z</time>
      </trkpt>
      <trkpt lat="61.92712" lon="5.46171">
        <ele>56.785775</ele>
        <time>2020-07-29T11:46:13.843Z</time>
      </trkpt>
      <trkpt lat="61.92711" lon="5.46148">
        <ele>56.914691</ele>
        <time>2020-07-29T11:46:17.855Z</time>
      </trkpt>
      <trkpt lat="61.92709" lon="5.46126">
        <ele>57.035692</ele>
        <time>2020-07-29T11:46:21.840Z</time>
      </trkpt>
      <trkpt lat="61.92708" lon="5.46104">
        <ele>57.157234</ele>
        <time>2020-07-29T11:46:25.836Z</time>
      </trkpt>
      <trkpt lat="61.92708" lon="5.46083">
        <ele>57.276158</ele>
        <time>2020-07-29T11:46:29.825Z</time>
      </trkpt>
      <trkpt lat="61.92708" lon="5.46059">
        <ele>57.407086</ele>
        <time>2020-07-29T11:46:33.844Z</time>
      </trkpt>
      <trkpt lat="61.92709" lon="5.46036">
        <ele>57.534154</ele>
        <time>2020-07-29T11:46:37.841Z</time>
      </trkpt>
      <trkpt lat="61.9271" lon="5.46013">
        <ele>57.655188</ele>
        <time>2020-07-29T11:46:41.838Z</time>
      </trkpt>
      <trkpt lat="61.92711" lon="5.45992">
        <ele>57.77587</ele>
        <time>2020-07-29T11:46:45.860Z</time>
      </trkpt>
      <trkpt lat="61.92714" lon="5.45968">
        <ele>57.911113</ele>
        <time>2020-07-29T11:46:49.863Z</time>
      </trkpt>
      <trkpt lat="61.92718" lon="5.45949">
        <ele>58.020721</ele>
        <time>2020-07-29T11:46:52.866Z</time>
      </trkpt>
      <trkpt lat="61.92721" lon="5.4593">
        <ele>58.131771</ele>
        <time>2020-07-29T11:46:55.838Z</time>
      </trkpt>
      <trkpt lat="61.92725" lon="5.45911">
        <ele>58.242107</ele>
        <time>2020-07-29T11:46:58.855Z</time>
      </trkpt>
      <trkpt lat="61.92729" lon="5.45893">
        <ele>58.352936</ele>
        <time>2020-07-29T11:47:01.825Z</time>
      </trkpt>
      <trkpt lat="61.92734" lon="5.45874">
        <ele>58.36919</ele>
        <time>2020-07-29T11:47:04.851Z</time>
      </trkpt>
      <trkpt lat="61.92741" lon="5.45855">
        <ele>58.1931</ele>
        <time>2020-07-29T11:47:07.861Z</time>
      </trkpt>
      <trkpt lat="61.92748" lon="5.45835">
        <ele>58.001984</ele>
        <time>2020-07-29T11:47:10.823Z</time>
      </trkpt>
      <trkpt lat="61.92757" lon="5.45817">
        <ele>57.80838</ele>
        <time>2020-07-29T11:47:13.842Z</time>
      </trkpt>
      <trkpt lat="61.92766" lon="5.45801">
        <ele>57.615138</ele>
        <time>2020-07-29T11:47:16.864Z</time>
      </trkpt>
      <trkpt lat="61.92777" lon="5.45786">
        <ele>57.400688</ele>
        <time>2020-07-29T11:47:19.835Z</time>
      </trkpt>
      <trkpt lat="61.92785" lon="5.45777">
        <ele>57.253916</ele>
        <time>2020-07-29T11:47:21.830Z</time>
      </trkpt>
      <trkpt lat="61.92794" lon="5.45768">
        <ele>57.099619</ele>
        <time>2020-07-29T11:47:23.841Z</time>
      </trkpt>
      <trkpt lat="61.92802" lon="5.45758">
        <ele>56.944684</ele>
        <time>2020-07-29T11:47:25.845Z</time>
      </trkpt>
      <trkpt lat="61.92811" lon="5.45749">
        <ele>56.792829</ele>
        <time>2020-07-29T11:47:27.834Z</time>
      </trkpt>
      <trkpt lat="61.9282" lon="5.45743">
        <ele>56.639016</ele>
        <time>2020-07-29T11:47:29.856Z</time>
      </trkpt>
      <trkpt lat="61.9283" lon="5.4574">
        <ele>56.470187</ele>
        <time>2020-07-29T11:47:31.827Z</time>
      </trkpt>
      <trkpt lat="61.92841" lon="5.45739">
        <ele>56.304064</ele>
        <time>2020-07-29T11:47:33.832Z</time>
      </trkpt>
      <trkpt lat="61.9285" lon="5.45737">
        <ele>56.158633</ele>
        <time>2020-07-29T11:47:35.820Z</time>
      </trkpt>
      <trkpt lat="61.9286" lon="5.45735">
        <ele>55.998418</ele>
        <time>2020-07-29T11:47:37.841Z</time>
      </trkpt>
      <trkpt lat="61.92872" lon="5.45733">
        <ele>55.79313</ele>
        <time>2020-07-29T11:47:40.848Z</time>
      </trkpt>
      <trkpt lat="61.92885" lon="5.45731">
        <ele>55.59313</ele>
        <time>2020-07-29T11:47:43.825Z</time>
      </trkpt>
      <trkpt lat="61.92898" lon="5.4573">
        <ele>55.793274</ele>
        <time>2020-07-29T11:47:46.822Z</time>
      </trkpt>
      <trkpt lat="61.9291" lon="5.45726">
        <ele>56.115486</ele>
        <time>2020-07-29T11:47:49.828Z</time>
      </trkpt>
      <trkpt lat="61.92922" lon="5.45724">
        <ele>56.451902</ele>
        <time>2020-07-29T11:47:52.815Z</time>
      </trkpt>
      <trkpt lat="61.92935" lon="5.45722">
        <ele>56.785025</ele>
        <time>2020-07-29T11:47:55.813Z</time>
      </trkpt>
      <trkpt lat="61.92946" lon="5.45721">
        <ele>57.08872</ele>
        <time>2020-07-29T11:47:58.828Z</time>
      </trkpt>
      <trkpt lat="61.92957" lon="5.45721">
        <ele>57.362763</ele>
        <time>2020-07-29T11:48:01.827Z</time>
      </trkpt>
      <trkpt lat="61.92966" lon="5.45723">
        <ele>57.624047</ele>
        <time>2020-07-29T11:48:04.856Z</time>
      </trkpt>
      <trkpt lat="61.92977" lon="5.45725">
        <ele>57.89997</ele>
        <time>2020-07-29T11:48:08.826Z</time>
      </trkpt>
      <trkpt lat="61.92986" lon="5.45726">
        <ele>58.152884</ele>
        <time>2020-07-29T11:48:12.832Z</time>
      </trkpt>
      <trkpt lat="61.92996" lon="5.45728">
        <ele>58.417677</ele>
        <time>2020-07-29T11:48:16.819Z</time>
      </trkpt>
      <trkpt lat="61.93006" lon="5.45733">
        <ele>58.681789</ele>
        <time>2020-07-29T11:48:20.824Z</time>
      </trkpt>
      <trkpt lat="61.93017" lon="5.45735">
        <ele>58.97007</ele>
        <time>2020-07-29T11:48:25.841Z</time>
      </trkpt>
      <trkpt lat="61.93027" lon="5.45742">
        <ele>59.271172</ele>
        <time>2020-07-29T11:48:30.815Z</time>
      </trkpt>
      <trkpt lat="61.93036" lon="5.45747">
        <ele>59.511927</ele>
        <time>2020-07-29T11:48:34.811Z</time>
      </trkpt>
      <trkpt lat="61.93045" lon="5.45753">
        <ele>59.750988</ele>
        <time>2020-07-29T11:48:39.815Z</time>
      </trkpt>
      <trkpt lat="61.93054" lon="5.4576">
        <ele>60.018263</ele>
        <time>2020-07-29T11:48:44.825Z</time>
      </trkpt>
      <trkpt lat="61.93065" lon="5.45765">
        <ele>60.315713</ele>
        <time>2020-07-29T11:48:49.836Z</time>
      </trkpt>
      <trkpt lat="61.93075" lon="5.45767">
        <ele>61.036594</ele>
        <time>2020-07-29T11:48:54.830Z</time>
      </trkpt>
      <trkpt lat="61.93085" lon="5.45766">
        <ele>61.803881</ele>
        <time>2020-07-29T11:48:59.831Z</time>
      </trkpt>
      <trkpt lat="61.93094" lon="5.45765">
        <ele>62.481768</ele>
        <time>2020-07-29T11:49:04.816Z</time>
      </trkpt>
      <trkpt lat="61.93104" lon="5.45763">
        <ele>63.266762</ele>
        <time>2020-07-29T11:49:10.839Z</time>
      </trkpt>
      <trkpt lat="61.93115" lon="5.45762">
        <ele>64.041174</ele>
        <time>2020-07-29T11:49:15.837Z</time>
      </trkpt>
      <trkpt lat="61.93124" lon="5.45758">
        <ele>64.748542</ele>
        <time>2020-07-29T11:49:20.824Z</time>
      </trkpt>
      <trkpt lat="61.93133" lon="5.4575">
        <ele>65.468345</ele>
        <time>2020-07-29T11:49:25.841Z</time>
      </trkpt>
      <trkpt lat="61.93141" lon="5.45744">
        <ele>66.155918</ele>
        <time>2020-07-29T11:49:30.833Z</time>
      </trkpt>
      <trkpt lat="61.93151" lon="5.45739">
        <ele>66.896085</ele>
        <time>2020-07-29T11:49:35.823Z</time>
      </trkpt>
      <trkpt lat="61.9316" lon="5.45735">
        <ele>67.624109</ele>
        <time>2020-07-29T11:49:40.844Z</time>
      </trkpt>
      <trkpt lat="61.9317" lon="5.45729">
        <ele>68.337275</ele>
        <time>2020-07-29T11:49:44.821Z</time>
      </trkpt>
      <trkpt lat="61.93179" lon="5.45724">
        <ele>69.085958</ele>
        <time>2020-07-29T11:49:48.837Z</time>
      </trkpt>
      <trkpt lat="61.93189" lon="5.45721">
        <ele>69.80216</ele>
        <time>2020-07-29T11:49:53.834Z</time>
      </trkpt>
      <trkpt lat="61.93199" lon="5.45714">
        <ele>70.591431</ele>
        <time>2020-07-29T11:49:58.828Z</time>
      </trkpt>
      <trkpt lat="61.93209" lon="5.45712">
        <ele>71.400628</ele>
        <time>2020-07-29T11:50:03.841Z</time>
      </trkpt>
      <trkpt lat="61.93219" lon="5.4571">
        <ele>72.125092</ele>
        <time>2020-07-29T11:50:07.835Z</time>
      </trkpt>
      <trkpt lat="61.93229" lon="5.45708">
        <ele>72.887005</ele>
        <time>2020-07-29T11:50:12.847Z</time>
      </trkpt>
      <trkpt lat="61.93239" lon="5.4571">
        <ele>73.649877</ele>
        <time>2020-07-29T11:50:16.824Z</time>
      </trkpt>
      <trkpt lat="61.93251" lon="5.45712">
        <ele>73.768205</ele>
        <time>2020-07-29T11:50:20.831Z</time>
      </trkpt>
      <trkpt lat="61.93261" lon="5.45714">
        <ele>73.692122</ele>
        <time>2020-07-29T11:50:23.816Z</time>
      </trkpt>
      <trkpt lat="61.93271" lon="5.45718">
        <ele>73.604481</ele>
        <time>2020-07-29T11:50:26.844Z</time>
      </trkpt>
      <trkpt lat="61.93281" lon="5.45722">
        <ele>73.525155</ele>
        <time>2020-07-29T11:50:29.814Z</time>
      </trkpt>
      <trkpt lat="61.9329" lon="5.45728">
        <ele>73.447648</ele>
        <time>2020-07-29T11:50:32.826Z</time>
      </trkpt>
      <trkpt lat="61.93298" lon="5.45739">
        <ele>73.372033</ele>
        <time>2020-07-29T11:50:35.841Z</time>
      </trkpt>
      <trkpt lat="61.93309" lon="5.45751">
        <ele>73.274203</ele>
        <time>2020-07-29T11:50:38.844Z</time>
      </trkpt>
      <trkpt lat="61.9332" lon="5.45766">
        <ele>73.16997</ele>
        <time>2020-07-29T11:50:41.820Z</time>
      </trkpt>
      <trkpt lat="61.93328" lon="5.45777">
        <ele>73.096386</ele>
        <time>2020-07-29T11:50:43.820Z</time>
      </trkpt>
      <trkpt lat="61.93335" lon="5.45788">
        <ele>73.023926</ele>
        <time>2020-07-29T11:50:45.863Z</time>
      </trkpt>
      <trkpt lat="61.93343" lon="5.45801">
        <ele>72.946071</ele>
        <time>2020-07-29T11:50:47.840Z</time>
      </trkpt>
      <trkpt lat="61.93351" lon="5.45814">
        <ele>72.867465</ele>
        <time>2020-07-29T11:50:49.828Z</time>
      </trkpt>
      <trkpt lat="61.93358" lon="5.45829">
        <ele>72.786281</ele>
        <time>2020-07-29T11:50:51.844Z</time>
      </trkpt>
      <trkpt lat="61.93367" lon="5.45844">
        <ele>72.698946</ele>
        <time>2020-07-29T11:50:53.827Z</time>
      </trkpt>
      <trkpt lat="61.93375" lon="5.45858">
        <ele>72.610833</ele>
        <time>2020-07-29T11:50:55.864Z</time>
      </trkpt>
      <trkpt lat="61.93384" lon="5.45873">
        <ele>72.520541</ele>
        <time>2020-07-29T11:50:57.823Z</time>
      </trkpt>
      <trkpt lat="61.93393" lon="5.45889">
        <ele>72.431037</ele>
        <time>2020-07-29T11:50:59.837Z</time>
      </trkpt>
      <trkpt lat="61.93401" lon="5.45904">
        <ele>72.159775</ele>
        <time>2020-07-29T11:51:01.825Z</time>
      </trkpt>
      <trkpt lat="61.93409" lon="5.45919">
        <ele>71.819028</ele>
        <time>2020-07-29T11:51:03.847Z</time>
      </trkpt>
      <trkpt lat="61.93418" lon="5.45935">
        <ele>71.475867</ele>
        <time>2020-07-29T11:51:05.827Z</time>
      </trkpt>
      <trkpt lat="61.93426" lon="5.45952">
        <ele>71.133914</ele>
        <time>2020-07-29T11:51:07.841Z</time>
      </trkpt>
      <trkpt lat="61.93434" lon="5.4597">
        <ele>70.78265</ele>
        <time>2020-07-29T11:51:09.871Z</time>
      </trkpt>
      <trkpt lat="61.93441" lon="5.45988">
        <ele>70.430258</ele>
        <time>2020-07-29T11:51:11.820Z</time>
      </trkpt>
      <trkpt lat="61.9345" lon="5.46006">
        <ele>70.063038</ele>
        <time>2020-07-29T11:51:13.845Z</time>
      </trkpt>
      <trkpt lat="61.93459" lon="5.46024">
        <ele>69.692426</ele>
        <time>2020-07-29T11:51:15.848Z</time>
      </trkpt>
      <trkpt lat="61.93468" lon="5.46041">
        <ele>69.315383</ele>
        <time>2020-07-29T11:51:17.860Z</time>
      </trkpt>
      <trkpt lat="61.93477" lon="5.46059">
        <ele>68.938724</ele>
        <time>2020-07-29T11:51:19.809Z</time>
      </trkpt>
      <trkpt lat="61.93487" lon="5.46075">
        <ele>68.556989</ele>
        <time>2020-07-29T11:51:21.829Z</time>
      </trkpt>
      <trkpt lat="61.93497" lon="5.46093">
        <ele>68.175336</ele>
        <time>2020-07-29T11:51:23.874Z</time>
      </trkpt>
      <trkpt lat="61.93506" lon="5.4611">
        <ele>67.801259</ele>
        <time>2020-07-29T11:51:25.817Z</time>
      </trkpt>
      <trkpt lat="61.93515" lon="5.46128">
        <ele>67.413547</ele>
        <time>2020-07-29T11:51:27.817Z</time>
      </trkpt>
      <trkpt lat="61.93525" lon="5.46147">
        <ele>67.017251</ele>
        <time>2020-07-29T11:51:29.834Z</time>
      </trkpt>
      <trkpt lat="61.93535" lon="5.46165">
        <ele>66.574319</ele>
        <time>2020-07-29T11:51:31.826Z</time>
      </trkpt>
      <trkpt lat="61.93544" lon="5.46183">
        <ele>66.140974</ele>
        <time>2020-07-29T11:51:33.844Z</time>
      </trkpt>
      <trkpt lat="61.93553" lon="5.46201">
        <ele>65.70282</ele>
        <time>2020-07-29T11:51:35.835Z</time>
      </trkpt>
      <trkpt lat="61.93562" lon="5.46218">
        <ele>65.279825</ele>
        <time>2020-07-29T11:51:37.827Z</time>
      </trkpt>
      <trkpt lat="61.93571" lon="5.46235">
        <ele>64.857471</ele>
        <time>2020-07-29T11:51:39.838Z</time>
      </trkpt>
      <trkpt lat="61.93581" lon="5.4625">
        <ele>64.436222</ele>
        <time>2020-07-29T11:51:41.842Z</time>
      </trkpt>
      <trkpt lat="61.93592" lon="5.46263">
        <ele>63.99359</ele>
        <time>2020-07-29T11:51:43.830Z</time>
      </trkpt>
      <trkpt lat="61.93603" lon="5.46276">
        <ele>63.527104</ele>
        <time>2020-07-29T11:51:45.828Z</time>
      </trkpt>
      <trkpt lat="61.93615" lon="5.46289">
        <ele>63.065254</ele>
        <time>2020-07-29T11:51:47.839Z</time>
      </trkpt>
      <trkpt lat="61.93627" lon="5.463">
        <ele>62.624038</ele>
        <time>2020-07-29T11:51:49.829Z</time>
      </trkpt>
      <trkpt lat="61.93638" lon="5.46309">
        <ele>62.197402</ele>
        <time>2020-07-29T11:51:51.843Z</time>
      </trkpt>
      <trkpt lat="61.9365" lon="5.46316">
        <ele>61.760927</ele>
        <time>2020-07-29T11:51:53.854Z</time>
      </trkpt>
      <trkpt lat="61.93662" lon="5.46323">
        <ele>61.317696</ele>
        <time>2020-07-29T11:51:55.878Z</time>
      </trkpt>
      <trkpt lat="61.93675" lon="5.4633">
        <ele>60.856262</ele>
        <time>2020-07-29T11:51:57.838Z</time>
      </trkpt>
      <trkpt lat="61.93688" lon="5.46335">
        <ele>60.635341</ele>
        <time>2020-07-29T11:51:59.844Z</time>
      </trkpt>
      <trkpt lat="61.93702" lon="5.46336">
        <ele>60.669178</ele>
        <time>2020-07-29T11:52:01.868Z</time>
      </trkpt>
      <trkpt lat="61.93715" lon="5.46337">
        <ele>60.702213</ele>
        <time>2020-07-29T11:52:03.855Z</time>
      </trkpt>
      <trkpt lat="61.93727" lon="5.46336">
        <ele>60.731991</ele>
        <time>2020-07-29T11:52:05.822Z</time>
      </trkpt>
      <trkpt lat="61.93738" lon="5.46335">
        <ele>60.760327</ele>
        <time>2020-07-29T11:52:07.844Z</time>
      </trkpt>
      <trkpt lat="61.93748" lon="5.46332">
        <ele>60.786124</ele>
        <time>2020-07-29T11:52:09.852Z</time>
      </trkpt>
      <trkpt lat="61.93758" lon="5.46329">
        <ele>60.811055</ele>
        <time>2020-07-29T11:52:11.832Z</time>
      </trkpt>
      <trkpt lat="61.93768" lon="5.46327">
        <ele>60.834992</ele>
        <time>2020-07-29T11:52:13.868Z</time>
      </trkpt>
      <trkpt lat="61.93777" lon="5.46324">
        <ele>60.858298</ele>
        <time>2020-07-29T11:52:15.838Z</time>
      </trkpt>
      <trkpt lat="61.93786" lon="5.4632">
        <ele>60.880966</ele>
        <time>2020-07-29T11:52:17.869Z</time>
      </trkpt>
      <trkpt lat="61.93794" lon="5.46315">
        <ele>60.903515</ele>
        <time>2020-07-29T11:52:19.814Z</time>
      </trkpt>
      <trkpt lat="61.93806" lon="5.46308">
        <ele>60.934985</ele>
        <time>2020-07-29T11:52:22.824Z</time>
      </trkpt>
      <trkpt lat="61.93817" lon="5.46299">
        <ele>60.964035</ele>
        <time>2020-07-29T11:52:25.868Z</time>
      </trkpt>
      <trkpt lat="61.93827" lon="5.4629">
        <ele>60.991575</ele>
        <time>2020-07-29T11:52:28.840Z</time>
      </trkpt>
      <trkpt lat="61.93837" lon="5.46281">
        <ele>61.017793</ele>
        <time>2020-07-29T11:52:31.826Z</time>
      </trkpt>
      <trkpt lat="61.93846" lon="5.46273">
        <ele>61.04128</ele>
        <time>2020-07-29T11:52:34.839Z</time>
      </trkpt>
      <trkpt lat="61.93856" lon="5.46262">
        <ele>61.083059</ele>
        <time>2020-07-29T11:52:38.835Z</time>
      </trkpt>
      <trkpt lat="61.93867" lon="5.46254">
        <ele>61.334417</ele>
        <time>2020-07-29T11:52:42.847Z</time>
      </trkpt>
      <trkpt lat="61.93876" lon="5.46244">
        <ele>61.581146</ele>
        <time>2020-07-29T11:52:46.834Z</time>
      </trkpt>
      <trkpt lat="61.93887" lon="5.46235">
        <ele>61.837912</ele>
        <time>2020-07-29T11:52:50.828Z</time>
      </trkpt>
      <trkpt lat="61.93896" lon="5.46226">
        <ele>62.081222</ele>
        <time>2020-07-29T11:52:54.836Z</time>
      </trkpt>
      <trkpt lat="61.93907" lon="5.46216">
        <ele>62.341788</ele>
        <time>2020-07-29T11:52:58.836Z</time>
      </trkpt>
      <trkpt lat="61.93916" lon="5.46207">
        <ele>62.57498</ele>
        <time>2020-07-29T11:53:02.887Z</time>
      </trkpt>
      <trkpt lat="61.93924" lon="5.46197">
        <ele>62.781982</ele>
        <time>2020-07-29T11:53:05.832Z</time>
      </trkpt>
      <trkpt lat="61.93934" lon="5.46188">
        <ele>63.029483</ele>
        <time>2020-07-29T11:53:08.864Z</time>
      </trkpt>
      <trkpt lat="61.93944" lon="5.46177">
        <ele>63.293682</ele>
        <time>2020-07-29T11:53:11.835Z</time>
      </trkpt>
      <trkpt lat="61.93955" lon="5.46164">
        <ele>63.574007</ele>
        <time>2020-07-29T11:53:14.856Z</time>
      </trkpt>
      <trkpt lat="61.93965" lon="5.4615">
        <ele>63.853302</ele>
        <time>2020-07-29T11:53:17.871Z</time>
      </trkpt>
      <trkpt lat="61.93974" lon="5.46133">
        <ele>64.124238</ele>
        <time>2020-07-29T11:53:20.828Z</time>
      </trkpt>
      <trkpt lat="61.93982" lon="5.46114">
        <ele>64.411555</ele>
        <time>2020-07-29T11:53:23.830Z</time>
      </trkpt>
      <trkpt lat="61.9399" lon="5.46095">
        <ele>64.683191</ele>
        <time>2020-07-29T11:53:26.836Z</time>
      </trkpt>
      <trkpt lat="61.93997" lon="5.46077">
        <ele>64.936313</ele>
        <time>2020-07-29T11:53:29.854Z</time>
      </trkpt>
      <trkpt lat="61.94004" lon="5.46063">
        <ele>65.150594</ele>
        <time>2020-07-29T11:53:32.841Z</time>
      </trkpt>
      <trkpt lat="61.94011" lon="5.46046">
        <ele>65.47533</ele>
        <time>2020-07-29T11:53:36.826Z</time>
      </trkpt>
      <trkpt lat="61.94016" lon="5.46024">
        <ele>65.828521</ele>
        <time>2020-07-29T11:53:40.825Z</time>
      </trkpt>
      <trkpt lat="61.9402" lon="5.46005">
        <ele>66.129063</ele>
        <time>2020-07-29T11:53:44.854Z</time>
      </trkpt>
      <trkpt lat="61.94022" lon="5.45987">
        <ele>66.4103</ele>
        <time>2020-07-29T11:53:48.837Z</time>
      </trkpt>
      <trkpt lat="61.94025" lon="5.45966">
        <ele>66.728111</ele>
        <time>2020-07-29T11:53:52.823Z</time>
      </trkpt>
      <trkpt lat="61.94027" lon="5.45947">
        <ele>67.024215</ele>
        <time>2020-07-29T11:53:56.835Z</time>
      </trkpt>
      <trkpt lat="61.94029" lon="5.45925">
        <ele>67.344756</ele>
        <time>2020-07-29T11:54:00.846Z</time>
      </trkpt>
      <trkpt lat="61.94032" lon="5.45904">
        <ele>67.67315</ele>
        <time>2020-07-29T11:54:04.831Z</time>
      </trkpt>
      <trkpt lat="61.94034" lon="5.45881">
        <ele>68.008965</ele>
        <time>2020-07-29T11:54:09.823Z</time>
      </trkpt>
      <trkpt lat="61.94035" lon="5.45862">
        <ele>68.298765</ele>
        <time>2020-07-29T11:54:13.837Z</time>
      </trkpt>
      <trkpt lat="61.94038" lon="5.45839">
        <ele>68.655069</ele>
        <time>2020-07-29T11:54:18.845Z</time>
      </trkpt>
      <trkpt lat="61.94041" lon="5.45818">
        <ele>68.974908</ele>
        <time>2020-07-29T11:54:22.839Z</time>
      </trkpt>
      <trkpt lat="61.94045" lon="5.45796">
        <ele>69.317798</ele>
        <time>2020-07-29T11:54:26.836Z</time>
      </trkpt>
      <trkpt lat="61.94048" lon="5.45776">
        <ele>69.635707</ele>
        <time>2020-07-29T11:54:30.823Z</time>
      </trkpt>
      <trkpt lat="61.94051" lon="5.45757">
        <ele>69.923926</ele>
        <time>2020-07-29T11:54:34.852Z</time>
      </trkpt>
      <trkpt lat="61.94054" lon="5.45735">
        <ele>70.267537</ele>
        <time>2020-07-29T11:54:39.825Z</time>
      </trkpt>
      <trkpt lat="61.94062" lon="5.45715">
        <ele>70.639675</ele>
        <time>2020-07-29T11:54:43.825Z</time>
      </trkpt>
      <trkpt lat="61.94067" lon="5.457">
        <ele>70.837823</ele>
        <time>2020-07-29T11:54:46.828Z</time>
      </trkpt>
      <trkpt lat="61.94074" lon="5.45682">
        <ele>70.889263</ele>
        <time>2020-07-29T11:54:50.880Z</time>
      </trkpt>
      <trkpt lat="61.9408" lon="5.45665">
        <ele>70.937399</ele>
        <time>2020-07-29T11:54:54.843Z</time>
      </trkpt>
      <trkpt lat="61.94086" lon="5.45646">
        <ele>70.99077</ele>
        <time>2020-07-29T11:54:58.833Z</time>
      </trkpt>
      <trkpt lat="61.94093" lon="5.45627">
        <ele>71.047089</ele>
        <time>2020-07-29T11:55:02.839Z</time>
      </trkpt>
      <trkpt lat="61.94099" lon="5.45606">
        <ele>71.102201</ele>
        <time>2020-07-29T11:55:06.854Z</time>
      </trkpt>
      <trkpt lat="61.94105" lon="5.45589">
        <ele>71.151539</ele>
        <time>2020-07-29T11:55:10.841Z</time>
      </trkpt>
      <trkpt lat="61.9411" lon="5.45571">
        <ele>71.200514</ele>
        <time>2020-07-29T11:55:14.824Z</time>
      </trkpt>
      <trkpt lat="61.94117" lon="5.45552">
        <ele>71.254828</ele>
        <time>2020-07-29T11:55:19.820Z</time>
      </trkpt>
      <trkpt lat="61.94123" lon="5.45536">
        <ele>71.301505</ele>
        <time>2020-07-29T11:55:23.860Z</time>
      </trkpt>
      <trkpt lat="61.94128" lon="5.45519">
        <ele>71.347486</ele>
        <time>2020-07-29T11:55:27.878Z</time>
      </trkpt>
      <trkpt lat="61.94133" lon="5.45502">
        <ele>71.394311</ele>
        <time>2020-07-29T11:55:31.835Z</time>
      </trkpt>
      <trkpt lat="61.94138" lon="5.45485">
        <ele>71.44106</ele>
        <time>2020-07-29T11:55:35.827Z</time>
      </trkpt>
      <trkpt lat="61.94143" lon="5.45467">
        <ele>71.489305</ele>
        <time>2020-07-29T11:55:40.852Z</time>
      </trkpt>
      <trkpt lat="61.94147" lon="5.45446">
        <ele>71.539837</ele>
        <time>2020-07-29T11:55:45.897Z</time>
      </trkpt>
      <trkpt lat="61.94149" lon="5.45427">
        <ele>71.584825</ele>
        <time>2020-07-29T11:55:49.864Z</time>
      </trkpt>
      <trkpt lat="61.94155" lon="5.45408">
        <ele>71.63683</ele>
        <time>2020-07-29T11:55:54.821Z</time>
      </trkpt>
      <trkpt lat="61.94161" lon="5.45391">
        <ele>71.686581</ele>
        <time>2020-07-29T11:55:59.832Z</time>
      </trkpt>
      <trkpt lat="61.94167" lon="5.45372">
        <ele>72.127662</ele>
        <time>2020-07-29T11:56:04.829Z</time>
      </trkpt>
      <trkpt lat="61.94173" lon="5.45354">
        <ele>72.648868</ele>
        <time>2020-07-29T11:56:09.854Z</time>
      </trkpt>
      <trkpt lat="61.94179" lon="5.45335">
        <ele>73.213944</ele>
        <time>2020-07-29T11:56:15.824Z</time>
      </trkpt>
      <trkpt lat="61.94183" lon="5.45317">
        <ele>73.72682</ele>
        <time>2020-07-29T11:56:20.853Z</time>
      </trkpt>
      <trkpt lat="61.94188" lon="5.45298">
        <ele>74.270292</ele>
        <time>2020-07-29T11:56:25.846Z</time>
      </trkpt>
      <trkpt lat="61.94194" lon="5.4528">
        <ele>74.797625</ele>
        <time>2020-07-29T11:56:30.871Z</time>
      </trkpt>
      <trkpt lat="61.94197" lon="5.45259">
        <ele>75.340978</ele>
        <time>2020-07-29T11:56:35.831Z</time>
      </trkpt>
      <trkpt lat="61.94202" lon="5.4524">
        <ele>75.887989</ele>
        <time>2020-07-29T11:56:40.835Z</time>
      </trkpt>
      <trkpt lat="61.9421" lon="5.45227">
        <ele>76.418114</ele>
        <time>2020-07-29T11:56:45.856Z</time>
      </trkpt>
      <trkpt lat="61.94219" lon="5.45226">
        <ele>76.897369</ele>
        <time>2020-07-29T11:56:49.839Z</time>
      </trkpt>
      <trkpt lat="61.94229" lon="5.45229">
        <ele>77.408585</ele>
        <time>2020-07-29T11:56:54.833Z</time>
      </trkpt>
      <trkpt lat="61.94237" lon="5.45237">
        <ele>77.898988</ele>
        <time>2020-07-29T11:56:59.839Z</time>
      </trkpt>
      <trkpt lat="61.94245" lon="5.45249">
        <ele>78.404461</ele>
        <time>2020-07-29T11:57:06.824Z</time>
      </trkpt>
      <trkpt lat="61.94252" lon="5.45265">
        <ele>78.92576</ele>
        <time>2020-07-29T11:57:13.817Z</time>
      </trkpt>
      <trkpt lat="61.94257" lon="5.45282">
        <ele>79.427925</ele>
        <time>2020-07-29T11:57:20.824Z</time>
      </trkpt>
      <trkpt lat="61.94264" lon="5.45297">
        <ele>79.932981</ele>
        <time>2020-07-29T11:57:27.837Z</time>
      </trkpt>
      <trkpt lat="61.9427" lon="5.45312">
        <ele>80.434491</ele>
        <time>2020-07-29T11:57:34.855Z</time>
      </trkpt>
      <trkpt lat="61.94276" lon="5.45329">
        <ele>80.976158</ele>
        <time>2020-07-29T11:57:41.852Z</time>
      </trkpt>
      <trkpt lat="61.94282" lon="5.45344">
        <ele>81.679991</ele>
        <time>2020-07-29T11:57:48.867Z</time>
      </trkpt>
      <trkpt lat="61.94288" lon="5.45361">
        <ele>82.602872</ele>
        <time>2020-07-29T11:57:55.857Z</time>
      </trkpt>
      <trkpt lat="61.94295" lon="5.45375">
        <ele>83.431252</ele>
        <time>2020-07-29T11:58:01.832Z</time>
      </trkpt>
      <trkpt lat="61.943" lon="5.45392">
        <ele>84.326706</ele>
        <time>2020-07-29T11:58:08.825Z</time>
      </trkpt>
      <trkpt lat="61.94306" lon="5.45409">
        <ele>85.23298</ele>
        <time>2020-07-29T11:58:15.835Z</time>
      </trkpt>
      <trkpt lat="61.94311" lon="5.45425">
        <ele>86.087947</ele>
        <time>2020-07-29T11:58:22.848Z</time>
      </trkpt>
      <trkpt lat="61.94317" lon="5.4544">
        <ele>86.92991</ele>
        <time>2020-07-29T11:58:29.814Z</time>
      </trkpt>
      <trkpt lat="61.94323" lon="5.45458">
        <ele>87.860528</ele>
        <time>2020-07-29T11:58:37.839Z</time>
      </trkpt>
      <trkpt lat="61.94328" lon="5.45476">
        <ele>88.765347</ele>
        <time>2020-07-29T11:58:46.860Z</time>
      </trkpt>
      <trkpt lat="61.94335" lon="5.45491">
        <ele>89.687416</ele>
        <time>2020-07-29T11:58:55.830Z</time>
      </trkpt>
      <trkpt lat="61.94342" lon="5.45507">
        <ele>90.573419</ele>
        <time>2020-07-29T11:59:02.842Z</time>
      </trkpt>
      <trkpt lat="61.94348" lon="5.45523">
        <ele>91.474527</ele>
        <time>2020-07-29T11:59:09.824Z</time>
      </trkpt>
      <trkpt lat="61.94355" lon="5.45536">
        <ele>92.293404</ele>
        <time>2020-07-29T11:59:14.831Z</time>
      </trkpt>
      <trkpt lat="61.9436" lon="5.45551">
        <ele>93.143984</ele>
        <time>2020-07-29T11:59:19.841Z</time>
      </trkpt>
      <trkpt lat="61.94367" lon="5.45567">
        <ele>94.075707</ele>
        <time>2020-07-29T11:59:24.827Z</time>
      </trkpt>
      <trkpt lat="61.94374" lon="5.4558">
        <ele>94.907145</ele>
        <time>2020-07-29T11:59:29.828Z</time>
      </trkpt>
      <trkpt lat="61.94381" lon="5.45593">
        <ele>95.7472</ele>
        <time>2020-07-29T11:59:34.828Z</time>
      </trkpt>
      <trkpt lat="61.94388" lon="5.45609">
        <ele>96.722658</ele>
        <time>2020-07-29T11:59:39.846Z</time>
      </trkpt>
      <trkpt lat="61.94397" lon="5.45623">
        <ele>97.644144</ele>
        <time>2020-07-29T11:59:44.836Z</time>
      </trkpt>
      <trkpt lat="61.94404" lon="5.45636">
        <ele>97.832939</ele>
        <time>2020-07-29T11:59:49.844Z</time>
      </trkpt>
      <trkpt lat="61.94412" lon="5.4565">
        <ele>98.03555</ele>
        <time>2020-07-29T11:59:55.892Z</time>
      </trkpt>
      <trkpt lat="61.94418" lon="5.45666">
        <ele>98.223297</ele>
        <time>2020-07-29T12:00:00.832Z</time>
      </trkpt>
      <trkpt lat="61.94427" lon="5.4568">
        <ele>98.430693</ele>
        <time>2020-07-29T12:00:05.839Z</time>
      </trkpt>
      <trkpt lat="61.94435" lon="5.45692">
        <ele>98.634146</ele>
        <time>2020-07-29T12:00:10.826Z</time>
      </trkpt>
      <trkpt lat="61.94444" lon="5.45707">
        <ele>98.850454</ele>
        <time>2020-07-29T12:00:15.861Z</time>
      </trkpt>
      <trkpt lat="61.94451" lon="5.45719">
        <ele>99.02502</ele>
        <time>2020-07-29T12:00:19.866Z</time>
      </trkpt>
      <trkpt lat="61.9446" lon="5.4573">
        <ele>99.218676</ele>
        <time>2020-07-29T12:00:23.874Z</time>
      </trkpt>
      <trkpt lat="61.94468" lon="5.45741">
        <ele>99.415651</ele>
        <time>2020-07-29T12:00:27.822Z</time>
      </trkpt>
      <trkpt lat="61.94476" lon="5.45754">
        <ele>99.610574</ele>
        <time>2020-07-29T12:00:31.858Z</time>
      </trkpt>
      <trkpt lat="61.94484" lon="5.45767">
        <ele>99.802979</ele>
        <time>2020-07-29T12:00:35.815Z</time>
      </trkpt>
      <trkpt lat="61.94492" lon="5.45781">
        <ele>100.004711</ele>
        <time>2020-07-29T12:00:39.841Z</time>
      </trkpt>
      <trkpt lat="61.945" lon="5.45796">
        <ele>100.209313</ele>
        <time>2020-07-29T12:00:43.856Z</time>
      </trkpt>
      <trkpt lat="61.94506" lon="5.45811">
        <ele>100.397532</ele>
        <time>2020-07-29T12:00:47.885Z</time>
      </trkpt>
      <trkpt lat="61.94514" lon="5.45828">
        <ele>100.60574</ele>
        <time>2020-07-29T12:00:51.836Z</time>
      </trkpt>
      <trkpt lat="61.94523" lon="5.45842">
        <ele>100.817129</ele>
        <time>2020-07-29T12:00:55.828Z</time>
      </trkpt>
      <trkpt lat="61.94531" lon="5.45857">
        <ele>101.037483</ele>
        <time>2020-07-29T12:00:59.838Z</time>
      </trkpt>
      <trkpt lat="61.94539" lon="5.4587">
        <ele>101.070141</ele>
        <time>2020-07-29T12:01:03.827Z</time>
      </trkpt>
      <trkpt lat="61.94548" lon="5.45882">
        <ele>100.965042</ele>
        <time>2020-07-29T12:01:07.829Z</time>
      </trkpt>
      <trkpt lat="61.94557" lon="5.45891">
        <ele>100.86627</ele>
        <time>2020-07-29T12:01:11.845Z</time>
      </trkpt>
      <trkpt lat="61.94566" lon="5.45899">
        <ele>100.757332</ele>
        <time>2020-07-29T12:01:15.863Z</time>
      </trkpt>
      <trkpt lat="61.94576" lon="5.45908">
        <ele>100.646106</ele>
        <time>2020-07-29T12:01:19.817Z</time>
      </trkpt>
      <trkpt lat="61.94585" lon="5.45921">
        <ele>100.532031</ele>
        <time>2020-07-29T12:01:23.822Z</time>
      </trkpt>
      <trkpt lat="61.94593" lon="5.45933">
        <ele>100.433706</ele>
        <time>2020-07-29T12:01:26.840Z</time>
      </trkpt>
      <trkpt lat="61.94602" lon="5.45945">
        <ele>100.324726</ele>
        <time>2020-07-29T12:01:29.820Z</time>
      </trkpt>
      <trkpt lat="61.9461" lon="5.45958">
        <ele>100.221861</ele>
        <time>2020-07-29T12:01:32.819Z</time>
      </trkpt>
      <trkpt lat="61.94617" lon="5.45972">
        <ele>100.124267</ele>
        <time>2020-07-29T12:01:35.849Z</time>
      </trkpt>
      <trkpt lat="61.94625" lon="5.45989">
        <ele>100.006672</ele>
        <time>2020-07-29T12:01:39.836Z</time>
      </trkpt>
      <trkpt lat="61.94633" lon="5.46006">
        <ele>99.888797</ele>
        <time>2020-07-29T12:01:43.835Z</time>
      </trkpt>
      <trkpt lat="61.94641" lon="5.46023">
        <ele>99.77058</ele>
        <time>2020-07-29T12:01:47.855Z</time>
      </trkpt>
      <trkpt lat="61.9465" lon="5.46041">
        <ele>99.646301</ele>
        <time>2020-07-29T12:01:51.823Z</time>
      </trkpt>
      <trkpt lat="61.94658" lon="5.46058">
        <ele>99.529555</ele>
        <time>2020-07-29T12:01:55.881Z</time>
      </trkpt>
      <trkpt lat="61.94665" lon="5.46076">
        <ele>99.41877</ele>
        <time>2020-07-29T12:01:59.839Z</time>
      </trkpt>
      <trkpt lat="61.94672" lon="5.46093">
        <ele>99.30766</ele>
        <time>2020-07-29T12:02:03.822Z</time>
      </trkpt>
      <trkpt lat="61.94679" lon="5.46109">
        <ele>99.636962</ele>
        <time>2020-07-29T12:02:07.828Z</time>
      </trkpt>
      <trkpt lat="61.94686" lon="5.46126">
        <ele>100.210041</ele>
        <time>2020-07-29T12:02:11.856Z</time>
      </trkpt>
      <trkpt lat="61.94693" lon="5.46143">
        <ele>100.776287</ele>
        <time>2020-07-29T12:02:15.835Z</time>
      </trkpt>
      <trkpt lat="61.947" lon="5.46161">
        <ele>101.363831</ele>
        <time>2020-07-29T12:02:19.820Z</time>
      </trkpt>
      <trkpt lat="61.94705" lon="5.46182">
        <ele>101.957363</ele>
        <time>2020-07-29T12:02:23.845Z</time>
      </trkpt>
      <trkpt lat="61.94709" lon="5.46202">
        <ele>102.507293</ele>
        <time>2020-07-29T12:02:27.885Z</time>
      </trkpt>
      <trkpt lat="61.94712" lon="5.46221">
        <ele>103.001424</ele>
        <time>2020-07-29T12:02:31.851Z</time>
      </trkpt>
      <trkpt lat="61.94714" lon="5.46244">
        <ele>103.592218</ele>
        <time>2020-07-29T12:02:36.819Z</time>
      </trkpt>
      <trkpt lat="61.94715" lon="5.46265">
        <ele>104.135657</ele>
        <time>2020-07-29T12:02:41.838Z</time>
      </trkpt>
      <trkpt lat="61.94716" lon="5.46285">
        <ele>104.637275</ele>
        <time>2020-07-29T12:02:46.841Z</time>
      </trkpt>
      <trkpt lat="61.94715" lon="5.46307">
        <ele>105.192671</ele>
        <time>2020-07-29T12:02:51.832Z</time>
      </trkpt>
      <trkpt lat="61.94715" lon="5.46327">
        <ele>105.704665</ele>
        <time>2020-07-29T12:02:56.823Z</time>
      </trkpt>
      <trkpt lat="61.94716" lon="5.46347">
        <ele>106.191597</ele>
        <time>2020-07-29T12:03:01.864Z</time>
      </trkpt>
      <trkpt lat="61.94716" lon="5.46368">
        <ele>106.723894</ele>
        <time>2020-07-29T12:03:07.833Z</time>
      </trkpt>
      <trkpt lat="61.94715" lon="5.4639">
        <ele>107.284867</ele>
        <time>2020-07-29T12:03:13.828Z</time>
      </trkpt>
      <trkpt lat="61.94714" lon="5.46412">
        <ele>107.8481</ele>
        <time>2020-07-29T12:03:18.818Z</time>
      </trkpt>
      <trkpt lat="61.94714" lon="5.46433">
        <ele>108.385224</ele>
        <time>2020-07-29T12:03:23.834Z</time>
      </trkpt>
      <trkpt lat="61.94713" lon="5.46453">
        <ele>108.897592</ele>
        <time>2020-07-29T12:03:28.818Z</time>
      </trkpt>
      <trkpt lat="61.94711" lon="5.46475">
        <ele>109.400785</ele>
        <time>2020-07-29T12:03:34.844Z</time>
      </trkpt>
      <trkpt lat="61.94708" lon="5.46496">
        <ele>109.897776</ele>
        <time>2020-07-29T12:03:40.821Z</time>
      </trkpt>
      <trkpt lat="61.94705" lon="5.46514">
        <ele>110.350661</ele>
        <time>2020-07-29T12:03:46.816Z</time>
      </trkpt>
      <trkpt lat="61.94702" lon="5.46533">
        <ele>110.807989</ele>
        <time>2020-07-29T12:03:52.859Z</time>
      </trkpt>
      <trkpt lat="61.94702" lon="5.46553">
        <ele>111.264102</ele>
        <time>2020-07-29T12:03:58.819Z</time>
      </trkpt>
      <trkpt lat="61.94702" lon="5.46574">
        <ele>111.747495</ele>
        <time>2020-07-29T12:04:04.851Z</time>
      </trkpt>
      <trkpt lat="61.94702" lon="5.46597">
        <ele>112.253866</ele>
        <time>2020-07-29T12:04:10.848Z</time>
      </trkpt>
      <trkpt lat="61.94702" lon="5.46619">
        <ele>112.771621</ele>
        <time>2020-07-29T12:04:16.839Z</time>
      </trkpt>
      <trkpt lat="61.94703" lon="5.46639">
        <ele>113.237911</ele>
        <time>2020-07-29T12:04:22.827Z</time>
      </trkpt>
      <trkpt lat="61.94704" lon="5.46661">
        <ele>113.730566</ele>
        <time>2020-07-29T12:04:29.821Z</time>
      </trkpt>
      <trkpt lat="61.94707" lon="5.46681">
        <ele>114.215597</ele>
        <time>2020-07-29T12:04:36.830Z</time>
      </trkpt>
      <trkpt lat="61.94709" lon="5.46702">
        <ele>114.702948</ele>
        <time>2020-07-29T12:04:43.833Z</time>
      </trkpt>
      <trkpt lat="61.9471" lon="5.46724">
        <ele>115.20778</ele>
        <time>2020-07-29T12:04:48.837Z</time>
      </trkpt>
      <trkpt lat="61.94713" lon="5.46744">
        <ele>115.70763</ele>
        <time>2020-07-29T12:04:53.838Z</time>
      </trkpt>
      <trkpt lat="61.94716" lon="5.46767">
        <ele>116.246123</ele>
        <time>2020-07-29T12:04:58.822Z</time>
      </trkpt>
      <trkpt lat="61.94719" lon="5.46787">
        <ele>116.725573</ele>
        <time>2020-07-29T12:05:03.825Z</time>
      </trkpt>
      <trkpt lat="61.94724" lon="5.46805">
        <ele>117.210411</ele>
        <time>2020-07-29T12:05:09.826Z</time>
      </trkpt>
      <trkpt lat="61.94729" lon="5.46822">
        <ele>117.687998</ele>
        <time>2020-07-29T12:05:15.845Z</time>
      </trkpt>
      <trkpt lat="61.94734" lon="5.46841">
        <ele>118.257828</ele>
        <time>2020-07-29T12:05:21.841Z</time>
      </trkpt>
      <trkpt lat="61.94739" lon="5.46858">
        <ele>118.821994</ele>
        <time>2020-07-29T12:05:27.839Z</time>
      </trkpt>
      <trkpt lat="61.94745" lon="5.46874">
        <ele>119.356074</ele>
        <time>2020-07-29T12:05:33.847Z</time>
      </trkpt>
      <trkpt lat="61.94749" lon="5.46891">
        <ele>119.873382</ele>
        <time>2020-07-29T12:05:40.844Z</time>
      </trkpt>
      <trkpt lat="61.94755" lon="5.46909">
        <ele>120.475916</ele>
        <time>2020-07-29T12:05:46.846Z</time>
      </trkpt>
      <trkpt lat="61.94761" lon="5.46927">
        <ele>121.066525</ele>
        <time>2020-07-29T12:05:52.845Z</time>
      </trkpt>
      <trkpt lat="61.94766" lon="5.46946">
        <ele>121.659517</ele>
        <time>2020-07-29T12:05:58.857Z</time>
      </trkpt>
      <trkpt lat="61.9477" lon="5.46965">
        <ele>122.233361</ele>
        <time>2020-07-29T12:06:04.853Z</time>
      </trkpt>
      <trkpt lat="61.94774" lon="5.46984">
        <ele>122.819508</ele>
        <time>2020-07-29T12:06:10.824Z</time>
      </trkpt>
      <trkpt lat="61.94777" lon="5.47005">
        <ele>123.393386</ele>
        <time>2020-07-29T12:06:16.822Z</time>
      </trkpt>
      <trkpt lat="61.94779" lon="5.47025">
        <ele>123.964263</ele>
        <time>2020-07-29T12:06:22.846Z</time>
      </trkpt>
      <trkpt lat="61.9478" lon="5.47047">
        <ele>124.561231</ele>
        <time>2020-07-29T12:06:28.821Z</time>
      </trkpt>
      <trkpt lat="61.9478" lon="5.47068">
        <ele>125.146434</ele>
        <time>2020-07-29T12:06:34.829Z</time>
      </trkpt>
      <trkpt lat="61.94781" lon="5.47089">
        <ele>125.69642</ele>
        <time>2020-07-29T12:06:40.867Z</time>
      </trkpt>
      <trkpt lat="61.94781" lon="5.47108">
        <ele>126.234053</ele>
        <time>2020-07-29T12:06:46.877Z</time>
      </trkpt>
      <trkpt lat="61.94783" lon="5.47129">
        <ele>126.805069</ele>
        <time>2020-07-29T12:06:52.860Z</time>
      </trkpt>
      <trkpt lat="61.94787" lon="5.47146">
        <ele>127.332264</ele>
        <time>2020-07-29T12:06:57.833Z</time>
      </trkpt>
      <trkpt lat="61.94791" lon="5.47164">
        <ele>127.874066</ele>
        <time>2020-07-29T12:07:02.823Z</time>
      </trkpt>
      <trkpt lat="61.94797" lon="5.47183">
        <ele>128.6001</ele>
        <time>2020-07-29T12:07:08.821Z</time>
      </trkpt>
      <trkpt lat="61.94804" lon="5.47199">
        <ele>129.386251</ele>
        <time>2020-07-29T12:07:14.868Z</time>
      </trkpt>
      <trkpt lat="61.94811" lon="5.47216">
        <ele>130.123586</ele>
        <time>2020-07-29T12:07:20.828Z</time>
      </trkpt>
      <trkpt lat="61.94816" lon="5.47234">
        <ele>130.874543</ele>
        <time>2020-07-29T12:07:26.831Z</time>
      </trkpt>
      <trkpt lat="61.94822" lon="5.47253">
        <ele>131.630181</ele>
        <time>2020-07-29T12:07:32.859Z</time>
      </trkpt>
      <trkpt lat="61.94827" lon="5.47273">
        <ele>132.414492</ele>
        <time>2020-07-29T12:07:38.839Z</time>
      </trkpt>
      <trkpt lat="61.94832" lon="5.47292">
        <ele>133.180699</ele>
        <time>2020-07-29T12:07:44.838Z</time>
      </trkpt>
      <trkpt lat="61.94836" lon="5.47311">
        <ele>133.898334</ele>
        <time>2020-07-29T12:07:50.828Z</time>
      </trkpt>
      <trkpt lat="61.94839" lon="5.4733">
        <ele>134.588375</ele>
        <time>2020-07-29T12:07:56.830Z</time>
      </trkpt>
      <trkpt lat="61.94842" lon="5.47349">
        <ele>135.271845</ele>
        <time>2020-07-29T12:08:02.840Z</time>
      </trkpt>
      <trkpt lat="61.94845" lon="5.47369">
        <ele>136.016465</ele>
        <time>2020-07-29T12:08:09.833Z</time>
      </trkpt>
      <trkpt lat="61.94848" lon="5.47387">
        <ele>136.676601</ele>
        <time>2020-07-29T12:08:15.832Z</time>
      </trkpt>
      <trkpt lat="61.94853" lon="5.47406">
        <ele>137.442804</ele>
        <time>2020-07-29T12:08:21.829Z</time>
      </trkpt>
      <trkpt lat="61.94858" lon="5.47424">
        <ele>138.139009</ele>
        <time>2020-07-29T12:08:26.822Z</time>
      </trkpt>
      <trkpt lat="61.94861" lon="5.47442">
        <ele>138.821773</ele>
        <time>2020-07-29T12:08:32.860Z</time>
      </trkpt>
      <trkpt lat="61.94865" lon="5.47463">
        <ele>139.596079</ele>
        <time>2020-07-29T12:08:38.828Z</time>
      </trkpt>
      <trkpt lat="61.94867" lon="5.47484">
        <ele>140.319247</ele>
        <time>2020-07-29T12:08:44.821Z</time>
      </trkpt>
      <trkpt lat="61.94867" lon="5.47504">
        <ele>141.022651</ele>
        <time>2020-07-29T12:08:50.825Z</time>
      </trkpt>
      <trkpt lat="61.94866" lon="5.47527">
        <ele>141.603933</ele>
        <time>2020-07-29T12:08:56.865Z</time>
      </trkpt>
      <trkpt lat="61.94867" lon="5.47547">
        <ele>142.048568</ele>
        <time>2020-07-29T12:09:02.846Z</time>
      </trkpt>
      <trkpt lat="61.94869" lon="5.4757">
        <ele>142.532113</ele>
        <time>2020-07-29T12:09:08.862Z</time>
      </trkpt>
      <trkpt lat="61.94871" lon="5.47588">
        <ele>142.942805</ele>
        <time>2020-07-29T12:09:13.878Z</time>
      </trkpt>
      <trkpt lat="61.94874" lon="5.47609">
        <ele>143.403954</ele>
        <time>2020-07-29T12:09:19.846Z</time>
      </trkpt>
      <trkpt lat="61.94877" lon="5.47627">
        <ele>143.838415</ele>
        <time>2020-07-29T12:09:25.819Z</time>
      </trkpt>
      <trkpt lat="61.94881" lon="5.47646">
        <ele>144.269756</ele>
        <time>2020-07-29T12:09:31.835Z</time>
      </trkpt>
      <trkpt lat="61.94885" lon="5.47665">
        <ele>144.712248</ele>
        <time>2020-07-29T12:09:37.837Z</time>
      </trkpt>
      <trkpt lat="61.94888" lon="5.47685">
        <ele>145.170024</ele>
        <time>2020-07-29T12:09:43.828Z</time>
      </trkpt>
      <trkpt lat="61.94892" lon="5.47706">
        <ele>145.644327</ele>
        <time>2020-07-29T12:09:50.862Z</time>
      </trkpt>
      <trkpt lat="61.94894" lon="5.47727">
        <ele>146.105314</ele>
        <time>2020-07-29T12:09:57.846Z</time>
      </trkpt>
      <trkpt lat="61.94896" lon="5.47746">
        <ele>146.540481</ele>
        <time>2020-07-29T12:10:03.823Z</time>
      </trkpt>
      <trkpt lat="61.94901" lon="5.47763">
        <ele>146.964918</ele>
        <time>2020-07-29T12:10:08.823Z</time>
      </trkpt>
      <trkpt lat="61.94909" lon="5.47777">
        <ele>147.433074</ele>
        <time>2020-07-29T12:10:14.843Z</time>
      </trkpt>
      <trkpt lat="61.94916" lon="5.47789">
        <ele>147.867656</ele>
        <time>2020-07-29T12:10:19.870Z</time>
      </trkpt>
      <trkpt lat="61.94925" lon="5.478">
        <ele>148.339465</ele>
        <time>2020-07-29T12:10:26.856Z</time>
      </trkpt>
      <trkpt lat="61.94933" lon="5.47813">
        <ele>148.78532</ele>
        <time>2020-07-29T12:10:33.844Z</time>
      </trkpt>
      <trkpt lat="61.9494" lon="5.47828">
        <ele>149.229485</ele>
        <time>2020-07-29T12:10:39.832Z</time>
      </trkpt>
      <trkpt lat="61.94944" lon="5.47845">
        <ele>149.703016</ele>
        <time>2020-07-29T12:10:46.819Z</time>
      </trkpt>
      <trkpt lat="61.94952" lon="5.4786">
        <ele>150.312382</ele>
        <time>2020-07-29T12:10:52.825Z</time>
      </trkpt>
      <trkpt lat="61.94958" lon="5.47877">
        <ele>150.940776</ele>
        <time>2020-07-29T12:10:57.836Z</time>
      </trkpt>
      <trkpt lat="61.94964" lon="5.47894">
        <ele>151.507829</ele>
        <time>2020-07-29T12:11:02.837Z</time>
      </trkpt>
      <trkpt lat="61.94969" lon="5.47913">
        <ele>152.127939</ele>
        <time>2020-07-29T12:11:10.833Z</time>
      </trkpt>
      <trkpt lat="61.94973" lon="5.47932">
        <ele>152.727818</ele>
        <time>2020-07-29T12:11:18.821Z</time>
      </trkpt>
      <trkpt lat="61.94979" lon="5.4795">
        <ele>153.319723</ele>
        <time>2020-07-29T12:11:23.824Z</time>
      </trkpt>
      <trkpt lat="61.94983" lon="5.47969">
        <ele>153.914661</ele>
        <time>2020-07-29T12:11:30.833Z</time>
      </trkpt>
      <trkpt lat="61.94987" lon="5.47987">
        <ele>154.495013</ele>
        <time>2020-07-29T12:11:35.872Z</time>
      </trkpt>
      <trkpt lat="61.94994" lon="5.48001">
        <ele>155.068675</ele>
        <time>2020-07-29T12:11:39.836Z</time>
      </trkpt>
      <trkpt lat="61.95002" lon="5.48016">
        <ele>155.677393</ele>
        <time>2020-07-29T12:11:43.825Z</time>
      </trkpt>
      <trkpt lat="61.95009" lon="5.48029">
        <ele>156.248704</ele>
        <time>2020-07-29T12:11:47.836Z</time>
      </trkpt>
      <trkpt lat="61.95016" lon="5.48042">
        <ele>156.826383</ele>
        <time>2020-07-29T12:11:51.828Z</time>
      </trkpt>
      <trkpt lat="61.95023" lon="5.48054">
        <ele>157.386553</ele>
        <time>2020-07-29T12:11:55.846Z</time>
      </trkpt>
      <trkpt lat="61.95029" lon="5.4807">
        <ele>157.940149</ele>
        <time>2020-07-29T12:12:01.831Z</time>
      </trkpt>
      <trkpt lat="61.95036" lon="5.48083">
        <ele>158.505852</ele>
        <time>2020-07-29T12:12:08.829Z</time>
      </trkpt>
      <trkpt lat="61.95043" lon="5.48096">
        <ele>159.076084</ele>
        <time>2020-07-29T12:12:14.846Z</time>
      </trkpt>
      <trkpt lat="61.95051" lon="5.4811">
        <ele>159.661977</ele>
        <time>2020-07-29T12:12:21.820Z</time>
      </trkpt>
      <trkpt lat="61.95059" lon="5.4812">
        <ele>160.213455</ele>
        <time>2020-07-29T12:12:25.837Z</time>
      </trkpt>
      <trkpt lat="61.95067" lon="5.48129">
        <ele>160.500908</ele>
        <time>2020-07-29T12:12:29.836Z</time>
      </trkpt>
      <trkpt lat="61.95077" lon="5.48136">
        <ele>160.798674</ele>
        <time>2020-07-29T12:12:34.823Z</time>
      </trkpt>
      <trkpt lat="61.95087" lon="5.48139">
        <ele>161.0733</ele>
        <time>2020-07-29T12:12:39.832Z</time>
      </trkpt>
      <trkpt lat="61.95097" lon="5.48141">
        <ele>161.347584</ele>
        <time>2020-07-29T12:12:44.835Z</time>
      </trkpt>
      <trkpt lat="61.95108" lon="5.48145">
        <ele>161.653662</ele>
        <time>2020-07-29T12:12:49.853Z</time>
      </trkpt>
      <trkpt lat="61.95117" lon="5.48147">
        <ele>161.916719</ele>
        <time>2020-07-29T12:12:53.828Z</time>
      </trkpt>
      <trkpt lat="61.95127" lon="5.48147">
        <ele>162.17312</ele>
        <time>2020-07-29T12:12:59.847Z</time>
      </trkpt>
      <trkpt lat="61.95136" lon="5.48148">
        <ele>162.429979</ele>
        <time>2020-07-29T12:13:06.893Z</time>
      </trkpt>
      <trkpt lat="61.95145" lon="5.48152">
        <ele>162.682179</ele>
        <time>2020-07-29T12:13:12.825Z</time>
      </trkpt>
      <trkpt lat="61.95156" lon="5.48156">
        <ele>162.993551</ele>
        <time>2020-07-29T12:13:19.827Z</time>
      </trkpt>
      <trkpt lat="61.95166" lon="5.48161">
        <ele>163.262671</ele>
        <time>2020-07-29T12:13:24.821Z</time>
      </trkpt>
      <trkpt lat="61.95176" lon="5.48165">
        <ele>163.546638</ele>
        <time>2020-07-29T12:13:31.835Z</time>
      </trkpt>
      <trkpt lat="61.95186" lon="5.48171">
        <ele>163.854045</ele>
        <time>2020-07-29T12:13:36.851Z</time>
      </trkpt>
      <trkpt lat="61.95196" lon="5.48179">
        <ele>164.127791</ele>
        <time>2020-07-29T12:13:41.832Z</time>
      </trkpt>
      <trkpt lat="61.95204" lon="5.48185">
        <ele>164.376376</ele>
        <time>2020-07-29T12:13:48.815Z</time>
      </trkpt>
      <trkpt lat="61.95215" lon="5.48194">
        <ele>164.690553</ele>
        <time>2020-07-29T12:13:53.839Z</time>
      </trkpt>
      <trkpt lat="61.95225" lon="5.48204">
        <ele>164.990514</ele>
        <time>2020-07-29T12:13:57.814Z</time>
      </trkpt>
      <trkpt lat="61.95233" lon="5.48215">
        <ele>165.302358</ele>
        <time>2020-07-29T12:14:01.826Z</time>
      </trkpt>
      <trkpt lat="61.95242" lon="5.48225">
        <ele>165.886105</ele>
        <time>2020-07-29T12:14:06.834Z</time>
      </trkpt>
      <trkpt lat="61.95251" lon="5.48235">
        <ele>166.528114</ele>
        <time>2020-07-29T12:14:11.836Z</time>
      </trkpt>
      <trkpt lat="61.95259" lon="5.48246">
        <ele>167.075533</ele>
        <time>2020-07-29T12:14:16.825Z</time>
      </trkpt>
      <trkpt lat="61.95266" lon="5.48258">
        <ele>167.623812</ele>
        <time>2020-07-29T12:14:23.839Z</time>
      </trkpt>
      <trkpt lat="61.95273" lon="5.48272">
        <ele>168.188491</ele>
        <time>2020-07-29T12:14:30.858Z</time>
      </trkpt>
      <trkpt lat="61.9528" lon="5.48284">
        <ele>168.74843</ele>
        <time>2020-07-29T12:14:35.864Z</time>
      </trkpt>
      <trkpt lat="61.9529" lon="5.48298">
        <ele>169.450361</ele>
        <time>2020-07-29T12:14:39.845Z</time>
      </trkpt>
      <trkpt lat="61.95298" lon="5.4831">
        <ele>170.039937</ele>
        <time>2020-07-29T12:14:43.838Z</time>
      </trkpt>
      <trkpt lat="61.95307" lon="5.48325">
        <ele>170.676119</ele>
        <time>2020-07-29T12:14:48.840Z</time>
      </trkpt>
      <trkpt lat="61.95314" lon="5.4834">
        <ele>171.302617</ele>
        <time>2020-07-29T12:14:53.828Z</time>
      </trkpt>
      <trkpt lat="61.95321" lon="5.48357">
        <ele>171.924838</ele>
        <time>2020-07-29T12:14:59.828Z</time>
      </trkpt>
      <trkpt lat="61.95326" lon="5.48373">
        <ele>172.464425</ele>
        <time>2020-07-29T12:15:05.815Z</time>
      </trkpt>
      <trkpt lat="61.95331" lon="5.48389">
        <ele>172.997494</ele>
        <time>2020-07-29T12:15:10.847Z</time>
      </trkpt>
      <trkpt lat="61.95334" lon="5.4841">
        <ele>173.61159</ele>
        <time>2020-07-29T12:15:16.821Z</time>
      </trkpt>
      <trkpt lat="61.95342" lon="5.48424">
        <ele>174.201734</ele>
        <time>2020-07-29T12:15:22.829Z</time>
      </trkpt>
      <trkpt lat="61.9535" lon="5.48437">
        <ele>174.823703</ele>
        <time>2020-07-29T12:15:28.847Z</time>
      </trkpt>
      <trkpt lat="61.9536" lon="5.48448">
        <ele>175.473352</ele>
        <time>2020-07-29T12:15:34.821Z</time>
      </trkpt>
      <trkpt lat="61.95368" lon="5.48459">
        <ele>175.93131</ele>
        <time>2020-07-29T12:15:39.848Z</time>
      </trkpt>
      <trkpt lat="61.95376" lon="5.48472">
        <ele>175.883278</ele>
        <time>2020-07-29T12:15:44.835Z</time>
      </trkpt>
      <trkpt lat="61.95385" lon="5.48485">
        <ele>175.829453</ele>
        <time>2020-07-29T12:15:49.832Z</time>
      </trkpt>
      <trkpt lat="61.95394" lon="5.48498">
        <ele>175.777217</ele>
        <time>2020-07-29T12:15:54.825Z</time>
      </trkpt>
      <trkpt lat="61.954" lon="5.48512">
        <ele>175.732294</ele>
        <time>2020-07-29T12:15:59.842Z</time>
      </trkpt>
      <trkpt lat="61.95408" lon="5.48526">
        <ele>175.685784</ele>
        <time>2020-07-29T12:16:04.821Z</time>
      </trkpt>
      <trkpt lat="61.95413" lon="5.48543">
        <ele>175.636871</ele>
        <time>2020-07-29T12:16:09.863Z</time>
      </trkpt>
      <trkpt lat="61.95418" lon="5.48563">
        <ele>175.587171</ele>
        <time>2020-07-29T12:16:14.828Z</time>
      </trkpt>
      <trkpt lat="61.95423" lon="5.48582">
        <ele>175.537672</ele>
        <time>2020-07-29T12:16:19.863Z</time>
      </trkpt>
      <trkpt lat="61.95428" lon="5.48603">
        <ele>175.485376</ele>
        <time>2020-07-29T12:16:24.840Z</time>
      </trkpt>
      <trkpt lat="61.95432" lon="5.48622">
        <ele>175.436784</ele>
        <time>2020-07-29T12:16:29.823Z</time>
      </trkpt>
      <trkpt lat="61.95435" lon="5.48642">
        <ele>175.388402</ele>
        <time>2020-07-29T12:16:35.839Z</time>
      </trkpt>
      <trkpt lat="61.9544" lon="5.48663">
        <ele>175.33463</ele>
        <time>2020-07-29T12:16:40.821Z</time>
      </trkpt>
      <trkpt lat="61.95446" lon="5.48684">
        <ele>175.281061</ele>
        <time>2020-07-29T12:16:44.829Z</time>
      </trkpt>
      <trkpt lat="61.95451" lon="5.48703">
        <ele>175.228938</ele>
        <time>2020-07-29T12:16:48.823Z</time>
      </trkpt>
      <trkpt lat="61.95456" lon="5.48726">
        <ele>175.172527</ele>
        <time>2020-07-29T12:16:52.827Z</time>
      </trkpt>
      <trkpt lat="61.95461" lon="5.48748">
        <ele>175.118174</ele>
        <time>2020-07-29T12:16:56.833Z</time>
      </trkpt>
      <trkpt lat="61.95465" lon="5.4877">
        <ele>175.077568</ele>
        <time>2020-07-29T12:17:00.843Z</time>
      </trkpt>
      <trkpt lat="61.9547" lon="5.48789">
        <ele>175.141605</ele>
        <time>2020-07-29T12:17:04.844Z</time>
      </trkpt>
      <trkpt lat="61.95475" lon="5.48811">
        <ele>175.209803</ele>
        <time>2020-07-29T12:17:08.843Z</time>
      </trkpt>
      <trkpt lat="61.9548" lon="5.48832">
        <ele>175.278261</ele>
        <time>2020-07-29T12:17:12.834Z</time>
      </trkpt>
      <trkpt lat="61.95484" lon="5.48854">
        <ele>175.346706</ele>
        <time>2020-07-29T12:17:16.819Z</time>
      </trkpt>
      <trkpt lat="61.95489" lon="5.48874">
        <ele>175.411244</ele>
        <time>2020-07-29T12:17:20.853Z</time>
      </trkpt>
      <trkpt lat="61.95493" lon="5.48894">
        <ele>175.473448</ele>
        <time>2020-07-29T12:17:24.836Z</time>
      </trkpt>
      <trkpt lat="61.95499" lon="5.48915">
        <ele>175.544082</ele>
        <time>2020-07-29T12:17:28.816Z</time>
      </trkpt>
      <trkpt lat="61.95504" lon="5.48937">
        <ele>175.614717</ele>
        <time>2020-07-29T12:17:32.844Z</time>
      </trkpt>
      <trkpt lat="61.95509" lon="5.48953">
        <ele>175.669876</ele>
        <time>2020-07-29T12:17:35.841Z</time>
      </trkpt>
      <trkpt lat="61.95514" lon="5.4897">
        <ele>175.727378</ele>
        <time>2020-07-29T12:17:38.820Z</time>
      </trkpt>
      <trkpt lat="61.9552" lon="5.48986">
        <ele>175.786302</ele>
        <time>2020-07-29T12:17:41.831Z</time>
      </trkpt>
      <trkpt lat="61.95526" lon="5.49001">
        <ele>175.841984</ele>
        <time>2020-07-29T12:17:44.858Z</time>
      </trkpt>
      <trkpt lat="61.95533" lon="5.49017">
        <ele>175.903992</ele>
        <time>2020-07-29T12:17:47.858Z</time>
      </trkpt>
      <trkpt lat="61.9554" lon="5.49032">
        <ele>175.966012</ele>
        <time>2020-07-29T12:17:50.829Z</time>
      </trkpt>
      <trkpt lat="61.95548" lon="5.49046">
        <ele>176.029126</ele>
        <time>2020-07-29T12:17:53.848Z</time>
      </trkpt>
      <trkpt lat="61.95556" lon="5.49058">
        <ele>176.088831</ele>
        <time>2020-07-29T12:17:56.828Z</time>
      </trkpt>
      <trkpt lat="61.95564" lon="5.49069">
        <ele>176.146422</ele>
        <time>2020-07-29T12:17:59.844Z</time>
      </trkpt>
      <trkpt lat="61.95572" lon="5.49078">
        <ele>176.258842</ele>
        <time>2020-07-29T12:18:02.852Z</time>
      </trkpt>
      <trkpt lat="61.95581" lon="5.49092">
        <ele>176.438149</ele>
        <time>2020-07-29T12:18:06.872Z</time>
      </trkpt>
      <trkpt lat="61.95589" lon="5.49106">
        <ele>176.613501</ele>
        <time>2020-07-29T12:18:10.875Z</time>
      </trkpt>
      <trkpt lat="61.95597" lon="5.49118">
        <ele>176.773567</ele>
        <time>2020-07-29T12:18:13.820Z</time>
      </trkpt>
      <trkpt lat="61.95605" lon="5.49129">
        <ele>176.92292</ele>
        <time>2020-07-29T12:18:16.820Z</time>
      </trkpt>
      <trkpt lat="61.95612" lon="5.49139">
        <ele>177.073065</ele>
        <time>2020-07-29T12:18:19.856Z</time>
      </trkpt>
      <trkpt lat="61.9562" lon="5.4915">
        <ele>177.223296</ele>
        <time>2020-07-29T12:18:22.825Z</time>
      </trkpt>
      <trkpt lat="61.9563" lon="5.49164">
        <ele>177.415603</ele>
        <time>2020-07-29T12:18:26.833Z</time>
      </trkpt>
      <trkpt lat="61.95638" lon="5.49174">
        <ele>177.569982</ele>
        <time>2020-07-29T12:18:29.836Z</time>
      </trkpt>
      <trkpt lat="61.95646" lon="5.49186">
        <ele>177.732333</ele>
        <time>2020-07-29T12:18:32.845Z</time>
      </trkpt>
      <trkpt lat="61.95654" lon="5.49197">
        <ele>177.887503</ele>
        <time>2020-07-29T12:18:35.822Z</time>
      </trkpt>
      <trkpt lat="61.95661" lon="5.49208">
        <ele>178.037326</ele>
        <time>2020-07-29T12:18:38.837Z</time>
      </trkpt>
      <trkpt lat="61.95668" lon="5.4922">
        <ele>178.186775</ele>
        <time>2020-07-29T12:18:41.835Z</time>
      </trkpt>
      <trkpt lat="61.95676" lon="5.49232">
        <ele>178.337919</ele>
        <time>2020-07-29T12:18:44.822Z</time>
      </trkpt>
      <trkpt lat="61.95683" lon="5.49243">
        <ele>178.491795</ele>
        <time>2020-07-29T12:18:47.819Z</time>
      </trkpt>
      <trkpt lat="61.95691" lon="5.49254">
        <ele>178.644257</ele>
        <time>2020-07-29T12:18:50.851Z</time>
      </trkpt>
      <trkpt lat="61.95701" lon="5.49267">
        <ele>178.840568</ele>
        <time>2020-07-29T12:18:54.822Z</time>
      </trkpt>
      <trkpt lat="61.95709" lon="5.49278">
        <ele>178.988565</ele>
        <time>2020-07-29T12:18:57.834Z</time>
      </trkpt>
      <trkpt lat="61.95718" lon="5.49291">
        <ele>179.244671</ele>
        <time>2020-07-29T12:19:01.833Z</time>
      </trkpt>
      <trkpt lat="61.95726" lon="5.49303">
        <ele>179.712878</ele>
        <time>2020-07-29T12:19:05.833Z</time>
      </trkpt>
      <trkpt lat="61.95736" lon="5.49313">
        <ele>180.198769</ele>
        <time>2020-07-29T12:19:09.827Z</time>
      </trkpt>
      <trkpt lat="61.95745" lon="5.49326">
        <ele>180.699078</ele>
        <time>2020-07-29T12:19:14.840Z</time>
      </trkpt>
      <trkpt lat="61.95753" lon="5.49336">
        <ele>181.13443</ele>
        <time>2020-07-29T12:19:19.823Z</time>
      </trkpt>
      <trkpt lat="61.9584" lon="5.49385">
        <ele>185.260689</ele>
        <time>2020-07-29T12:24:16.815Z</time>
      </trkpt>
      <trkpt lat="61.9585" lon="5.49386">
        <ele>185.695655</ele>
        <time>2020-07-29T12:24:20.860Z</time>
      </trkpt>
      <trkpt lat="61.95861" lon="5.49385">
        <ele>186.180991</ele>
        <time>2020-07-29T12:24:25.838Z</time>
      </trkpt>
      <trkpt lat="61.9587" lon="5.49384">
        <ele>186.611477</ele>
        <time>2020-07-29T12:24:29.838Z</time>
      </trkpt>
      <trkpt lat="61.95879" lon="5.49384">
        <ele>187.046124</ele>
        <time>2020-07-29T12:24:33.827Z</time>
      </trkpt>
      <trkpt lat="61.9589" lon="5.49388">
        <ele>187.204937</ele>
        <time>2020-07-29T12:24:37.821Z</time>
      </trkpt>
      <trkpt lat="61.959" lon="5.49392">
        <ele>186.73314</ele>
        <time>2020-07-29T12:24:42.857Z</time>
      </trkpt>
      <trkpt lat="61.95911" lon="5.49399">
        <ele>186.273863</ele>
        <time>2020-07-29T12:24:46.851Z</time>
      </trkpt>
      <trkpt lat="61.9592" lon="5.49406">
        <ele>185.864266</ele>
        <time>2020-07-29T12:24:50.836Z</time>
      </trkpt>
      <trkpt lat="61.95929" lon="5.49415">
        <ele>185.437824</ele>
        <time>2020-07-29T12:24:53.841Z</time>
      </trkpt>
      <trkpt lat="61.95938" lon="5.49421">
        <ele>185.027104</ele>
        <time>2020-07-29T12:24:56.845Z</time>
      </trkpt>
      <trkpt lat="61.95947" lon="5.49425">
        <ele>184.611529</ele>
        <time>2020-07-29T12:24:59.830Z</time>
      </trkpt>
      <trkpt lat="61.95957" lon="5.4943">
        <ele>184.20803</ele>
        <time>2020-07-29T12:25:02.842Z</time>
      </trkpt>
      <trkpt lat="61.95965" lon="5.49435">
        <ele>183.816068</ele>
        <time>2020-07-29T12:25:05.836Z</time>
      </trkpt>
      <trkpt lat="61.95975" lon="5.49444">
        <ele>183.357392</ele>
        <time>2020-07-29T12:25:09.837Z</time>
      </trkpt>
      <trkpt lat="61.95985" lon="5.49454">
        <ele>182.880363</ele>
        <time>2020-07-29T12:25:13.825Z</time>
      </trkpt>
      <trkpt lat="61.95994" lon="5.49462">
        <ele>182.47444</ele>
        <time>2020-07-29T12:25:16.831Z</time>
      </trkpt>
      <trkpt lat="61.96004" lon="5.49474">
        <ele>181.973281</ele>
        <time>2020-07-29T12:25:20.838Z</time>
      </trkpt>
      <trkpt lat="61.96014" lon="5.49489">
        <ele>181.475843</ele>
        <time>2020-07-29T12:25:24.820Z</time>
      </trkpt>
      <trkpt lat="61.96022" lon="5.495">
        <ele>181.074723</ele>
        <time>2020-07-29T12:25:27.858Z</time>
      </trkpt>
      <trkpt lat="61.96029" lon="5.49512">
        <ele>180.666234</ele>
        <time>2020-07-29T12:25:30.828Z</time>
      </trkpt>
      <trkpt lat="61.96036" lon="5.49525">
        <ele>180.266939</ele>
        <time>2020-07-29T12:25:33.865Z</time>
      </trkpt>
      <trkpt lat="61.96043" lon="5.49538">
        <ele>179.867105</ele>
        <time>2020-07-29T12:25:36.824Z</time>
      </trkpt>
      <trkpt lat="61.96051" lon="5.49551">
        <ele>179.594721</ele>
        <time>2020-07-29T12:25:39.845Z</time>
      </trkpt>
      <trkpt lat="61.96059" lon="5.49566">
        <ele>179.413588</ele>
        <time>2020-07-29T12:25:43.882Z</time>
      </trkpt>
      <trkpt lat="61.96067" lon="5.49586">
        <ele>179.230486</ele>
        <time>2020-07-29T12:25:47.840Z</time>
      </trkpt>
      <trkpt lat="61.96072" lon="5.49601">
        <ele>179.085936</ele>
        <time>2020-07-29T12:25:50.837Z</time>
      </trkpt>
      <trkpt lat="61.96078" lon="5.49617">
        <ele>178.939835</ele>
        <time>2020-07-29T12:25:53.835Z</time>
      </trkpt>
      <trkpt lat="61.96084" lon="5.49633">
        <ele>178.793378</ele>
        <time>2020-07-29T12:25:56.846Z</time>
      </trkpt>
      <trkpt lat="61.96089" lon="5.49648">
        <ele>178.651742</ele>
        <time>2020-07-29T12:25:59.846Z</time>
      </trkpt>
      <trkpt lat="61.96094" lon="5.49664">
        <ele>178.510054</ele>
        <time>2020-07-29T12:26:02.827Z</time>
      </trkpt>
      <trkpt lat="61.96099" lon="5.49682">
        <ele>178.361272</ele>
        <time>2020-07-29T12:26:05.848Z</time>
      </trkpt>
      <trkpt lat="61.96103" lon="5.49701">
        <ele>178.200977</ele>
        <time>2020-07-29T12:26:08.826Z</time>
      </trkpt>
      <trkpt lat="61.96108" lon="5.49719">
        <ele>178.047938</ele>
        <time>2020-07-29T12:26:11.872Z</time>
      </trkpt>
      <trkpt lat="61.96112" lon="5.4974">
        <ele>177.881671</ele>
        <time>2020-07-29T12:26:14.836Z</time>
      </trkpt>
      <trkpt lat="61.96115" lon="5.49762">
        <ele>177.714179</ele>
        <time>2020-07-29T12:26:17.839Z</time>
      </trkpt>
      <trkpt lat="61.96119" lon="5.49784">
        <ele>177.541172</ele>
        <time>2020-07-29T12:26:20.840Z</time>
      </trkpt>
      <trkpt lat="61.96123" lon="5.49807">
        <ele>177.3619</ele>
        <time>2020-07-29T12:26:23.861Z</time>
      </trkpt>
      <trkpt lat="61.96126" lon="5.49832">
        <ele>177.170112</ele>
        <time>2020-07-29T12:26:26.828Z</time>
      </trkpt>
      <trkpt lat="61.96129" lon="5.49858">
        <ele>176.975126</ele>
        <time>2020-07-29T12:26:29.858Z</time>
      </trkpt>
      <trkpt lat="61.96131" lon="5.49883">
        <ele>176.889304</ele>
        <time>2020-07-29T12:26:32.844Z</time>
      </trkpt>
      <trkpt lat="61.96132" lon="5.49909">
        <ele>177.023056</ele>
        <time>2020-07-29T12:26:35.846Z</time>
      </trkpt>
      <trkpt lat="61.96134" lon="5.49933">
        <ele>177.15093</ele>
        <time>2020-07-29T12:26:38.839Z</time>
      </trkpt>
      <trkpt lat="61.96135" lon="5.49957">
        <ele>177.27446</ele>
        <time>2020-07-29T12:26:41.831Z</time>
      </trkpt>
      <trkpt lat="61.96136" lon="5.49983">
        <ele>177.408603</ele>
        <time>2020-07-29T12:26:44.886Z</time>
      </trkpt>
      <trkpt lat="61.96138" lon="5.50008">
        <ele>177.538526</ele>
        <time>2020-07-29T12:26:47.856Z</time>
      </trkpt>
      <trkpt lat="61.9614" lon="5.50033">
        <ele>177.673697</ele>
        <time>2020-07-29T12:26:50.826Z</time>
      </trkpt>
      <trkpt lat="61.96143" lon="5.50059">
        <ele>177.809453</ele>
        <time>2020-07-29T12:26:53.827Z</time>
      </trkpt>
      <trkpt lat="61.96144" lon="5.50088">
        <ele>177.958409</ele>
        <time>2020-07-29T12:26:56.823Z</time>
      </trkpt>
      <trkpt lat="61.96147" lon="5.50116">
        <ele>178.106619</ele>
        <time>2020-07-29T12:26:59.843Z</time>
      </trkpt>
      <trkpt lat="61.96149" lon="5.50135">
        <ele>178.209788</ele>
        <time>2020-07-29T12:27:01.849Z</time>
      </trkpt>
      <trkpt lat="61.96152" lon="5.50154">
        <ele>178.311248</ele>
        <time>2020-07-29T12:27:03.845Z</time>
      </trkpt>
      <trkpt lat="61.96155" lon="5.50172">
        <ele>178.409978</ele>
        <time>2020-07-29T12:27:05.859Z</time>
      </trkpt>
      <trkpt lat="61.9616" lon="5.50198">
        <ele>178.554469</ele>
        <time>2020-07-29T12:27:08.851Z</time>
      </trkpt>
      <trkpt lat="61.96165" lon="5.50222">
        <ele>178.690616</ele>
        <time>2020-07-29T12:27:11.836Z</time>
      </trkpt>
      <trkpt lat="61.96171" lon="5.50244">
        <ele>178.820347</ele>
        <time>2020-07-29T12:27:14.824Z</time>
      </trkpt>
      <trkpt lat="61.96177" lon="5.50266">
        <ele>178.800475</ele>
        <time>2020-07-29T12:27:17.879Z</time>
      </trkpt>
      <trkpt lat="61.96184" lon="5.50288">
        <ele>178.774212</ele>
        <time>2020-07-29T12:27:20.847Z</time>
      </trkpt>
      <trkpt lat="61.96192" lon="5.50308">
        <ele>178.749211</ele>
        <time>2020-07-29T12:27:23.846Z</time>
      </trkpt>
      <trkpt lat="61.96199" lon="5.50326">
        <ele>178.72524</ele>
        <time>2020-07-29T12:27:26.828Z</time>
      </trkpt>
      <trkpt lat="61.96207" lon="5.50344">
        <ele>178.701994</ele>
        <time>2020-07-29T12:27:29.832Z</time>
      </trkpt>
      <trkpt lat="61.96214" lon="5.50362">
        <ele>178.67876</ele>
        <time>2020-07-29T12:27:32.823Z</time>
      </trkpt>
      <trkpt lat="61.96222" lon="5.50378">
        <ele>178.65608</ele>
        <time>2020-07-29T12:27:35.840Z</time>
      </trkpt>
      <trkpt lat="61.9623" lon="5.50393">
        <ele>178.633807</ele>
        <time>2020-07-29T12:27:38.862Z</time>
      </trkpt>
      <trkpt lat="61.96239" lon="5.50408">
        <ele>178.611173</ele>
        <time>2020-07-29T12:27:41.837Z</time>
      </trkpt>
      <trkpt lat="61.96246" lon="5.50421">
        <ele>178.591227</ele>
        <time>2020-07-29T12:27:44.828Z</time>
      </trkpt>
      <trkpt lat="61.96254" lon="5.50433">
        <ele>178.571039</ele>
        <time>2020-07-29T12:27:47.847Z</time>
      </trkpt>
      <trkpt lat="61.96262" lon="5.50445">
        <ele>178.551172</ele>
        <time>2020-07-29T12:27:50.827Z</time>
      </trkpt>
      <trkpt lat="61.96271" lon="5.50459">
        <ele>178.526985</ele>
        <time>2020-07-29T12:27:54.852Z</time>
      </trkpt>
      <trkpt lat="61.96279" lon="5.50469">
        <ele>178.507973</ele>
        <time>2020-07-29T12:27:57.835Z</time>
      </trkpt>
      <trkpt lat="61.96288" lon="5.50478">
        <ele>178.488573</ele>
        <time>2020-07-29T12:28:00.837Z</time>
      </trkpt>
      <trkpt lat="61.96296" lon="5.50489">
        <ele>178.467741</ele>
        <time>2020-07-29T12:28:03.838Z</time>
      </trkpt>
      <trkpt lat="61.96307" lon="5.50499">
        <ele>178.437902</ele>
        <time>2020-07-29T12:28:07.839Z</time>
      </trkpt>
      <trkpt lat="61.96316" lon="5.50507">
        <ele>178.399584</ele>
        <time>2020-07-29T12:28:10.838Z</time>
      </trkpt>
      <trkpt lat="61.96325" lon="5.50515">
        <ele>178.362408</ele>
        <time>2020-07-29T12:28:13.875Z</time>
      </trkpt>
      <trkpt lat="61.96334" lon="5.50522">
        <ele>178.32579</ele>
        <time>2020-07-29T12:28:16.847Z</time>
      </trkpt>
      <trkpt lat="61.96343" lon="5.5053">
        <ele>178.287784</ele>
        <time>2020-07-29T12:28:19.826Z</time>
      </trkpt>
      <trkpt lat="61.96353" lon="5.50537">
        <ele>178.248642</ele>
        <time>2020-07-29T12:28:22.860Z</time>
      </trkpt>
      <trkpt lat="61.96362" lon="5.50545">
        <ele>178.210696</ele>
        <time>2020-07-29T12:28:25.849Z</time>
      </trkpt>
      <trkpt lat="61.96371" lon="5.50554">
        <ele>178.173308</ele>
        <time>2020-07-29T12:28:28.832Z</time>
      </trkpt>
      <trkpt lat="61.96381" lon="5.50562">
        <ele>178.132893</ele>
        <time>2020-07-29T12:28:31.839Z</time>
      </trkpt>
      <trkpt lat="61.96391" lon="5.50572">
        <ele>178.091699</ele>
        <time>2020-07-29T12:28:34.839Z</time>
      </trkpt>
      <trkpt lat="61.964" lon="5.50581">
        <ele>178.053399</ele>
        <time>2020-07-29T12:28:37.863Z</time>
      </trkpt>
      <trkpt lat="61.9641" lon="5.5059">
        <ele>178.012793</ele>
        <time>2020-07-29T12:28:40.855Z</time>
      </trkpt>
      <trkpt lat="61.9642" lon="5.506">
        <ele>177.968535</ele>
        <time>2020-07-29T12:28:43.844Z</time>
      </trkpt>
      <trkpt lat="61.9643" lon="5.50611">
        <ele>177.926713</ele>
        <time>2020-07-29T12:28:46.832Z</time>
      </trkpt>
      <trkpt lat="61.96439" lon="5.5062">
        <ele>177.888537</ele>
        <time>2020-07-29T12:28:49.841Z</time>
      </trkpt>
      <trkpt lat="61.9645" lon="5.50629">
        <ele>177.844541</ele>
        <time>2020-07-29T12:28:52.828Z</time>
      </trkpt>
      <trkpt lat="61.96461" lon="5.50638">
        <ele>177.80077</ele>
        <time>2020-07-29T12:28:55.843Z</time>
      </trkpt>
      <trkpt lat="61.96471" lon="5.50647">
        <ele>177.778559</ele>
        <time>2020-07-29T12:28:58.846Z</time>
      </trkpt>
      <trkpt lat="61.96482" lon="5.50656">
        <ele>177.826173</ele>
        <time>2020-07-29T12:29:01.846Z</time>
      </trkpt>
      <trkpt lat="61.96493" lon="5.50665">
        <ele>177.873545</ele>
        <time>2020-07-29T12:29:04.873Z</time>
      </trkpt>
      <trkpt lat="61.96505" lon="5.50674">
        <ele>177.921699</ele>
        <time>2020-07-29T12:29:07.817Z</time>
      </trkpt>
      <trkpt lat="61.96515" lon="5.50684">
        <ele>177.967724</ele>
        <time>2020-07-29T12:29:10.830Z</time>
      </trkpt>
      <trkpt lat="61.96526" lon="5.50693">
        <ele>178.014558</ele>
        <time>2020-07-29T12:29:13.856Z</time>
      </trkpt>
      <trkpt lat="61.96538" lon="5.50702">
        <ele>178.06261</ele>
        <time>2020-07-29T12:29:16.848Z</time>
      </trkpt>
      <trkpt lat="61.96549" lon="5.50712">
        <ele>178.112964</ele>
        <time>2020-07-29T12:29:19.843Z</time>
      </trkpt>
      <trkpt lat="61.9656" lon="5.50721">
        <ele>178.16027</ele>
        <time>2020-07-29T12:29:22.854Z</time>
      </trkpt>
      <trkpt lat="61.96571" lon="5.50729">
        <ele>178.206691</ele>
        <time>2020-07-29T12:29:25.844Z</time>
      </trkpt>
      <trkpt lat="61.96582" lon="5.50738">
        <ele>178.252048</ele>
        <time>2020-07-29T12:29:28.848Z</time>
      </trkpt>
      <trkpt lat="61.96592" lon="5.50746">
        <ele>178.295227</ele>
        <time>2020-07-29T12:29:31.877Z</time>
      </trkpt>
      <trkpt lat="61.96602" lon="5.50755">
        <ele>178.336852</ele>
        <time>2020-07-29T12:29:34.860Z</time>
      </trkpt>
      <trkpt lat="61.96611" lon="5.50763">
        <ele>178.377291</ele>
        <time>2020-07-29T12:29:37.840Z</time>
      </trkpt>
      <trkpt lat="61.9662" lon="5.50772">
        <ele>178.417878</ele>
        <time>2020-07-29T12:29:40.852Z</time>
      </trkpt>
      <trkpt lat="61.9663" lon="5.5078">
        <ele>178.461057</ele>
        <time>2020-07-29T12:29:43.835Z</time>
      </trkpt>
      <trkpt lat="61.96641" lon="5.50788">
        <ele>178.777157</ele>
        <time>2020-07-29T12:29:46.832Z</time>
      </trkpt>
      <trkpt lat="61.96651" lon="5.50796">
        <ele>179.442912</ele>
        <time>2020-07-29T12:29:49.829Z</time>
      </trkpt>
      <trkpt lat="61.96661" lon="5.50803">
        <ele>180.09074</ele>
        <time>2020-07-29T12:29:52.824Z</time>
      </trkpt>
      <trkpt lat="61.96672" lon="5.50811">
        <ele>180.752695</ele>
        <time>2020-07-29T12:29:55.828Z</time>
      </trkpt>
      <trkpt lat="61.96682" lon="5.50818">
        <ele>181.372347</ele>
        <time>2020-07-29T12:29:58.868Z</time>
      </trkpt>
      <trkpt lat="61.96692" lon="5.50823">
        <ele>182.006306</ele>
        <time>2020-07-29T12:30:01.821Z</time>
      </trkpt>
      <trkpt lat="61.96701" lon="5.5083">
        <ele>182.618501</ele>
        <time>2020-07-29T12:30:04.840Z</time>
      </trkpt>
      <trkpt lat="61.96711" lon="5.50835">
        <ele>183.195133</ele>
        <time>2020-07-29T12:30:07.827Z</time>
      </trkpt>
      <trkpt lat="61.9672" lon="5.5084">
        <ele>183.763047</ele>
        <time>2020-07-29T12:30:10.886Z</time>
      </trkpt>
      <trkpt lat="61.96732" lon="5.50844">
        <ele>184.472168</ele>
        <time>2020-07-29T12:30:14.831Z</time>
      </trkpt>
      <trkpt lat="61.96743" lon="5.50846">
        <ele>185.143781</ele>
        <time>2020-07-29T12:30:18.826Z</time>
      </trkpt>
      <trkpt lat="61.96752" lon="5.50846">
        <ele>185.714976</ele>
        <time>2020-07-29T12:30:22.820Z</time>
      </trkpt>
      <trkpt lat="61.96761" lon="5.50846">
        <ele>186.262015</ele>
        <time>2020-07-29T12:30:26.840Z</time>
      </trkpt>
      <trkpt lat="61.96772" lon="5.50846">
        <ele>186.92943</ele>
        <time>2020-07-29T12:30:31.856Z</time>
      </trkpt>
      <trkpt lat="61.96784" lon="5.50849">
        <ele>187.612382</ele>
        <time>2020-07-29T12:30:36.843Z</time>
      </trkpt>
      <trkpt lat="61.96795" lon="5.50854">
        <ele>188.290377</ele>
        <time>2020-07-29T12:30:41.834Z</time>
      </trkpt>
      <trkpt lat="61.96805" lon="5.5086">
        <ele>188.93597</ele>
        <time>2020-07-29T12:30:46.836Z</time>
      </trkpt>
      <trkpt lat="61.96816" lon="5.50864">
        <ele>189.654762</ele>
        <time>2020-07-29T12:30:51.849Z</time>
      </trkpt>
      <trkpt lat="61.96825" lon="5.5087">
        <ele>190.427007</ele>
        <time>2020-07-29T12:30:56.889Z</time>
      </trkpt>
      <trkpt lat="61.96834" lon="5.50877">
        <ele>191.144868</ele>
        <time>2020-07-29T12:31:01.832Z</time>
      </trkpt>
      <trkpt lat="61.96844" lon="5.50883">
        <ele>191.931736</ele>
        <time>2020-07-29T12:31:06.818Z</time>
      </trkpt>
      <trkpt lat="61.96854" lon="5.50889">
        <ele>192.730018</ele>
        <time>2020-07-29T12:31:12.827Z</time>
      </trkpt>
      <trkpt lat="61.96863" lon="5.50894">
        <ele>193.441449</ele>
        <time>2020-07-29T12:31:17.847Z</time>
      </trkpt>
      <trkpt lat="61.96872" lon="5.50903">
        <ele>194.217321</ele>
        <time>2020-07-29T12:31:23.833Z</time>
      </trkpt>
      <trkpt lat="61.96882" lon="5.50913">
        <ele>195.034501</ele>
        <time>2020-07-29T12:31:30.835Z</time>
      </trkpt>
      <trkpt lat="61.9689" lon="5.50925">
        <ele>195.770552</ele>
        <time>2020-07-29T12:31:36.837Z</time>
      </trkpt>
      <trkpt lat="61.96897" lon="5.50938">
        <ele>196.496717</ele>
        <time>2020-07-29T12:31:43.843Z</time>
      </trkpt>
      <trkpt lat="61.96906" lon="5.50949">
        <ele>197.3275</ele>
        <time>2020-07-29T12:31:49.846Z</time>
      </trkpt>
      <trkpt lat="61.96914" lon="5.50961">
        <ele>198.098628</ele>
        <time>2020-07-29T12:31:54.837Z</time>
      </trkpt>
      <trkpt lat="61.96923" lon="5.50972">
        <ele>198.836976</ele>
        <time>2020-07-29T12:32:00.833Z</time>
      </trkpt>
      <trkpt lat="61.96931" lon="5.50981">
        <ele>199.571307</ele>
        <time>2020-07-29T12:32:06.829Z</time>
      </trkpt>
      <trkpt lat="61.9694" lon="5.50992">
        <ele>200.327786</ele>
        <time>2020-07-29T12:32:12.842Z</time>
      </trkpt>
      <trkpt lat="61.96948" lon="5.51004">
        <ele>201.128167</ele>
        <time>2020-07-29T12:32:20.828Z</time>
      </trkpt>
      <trkpt lat="61.96957" lon="5.51014">
        <ele>201.872602</ele>
        <time>2020-07-29T12:32:27.890Z</time>
      </trkpt>
      <trkpt lat="61.96965" lon="5.51022">
        <ele>202.559654</ele>
        <time>2020-07-29T12:32:34.847Z</time>
      </trkpt>
      <trkpt lat="61.96974" lon="5.51029">
        <ele>203.337692</ele>
        <time>2020-07-29T12:32:41.860Z</time>
      </trkpt>
      <trkpt lat="61.96982" lon="5.51038">
        <ele>204.136341</ele>
        <time>2020-07-29T12:32:50.839Z</time>
      </trkpt>
      <trkpt lat="61.96992" lon="5.51042">
        <ele>204.970175</ele>
        <time>2020-07-29T12:32:57.829Z</time>
      </trkpt>
      <trkpt lat="61.97001" lon="5.51044">
        <ele>205.781443</ele>
        <time>2020-07-29T12:33:04.862Z</time>
      </trkpt>
      <trkpt lat="61.9701" lon="5.51045">
        <ele>206.582203</ele>
        <time>2020-07-29T12:33:12.849Z</time>
      </trkpt>
      <trkpt lat="61.97019" lon="5.51044">
        <ele>207.383495</ele>
        <time>2020-07-29T12:33:20.845Z</time>
      </trkpt>
      <trkpt lat="61.97028" lon="5.51045">
        <ele>208.167414</ele>
        <time>2020-07-29T12:33:28.859Z</time>
      </trkpt>
      <trkpt lat="61.97038" lon="5.51047">
        <ele>209.026453</ele>
        <time>2020-07-29T12:33:37.822Z</time>
      </trkpt>
      <trkpt lat="61.97048" lon="5.51053">
        <ele>209.903984</ele>
        <time>2020-07-29T12:33:46.859Z</time>
      </trkpt>
      <trkpt lat="61.97057" lon="5.51059">
        <ele>210.711271</ele>
        <time>2020-07-29T12:33:53.843Z</time>
      </trkpt>
      <trkpt lat="61.97066" lon="5.51063">
        <ele>211.529728</ele>
        <time>2020-07-29T12:34:00.832Z</time>
      </trkpt>
      <trkpt lat="61.97076" lon="5.51065">
        <ele>212.362366</ele>
        <time>2020-07-29T12:34:09.871Z</time>
      </trkpt>
      <trkpt lat="61.97084" lon="5.51068">
        <ele>213.142711</ele>
        <time>2020-07-29T12:34:17.830Z</time>
      </trkpt>
      <trkpt lat="61.97093" lon="5.51071">
        <ele>213.934487</ele>
        <time>2020-07-29T12:34:25.872Z</time>
      </trkpt>
      <trkpt lat="61.97103" lon="5.51076">
        <ele>214.765715</ele>
        <time>2020-07-29T12:34:34.836Z</time>
      </trkpt>
      <trkpt lat="61.97112" lon="5.51082">
        <ele>215.589833</ele>
        <time>2020-07-29T12:34:41.851Z</time>
      </trkpt>
      <trkpt lat="61.9712" lon="5.5109">
        <ele>216.380629</ele>
        <time>2020-07-29T12:34:47.837Z</time>
      </trkpt>
      <trkpt lat="61.97129" lon="5.51094">
        <ele>217.207592</ele>
        <time>2020-07-29T12:34:54.853Z</time>
      </trkpt>
      <trkpt lat="61.97139" lon="5.51098">
        <ele>218.05158</ele>
        <time>2020-07-29T12:35:01.836Z</time>
      </trkpt>
      <trkpt lat="61.97147" lon="5.51106">
        <ele>218.798431</ele>
        <time>2020-07-29T12:35:09.821Z</time>
      </trkpt>
      <trkpt lat="61.97157" lon="5.5111">
        <ele>219.324196</ele>
        <time>2020-07-29T12:35:17.837Z</time>
      </trkpt>
      <trkpt lat="61.97166" lon="5.51116">
        <ele>219.86017</ele>
        <time>2020-07-29T12:35:25.837Z</time>
      </trkpt>
      <trkpt lat="61.97175" lon="5.51122">
        <ele>220.379726</ele>
        <time>2020-07-29T12:35:34.850Z</time>
      </trkpt>
      <trkpt lat="61.97185" lon="5.51127">
        <ele>220.907599</ele>
        <time>2020-07-29T12:35:42.844Z</time>
      </trkpt>
      <trkpt lat="61.97194" lon="5.5113">
        <ele>221.430698</ele>
        <time>2020-07-29T12:35:52.838Z</time>
      </trkpt>
      <trkpt lat="61.97203" lon="5.51135">
        <ele>221.939148</ele>
        <time>2020-07-29T12:36:00.841Z</time>
      </trkpt>
      <trkpt lat="61.97212" lon="5.5114">
        <ele>222.42862</ele>
        <time>2020-07-29T12:36:07.828Z</time>
      </trkpt>
      <trkpt lat="61.97221" lon="5.51148">
        <ele>222.962726</ele>
        <time>2020-07-29T12:36:15.842Z</time>
      </trkpt>
      <trkpt lat="61.97229" lon="5.5116">
        <ele>223.466257</ele>
        <time>2020-07-29T12:36:23.834Z</time>
      </trkpt>
      <trkpt lat="61.97237" lon="5.51173">
        <ele>224.04208</ele>
        <time>2020-07-29T12:36:30.848Z</time>
      </trkpt>
      <trkpt lat="61.97244" lon="5.51185">
        <ele>224.532602</ele>
        <time>2020-07-29T12:36:36.864Z</time>
      </trkpt>
      <trkpt lat="61.97253" lon="5.51195">
        <ele>225.062237</ele>
        <time>2020-07-29T12:36:46.826Z</time>
      </trkpt>
      <trkpt lat="61.97261" lon="5.51206">
        <ele>225.590343</ele>
        <time>2020-07-29T12:36:54.840Z</time>
      </trkpt>
      <trkpt lat="61.97268" lon="5.51221">
        <ele>226.115146</ele>
        <time>2020-07-29T12:37:01.836Z</time>
      </trkpt>
      <trkpt lat="61.97273" lon="5.51239">
        <ele>226.655869</ele>
        <time>2020-07-29T12:37:06.844Z</time>
      </trkpt>
      <trkpt lat="61.9728" lon="5.51253">
        <ele>227.17351</ele>
        <time>2020-07-29T12:37:13.847Z</time>
      </trkpt>
      <trkpt lat="61.97288" lon="5.51264">
        <ele>227.671458</ele>
        <time>2020-07-29T12:37:20.819Z</time>
      </trkpt>
      <trkpt lat="61.97295" lon="5.51277">
        <ele>228.180272</ele>
        <time>2020-07-29T12:37:27.866Z</time>
      </trkpt>
      <trkpt lat="61.97303" lon="5.51289">
        <ele>228.799774</ele>
        <time>2020-07-29T12:37:37.825Z</time>
      </trkpt>
      <trkpt lat="61.9731" lon="5.51301">
        <ele>229.541614</ele>
        <time>2020-07-29T12:37:44.847Z</time>
      </trkpt>
      <trkpt lat="61.97317" lon="5.51316">
        <ele>230.29157</ele>
        <time>2020-07-29T12:37:52.822Z</time>
      </trkpt>
      <trkpt lat="61.97324" lon="5.5133">
        <ele>231.091138</ele>
        <time>2020-07-29T12:38:01.838Z</time>
      </trkpt>
      <trkpt lat="61.9733" lon="5.51344">
        <ele>231.805882</ele>
        <time>2020-07-29T12:38:07.857Z</time>
      </trkpt>
      <trkpt lat="61.97336" lon="5.51362">
        <ele>232.618416</ele>
        <time>2020-07-29T12:38:15.858Z</time>
      </trkpt>
      <trkpt lat="61.97341" lon="5.5138">
        <ele>233.369827</ele>
        <time>2020-07-29T12:38:24.901Z</time>
      </trkpt>
      <trkpt lat="61.97347" lon="5.51397">
        <ele>234.1674</ele>
        <time>2020-07-29T12:38:33.832Z</time>
      </trkpt>
      <trkpt lat="61.97352" lon="5.51413">
        <ele>234.884009</ele>
        <time>2020-07-29T12:38:41.832Z</time>
      </trkpt>
      <trkpt lat="61.97359" lon="5.51428">
        <ele>235.639303</ele>
        <time>2020-07-29T12:38:49.823Z</time>
      </trkpt>
      <trkpt lat="61.97366" lon="5.51441">
        <ele>236.414058</ele>
        <time>2020-07-29T12:38:57.837Z</time>
      </trkpt>
      <trkpt lat="61.97371" lon="5.51457">
        <ele>237.138139</ele>
        <time>2020-07-29T12:39:05.837Z</time>
      </trkpt>
      <trkpt lat="61.97378" lon="5.51471">
        <ele>237.89433</ele>
        <time>2020-07-29T12:39:13.832Z</time>
      </trkpt>
      <trkpt lat="61.97385" lon="5.51485">
        <ele>238.633677</ele>
        <time>2020-07-29T12:39:20.846Z</time>
      </trkpt>
      <trkpt lat="61.97392" lon="5.51496">
        <ele>239.355914</ele>
        <time>2020-07-29T12:39:28.834Z</time>
      </trkpt>
      <trkpt lat="61.974" lon="5.51507">
        <ele>240.080476</ele>
        <time>2020-07-29T12:39:35.831Z</time>
      </trkpt>
      <trkpt lat="61.97406" lon="5.5152">
        <ele>240.798522</ele>
        <time>2020-07-29T12:39:42.861Z</time>
      </trkpt>
      <trkpt lat="61.97414" lon="5.51534">
        <ele>241.587254</ele>
        <time>2020-07-29T12:39:50.859Z</time>
      </trkpt>
      <trkpt lat="61.97422" lon="5.51541">
        <ele>242.293101</ele>
        <time>2020-07-29T12:39:58.835Z</time>
      </trkpt>
      <trkpt lat="61.97431" lon="5.51548">
        <ele>243.005731</ele>
        <time>2020-07-29T12:40:06.830Z</time>
      </trkpt>
      <trkpt lat="61.9744" lon="5.51556">
        <ele>243.632018</ele>
        <time>2020-07-29T12:40:14.873Z</time>
      </trkpt>
      <trkpt lat="61.97449" lon="5.51561">
        <ele>244.266587</ele>
        <time>2020-07-29T12:40:22.829Z</time>
      </trkpt>
      <trkpt lat="61.97458" lon="5.51566">
        <ele>244.89554</ele>
        <time>2020-07-29T12:40:29.825Z</time>
      </trkpt>
      <trkpt lat="61.97467" lon="5.51572">
        <ele>245.569705</ele>
        <time>2020-07-29T12:40:37.835Z</time>
      </trkpt>
      <trkpt lat="61.97477" lon="5.51574">
        <ele>246.238399</ele>
        <time>2020-07-29T12:40:44.825Z</time>
      </trkpt>
      <trkpt lat="61.97487" lon="5.51575">
        <ele>246.92425</ele>
        <time>2020-07-29T12:40:52.852Z</time>
      </trkpt>
      <trkpt lat="61.97496" lon="5.51575">
        <ele>247.561113</ele>
        <time>2020-07-29T12:40:59.823Z</time>
      </trkpt>
      <trkpt lat="61.97506" lon="5.51573">
        <ele>248.257022</ele>
        <time>2020-07-29T12:41:07.857Z</time>
      </trkpt>
      <trkpt lat="61.97515" lon="5.51572">
        <ele>248.88029</ele>
        <time>2020-07-29T12:41:14.860Z</time>
      </trkpt>
      <trkpt lat="61.97524" lon="5.51566">
        <ele>249.511675</ele>
        <time>2020-07-29T12:41:20.836Z</time>
      </trkpt>
      <trkpt lat="61.97534" lon="5.5156">
        <ele>250.202488</ele>
        <time>2020-07-29T12:41:26.834Z</time>
      </trkpt>
      <trkpt lat="61.97543" lon="5.51556">
        <ele>250.841501</ele>
        <time>2020-07-29T12:41:32.845Z</time>
      </trkpt>
      <trkpt lat="61.97552" lon="5.51546">
        <ele>251.551326</ele>
        <time>2020-07-29T12:41:39.838Z</time>
      </trkpt>
      <trkpt lat="61.97561" lon="5.51536">
        <ele>252.234429</ele>
        <time>2020-07-29T12:41:46.872Z</time>
      </trkpt>
      <trkpt lat="61.9757" lon="5.51528">
        <ele>252.874567</ele>
        <time>2020-07-29T12:41:52.851Z</time>
      </trkpt>
      <trkpt lat="61.97579" lon="5.51519">
        <ele>253.600884</ele>
        <time>2020-07-29T12:41:57.849Z</time>
      </trkpt>
      <trkpt lat="61.97587" lon="5.51508">
        <ele>254.239838</ele>
        <time>2020-07-29T12:42:02.846Z</time>
      </trkpt>
      <trkpt lat="61.97595" lon="5.51499">
        <ele>254.861122</ele>
        <time>2020-07-29T12:42:07.852Z</time>
      </trkpt>
      <trkpt lat="61.97604" lon="5.51488">
        <ele>254.970259</ele>
        <time>2020-07-29T12:42:13.828Z</time>
      </trkpt>
      <trkpt lat="61.97612" lon="5.51475">
        <ele>254.92529</ele>
        <time>2020-07-29T12:42:19.837Z</time>
      </trkpt>
      <trkpt lat="61.97621" lon="5.51463">
        <ele>254.878273</ele>
        <time>2020-07-29T12:42:24.853Z</time>
      </trkpt>
      <trkpt lat="61.9763" lon="5.51451">
        <ele>254.831667</ele>
        <time>2020-07-29T12:42:29.843Z</time>
      </trkpt>
      <trkpt lat="61.97638" lon="5.51438">
        <ele>254.784868</ele>
        <time>2020-07-29T12:42:34.853Z</time>
      </trkpt>
      <trkpt lat="61.97647" lon="5.51426">
        <ele>254.740609</ele>
        <time>2020-07-29T12:42:39.828Z</time>
      </trkpt>
      <trkpt lat="61.97655" lon="5.51417">
        <ele>254.69911</ele>
        <time>2020-07-29T12:42:46.888Z</time>
      </trkpt>
      <trkpt lat="61.97661" lon="5.5139">
        <ele>254.636304</ele>
        <time>2020-07-29T12:46:42.859Z</time>
      </trkpt>
      <trkpt lat="61.9767" lon="5.51374">
        <ele>254.585521</ele>
        <time>2020-07-29T12:46:46.865Z</time>
      </trkpt>
      <trkpt lat="61.97676" lon="5.5136">
        <ele>254.545123</ele>
        <time>2020-07-29T12:46:50.856Z</time>
      </trkpt>
      <trkpt lat="61.97682" lon="5.51344">
        <ele>254.50209</ele>
        <time>2020-07-29T12:46:54.860Z</time>
      </trkpt>
      <trkpt lat="61.97686" lon="5.51326">
        <ele>254.459846</ele>
        <time>2020-07-29T12:46:58.859Z</time>
      </trkpt>
      <trkpt lat="61.9769" lon="5.51302">
        <ele>254.408818</ele>
        <time>2020-07-29T12:47:02.853Z</time>
      </trkpt>
      <trkpt lat="61.97691" lon="5.51281">
        <ele>254.364218</ele>
        <time>2020-07-29T12:47:05.863Z</time>
      </trkpt>
      <trkpt lat="61.97693" lon="5.5126">
        <ele>254.320171</ele>
        <time>2020-07-29T12:47:08.844Z</time>
      </trkpt>
      <trkpt lat="61.97694" lon="5.51241">
        <ele>254.279843</ele>
        <time>2020-07-29T12:47:11.841Z</time>
      </trkpt>
      <trkpt lat="61.97693" lon="5.5122">
        <ele>254.236889</ele>
        <time>2020-07-29T12:47:14.876Z</time>
      </trkpt>
      <trkpt lat="61.97692" lon="5.51198">
        <ele>254.197166</ele>
        <time>2020-07-29T12:47:17.844Z</time>
      </trkpt>
      <trkpt lat="61.97691" lon="5.51176">
        <ele>254.168666</ele>
        <time>2020-07-29T12:47:20.836Z</time>
      </trkpt>
      <trkpt lat="61.9769" lon="5.51154">
        <ele>254.139192</ele>
        <time>2020-07-29T12:47:23.868Z</time>
      </trkpt>
      <trkpt lat="61.97689" lon="5.5113">
        <ele>254.108041</ele>
        <time>2020-07-29T12:47:26.827Z</time>
      </trkpt>
      <trkpt lat="61.97692" lon="5.51109">
        <ele>254.079591</ele>
        <time>2020-07-29T12:47:29.845Z</time>
      </trkpt>
      <trkpt lat="61.97697" lon="5.51091">
        <ele>254.051251</ele>
        <time>2020-07-29T12:47:32.834Z</time>
      </trkpt>
      <trkpt lat="61.97705" lon="5.51077">
        <ele>254.022116</ele>
        <time>2020-07-29T12:47:35.857Z</time>
      </trkpt>
      <trkpt lat="61.97716" lon="5.51067">
        <ele>253.988321</ele>
        <time>2020-07-29T12:47:38.853Z</time>
      </trkpt>
      <trkpt lat="61.97727" lon="5.51057">
        <ele>253.956459</ele>
        <time>2020-07-29T12:47:41.867Z</time>
      </trkpt>
      <trkpt lat="61.97735" lon="5.51046">
        <ele>253.927495</ele>
        <time>2020-07-29T12:47:44.845Z</time>
      </trkpt>
      <trkpt lat="61.97745" lon="5.51032">
        <ele>253.895963</ele>
        <time>2020-07-29T12:47:47.894Z</time>
      </trkpt>
      <trkpt lat="61.97754" lon="5.51014">
        <ele>253.861215</ele>
        <time>2020-07-29T12:47:50.840Z</time>
      </trkpt>
      <trkpt lat="61.97763" lon="5.50994">
        <ele>253.824037</ele>
        <time>2020-07-29T12:47:53.826Z</time>
      </trkpt>
      <trkpt lat="61.9777" lon="5.50979">
        <ele>253.797431</ele>
        <time>2020-07-29T12:47:55.860Z</time>
      </trkpt>
      <trkpt lat="61.97777" lon="5.50965">
        <ele>253.770146</ele>
        <time>2020-07-29T12:47:57.845Z</time>
      </trkpt>
      <trkpt lat="61.97784" lon="5.5095">
        <ele>253.74323</ele>
        <time>2020-07-29T12:47:59.840Z</time>
      </trkpt>
      <trkpt lat="61.9779" lon="5.50937">
        <ele>253.718009</ele>
        <time>2020-07-29T12:48:01.850Z</time>
      </trkpt>
      <trkpt lat="61.97799" lon="5.50918">
        <ele>254.04098</ele>
        <time>2020-07-29T12:48:04.864Z</time>
      </trkpt>
      <trkpt lat="61.97807" lon="5.50902">
        <ele>254.461598</ele>
        <time>2020-07-29T12:48:07.863Z</time>
      </trkpt>
      <trkpt lat="61.97813" lon="5.50887">
        <ele>254.825219</ele>
        <time>2020-07-29T12:48:10.843Z</time>
      </trkpt>
      <trkpt lat="61.97821" lon="5.5087">
        <ele>255.279535</ele>
        <time>2020-07-29T12:48:14.832Z</time>
      </trkpt>
      <trkpt lat="61.97829" lon="5.50854">
        <ele>255.718001</ele>
        <time>2020-07-29T12:48:18.843Z</time>
      </trkpt>
      <trkpt lat="61.97836" lon="5.50838">
        <ele>256.116583</ele>
        <time>2020-07-29T12:48:22.835Z</time>
      </trkpt>
      <trkpt lat="61.97844" lon="5.50822">
        <ele>256.549178</ele>
        <time>2020-07-29T12:48:26.844Z</time>
      </trkpt>
      <trkpt lat="61.97851" lon="5.50807">
        <ele>256.968321</ele>
        <time>2020-07-29T12:48:30.844Z</time>
      </trkpt>
      <trkpt lat="61.97857" lon="5.50791">
        <ele>257.331533</ele>
        <time>2020-07-29T12:48:34.908Z</time>
      </trkpt>
      <trkpt lat="61.97863" lon="5.50774">
        <ele>257.729427</ele>
        <time>2020-07-29T12:48:39.838Z</time>
      </trkpt>
      <trkpt lat="61.97869" lon="5.50759">
        <ele>258.101448</ele>
        <time>2020-07-29T12:48:44.834Z</time>
      </trkpt>
      <trkpt lat="61.97875" lon="5.50742">
        <ele>258.499446</ele>
        <time>2020-07-29T12:48:49.839Z</time>
      </trkpt>
      <trkpt lat="61.97881" lon="5.50726">
        <ele>258.870567</ele>
        <time>2020-07-29T12:48:54.845Z</time>
      </trkpt>
      <trkpt lat="61.97887" lon="5.50707">
        <ele>259.292652</ele>
        <time>2020-07-29T12:49:00.864Z</time>
      </trkpt>
      <trkpt lat="61.97892" lon="5.50689">
        <ele>259.692048</ele>
        <time>2020-07-29T12:49:06.879Z</time>
      </trkpt>
      <trkpt lat="61.97898" lon="5.50674">
        <ele>260.048425</ele>
        <time>2020-07-29T12:49:11.844Z</time>
      </trkpt>
      <trkpt lat="61.97903" lon="5.50656">
        <ele>260.453544</ele>
        <time>2020-07-29T12:49:17.854Z</time>
      </trkpt>
      <trkpt lat="61.97909" lon="5.50637">
        <ele>260.87172</ele>
        <time>2020-07-29T12:49:23.835Z</time>
      </trkpt>
      <trkpt lat="61.97913" lon="5.50619">
        <ele>261.401464</ele>
        <time>2020-07-29T12:49:29.854Z</time>
      </trkpt>
      <trkpt lat="61.97918" lon="5.50601">
        <ele>261.918245</ele>
        <time>2020-07-29T12:49:35.828Z</time>
      </trkpt>
      <trkpt lat="61.97922" lon="5.50582">
        <ele>262.459376</ele>
        <time>2020-07-29T12:49:41.839Z</time>
      </trkpt>
      <trkpt lat="61.97927" lon="5.50563">
        <ele>263.013357</ele>
        <time>2020-07-29T12:49:47.855Z</time>
      </trkpt>
      <trkpt lat="61.9793" lon="5.50544">
        <ele>263.519619</ele>
        <time>2020-07-29T12:49:53.848Z</time>
      </trkpt>
      <trkpt lat="61.97936" lon="5.50525">
        <ele>264.088859</ele>
        <time>2020-07-29T12:49:59.848Z</time>
      </trkpt>
      <trkpt lat="61.97941" lon="5.50509">
        <ele>264.581674</ele>
        <time>2020-07-29T12:50:05.861Z</time>
      </trkpt>
      <trkpt lat="61.97947" lon="5.50492">
        <ele>265.133854</ele>
        <time>2020-07-29T12:50:12.838Z</time>
      </trkpt>
      <trkpt lat="61.97954" lon="5.50479">
        <ele>265.624459</ele>
        <time>2020-07-29T12:50:18.841Z</time>
      </trkpt>
      <trkpt lat="61.97962" lon="5.50468">
        <ele>266.123471</ele>
        <time>2020-07-29T12:50:24.855Z</time>
      </trkpt>
      <trkpt lat="61.97971" lon="5.5046">
        <ele>266.646809</ele>
        <time>2020-07-29T12:50:31.853Z</time>
      </trkpt>
      <trkpt lat="61.97982" lon="5.5046">
        <ele>267.253341</ele>
        <time>2020-07-29T12:50:37.831Z</time>
      </trkpt>
      <trkpt lat="61.97992" lon="5.50459">
        <ele>267.77879</ele>
        <time>2020-07-29T12:50:42.885Z</time>
      </trkpt>
      <trkpt lat="61.98001" lon="5.5046">
        <ele>268.277469</ele>
        <time>2020-07-29T12:50:47.848Z</time>
      </trkpt>
      <trkpt lat="61.9801" lon="5.50461">
        <ele>268.775681</ele>
        <time>2020-07-29T12:50:52.849Z</time>
      </trkpt>
      <trkpt lat="61.98021" lon="5.50461">
        <ele>269.36047</ele>
        <time>2020-07-29T12:50:58.839Z</time>
      </trkpt>
      <trkpt lat="61.98031" lon="5.50463">
        <ele>269.904094</ele>
        <time>2020-07-29T12:51:03.845Z</time>
      </trkpt>
      <trkpt lat="61.9804" lon="5.50469">
        <ele>270.451132</ele>
        <time>2020-07-29T12:51:09.858Z</time>
      </trkpt>
      <trkpt lat="61.98048" lon="5.50479">
        <ele>270.682836</ele>
        <time>2020-07-29T12:51:15.835Z</time>
      </trkpt>
      <trkpt lat="61.98058" lon="5.50488">
        <ele>270.851734</ele>
        <time>2020-07-29T12:51:21.824Z</time>
      </trkpt>
      <trkpt lat="61.98066" lon="5.50497">
        <ele>271.011104</ele>
        <time>2020-07-29T12:51:27.840Z</time>
      </trkpt>
      <trkpt lat="61.98075" lon="5.50505">
        <ele>271.170204</ele>
        <time>2020-07-29T12:51:33.831Z</time>
      </trkpt>
      <trkpt lat="61.98085" lon="5.50512">
        <ele>271.34017</ele>
        <time>2020-07-29T12:51:39.848Z</time>
      </trkpt>
      <trkpt lat="61.98095" lon="5.50521">
        <ele>271.509834</ele>
        <time>2020-07-29T12:51:45.862Z</time>
      </trkpt>
      <trkpt lat="61.98104" lon="5.50529">
        <ele>271.670745</ele>
        <time>2020-07-29T12:51:51.841Z</time>
      </trkpt>
      <trkpt lat="61.98111" lon="5.50541">
        <ele>271.822058</ele>
        <time>2020-07-29T12:51:56.864Z</time>
      </trkpt>
      <trkpt lat="61.9812" lon="5.50552">
        <ele>271.993477</ele>
        <time>2020-07-29T12:52:02.839Z</time>
      </trkpt>
      <trkpt lat="61.98128" lon="5.50563">
        <ele>272.149063</ele>
        <time>2020-07-29T12:52:07.843Z</time>
      </trkpt>
      <trkpt lat="61.98136" lon="5.50575">
        <ele>272.306947</ele>
        <time>2020-07-29T12:52:12.902Z</time>
      </trkpt>
      <trkpt lat="61.98145" lon="5.50585">
        <ele>272.471689</ele>
        <time>2020-07-29T12:52:18.888Z</time>
      </trkpt>
      <trkpt lat="61.98153" lon="5.50596">
        <ele>272.626445</ele>
        <time>2020-07-29T12:52:24.836Z</time>
      </trkpt>
      <trkpt lat="61.98159" lon="5.5061">
        <ele>272.777141</ele>
        <time>2020-07-29T12:52:30.881Z</time>
      </trkpt>
      <trkpt lat="61.98167" lon="5.50624">
        <ele>272.94452</ele>
        <time>2020-07-29T12:52:37.841Z</time>
      </trkpt>
      <trkpt lat="61.98175" lon="5.50633">
        <ele>273.094828</ele>
        <time>2020-07-29T12:52:43.855Z</time>
      </trkpt>
      <trkpt lat="61.98183" lon="5.50644">
        <ele>273.251912</ele>
        <time>2020-07-29T12:52:49.857Z</time>
      </trkpt>
      <trkpt lat="61.98192" lon="5.50653">
        <ele>273.407657</ele>
        <time>2020-07-29T12:52:55.853Z</time>
      </trkpt>
      <trkpt lat="61.98201" lon="5.50661">
        <ele>273.760208</ele>
        <time>2020-07-29T12:53:01.840Z</time>
      </trkpt>
      <trkpt lat="61.9821" lon="5.5067">
        <ele>274.395224</ele>
        <time>2020-07-29T12:53:07.864Z</time>
      </trkpt>
      <trkpt lat="61.98218" lon="5.50679">
        <ele>275.039112</ele>
        <time>2020-07-29T12:53:13.851Z</time>
      </trkpt>
      <trkpt lat="61.98227" lon="5.5069">
        <ele>275.710317</ele>
        <time>2020-07-29T12:53:19.855Z</time>
      </trkpt>
      <trkpt lat="61.98236" lon="5.507">
        <ele>276.403282</ele>
        <time>2020-07-29T12:53:25.844Z</time>
      </trkpt>
      <trkpt lat="61.98245" lon="5.50709">
        <ele>277.060307</ele>
        <time>2020-07-29T12:53:31.839Z</time>
      </trkpt>
      <trkpt lat="61.98254" lon="5.50717">
        <ele>277.708608</ele>
        <time>2020-07-29T12:53:37.848Z</time>
      </trkpt>
      <trkpt lat="61.98262" lon="5.50723">
        <ele>278.325339</ele>
        <time>2020-07-29T12:53:42.850Z</time>
      </trkpt>
      <trkpt lat="61.98273" lon="5.50727">
        <ele>279.021426</ele>
        <time>2020-07-29T12:53:48.835Z</time>
      </trkpt>
      <trkpt lat="61.98283" lon="5.50729">
        <ele>279.730078</ele>
        <time>2020-07-29T12:53:54.833Z</time>
      </trkpt>
      <trkpt lat="61.98293" lon="5.50724">
        <ele>280.429344</ele>
        <time>2020-07-29T12:54:00.844Z</time>
      </trkpt>
      <trkpt lat="61.98302" lon="5.50714">
        <ele>281.100035</ele>
        <time>2020-07-29T12:54:05.892Z</time>
      </trkpt>
      <trkpt lat="61.98309" lon="5.507">
        <ele>281.726718</ele>
        <time>2020-07-29T12:54:09.881Z</time>
      </trkpt>
      <trkpt lat="61.98313" lon="5.50684">
        <ele>282.331911</ele>
        <time>2020-07-29T12:54:13.852Z</time>
      </trkpt>
      <trkpt lat="61.98315" lon="5.50664">
        <ele>282.962157</ele>
        <time>2020-07-29T12:54:17.828Z</time>
      </trkpt>
      <trkpt lat="61.98316" lon="5.5064">
        <ele>283.732401</ele>
        <time>2020-07-29T12:54:21.847Z</time>
      </trkpt>
      <trkpt lat="61.98316" lon="5.50618">
        <ele>284.436681</ele>
        <time>2020-07-29T12:54:24.845Z</time>
      </trkpt>
      <trkpt lat="61.98316" lon="5.50591">
        <ele>285.281082</ele>
        <time>2020-07-29T12:54:27.847Z</time>
      </trkpt>
      <trkpt lat="61.98315" lon="5.50562">
        <ele>285.493327</ele>
        <time>2020-07-29T12:54:30.852Z</time>
      </trkpt>
      <trkpt lat="61.98315" lon="5.50541">
        <ele>285.362932</ele>
        <time>2020-07-29T12:54:32.831Z</time>
      </trkpt>
      <trkpt lat="61.98314" lon="5.5052">
        <ele>285.232478</ele>
        <time>2020-07-29T12:54:34.836Z</time>
      </trkpt>
      <trkpt lat="61.98313" lon="5.50499">
        <ele>285.102885</ele>
        <time>2020-07-29T12:54:36.855Z</time>
      </trkpt>
      <trkpt lat="61.98313" lon="5.50479">
        <ele>284.97731</ele>
        <time>2020-07-29T12:54:38.854Z</time>
      </trkpt>
      <trkpt lat="61.98312" lon="5.5046">
        <ele>284.857927</ele>
        <time>2020-07-29T12:54:40.918Z</time>
      </trkpt>
      <trkpt lat="61.98311" lon="5.5044">
        <ele>284.734288</ele>
        <time>2020-07-29T12:54:42.857Z</time>
      </trkpt>
      <trkpt lat="61.98311" lon="5.50421">
        <ele>284.613572</ele>
        <time>2020-07-29T12:54:44.837Z</time>
      </trkpt>
      <trkpt lat="61.9831" lon="5.50401">
        <ele>284.491286</ele>
        <time>2020-07-29T12:54:46.872Z</time>
      </trkpt>
      <trkpt lat="61.9831" lon="5.50381">
        <ele>284.369656</ele>
        <time>2020-07-29T12:54:48.829Z</time>
      </trkpt>
      <trkpt lat="61.9831" lon="5.50361">
        <ele>284.244924</ele>
        <time>2020-07-29T12:54:50.839Z</time>
      </trkpt>
      <trkpt lat="61.98311" lon="5.50341">
        <ele>284.122445</ele>
        <time>2020-07-29T12:54:52.841Z</time>
      </trkpt>
      <trkpt lat="61.98312" lon="5.50321">
        <ele>283.996123</ele>
        <time>2020-07-29T12:54:54.828Z</time>
      </trkpt>
      <trkpt lat="61.98314" lon="5.50303">
        <ele>283.875724</ele>
        <time>2020-07-29T12:54:56.838Z</time>
      </trkpt>
      <trkpt lat="61.98318" lon="5.50285">
        <ele>283.756319</ele>
        <time>2020-07-29T12:54:58.849Z</time>
      </trkpt>
      <trkpt lat="61.98323" lon="5.5026">
        <ele>283.583922</ele>
        <time>2020-07-29T12:55:01.831Z</time>
      </trkpt>
      <trkpt lat="61.98329" lon="5.50238">
        <ele>283.430638</ele>
        <time>2020-07-29T12:55:04.849Z</time>
      </trkpt>
      <trkpt lat="61.98336" lon="5.50218">
        <ele>283.275289</ele>
        <time>2020-07-29T12:55:07.847Z</time>
      </trkpt>
      <trkpt lat="61.98345" lon="5.50199">
        <ele>283.112997</ele>
        <time>2020-07-29T12:55:10.844Z</time>
      </trkpt>
      <trkpt lat="61.98355" lon="5.50183">
        <ele>282.948377</ele>
        <time>2020-07-29T12:55:13.864Z</time>
      </trkpt>
      <trkpt lat="61.98366" lon="5.5017">
        <ele>282.784339</ele>
        <time>2020-07-29T12:55:16.826Z</time>
      </trkpt>
      <trkpt lat="61.98377" lon="5.50159">
        <ele>282.624484</ele>
        <time>2020-07-29T12:55:19.860Z</time>
      </trkpt>
      <trkpt lat="61.98389" lon="5.50151">
        <ele>282.455671</ele>
        <time>2020-07-29T12:55:22.872Z</time>
      </trkpt>
      <trkpt lat="61.98402" lon="5.50144">
        <ele>282.277864</ele>
        <time>2020-07-29T12:55:25.844Z</time>
      </trkpt>
      <trkpt lat="61.98415" lon="5.50139">
        <ele>282.101401</ele>
        <time>2020-07-29T12:55:28.846Z</time>
      </trkpt>
      <trkpt lat="61.98424" lon="5.50138">
        <ele>281.981297</ele>
        <time>2020-07-29T12:55:30.850Z</time>
      </trkpt>
      <trkpt lat="61.98437" lon="5.5014">
        <ele>281.816211</ele>
        <time>2020-07-29T12:55:33.843Z</time>
      </trkpt>
      <trkpt lat="61.98449" lon="5.50145">
        <ele>281.656038</ele>
        <time>2020-07-29T12:55:36.877Z</time>
      </trkpt>
      <trkpt lat="61.98461" lon="5.50152">
        <ele>281.493467</ele>
        <time>2020-07-29T12:55:39.845Z</time>
      </trkpt>
      <trkpt lat="61.98472" lon="5.50156">
        <ele>281.337189</ele>
        <time>2020-07-29T12:55:42.826Z</time>
      </trkpt>
      <trkpt lat="61.98484" lon="5.50158">
        <ele>281.181487</ele>
        <time>2020-07-29T12:55:45.839Z</time>
      </trkpt>
      <trkpt lat="61.98496" lon="5.50157">
        <ele>281.023567</ele>
        <time>2020-07-29T12:55:48.834Z</time>
      </trkpt>
      <trkpt lat="61.98507" lon="5.50156">
        <ele>280.882629</ele>
        <time>2020-07-29T12:55:51.831Z</time>
      </trkpt>
      <trkpt lat="61.98517" lon="5.5015">
        <ele>280.80607</ele>
        <time>2020-07-29T12:55:54.831Z</time>
      </trkpt>
      <trkpt lat="61.98528" lon="5.50142">
        <ele>280.734968</ele>
        <time>2020-07-29T12:55:57.871Z</time>
      </trkpt>
      <trkpt lat="61.9854" lon="5.50133">
        <ele>280.655483</ele>
        <time>2020-07-29T12:56:00.835Z</time>
      </trkpt>
      <trkpt lat="61.98552" lon="5.50124">
        <ele>280.574111</ele>
        <time>2020-07-29T12:56:03.852Z</time>
      </trkpt>
      <trkpt lat="61.98561" lon="5.50121">
        <ele>280.516618</ele>
        <time>2020-07-29T12:56:05.834Z</time>
      </trkpt>
      <trkpt lat="61.98574" lon="5.50118">
        <ele>280.433175</ele>
        <time>2020-07-29T12:56:08.876Z</time>
      </trkpt>
      <trkpt lat="61.98587" lon="5.50115">
        <ele>280.351252</ele>
        <time>2020-07-29T12:56:11.831Z</time>
      </trkpt>
      <trkpt lat="61.986" lon="5.50113">
        <ele>280.272481</ele>
        <time>2020-07-29T12:56:14.859Z</time>
      </trkpt>
      <trkpt lat="61.98612" lon="5.50111">
        <ele>280.193781</ele>
        <time>2020-07-29T12:56:17.860Z</time>
      </trkpt>
      <trkpt lat="61.98626" lon="5.50111">
        <ele>280.108395</ele>
        <time>2020-07-29T12:56:20.856Z</time>
      </trkpt>
      <trkpt lat="61.98639" lon="5.50119">
        <ele>280.025491</ele>
        <time>2020-07-29T12:56:23.882Z</time>
      </trkpt>
      <trkpt lat="61.98646" lon="5.50129">
        <ele>279.969018</ele>
        <time>2020-07-29T12:56:25.840Z</time>
      </trkpt>
      <trkpt lat="61.98657" lon="5.50146">
        <ele>279.885021</ele>
        <time>2020-07-29T12:56:28.843Z</time>
      </trkpt>
      <trkpt lat="61.98667" lon="5.50165">
        <ele>279.801265</ele>
        <time>2020-07-29T12:56:31.837Z</time>
      </trkpt>
      <trkpt lat="61.98677" lon="5.50183">
        <ele>279.745707</ele>
        <time>2020-07-29T12:56:34.862Z</time>
      </trkpt>
      <trkpt lat="61.98688" lon="5.502">
        <ele>279.784493</ele>
        <time>2020-07-29T12:56:37.874Z</time>
      </trkpt>
      <trkpt lat="61.98699" lon="5.50216">
        <ele>279.823842</ele>
        <time>2020-07-29T12:56:40.834Z</time>
      </trkpt>
      <trkpt lat="61.98707" lon="5.50227">
        <ele>279.851491</ele>
        <time>2020-07-29T12:56:42.847Z</time>
      </trkpt>
      <trkpt lat="61.98715" lon="5.50239">
        <ele>279.879687</ele>
        <time>2020-07-29T12:56:44.842Z</time>
      </trkpt>
      <trkpt lat="61.98722" lon="5.5025">
        <ele>279.906538</ele>
        <time>2020-07-29T12:56:46.867Z</time>
      </trkpt>
      <trkpt lat="61.9873" lon="5.50261">
        <ele>279.933476</ele>
        <time>2020-07-29T12:56:48.844Z</time>
      </trkpt>
      <trkpt lat="61.98738" lon="5.50272">
        <ele>279.959857</ele>
        <time>2020-07-29T12:56:50.845Z</time>
      </trkpt>
      <trkpt lat="61.98745" lon="5.50283">
        <ele>279.986161</ele>
        <time>2020-07-29T12:56:52.897Z</time>
      </trkpt>
      <trkpt lat="61.98753" lon="5.50294">
        <ele>280.013563</ele>
        <time>2020-07-29T12:56:54.859Z</time>
      </trkpt>
      <trkpt lat="61.98764" lon="5.50311">
        <ele>280.051944</ele>
        <time>2020-07-29T12:56:57.920Z</time>
      </trkpt>
      <trkpt lat="61.98775" lon="5.50328">
        <ele>280.091272</ele>
        <time>2020-07-29T12:57:00.904Z</time>
      </trkpt>
      <trkpt lat="61.98782" lon="5.50339">
        <ele>280.117899</ele>
        <time>2020-07-29T12:57:02.849Z</time>
      </trkpt>
      <trkpt lat="61.98789" lon="5.50352">
        <ele>280.144631</ele>
        <time>2020-07-29T12:57:04.838Z</time>
      </trkpt>
      <trkpt lat="61.98796" lon="5.50364">
        <ele>280.171746</ele>
        <time>2020-07-29T12:57:06.833Z</time>
      </trkpt>
      <trkpt lat="61.98803" lon="5.50378">
        <ele>280.198911</ele>
        <time>2020-07-29T12:57:08.857Z</time>
      </trkpt>
      <trkpt lat="61.9881" lon="5.50391">
        <ele>280.224987</ele>
        <time>2020-07-29T12:57:10.833Z</time>
      </trkpt>
      <trkpt lat="61.98819" lon="5.50412">
        <ele>280.247516</ele>
        <time>2020-07-29T12:57:13.836Z</time>
      </trkpt>
      <trkpt lat="61.98827" lon="5.50432">
        <ele>280.127771</ele>
        <time>2020-07-29T12:57:16.849Z</time>
      </trkpt>
      <trkpt lat="61.98836" lon="5.50452">
        <ele>280.009929</ele>
        <time>2020-07-29T12:57:19.853Z</time>
      </trkpt>
      <trkpt lat="61.98845" lon="5.50471">
        <ele>279.892686</ele>
        <time>2020-07-29T12:57:22.829Z</time>
      </trkpt>
      <trkpt lat="61.98855" lon="5.50489">
        <ele>279.772349</ele>
        <time>2020-07-29T12:57:25.848Z</time>
      </trkpt>
      <trkpt lat="61.98865" lon="5.50507">
        <ele>279.652162</ele>
        <time>2020-07-29T12:57:28.879Z</time>
      </trkpt>
      <trkpt lat="61.98875" lon="5.50523">
        <ele>279.533168</ele>
        <time>2020-07-29T12:57:31.856Z</time>
      </trkpt>
      <trkpt lat="61.98883" lon="5.50532">
        <ele>279.449633</ele>
        <time>2020-07-29T12:57:33.840Z</time>
      </trkpt>
      <trkpt lat="61.98892" lon="5.50541">
        <ele>279.359849</ele>
        <time>2020-07-29T12:57:35.855Z</time>
      </trkpt>
      <trkpt lat="61.98901" lon="5.5055">
        <ele>279.268021</ele>
        <time>2020-07-29T12:57:37.836Z</time>
      </trkpt>
      <trkpt lat="61.9891" lon="5.50559">
        <ele>279.170524</ele>
        <time>2020-07-29T12:57:39.856Z</time>
      </trkpt>
      <trkpt lat="61.9892" lon="5.50569">
        <ele>279.069311</ele>
        <time>2020-07-29T12:57:41.887Z</time>
      </trkpt>
      <trkpt lat="61.98931" lon="5.50581">
        <ele>278.959222</ele>
        <time>2020-07-29T12:57:43.838Z</time>
      </trkpt>
      <trkpt lat="61.98942" lon="5.50594">
        <ele>278.84361</ele>
        <time>2020-07-29T12:57:45.845Z</time>
      </trkpt>
      <trkpt lat="61.98952" lon="5.50607">
        <ele>278.732587</ele>
        <time>2020-07-29T12:57:47.868Z</time>
      </trkpt>
      <trkpt lat="61.98962" lon="5.5062">
        <ele>278.627851</ele>
        <time>2020-07-29T12:57:49.848Z</time>
      </trkpt>
      <trkpt lat="61.9897" lon="5.50634">
        <ele>278.729236</ele>
        <time>2020-07-29T12:57:51.839Z</time>
      </trkpt>
      <trkpt lat="61.98979" lon="5.50647">
        <ele>278.922506</ele>
        <time>2020-07-29T12:57:53.843Z</time>
      </trkpt>
      <trkpt lat="61.98987" lon="5.50661">
        <ele>279.110151</ele>
        <time>2020-07-29T12:57:55.851Z</time>
      </trkpt>
      <trkpt lat="61.98995" lon="5.50674">
        <ele>279.293166</ele>
        <time>2020-07-29T12:57:57.864Z</time>
      </trkpt>
      <trkpt lat="61.99002" lon="5.50687">
        <ele>279.468769</ele>
        <time>2020-07-29T12:57:59.856Z</time>
      </trkpt>
      <trkpt lat="61.99009" lon="5.507">
        <ele>279.639363</ele>
        <time>2020-07-29T12:58:01.826Z</time>
      </trkpt>
      <trkpt lat="61.99016" lon="5.50713">
        <ele>279.810055</ele>
        <time>2020-07-29T12:58:03.873Z</time>
      </trkpt>
      <trkpt lat="61.99023" lon="5.50726">
        <ele>279.977662</ele>
        <time>2020-07-29T12:58:05.872Z</time>
      </trkpt>
      <trkpt lat="61.99033" lon="5.50746">
        <ele>280.225503</ele>
        <time>2020-07-29T12:58:08.847Z</time>
      </trkpt>
      <trkpt lat="61.9904" lon="5.50759">
        <ele>280.39311</ele>
        <time>2020-07-29T12:58:10.853Z</time>
      </trkpt>
      <trkpt lat="61.99047" lon="5.50773">
        <ele>280.569977</ele>
        <time>2020-07-29T12:58:12.836Z</time>
      </trkpt>
      <trkpt lat="61.99054" lon="5.50786">
        <ele>280.741413</ele>
        <time>2020-07-29T12:58:14.879Z</time>
      </trkpt>
      <trkpt lat="61.99061" lon="5.50799">
        <ele>280.9134</ele>
        <time>2020-07-29T12:58:16.845Z</time>
      </trkpt>
      <trkpt lat="61.99068" lon="5.50811">
        <ele>281.082118</ele>
        <time>2020-07-29T12:58:18.843Z</time>
      </trkpt>
      <trkpt lat="61.99076" lon="5.50823">
        <ele>281.248708</ele>
        <time>2020-07-29T12:58:20.842Z</time>
      </trkpt>
      <trkpt lat="61.99083" lon="5.50835">
        <ele>281.412634</ele>
        <time>2020-07-29T12:58:22.841Z</time>
      </trkpt>
      <trkpt lat="61.99092" lon="5.50854">
        <ele>281.651219</ele>
        <time>2020-07-29T12:58:25.863Z</time>
      </trkpt>
      <trkpt lat="61.99102" lon="5.50872">
        <ele>281.883977</ele>
        <time>2020-07-29T12:58:28.871Z</time>
      </trkpt>
      <trkpt lat="61.99112" lon="5.5089">
        <ele>281.906795</ele>
        <time>2020-07-29T12:58:31.880Z</time>
      </trkpt>
      <trkpt lat="61.9912" lon="5.5091">
        <ele>281.928847</ele>
        <time>2020-07-29T12:58:34.891Z</time>
      </trkpt>
      <trkpt lat="61.99129" lon="5.50929">
        <ele>281.950837</ele>
        <time>2020-07-29T12:58:37.851Z</time>
      </trkpt>
      <trkpt lat="61.99136" lon="5.50948">
        <ele>281.971621</ele>
        <time>2020-07-29T12:58:40.849Z</time>
      </trkpt>
      <trkpt lat="61.99143" lon="5.50966">
        <ele>281.990909</ele>
        <time>2020-07-29T12:58:43.871Z</time>
      </trkpt>
      <trkpt lat="61.9915" lon="5.50983">
        <ele>282.009601</ele>
        <time>2020-07-29T12:58:46.852Z</time>
      </trkpt>
      <trkpt lat="61.99157" lon="5.51">
        <ele>282.028136</ele>
        <time>2020-07-29T12:58:49.868Z</time>
      </trkpt>
      <trkpt lat="61.99163" lon="5.51016">
        <ele>282.046544</ele>
        <time>2020-07-29T12:58:52.853Z</time>
      </trkpt>
      <trkpt lat="61.9917" lon="5.51032">
        <ele>282.063855</ele>
        <time>2020-07-29T12:58:55.841Z</time>
      </trkpt>
      <trkpt lat="61.99177" lon="5.51048">
        <ele>282.082375</ele>
        <time>2020-07-29T12:58:58.842Z</time>
      </trkpt>
      <trkpt lat="61.99184" lon="5.51065">
        <ele>282.101144</ele>
        <time>2020-07-29T12:59:01.877Z</time>
      </trkpt>
      <trkpt lat="61.99191" lon="5.51083">
        <ele>282.121063</ele>
        <time>2020-07-29T12:59:04.842Z</time>
      </trkpt>
      <trkpt lat="61.99201" lon="5.511">
        <ele>282.143307</ele>
        <time>2020-07-29T12:59:07.876Z</time>
      </trkpt>
      <trkpt lat="61.99208" lon="5.51113">
        <ele>282.15997</ele>
        <time>2020-07-29T12:59:09.859Z</time>
      </trkpt>
      <trkpt lat="61.99216" lon="5.51127">
        <ele>282.177907</ele>
        <time>2020-07-29T12:59:11.858Z</time>
      </trkpt>
      <trkpt lat="61.99224" lon="5.51142">
        <ele>282.197023</ele>
        <time>2020-07-29T12:59:13.843Z</time>
      </trkpt>
      <trkpt lat="61.99232" lon="5.51158">
        <ele>282.141525</ele>
        <time>2020-07-29T12:59:15.861Z</time>
      </trkpt>
      <trkpt lat="61.9924" lon="5.51174">
        <ele>282.048911</ele>
        <time>2020-07-29T12:59:17.843Z</time>
      </trkpt>
      <trkpt lat="61.99248" lon="5.51191">
        <ele>281.957299</ele>
        <time>2020-07-29T12:59:19.835Z</time>
      </trkpt>
      <trkpt lat="61.99256" lon="5.51208">
        <ele>281.864289</ele>
        <time>2020-07-29T12:59:21.825Z</time>
      </trkpt>
      <trkpt lat="61.99264" lon="5.51224">
        <ele>281.771548</ele>
        <time>2020-07-29T12:59:23.875Z</time>
      </trkpt>
      <trkpt lat="61.99272" lon="5.51241">
        <ele>281.679343</ele>
        <time>2020-07-29T12:59:25.871Z</time>
      </trkpt>
      <trkpt lat="61.9928" lon="5.51257">
        <ele>281.589761</ele>
        <time>2020-07-29T12:59:27.839Z</time>
      </trkpt>
      <trkpt lat="61.99288" lon="5.51273">
        <ele>281.497314</ele>
        <time>2020-07-29T12:59:29.853Z</time>
      </trkpt>
      <trkpt lat="61.99296" lon="5.51289">
        <ele>281.407562</ele>
        <time>2020-07-29T12:59:31.843Z</time>
      </trkpt>
      <trkpt lat="61.99303" lon="5.51305">
        <ele>281.321961</ele>
        <time>2020-07-29T12:59:33.841Z</time>
      </trkpt>
      <trkpt lat="61.99311" lon="5.5132">
        <ele>281.237656</ele>
        <time>2020-07-29T12:59:35.835Z</time>
      </trkpt>
      <trkpt lat="61.99318" lon="5.51334">
        <ele>281.159585</ele>
        <time>2020-07-29T12:59:37.850Z</time>
      </trkpt>
      <trkpt lat="61.99328" lon="5.51352">
        <ele>281.051378</ele>
        <time>2020-07-29T12:59:40.832Z</time>
      </trkpt>
      <trkpt lat="61.99338" lon="5.51369">
        <ele>280.944594</ele>
        <time>2020-07-29T12:59:43.837Z</time>
      </trkpt>
      <trkpt lat="61.99349" lon="5.51385">
        <ele>280.834929</ele>
        <time>2020-07-29T12:59:46.834Z</time>
      </trkpt>
      <trkpt lat="61.99357" lon="5.51395">
        <ele>280.760236</ele>
        <time>2020-07-29T12:59:48.833Z</time>
      </trkpt>
      <trkpt lat="61.99365" lon="5.51404">
        <ele>280.680104</ele>
        <time>2020-07-29T12:59:50.857Z</time>
      </trkpt>
      <trkpt lat="61.99377" lon="5.51416">
        <ele>280.551872</ele>
        <time>2020-07-29T12:59:53.842Z</time>
      </trkpt>
      <trkpt lat="61.99386" lon="5.51422">
        <ele>280.461626</ele>
        <time>2020-07-29T12:59:55.855Z</time>
      </trkpt>
      <trkpt lat="61.99395" lon="5.51427">
        <ele>280.372537</ele>
        <time>2020-07-29T12:59:57.857Z</time>
      </trkpt>
      <trkpt lat="61.99405" lon="5.51431">
        <ele>280.279383</ele>
        <time>2020-07-29T12:59:59.842Z</time>
      </trkpt>
      <trkpt lat="61.99415" lon="5.51433">
        <ele>280.18558</ele>
        <time>2020-07-29T13:00:01.838Z</time>
      </trkpt>
      <trkpt lat="61.99425" lon="5.51435">
        <ele>280.085358</ele>
        <time>2020-07-29T13:00:03.828Z</time>
      </trkpt>
      <trkpt lat="61.99436" lon="5.51437">
        <ele>279.982255</ele>
        <time>2020-07-29T13:00:05.857Z</time>
      </trkpt>
      <trkpt lat="61.99447" lon="5.51438">
        <ele>279.875603</ele>
        <time>2020-07-29T13:00:07.828Z</time>
      </trkpt>
      <trkpt lat="61.99458" lon="5.51439">
        <ele>279.767911</ele>
        <time>2020-07-29T13:00:09.866Z</time>
      </trkpt>
      <trkpt lat="61.9947" lon="5.51441">
        <ele>279.658058</ele>
        <time>2020-07-29T13:00:11.835Z</time>
      </trkpt>
      <trkpt lat="61.99481" lon="5.51443">
        <ele>279.552074</ele>
        <time>2020-07-29T13:00:13.842Z</time>
      </trkpt>
      <trkpt lat="61.99492" lon="5.51445">
        <ele>279.448181</ele>
        <time>2020-07-29T13:00:15.861Z</time>
      </trkpt>
      <trkpt lat="61.99502" lon="5.51446">
        <ele>279.352862</ele>
        <time>2020-07-29T13:00:17.856Z</time>
      </trkpt>
      <trkpt lat="61.99511" lon="5.51446">
        <ele>279.261525</ele>
        <time>2020-07-29T13:00:19.831Z</time>
      </trkpt>
      <trkpt lat="61.99524" lon="5.51442">
        <ele>279.13662</ele>
        <time>2020-07-29T13:00:22.868Z</time>
      </trkpt>
      <trkpt lat="61.99537" lon="5.51433">
        <ele>279.016949</ele>
        <time>2020-07-29T13:00:25.856Z</time>
      </trkpt>
      <trkpt lat="61.99546" lon="5.51425">
        <ele>279.118824</ele>
        <time>2020-07-29T13:00:27.842Z</time>
      </trkpt>
      <trkpt lat="61.99555" lon="5.51417">
        <ele>279.220895</ele>
        <time>2020-07-29T13:00:29.852Z</time>
      </trkpt>
      <trkpt lat="61.99564" lon="5.51409">
        <ele>279.322185</ele>
        <time>2020-07-29T13:00:31.857Z</time>
      </trkpt>
      <trkpt lat="61.99573" lon="5.51402">
        <ele>279.424922</ele>
        <time>2020-07-29T13:00:33.844Z</time>
      </trkpt>
      <trkpt lat="61.99581" lon="5.51395">
        <ele>279.523958</ele>
        <time>2020-07-29T13:00:35.832Z</time>
      </trkpt>
      <trkpt lat="61.99591" lon="5.51388">
        <ele>279.632286</ele>
        <time>2020-07-29T13:00:37.837Z</time>
      </trkpt>
      <trkpt lat="61.996" lon="5.51384">
        <ele>279.728073</ele>
        <time>2020-07-29T13:00:39.901Z</time>
      </trkpt>
      <trkpt lat="61.99612" lon="5.51382">
        <ele>279.856517</ele>
        <time>2020-07-29T13:00:42.876Z</time>
      </trkpt>
      <trkpt lat="61.99622" lon="5.51382">
        <ele>279.965329</ele>
        <time>2020-07-29T13:00:45.863Z</time>
      </trkpt>
      <trkpt lat="61.99631" lon="5.51384">
        <ele>280.06287</ele>
        <time>2020-07-29T13:00:48.852Z</time>
      </trkpt>
      <trkpt lat="61.99641" lon="5.51387">
        <ele>280.167164</ele>
        <time>2020-07-29T13:00:51.835Z</time>
      </trkpt>
      <trkpt lat="61.99651" lon="5.51389">
        <ele>280.278606</ele>
        <time>2020-07-29T13:00:54.829Z</time>
      </trkpt>
      <trkpt lat="61.99662" lon="5.5139">
        <ele>280.394096</ele>
        <time>2020-07-29T13:00:57.847Z</time>
      </trkpt>
      <trkpt lat="61.99674" lon="5.51393">
        <ele>280.52611</ele>
        <time>2020-07-29T13:01:00.850Z</time>
      </trkpt>
      <trkpt lat="61.99687" lon="5.51396">
        <ele>280.662168</ele>
        <time>2020-07-29T13:01:03.898Z</time>
      </trkpt>
      <trkpt lat="61.997" lon="5.51398">
        <ele>280.804438</ele>
        <time>2020-07-29T13:01:06.834Z</time>
      </trkpt>
      <trkpt lat="61.9971" lon="5.514">
        <ele>280.905214</ele>
        <time>2020-07-29T13:01:08.843Z</time>
      </trkpt>
      <trkpt lat="61.9972" lon="5.51402">
        <ele>281.009288</ele>
        <time>2020-07-29T13:01:10.840Z</time>
      </trkpt>
      <trkpt lat="61.9973" lon="5.51403">
        <ele>281.112476</ele>
        <time>2020-07-29T13:01:12.845Z</time>
      </trkpt>
      <trkpt lat="61.99739" lon="5.51405">
        <ele>281.212815</ele>
        <time>2020-07-29T13:01:14.867Z</time>
      </trkpt>
      <trkpt lat="61.99749" lon="5.51409">
        <ele>281.310809</ele>
        <time>2020-07-29T13:01:16.858Z</time>
      </trkpt>
      <trkpt lat="61.99758" lon="5.51413">
        <ele>281.407798</ele>
        <time>2020-07-29T13:01:18.862Z</time>
      </trkpt>
      <trkpt lat="61.99771" lon="5.51422">
        <ele>281.544344</ele>
        <time>2020-07-29T13:01:21.856Z</time>
      </trkpt>
      <trkpt lat="61.99782" lon="5.51433">
        <ele>281.669274</ele>
        <time>2020-07-29T13:01:24.856Z</time>
      </trkpt>
      <trkpt lat="61.99792" lon="5.5144">
        <ele>281.777699</ele>
        <time>2020-07-29T13:01:27.843Z</time>
      </trkpt>
      <trkpt lat="61.99802" lon="5.51447">
        <ele>281.884996</ele>
        <time>2020-07-29T13:01:30.848Z</time>
      </trkpt>
      <trkpt lat="61.99812" lon="5.51452">
        <ele>281.991766</ele>
        <time>2020-07-29T13:01:33.840Z</time>
      </trkpt>
      <trkpt lat="61.99822" lon="5.51457">
        <ele>282.103337</ele>
        <time>2020-07-29T13:01:36.876Z</time>
      </trkpt>
      <trkpt lat="61.99833" lon="5.51462">
        <ele>282.216558</ele>
        <time>2020-07-29T13:01:39.834Z</time>
      </trkpt>
      <trkpt lat="61.99843" lon="5.51466">
        <ele>282.323153</ele>
        <time>2020-07-29T13:01:42.826Z</time>
      </trkpt>
      <trkpt lat="61.99853" lon="5.51469">
        <ele>282.423975</ele>
        <time>2020-07-29T13:01:45.835Z</time>
      </trkpt>
      <trkpt lat="61.99862" lon="5.51473">
        <ele>282.521863</ele>
        <time>2020-07-29T13:01:48.838Z</time>
      </trkpt>
      <trkpt lat="61.99871" lon="5.51477">
        <ele>282.616057</ele>
        <time>2020-07-29T13:01:51.885Z</time>
      </trkpt>
      <trkpt lat="61.9988" lon="5.51481">
        <ele>282.709823</ele>
        <time>2020-07-29T13:01:54.847Z</time>
      </trkpt>
      <trkpt lat="61.99891" lon="5.51487">
        <ele>282.881542</ele>
        <time>2020-07-29T13:01:58.880Z</time>
      </trkpt>
      <trkpt lat="61.999" lon="5.51491">
        <ele>283.138404</ele>
        <time>2020-07-29T13:02:02.882Z</time>
      </trkpt>
      <trkpt lat="61.99909" lon="5.51493">
        <ele>283.371836</ele>
        <time>2020-07-29T13:02:05.845Z</time>
      </trkpt>
      <trkpt lat="61.99921" lon="5.51498">
        <ele>283.669386</ele>
        <time>2020-07-29T13:02:09.914Z</time>
      </trkpt>
      <trkpt lat="61.99932" lon="5.51501">
        <ele>283.963067</ele>
        <time>2020-07-29T13:02:13.864Z</time>
      </trkpt>
      <trkpt lat="61.99943" lon="5.51505">
        <ele>284.24894</ele>
        <time>2020-07-29T13:02:17.836Z</time>
      </trkpt>
      <trkpt lat="61.99954" lon="5.5151">
        <ele>284.549299</ele>
        <time>2020-07-29T13:02:21.846Z</time>
      </trkpt>
      <trkpt lat="61.99966" lon="5.51516">
        <ele>284.84662</ele>
        <time>2020-07-29T13:02:25.884Z</time>
      </trkpt>
      <trkpt lat="61.99976" lon="5.51523">
        <ele>285.13526</ele>
        <time>2020-07-29T13:02:29.844Z</time>
      </trkpt>
      <trkpt lat="61.99985" lon="5.51529">
        <ele>285.369209</ele>
        <time>2020-07-29T13:02:32.853Z</time>
      </trkpt>
      <trkpt lat="61.99994" lon="5.51536">
        <ele>285.609667</ele>
        <time>2020-07-29T13:02:35.851Z</time>
      </trkpt>
      <trkpt lat="62.00003" lon="5.51542">
        <ele>285.863475</ele>
        <time>2020-07-29T13:02:38.879Z</time>
      </trkpt>
      <trkpt lat="62.00012" lon="5.5155">
        <ele>286.111454</ele>
        <time>2020-07-29T13:02:41.854Z</time>
      </trkpt>
      <trkpt lat="62.00021" lon="5.51557">
        <ele>286.360452</ele>
        <time>2020-07-29T13:02:44.854Z</time>
      </trkpt>
      <trkpt lat="62.0003" lon="5.51564">
        <ele>286.608881</ele>
        <time>2020-07-29T13:02:47.839Z</time>
      </trkpt>
      <trkpt lat="62.00039" lon="5.51572">
        <ele>286.852652</ele>
        <time>2020-07-29T13:02:50.847Z</time>
      </trkpt>
      <trkpt lat="62.00048" lon="5.5158">
        <ele>287.093527</ele>
        <time>2020-07-29T13:02:53.869Z</time>
      </trkpt>
      <trkpt lat="62.00056" lon="5.51589">
        <ele>287.329092</ele>
        <time>2020-07-29T13:02:56.853Z</time>
      </trkpt>
      <trkpt lat="62.00064" lon="5.51599">
        <ele>287.491692</ele>
        <time>2020-07-29T13:02:59.835Z</time>
      </trkpt>
      <trkpt lat="62.00071" lon="5.5161">
        <ele>287.619016</ele>
        <time>2020-07-29T13:03:02.849Z</time>
      </trkpt>
      <trkpt lat="62.0008" lon="5.51621">
        <ele>287.753149</ele>
        <time>2020-07-29T13:03:05.859Z</time>
      </trkpt>
      <trkpt lat="62.00088" lon="5.51632">
        <ele>287.8853</ele>
        <time>2020-07-29T13:03:08.889Z</time>
      </trkpt>
      <trkpt lat="62.00096" lon="5.51645">
        <ele>288.018103</ele>
        <time>2020-07-29T13:03:11.903Z</time>
      </trkpt>
      <trkpt lat="62.00103" lon="5.51658">
        <ele>288.146019</ele>
        <time>2020-07-29T13:03:14.840Z</time>
      </trkpt>
      <trkpt lat="62.0011" lon="5.51672">
        <ele>288.279972</ele>
        <time>2020-07-29T13:03:17.842Z</time>
      </trkpt>
      <trkpt lat="62.00117" lon="5.51688">
        <ele>288.416279</ele>
        <time>2020-07-29T13:03:20.849Z</time>
      </trkpt>
      <trkpt lat="62.00124" lon="5.51703">
        <ele>288.550235</ele>
        <time>2020-07-29T13:03:23.859Z</time>
      </trkpt>
      <trkpt lat="62.0013" lon="5.51718">
        <ele>288.681392</ele>
        <time>2020-07-29T13:03:26.834Z</time>
      </trkpt>
      <trkpt lat="62.00137" lon="5.51738">
        <ele>288.836332</ele>
        <time>2020-07-29T13:03:30.844Z</time>
      </trkpt>
      <trkpt lat="62.00143" lon="5.51752">
        <ele>288.960146</ele>
        <time>2020-07-29T13:03:33.848Z</time>
      </trkpt>
      <trkpt lat="62.00149" lon="5.51766">
        <ele>289.084762</ele>
        <time>2020-07-29T13:03:36.828Z</time>
      </trkpt>
      <trkpt lat="62.00156" lon="5.51779">
        <ele>289.209364</ele>
        <time>2020-07-29T13:03:39.895Z</time>
      </trkpt>
      <trkpt lat="62.00163" lon="5.51793">
        <ele>289.340776</ele>
        <time>2020-07-29T13:03:42.865Z</time>
      </trkpt>
      <trkpt lat="62.0017" lon="5.51805">
        <ele>289.468692</ele>
        <time>2020-07-29T13:03:45.857Z</time>
      </trkpt>
      <trkpt lat="62.00178" lon="5.51816">
        <ele>289.598419</ele>
        <time>2020-07-29T13:03:48.842Z</time>
      </trkpt>
      <trkpt lat="62.00186" lon="5.51828">
        <ele>289.730391</ele>
        <time>2020-07-29T13:03:51.857Z</time>
      </trkpt>
      <trkpt lat="62.00195" lon="5.51838">
        <ele>289.858995</ele>
        <time>2020-07-29T13:03:54.861Z</time>
      </trkpt>
      <trkpt lat="62.00203" lon="5.51849">
        <ele>289.823587</ele>
        <time>2020-07-29T13:03:57.890Z</time>
      </trkpt>
      <trkpt lat="62.00212" lon="5.5186">
        <ele>289.786969</ele>
        <time>2020-07-29T13:04:00.851Z</time>
      </trkpt>
      <trkpt lat="62.0022" lon="5.51871">
        <ele>289.749178</ele>
        <time>2020-07-29T13:04:03.828Z</time>
      </trkpt>
      <trkpt lat="62.0023" lon="5.51883">
        <ele>289.709376</ele>
        <time>2020-07-29T13:04:06.825Z</time>
      </trkpt>
      <trkpt lat="62.00239" lon="5.51894">
        <ele>289.671411</ele>
        <time>2020-07-29T13:04:09.834Z</time>
      </trkpt>
      <trkpt lat="62.00248" lon="5.51905">
        <ele>289.633318</ele>
        <time>2020-07-29T13:04:12.876Z</time>
      </trkpt>
      <trkpt lat="62.00257" lon="5.51916">
        <ele>289.594314</ele>
        <time>2020-07-29T13:04:15.880Z</time>
      </trkpt>
      <trkpt lat="62.00266" lon="5.51927">
        <ele>289.554279</ele>
        <time>2020-07-29T13:04:18.854Z</time>
      </trkpt>
      <trkpt lat="62.00277" lon="5.51939">
        <ele>289.511002</ele>
        <time>2020-07-29T13:04:21.880Z</time>
      </trkpt>
      <trkpt lat="62.00288" lon="5.51952">
        <ele>289.465442</ele>
        <time>2020-07-29T13:04:24.850Z</time>
      </trkpt>
      <trkpt lat="62.00299" lon="5.51964">
        <ele>289.417619</ele>
        <time>2020-07-29T13:04:27.852Z</time>
      </trkpt>
      <trkpt lat="62.00307" lon="5.51974">
        <ele>289.384534</ele>
        <time>2020-07-29T13:04:29.849Z</time>
      </trkpt>
      <trkpt lat="62.00315" lon="5.51984">
        <ele>289.349887</ele>
        <time>2020-07-29T13:04:31.841Z</time>
      </trkpt>
      <trkpt lat="62.00323" lon="5.51995">
        <ele>289.314973</ele>
        <time>2020-07-29T13:04:33.863Z</time>
      </trkpt>
      <trkpt lat="62.00331" lon="5.52005">
        <ele>289.281397</ele>
        <time>2020-07-29T13:04:35.847Z</time>
      </trkpt>
      <trkpt lat="62.00343" lon="5.5202">
        <ele>289.232094</ele>
        <time>2020-07-29T13:04:38.842Z</time>
      </trkpt>
      <trkpt lat="62.0035" lon="5.5203">
        <ele>289.19643</ele>
        <time>2020-07-29T13:04:40.854Z</time>
      </trkpt>
      <trkpt lat="62.00362" lon="5.52044">
        <ele>289.05991</ele>
        <time>2020-07-29T13:04:43.837Z</time>
      </trkpt>
      <trkpt lat="62.00374" lon="5.52056">
        <ele>288.923864</ele>
        <time>2020-07-29T13:04:46.851Z</time>
      </trkpt>
      <trkpt lat="62.00382" lon="5.52064">
        <ele>288.830174</ele>
        <time>2020-07-29T13:04:48.856Z</time>
      </trkpt>
      <trkpt lat="62.00391" lon="5.52071">
        <ele>288.733619</ele>
        <time>2020-07-29T13:04:50.873Z</time>
      </trkpt>
      <trkpt lat="62.00399" lon="5.5208">
        <ele>288.63443</ele>
        <time>2020-07-29T13:04:52.838Z</time>
      </trkpt>
      <trkpt lat="62.00408" lon="5.5209">
        <ele>288.532043</ele>
        <time>2020-07-29T13:04:54.861Z</time>
      </trkpt>
      <trkpt lat="62.00418" lon="5.521">
        <ele>288.421391</ele>
        <time>2020-07-29T13:04:56.873Z</time>
      </trkpt>
      <trkpt lat="62.00427" lon="5.5211">
        <ele>288.313123</ele>
        <time>2020-07-29T13:04:58.836Z</time>
      </trkpt>
      <trkpt lat="62.00437" lon="5.52121">
        <ele>288.204181</ele>
        <time>2020-07-29T13:05:00.843Z</time>
      </trkpt>
      <trkpt lat="62.00446" lon="5.52133">
        <ele>288.095373</ele>
        <time>2020-07-29T13:05:02.838Z</time>
      </trkpt>
      <trkpt lat="62.00455" lon="5.52144">
        <ele>287.987069</ele>
        <time>2020-07-29T13:05:04.847Z</time>
      </trkpt>
      <trkpt lat="62.00463" lon="5.52156">
        <ele>287.883095</ele>
        <time>2020-07-29T13:05:06.853Z</time>
      </trkpt>
      <trkpt lat="62.00471" lon="5.52167">
        <ele>287.782219</ele>
        <time>2020-07-29T13:05:08.848Z</time>
      </trkpt>
      <trkpt lat="62.0048" lon="5.52179">
        <ele>287.679639</ele>
        <time>2020-07-29T13:05:10.880Z</time>
      </trkpt>
      <trkpt lat="62.00488" lon="5.52191">
        <ele>287.574312</ele>
        <time>2020-07-29T13:05:12.829Z</time>
      </trkpt>
      <trkpt lat="62.00496" lon="5.52205">
        <ele>287.467014</ele>
        <time>2020-07-29T13:05:14.853Z</time>
      </trkpt>
      <trkpt lat="62.00505" lon="5.52218">
        <ele>287.358793</ele>
        <time>2020-07-29T13:05:16.863Z</time>
      </trkpt>
      <trkpt lat="62.00513" lon="5.52232">
        <ele>287.30864</ele>
        <time>2020-07-29T13:05:18.856Z</time>
      </trkpt>
      <trkpt lat="62.00521" lon="5.52246">
        <ele>287.265786</ele>
        <time>2020-07-29T13:05:20.838Z</time>
      </trkpt>
      <trkpt lat="62.00529" lon="5.5226">
        <ele>287.224466</ele>
        <time>2020-07-29T13:05:22.856Z</time>
      </trkpt>
      <trkpt lat="62.00537" lon="5.52274">
        <ele>287.18408</ele>
        <time>2020-07-29T13:05:24.851Z</time>
      </trkpt>
      <trkpt lat="62.00544" lon="5.52287">
        <ele>287.144124</ele>
        <time>2020-07-29T13:05:26.868Z</time>
      </trkpt>
      <trkpt lat="62.00552" lon="5.52301">
        <ele>287.102566</ele>
        <time>2020-07-29T13:05:28.827Z</time>
      </trkpt>
      <trkpt lat="62.0056" lon="5.52315">
        <ele>287.060695</ele>
        <time>2020-07-29T13:05:30.846Z</time>
      </trkpt>
      <trkpt lat="62.00569" lon="5.52329">
        <ele>287.019178</ele>
        <time>2020-07-29T13:05:32.857Z</time>
      </trkpt>
      <trkpt lat="62.00577" lon="5.52343">
        <ele>286.975847</ele>
        <time>2020-07-29T13:05:34.866Z</time>
      </trkpt>
      <trkpt lat="62.00585" lon="5.52358">
        <ele>286.932766</ele>
        <time>2020-07-29T13:05:36.853Z</time>
      </trkpt>
      <trkpt lat="62.00593" lon="5.52373">
        <ele>286.888764</ele>
        <time>2020-07-29T13:05:38.872Z</time>
      </trkpt>
      <trkpt lat="62.00602" lon="5.52388">
        <ele>286.843453</ele>
        <time>2020-07-29T13:05:40.849Z</time>
      </trkpt>
      <trkpt lat="62.00611" lon="5.52402">
        <ele>286.799029</ele>
        <time>2020-07-29T13:05:42.840Z</time>
      </trkpt>
      <trkpt lat="62.0062" lon="5.52415">
        <ele>286.753842</ele>
        <time>2020-07-29T13:05:44.838Z</time>
      </trkpt>
      <trkpt lat="62.0063" lon="5.52429">
        <ele>286.708108</ele>
        <time>2020-07-29T13:05:46.832Z</time>
      </trkpt>
      <trkpt lat="62.00639" lon="5.52443">
        <ele>286.661153</ele>
        <time>2020-07-29T13:05:48.858Z</time>
      </trkpt>
      <trkpt lat="62.00649" lon="5.52457">
        <ele>286.585031</ele>
        <time>2020-07-29T13:05:50.862Z</time>
      </trkpt>
      <trkpt lat="62.00659" lon="5.52472">
        <ele>286.361305</ele>
        <time>2020-07-29T13:05:52.836Z</time>
      </trkpt>
      <trkpt lat="62.00669" lon="5.52487">
        <ele>286.13097</ele>
        <time>2020-07-29T13:05:54.880Z</time>
      </trkpt>
      <trkpt lat="62.0068" lon="5.52502">
        <ele>285.894924</ele>
        <time>2020-07-29T13:05:56.876Z</time>
      </trkpt>
      <trkpt lat="62.00691" lon="5.52516">
        <ele>285.658954</ele>
        <time>2020-07-29T13:05:58.837Z</time>
      </trkpt>
      <trkpt lat="62.00702" lon="5.5253">
        <ele>285.423662</ele>
        <time>2020-07-29T13:06:00.839Z</time>
      </trkpt>
      <trkpt lat="62.00712" lon="5.52544">
        <ele>285.191979</ele>
        <time>2020-07-29T13:06:02.838Z</time>
      </trkpt>
      <trkpt lat="62.00723" lon="5.5256">
        <ele>284.951106</ele>
        <time>2020-07-29T13:06:04.888Z</time>
      </trkpt>
      <trkpt lat="62.00733" lon="5.52576">
        <ele>284.714191</ele>
        <time>2020-07-29T13:06:06.835Z</time>
      </trkpt>
      <trkpt lat="62.00743" lon="5.52593">
        <ele>284.477004</ele>
        <time>2020-07-29T13:06:08.844Z</time>
      </trkpt>
      <trkpt lat="62.00753" lon="5.52611">
        <ele>284.24014</ele>
        <time>2020-07-29T13:06:10.846Z</time>
      </trkpt>
      <trkpt lat="62.00762" lon="5.5263">
        <ele>284.003309</ele>
        <time>2020-07-29T13:06:12.835Z</time>
      </trkpt>
      <trkpt lat="62.00771" lon="5.5265">
        <ele>283.765326</ele>
        <time>2020-07-29T13:06:14.852Z</time>
      </trkpt>
      <trkpt lat="62.00779" lon="5.52671">
        <ele>283.525991</ele>
        <time>2020-07-29T13:06:16.861Z</time>
      </trkpt>
      <trkpt lat="62.00787" lon="5.52691">
        <ele>283.295851</ele>
        <time>2020-07-29T13:06:18.860Z</time>
      </trkpt>
      <trkpt lat="62.00794" lon="5.52711">
        <ele>283.223258</ele>
        <time>2020-07-29T13:06:20.840Z</time>
      </trkpt>
      <trkpt lat="62.00801" lon="5.52731">
        <ele>283.159097</ele>
        <time>2020-07-29T13:06:22.833Z</time>
      </trkpt>
      <trkpt lat="62.00807" lon="5.52751">
        <ele>283.096696</ele>
        <time>2020-07-29T13:06:24.859Z</time>
      </trkpt>
      <trkpt lat="62.00812" lon="5.52771">
        <ele>283.036024</ele>
        <time>2020-07-29T13:06:26.856Z</time>
      </trkpt>
      <trkpt lat="62.00817" lon="5.52789">
        <ele>282.98034</ele>
        <time>2020-07-29T13:06:28.832Z</time>
      </trkpt>
      <trkpt lat="62.00822" lon="5.52806">
        <ele>282.925477</ele>
        <time>2020-07-29T13:06:30.846Z</time>
      </trkpt>
      <trkpt lat="62.00827" lon="5.52825">
        <ele>282.870406</ele>
        <time>2020-07-29T13:06:32.877Z</time>
      </trkpt>
      <trkpt lat="62.00832" lon="5.52842">
        <ele>282.815835</ele>
        <time>2020-07-29T13:06:34.866Z</time>
      </trkpt>
      <trkpt lat="62.00837" lon="5.5286">
        <ele>282.763587</ele>
        <time>2020-07-29T13:06:36.840Z</time>
      </trkpt>
      <trkpt lat="62.00844" lon="5.52882">
        <ele>282.69206</ele>
        <time>2020-07-29T13:06:39.857Z</time>
      </trkpt>
      <trkpt lat="62.0085" lon="5.52907">
        <ele>282.61698</ele>
        <time>2020-07-29T13:06:42.837Z</time>
      </trkpt>
      <trkpt lat="62.00857" lon="5.52931">
        <ele>282.542588</ele>
        <time>2020-07-29T13:06:45.837Z</time>
      </trkpt>
      <trkpt lat="62.00862" lon="5.52948">
        <ele>282.490526</ele>
        <time>2020-07-29T13:06:47.837Z</time>
      </trkpt>
      <trkpt lat="62.00867" lon="5.52964">
        <ele>282.439334</ele>
        <time>2020-07-29T13:06:49.855Z</time>
      </trkpt>
      <trkpt lat="62.00873" lon="5.52979">
        <ele>282.387795</ele>
        <time>2020-07-29T13:06:51.841Z</time>
      </trkpt>
      <trkpt lat="62.00879" lon="5.52994">
        <ele>282.335963</ele>
        <time>2020-07-29T13:06:53.837Z</time>
      </trkpt>
      <trkpt lat="62.00886" lon="5.53009">
        <ele>282.279723</ele>
        <time>2020-07-29T13:06:55.857Z</time>
      </trkpt>
      <trkpt lat="62.00893" lon="5.53026">
        <ele>282.247859</ele>
        <time>2020-07-29T13:06:57.851Z</time>
      </trkpt>
      <trkpt lat="62.009" lon="5.53042">
        <ele>282.218097</ele>
        <time>2020-07-29T13:06:59.854Z</time>
      </trkpt>
      <trkpt lat="62.00907" lon="5.53057">
        <ele>282.189158</ele>
        <time>2020-07-29T13:07:01.856Z</time>
      </trkpt>
      <trkpt lat="62.00915" lon="5.53071">
        <ele>282.160604</ele>
        <time>2020-07-29T13:07:03.855Z</time>
      </trkpt>
      <trkpt lat="62.00922" lon="5.53086">
        <ele>282.131092</ele>
        <time>2020-07-29T13:07:05.867Z</time>
      </trkpt>
      <trkpt lat="62.0093" lon="5.531">
        <ele>282.101972</ele>
        <time>2020-07-29T13:07:07.895Z</time>
      </trkpt>
      <trkpt lat="62.00938" lon="5.53114">
        <ele>282.072633</ele>
        <time>2020-07-29T13:07:09.873Z</time>
      </trkpt>
      <trkpt lat="62.00946" lon="5.53128">
        <ele>282.044016</ele>
        <time>2020-07-29T13:07:11.825Z</time>
      </trkpt>
      <trkpt lat="62.00954" lon="5.5314">
        <ele>282.014586</ele>
        <time>2020-07-29T13:07:13.841Z</time>
      </trkpt>
      <trkpt lat="62.00963" lon="5.53153">
        <ele>281.985294</ele>
        <time>2020-07-29T13:07:15.833Z</time>
      </trkpt>
      <trkpt lat="62.00971" lon="5.53164">
        <ele>281.957059</ele>
        <time>2020-07-29T13:07:17.852Z</time>
      </trkpt>
      <trkpt lat="62.0098" lon="5.53175">
        <ele>281.928513</ele>
        <time>2020-07-29T13:07:19.844Z</time>
      </trkpt>
      <trkpt lat="62.00987" lon="5.53186">
        <ele>281.902324</ele>
        <time>2020-07-29T13:07:21.848Z</time>
      </trkpt>
      <trkpt lat="62.00998" lon="5.53202">
        <ele>281.864779</ele>
        <time>2020-07-29T13:07:24.865Z</time>
      </trkpt>
      <trkpt lat="62.01009" lon="5.53218">
        <ele>281.828244</ele>
        <time>2020-07-29T13:07:27.848Z</time>
      </trkpt>
      <trkpt lat="62.0102" lon="5.53233">
        <ele>281.790502</ele>
        <time>2020-07-29T13:07:30.832Z</time>
      </trkpt>
      <trkpt lat="62.01027" lon="5.53244">
        <ele>281.764774</ele>
        <time>2020-07-29T13:07:32.870Z</time>
      </trkpt>
      <trkpt lat="62.01036" lon="5.53255">
        <ele>281.287926</ele>
        <time>2020-07-29T13:07:34.881Z</time>
      </trkpt>
      <trkpt lat="62.01044" lon="5.53265">
        <ele>280.751213</ele>
        <time>2020-07-29T13:07:36.843Z</time>
      </trkpt>
      <trkpt lat="62.01055" lon="5.53274">
        <ele>280.155522</ele>
        <time>2020-07-29T13:07:38.871Z</time>
      </trkpt>
      <trkpt lat="62.01068" lon="5.5328">
        <ele>279.444879</ele>
        <time>2020-07-29T13:07:40.867Z</time>
      </trkpt>
      <trkpt lat="62.01083" lon="5.53284">
        <ele>278.641476</ele>
        <time>2020-07-29T13:07:42.833Z</time>
      </trkpt>
      <trkpt lat="62.011" lon="5.53286">
        <ele>277.762477</ele>
        <time>2020-07-29T13:07:44.851Z</time>
      </trkpt>
      <trkpt lat="62.01117" lon="5.53289">
        <ele>276.860912</ele>
        <time>2020-07-29T13:07:46.834Z</time>
      </trkpt>
      <trkpt lat="62.01134" lon="5.53295">
        <ele>275.937261</ele>
        <time>2020-07-29T13:07:48.838Z</time>
      </trkpt>
      <trkpt lat="62.01143" lon="5.53301">
        <ele>275.461041</ele>
        <time>2020-07-29T13:07:49.855Z</time>
      </trkpt>
      <trkpt lat="62.01151" lon="5.53309">
        <ele>274.961965</ele>
        <time>2020-07-29T13:07:50.885Z</time>
      </trkpt>
      <trkpt lat="62.01159" lon="5.53319">
        <ele>274.457396</ele>
        <time>2020-07-29T13:07:51.857Z</time>
      </trkpt>
      <trkpt lat="62.01167" lon="5.53331">
        <ele>273.962967</ele>
        <time>2020-07-29T13:07:52.839Z</time>
      </trkpt>
      <trkpt lat="62.01174" lon="5.53344">
        <ele>273.459129</ele>
        <time>2020-07-29T13:07:53.857Z</time>
      </trkpt>
      <trkpt lat="62.01181" lon="5.53356">
        <ele>272.978848</ele>
        <time>2020-07-29T13:07:54.828Z</time>
      </trkpt>
      <trkpt lat="62.01189" lon="5.53367">
        <ele>272.487844</ele>
        <time>2020-07-29T13:07:55.854Z</time>
      </trkpt>
      <trkpt lat="62.01197" lon="5.53376">
        <ele>271.855809</ele>
        <time>2020-07-29T13:07:56.841Z</time>
      </trkpt>
      <trkpt lat="62.01213" lon="5.53391">
        <ele>270.313292</ele>
        <time>2020-07-29T13:07:58.841Z</time>
      </trkpt>
      <trkpt lat="62.0123" lon="5.53404">
        <ele>268.820656</ele>
        <time>2020-07-29T13:08:00.847Z</time>
      </trkpt>
      <trkpt lat="62.01245" lon="5.53413">
        <ele>267.395443</ele>
        <time>2020-07-29T13:08:02.839Z</time>
      </trkpt>
      <trkpt lat="62.01261" lon="5.53412">
        <ele>266.060036</ele>
        <time>2020-07-29T13:08:04.849Z</time>
      </trkpt>
      <trkpt lat="62.01275" lon="5.53403">
        <ele>264.794513</ele>
        <time>2020-07-29T13:08:06.857Z</time>
      </trkpt>
      <trkpt lat="62.01287" lon="5.53386">
        <ele>263.54397</ele>
        <time>2020-07-29T13:08:08.839Z</time>
      </trkpt>
      <trkpt lat="62.01297" lon="5.5336">
        <ele>262.175464</ele>
        <time>2020-07-29T13:08:10.869Z</time>
      </trkpt>
      <trkpt lat="62.01307" lon="5.53335">
        <ele>260.85575</ele>
        <time>2020-07-29T13:08:12.851Z</time>
      </trkpt>
      <trkpt lat="62.0132" lon="5.53318">
        <ele>259.510128</ele>
        <time>2020-07-29T13:08:14.837Z</time>
      </trkpt>
      <trkpt lat="62.01336" lon="5.53311">
        <ele>258.104986</ele>
        <time>2020-07-29T13:08:16.861Z</time>
      </trkpt>
      <trkpt lat="62.0135" lon="5.53324">
        <ele>256.747579</ele>
        <time>2020-07-29T13:08:18.883Z</time>
      </trkpt>
      <trkpt lat="62.0136" lon="5.53358">
        <ele>255.022872</ele>
        <time>2020-07-29T13:08:20.836Z</time>
      </trkpt>
      <trkpt lat="62.01363" lon="5.5338">
        <ele>254.075876</ele>
        <time>2020-07-29T13:08:21.849Z</time>
      </trkpt>
      <trkpt lat="62.01363" lon="5.534">
        <ele>253.180816</ele>
        <time>2020-07-29T13:08:22.865Z</time>
      </trkpt>
      <trkpt lat="62.01364" lon="5.53422">
        <ele>252.274018</ele>
        <time>2020-07-29T13:08:23.847Z</time>
      </trkpt>
      <trkpt lat="62.01365" lon="5.53443">
        <ele>251.350005</ele>
        <time>2020-07-29T13:08:24.847Z</time>
      </trkpt>
      <trkpt lat="62.01366" lon="5.53464">
        <ele>250.4451</ele>
        <time>2020-07-29T13:08:25.839Z</time>
      </trkpt>
      <trkpt lat="62.01368" lon="5.53485">
        <ele>249.534699</ele>
        <time>2020-07-29T13:08:26.830Z</time>
      </trkpt>
      <trkpt lat="62.01369" lon="5.53506">
        <ele>248.632797</ele>
        <time>2020-07-29T13:08:27.853Z</time>
      </trkpt>
      <trkpt lat="62.01371" lon="5.53526">
        <ele>247.756379</ele>
        <time>2020-07-29T13:08:28.860Z</time>
      </trkpt>
      <trkpt lat="62.01372" lon="5.53546">
        <ele>246.894007</ele>
        <time>2020-07-29T13:08:29.836Z</time>
      </trkpt>
      <trkpt lat="62.01373" lon="5.53565">
        <ele>246.037397</ele>
        <time>2020-07-29T13:08:30.856Z</time>
      </trkpt>
      <trkpt lat="62.01375" lon="5.53585">
        <ele>245.201964</ele>
        <time>2020-07-29T13:08:31.844Z</time>
      </trkpt>
      <trkpt lat="62.01378" lon="5.53622">
        <ele>243.576084</ele>
        <time>2020-07-29T13:08:33.847Z</time>
      </trkpt>
      <trkpt lat="62.01383" lon="5.53659">
        <ele>241.938356</ele>
        <time>2020-07-29T13:08:35.859Z</time>
      </trkpt>
      <trkpt lat="62.01386" lon="5.53677">
        <ele>241.102477</ele>
        <time>2020-07-29T13:08:36.836Z</time>
      </trkpt>
      <trkpt lat="62.01391" lon="5.53694">
        <ele>240.246549</ele>
        <time>2020-07-29T13:08:37.836Z</time>
      </trkpt>
      <trkpt lat="62.01396" lon="5.53711">
        <ele>239.546823</ele>
        <time>2020-07-29T13:08:38.860Z</time>
      </trkpt>
      <trkpt lat="62.01402" lon="5.53729">
        <ele>238.837883</ele>
        <time>2020-07-29T13:08:39.846Z</time>
      </trkpt>
      <trkpt lat="62.01408" lon="5.53744">
        <ele>238.166585</ele>
        <time>2020-07-29T13:08:40.853Z</time>
      </trkpt>
      <trkpt lat="62.01416" lon="5.53756">
        <ele>237.463352</ele>
        <time>2020-07-29T13:08:41.844Z</time>
      </trkpt>
      <trkpt lat="62.01425" lon="5.53766">
        <ele>236.742536</ele>
        <time>2020-07-29T13:08:42.863Z</time>
      </trkpt>
      <trkpt lat="62.01434" lon="5.53776">
        <ele>236.017123</ele>
        <time>2020-07-29T13:08:43.864Z</time>
      </trkpt>
      <trkpt lat="62.01443" lon="5.53786">
        <ele>235.293255</ele>
        <time>2020-07-29T13:08:44.842Z</time>
      </trkpt>
      <trkpt lat="62.01452" lon="5.53794">
        <ele>234.577921</ele>
        <time>2020-07-29T13:08:45.851Z</time>
      </trkpt>
      <trkpt lat="62.01461" lon="5.53802">
        <ele>233.866053</ele>
        <time>2020-07-29T13:08:46.867Z</time>
      </trkpt>
      <trkpt lat="62.0147" lon="5.5381">
        <ele>233.174163</ele>
        <time>2020-07-29T13:08:47.848Z</time>
      </trkpt>
      <trkpt lat="62.01479" lon="5.53817">
        <ele>232.499587</ele>
        <time>2020-07-29T13:08:48.841Z</time>
      </trkpt>
      <trkpt lat="62.01488" lon="5.53826">
        <ele>231.822725</ele>
        <time>2020-07-29T13:08:49.844Z</time>
      </trkpt>
      <trkpt lat="62.01496" lon="5.53836">
        <ele>231.139628</ele>
        <time>2020-07-29T13:08:50.851Z</time>
      </trkpt>
      <trkpt lat="62.01504" lon="5.53847">
        <ele>230.466364</ele>
        <time>2020-07-29T13:08:51.832Z</time>
      </trkpt>
      <trkpt lat="62.01512" lon="5.53858">
        <ele>229.807548</ele>
        <time>2020-07-29T13:08:52.864Z</time>
      </trkpt>
      <trkpt lat="62.01526" lon="5.53877">
        <ele>228.595321</ele>
        <time>2020-07-29T13:08:54.855Z</time>
      </trkpt>
      <trkpt lat="62.01538" lon="5.53892">
        <ele>227.594181</ele>
        <time>2020-07-29T13:08:56.847Z</time>
      </trkpt>
      <trkpt lat="62.0155" lon="5.53905">
        <ele>226.64302</ele>
        <time>2020-07-29T13:08:58.846Z</time>
      </trkpt>
      <trkpt lat="62.01563" lon="5.53911">
        <ele>225.647297</ele>
        <time>2020-07-29T13:09:00.858Z</time>
      </trkpt>
      <trkpt lat="62.01576" lon="5.53906">
        <ele>224.692133</ele>
        <time>2020-07-29T13:09:02.837Z</time>
      </trkpt>
      <trkpt lat="62.01586" lon="5.53888">
        <ele>223.732535</ele>
        <time>2020-07-29T13:09:04.835Z</time>
      </trkpt>
      <trkpt lat="62.01596" lon="5.53865">
        <ele>222.651301</ele>
        <time>2020-07-29T13:09:06.852Z</time>
      </trkpt>
      <trkpt lat="62.01609" lon="5.53842">
        <ele>221.377567</ele>
        <time>2020-07-29T13:09:08.859Z</time>
      </trkpt>
      <trkpt lat="62.01617" lon="5.5383">
        <ele>220.692863</ele>
        <time>2020-07-29T13:09:09.836Z</time>
      </trkpt>
      <trkpt lat="62.01625" lon="5.5382">
        <ele>219.988471</ele>
        <time>2020-07-29T13:09:10.840Z</time>
      </trkpt>
      <trkpt lat="62.01634" lon="5.53809">
        <ele>219.250717</ele>
        <time>2020-07-29T13:09:11.852Z</time>
      </trkpt>
      <trkpt lat="62.01643" lon="5.53797">
        <ele>218.478214</ele>
        <time>2020-07-29T13:09:12.847Z</time>
      </trkpt>
      <trkpt lat="62.01651" lon="5.53786">
        <ele>217.718244</ele>
        <time>2020-07-29T13:09:13.859Z</time>
      </trkpt>
      <trkpt lat="62.0166" lon="5.53774">
        <ele>216.96749</ele>
        <time>2020-07-29T13:09:14.867Z</time>
      </trkpt>
      <trkpt lat="62.01668" lon="5.5376">
        <ele>216.222288</ele>
        <time>2020-07-29T13:09:15.836Z</time>
      </trkpt>
      <trkpt lat="62.01675" lon="5.53746">
        <ele>215.473907</ele>
        <time>2020-07-29T13:09:16.914Z</time>
      </trkpt>
      <trkpt lat="62.01682" lon="5.5373">
        <ele>214.735089</ele>
        <time>2020-07-29T13:09:17.868Z</time>
      </trkpt>
      <trkpt lat="62.01689" lon="5.53714">
        <ele>213.934192</ele>
        <time>2020-07-29T13:09:18.865Z</time>
      </trkpt>
      <trkpt lat="62.01695" lon="5.53697">
        <ele>212.830364</ele>
        <time>2020-07-29T13:09:19.898Z</time>
      </trkpt>
      <trkpt lat="62.01701" lon="5.5368">
        <ele>211.714023</ele>
        <time>2020-07-29T13:09:20.840Z</time>
      </trkpt>
      <trkpt lat="62.01706" lon="5.53661">
        <ele>210.60531</ele>
        <time>2020-07-29T13:09:21.836Z</time>
      </trkpt>
      <trkpt lat="62.0171" lon="5.53641">
        <ele>209.472011</ele>
        <time>2020-07-29T13:09:22.851Z</time>
      </trkpt>
      <trkpt lat="62.01715" lon="5.53621">
        <ele>208.328811</ele>
        <time>2020-07-29T13:09:23.885Z</time>
      </trkpt>
      <trkpt lat="62.01718" lon="5.536">
        <ele>207.182937</ele>
        <time>2020-07-29T13:09:24.864Z</time>
      </trkpt>
      <trkpt lat="62.01721" lon="5.53578">
        <ele>206.032423</ele>
        <time>2020-07-29T13:09:25.845Z</time>
      </trkpt>
      <trkpt lat="62.01725" lon="5.53558">
        <ele>204.907532</ele>
        <time>2020-07-29T13:09:26.848Z</time>
      </trkpt>
      <trkpt lat="62.01728" lon="5.53538">
        <ele>203.824611</ele>
        <time>2020-07-29T13:09:27.839Z</time>
      </trkpt>
      <trkpt lat="62.01733" lon="5.53521">
        <ele>202.793303</ele>
        <time>2020-07-29T13:09:28.837Z</time>
      </trkpt>
      <trkpt lat="62.01737" lon="5.53504">
        <ele>201.790166</ele>
        <time>2020-07-29T13:09:29.869Z</time>
      </trkpt>
      <trkpt lat="62.01749" lon="5.53476">
        <ele>199.844313</ele>
        <time>2020-07-29T13:09:31.834Z</time>
      </trkpt>
      <trkpt lat="62.01765" lon="5.53457">
        <ele>197.913932</ele>
        <time>2020-07-29T13:09:33.836Z</time>
      </trkpt>
      <trkpt lat="62.01781" lon="5.53443">
        <ele>195.939978</ele>
        <time>2020-07-29T13:09:35.864Z</time>
      </trkpt>
      <trkpt lat="62.0179" lon="5.53436">
        <ele>194.929546</ele>
        <time>2020-07-29T13:09:36.844Z</time>
      </trkpt>
      <trkpt lat="62.01806" lon="5.53424">
        <ele>193.364235</ele>
        <time>2020-07-29T13:09:38.881Z</time>
      </trkpt>
      <trkpt lat="62.01823" lon="5.53413">
        <ele>191.946855</ele>
        <time>2020-07-29T13:09:40.857Z</time>
      </trkpt>
      <trkpt lat="62.01839" lon="5.53402">
        <ele>190.553624</ele>
        <time>2020-07-29T13:09:42.840Z</time>
      </trkpt>
      <trkpt lat="62.01854" lon="5.5339">
        <ele>189.213451</ele>
        <time>2020-07-29T13:09:44.853Z</time>
      </trkpt>
      <trkpt lat="62.0187" lon="5.53379">
        <ele>187.897761</ele>
        <time>2020-07-29T13:09:46.845Z</time>
      </trkpt>
      <trkpt lat="62.01885" lon="5.53373">
        <ele>186.606522</ele>
        <time>2020-07-29T13:09:48.837Z</time>
      </trkpt>
      <trkpt lat="62.01899" lon="5.53379">
        <ele>185.446527</ele>
        <time>2020-07-29T13:09:50.843Z</time>
      </trkpt>
      <trkpt lat="62.0191" lon="5.53397">
        <ele>184.2774</ele>
        <time>2020-07-29T13:09:52.880Z</time>
      </trkpt>
      <trkpt lat="62.01916" lon="5.53424">
        <ele>183.15458</ele>
        <time>2020-07-29T13:09:54.873Z</time>
      </trkpt>
      <trkpt lat="62.01911" lon="5.53452">
        <ele>182.026116</ele>
        <time>2020-07-29T13:09:56.849Z</time>
      </trkpt>
      <trkpt lat="62.01899" lon="5.53469">
        <ele>180.799448</ele>
        <time>2020-07-29T13:09:58.864Z</time>
      </trkpt>
      <trkpt lat="62.01886" lon="5.53479">
        <ele>179.69491</ele>
        <time>2020-07-29T13:10:00.841Z</time>
      </trkpt>
      <trkpt lat="62.01874" lon="5.53487">
        <ele>178.836312</ele>
        <time>2020-07-29T13:10:02.851Z</time>
      </trkpt>
      <trkpt lat="62.01862" lon="5.53497">
        <ele>177.981018</ele>
        <time>2020-07-29T13:10:04.840Z</time>
      </trkpt>
      <trkpt lat="62.01851" lon="5.53511">
        <ele>177.127249</ele>
        <time>2020-07-29T13:10:06.851Z</time>
      </trkpt>
      <trkpt lat="62.01842" lon="5.53529">
        <ele>176.255411</ele>
        <time>2020-07-29T13:10:08.855Z</time>
      </trkpt>
      <trkpt lat="62.01832" lon="5.53549">
        <ele>175.331527</ele>
        <time>2020-07-29T13:10:10.848Z</time>
      </trkpt>
      <trkpt lat="62.01823" lon="5.53571">
        <ele>174.438532</ele>
        <time>2020-07-29T13:10:12.836Z</time>
      </trkpt>
      <trkpt lat="62.01817" lon="5.53592">
        <ele>173.645039</ele>
        <time>2020-07-29T13:10:14.842Z</time>
      </trkpt>
      <trkpt lat="62.01816" lon="5.53612">
        <ele>173.017773</ele>
        <time>2020-07-29T13:10:16.891Z</time>
      </trkpt>
      <trkpt lat="62.01822" lon="5.5363">
        <ele>172.336714</ele>
        <time>2020-07-29T13:10:18.876Z</time>
      </trkpt>
      <trkpt lat="62.0183" lon="5.53639">
        <ele>171.699144</ele>
        <time>2020-07-29T13:10:20.839Z</time>
      </trkpt>
      <trkpt lat="62.01844" lon="5.53634">
        <ele>170.777233</ele>
        <time>2020-07-29T13:10:23.841Z</time>
      </trkpt>
      <trkpt lat="62.01853" lon="5.53623">
        <ele>170.057636</ele>
        <time>2020-07-29T13:10:25.854Z</time>
      </trkpt>
      <trkpt lat="62.01864" lon="5.53611">
        <ele>169.237351</ele>
        <time>2020-07-29T13:10:27.886Z</time>
      </trkpt>
      <trkpt lat="62.01878" lon="5.53602">
        <ele>168.27465</ele>
        <time>2020-07-29T13:10:29.848Z</time>
      </trkpt>
      <trkpt lat="62.01893" lon="5.53599">
        <ele>167.257078</ele>
        <time>2020-07-29T13:10:31.839Z</time>
      </trkpt>
      <trkpt lat="62.01909" lon="5.53598">
        <ele>166.17805</ele>
        <time>2020-07-29T13:10:33.843Z</time>
      </trkpt>
      <trkpt lat="62.01925" lon="5.53602">
        <ele>165.079582</ele>
        <time>2020-07-29T13:10:35.848Z</time>
      </trkpt>
      <trkpt lat="62.01939" lon="5.53612">
        <ele>164.045049</ele>
        <time>2020-07-29T13:10:37.854Z</time>
      </trkpt>
      <trkpt lat="62.01953" lon="5.53629">
        <ele>162.990292</ele>
        <time>2020-07-29T13:10:39.839Z</time>
      </trkpt>
      <trkpt lat="62.01968" lon="5.53638">
        <ele>161.93528</ele>
        <time>2020-07-29T13:10:41.884Z</time>
      </trkpt>
      <trkpt lat="62.01985" lon="5.53634">
        <ele>160.776461</ele>
        <time>2020-07-29T13:10:43.842Z</time>
      </trkpt>
      <trkpt lat="62.02001" lon="5.53619">
        <ele>159.594142</ele>
        <time>2020-07-29T13:10:45.836Z</time>
      </trkpt>
      <trkpt lat="62.02015" lon="5.53594">
        <ele>158.390494</ele>
        <time>2020-07-29T13:10:47.848Z</time>
      </trkpt>
      <trkpt lat="62.02021" lon="5.5358">
        <ele>157.760128</ele>
        <time>2020-07-29T13:10:48.852Z</time>
      </trkpt>
      <trkpt lat="62.02028" lon="5.53565">
        <ele>157.102623</ele>
        <time>2020-07-29T13:10:49.881Z</time>
      </trkpt>
      <trkpt lat="62.02034" lon="5.5355">
        <ele>156.451086</ele>
        <time>2020-07-29T13:10:50.850Z</time>
      </trkpt>
      <trkpt lat="62.0204" lon="5.53533">
        <ele>155.792723</ele>
        <time>2020-07-29T13:10:51.837Z</time>
      </trkpt>
      <trkpt lat="62.02045" lon="5.53515">
        <ele>155.101909</ele>
        <time>2020-07-29T13:10:52.833Z</time>
      </trkpt>
      <trkpt lat="62.02051" lon="5.53498">
        <ele>154.362666</ele>
        <time>2020-07-29T13:10:53.854Z</time>
      </trkpt>
      <trkpt lat="62.02056" lon="5.5348">
        <ele>153.60794</ele>
        <time>2020-07-29T13:10:54.836Z</time>
      </trkpt>
      <trkpt lat="62.02063" lon="5.53463">
        <ele>152.838139</ele>
        <time>2020-07-29T13:10:55.839Z</time>
      </trkpt>
      <trkpt lat="62.02069" lon="5.53447">
        <ele>152.079355</ele>
        <time>2020-07-29T13:10:56.852Z</time>
      </trkpt>
      <trkpt lat="62.02076" lon="5.53432">
        <ele>151.341374</ele>
        <time>2020-07-29T13:10:57.877Z</time>
      </trkpt>
      <trkpt lat="62.02083" lon="5.53419">
        <ele>150.615978</ele>
        <time>2020-07-29T13:10:58.866Z</time>
      </trkpt>
      <trkpt lat="62.02091" lon="5.53406">
        <ele>149.881646</ele>
        <time>2020-07-29T13:10:59.839Z</time>
      </trkpt>
      <trkpt lat="62.02099" lon="5.53394">
        <ele>149.16425</ele>
        <time>2020-07-29T13:11:00.856Z</time>
      </trkpt>
      <trkpt lat="62.02107" lon="5.53384">
        <ele>148.47101</ele>
        <time>2020-07-29T13:11:01.837Z</time>
      </trkpt>
      <trkpt lat="62.02123" lon="5.53368">
        <ele>147.131053</ele>
        <time>2020-07-29T13:11:03.883Z</time>
      </trkpt>
      <trkpt lat="62.02139" lon="5.53359">
        <ele>145.808914</ele>
        <time>2020-07-29T13:11:05.839Z</time>
      </trkpt>
      <trkpt lat="62.02155" lon="5.53361">
        <ele>144.610139</ele>
        <time>2020-07-29T13:11:07.829Z</time>
      </trkpt>
      <trkpt lat="62.02172" lon="5.53367">
        <ele>143.337645</ele>
        <time>2020-07-29T13:11:09.856Z</time>
      </trkpt>
      <trkpt lat="62.02189" lon="5.53363">
        <ele>142.036319</ele>
        <time>2020-07-29T13:11:11.861Z</time>
      </trkpt>
      <trkpt lat="62.02203" lon="5.53354">
        <ele>140.530545</ele>
        <time>2020-07-29T13:11:13.853Z</time>
      </trkpt>
      <trkpt lat="62.02216" lon="5.53347">
        <ele>138.968024</ele>
        <time>2020-07-29T13:11:15.880Z</time>
      </trkpt>
      <trkpt lat="62.02227" lon="5.53343">
        <ele>137.657853</ele>
        <time>2020-07-29T13:11:17.855Z</time>
      </trkpt>
      <trkpt lat="62.0224" lon="5.53343">
        <ele>136.198629</ele>
        <time>2020-07-29T13:11:20.853Z</time>
      </trkpt>
      <trkpt lat="62.02249" lon="5.5334">
        <ele>135.142466</ele>
        <time>2020-07-29T13:11:22.863Z</time>
      </trkpt>
      <trkpt lat="62.02259" lon="5.53333">
        <ele>133.90989</ele>
        <time>2020-07-29T13:11:24.854Z</time>
      </trkpt>
      <trkpt lat="62.02269" lon="5.53317">
        <ele>132.525751</ele>
        <time>2020-07-29T13:11:26.856Z</time>
      </trkpt>
      <trkpt lat="62.02278" lon="5.53297">
        <ele>131.020444</ele>
        <time>2020-07-29T13:11:28.860Z</time>
      </trkpt>
      <trkpt lat="62.02288" lon="5.53279">
        <ele>129.469263</ele>
        <time>2020-07-29T13:11:30.839Z</time>
      </trkpt>
      <trkpt lat="62.02301" lon="5.53267">
        <ele>127.816571</ele>
        <time>2020-07-29T13:11:32.859Z</time>
      </trkpt>
      <trkpt lat="62.02316" lon="5.53262">
        <ele>126.074194</ele>
        <time>2020-07-29T13:11:34.860Z</time>
      </trkpt>
      <trkpt lat="62.02332" lon="5.53274">
        <ele>124.165412</ele>
        <time>2020-07-29T13:11:36.836Z</time>
      </trkpt>
      <trkpt lat="62.0234" lon="5.53284">
        <ele>123.142291</ele>
        <time>2020-07-29T13:11:37.838Z</time>
      </trkpt>
      <trkpt lat="62.02355" lon="5.533">
        <ele>121.168687</ele>
        <time>2020-07-29T13:11:39.843Z</time>
      </trkpt>
      <trkpt lat="62.02371" lon="5.53312">
        <ele>119.533778</ele>
        <time>2020-07-29T13:11:41.844Z</time>
      </trkpt>
      <trkpt lat="62.02388" lon="5.53318">
        <ele>117.865641</ele>
        <time>2020-07-29T13:11:43.844Z</time>
      </trkpt>
      <trkpt lat="62.02404" lon="5.53317">
        <ele>116.293836</ele>
        <time>2020-07-29T13:11:45.880Z</time>
      </trkpt>
      <trkpt lat="62.02419" lon="5.53306">
        <ele>114.745928</ele>
        <time>2020-07-29T13:11:47.847Z</time>
      </trkpt>
      <trkpt lat="62.02432" lon="5.53283">
        <ele>113.199043</ele>
        <time>2020-07-29T13:11:49.856Z</time>
      </trkpt>
      <trkpt lat="62.02439" lon="5.53252">
        <ele>111.621774</ele>
        <time>2020-07-29T13:11:51.835Z</time>
      </trkpt>
      <trkpt lat="62.02444" lon="5.5322">
        <ele>110.096215</ele>
        <time>2020-07-29T13:11:53.899Z</time>
      </trkpt>
      <trkpt lat="62.02449" lon="5.53188">
        <ele>108.559069</ele>
        <time>2020-07-29T13:11:55.873Z</time>
      </trkpt>
      <trkpt lat="62.02456" lon="5.53158">
        <ele>107.057452</ele>
        <time>2020-07-29T13:11:57.842Z</time>
      </trkpt>
      <trkpt lat="62.02465" lon="5.53131">
        <ele>105.58088</ele>
        <time>2020-07-29T13:11:59.846Z</time>
      </trkpt>
      <trkpt lat="62.02478" lon="5.5311">
        <ele>103.957848</ele>
        <time>2020-07-29T13:12:01.874Z</time>
      </trkpt>
      <trkpt lat="62.02487" lon="5.53104">
        <ele>103.128289</ele>
        <time>2020-07-29T13:12:02.853Z</time>
      </trkpt>
      <trkpt lat="62.02496" lon="5.53103">
        <ele>102.285806</ele>
        <time>2020-07-29T13:12:03.843Z</time>
      </trkpt>
      <trkpt lat="62.02506" lon="5.53103">
        <ele>101.428468</ele>
        <time>2020-07-29T13:12:04.864Z</time>
      </trkpt>
      <trkpt lat="62.02515" lon="5.53104">
        <ele>100.613033</ele>
        <time>2020-07-29T13:12:05.852Z</time>
      </trkpt>
      <trkpt lat="62.02532" lon="5.53112">
        <ele>99.075735</ele>
        <time>2020-07-29T13:12:07.856Z</time>
      </trkpt>
      <trkpt lat="62.0254" lon="5.53122">
        <ele>98.263974</ele>
        <time>2020-07-29T13:12:08.841Z</time>
      </trkpt>
      <trkpt lat="62.02547" lon="5.53134">
        <ele>97.421471</ele>
        <time>2020-07-29T13:12:09.864Z</time>
      </trkpt>
      <trkpt lat="62.02555" lon="5.53146">
        <ele>96.593681</ele>
        <time>2020-07-29T13:12:10.872Z</time>
      </trkpt>
      <trkpt lat="62.02569" lon="5.53167">
        <ele>95.011542</ele>
        <time>2020-07-29T13:12:12.843Z</time>
      </trkpt>
      <trkpt lat="62.02585" lon="5.53182">
        <ele>93.486846</ele>
        <time>2020-07-29T13:12:14.841Z</time>
      </trkpt>
      <trkpt lat="62.026" lon="5.53185">
        <ele>92.121515</ele>
        <time>2020-07-29T13:12:16.885Z</time>
      </trkpt>
      <trkpt lat="62.02615" lon="5.53178">
        <ele>90.754284</ele>
        <time>2020-07-29T13:12:18.843Z</time>
      </trkpt>
      <trkpt lat="62.02628" lon="5.53158">
        <ele>89.344457</ele>
        <time>2020-07-29T13:12:20.874Z</time>
      </trkpt>
      <trkpt lat="62.02638" lon="5.53129">
        <ele>87.824999</ele>
        <time>2020-07-29T13:12:22.833Z</time>
      </trkpt>
      <trkpt lat="62.02641" lon="5.53109">
        <ele>87.133819</ele>
        <time>2020-07-29T13:12:23.863Z</time>
      </trkpt>
      <trkpt lat="62.02643" lon="5.53089">
        <ele>86.443375</ele>
        <time>2020-07-29T13:12:24.848Z</time>
      </trkpt>
      <trkpt lat="62.02645" lon="5.53069">
        <ele>85.770402</ele>
        <time>2020-07-29T13:12:25.902Z</time>
      </trkpt>
      <trkpt lat="62.02647" lon="5.53049">
        <ele>85.105425</ele>
        <time>2020-07-29T13:12:26.847Z</time>
      </trkpt>
      <trkpt lat="62.0265" lon="5.53029">
        <ele>84.438968</ele>
        <time>2020-07-29T13:12:27.860Z</time>
      </trkpt>
      <trkpt lat="62.02654" lon="5.5301">
        <ele>83.763956</ele>
        <time>2020-07-29T13:12:28.853Z</time>
      </trkpt>
      <trkpt lat="62.02659" lon="5.52992">
        <ele>83.069643</ele>
        <time>2020-07-29T13:12:29.854Z</time>
      </trkpt>
      <trkpt lat="62.02665" lon="5.52974">
        <ele>82.34664</ele>
        <time>2020-07-29T13:12:30.856Z</time>
      </trkpt>
      <trkpt lat="62.02671" lon="5.52956">
        <ele>81.62471</ele>
        <time>2020-07-29T13:12:31.863Z</time>
      </trkpt>
      <trkpt lat="62.02678" lon="5.52939">
        <ele>80.906551</ele>
        <time>2020-07-29T13:12:32.839Z</time>
      </trkpt>
      <trkpt lat="62.02685" lon="5.52924">
        <ele>80.205791</ele>
        <time>2020-07-29T13:12:33.839Z</time>
      </trkpt>
      <trkpt lat="62.02691" lon="5.52908">
        <ele>79.516964</ele>
        <time>2020-07-29T13:12:34.864Z</time>
      </trkpt>
      <trkpt lat="62.02698" lon="5.52894">
        <ele>78.831956</ele>
        <time>2020-07-29T13:12:35.845Z</time>
      </trkpt>
      <trkpt lat="62.02706" lon="5.5288">
        <ele>78.148084</ele>
        <time>2020-07-29T13:12:36.888Z</time>
      </trkpt>
      <trkpt lat="62.02714" lon="5.52868">
        <ele>77.455228</ele>
        <time>2020-07-29T13:12:37.853Z</time>
      </trkpt>
      <trkpt lat="62.02722" lon="5.52857">
        <ele>76.776049</ele>
        <time>2020-07-29T13:12:38.868Z</time>
      </trkpt>
      <trkpt lat="62.02731" lon="5.52848">
        <ele>76.105147</ele>
        <time>2020-07-29T13:12:39.848Z</time>
      </trkpt>
      <trkpt lat="62.0274" lon="5.52841">
        <ele>75.405913</ele>
        <time>2020-07-29T13:12:40.845Z</time>
      </trkpt>
      <trkpt lat="62.02751" lon="5.52838">
        <ele>74.580617</ele>
        <time>2020-07-29T13:12:41.836Z</time>
      </trkpt>
      <trkpt lat="62.02761" lon="5.5284">
        <ele>73.757851</ele>
        <time>2020-07-29T13:12:42.859Z</time>
      </trkpt>
      <trkpt lat="62.02771" lon="5.52846">
        <ele>72.931288</ele>
        <time>2020-07-29T13:12:43.855Z</time>
      </trkpt>
      <trkpt lat="62.02781" lon="5.52854">
        <ele>72.064318</ele>
        <time>2020-07-29T13:12:44.865Z</time>
      </trkpt>
      <trkpt lat="62.02791" lon="5.52863">
        <ele>71.189136</ele>
        <time>2020-07-29T13:12:45.873Z</time>
      </trkpt>
      <trkpt lat="62.028" lon="5.52872">
        <ele>70.339329</ele>
        <time>2020-07-29T13:12:46.846Z</time>
      </trkpt>
      <trkpt lat="62.0281" lon="5.5288">
        <ele>69.498485</ele>
        <time>2020-07-29T13:12:47.836Z</time>
      </trkpt>
      <trkpt lat="62.02819" lon="5.52889">
        <ele>68.694997</ele>
        <time>2020-07-29T13:12:48.848Z</time>
      </trkpt>
      <trkpt lat="62.02828" lon="5.52897">
        <ele>67.906331</ele>
        <time>2020-07-29T13:12:49.856Z</time>
      </trkpt>
      <trkpt lat="62.02837" lon="5.52904">
        <ele>67.115695</ele>
        <time>2020-07-29T13:12:50.847Z</time>
      </trkpt>
      <trkpt lat="62.02846" lon="5.52911">
        <ele>66.341582</ele>
        <time>2020-07-29T13:12:51.884Z</time>
      </trkpt>
      <trkpt lat="62.02855" lon="5.52919">
        <ele>65.557505</ele>
        <time>2020-07-29T13:12:52.851Z</time>
      </trkpt>
      <trkpt lat="62.02864" lon="5.52927">
        <ele>64.77581</ele>
        <time>2020-07-29T13:12:53.857Z</time>
      </trkpt>
      <trkpt lat="62.02873" lon="5.52932">
        <ele>64.038071</ele>
        <time>2020-07-29T13:12:54.841Z</time>
      </trkpt>
      <trkpt lat="62.02881" lon="5.52935">
        <ele>63.306001</ele>
        <time>2020-07-29T13:12:55.839Z</time>
      </trkpt>
      <trkpt lat="62.02899" lon="5.5293">
        <ele>61.870571</ele>
        <time>2020-07-29T13:12:57.853Z</time>
      </trkpt>
      <trkpt lat="62.02908" lon="5.52922">
        <ele>61.10877</ele>
        <time>2020-07-29T13:12:58.844Z</time>
      </trkpt>
      <trkpt lat="62.02916" lon="5.52912">
        <ele>60.377336</ele>
        <time>2020-07-29T13:12:59.878Z</time>
      </trkpt>
      <trkpt lat="62.02924" lon="5.52901">
        <ele>59.753694</ele>
        <time>2020-07-29T13:13:00.860Z</time>
      </trkpt>
      <trkpt lat="62.02933" lon="5.5289">
        <ele>59.091656</ele>
        <time>2020-07-29T13:13:01.841Z</time>
      </trkpt>
      <trkpt lat="62.02942" lon="5.5288">
        <ele>58.427313</ele>
        <time>2020-07-29T13:13:02.871Z</time>
      </trkpt>
      <trkpt lat="62.02952" lon="5.5287">
        <ele>57.739759</ele>
        <time>2020-07-29T13:13:03.864Z</time>
      </trkpt>
      <trkpt lat="62.02961" lon="5.5286">
        <ele>57.041098</ele>
        <time>2020-07-29T13:13:04.861Z</time>
      </trkpt>
      <trkpt lat="62.02971" lon="5.5285">
        <ele>56.333443</ele>
        <time>2020-07-29T13:13:05.859Z</time>
      </trkpt>
      <trkpt lat="62.02982" lon="5.5284">
        <ele>55.610738</ele>
        <time>2020-07-29T13:13:06.873Z</time>
      </trkpt>
      <trkpt lat="62.02992" lon="5.52831">
        <ele>54.875098</ele>
        <time>2020-07-29T13:13:07.872Z</time>
      </trkpt>
      <trkpt lat="62.03003" lon="5.52822">
        <ele>54.104042</ele>
        <time>2020-07-29T13:13:08.883Z</time>
      </trkpt>
      <trkpt lat="62.03015" lon="5.52815">
        <ele>53.315696</ele>
        <time>2020-07-29T13:13:09.846Z</time>
      </trkpt>
      <trkpt lat="62.03027" lon="5.52809">
        <ele>52.513885</ele>
        <time>2020-07-29T13:13:10.846Z</time>
      </trkpt>
      <trkpt lat="62.03039" lon="5.52804">
        <ele>51.700314</ele>
        <time>2020-07-29T13:13:11.861Z</time>
      </trkpt>
      <trkpt lat="62.03052" lon="5.52799">
        <ele>50.879852</ele>
        <time>2020-07-29T13:13:12.856Z</time>
      </trkpt>
      <trkpt lat="62.03065" lon="5.52794">
        <ele>50.051944</ele>
        <time>2020-07-29T13:13:13.871Z</time>
      </trkpt>
      <trkpt lat="62.03077" lon="5.52789">
        <ele>49.244193</ele>
        <time>2020-07-29T13:13:14.834Z</time>
      </trkpt>
      <trkpt lat="62.03089" lon="5.52784">
        <ele>48.659886</ele>
        <time>2020-07-29T13:13:15.889Z</time>
      </trkpt>
      <trkpt lat="62.03101" lon="5.52779">
        <ele>48.192784</ele>
        <time>2020-07-29T13:13:16.844Z</time>
      </trkpt>
      <trkpt lat="62.03112" lon="5.52775">
        <ele>47.749755</ele>
        <time>2020-07-29T13:13:17.850Z</time>
      </trkpt>
      <trkpt lat="62.03123" lon="5.52771">
        <ele>47.314312</ele>
        <time>2020-07-29T13:13:18.837Z</time>
      </trkpt>
      <trkpt lat="62.03134" lon="5.52766">
        <ele>46.894027</ele>
        <time>2020-07-29T13:13:19.862Z</time>
      </trkpt>
      <trkpt lat="62.03144" lon="5.52762">
        <ele>46.477529</ele>
        <time>2020-07-29T13:13:20.833Z</time>
      </trkpt>
      <trkpt lat="62.03155" lon="5.52758">
        <ele>46.077535</ele>
        <time>2020-07-29T13:13:21.848Z</time>
      </trkpt>
      <trkpt lat="62.03164" lon="5.52754">
        <ele>45.693367</ele>
        <time>2020-07-29T13:13:22.842Z</time>
      </trkpt>
      <trkpt lat="62.03174" lon="5.5275">
        <ele>45.316786</ele>
        <time>2020-07-29T13:13:23.839Z</time>
      </trkpt>
      <trkpt lat="62.03184" lon="5.52747">
        <ele>44.944646</ele>
        <time>2020-07-29T13:13:24.865Z</time>
      </trkpt>
      <trkpt lat="62.03193" lon="5.52743">
        <ele>44.584215</ele>
        <time>2020-07-29T13:13:25.835Z</time>
      </trkpt>
      <trkpt lat="62.03202" lon="5.5274">
        <ele>44.231695</ele>
        <time>2020-07-29T13:13:26.841Z</time>
      </trkpt>
      <trkpt lat="62.03219" lon="5.52733">
        <ele>43.56805</ele>
        <time>2020-07-29T13:13:28.843Z</time>
      </trkpt>
      <trkpt lat="62.03235" lon="5.52727">
        <ele>42.910777</ele>
        <time>2020-07-29T13:13:30.863Z</time>
      </trkpt>
      <trkpt lat="62.03251" lon="5.52722">
        <ele>42.287856</ele>
        <time>2020-07-29T13:13:32.860Z</time>
      </trkpt>
      <trkpt lat="62.03267" lon="5.52718">
        <ele>42.202977</ele>
        <time>2020-07-29T13:13:34.872Z</time>
      </trkpt>
      <trkpt lat="62.03282" lon="5.52717">
        <ele>42.496317</ele>
        <time>2020-07-29T13:13:36.851Z</time>
      </trkpt>
      <trkpt lat="62.03296" lon="5.52717">
        <ele>42.779773</ele>
        <time>2020-07-29T13:13:38.843Z</time>
      </trkpt>
      <trkpt lat="62.0331" lon="5.52719">
        <ele>43.045985</ele>
        <time>2020-07-29T13:13:40.835Z</time>
      </trkpt>
      <trkpt lat="62.03323" lon="5.52723">
        <ele>43.302877</ele>
        <time>2020-07-29T13:13:42.887Z</time>
      </trkpt>
      <trkpt lat="62.03335" lon="5.52727">
        <ele>43.546834</ele>
        <time>2020-07-29T13:13:44.846Z</time>
      </trkpt>
      <trkpt lat="62.03347" lon="5.52733">
        <ele>43.777025</ele>
        <time>2020-07-29T13:13:46.882Z</time>
      </trkpt>
      <trkpt lat="62.03358" lon="5.5274">
        <ele>43.996636</ele>
        <time>2020-07-29T13:13:48.863Z</time>
      </trkpt>
      <trkpt lat="62.03367" lon="5.52747">
        <ele>44.200239</ele>
        <time>2020-07-29T13:13:50.855Z</time>
      </trkpt>
      <trkpt lat="62.03377" lon="5.52754">
        <ele>44.389349</ele>
        <time>2020-07-29T13:13:52.850Z</time>
      </trkpt>
      <trkpt lat="62.03385" lon="5.52762">
        <ele>44.570241</ele>
        <time>2020-07-29T13:13:54.877Z</time>
      </trkpt>
      <trkpt lat="62.03394" lon="5.5277">
        <ele>44.754024</ele>
        <time>2020-07-29T13:13:56.863Z</time>
      </trkpt>
      <trkpt lat="62.03402" lon="5.52778">
        <ele>44.940098</ele>
        <time>2020-07-29T13:13:58.858Z</time>
      </trkpt>
      <trkpt lat="62.0341" lon="5.52787">
        <ele>45.118732</ele>
        <time>2020-07-29T13:14:00.915Z</time>
      </trkpt>
      <trkpt lat="62.03419" lon="5.52796">
        <ele>45.300341</ele>
        <time>2020-07-29T13:14:02.848Z</time>
      </trkpt>
      <trkpt lat="62.0343" lon="5.52809">
        <ele>45.554248</ele>
        <time>2020-07-29T13:14:05.851Z</time>
      </trkpt>
      <trkpt lat="62.03441" lon="5.52824">
        <ele>46.190532</ele>
        <time>2020-07-29T13:14:08.858Z</time>
      </trkpt>
      <trkpt lat="62.03451" lon="5.52839">
        <ele>46.834808</ele>
        <time>2020-07-29T13:14:11.845Z</time>
      </trkpt>
      <trkpt lat="62.03462" lon="5.52856">
        <ele>47.473653</ele>
        <time>2020-07-29T13:14:14.843Z</time>
      </trkpt>
      <trkpt lat="62.03471" lon="5.52873">
        <ele>48.071417</ele>
        <time>2020-07-29T13:14:17.840Z</time>
      </trkpt>
      <trkpt lat="62.03481" lon="5.52892">
        <ele>48.752297</ele>
        <time>2020-07-29T13:14:20.842Z</time>
      </trkpt>
      <trkpt lat="62.03488" lon="5.52905">
        <ele>49.214181</ele>
        <time>2020-07-29T13:14:22.835Z</time>
      </trkpt>
      <trkpt lat="62.03495" lon="5.52918">
        <ele>49.67698</ele>
        <time>2020-07-29T13:14:24.856Z</time>
      </trkpt>
      <trkpt lat="62.03505" lon="5.52938">
        <ele>50.330866</ele>
        <time>2020-07-29T13:14:27.868Z</time>
      </trkpt>
      <trkpt lat="62.03511" lon="5.52952">
        <ele>50.79055</ele>
        <time>2020-07-29T13:14:29.851Z</time>
      </trkpt>
      <trkpt lat="62.03521" lon="5.52972">
        <ele>51.461264</ele>
        <time>2020-07-29T13:14:32.843Z</time>
      </trkpt>
      <trkpt lat="62.03531" lon="5.52991">
        <ele>52.123035</ele>
        <time>2020-07-29T13:14:35.839Z</time>
      </trkpt>
      <trkpt lat="62.03541" lon="5.53008">
        <ele>52.772852</ele>
        <time>2020-07-29T13:14:38.831Z</time>
      </trkpt>
      <trkpt lat="62.03551" lon="5.53026">
        <ele>53.419739</ele>
        <time>2020-07-29T13:14:41.843Z</time>
      </trkpt>
      <trkpt lat="62.0356" lon="5.53043">
        <ele>54.009156</ele>
        <time>2020-07-29T13:14:44.839Z</time>
      </trkpt>
      <trkpt lat="62.03568" lon="5.53057">
        <ele>54.479037</ele>
        <time>2020-07-29T13:14:47.848Z</time>
      </trkpt>
      <trkpt lat="62.03576" lon="5.53069">
        <ele>54.601411</ele>
        <time>2020-07-29T13:14:50.841Z</time>
      </trkpt>
      <trkpt lat="62.03586" lon="5.53078">
        <ele>54.73881</ele>
        <time>2020-07-29T13:14:53.848Z</time>
      </trkpt>
      <trkpt lat="62.03595" lon="5.53087">
        <ele>54.863821</ele>
        <time>2020-07-29T13:14:56.861Z</time>
      </trkpt>
      <trkpt lat="62.03605" lon="5.53094">
        <ele>54.990026</ele>
        <time>2020-07-29T13:14:59.835Z</time>
      </trkpt>
      <trkpt lat="62.03615" lon="5.53093">
        <ele>55.107652</ele>
        <time>2020-07-29T13:15:02.840Z</time>
      </trkpt>
      <trkpt lat="62.03623" lon="5.53081">
        <ele>55.236385</ele>
        <time>2020-07-29T13:15:05.844Z</time>
      </trkpt>
      <trkpt lat="62.03632" lon="5.5307">
        <ele>55.362628</ele>
        <time>2020-07-29T13:15:07.882Z</time>
      </trkpt>
      <trkpt lat="62.03641" lon="5.53057">
        <ele>55.494651</ele>
        <time>2020-07-29T13:15:09.833Z</time>
      </trkpt>
      <trkpt lat="62.03648" lon="5.53045">
        <ele>55.607515</ele>
        <time>2020-07-29T13:15:11.858Z</time>
      </trkpt>
      <trkpt lat="62.03658" lon="5.53032">
        <ele>55.75065</ele>
        <time>2020-07-29T13:15:14.857Z</time>
      </trkpt>
      <trkpt lat="62.03667" lon="5.53017">
        <ele>55.891441</ele>
        <time>2020-07-29T13:15:17.834Z</time>
      </trkpt>
      <trkpt lat="62.03676" lon="5.53001">
        <ele>56.038446</ele>
        <time>2020-07-29T13:15:20.872Z</time>
      </trkpt>
      <trkpt lat="62.03685" lon="5.52986">
        <ele>56.179936</ele>
        <time>2020-07-29T13:15:23.846Z</time>
      </trkpt>
      <trkpt lat="62.03692" lon="5.5297">
        <ele>56.309335</ele>
        <time>2020-07-29T13:15:26.854Z</time>
      </trkpt>
      <trkpt lat="62.03696" lon="5.52951">
        <ele>56.429547</ele>
        <time>2020-07-29T13:15:29.833Z</time>
      </trkpt>
      <trkpt lat="62.03705" lon="5.52937">
        <ele>56.561419</ele>
        <time>2020-07-29T13:15:32.877Z</time>
      </trkpt>
      <trkpt lat="62.03715" lon="5.52927">
        <ele>56.708365</ele>
        <time>2020-07-29T13:15:35.856Z</time>
      </trkpt>
      <trkpt lat="62.03724" lon="5.52916">
        <ele>56.836611</ele>
        <time>2020-07-29T13:15:38.867Z</time>
      </trkpt>
      <trkpt lat="62.03731" lon="5.529">
        <ele>56.971481</ele>
        <time>2020-07-29T13:15:41.844Z</time>
      </trkpt>
      <trkpt lat="62.03738" lon="5.52881">
        <ele>57.113666</ele>
        <time>2020-07-29T13:15:44.837Z</time>
      </trkpt>
      <trkpt lat="62.03745" lon="5.52861">
        <ele>57.268073</ele>
        <time>2020-07-29T13:15:47.839Z</time>
      </trkpt>
      <trkpt lat="62.03753" lon="5.52843">
        <ele>57.418808</ele>
        <time>2020-07-29T13:15:50.832Z</time>
      </trkpt>
      <trkpt lat="62.03756" lon="5.5282">
        <ele>57.561904</ele>
        <time>2020-07-29T13:15:53.856Z</time>
      </trkpt>
      <trkpt lat="62.0376" lon="5.52797">
        <ele>57.714558</ele>
        <time>2020-07-29T13:15:56.847Z</time>
      </trkpt>
      <trkpt lat="62.03768" lon="5.52776">
        <ele>57.880765</ele>
        <time>2020-07-29T13:15:59.862Z</time>
      </trkpt>
      <trkpt lat="62.03776" lon="5.52754">
        <ele>58.048732</ele>
        <time>2020-07-29T13:16:02.906Z</time>
      </trkpt>
      <trkpt lat="62.03784" lon="5.52732">
        <ele>58.213286</ele>
        <time>2020-07-29T13:16:05.857Z</time>
      </trkpt>
      <trkpt lat="62.03791" lon="5.52711">
        <ele>58.369881</ele>
        <time>2020-07-29T13:16:08.848Z</time>
      </trkpt>
      <trkpt lat="62.03798" lon="5.5269">
        <ele>58.527225</ele>
        <time>2020-07-29T13:16:11.852Z</time>
      </trkpt>
      <trkpt lat="62.03804" lon="5.5267">
        <ele>58.675898</ele>
        <time>2020-07-29T13:16:14.837Z</time>
      </trkpt>
      <trkpt lat="62.03813" lon="5.52654">
        <ele>58.822145</ele>
        <time>2020-07-29T13:16:17.832Z</time>
      </trkpt>
      <trkpt lat="62.03822" lon="5.5264">
        <ele>58.971819</ele>
        <time>2020-07-29T13:16:20.837Z</time>
      </trkpt>
      <trkpt lat="62.03831" lon="5.52622">
        <ele>59.019765</ele>
        <time>2020-07-29T13:16:23.828Z</time>
      </trkpt>
      <trkpt lat="62.03838" lon="5.52601">
        <ele>59.019765</ele>
        <time>2020-07-29T13:16:26.839Z</time>
      </trkpt>
      <trkpt lat="62.03844" lon="5.52582">
        <ele>59.019765</ele>
        <time>2020-07-29T13:16:29.872Z</time>
      </trkpt>
      <trkpt lat="62.03849" lon="5.5256">
        <ele>59.019765</ele>
        <time>2020-07-29T13:16:32.871Z</time>
      </trkpt>
      <trkpt lat="62.03855" lon="5.52537">
        <ele>59.019765</ele>
        <time>2020-07-29T13:16:35.853Z</time>
      </trkpt>
      <trkpt lat="62.03861" lon="5.52514">
        <ele>59.019765</ele>
        <time>2020-07-29T13:16:38.833Z</time>
      </trkpt>
      <trkpt lat="62.03869" lon="5.5249">
        <ele>59.019765</ele>
        <time>2020-07-29T13:16:41.832Z</time>
      </trkpt>
      <trkpt lat="62.03874" lon="5.52472">
        <ele>59.019765</ele>
        <time>2020-07-29T13:16:43.847Z</time>
      </trkpt>
      <trkpt lat="62.03879" lon="5.52454">
        <ele>59.019765</ele>
        <time>2020-07-29T13:16:45.854Z</time>
      </trkpt>
      <trkpt lat="62.03884" lon="5.52436">
        <ele>59.019765</ele>
        <time>2020-07-29T13:16:47.845Z</time>
      </trkpt>
      <trkpt lat="62.03889" lon="5.5242">
        <ele>59.019765</ele>
        <time>2020-07-29T13:16:49.908Z</time>
      </trkpt>
      <trkpt lat="62.03896" lon="5.52398">
        <ele>59.019765</ele>
        <time>2020-07-29T13:16:52.848Z</time>
      </trkpt>
      <trkpt lat="62.03901" lon="5.52378">
        <ele>59.019765</ele>
        <time>2020-07-29T13:16:55.835Z</time>
      </trkpt>
      <trkpt lat="62.03906" lon="5.52359">
        <ele>59.019765</ele>
        <time>2020-07-29T13:16:59.850Z</time>
      </trkpt>
      <trkpt lat="62.03909" lon="5.52339">
        <ele>59.019765</ele>
        <time>2020-07-29T13:17:04.846Z</time>
      </trkpt>
      <trkpt lat="62.03903" lon="5.52324">
        <ele>59.019765</ele>
        <time>2020-07-29T13:17:07.825Z</time>
      </trkpt>
      <trkpt lat="62.03895" lon="5.52313">
        <ele>59.019765</ele>
        <time>2020-07-29T13:17:10.813Z</time>
      </trkpt>
      <trkpt lat="62.03892" lon="5.523">
        <ele>59.019765</ele>
        <time>2020-07-29T13:18:51.993Z</time>
      </trkpt>
    </trkseg>
  </trk>
</gpx>